<?xml version="1.0" encoding="UTF-8" standalone="no" ?>
<gpx xmlns="http://www.topografix.com/GPX/1/1" xmlns:xsi="http://www.w3.org/2001/XMLSchema-instance" xsi:schemaLocation="http://www.topografix.com/GPX/1/1 http://www.topografix.com/GPX/1/1/gpx.xsd" version="1.1" creator="VisuGPX - https://www.visugpx.com">
  <metadata>
    <name>Balcons sur les vallées de l'Arbas et du Ger</name>
    <desc><![CDATA[Circuit exigeant de 69 km empruntant en partie certains parcours de l'espace VTT Pyrénées Comminges. La boucle peut se décomposer en 2 plus petites et de taille comparable, l'une dans la vallée de l'Arbas, l'autre dans la vallée du Ger (Aspet), la jonction s'effectuant au col de Larrieu.
De superbes paysages du piémont pyrénéen, dominés par le Cagire. ]]></desc>
  </metadata>
  <trk>
    <name><![CDATA[Move]]></name>
    <trkseg>
      <trkpt lat="43.01899" lon="0.88344">
        <ele>421</ele>
        <time>2016-12-03T10:42:15.008Z</time>
      </trkpt>
      <trkpt lat="43.01901" lon="0.88344">
        <ele>421</ele>
        <time>2016-12-03T10:42:24.008Z</time>
      </trkpt>
      <trkpt lat="43.01903" lon="0.8835">
        <ele>421</ele>
        <time>2016-12-03T10:42:27.008Z</time>
      </trkpt>
      <trkpt lat="43.01902" lon="0.88353">
        <ele>421</ele>
        <time>2016-12-03T10:42:28.008Z</time>
      </trkpt>
      <trkpt lat="43.01899" lon="0.88361">
        <ele>421</ele>
        <time>2016-12-03T10:42:30.008Z</time>
      </trkpt>
      <trkpt lat="43.01895" lon="0.8837">
        <ele>421</ele>
        <time>2016-12-03T10:42:32.008Z</time>
      </trkpt>
      <trkpt lat="43.01891" lon="0.8838">
        <ele>421</ele>
        <time>2016-12-03T10:42:34.008Z</time>
      </trkpt>
      <trkpt lat="43.01889" lon="0.8839">
        <ele>421</ele>
        <time>2016-12-03T10:42:36.008Z</time>
      </trkpt>
      <trkpt lat="43.01889" lon="0.884">
        <ele>421</ele>
        <time>2016-12-03T10:42:38.008Z</time>
      </trkpt>
      <trkpt lat="43.0189" lon="0.88405">
        <ele>421</ele>
        <time>2016-12-03T10:42:39.008Z</time>
      </trkpt>
      <trkpt lat="43.01894" lon="0.88415">
        <ele>420</ele>
        <time>2016-12-03T10:42:41.008Z</time>
      </trkpt>
      <trkpt lat="43.01899" lon="0.88426">
        <ele>420</ele>
        <time>2016-12-03T10:42:43.008Z</time>
      </trkpt>
      <trkpt lat="43.01905" lon="0.88439">
        <ele>420</ele>
        <time>2016-12-03T10:42:45.008Z</time>
      </trkpt>
      <trkpt lat="43.01908" lon="0.88446">
        <ele>420</ele>
        <time>2016-12-03T10:42:46.008Z</time>
      </trkpt>
      <trkpt lat="43.01914" lon="0.88461">
        <ele>420</ele>
        <time>2016-12-03T10:42:48.008Z</time>
      </trkpt>
      <trkpt lat="43.01917" lon="0.8847">
        <ele>420</ele>
        <time>2016-12-03T10:42:49.008Z</time>
      </trkpt>
      <trkpt lat="43.01921" lon="0.88478">
        <ele>419.30400389125</ele>
        <time>2016-12-03T10:42:50.008Z</time>
      </trkpt>
      <trkpt lat="43.01927" lon="0.88497">
        <ele>418</ele>
        <time>2016-12-03T10:42:52.008Z</time>
      </trkpt>
      <trkpt lat="43.01933" lon="0.88517">
        <ele>418</ele>
        <time>2016-12-03T10:42:54.008Z</time>
      </trkpt>
      <trkpt lat="43.01937" lon="0.88527">
        <ele>418</ele>
        <time>2016-12-03T10:42:55.008Z</time>
      </trkpt>
      <trkpt lat="43.0194" lon="0.88537">
        <ele>418</ele>
        <time>2016-12-03T10:42:56.008Z</time>
      </trkpt>
      <trkpt lat="43.01943" lon="0.88548">
        <ele>418</ele>
        <time>2016-12-03T10:42:57.008Z</time>
      </trkpt>
      <trkpt lat="43.01945" lon="0.88559">
        <ele>418</ele>
        <time>2016-12-03T10:42:58.008Z</time>
      </trkpt>
      <trkpt lat="43.01948" lon="0.88569">
        <ele>418</ele>
        <time>2016-12-03T10:42:59.008Z</time>
      </trkpt>
      <trkpt lat="43.01951" lon="0.8858">
        <ele>416.26000972812</ele>
        <time>2016-12-03T10:43:00.008Z</time>
      </trkpt>
      <trkpt lat="43.01953" lon="0.88591">
        <ele>413</ele>
        <time>2016-12-03T10:43:01.008Z</time>
      </trkpt>
      <trkpt lat="43.01954" lon="0.88602">
        <ele>413</ele>
        <time>2016-12-03T10:43:02.008Z</time>
      </trkpt>
      <trkpt lat="43.01955" lon="0.88613">
        <ele>413</ele>
        <time>2016-12-03T10:43:03.008Z</time>
      </trkpt>
      <trkpt lat="43.01954" lon="0.88624">
        <ele>412.65200194562</ele>
        <time>2016-12-03T10:43:04.008Z</time>
      </trkpt>
      <trkpt lat="43.01953" lon="0.88635">
        <ele>412</ele>
        <time>2016-12-03T10:43:05.008Z</time>
      </trkpt>
      <trkpt lat="43.01951" lon="0.88646">
        <ele>412</ele>
        <time>2016-12-03T10:43:06.008Z</time>
      </trkpt>
      <trkpt lat="43.01948" lon="0.88656">
        <ele>412</ele>
        <time>2016-12-03T10:43:07.008Z</time>
      </trkpt>
      <trkpt lat="43.01945" lon="0.88666">
        <ele>411.65200194562</ele>
        <time>2016-12-03T10:43:08.008Z</time>
      </trkpt>
      <trkpt lat="43.0194" lon="0.88676">
        <ele>410.65199805443</ele>
        <time>2016-12-03T10:43:09.008Z</time>
      </trkpt>
      <trkpt lat="43.01936" lon="0.88685">
        <ele>410.34799805438</ele>
        <time>2016-12-03T10:43:10.008Z</time>
      </trkpt>
      <trkpt lat="43.01931" lon="0.88695">
        <ele>411</ele>
        <time>2016-12-03T10:43:11.008Z</time>
      </trkpt>
      <trkpt lat="43.01927" lon="0.88704">
        <ele>411</ele>
        <time>2016-12-03T10:43:12.008Z</time>
      </trkpt>
      <trkpt lat="43.01922" lon="0.88713">
        <ele>411</ele>
        <time>2016-12-03T10:43:13.008Z</time>
      </trkpt>
      <trkpt lat="43.01917" lon="0.88722">
        <ele>411</ele>
        <time>2016-12-03T10:43:14.008Z</time>
      </trkpt>
      <trkpt lat="43.01913" lon="0.88731">
        <ele>411</ele>
        <time>2016-12-03T10:43:15.008Z</time>
      </trkpt>
      <trkpt lat="43.01908" lon="0.8874">
        <ele>411</ele>
        <time>2016-12-03T10:43:16.008Z</time>
      </trkpt>
      <trkpt lat="43.01903" lon="0.88748">
        <ele>411</ele>
        <time>2016-12-03T10:43:17.008Z</time>
      </trkpt>
      <trkpt lat="43.01898" lon="0.88757">
        <ele>411</ele>
        <time>2016-12-03T10:43:18.008Z</time>
      </trkpt>
      <trkpt lat="43.01893" lon="0.88765">
        <ele>411</ele>
        <time>2016-12-03T10:43:19.008Z</time>
      </trkpt>
      <trkpt lat="43.01888" lon="0.88774">
        <ele>410.30400389125</ele>
        <time>2016-12-03T10:43:20.008Z</time>
      </trkpt>
      <trkpt lat="43.01884" lon="0.88783">
        <ele>409</ele>
        <time>2016-12-03T10:43:21.008Z</time>
      </trkpt>
      <trkpt lat="43.01879" lon="0.88791">
        <ele>409</ele>
        <time>2016-12-03T10:43:22.008Z</time>
      </trkpt>
      <trkpt lat="43.01875" lon="0.888">
        <ele>409</ele>
        <time>2016-12-03T10:43:23.008Z</time>
      </trkpt>
      <trkpt lat="43.0187" lon="0.88808">
        <ele>409</ele>
        <time>2016-12-03T10:43:24.008Z</time>
      </trkpt>
      <trkpt lat="43.01866" lon="0.88817">
        <ele>409</ele>
        <time>2016-12-03T10:43:25.008Z</time>
      </trkpt>
      <trkpt lat="43.01861" lon="0.88826">
        <ele>409</ele>
        <time>2016-12-03T10:43:26.008Z</time>
      </trkpt>
      <trkpt lat="43.01857" lon="0.88835">
        <ele>409</ele>
        <time>2016-12-03T10:43:27.008Z</time>
      </trkpt>
      <trkpt lat="43.01853" lon="0.88844">
        <ele>409</ele>
        <time>2016-12-03T10:43:28.008Z</time>
      </trkpt>
      <trkpt lat="43.01849" lon="0.88853">
        <ele>409</ele>
        <time>2016-12-03T10:43:29.008Z</time>
      </trkpt>
      <trkpt lat="43.01845" lon="0.88862">
        <ele>407.95600583688</ele>
        <time>2016-12-03T10:43:30.008Z</time>
      </trkpt>
      <trkpt lat="43.01841" lon="0.88871">
        <ele>406</ele>
        <time>2016-12-03T10:43:31.008Z</time>
      </trkpt>
      <trkpt lat="43.01837" lon="0.8888">
        <ele>406</ele>
        <time>2016-12-03T10:43:32.008Z</time>
      </trkpt>
      <trkpt lat="43.01832" lon="0.88888">
        <ele>406</ele>
        <time>2016-12-03T10:43:33.008Z</time>
      </trkpt>
      <trkpt lat="43.01828" lon="0.88897">
        <ele>406</ele>
        <time>2016-12-03T10:43:34.008Z</time>
      </trkpt>
      <trkpt lat="43.01824" lon="0.88906">
        <ele>406</ele>
        <time>2016-12-03T10:43:35.008Z</time>
      </trkpt>
      <trkpt lat="43.0182" lon="0.88915">
        <ele>406</ele>
        <time>2016-12-03T10:43:36.008Z</time>
      </trkpt>
      <trkpt lat="43.01815" lon="0.88924">
        <ele>406</ele>
        <time>2016-12-03T10:43:37.008Z</time>
      </trkpt>
      <trkpt lat="43.01811" lon="0.88933">
        <ele>406</ele>
        <time>2016-12-03T10:43:38.008Z</time>
      </trkpt>
      <trkpt lat="43.01807" lon="0.88942">
        <ele>406</ele>
        <time>2016-12-03T10:43:39.008Z</time>
      </trkpt>
      <trkpt lat="43.01803" lon="0.88951">
        <ele>406</ele>
        <time>2016-12-03T10:43:40.008Z</time>
      </trkpt>
      <trkpt lat="43.01799" lon="0.8896">
        <ele>406</ele>
        <time>2016-12-03T10:43:41.008Z</time>
      </trkpt>
      <trkpt lat="43.01795" lon="0.88969">
        <ele>406</ele>
        <time>2016-12-03T10:43:42.008Z</time>
      </trkpt>
      <trkpt lat="43.01792" lon="0.88979">
        <ele>406</ele>
        <time>2016-12-03T10:43:43.008Z</time>
      </trkpt>
      <trkpt lat="43.01788" lon="0.88988">
        <ele>406</ele>
        <time>2016-12-03T10:43:44.008Z</time>
      </trkpt>
      <trkpt lat="43.01784" lon="0.88998">
        <ele>406</ele>
        <time>2016-12-03T10:43:45.008Z</time>
      </trkpt>
      <trkpt lat="43.01781" lon="0.89008">
        <ele>406</ele>
        <time>2016-12-03T10:43:46.008Z</time>
      </trkpt>
      <trkpt lat="43.01778" lon="0.89018">
        <ele>406</ele>
        <time>2016-12-03T10:43:47.008Z</time>
      </trkpt>
      <trkpt lat="43.01775" lon="0.89027">
        <ele>406</ele>
        <time>2016-12-03T10:43:48.008Z</time>
      </trkpt>
      <trkpt lat="43.01771" lon="0.89037">
        <ele>406</ele>
        <time>2016-12-03T10:43:49.008Z</time>
      </trkpt>
      <trkpt lat="43.01768" lon="0.89047">
        <ele>405.65200194562</ele>
        <time>2016-12-03T10:43:50.008Z</time>
      </trkpt>
      <trkpt lat="43.01765" lon="0.89056">
        <ele>405</ele>
        <time>2016-12-03T10:43:51.008Z</time>
      </trkpt>
      <trkpt lat="43.01761" lon="0.89066">
        <ele>405</ele>
        <time>2016-12-03T10:43:52.008Z</time>
      </trkpt>
      <trkpt lat="43.01758" lon="0.89075">
        <ele>405</ele>
        <time>2016-12-03T10:43:53.008Z</time>
      </trkpt>
      <trkpt lat="43.01754" lon="0.89084">
        <ele>405</ele>
        <time>2016-12-03T10:43:54.008Z</time>
      </trkpt>
      <trkpt lat="43.01751" lon="0.89093">
        <ele>405</ele>
        <time>2016-12-03T10:43:55.008Z</time>
      </trkpt>
      <trkpt lat="43.01747" lon="0.89103">
        <ele>405</ele>
        <time>2016-12-03T10:43:56.008Z</time>
      </trkpt>
      <trkpt lat="43.01744" lon="0.89112">
        <ele>405</ele>
        <time>2016-12-03T10:43:57.008Z</time>
      </trkpt>
      <trkpt lat="43.0174" lon="0.89121">
        <ele>405</ele>
        <time>2016-12-03T10:43:58.008Z</time>
      </trkpt>
      <trkpt lat="43.01737" lon="0.89129">
        <ele>405</ele>
        <time>2016-12-03T10:43:59.008Z</time>
      </trkpt>
      <trkpt lat="43.01735" lon="0.89139">
        <ele>403.95600583688</ele>
        <time>2016-12-03T10:44:00.008Z</time>
      </trkpt>
      <trkpt lat="43.01732" lon="0.89148">
        <ele>402</ele>
        <time>2016-12-03T10:44:01.008Z</time>
      </trkpt>
      <trkpt lat="43.0173" lon="0.89158">
        <ele>402</ele>
        <time>2016-12-03T10:44:02.008Z</time>
      </trkpt>
      <trkpt lat="43.01728" lon="0.89168">
        <ele>402</ele>
        <time>2016-12-03T10:44:03.008Z</time>
      </trkpt>
      <trkpt lat="43.01726" lon="0.89178">
        <ele>402</ele>
        <time>2016-12-03T10:44:04.008Z</time>
      </trkpt>
      <trkpt lat="43.01724" lon="0.89188">
        <ele>402</ele>
        <time>2016-12-03T10:44:05.008Z</time>
      </trkpt>
      <trkpt lat="43.01722" lon="0.89197">
        <ele>402</ele>
        <time>2016-12-03T10:44:06.008Z</time>
      </trkpt>
      <trkpt lat="43.0172" lon="0.89207">
        <ele>402</ele>
        <time>2016-12-03T10:44:07.008Z</time>
      </trkpt>
      <trkpt lat="43.01718" lon="0.89217">
        <ele>402</ele>
        <time>2016-12-03T10:44:08.008Z</time>
      </trkpt>
      <trkpt lat="43.01716" lon="0.89227">
        <ele>402</ele>
        <time>2016-12-03T10:44:09.008Z</time>
      </trkpt>
      <trkpt lat="43.01714" lon="0.89236">
        <ele>401.65200194562</ele>
        <time>2016-12-03T10:44:10.008Z</time>
      </trkpt>
      <trkpt lat="43.01712" lon="0.89246">
        <ele>401</ele>
        <time>2016-12-03T10:44:11.008Z</time>
      </trkpt>
      <trkpt lat="43.01709" lon="0.89255">
        <ele>401</ele>
        <time>2016-12-03T10:44:12.008Z</time>
      </trkpt>
      <trkpt lat="43.01707" lon="0.89265">
        <ele>401</ele>
        <time>2016-12-03T10:44:13.008Z</time>
      </trkpt>
      <trkpt lat="43.01705" lon="0.89275">
        <ele>401</ele>
        <time>2016-12-03T10:44:14.008Z</time>
      </trkpt>
      <trkpt lat="43.01703" lon="0.89284">
        <ele>401</ele>
        <time>2016-12-03T10:44:15.008Z</time>
      </trkpt>
      <trkpt lat="43.01701" lon="0.89294">
        <ele>401</ele>
        <time>2016-12-03T10:44:16.008Z</time>
      </trkpt>
      <trkpt lat="43.01698" lon="0.89303">
        <ele>401</ele>
        <time>2016-12-03T10:44:17.008Z</time>
      </trkpt>
      <trkpt lat="43.01696" lon="0.89312">
        <ele>401</ele>
        <time>2016-12-03T10:44:18.008Z</time>
      </trkpt>
      <trkpt lat="43.01694" lon="0.89322">
        <ele>401</ele>
        <time>2016-12-03T10:44:19.008Z</time>
      </trkpt>
      <trkpt lat="43.01691" lon="0.89331">
        <ele>401</ele>
        <time>2016-12-03T10:44:20.008Z</time>
      </trkpt>
      <trkpt lat="43.01688" lon="0.8934">
        <ele>401</ele>
        <time>2016-12-03T10:44:21.008Z</time>
      </trkpt>
      <trkpt lat="43.01686" lon="0.89349">
        <ele>401</ele>
        <time>2016-12-03T10:44:22.008Z</time>
      </trkpt>
      <trkpt lat="43.01683" lon="0.89358">
        <ele>401</ele>
        <time>2016-12-03T10:44:23.008Z</time>
      </trkpt>
      <trkpt lat="43.0168" lon="0.89366">
        <ele>401</ele>
        <time>2016-12-03T10:44:24.008Z</time>
      </trkpt>
      <trkpt lat="43.01676" lon="0.89375">
        <ele>401</ele>
        <time>2016-12-03T10:44:25.008Z</time>
      </trkpt>
      <trkpt lat="43.01673" lon="0.89383">
        <ele>401</ele>
        <time>2016-12-03T10:44:26.008Z</time>
      </trkpt>
      <trkpt lat="43.01669" lon="0.89391">
        <ele>401</ele>
        <time>2016-12-03T10:44:27.008Z</time>
      </trkpt>
      <trkpt lat="43.01666" lon="0.89399">
        <ele>401</ele>
        <time>2016-12-03T10:44:28.008Z</time>
      </trkpt>
      <trkpt lat="43.01662" lon="0.89407">
        <ele>401</ele>
        <time>2016-12-03T10:44:29.008Z</time>
      </trkpt>
      <trkpt lat="43.01659" lon="0.89415">
        <ele>401.34799805438</ele>
        <time>2016-12-03T10:44:30.008Z</time>
      </trkpt>
      <trkpt lat="43.01655" lon="0.89422">
        <ele>402</ele>
        <time>2016-12-03T10:44:31.008Z</time>
      </trkpt>
      <trkpt lat="43.01652" lon="0.8943">
        <ele>402</ele>
        <time>2016-12-03T10:44:32.008Z</time>
      </trkpt>
      <trkpt lat="43.01648" lon="0.89438">
        <ele>402</ele>
        <time>2016-12-03T10:44:33.008Z</time>
      </trkpt>
      <trkpt lat="43.01645" lon="0.89445">
        <ele>402</ele>
        <time>2016-12-03T10:44:34.008Z</time>
      </trkpt>
      <trkpt lat="43.01641" lon="0.89453">
        <ele>402</ele>
        <time>2016-12-03T10:44:35.008Z</time>
      </trkpt>
      <trkpt lat="43.01636" lon="0.8946">
        <ele>402</ele>
        <time>2016-12-03T10:44:36.008Z</time>
      </trkpt>
      <trkpt lat="43.01632" lon="0.89467">
        <ele>402</ele>
        <time>2016-12-03T10:44:37.008Z</time>
      </trkpt>
      <trkpt lat="43.01627" lon="0.89474">
        <ele>402</ele>
        <time>2016-12-03T10:44:38.008Z</time>
      </trkpt>
      <trkpt lat="43.01622" lon="0.8948">
        <ele>402</ele>
        <time>2016-12-03T10:44:39.008Z</time>
      </trkpt>
      <trkpt lat="43.01617" lon="0.89487">
        <ele>401.65545078955</ele>
        <time>2016-12-03T10:44:40.008Z</time>
      </trkpt>
      <trkpt lat="43.01611" lon="0.89494">
        <ele>401</ele>
        <time>2016-12-03T10:44:41.008Z</time>
      </trkpt>
      <trkpt lat="43.01606" lon="0.895">
        <ele>401</ele>
        <time>2016-12-03T10:44:42.008Z</time>
      </trkpt>
      <trkpt lat="43.016" lon="0.89507">
        <ele>401</ele>
        <time>2016-12-03T10:44:43.008Z</time>
      </trkpt>
      <trkpt lat="43.01588" lon="0.8952">
        <ele>401</ele>
        <time>2016-12-03T10:44:45.008Z</time>
      </trkpt>
      <trkpt lat="43.01575" lon="0.89533">
        <ele>401</ele>
        <time>2016-12-03T10:44:47.008Z</time>
      </trkpt>
      <trkpt lat="43.01569" lon="0.8954">
        <ele>401</ele>
        <time>2016-12-03T10:44:48.008Z</time>
      </trkpt>
      <trkpt lat="43.01562" lon="0.89547">
        <ele>401</ele>
        <time>2016-12-03T10:44:49.008Z</time>
      </trkpt>
      <trkpt lat="43.01557" lon="0.89554">
        <ele>400.30400389125</ele>
        <time>2016-12-03T10:44:50.008Z</time>
      </trkpt>
      <trkpt lat="43.01551" lon="0.89562">
        <ele>399</ele>
        <time>2016-12-03T10:44:51.008Z</time>
      </trkpt>
      <trkpt lat="43.01544" lon="0.89582">
        <ele>399</ele>
        <time>2016-12-03T10:44:53.008Z</time>
      </trkpt>
      <trkpt lat="43.01542" lon="0.89605">
        <ele>397.95599416328</ele>
        <time>2016-12-03T10:44:55.008Z</time>
      </trkpt>
      <trkpt lat="43.01543" lon="0.89617">
        <ele>396</ele>
        <time>2016-12-03T10:44:56.008Z</time>
      </trkpt>
      <trkpt lat="43.01543" lon="0.89628">
        <ele>396</ele>
        <time>2016-12-03T10:44:57.008Z</time>
      </trkpt>
      <trkpt lat="43.01544" lon="0.8964">
        <ele>396</ele>
        <time>2016-12-03T10:44:58.008Z</time>
      </trkpt>
      <trkpt lat="43.01545" lon="0.89652">
        <ele>396</ele>
        <time>2016-12-03T10:44:59.008Z</time>
      </trkpt>
      <trkpt lat="43.01544" lon="0.89663">
        <ele>395.65200194562</ele>
        <time>2016-12-03T10:45:00.008Z</time>
      </trkpt>
      <trkpt lat="43.01542" lon="0.89674">
        <ele>395</ele>
        <time>2016-12-03T10:45:01.008Z</time>
      </trkpt>
      <trkpt lat="43.01538" lon="0.89684">
        <ele>395</ele>
        <time>2016-12-03T10:45:02.008Z</time>
      </trkpt>
      <trkpt lat="43.01535" lon="0.89693">
        <ele>395</ele>
        <time>2016-12-03T10:45:03.008Z</time>
      </trkpt>
      <trkpt lat="43.01532" lon="0.89703">
        <ele>395</ele>
        <time>2016-12-03T10:45:04.008Z</time>
      </trkpt>
      <trkpt lat="43.0153" lon="0.89712">
        <ele>395</ele>
        <time>2016-12-03T10:45:05.008Z</time>
      </trkpt>
      <trkpt lat="43.01528" lon="0.89721">
        <ele>395</ele>
        <time>2016-12-03T10:45:06.008Z</time>
      </trkpt>
      <trkpt lat="43.01526" lon="0.8973">
        <ele>395</ele>
        <time>2016-12-03T10:45:07.008Z</time>
      </trkpt>
      <trkpt lat="43.01525" lon="0.89739">
        <ele>395</ele>
        <time>2016-12-03T10:45:08.008Z</time>
      </trkpt>
      <trkpt lat="43.01525" lon="0.89748">
        <ele>395</ele>
        <time>2016-12-03T10:45:09.008Z</time>
      </trkpt>
      <trkpt lat="43.01524" lon="0.89757">
        <ele>395</ele>
        <time>2016-12-03T10:45:10.008Z</time>
      </trkpt>
      <trkpt lat="43.01523" lon="0.89766">
        <ele>395</ele>
        <time>2016-12-03T10:45:11.008Z</time>
      </trkpt>
      <trkpt lat="43.01523" lon="0.89775">
        <ele>395</ele>
        <time>2016-12-03T10:45:12.008Z</time>
      </trkpt>
      <trkpt lat="43.01523" lon="0.89784">
        <ele>395</ele>
        <time>2016-12-03T10:45:13.008Z</time>
      </trkpt>
      <trkpt lat="43.01523" lon="0.89793">
        <ele>395</ele>
        <time>2016-12-03T10:45:14.008Z</time>
      </trkpt>
      <trkpt lat="43.01524" lon="0.89802">
        <ele>395</ele>
        <time>2016-12-03T10:45:15.008Z</time>
      </trkpt>
      <trkpt lat="43.01525" lon="0.89811">
        <ele>395</ele>
        <time>2016-12-03T10:45:16.008Z</time>
      </trkpt>
      <trkpt lat="43.01526" lon="0.89821">
        <ele>395</ele>
        <time>2016-12-03T10:45:17.008Z</time>
      </trkpt>
      <trkpt lat="43.01527" lon="0.8983">
        <ele>395</ele>
        <time>2016-12-03T10:45:18.008Z</time>
      </trkpt>
      <trkpt lat="43.01529" lon="0.8984">
        <ele>395</ele>
        <time>2016-12-03T10:45:19.008Z</time>
      </trkpt>
      <trkpt lat="43.0153" lon="0.8985">
        <ele>395</ele>
        <time>2016-12-03T10:45:20.008Z</time>
      </trkpt>
      <trkpt lat="43.01531" lon="0.8986">
        <ele>394.66862850904</ele>
        <time>2016-12-03T10:45:21.008Z</time>
      </trkpt>
      <trkpt lat="43.01533" lon="0.8987">
        <ele>394</ele>
        <time>2016-12-03T10:45:22.008Z</time>
      </trkpt>
      <trkpt lat="43.01535" lon="0.8988">
        <ele>394</ele>
        <time>2016-12-03T10:45:23.008Z</time>
      </trkpt>
      <trkpt lat="43.01538" lon="0.89901">
        <ele>394</ele>
        <time>2016-12-03T10:45:25.008Z</time>
      </trkpt>
      <trkpt lat="43.01539" lon="0.89912">
        <ele>394</ele>
        <time>2016-12-03T10:45:26.008Z</time>
      </trkpt>
      <trkpt lat="43.01541" lon="0.89922">
        <ele>394</ele>
        <time>2016-12-03T10:45:27.008Z</time>
      </trkpt>
      <trkpt lat="43.01542" lon="0.89933">
        <ele>394</ele>
        <time>2016-12-03T10:45:28.008Z</time>
      </trkpt>
      <trkpt lat="43.01543" lon="0.89944">
        <ele>394</ele>
        <time>2016-12-03T10:45:29.008Z</time>
      </trkpt>
      <trkpt lat="43.01544" lon="0.89955">
        <ele>394</ele>
        <time>2016-12-03T10:45:30.008Z</time>
      </trkpt>
      <trkpt lat="43.01545" lon="0.89966">
        <ele>392.95599416328</ele>
        <time>2016-12-03T10:45:31.008Z</time>
      </trkpt>
      <trkpt lat="43.01546" lon="0.89976">
        <ele>391</ele>
        <time>2016-12-03T10:45:32.008Z</time>
      </trkpt>
      <trkpt lat="43.01547" lon="0.89987">
        <ele>391</ele>
        <time>2016-12-03T10:45:33.008Z</time>
      </trkpt>
      <trkpt lat="43.01549" lon="0.89998">
        <ele>391</ele>
        <time>2016-12-03T10:45:34.008Z</time>
      </trkpt>
      <trkpt lat="43.01551" lon="0.90008">
        <ele>391</ele>
        <time>2016-12-03T10:45:35.008Z</time>
      </trkpt>
      <trkpt lat="43.01553" lon="0.90019">
        <ele>390.65200194562</ele>
        <time>2016-12-03T10:45:36.008Z</time>
      </trkpt>
      <trkpt lat="43.01557" lon="0.90029">
        <ele>390</ele>
        <time>2016-12-03T10:45:37.008Z</time>
      </trkpt>
      <trkpt lat="43.01561" lon="0.90038">
        <ele>390</ele>
        <time>2016-12-03T10:45:38.008Z</time>
      </trkpt>
      <trkpt lat="43.01566" lon="0.90047">
        <ele>390</ele>
        <time>2016-12-03T10:45:39.008Z</time>
      </trkpt>
      <trkpt lat="43.01571" lon="0.90056">
        <ele>390</ele>
        <time>2016-12-03T10:45:40.008Z</time>
      </trkpt>
      <trkpt lat="43.01576" lon="0.90065">
        <ele>389.65199805443</ele>
        <time>2016-12-03T10:45:41.008Z</time>
      </trkpt>
      <trkpt lat="43.01582" lon="0.90074">
        <ele>389</ele>
        <time>2016-12-03T10:45:42.008Z</time>
      </trkpt>
      <trkpt lat="43.01587" lon="0.90082">
        <ele>389</ele>
        <time>2016-12-03T10:45:43.008Z</time>
      </trkpt>
      <trkpt lat="43.01591" lon="0.90092">
        <ele>389</ele>
        <time>2016-12-03T10:45:44.008Z</time>
      </trkpt>
      <trkpt lat="43.01596" lon="0.90101">
        <ele>389</ele>
        <time>2016-12-03T10:45:45.008Z</time>
      </trkpt>
      <trkpt lat="43.016" lon="0.90111">
        <ele>388.65200194562</ele>
        <time>2016-12-03T10:45:46.008Z</time>
      </trkpt>
      <trkpt lat="43.01605" lon="0.90121">
        <ele>388</ele>
        <time>2016-12-03T10:45:47.008Z</time>
      </trkpt>
      <trkpt lat="43.01609" lon="0.90131">
        <ele>388</ele>
        <time>2016-12-03T10:45:48.008Z</time>
      </trkpt>
      <trkpt lat="43.01612" lon="0.90142">
        <ele>388</ele>
        <time>2016-12-03T10:45:49.008Z</time>
      </trkpt>
      <trkpt lat="43.01614" lon="0.90153">
        <ele>388</ele>
        <time>2016-12-03T10:45:50.008Z</time>
      </trkpt>
      <trkpt lat="43.01614" lon="0.90164">
        <ele>387.65199805443</ele>
        <time>2016-12-03T10:45:51.008Z</time>
      </trkpt>
      <trkpt lat="43.01612" lon="0.90175">
        <ele>387</ele>
        <time>2016-12-03T10:45:52.008Z</time>
      </trkpt>
      <trkpt lat="43.0161" lon="0.90185">
        <ele>387</ele>
        <time>2016-12-03T10:45:53.008Z</time>
      </trkpt>
      <trkpt lat="43.01607" lon="0.90195">
        <ele>387</ele>
        <time>2016-12-03T10:45:54.008Z</time>
      </trkpt>
      <trkpt lat="43.01604" lon="0.90206">
        <ele>387</ele>
        <time>2016-12-03T10:45:55.008Z</time>
      </trkpt>
      <trkpt lat="43.01602" lon="0.90216">
        <ele>387</ele>
        <time>2016-12-03T10:45:56.008Z</time>
      </trkpt>
      <trkpt lat="43.016" lon="0.90226">
        <ele>387</ele>
        <time>2016-12-03T10:45:57.008Z</time>
      </trkpt>
      <trkpt lat="43.01599" lon="0.90236">
        <ele>387</ele>
        <time>2016-12-03T10:45:58.008Z</time>
      </trkpt>
      <trkpt lat="43.01599" lon="0.90247">
        <ele>387</ele>
        <time>2016-12-03T10:45:59.008Z</time>
      </trkpt>
      <trkpt lat="43.01599" lon="0.90258">
        <ele>387</ele>
        <time>2016-12-03T10:46:00.008Z</time>
      </trkpt>
      <trkpt lat="43.016" lon="0.90269">
        <ele>386.30399610885</ele>
        <time>2016-12-03T10:46:01.008Z</time>
      </trkpt>
      <trkpt lat="43.01601" lon="0.90279">
        <ele>385</ele>
        <time>2016-12-03T10:46:02.008Z</time>
      </trkpt>
      <trkpt lat="43.01603" lon="0.9029">
        <ele>385</ele>
        <time>2016-12-03T10:46:03.008Z</time>
      </trkpt>
      <trkpt lat="43.01605" lon="0.90301">
        <ele>385</ele>
        <time>2016-12-03T10:46:04.008Z</time>
      </trkpt>
      <trkpt lat="43.01607" lon="0.90312">
        <ele>385</ele>
        <time>2016-12-03T10:46:05.008Z</time>
      </trkpt>
      <trkpt lat="43.01609" lon="0.90323">
        <ele>385</ele>
        <time>2016-12-03T10:46:06.008Z</time>
      </trkpt>
      <trkpt lat="43.0161" lon="0.90335">
        <ele>385</ele>
        <time>2016-12-03T10:46:07.008Z</time>
      </trkpt>
      <trkpt lat="43.0161" lon="0.90347">
        <ele>385</ele>
        <time>2016-12-03T10:46:08.008Z</time>
      </trkpt>
      <trkpt lat="43.01609" lon="0.90358">
        <ele>385</ele>
        <time>2016-12-03T10:46:09.008Z</time>
      </trkpt>
      <trkpt lat="43.01607" lon="0.90369">
        <ele>385</ele>
        <time>2016-12-03T10:46:10.008Z</time>
      </trkpt>
      <trkpt lat="43.01604" lon="0.9038">
        <ele>384.30399610885</ele>
        <time>2016-12-03T10:46:11.008Z</time>
      </trkpt>
      <trkpt lat="43.016" lon="0.9039">
        <ele>383</ele>
        <time>2016-12-03T10:46:12.008Z</time>
      </trkpt>
      <trkpt lat="43.01596" lon="0.90399">
        <ele>383</ele>
        <time>2016-12-03T10:46:13.008Z</time>
      </trkpt>
      <trkpt lat="43.01592" lon="0.90408">
        <ele>383</ele>
        <time>2016-12-03T10:46:14.008Z</time>
      </trkpt>
      <trkpt lat="43.01588" lon="0.90416">
        <ele>383</ele>
        <time>2016-12-03T10:46:15.008Z</time>
      </trkpt>
      <trkpt lat="43.01584" lon="0.90425">
        <ele>383</ele>
        <time>2016-12-03T10:46:16.008Z</time>
      </trkpt>
      <trkpt lat="43.0158" lon="0.90433">
        <ele>383</ele>
        <time>2016-12-03T10:46:17.008Z</time>
      </trkpt>
      <trkpt lat="43.01577" lon="0.9044">
        <ele>383</ele>
        <time>2016-12-03T10:46:18.008Z</time>
      </trkpt>
      <trkpt lat="43.01574" lon="0.90447">
        <ele>383</ele>
        <time>2016-12-03T10:46:19.008Z</time>
      </trkpt>
      <trkpt lat="43.01569" lon="0.9046">
        <ele>383</ele>
        <time>2016-12-03T10:46:21.008Z</time>
      </trkpt>
      <trkpt lat="43.01566" lon="0.90466">
        <ele>383</ele>
        <time>2016-12-03T10:46:22.008Z</time>
      </trkpt>
      <trkpt lat="43.01563" lon="0.90473">
        <ele>383</ele>
        <time>2016-12-03T10:46:23.008Z</time>
      </trkpt>
      <trkpt lat="43.0156" lon="0.90479">
        <ele>383</ele>
        <time>2016-12-03T10:46:24.008Z</time>
      </trkpt>
      <trkpt lat="43.01557" lon="0.90486">
        <ele>383</ele>
        <time>2016-12-03T10:46:25.008Z</time>
      </trkpt>
      <trkpt lat="43.01553" lon="0.90493">
        <ele>383</ele>
        <time>2016-12-03T10:46:26.008Z</time>
      </trkpt>
      <trkpt lat="43.01551" lon="0.905">
        <ele>383</ele>
        <time>2016-12-03T10:46:27.008Z</time>
      </trkpt>
      <trkpt lat="43.01548" lon="0.90508">
        <ele>383</ele>
        <time>2016-12-03T10:46:28.008Z</time>
      </trkpt>
      <trkpt lat="43.01547" lon="0.90517">
        <ele>383</ele>
        <time>2016-12-03T10:46:29.008Z</time>
      </trkpt>
      <trkpt lat="43.01547" lon="0.90527">
        <ele>383</ele>
        <time>2016-12-03T10:46:30.008Z</time>
      </trkpt>
      <trkpt lat="43.01547" lon="0.90537">
        <ele>382.30399610885</ele>
        <time>2016-12-03T10:46:31.008Z</time>
      </trkpt>
      <trkpt lat="43.01547" lon="0.90547">
        <ele>381</ele>
        <time>2016-12-03T10:46:32.008Z</time>
      </trkpt>
      <trkpt lat="43.01547" lon="0.90557">
        <ele>381</ele>
        <time>2016-12-03T10:46:33.008Z</time>
      </trkpt>
      <trkpt lat="43.01547" lon="0.90567">
        <ele>381</ele>
        <time>2016-12-03T10:46:34.008Z</time>
      </trkpt>
      <trkpt lat="43.01547" lon="0.90576">
        <ele>381</ele>
        <time>2016-12-03T10:46:35.008Z</time>
      </trkpt>
      <trkpt lat="43.01547" lon="0.90584">
        <ele>381</ele>
        <time>2016-12-03T10:46:36.008Z</time>
      </trkpt>
      <trkpt lat="43.01545" lon="0.90599">
        <ele>381</ele>
        <time>2016-12-03T10:46:38.008Z</time>
      </trkpt>
      <trkpt lat="43.01537" lon="0.90612">
        <ele>381</ele>
        <time>2016-12-03T10:46:40.008Z</time>
      </trkpt>
      <trkpt lat="43.01528" lon="0.90621">
        <ele>381</ele>
        <time>2016-12-03T10:46:42.008Z</time>
      </trkpt>
      <trkpt lat="43.01519" lon="0.90628">
        <ele>381</ele>
        <time>2016-12-03T10:46:44.008Z</time>
      </trkpt>
      <trkpt lat="43.01514" lon="0.90632">
        <ele>381</ele>
        <time>2016-12-03T10:46:45.008Z</time>
      </trkpt>
      <trkpt lat="43.0151" lon="0.90636">
        <ele>381</ele>
        <time>2016-12-03T10:46:46.008Z</time>
      </trkpt>
      <trkpt lat="43.01506" lon="0.9064">
        <ele>381</ele>
        <time>2016-12-03T10:46:47.008Z</time>
      </trkpt>
      <trkpt lat="43.01498" lon="0.90651">
        <ele>381</ele>
        <time>2016-12-03T10:46:49.008Z</time>
      </trkpt>
      <trkpt lat="43.01495" lon="0.90656">
        <ele>381</ele>
        <time>2016-12-03T10:46:50.008Z</time>
      </trkpt>
      <trkpt lat="43.01492" lon="0.90661">
        <ele>381.34800194557</ele>
        <time>2016-12-03T10:46:51.008Z</time>
      </trkpt>
      <trkpt lat="43.01485" lon="0.90671">
        <ele>382</ele>
        <time>2016-12-03T10:46:53.008Z</time>
      </trkpt>
      <trkpt lat="43.01479" lon="0.90681">
        <ele>382</ele>
        <time>2016-12-03T10:46:55.008Z</time>
      </trkpt>
      <trkpt lat="43.01474" lon="0.90691">
        <ele>382</ele>
        <time>2016-12-03T10:46:57.008Z</time>
      </trkpt>
      <trkpt lat="43.01471" lon="0.90695">
        <ele>382</ele>
        <time>2016-12-03T10:46:58.008Z</time>
      </trkpt>
      <trkpt lat="43.01466" lon="0.90704">
        <ele>382</ele>
        <time>2016-12-03T10:47:00.008Z</time>
      </trkpt>
      <trkpt lat="43.01464" lon="0.90708">
        <ele>382.69600389115</ele>
        <time>2016-12-03T10:47:01.008Z</time>
      </trkpt>
      <trkpt lat="43.01462" lon="0.90713">
        <ele>384</ele>
        <time>2016-12-03T10:47:02.008Z</time>
      </trkpt>
      <trkpt lat="43.01459" lon="0.90718">
        <ele>384</ele>
        <time>2016-12-03T10:47:03.008Z</time>
      </trkpt>
      <trkpt lat="43.01457" lon="0.90723">
        <ele>384</ele>
        <time>2016-12-03T10:47:04.008Z</time>
      </trkpt>
      <trkpt lat="43.01455" lon="0.90727">
        <ele>384</ele>
        <time>2016-12-03T10:47:05.008Z</time>
      </trkpt>
      <trkpt lat="43.01452" lon="0.90732">
        <ele>384.34799805438</ele>
        <time>2016-12-03T10:47:06.008Z</time>
      </trkpt>
      <trkpt lat="43.0145" lon="0.90736">
        <ele>385</ele>
        <time>2016-12-03T10:47:07.008Z</time>
      </trkpt>
      <trkpt lat="43.01448" lon="0.90746">
        <ele>385</ele>
        <time>2016-12-03T10:47:09.008Z</time>
      </trkpt>
      <trkpt lat="43.0145" lon="0.90753">
        <ele>385</ele>
        <time>2016-12-03T10:47:11.008Z</time>
      </trkpt>
      <trkpt lat="43.01457" lon="0.90758">
        <ele>385</ele>
        <time>2016-12-03T10:47:13.008Z</time>
      </trkpt>
      <trkpt lat="43.01469" lon="0.90765">
        <ele>385</ele>
        <time>2016-12-03T10:47:16.008Z</time>
      </trkpt>
      <trkpt lat="43.01482" lon="0.90773">
        <ele>385</ele>
        <time>2016-12-03T10:47:19.008Z</time>
      </trkpt>
      <trkpt lat="43.01491" lon="0.90782">
        <ele>387</ele>
        <time>2016-12-03T10:47:22.008Z</time>
      </trkpt>
      <trkpt lat="43.01499" lon="0.9079">
        <ele>387</ele>
        <time>2016-12-03T10:47:25.008Z</time>
      </trkpt>
      <trkpt lat="43.01507" lon="0.90802">
        <ele>387</ele>
        <time>2016-12-03T10:47:29.008Z</time>
      </trkpt>
      <trkpt lat="43.01515" lon="0.90807">
        <ele>388.04400583672</ele>
        <time>2016-12-03T10:47:31.008Z</time>
      </trkpt>
      <trkpt lat="43.01524" lon="0.90812">
        <ele>390</ele>
        <time>2016-12-03T10:47:33.008Z</time>
      </trkpt>
      <trkpt lat="43.01535" lon="0.90817">
        <ele>390</ele>
        <time>2016-12-03T10:47:35.008Z</time>
      </trkpt>
      <trkpt lat="43.01545" lon="0.90821">
        <ele>390</ele>
        <time>2016-12-03T10:47:37.008Z</time>
      </trkpt>
      <trkpt lat="43.01554" lon="0.90826">
        <ele>390</ele>
        <time>2016-12-03T10:47:39.008Z</time>
      </trkpt>
      <trkpt lat="43.01563" lon="0.90831">
        <ele>389.65199805443</ele>
        <time>2016-12-03T10:47:41.008Z</time>
      </trkpt>
      <trkpt lat="43.01573" lon="0.90838">
        <ele>389</ele>
        <time>2016-12-03T10:47:43.008Z</time>
      </trkpt>
      <trkpt lat="43.01584" lon="0.90846">
        <ele>389</ele>
        <time>2016-12-03T10:47:45.008Z</time>
      </trkpt>
      <trkpt lat="43.01593" lon="0.90855">
        <ele>389</ele>
        <time>2016-12-03T10:47:47.008Z</time>
      </trkpt>
      <trkpt lat="43.01602" lon="0.90866">
        <ele>389</ele>
        <time>2016-12-03T10:47:49.008Z</time>
      </trkpt>
      <trkpt lat="43.01614" lon="0.90879">
        <ele>387.95599416328</ele>
        <time>2016-12-03T10:47:51.008Z</time>
      </trkpt>
      <trkpt lat="43.01621" lon="0.90887">
        <ele>386</ele>
        <time>2016-12-03T10:47:52.008Z</time>
      </trkpt>
      <trkpt lat="43.01633" lon="0.90902">
        <ele>386</ele>
        <time>2016-12-03T10:47:54.008Z</time>
      </trkpt>
      <trkpt lat="43.01639" lon="0.90909">
        <ele>386</ele>
        <time>2016-12-03T10:47:55.008Z</time>
      </trkpt>
      <trkpt lat="43.01644" lon="0.90915">
        <ele>385.30400389125</ele>
        <time>2016-12-03T10:47:56.008Z</time>
      </trkpt>
      <trkpt lat="43.0165" lon="0.90919">
        <ele>384</ele>
        <time>2016-12-03T10:47:57.008Z</time>
      </trkpt>
      <trkpt lat="43.01656" lon="0.90923">
        <ele>384</ele>
        <time>2016-12-03T10:47:58.008Z</time>
      </trkpt>
      <trkpt lat="43.01661" lon="0.90927">
        <ele>384</ele>
        <time>2016-12-03T10:47:59.008Z</time>
      </trkpt>
      <trkpt lat="43.01667" lon="0.90931">
        <ele>384</ele>
        <time>2016-12-03T10:48:00.008Z</time>
      </trkpt>
      <trkpt lat="43.01672" lon="0.90935">
        <ele>384.34455751708</ele>
        <time>2016-12-03T10:48:01.008Z</time>
      </trkpt>
      <trkpt lat="43.01676" lon="0.90938">
        <ele>385</ele>
        <time>2016-12-03T10:48:02.008Z</time>
      </trkpt>
      <trkpt lat="43.01681" lon="0.90942">
        <ele>385</ele>
        <time>2016-12-03T10:48:03.008Z</time>
      </trkpt>
      <trkpt lat="43.01685" lon="0.90946">
        <ele>385</ele>
        <time>2016-12-03T10:48:04.008Z</time>
      </trkpt>
      <trkpt lat="43.0169" lon="0.90949">
        <ele>385</ele>
        <time>2016-12-03T10:48:05.008Z</time>
      </trkpt>
      <trkpt lat="43.01694" lon="0.90953">
        <ele>385</ele>
        <time>2016-12-03T10:48:06.008Z</time>
      </trkpt>
      <trkpt lat="43.01699" lon="0.90957">
        <ele>385</ele>
        <time>2016-12-03T10:48:07.008Z</time>
      </trkpt>
      <trkpt lat="43.01704" lon="0.9096">
        <ele>385</ele>
        <time>2016-12-03T10:48:08.008Z</time>
      </trkpt>
      <trkpt lat="43.01709" lon="0.90964">
        <ele>385</ele>
        <time>2016-12-03T10:48:09.008Z</time>
      </trkpt>
      <trkpt lat="43.01714" lon="0.90968">
        <ele>385</ele>
        <time>2016-12-03T10:48:10.008Z</time>
      </trkpt>
      <trkpt lat="43.01723" lon="0.90976">
        <ele>385</ele>
        <time>2016-12-03T10:48:12.008Z</time>
      </trkpt>
      <trkpt lat="43.01734" lon="0.90984">
        <ele>385</ele>
        <time>2016-12-03T10:48:14.008Z</time>
      </trkpt>
      <trkpt lat="43.01744" lon="0.90992">
        <ele>385</ele>
        <time>2016-12-03T10:48:16.008Z</time>
      </trkpt>
      <trkpt lat="43.0175" lon="0.90996">
        <ele>385</ele>
        <time>2016-12-03T10:48:17.008Z</time>
      </trkpt>
      <trkpt lat="43.01756" lon="0.90999">
        <ele>385</ele>
        <time>2016-12-03T10:48:18.008Z</time>
      </trkpt>
      <trkpt lat="43.01761" lon="0.91002">
        <ele>385</ele>
        <time>2016-12-03T10:48:19.008Z</time>
      </trkpt>
      <trkpt lat="43.01767" lon="0.91005">
        <ele>385</ele>
        <time>2016-12-03T10:48:20.008Z</time>
      </trkpt>
      <trkpt lat="43.01773" lon="0.91008">
        <ele>384.30399610885</ele>
        <time>2016-12-03T10:48:21.008Z</time>
      </trkpt>
      <trkpt lat="43.01779" lon="0.91011">
        <ele>383</ele>
        <time>2016-12-03T10:48:22.008Z</time>
      </trkpt>
      <trkpt lat="43.01784" lon="0.91014">
        <ele>383</ele>
        <time>2016-12-03T10:48:23.008Z</time>
      </trkpt>
      <trkpt lat="43.0179" lon="0.91018">
        <ele>383</ele>
        <time>2016-12-03T10:48:24.008Z</time>
      </trkpt>
      <trkpt lat="43.01801" lon="0.91025">
        <ele>383</ele>
        <time>2016-12-03T10:48:26.008Z</time>
      </trkpt>
      <trkpt lat="43.01813" lon="0.91028">
        <ele>383</ele>
        <time>2016-12-03T10:48:28.008Z</time>
      </trkpt>
      <trkpt lat="43.0182" lon="0.91028">
        <ele>383</ele>
        <time>2016-12-03T10:48:29.008Z</time>
      </trkpt>
      <trkpt lat="43.01827" lon="0.91028">
        <ele>383</ele>
        <time>2016-12-03T10:48:30.008Z</time>
      </trkpt>
      <trkpt lat="43.01835" lon="0.91026">
        <ele>382.30399610885</ele>
        <time>2016-12-03T10:48:31.008Z</time>
      </trkpt>
      <trkpt lat="43.01843" lon="0.91025">
        <ele>381</ele>
        <time>2016-12-03T10:48:32.008Z</time>
      </trkpt>
      <trkpt lat="43.01851" lon="0.91024">
        <ele>381</ele>
        <time>2016-12-03T10:48:33.008Z</time>
      </trkpt>
      <trkpt lat="43.0186" lon="0.91024">
        <ele>381</ele>
        <time>2016-12-03T10:48:34.008Z</time>
      </trkpt>
      <trkpt lat="43.01869" lon="0.91024">
        <ele>381</ele>
        <time>2016-12-03T10:48:35.008Z</time>
      </trkpt>
      <trkpt lat="43.01878" lon="0.91026">
        <ele>379.95600583688</ele>
        <time>2016-12-03T10:48:36.008Z</time>
      </trkpt>
      <trkpt lat="43.01887" lon="0.91028">
        <ele>378</ele>
        <time>2016-12-03T10:48:37.008Z</time>
      </trkpt>
      <trkpt lat="43.01897" lon="0.9103">
        <ele>378</ele>
        <time>2016-12-03T10:48:38.008Z</time>
      </trkpt>
      <trkpt lat="43.01907" lon="0.91032">
        <ele>378</ele>
        <time>2016-12-03T10:48:39.008Z</time>
      </trkpt>
      <trkpt lat="43.01916" lon="0.91034">
        <ele>378</ele>
        <time>2016-12-03T10:48:40.008Z</time>
      </trkpt>
      <trkpt lat="43.01926" lon="0.91036">
        <ele>377.30399610885</ele>
        <time>2016-12-03T10:48:41.008Z</time>
      </trkpt>
      <trkpt lat="43.01935" lon="0.91039">
        <ele>375.30400389125</ele>
        <time>2016-12-03T10:48:42.008Z</time>
      </trkpt>
      <trkpt lat="43.01944" lon="0.91043">
        <ele>373.65199805443</ele>
        <time>2016-12-03T10:48:43.008Z</time>
      </trkpt>
      <trkpt lat="43.01953" lon="0.91047">
        <ele>372.65200194562</ele>
        <time>2016-12-03T10:48:44.008Z</time>
      </trkpt>
      <trkpt lat="43.01961" lon="0.91053">
        <ele>372</ele>
        <time>2016-12-03T10:48:45.008Z</time>
      </trkpt>
      <trkpt lat="43.01968" lon="0.91061">
        <ele>372</ele>
        <time>2016-12-03T10:48:46.008Z</time>
      </trkpt>
      <trkpt lat="43.01976" lon="0.91068">
        <ele>372</ele>
        <time>2016-12-03T10:48:47.008Z</time>
      </trkpt>
      <trkpt lat="43.01983" lon="0.91075">
        <ele>371.65200194562</ele>
        <time>2016-12-03T10:48:48.008Z</time>
      </trkpt>
      <trkpt lat="43.0199" lon="0.91082">
        <ele>371</ele>
        <time>2016-12-03T10:48:49.008Z</time>
      </trkpt>
      <trkpt lat="43.01997" lon="0.91089">
        <ele>370.65200194562</ele>
        <time>2016-12-03T10:48:50.008Z</time>
      </trkpt>
      <trkpt lat="43.02004" lon="0.91096">
        <ele>370</ele>
        <time>2016-12-03T10:48:51.008Z</time>
      </trkpt>
      <trkpt lat="43.02018" lon="0.91112">
        <ele>370</ele>
        <time>2016-12-03T10:48:53.008Z</time>
      </trkpt>
      <trkpt lat="43.0203" lon="0.91124">
        <ele>369.34800194557</ele>
        <time>2016-12-03T10:48:55.008Z</time>
      </trkpt>
      <trkpt lat="43.02043" lon="0.91122">
        <ele>370</ele>
        <time>2016-12-03T10:48:58.008Z</time>
      </trkpt>
      <trkpt lat="43.02055" lon="0.91123">
        <ele>371</ele>
        <time>2016-12-03T10:49:01.008Z</time>
      </trkpt>
      <trkpt lat="43.02066" lon="0.91135">
        <ele>371</ele>
        <time>2016-12-03T10:49:04.008Z</time>
      </trkpt>
      <trkpt lat="43.02072" lon="0.91145">
        <ele>371</ele>
        <time>2016-12-03T10:49:06.008Z</time>
      </trkpt>
      <trkpt lat="43.02078" lon="0.91156">
        <ele>371</ele>
        <time>2016-12-03T10:49:08.008Z</time>
      </trkpt>
      <trkpt lat="43.02082" lon="0.91168">
        <ele>371</ele>
        <time>2016-12-03T10:49:10.008Z</time>
      </trkpt>
      <trkpt lat="43.02086" lon="0.91182">
        <ele>372</ele>
        <time>2016-12-03T10:49:12.008Z</time>
      </trkpt>
      <trkpt lat="43.02089" lon="0.91196">
        <ele>372</ele>
        <time>2016-12-03T10:49:14.008Z</time>
      </trkpt>
      <trkpt lat="43.02094" lon="0.91208">
        <ele>372</ele>
        <time>2016-12-03T10:49:16.008Z</time>
      </trkpt>
      <trkpt lat="43.02102" lon="0.91218">
        <ele>372</ele>
        <time>2016-12-03T10:49:18.008Z</time>
      </trkpt>
      <trkpt lat="43.02111" lon="0.91223">
        <ele>372</ele>
        <time>2016-12-03T10:49:20.008Z</time>
      </trkpt>
      <trkpt lat="43.02116" lon="0.91225">
        <ele>372</ele>
        <time>2016-12-03T10:49:21.008Z</time>
      </trkpt>
      <trkpt lat="43.02121" lon="0.91227">
        <ele>372</ele>
        <time>2016-12-03T10:49:22.008Z</time>
      </trkpt>
      <trkpt lat="43.02126" lon="0.9123">
        <ele>372</ele>
        <time>2016-12-03T10:49:23.008Z</time>
      </trkpt>
      <trkpt lat="43.02131" lon="0.91232">
        <ele>372</ele>
        <time>2016-12-03T10:49:24.008Z</time>
      </trkpt>
      <trkpt lat="43.02136" lon="0.91235">
        <ele>372</ele>
        <time>2016-12-03T10:49:25.008Z</time>
      </trkpt>
      <trkpt lat="43.02141" lon="0.91238">
        <ele>372</ele>
        <time>2016-12-03T10:49:26.008Z</time>
      </trkpt>
      <trkpt lat="43.02145" lon="0.91241">
        <ele>372</ele>
        <time>2016-12-03T10:49:27.008Z</time>
      </trkpt>
      <trkpt lat="43.02154" lon="0.91248">
        <ele>372</ele>
        <time>2016-12-03T10:49:29.008Z</time>
      </trkpt>
      <trkpt lat="43.02163" lon="0.91256">
        <ele>372.34800194557</ele>
        <time>2016-12-03T10:49:31.008Z</time>
      </trkpt>
      <trkpt lat="43.0217" lon="0.91265">
        <ele>373</ele>
        <time>2016-12-03T10:49:33.008Z</time>
      </trkpt>
      <trkpt lat="43.02177" lon="0.91274">
        <ele>373</ele>
        <time>2016-12-03T10:49:35.008Z</time>
      </trkpt>
      <trkpt lat="43.02183" lon="0.91283">
        <ele>373</ele>
        <time>2016-12-03T10:49:37.008Z</time>
      </trkpt>
      <trkpt lat="43.0219" lon="0.91292">
        <ele>373</ele>
        <time>2016-12-03T10:49:39.008Z</time>
      </trkpt>
      <trkpt lat="43.02196" lon="0.91302">
        <ele>373.34800194557</ele>
        <time>2016-12-03T10:49:41.008Z</time>
      </trkpt>
      <trkpt lat="43.022" lon="0.91308">
        <ele>374</ele>
        <time>2016-12-03T10:49:42.008Z</time>
      </trkpt>
      <trkpt lat="43.02203" lon="0.91315">
        <ele>374</ele>
        <time>2016-12-03T10:49:43.008Z</time>
      </trkpt>
      <trkpt lat="43.02206" lon="0.91322">
        <ele>374</ele>
        <time>2016-12-03T10:49:44.008Z</time>
      </trkpt>
      <trkpt lat="43.02212" lon="0.91338">
        <ele>374</ele>
        <time>2016-12-03T10:49:46.008Z</time>
      </trkpt>
      <trkpt lat="43.02214" lon="0.91347">
        <ele>374</ele>
        <time>2016-12-03T10:49:47.008Z</time>
      </trkpt>
      <trkpt lat="43.02217" lon="0.91357">
        <ele>374</ele>
        <time>2016-12-03T10:49:48.008Z</time>
      </trkpt>
      <trkpt lat="43.02219" lon="0.91367">
        <ele>374</ele>
        <time>2016-12-03T10:49:49.008Z</time>
      </trkpt>
      <trkpt lat="43.02223" lon="0.91387">
        <ele>372.95599416328</ele>
        <time>2016-12-03T10:49:51.008Z</time>
      </trkpt>
      <trkpt lat="43.02231" lon="0.91404">
        <ele>371</ele>
        <time>2016-12-03T10:49:53.008Z</time>
      </trkpt>
      <trkpt lat="43.02241" lon="0.91417">
        <ele>371</ele>
        <time>2016-12-03T10:49:55.008Z</time>
      </trkpt>
      <trkpt lat="43.0225" lon="0.91431">
        <ele>369</ele>
        <time>2016-12-03T10:49:57.008Z</time>
      </trkpt>
      <trkpt lat="43.02256" lon="0.91446">
        <ele>369</ele>
        <time>2016-12-03T10:49:59.008Z</time>
      </trkpt>
      <trkpt lat="43.02258" lon="0.91454">
        <ele>369</ele>
        <time>2016-12-03T10:50:00.008Z</time>
      </trkpt>
      <trkpt lat="43.02261" lon="0.91462">
        <ele>369</ele>
        <time>2016-12-03T10:50:01.008Z</time>
      </trkpt>
      <trkpt lat="43.02263" lon="0.91469">
        <ele>369</ele>
        <time>2016-12-03T10:50:02.008Z</time>
      </trkpt>
      <trkpt lat="43.02267" lon="0.91484">
        <ele>369</ele>
        <time>2016-12-03T10:50:04.008Z</time>
      </trkpt>
      <trkpt lat="43.02269" lon="0.91492">
        <ele>369</ele>
        <time>2016-12-03T10:50:05.008Z</time>
      </trkpt>
      <trkpt lat="43.02271" lon="0.91499">
        <ele>369</ele>
        <time>2016-12-03T10:50:06.008Z</time>
      </trkpt>
      <trkpt lat="43.02274" lon="0.91507">
        <ele>369</ele>
        <time>2016-12-03T10:50:07.008Z</time>
      </trkpt>
      <trkpt lat="43.02276" lon="0.91514">
        <ele>369</ele>
        <time>2016-12-03T10:50:08.008Z</time>
      </trkpt>
      <trkpt lat="43.02278" lon="0.91522">
        <ele>369</ele>
        <time>2016-12-03T10:50:09.008Z</time>
      </trkpt>
      <trkpt lat="43.02279" lon="0.9153">
        <ele>369</ele>
        <time>2016-12-03T10:50:10.008Z</time>
      </trkpt>
      <trkpt lat="43.02281" lon="0.91538">
        <ele>369</ele>
        <time>2016-12-03T10:50:11.008Z</time>
      </trkpt>
      <trkpt lat="43.02282" lon="0.91546">
        <ele>369</ele>
        <time>2016-12-03T10:50:12.008Z</time>
      </trkpt>
      <trkpt lat="43.02284" lon="0.91553">
        <ele>369</ele>
        <time>2016-12-03T10:50:13.008Z</time>
      </trkpt>
      <trkpt lat="43.02286" lon="0.91561">
        <ele>369</ele>
        <time>2016-12-03T10:50:14.008Z</time>
      </trkpt>
      <trkpt lat="43.02287" lon="0.91568">
        <ele>369</ele>
        <time>2016-12-03T10:50:15.008Z</time>
      </trkpt>
      <trkpt lat="43.02289" lon="0.91576">
        <ele>369</ele>
        <time>2016-12-03T10:50:16.008Z</time>
      </trkpt>
      <trkpt lat="43.02291" lon="0.91583">
        <ele>369</ele>
        <time>2016-12-03T10:50:17.008Z</time>
      </trkpt>
      <trkpt lat="43.02294" lon="0.91597">
        <ele>369</ele>
        <time>2016-12-03T10:50:19.008Z</time>
      </trkpt>
      <trkpt lat="43.02297" lon="0.91612">
        <ele>369</ele>
        <time>2016-12-03T10:50:21.008Z</time>
      </trkpt>
      <trkpt lat="43.02301" lon="0.91627">
        <ele>369</ele>
        <time>2016-12-03T10:50:23.008Z</time>
      </trkpt>
      <trkpt lat="43.02303" lon="0.91634">
        <ele>369</ele>
        <time>2016-12-03T10:50:24.008Z</time>
      </trkpt>
      <trkpt lat="43.02305" lon="0.91641">
        <ele>369</ele>
        <time>2016-12-03T10:50:25.008Z</time>
      </trkpt>
      <trkpt lat="43.02307" lon="0.91648">
        <ele>369</ele>
        <time>2016-12-03T10:50:26.008Z</time>
      </trkpt>
      <trkpt lat="43.02309" lon="0.91656">
        <ele>369</ele>
        <time>2016-12-03T10:50:27.008Z</time>
      </trkpt>
      <trkpt lat="43.02311" lon="0.91663">
        <ele>369</ele>
        <time>2016-12-03T10:50:28.008Z</time>
      </trkpt>
      <trkpt lat="43.02313" lon="0.9167">
        <ele>369</ele>
        <time>2016-12-03T10:50:29.008Z</time>
      </trkpt>
      <trkpt lat="43.02314" lon="0.91678">
        <ele>369</ele>
        <time>2016-12-03T10:50:30.008Z</time>
      </trkpt>
      <trkpt lat="43.02318" lon="0.91693">
        <ele>368</ele>
        <time>2016-12-03T10:50:32.008Z</time>
      </trkpt>
      <trkpt lat="43.02322" lon="0.91708">
        <ele>368</ele>
        <time>2016-12-03T10:50:34.008Z</time>
      </trkpt>
      <trkpt lat="43.02326" lon="0.91722">
        <ele>368</ele>
        <time>2016-12-03T10:50:36.008Z</time>
      </trkpt>
      <trkpt lat="43.0233" lon="0.91735">
        <ele>368</ele>
        <time>2016-12-03T10:50:38.008Z</time>
      </trkpt>
      <trkpt lat="43.02334" lon="0.91746">
        <ele>368</ele>
        <time>2016-12-03T10:50:40.008Z</time>
      </trkpt>
      <trkpt lat="43.02338" lon="0.91759">
        <ele>367</ele>
        <time>2016-12-03T10:50:42.008Z</time>
      </trkpt>
      <trkpt lat="43.02341" lon="0.91773">
        <ele>367</ele>
        <time>2016-12-03T10:50:44.008Z</time>
      </trkpt>
      <trkpt lat="43.02344" lon="0.91788">
        <ele>367</ele>
        <time>2016-12-03T10:50:46.008Z</time>
      </trkpt>
      <trkpt lat="43.02348" lon="0.91804">
        <ele>367</ele>
        <time>2016-12-03T10:50:48.008Z</time>
      </trkpt>
      <trkpt lat="43.02353" lon="0.9182">
        <ele>367</ele>
        <time>2016-12-03T10:50:50.008Z</time>
      </trkpt>
      <trkpt lat="43.02357" lon="0.91835">
        <ele>366</ele>
        <time>2016-12-03T10:50:52.008Z</time>
      </trkpt>
      <trkpt lat="43.02361" lon="0.9185">
        <ele>366</ele>
        <time>2016-12-03T10:50:54.008Z</time>
      </trkpt>
      <trkpt lat="43.02365" lon="0.91865">
        <ele>366</ele>
        <time>2016-12-03T10:50:56.008Z</time>
      </trkpt>
      <trkpt lat="43.0237" lon="0.91877">
        <ele>366</ele>
        <time>2016-12-03T10:50:58.008Z</time>
      </trkpt>
      <trkpt lat="43.02377" lon="0.91888">
        <ele>365.65199805443</ele>
        <time>2016-12-03T10:51:01.008Z</time>
      </trkpt>
      <trkpt lat="43.02384" lon="0.919">
        <ele>365</ele>
        <time>2016-12-03T10:51:04.008Z</time>
      </trkpt>
      <trkpt lat="43.02388" lon="0.9191">
        <ele>365</ele>
        <time>2016-12-03T10:51:06.008Z</time>
      </trkpt>
      <trkpt lat="43.02391" lon="0.91921">
        <ele>365</ele>
        <time>2016-12-03T10:51:08.008Z</time>
      </trkpt>
      <trkpt lat="43.02396" lon="0.91933">
        <ele>365</ele>
        <time>2016-12-03T10:51:10.008Z</time>
      </trkpt>
      <trkpt lat="43.02401" lon="0.91948">
        <ele>365</ele>
        <time>2016-12-03T10:51:12.008Z</time>
      </trkpt>
      <trkpt lat="43.02402" lon="0.91964">
        <ele>365</ele>
        <time>2016-12-03T10:51:14.008Z</time>
      </trkpt>
      <trkpt lat="43.02409" lon="0.91977">
        <ele>365</ele>
        <time>2016-12-03T10:51:17.008Z</time>
      </trkpt>
      <trkpt lat="43.02419" lon="0.91983">
        <ele>365</ele>
        <time>2016-12-03T10:51:21.008Z</time>
      </trkpt>
      <trkpt lat="43.02428" lon="0.91985">
        <ele>365</ele>
        <time>2016-12-03T10:51:24.008Z</time>
      </trkpt>
      <trkpt lat="43.0244" lon="0.91989">
        <ele>365</ele>
        <time>2016-12-03T10:51:27.008Z</time>
      </trkpt>
      <trkpt lat="43.02449" lon="0.91997">
        <ele>365</ele>
        <time>2016-12-03T10:51:29.008Z</time>
      </trkpt>
      <trkpt lat="43.02456" lon="0.92005">
        <ele>365</ele>
        <time>2016-12-03T10:51:31.008Z</time>
      </trkpt>
      <trkpt lat="43.02465" lon="0.92015">
        <ele>365</ele>
        <time>2016-12-03T10:51:34.008Z</time>
      </trkpt>
      <trkpt lat="43.02474" lon="0.92027">
        <ele>365</ele>
        <time>2016-12-03T10:51:37.008Z</time>
      </trkpt>
      <trkpt lat="43.02482" lon="0.92039">
        <ele>365</ele>
        <time>2016-12-03T10:51:40.008Z</time>
      </trkpt>
      <trkpt lat="43.02491" lon="0.92049">
        <ele>367</ele>
        <time>2016-12-03T10:51:43.008Z</time>
      </trkpt>
      <trkpt lat="43.02499" lon="0.92059">
        <ele>367</ele>
        <time>2016-12-03T10:51:46.008Z</time>
      </trkpt>
      <trkpt lat="43.02504" lon="0.92067">
        <ele>367</ele>
        <time>2016-12-03T10:51:48.008Z</time>
      </trkpt>
      <trkpt lat="43.02509" lon="0.92073">
        <ele>367</ele>
        <time>2016-12-03T10:51:50.008Z</time>
      </trkpt>
      <trkpt lat="43.02513" lon="0.92079">
        <ele>369</ele>
        <time>2016-12-03T10:51:52.008Z</time>
      </trkpt>
      <trkpt lat="43.02517" lon="0.92085">
        <ele>369</ele>
        <time>2016-12-03T10:51:54.008Z</time>
      </trkpt>
      <trkpt lat="43.02523" lon="0.92089">
        <ele>369</ele>
        <time>2016-12-03T10:51:56.008Z</time>
      </trkpt>
      <trkpt lat="43.0253" lon="0.92094">
        <ele>369</ele>
        <time>2016-12-03T10:51:59.008Z</time>
      </trkpt>
      <trkpt lat="43.02538" lon="0.921">
        <ele>373</ele>
        <time>2016-12-03T10:52:02.008Z</time>
      </trkpt>
      <trkpt lat="43.02548" lon="0.92106">
        <ele>373</ele>
        <time>2016-12-03T10:52:05.008Z</time>
      </trkpt>
      <trkpt lat="43.02556" lon="0.92111">
        <ele>373</ele>
        <time>2016-12-03T10:52:07.008Z</time>
      </trkpt>
      <trkpt lat="43.02566" lon="0.92117">
        <ele>373</ele>
        <time>2016-12-03T10:52:09.008Z</time>
      </trkpt>
      <trkpt lat="43.02578" lon="0.92126">
        <ele>372.31718038891</ele>
        <time>2016-12-03T10:52:11.008Z</time>
      </trkpt>
      <trkpt lat="43.02589" lon="0.92138">
        <ele>371</ele>
        <time>2016-12-03T10:52:13.008Z</time>
      </trkpt>
      <trkpt lat="43.02597" lon="0.92153">
        <ele>371</ele>
        <time>2016-12-03T10:52:15.008Z</time>
      </trkpt>
      <trkpt lat="43.02605" lon="0.92167">
        <ele>371</ele>
        <time>2016-12-03T10:52:17.008Z</time>
      </trkpt>
      <trkpt lat="43.02611" lon="0.9218">
        <ele>371</ele>
        <time>2016-12-03T10:52:19.008Z</time>
      </trkpt>
      <trkpt lat="43.02615" lon="0.92192">
        <ele>371</ele>
        <time>2016-12-03T10:52:21.008Z</time>
      </trkpt>
      <trkpt lat="43.02616" lon="0.92205">
        <ele>371</ele>
        <time>2016-12-03T10:52:23.008Z</time>
      </trkpt>
      <trkpt lat="43.02615" lon="0.92218">
        <ele>371</ele>
        <time>2016-12-03T10:52:25.008Z</time>
      </trkpt>
      <trkpt lat="43.02614" lon="0.92229">
        <ele>371</ele>
        <time>2016-12-03T10:52:27.008Z</time>
      </trkpt>
      <trkpt lat="43.02616" lon="0.92241">
        <ele>371</ele>
        <time>2016-12-03T10:52:29.008Z</time>
      </trkpt>
      <trkpt lat="43.02618" lon="0.92251">
        <ele>372.04400583672</ele>
        <time>2016-12-03T10:52:31.008Z</time>
      </trkpt>
      <trkpt lat="43.0262" lon="0.92261">
        <ele>374</ele>
        <time>2016-12-03T10:52:33.008Z</time>
      </trkpt>
      <trkpt lat="43.02622" lon="0.92271">
        <ele>374</ele>
        <time>2016-12-03T10:52:35.008Z</time>
      </trkpt>
      <trkpt lat="43.02624" lon="0.92275">
        <ele>375.04399416312</ele>
        <time>2016-12-03T10:52:36.008Z</time>
      </trkpt>
      <trkpt lat="43.02625" lon="0.92279">
        <ele>377</ele>
        <time>2016-12-03T10:52:37.008Z</time>
      </trkpt>
      <trkpt lat="43.02627" lon="0.92284">
        <ele>377</ele>
        <time>2016-12-03T10:52:38.008Z</time>
      </trkpt>
      <trkpt lat="43.02629" lon="0.92288">
        <ele>377</ele>
        <time>2016-12-03T10:52:39.008Z</time>
      </trkpt>
      <trkpt lat="43.02631" lon="0.92292">
        <ele>377</ele>
        <time>2016-12-03T10:52:40.008Z</time>
      </trkpt>
      <trkpt lat="43.02633" lon="0.92296">
        <ele>377.69600389115</ele>
        <time>2016-12-03T10:52:41.008Z</time>
      </trkpt>
      <trkpt lat="43.02635" lon="0.923">
        <ele>379</ele>
        <time>2016-12-03T10:52:42.008Z</time>
      </trkpt>
      <trkpt lat="43.02638" lon="0.92304">
        <ele>379</ele>
        <time>2016-12-03T10:52:43.008Z</time>
      </trkpt>
      <trkpt lat="43.0264" lon="0.92308">
        <ele>379</ele>
        <time>2016-12-03T10:52:44.008Z</time>
      </trkpt>
      <trkpt lat="43.02642" lon="0.92312">
        <ele>379.69600389115</ele>
        <time>2016-12-03T10:52:45.008Z</time>
      </trkpt>
      <trkpt lat="43.02644" lon="0.92316">
        <ele>381.34799805438</ele>
        <time>2016-12-03T10:52:46.008Z</time>
      </trkpt>
      <trkpt lat="43.02648" lon="0.92324">
        <ele>382</ele>
        <time>2016-12-03T10:52:48.008Z</time>
      </trkpt>
      <trkpt lat="43.02652" lon="0.9233">
        <ele>382</ele>
        <time>2016-12-03T10:52:50.008Z</time>
      </trkpt>
      <trkpt lat="43.02656" lon="0.92338">
        <ele>382</ele>
        <time>2016-12-03T10:52:52.008Z</time>
      </trkpt>
      <trkpt lat="43.02659" lon="0.92347">
        <ele>382</ele>
        <time>2016-12-03T10:52:54.008Z</time>
      </trkpt>
      <trkpt lat="43.02661" lon="0.92352">
        <ele>382</ele>
        <time>2016-12-03T10:52:55.008Z</time>
      </trkpt>
      <trkpt lat="43.02662" lon="0.92357">
        <ele>382.34799805438</ele>
        <time>2016-12-03T10:52:56.008Z</time>
      </trkpt>
      <trkpt lat="43.02664" lon="0.92367">
        <ele>383</ele>
        <time>2016-12-03T10:52:58.008Z</time>
      </trkpt>
      <trkpt lat="43.02665" lon="0.92372">
        <ele>383</ele>
        <time>2016-12-03T10:52:59.008Z</time>
      </trkpt>
      <trkpt lat="43.02667" lon="0.92383">
        <ele>383</ele>
        <time>2016-12-03T10:53:01.008Z</time>
      </trkpt>
      <trkpt lat="43.02667" lon="0.92389">
        <ele>383</ele>
        <time>2016-12-03T10:53:02.008Z</time>
      </trkpt>
      <trkpt lat="43.02668" lon="0.92396">
        <ele>383</ele>
        <time>2016-12-03T10:53:03.008Z</time>
      </trkpt>
      <trkpt lat="43.02668" lon="0.92403">
        <ele>383</ele>
        <time>2016-12-03T10:53:04.008Z</time>
      </trkpt>
      <trkpt lat="43.02667" lon="0.92411">
        <ele>383</ele>
        <time>2016-12-03T10:53:05.008Z</time>
      </trkpt>
      <trkpt lat="43.02666" lon="0.92419">
        <ele>383</ele>
        <time>2016-12-03T10:53:06.008Z</time>
      </trkpt>
      <trkpt lat="43.02666" lon="0.92428">
        <ele>383</ele>
        <time>2016-12-03T10:53:07.008Z</time>
      </trkpt>
      <trkpt lat="43.02665" lon="0.92436">
        <ele>383</ele>
        <time>2016-12-03T10:53:08.008Z</time>
      </trkpt>
      <trkpt lat="43.02665" lon="0.92444">
        <ele>383</ele>
        <time>2016-12-03T10:53:09.008Z</time>
      </trkpt>
      <trkpt lat="43.02665" lon="0.92453">
        <ele>383</ele>
        <time>2016-12-03T10:53:10.008Z</time>
      </trkpt>
      <trkpt lat="43.02665" lon="0.92461">
        <ele>383</ele>
        <time>2016-12-03T10:53:11.008Z</time>
      </trkpt>
      <trkpt lat="43.02665" lon="0.92469">
        <ele>383</ele>
        <time>2016-12-03T10:53:12.008Z</time>
      </trkpt>
      <trkpt lat="43.02666" lon="0.92484">
        <ele>383</ele>
        <time>2016-12-03T10:53:14.008Z</time>
      </trkpt>
      <trkpt lat="43.02668" lon="0.92499">
        <ele>383</ele>
        <time>2016-12-03T10:53:16.008Z</time>
      </trkpt>
      <trkpt lat="43.02669" lon="0.92506">
        <ele>383</ele>
        <time>2016-12-03T10:53:17.008Z</time>
      </trkpt>
      <trkpt lat="43.0267" lon="0.92513">
        <ele>383</ele>
        <time>2016-12-03T10:53:18.008Z</time>
      </trkpt>
      <trkpt lat="43.02671" lon="0.9252">
        <ele>383</ele>
        <time>2016-12-03T10:53:19.008Z</time>
      </trkpt>
      <trkpt lat="43.02671" lon="0.92526">
        <ele>383</ele>
        <time>2016-12-03T10:53:20.008Z</time>
      </trkpt>
      <trkpt lat="43.02671" lon="0.92533">
        <ele>383</ele>
        <time>2016-12-03T10:53:21.008Z</time>
      </trkpt>
      <trkpt lat="43.0267" lon="0.92539">
        <ele>383</ele>
        <time>2016-12-03T10:53:22.008Z</time>
      </trkpt>
      <trkpt lat="43.02667" lon="0.92551">
        <ele>383</ele>
        <time>2016-12-03T10:53:24.008Z</time>
      </trkpt>
      <trkpt lat="43.02665" lon="0.92557">
        <ele>383</ele>
        <time>2016-12-03T10:53:25.008Z</time>
      </trkpt>
      <trkpt lat="43.02662" lon="0.92568">
        <ele>383</ele>
        <time>2016-12-03T10:53:27.008Z</time>
      </trkpt>
      <trkpt lat="43.0266" lon="0.92578">
        <ele>383</ele>
        <time>2016-12-03T10:53:29.008Z</time>
      </trkpt>
      <trkpt lat="43.02658" lon="0.92589">
        <ele>383.69600389115</ele>
        <time>2016-12-03T10:53:31.008Z</time>
      </trkpt>
      <trkpt lat="43.02657" lon="0.926">
        <ele>385</ele>
        <time>2016-12-03T10:53:33.008Z</time>
      </trkpt>
      <trkpt lat="43.02654" lon="0.92611">
        <ele>385</ele>
        <time>2016-12-03T10:53:35.008Z</time>
      </trkpt>
      <trkpt lat="43.02652" lon="0.92621">
        <ele>385</ele>
        <time>2016-12-03T10:53:37.008Z</time>
      </trkpt>
      <trkpt lat="43.02651" lon="0.92635">
        <ele>385</ele>
        <time>2016-12-03T10:53:40.008Z</time>
      </trkpt>
      <trkpt lat="43.02651" lon="0.92651">
        <ele>387</ele>
        <time>2016-12-03T10:53:43.008Z</time>
      </trkpt>
      <trkpt lat="43.02651" lon="0.92664">
        <ele>387</ele>
        <time>2016-12-03T10:53:45.008Z</time>
      </trkpt>
      <trkpt lat="43.02652" lon="0.92675">
        <ele>387</ele>
        <time>2016-12-03T10:53:47.008Z</time>
      </trkpt>
      <trkpt lat="43.02647" lon="0.92689">
        <ele>387.69600389115</ele>
        <time>2016-12-03T10:53:51.008Z</time>
      </trkpt>
      <trkpt lat="43.02641" lon="0.92694">
        <ele>389</ele>
        <time>2016-12-03T10:53:54.008Z</time>
      </trkpt>
      <trkpt lat="43.02632" lon="0.92699">
        <ele>389</ele>
        <time>2016-12-03T10:53:58.008Z</time>
      </trkpt>
      <trkpt lat="43.02624" lon="0.92704">
        <ele>393</ele>
        <time>2016-12-03T10:54:02.008Z</time>
      </trkpt>
      <trkpt lat="43.0262" lon="0.92706">
        <ele>393</ele>
        <time>2016-12-03T10:54:04.008Z</time>
      </trkpt>
      <trkpt lat="43.02614" lon="0.92711">
        <ele>395</ele>
        <time>2016-12-03T10:54:07.008Z</time>
      </trkpt>
      <trkpt lat="43.02603" lon="0.92714">
        <ele>397</ele>
        <time>2016-12-03T10:54:12.008Z</time>
      </trkpt>
      <trkpt lat="43.02592" lon="0.92714">
        <ele>399</ele>
        <time>2016-12-03T10:54:18.008Z</time>
      </trkpt>
      <trkpt lat="43.02583" lon="0.92721">
        <ele>401</ele>
        <time>2016-12-03T10:54:24.008Z</time>
      </trkpt>
      <trkpt lat="43.02574" lon="0.9273">
        <ele>403</ele>
        <time>2016-12-03T10:54:29.008Z</time>
      </trkpt>
      <trkpt lat="43.02564" lon="0.92738">
        <ele>403</ele>
        <time>2016-12-03T10:54:34.008Z</time>
      </trkpt>
      <trkpt lat="43.02553" lon="0.92741">
        <ele>405</ele>
        <time>2016-12-03T10:54:39.008Z</time>
      </trkpt>
      <trkpt lat="43.02543" lon="0.92748">
        <ele>407</ele>
        <time>2016-12-03T10:54:45.008Z</time>
      </trkpt>
      <trkpt lat="43.02534" lon="0.92755">
        <ele>410</ele>
        <time>2016-12-03T10:54:52.008Z</time>
      </trkpt>
      <trkpt lat="43.02526" lon="0.92764">
        <ele>410</ele>
        <time>2016-12-03T10:54:58.008Z</time>
      </trkpt>
      <trkpt lat="43.02518" lon="0.92775">
        <ele>412</ele>
        <time>2016-12-03T10:55:03.008Z</time>
      </trkpt>
      <trkpt lat="43.02511" lon="0.92787">
        <ele>412</ele>
        <time>2016-12-03T10:55:09.008Z</time>
      </trkpt>
      <trkpt lat="43.02503" lon="0.92797">
        <ele>414</ele>
        <time>2016-12-03T10:55:15.008Z</time>
      </trkpt>
      <trkpt lat="43.02499" lon="0.92803">
        <ele>414</ele>
        <time>2016-12-03T10:55:18.008Z</time>
      </trkpt>
      <trkpt lat="43.02495" lon="0.92808">
        <ele>415.03367255123</ele>
        <time>2016-12-03T10:55:21.008Z</time>
      </trkpt>
      <trkpt lat="43.02487" lon="0.9281">
        <ele>417</ele>
        <time>2016-12-03T10:55:25.008Z</time>
      </trkpt>
      <trkpt lat="43.02485" lon="0.92803">
        <ele>419</ele>
        <time>2016-12-03T10:55:35.008Z</time>
      </trkpt>
      <trkpt lat="43.02487" lon="0.92794">
        <ele>419</ele>
        <time>2016-12-03T10:55:38.008Z</time>
      </trkpt>
      <trkpt lat="43.02492" lon="0.92784">
        <ele>419</ele>
        <time>2016-12-03T10:55:41.008Z</time>
      </trkpt>
      <trkpt lat="43.02496" lon="0.9277">
        <ele>419</ele>
        <time>2016-12-03T10:55:45.008Z</time>
      </trkpt>
      <trkpt lat="43.025" lon="0.92759">
        <ele>419</ele>
        <time>2016-12-03T10:55:49.008Z</time>
      </trkpt>
      <trkpt lat="43.02506" lon="0.92748">
        <ele>420</ele>
        <time>2016-12-03T10:55:53.008Z</time>
      </trkpt>
      <trkpt lat="43.02509" lon="0.92738">
        <ele>420</ele>
        <time>2016-12-03T10:55:57.008Z</time>
      </trkpt>
      <trkpt lat="43.02515" lon="0.92728">
        <ele>420.69600389115</ele>
        <time>2016-12-03T10:56:01.008Z</time>
      </trkpt>
      <trkpt lat="43.02518" lon="0.92717">
        <ele>422</ele>
        <time>2016-12-03T10:56:06.008Z</time>
      </trkpt>
      <trkpt lat="43.02525" lon="0.9271">
        <ele>422</ele>
        <time>2016-12-03T10:56:10.008Z</time>
      </trkpt>
      <trkpt lat="43.02528" lon="0.92701">
        <ele>424</ele>
        <time>2016-12-03T10:56:14.008Z</time>
      </trkpt>
      <trkpt lat="43.02529" lon="0.9269">
        <ele>424</ele>
        <time>2016-12-03T10:56:18.008Z</time>
      </trkpt>
      <trkpt lat="43.02532" lon="0.92678">
        <ele>427</ele>
        <time>2016-12-03T10:56:23.008Z</time>
      </trkpt>
      <trkpt lat="43.0253" lon="0.92664">
        <ele>428</ele>
        <time>2016-12-03T10:56:28.008Z</time>
      </trkpt>
      <trkpt lat="43.0253" lon="0.92649">
        <ele>430</ele>
        <time>2016-12-03T10:56:34.008Z</time>
      </trkpt>
      <trkpt lat="43.02529" lon="0.92635">
        <ele>431</ele>
        <time>2016-12-03T10:56:39.008Z</time>
      </trkpt>
      <trkpt lat="43.02528" lon="0.92622">
        <ele>433</ele>
        <time>2016-12-03T10:56:44.008Z</time>
      </trkpt>
      <trkpt lat="43.02527" lon="0.92606">
        <ele>433</ele>
        <time>2016-12-03T10:56:48.008Z</time>
      </trkpt>
      <trkpt lat="43.02526" lon="0.92594">
        <ele>433</ele>
        <time>2016-12-03T10:56:52.008Z</time>
      </trkpt>
      <trkpt lat="43.02526" lon="0.92579">
        <ele>433</ele>
        <time>2016-12-03T10:56:56.008Z</time>
      </trkpt>
      <trkpt lat="43.02524" lon="0.92567">
        <ele>433</ele>
        <time>2016-12-03T10:56:59.008Z</time>
      </trkpt>
      <trkpt lat="43.02522" lon="0.9255">
        <ele>432</ele>
        <time>2016-12-03T10:57:02.008Z</time>
      </trkpt>
      <trkpt lat="43.02521" lon="0.92539">
        <ele>432</ele>
        <time>2016-12-03T10:57:04.008Z</time>
      </trkpt>
      <trkpt lat="43.0252" lon="0.92526">
        <ele>432</ele>
        <time>2016-12-03T10:57:06.008Z</time>
      </trkpt>
      <trkpt lat="43.02517" lon="0.9251">
        <ele>432</ele>
        <time>2016-12-03T10:57:08.008Z</time>
      </trkpt>
      <trkpt lat="43.02515" lon="0.92492">
        <ele>432</ele>
        <time>2016-12-03T10:57:10.008Z</time>
      </trkpt>
      <trkpt lat="43.02513" lon="0.92472">
        <ele>425.95600583688</ele>
        <time>2016-12-03T10:57:12.008Z</time>
      </trkpt>
      <trkpt lat="43.02508" lon="0.92453">
        <ele>423.65200194562</ele>
        <time>2016-12-03T10:57:14.008Z</time>
      </trkpt>
      <trkpt lat="43.025" lon="0.92435">
        <ele>422.34799805438</ele>
        <time>2016-12-03T10:57:16.008Z</time>
      </trkpt>
      <trkpt lat="43.0249" lon="0.92421">
        <ele>422.65200194562</ele>
        <time>2016-12-03T10:57:18.008Z</time>
      </trkpt>
      <trkpt lat="43.02481" lon="0.92411">
        <ele>422.34799805438</ele>
        <time>2016-12-03T10:57:20.008Z</time>
      </trkpt>
      <trkpt lat="43.02474" lon="0.92402">
        <ele>423</ele>
        <time>2016-12-03T10:57:22.008Z</time>
      </trkpt>
      <trkpt lat="43.02464" lon="0.92391">
        <ele>423</ele>
        <time>2016-12-03T10:57:25.008Z</time>
      </trkpt>
      <trkpt lat="43.02454" lon="0.92382">
        <ele>423</ele>
        <time>2016-12-03T10:57:28.008Z</time>
      </trkpt>
      <trkpt lat="43.02446" lon="0.92375">
        <ele>423.34800194557</ele>
        <time>2016-12-03T10:57:31.008Z</time>
      </trkpt>
      <trkpt lat="43.02438" lon="0.92371">
        <ele>424</ele>
        <time>2016-12-03T10:57:35.008Z</time>
      </trkpt>
      <trkpt lat="43.02429" lon="0.92369">
        <ele>424</ele>
        <time>2016-12-03T10:57:40.008Z</time>
      </trkpt>
      <trkpt lat="43.0242" lon="0.92366">
        <ele>427.04399416312</ele>
        <time>2016-12-03T10:57:46.008Z</time>
      </trkpt>
      <trkpt lat="43.02413" lon="0.92361">
        <ele>429.69600389115</ele>
        <time>2016-12-03T10:57:51.008Z</time>
      </trkpt>
      <trkpt lat="43.02405" lon="0.92356">
        <ele>431</ele>
        <time>2016-12-03T10:57:55.008Z</time>
      </trkpt>
      <trkpt lat="43.02398" lon="0.92353">
        <ele>433</ele>
        <time>2016-12-03T10:57:59.008Z</time>
      </trkpt>
      <trkpt lat="43.02388" lon="0.92351">
        <ele>434</ele>
        <time>2016-12-03T10:58:05.008Z</time>
      </trkpt>
      <trkpt lat="43.0238" lon="0.92346">
        <ele>436</ele>
        <time>2016-12-03T10:58:10.008Z</time>
      </trkpt>
      <trkpt lat="43.02372" lon="0.92342">
        <ele>438</ele>
        <time>2016-12-03T10:58:14.008Z</time>
      </trkpt>
      <trkpt lat="43.02364" lon="0.92342">
        <ele>439</ele>
        <time>2016-12-03T10:58:20.008Z</time>
      </trkpt>
      <trkpt lat="43.02355" lon="0.92339">
        <ele>441.34799805438</ele>
        <time>2016-12-03T10:58:26.008Z</time>
      </trkpt>
      <trkpt lat="43.02348" lon="0.92334">
        <ele>442</ele>
        <time>2016-12-03T10:58:30.008Z</time>
      </trkpt>
      <trkpt lat="43.02339" lon="0.92331">
        <ele>443.69599610875</ele>
        <time>2016-12-03T10:58:36.008Z</time>
      </trkpt>
      <trkpt lat="43.02331" lon="0.92327">
        <ele>447</ele>
        <time>2016-12-03T10:58:42.008Z</time>
      </trkpt>
      <trkpt lat="43.02324" lon="0.92325">
        <ele>447.34799805438</ele>
        <time>2016-12-03T10:58:46.008Z</time>
      </trkpt>
      <trkpt lat="43.02316" lon="0.92322">
        <ele>448.34800194557</ele>
        <time>2016-12-03T10:58:51.008Z</time>
      </trkpt>
      <trkpt lat="43.02308" lon="0.92317">
        <ele>451</ele>
        <time>2016-12-03T10:58:57.008Z</time>
      </trkpt>
      <trkpt lat="43.02302" lon="0.92312">
        <ele>452.04400583672</ele>
        <time>2016-12-03T10:59:01.008Z</time>
      </trkpt>
      <trkpt lat="43.02295" lon="0.92309">
        <ele>454</ele>
        <time>2016-12-03T10:59:05.008Z</time>
      </trkpt>
      <trkpt lat="43.02289" lon="0.92304">
        <ele>455</ele>
        <time>2016-12-03T10:59:09.008Z</time>
      </trkpt>
      <trkpt lat="43.02281" lon="0.923">
        <ele>457</ele>
        <time>2016-12-03T10:59:14.008Z</time>
      </trkpt>
      <trkpt lat="43.02275" lon="0.92297">
        <ele>457</ele>
        <time>2016-12-03T10:59:17.008Z</time>
      </trkpt>
      <trkpt lat="43.02267" lon="0.92293">
        <ele>457.69600389115</ele>
        <time>2016-12-03T10:59:21.008Z</time>
      </trkpt>
      <trkpt lat="43.02261" lon="0.92291">
        <ele>459</ele>
        <time>2016-12-03T10:59:25.008Z</time>
      </trkpt>
      <trkpt lat="43.02253" lon="0.92288">
        <ele>461</ele>
        <time>2016-12-03T10:59:30.008Z</time>
      </trkpt>
      <trkpt lat="43.02247" lon="0.92283">
        <ele>462</ele>
        <time>2016-12-03T10:59:34.008Z</time>
      </trkpt>
      <trkpt lat="43.02241" lon="0.9228">
        <ele>464</ele>
        <time>2016-12-03T10:59:38.008Z</time>
      </trkpt>
      <trkpt lat="43.02234" lon="0.92276">
        <ele>464</ele>
        <time>2016-12-03T10:59:42.008Z</time>
      </trkpt>
      <trkpt lat="43.02229" lon="0.92275">
        <ele>464</ele>
        <time>2016-12-03T10:59:45.008Z</time>
      </trkpt>
      <trkpt lat="43.02224" lon="0.9228">
        <ele>464</ele>
        <time>2016-12-03T10:59:48.008Z</time>
      </trkpt>
      <trkpt lat="43.02228" lon="0.92288">
        <ele>467</ele>
        <time>2016-12-03T10:59:53.008Z</time>
      </trkpt>
      <trkpt lat="43.02233" lon="0.92291">
        <ele>469</ele>
        <time>2016-12-03T10:59:57.008Z</time>
      </trkpt>
      <trkpt lat="43.02239" lon="0.92298">
        <ele>471</ele>
        <time>2016-12-03T11:00:02.008Z</time>
      </trkpt>
      <trkpt lat="43.02244" lon="0.92303">
        <ele>471</ele>
        <time>2016-12-03T11:00:05.008Z</time>
      </trkpt>
      <trkpt lat="43.0225" lon="0.92312">
        <ele>471</ele>
        <time>2016-12-03T11:00:10.008Z</time>
      </trkpt>
      <trkpt lat="43.02255" lon="0.9232">
        <ele>473</ele>
        <time>2016-12-03T11:00:14.008Z</time>
      </trkpt>
      <trkpt lat="43.02259" lon="0.92328">
        <ele>473</ele>
        <time>2016-12-03T11:00:18.008Z</time>
      </trkpt>
      <trkpt lat="43.02263" lon="0.92336">
        <ele>474</ele>
        <time>2016-12-03T11:00:23.008Z</time>
      </trkpt>
      <trkpt lat="43.02268" lon="0.92344">
        <ele>474</ele>
        <time>2016-12-03T11:00:27.008Z</time>
      </trkpt>
      <trkpt lat="43.02272" lon="0.92351">
        <ele>474.69600389115</ele>
        <time>2016-12-03T11:00:31.008Z</time>
      </trkpt>
      <trkpt lat="43.02277" lon="0.9236">
        <ele>476</ele>
        <time>2016-12-03T11:00:35.008Z</time>
      </trkpt>
      <trkpt lat="43.02282" lon="0.92368">
        <ele>476</ele>
        <time>2016-12-03T11:00:40.008Z</time>
      </trkpt>
      <trkpt lat="43.02287" lon="0.92378">
        <ele>478</ele>
        <time>2016-12-03T11:00:45.008Z</time>
      </trkpt>
      <trkpt lat="43.02291" lon="0.92386">
        <ele>478</ele>
        <time>2016-12-03T11:00:50.008Z</time>
      </trkpt>
      <trkpt lat="43.02297" lon="0.92395">
        <ele>481</ele>
        <time>2016-12-03T11:00:54.008Z</time>
      </trkpt>
      <trkpt lat="43.02302" lon="0.92402">
        <ele>482.34799805438</ele>
        <time>2016-12-03T11:00:58.008Z</time>
      </trkpt>
      <trkpt lat="43.02308" lon="0.92412">
        <ele>483</ele>
        <time>2016-12-03T11:01:03.008Z</time>
      </trkpt>
      <trkpt lat="43.02313" lon="0.9242">
        <ele>484</ele>
        <time>2016-12-03T11:01:07.008Z</time>
      </trkpt>
      <trkpt lat="43.02319" lon="0.92427">
        <ele>484.69600389115</ele>
        <time>2016-12-03T11:01:11.008Z</time>
      </trkpt>
      <trkpt lat="43.02324" lon="0.92434">
        <ele>486</ele>
        <time>2016-12-03T11:01:14.008Z</time>
      </trkpt>
      <trkpt lat="43.02328" lon="0.92441">
        <ele>487</ele>
        <time>2016-12-03T11:01:18.008Z</time>
      </trkpt>
      <trkpt lat="43.02333" lon="0.92449">
        <ele>488</ele>
        <time>2016-12-03T11:01:22.008Z</time>
      </trkpt>
      <trkpt lat="43.0234" lon="0.92456">
        <ele>488</ele>
        <time>2016-12-03T11:01:26.008Z</time>
      </trkpt>
      <trkpt lat="43.02345" lon="0.92466">
        <ele>488.69600389115</ele>
        <time>2016-12-03T11:01:31.008Z</time>
      </trkpt>
      <trkpt lat="43.02342" lon="0.92477">
        <ele>490</ele>
        <time>2016-12-03T11:01:36.008Z</time>
      </trkpt>
      <trkpt lat="43.02335" lon="0.92474">
        <ele>490.69600389115</ele>
        <time>2016-12-03T11:01:41.008Z</time>
      </trkpt>
      <trkpt lat="43.02328" lon="0.92469">
        <ele>492</ele>
        <time>2016-12-03T11:01:45.008Z</time>
      </trkpt>
      <trkpt lat="43.0232" lon="0.92463">
        <ele>495</ele>
        <time>2016-12-03T11:01:49.008Z</time>
      </trkpt>
      <trkpt lat="43.02311" lon="0.92459">
        <ele>497</ele>
        <time>2016-12-03T11:01:53.008Z</time>
      </trkpt>
      <trkpt lat="43.02302" lon="0.92454">
        <ele>498</ele>
        <time>2016-12-03T11:01:58.008Z</time>
      </trkpt>
      <trkpt lat="43.02293" lon="0.92451">
        <ele>499</ele>
        <time>2016-12-03T11:02:03.008Z</time>
      </trkpt>
      <trkpt lat="43.02285" lon="0.92446">
        <ele>499</ele>
        <time>2016-12-03T11:02:08.008Z</time>
      </trkpt>
      <trkpt lat="43.02277" lon="0.92442">
        <ele>500</ele>
        <time>2016-12-03T11:02:12.008Z</time>
      </trkpt>
      <trkpt lat="43.02269" lon="0.92438">
        <ele>501</ele>
        <time>2016-12-03T11:02:16.008Z</time>
      </trkpt>
      <trkpt lat="43.0226" lon="0.92433">
        <ele>501</ele>
        <time>2016-12-03T11:02:20.008Z</time>
      </trkpt>
      <trkpt lat="43.02253" lon="0.9243">
        <ele>503</ele>
        <time>2016-12-03T11:02:24.008Z</time>
      </trkpt>
      <trkpt lat="43.02247" lon="0.92425">
        <ele>505</ele>
        <time>2016-12-03T11:02:28.008Z</time>
      </trkpt>
      <trkpt lat="43.02239" lon="0.92422">
        <ele>506</ele>
        <time>2016-12-03T11:02:33.008Z</time>
      </trkpt>
      <trkpt lat="43.02231" lon="0.92417">
        <ele>507</ele>
        <time>2016-12-03T11:02:37.008Z</time>
      </trkpt>
      <trkpt lat="43.02223" lon="0.92413">
        <ele>509</ele>
        <time>2016-12-03T11:02:42.008Z</time>
      </trkpt>
      <trkpt lat="43.02216" lon="0.92411">
        <ele>509</ele>
        <time>2016-12-03T11:02:46.008Z</time>
      </trkpt>
      <trkpt lat="43.02208" lon="0.92409">
        <ele>509</ele>
        <time>2016-12-03T11:02:50.008Z</time>
      </trkpt>
      <trkpt lat="43.02199" lon="0.92405">
        <ele>510</ele>
        <time>2016-12-03T11:02:54.008Z</time>
      </trkpt>
      <trkpt lat="43.02193" lon="0.92405">
        <ele>510.34800194557</ele>
        <time>2016-12-03T11:02:57.008Z</time>
      </trkpt>
      <trkpt lat="43.02189" lon="0.92412">
        <ele>511.69600389115</ele>
        <time>2016-12-03T11:03:01.008Z</time>
      </trkpt>
      <trkpt lat="43.02194" lon="0.92417">
        <ele>513</ele>
        <time>2016-12-03T11:03:05.008Z</time>
      </trkpt>
      <trkpt lat="43.02202" lon="0.92421">
        <ele>514</ele>
        <time>2016-12-03T11:03:10.008Z</time>
      </trkpt>
      <trkpt lat="43.02209" lon="0.92428">
        <ele>515</ele>
        <time>2016-12-03T11:03:14.008Z</time>
      </trkpt>
      <trkpt lat="43.02214" lon="0.92433">
        <ele>515</ele>
        <time>2016-12-03T11:03:17.008Z</time>
      </trkpt>
      <trkpt lat="43.0222" lon="0.92441">
        <ele>516.04400583672</ele>
        <time>2016-12-03T11:03:21.008Z</time>
      </trkpt>
      <trkpt lat="43.02226" lon="0.92448">
        <ele>518</ele>
        <time>2016-12-03T11:03:25.008Z</time>
      </trkpt>
      <trkpt lat="43.02232" lon="0.92456">
        <ele>519</ele>
        <time>2016-12-03T11:03:29.008Z</time>
      </trkpt>
      <trkpt lat="43.02238" lon="0.92463">
        <ele>521</ele>
        <time>2016-12-03T11:03:33.008Z</time>
      </trkpt>
      <trkpt lat="43.02244" lon="0.92471">
        <ele>522</ele>
        <time>2016-12-03T11:03:37.008Z</time>
      </trkpt>
      <trkpt lat="43.02249" lon="0.92478">
        <ele>522.34800194557</ele>
        <time>2016-12-03T11:03:41.008Z</time>
      </trkpt>
      <trkpt lat="43.02256" lon="0.92486">
        <ele>523</ele>
        <time>2016-12-03T11:03:45.008Z</time>
      </trkpt>
      <trkpt lat="43.02262" lon="0.92493">
        <ele>524</ele>
        <time>2016-12-03T11:03:49.008Z</time>
      </trkpt>
      <trkpt lat="43.02266" lon="0.92501">
        <ele>526</ele>
        <time>2016-12-03T11:03:53.008Z</time>
      </trkpt>
      <trkpt lat="43.02271" lon="0.92509">
        <ele>526</ele>
        <time>2016-12-03T11:03:57.008Z</time>
      </trkpt>
      <trkpt lat="43.02278" lon="0.92516">
        <ele>527.04400583672</ele>
        <time>2016-12-03T11:04:01.008Z</time>
      </trkpt>
      <trkpt lat="43.02284" lon="0.92524">
        <ele>529.34799805438</ele>
        <time>2016-12-03T11:04:06.008Z</time>
      </trkpt>
      <trkpt lat="43.02289" lon="0.92533">
        <ele>530</ele>
        <time>2016-12-03T11:04:10.008Z</time>
      </trkpt>
      <trkpt lat="43.02294" lon="0.92543">
        <ele>532</ele>
        <time>2016-12-03T11:04:15.008Z</time>
      </trkpt>
      <trkpt lat="43.02299" lon="0.92554">
        <ele>533</ele>
        <time>2016-12-03T11:04:20.008Z</time>
      </trkpt>
      <trkpt lat="43.02305" lon="0.92563">
        <ele>534</ele>
        <time>2016-12-03T11:04:24.008Z</time>
      </trkpt>
      <trkpt lat="43.0231" lon="0.92574">
        <ele>534</ele>
        <time>2016-12-03T11:04:28.008Z</time>
      </trkpt>
      <trkpt lat="43.02316" lon="0.92586">
        <ele>535</ele>
        <time>2016-12-03T11:04:32.008Z</time>
      </trkpt>
      <trkpt lat="43.02319" lon="0.92598">
        <ele>535</ele>
        <time>2016-12-03T11:04:36.008Z</time>
      </trkpt>
      <trkpt lat="43.02322" lon="0.92607">
        <ele>535</ele>
        <time>2016-12-03T11:04:40.008Z</time>
      </trkpt>
      <trkpt lat="43.02323" lon="0.92618">
        <ele>538</ele>
        <time>2016-12-03T11:04:44.008Z</time>
      </trkpt>
      <trkpt lat="43.02319" lon="0.92624">
        <ele>541</ele>
        <time>2016-12-03T11:04:48.008Z</time>
      </trkpt>
      <trkpt lat="43.02312" lon="0.9262">
        <ele>542</ele>
        <time>2016-12-03T11:04:53.008Z</time>
      </trkpt>
      <trkpt lat="43.02308" lon="0.92612">
        <ele>544</ele>
        <time>2016-12-03T11:04:57.008Z</time>
      </trkpt>
      <trkpt lat="43.02302" lon="0.92605">
        <ele>544.69600389115</ele>
        <time>2016-12-03T11:05:01.008Z</time>
      </trkpt>
      <trkpt lat="43.02296" lon="0.92599">
        <ele>546</ele>
        <time>2016-12-03T11:05:05.008Z</time>
      </trkpt>
      <trkpt lat="43.02288" lon="0.92595">
        <ele>547</ele>
        <time>2016-12-03T11:05:10.008Z</time>
      </trkpt>
      <trkpt lat="43.02282" lon="0.9259">
        <ele>547</ele>
        <time>2016-12-03T11:05:14.008Z</time>
      </trkpt>
      <trkpt lat="43.02276" lon="0.92584">
        <ele>547</ele>
        <time>2016-12-03T11:05:18.008Z</time>
      </trkpt>
      <trkpt lat="43.0227" lon="0.9258">
        <ele>550</ele>
        <time>2016-12-03T11:05:22.008Z</time>
      </trkpt>
      <trkpt lat="43.02265" lon="0.92578">
        <ele>550</ele>
        <time>2016-12-03T11:05:25.008Z</time>
      </trkpt>
      <trkpt lat="43.02259" lon="0.92575">
        <ele>553</ele>
        <time>2016-12-03T11:05:29.008Z</time>
      </trkpt>
      <trkpt lat="43.02253" lon="0.92571">
        <ele>553</ele>
        <time>2016-12-03T11:05:33.008Z</time>
      </trkpt>
      <trkpt lat="43.02245" lon="0.92566">
        <ele>555</ele>
        <time>2016-12-03T11:05:38.008Z</time>
      </trkpt>
      <trkpt lat="43.02239" lon="0.92561">
        <ele>557</ele>
        <time>2016-12-03T11:05:42.008Z</time>
      </trkpt>
      <trkpt lat="43.02233" lon="0.92556">
        <ele>557.34799805438</ele>
        <time>2016-12-03T11:05:46.008Z</time>
      </trkpt>
      <trkpt lat="43.02225" lon="0.92556">
        <ele>558</ele>
        <time>2016-12-03T11:05:50.008Z</time>
      </trkpt>
      <trkpt lat="43.02217" lon="0.92556">
        <ele>560</ele>
        <time>2016-12-03T11:05:54.008Z</time>
      </trkpt>
      <trkpt lat="43.02209" lon="0.92556">
        <ele>561</ele>
        <time>2016-12-03T11:05:58.008Z</time>
      </trkpt>
      <trkpt lat="43.02201" lon="0.92555">
        <ele>562</ele>
        <time>2016-12-03T11:06:02.008Z</time>
      </trkpt>
      <trkpt lat="43.02194" lon="0.92556">
        <ele>562.34799805438</ele>
        <time>2016-12-03T11:06:06.008Z</time>
      </trkpt>
      <trkpt lat="43.02187" lon="0.92553">
        <ele>563</ele>
        <time>2016-12-03T11:06:10.008Z</time>
      </trkpt>
      <trkpt lat="43.02179" lon="0.92551">
        <ele>564</ele>
        <time>2016-12-03T11:06:16.008Z</time>
      </trkpt>
      <trkpt lat="43.02171" lon="0.92551">
        <ele>564.69600389115</ele>
        <time>2016-12-03T11:06:21.008Z</time>
      </trkpt>
      <trkpt lat="43.02164" lon="0.92549">
        <ele>566</ele>
        <time>2016-12-03T11:06:25.008Z</time>
      </trkpt>
      <trkpt lat="43.02157" lon="0.92547">
        <ele>566</ele>
        <time>2016-12-03T11:06:28.008Z</time>
      </trkpt>
      <trkpt lat="43.0215" lon="0.92547">
        <ele>567.04400583672</ele>
        <time>2016-12-03T11:06:31.008Z</time>
      </trkpt>
      <trkpt lat="43.02142" lon="0.92548">
        <ele>569</ele>
        <time>2016-12-03T11:06:34.008Z</time>
      </trkpt>
      <trkpt lat="43.02135" lon="0.9255">
        <ele>571</ele>
        <time>2016-12-03T11:06:38.008Z</time>
      </trkpt>
      <trkpt lat="43.02128" lon="0.9255">
        <ele>571.34800194557</ele>
        <time>2016-12-03T11:06:41.008Z</time>
      </trkpt>
      <trkpt lat="43.02122" lon="0.92549">
        <ele>572</ele>
        <time>2016-12-03T11:06:44.008Z</time>
      </trkpt>
      <trkpt lat="43.02116" lon="0.92549">
        <ele>572</ele>
        <time>2016-12-03T11:06:47.008Z</time>
      </trkpt>
      <trkpt lat="43.0211" lon="0.92548">
        <ele>572</ele>
        <time>2016-12-03T11:06:50.008Z</time>
      </trkpt>
      <trkpt lat="43.02104" lon="0.92547">
        <ele>574</ele>
        <time>2016-12-03T11:06:53.008Z</time>
      </trkpt>
      <trkpt lat="43.02098" lon="0.92546">
        <ele>574</ele>
        <time>2016-12-03T11:06:56.008Z</time>
      </trkpt>
      <trkpt lat="43.02092" lon="0.92547">
        <ele>574</ele>
        <time>2016-12-03T11:06:59.008Z</time>
      </trkpt>
      <trkpt lat="43.02086" lon="0.92551">
        <ele>576</ele>
        <time>2016-12-03T11:07:02.008Z</time>
      </trkpt>
      <trkpt lat="43.0208" lon="0.92553">
        <ele>576</ele>
        <time>2016-12-03T11:07:06.008Z</time>
      </trkpt>
      <trkpt lat="43.02073" lon="0.92555">
        <ele>576</ele>
        <time>2016-12-03T11:07:10.008Z</time>
      </trkpt>
      <trkpt lat="43.02068" lon="0.92556">
        <ele>578</ele>
        <time>2016-12-03T11:07:13.008Z</time>
      </trkpt>
      <trkpt lat="43.0206" lon="0.92558">
        <ele>578</ele>
        <time>2016-12-03T11:07:17.008Z</time>
      </trkpt>
      <trkpt lat="43.02055" lon="0.9256">
        <ele>578</ele>
        <time>2016-12-03T11:07:20.008Z</time>
      </trkpt>
      <trkpt lat="43.02048" lon="0.92563">
        <ele>581</ele>
        <time>2016-12-03T11:07:25.008Z</time>
      </trkpt>
      <trkpt lat="43.02042" lon="0.92566">
        <ele>583</ele>
        <time>2016-12-03T11:07:29.008Z</time>
      </trkpt>
      <trkpt lat="43.02036" lon="0.92568">
        <ele>584</ele>
        <time>2016-12-03T11:07:32.008Z</time>
      </trkpt>
      <trkpt lat="43.0203" lon="0.92569">
        <ele>584.34799805438</ele>
        <time>2016-12-03T11:07:36.008Z</time>
      </trkpt>
      <trkpt lat="43.02024" lon="0.92569">
        <ele>585</ele>
        <time>2016-12-03T11:07:40.008Z</time>
      </trkpt>
      <trkpt lat="43.02018" lon="0.92569">
        <ele>587</ele>
        <time>2016-12-03T11:07:44.008Z</time>
      </trkpt>
      <trkpt lat="43.02011" lon="0.92568">
        <ele>589</ele>
        <time>2016-12-03T11:07:48.008Z</time>
      </trkpt>
      <trkpt lat="43.02005" lon="0.92566">
        <ele>591</ele>
        <time>2016-12-03T11:07:52.008Z</time>
      </trkpt>
      <trkpt lat="43.01999" lon="0.92567">
        <ele>591</ele>
        <time>2016-12-03T11:07:58.008Z</time>
      </trkpt>
      <trkpt lat="43.01993" lon="0.92567">
        <ele>592</ele>
        <time>2016-12-03T11:08:03.008Z</time>
      </trkpt>
      <trkpt lat="43.01985" lon="0.92565">
        <ele>592</ele>
        <time>2016-12-03T11:08:08.008Z</time>
      </trkpt>
      <trkpt lat="43.01978" lon="0.92561">
        <ele>594</ele>
        <time>2016-12-03T11:08:12.008Z</time>
      </trkpt>
      <trkpt lat="43.01973" lon="0.92558">
        <ele>594</ele>
        <time>2016-12-03T11:08:15.008Z</time>
      </trkpt>
      <trkpt lat="43.01978" lon="0.92565">
        <ele>597</ele>
        <time>2016-12-03T11:08:58.008Z</time>
      </trkpt>
      <trkpt lat="43.01984" lon="0.92571">
        <ele>598</ele>
        <time>2016-12-03T11:09:02.008Z</time>
      </trkpt>
      <trkpt lat="43.01989" lon="0.92578">
        <ele>598</ele>
        <time>2016-12-03T11:09:06.008Z</time>
      </trkpt>
      <trkpt lat="43.01994" lon="0.92584">
        <ele>598</ele>
        <time>2016-12-03T11:09:10.008Z</time>
      </trkpt>
      <trkpt lat="43.01999" lon="0.92591">
        <ele>600</ele>
        <time>2016-12-03T11:09:14.008Z</time>
      </trkpt>
      <trkpt lat="43.02006" lon="0.926">
        <ele>600</ele>
        <time>2016-12-03T11:09:19.008Z</time>
      </trkpt>
      <trkpt lat="43.02011" lon="0.92607">
        <ele>602</ele>
        <time>2016-12-03T11:09:23.008Z</time>
      </trkpt>
      <trkpt lat="43.02017" lon="0.92617">
        <ele>604</ele>
        <time>2016-12-03T11:09:28.008Z</time>
      </trkpt>
      <trkpt lat="43.02022" lon="0.92626">
        <ele>605</ele>
        <time>2016-12-03T11:09:33.008Z</time>
      </trkpt>
      <trkpt lat="43.02026" lon="0.92636">
        <ele>607</ele>
        <time>2016-12-03T11:09:37.008Z</time>
      </trkpt>
      <trkpt lat="43.0203" lon="0.92647">
        <ele>608</ele>
        <time>2016-12-03T11:09:42.008Z</time>
      </trkpt>
      <trkpt lat="43.02034" lon="0.92656">
        <ele>608.34799805438</ele>
        <time>2016-12-03T11:09:46.008Z</time>
      </trkpt>
      <trkpt lat="43.02037" lon="0.92668">
        <ele>609.34800194557</ele>
        <time>2016-12-03T11:09:51.008Z</time>
      </trkpt>
      <trkpt lat="43.0204" lon="0.92678">
        <ele>610.69599610875</ele>
        <time>2016-12-03T11:09:56.008Z</time>
      </trkpt>
      <trkpt lat="43.02041" lon="0.92689">
        <ele>612.34140980554</ele>
        <time>2016-12-03T11:10:01.008Z</time>
      </trkpt>
      <trkpt lat="43.02041" lon="0.927">
        <ele>613</ele>
        <time>2016-12-03T11:10:05.008Z</time>
      </trkpt>
      <trkpt lat="43.02042" lon="0.92713">
        <ele>614</ele>
        <time>2016-12-03T11:10:10.008Z</time>
      </trkpt>
      <trkpt lat="43.02042" lon="0.92722">
        <ele>616</ele>
        <time>2016-12-03T11:10:14.008Z</time>
      </trkpt>
      <trkpt lat="43.02041" lon="0.92734">
        <ele>617</ele>
        <time>2016-12-03T11:10:18.008Z</time>
      </trkpt>
      <trkpt lat="43.0204" lon="0.92744">
        <ele>618</ele>
        <time>2016-12-03T11:10:22.008Z</time>
      </trkpt>
      <trkpt lat="43.0204" lon="0.92754">
        <ele>618</ele>
        <time>2016-12-03T11:10:26.008Z</time>
      </trkpt>
      <trkpt lat="43.0204" lon="0.92764">
        <ele>618</ele>
        <time>2016-12-03T11:10:30.008Z</time>
      </trkpt>
      <trkpt lat="43.02039" lon="0.92776">
        <ele>619</ele>
        <time>2016-12-03T11:10:34.008Z</time>
      </trkpt>
      <trkpt lat="43.02039" lon="0.92787">
        <ele>619</ele>
        <time>2016-12-03T11:10:37.008Z</time>
      </trkpt>
      <trkpt lat="43.02038" lon="0.92797">
        <ele>619</ele>
        <time>2016-12-03T11:10:40.008Z</time>
      </trkpt>
      <trkpt lat="43.02038" lon="0.92808">
        <ele>621</ele>
        <time>2016-12-03T11:10:44.008Z</time>
      </trkpt>
      <trkpt lat="43.02038" lon="0.9282">
        <ele>621</ele>
        <time>2016-12-03T11:10:48.008Z</time>
      </trkpt>
      <trkpt lat="43.02037" lon="0.9283">
        <ele>621.69600389115</ele>
        <time>2016-12-03T11:10:51.008Z</time>
      </trkpt>
      <trkpt lat="43.02035" lon="0.92843">
        <ele>623</ele>
        <time>2016-12-03T11:10:54.008Z</time>
      </trkpt>
      <trkpt lat="43.02034" lon="0.92856">
        <ele>623</ele>
        <time>2016-12-03T11:10:57.008Z</time>
      </trkpt>
      <trkpt lat="43.02032" lon="0.92869">
        <ele>623</ele>
        <time>2016-12-03T11:11:00.008Z</time>
      </trkpt>
      <trkpt lat="43.02031" lon="0.9288">
        <ele>623</ele>
        <time>2016-12-03T11:11:02.008Z</time>
      </trkpt>
      <trkpt lat="43.02029" lon="0.92899">
        <ele>623</ele>
        <time>2016-12-03T11:11:05.008Z</time>
      </trkpt>
      <trkpt lat="43.02027" lon="0.92912">
        <ele>623</ele>
        <time>2016-12-03T11:11:07.008Z</time>
      </trkpt>
      <trkpt lat="43.02022" lon="0.92926">
        <ele>623</ele>
        <time>2016-12-03T11:11:10.008Z</time>
      </trkpt>
      <trkpt lat="43.02018" lon="0.92938">
        <ele>623</ele>
        <time>2016-12-03T11:11:13.008Z</time>
      </trkpt>
      <trkpt lat="43.02014" lon="0.9295">
        <ele>623</ele>
        <time>2016-12-03T11:11:16.008Z</time>
      </trkpt>
      <trkpt lat="43.02011" lon="0.92963">
        <ele>623</ele>
        <time>2016-12-03T11:11:19.008Z</time>
      </trkpt>
      <trkpt lat="43.02005" lon="0.92976">
        <ele>623</ele>
        <time>2016-12-03T11:11:23.008Z</time>
      </trkpt>
      <trkpt lat="43.02001" lon="0.9299">
        <ele>623</ele>
        <time>2016-12-03T11:11:27.008Z</time>
      </trkpt>
      <trkpt lat="43.01997" lon="0.93004">
        <ele>623.69600389115</ele>
        <time>2016-12-03T11:11:31.008Z</time>
      </trkpt>
      <trkpt lat="43.01994" lon="0.93015">
        <ele>625</ele>
        <time>2016-12-03T11:11:34.008Z</time>
      </trkpt>
      <trkpt lat="43.01991" lon="0.93025">
        <ele>625</ele>
        <time>2016-12-03T11:11:37.008Z</time>
      </trkpt>
      <trkpt lat="43.01987" lon="0.93032">
        <ele>625</ele>
        <time>2016-12-03T11:11:40.008Z</time>
      </trkpt>
      <trkpt lat="43.01984" lon="0.9304">
        <ele>627</ele>
        <time>2016-12-03T11:11:43.008Z</time>
      </trkpt>
      <trkpt lat="43.01979" lon="0.93052">
        <ele>629</ele>
        <time>2016-12-03T11:11:47.008Z</time>
      </trkpt>
      <trkpt lat="43.01975" lon="0.93062">
        <ele>629</ele>
        <time>2016-12-03T11:11:50.008Z</time>
      </trkpt>
      <trkpt lat="43.0197" lon="0.93072">
        <ele>631</ele>
        <time>2016-12-03T11:11:53.008Z</time>
      </trkpt>
      <trkpt lat="43.01965" lon="0.93082">
        <ele>631</ele>
        <time>2016-12-03T11:11:57.008Z</time>
      </trkpt>
      <trkpt lat="43.01958" lon="0.93089">
        <ele>631.69600389115</ele>
        <time>2016-12-03T11:12:01.008Z</time>
      </trkpt>
      <trkpt lat="43.01951" lon="0.93095">
        <ele>633</ele>
        <time>2016-12-03T11:12:05.008Z</time>
      </trkpt>
      <trkpt lat="43.01943" lon="0.93098">
        <ele>633</ele>
        <time>2016-12-03T11:12:09.008Z</time>
      </trkpt>
      <trkpt lat="43.01937" lon="0.93099">
        <ele>636</ele>
        <time>2016-12-03T11:12:12.008Z</time>
      </trkpt>
      <trkpt lat="43.01929" lon="0.93103">
        <ele>636.69599610875</ele>
        <time>2016-12-03T11:12:16.008Z</time>
      </trkpt>
      <trkpt lat="43.01922" lon="0.93106">
        <ele>638</ele>
        <time>2016-12-03T11:12:20.008Z</time>
      </trkpt>
      <trkpt lat="43.01915" lon="0.93108">
        <ele>640</ele>
        <time>2016-12-03T11:12:23.008Z</time>
      </trkpt>
      <trkpt lat="43.01909" lon="0.93108">
        <ele>640.69599610875</ele>
        <time>2016-12-03T11:12:26.008Z</time>
      </trkpt>
      <trkpt lat="43.01903" lon="0.93106">
        <ele>642</ele>
        <time>2016-12-03T11:12:29.008Z</time>
      </trkpt>
      <trkpt lat="43.01894" lon="0.93106">
        <ele>643</ele>
        <time>2016-12-03T11:12:33.008Z</time>
      </trkpt>
      <trkpt lat="43.01886" lon="0.93105">
        <ele>645</ele>
        <time>2016-12-03T11:12:37.008Z</time>
      </trkpt>
      <trkpt lat="43.0188" lon="0.93103">
        <ele>645</ele>
        <time>2016-12-03T11:12:40.008Z</time>
      </trkpt>
      <trkpt lat="43.01873" lon="0.93103">
        <ele>646</ele>
        <time>2016-12-03T11:12:44.008Z</time>
      </trkpt>
      <trkpt lat="43.01866" lon="0.93098">
        <ele>648</ele>
        <time>2016-12-03T11:12:48.008Z</time>
      </trkpt>
      <trkpt lat="43.01861" lon="0.93093">
        <ele>648.34800194557</ele>
        <time>2016-12-03T11:12:51.008Z</time>
      </trkpt>
      <trkpt lat="43.01854" lon="0.93088">
        <ele>649</ele>
        <time>2016-12-03T11:12:55.008Z</time>
      </trkpt>
      <trkpt lat="43.01846" lon="0.93082">
        <ele>651</ele>
        <time>2016-12-03T11:13:00.008Z</time>
      </trkpt>
      <trkpt lat="43.0184" lon="0.93075">
        <ele>652</ele>
        <time>2016-12-03T11:13:04.008Z</time>
      </trkpt>
      <trkpt lat="43.01834" lon="0.93068">
        <ele>654</ele>
        <time>2016-12-03T11:13:08.008Z</time>
      </trkpt>
      <trkpt lat="43.01828" lon="0.93058">
        <ele>655</ele>
        <time>2016-12-03T11:13:14.008Z</time>
      </trkpt>
      <trkpt lat="43.01823" lon="0.9305">
        <ele>657</ele>
        <time>2016-12-03T11:13:18.008Z</time>
      </trkpt>
      <trkpt lat="43.01818" lon="0.93043">
        <ele>658</ele>
        <time>2016-12-03T11:13:22.008Z</time>
      </trkpt>
      <trkpt lat="43.01813" lon="0.93036">
        <ele>658.69599610875</ele>
        <time>2016-12-03T11:13:26.008Z</time>
      </trkpt>
      <trkpt lat="43.01807" lon="0.93027">
        <ele>660.69600389115</ele>
        <time>2016-12-03T11:13:31.008Z</time>
      </trkpt>
      <trkpt lat="43.01802" lon="0.93017">
        <ele>662.34799805438</ele>
        <time>2016-12-03T11:13:36.008Z</time>
      </trkpt>
      <trkpt lat="43.01797" lon="0.93007">
        <ele>663.69600389115</ele>
        <time>2016-12-03T11:13:41.008Z</time>
      </trkpt>
      <trkpt lat="43.01791" lon="0.92999">
        <ele>667</ele>
        <time>2016-12-03T11:13:47.008Z</time>
      </trkpt>
      <trkpt lat="43.01785" lon="0.92994">
        <ele>668</ele>
        <time>2016-12-03T11:13:52.008Z</time>
      </trkpt>
      <trkpt lat="43.01776" lon="0.92996">
        <ele>668</ele>
        <time>2016-12-03T11:13:57.008Z</time>
      </trkpt>
      <trkpt lat="43.01765" lon="0.92994">
        <ele>667</ele>
        <time>2016-12-03T11:14:02.008Z</time>
      </trkpt>
      <trkpt lat="43.01754" lon="0.92996">
        <ele>667</ele>
        <time>2016-12-03T11:14:06.008Z</time>
      </trkpt>
      <trkpt lat="43.01742" lon="0.92997">
        <ele>667</ele>
        <time>2016-12-03T11:14:09.008Z</time>
      </trkpt>
      <trkpt lat="43.01733" lon="0.92997">
        <ele>667</ele>
        <time>2016-12-03T11:14:12.008Z</time>
      </trkpt>
      <trkpt lat="43.01725" lon="0.92995">
        <ele>667</ele>
        <time>2016-12-03T11:14:15.008Z</time>
      </trkpt>
      <trkpt lat="43.01713" lon="0.92997">
        <ele>667</ele>
        <time>2016-12-03T11:14:18.008Z</time>
      </trkpt>
      <trkpt lat="43.01702" lon="0.93">
        <ele>666.30399610885</ele>
        <time>2016-12-03T11:14:21.008Z</time>
      </trkpt>
      <trkpt lat="43.01687" lon="0.93005">
        <ele>665</ele>
        <time>2016-12-03T11:14:24.008Z</time>
      </trkpt>
      <trkpt lat="43.01677" lon="0.93003">
        <ele>665</ele>
        <time>2016-12-03T11:14:26.008Z</time>
      </trkpt>
      <trkpt lat="43.01667" lon="0.93">
        <ele>665</ele>
        <time>2016-12-03T11:14:28.008Z</time>
      </trkpt>
      <trkpt lat="43.01658" lon="0.9299">
        <ele>664.30399610885</ele>
        <time>2016-12-03T11:14:31.008Z</time>
      </trkpt>
      <trkpt lat="43.01649" lon="0.92977">
        <ele>663</ele>
        <time>2016-12-03T11:14:34.008Z</time>
      </trkpt>
      <trkpt lat="43.01642" lon="0.92964">
        <ele>663</ele>
        <time>2016-12-03T11:14:37.008Z</time>
      </trkpt>
      <trkpt lat="43.01636" lon="0.92947">
        <ele>663</ele>
        <time>2016-12-03T11:14:40.008Z</time>
      </trkpt>
      <trkpt lat="43.01631" lon="0.92931">
        <ele>663</ele>
        <time>2016-12-03T11:14:43.008Z</time>
      </trkpt>
      <trkpt lat="43.01628" lon="0.92917">
        <ele>663</ele>
        <time>2016-12-03T11:14:46.008Z</time>
      </trkpt>
      <trkpt lat="43.01624" lon="0.92902">
        <ele>663</ele>
        <time>2016-12-03T11:14:49.008Z</time>
      </trkpt>
      <trkpt lat="43.01621" lon="0.92889">
        <ele>662.65199805443</ele>
        <time>2016-12-03T11:14:51.008Z</time>
      </trkpt>
      <trkpt lat="43.01616" lon="0.92871">
        <ele>662</ele>
        <time>2016-12-03T11:14:54.008Z</time>
      </trkpt>
      <trkpt lat="43.01613" lon="0.92857">
        <ele>662</ele>
        <time>2016-12-03T11:14:57.008Z</time>
      </trkpt>
      <trkpt lat="43.0161" lon="0.9284">
        <ele>661.65199805443</ele>
        <time>2016-12-03T11:15:01.008Z</time>
      </trkpt>
      <trkpt lat="43.01608" lon="0.92825">
        <ele>661</ele>
        <time>2016-12-03T11:15:04.008Z</time>
      </trkpt>
      <trkpt lat="43.01605" lon="0.92808">
        <ele>661</ele>
        <time>2016-12-03T11:15:08.008Z</time>
      </trkpt>
      <trkpt lat="43.01604" lon="0.92792">
        <ele>662</ele>
        <time>2016-12-03T11:15:12.008Z</time>
      </trkpt>
      <trkpt lat="43.01601" lon="0.92781">
        <ele>662</ele>
        <time>2016-12-03T11:15:15.008Z</time>
      </trkpt>
      <trkpt lat="43.01599" lon="0.92769">
        <ele>662</ele>
        <time>2016-12-03T11:15:18.008Z</time>
      </trkpt>
      <trkpt lat="43.01599" lon="0.92757">
        <ele>662.34800194557</ele>
        <time>2016-12-03T11:15:21.008Z</time>
      </trkpt>
      <trkpt lat="43.01597" lon="0.92747">
        <ele>663</ele>
        <time>2016-12-03T11:15:24.008Z</time>
      </trkpt>
      <trkpt lat="43.01596" lon="0.92734">
        <ele>663</ele>
        <time>2016-12-03T11:15:28.008Z</time>
      </trkpt>
      <trkpt lat="43.01598" lon="0.92721">
        <ele>664.3920077823</ele>
        <time>2016-12-03T11:15:31.008Z</time>
      </trkpt>
      <trkpt lat="43.016" lon="0.92712">
        <ele>667</ele>
        <time>2016-12-03T11:15:33.008Z</time>
      </trkpt>
      <trkpt lat="43.01599" lon="0.92702">
        <ele>667.34799805438</ele>
        <time>2016-12-03T11:15:36.008Z</time>
      </trkpt>
      <trkpt lat="43.016" lon="0.92692">
        <ele>668</ele>
        <time>2016-12-03T11:15:39.008Z</time>
      </trkpt>
      <trkpt lat="43.016" lon="0.92682">
        <ele>669</ele>
        <time>2016-12-03T11:15:42.008Z</time>
      </trkpt>
      <trkpt lat="43.01597" lon="0.9267">
        <ele>669</ele>
        <time>2016-12-03T11:15:46.008Z</time>
      </trkpt>
      <trkpt lat="43.01593" lon="0.9266">
        <ele>669</ele>
        <time>2016-12-03T11:15:49.008Z</time>
      </trkpt>
      <trkpt lat="43.01589" lon="0.92654">
        <ele>669.69600389115</ele>
        <time>2016-12-03T11:15:51.008Z</time>
      </trkpt>
      <trkpt lat="43.01586" lon="0.92648">
        <ele>671</ele>
        <time>2016-12-03T11:15:53.008Z</time>
      </trkpt>
      <trkpt lat="43.01581" lon="0.92642">
        <ele>671</ele>
        <time>2016-12-03T11:15:56.008Z</time>
      </trkpt>
      <trkpt lat="43.01574" lon="0.92636">
        <ele>671</ele>
        <time>2016-12-03T11:15:59.008Z</time>
      </trkpt>
      <trkpt lat="43.01567" lon="0.9263">
        <ele>672</ele>
        <time>2016-12-03T11:16:02.008Z</time>
      </trkpt>
      <trkpt lat="43.0156" lon="0.92627">
        <ele>672</ele>
        <time>2016-12-03T11:16:05.008Z</time>
      </trkpt>
      <trkpt lat="43.01553" lon="0.92629">
        <ele>672</ele>
        <time>2016-12-03T11:16:08.008Z</time>
      </trkpt>
      <trkpt lat="43.01547" lon="0.92632">
        <ele>672.69600389115</ele>
        <time>2016-12-03T11:16:11.008Z</time>
      </trkpt>
      <trkpt lat="43.01539" lon="0.92637">
        <ele>674</ele>
        <time>2016-12-03T11:16:15.008Z</time>
      </trkpt>
      <trkpt lat="43.01535" lon="0.92642">
        <ele>674</ele>
        <time>2016-12-03T11:16:18.008Z</time>
      </trkpt>
      <trkpt lat="43.0153" lon="0.92649">
        <ele>674.69600389115</ele>
        <time>2016-12-03T11:16:21.008Z</time>
      </trkpt>
      <trkpt lat="43.01526" lon="0.92657">
        <ele>676</ele>
        <time>2016-12-03T11:16:24.008Z</time>
      </trkpt>
      <trkpt lat="43.01521" lon="0.92666">
        <ele>676</ele>
        <time>2016-12-03T11:16:28.008Z</time>
      </trkpt>
      <trkpt lat="43.01517" lon="0.92675">
        <ele>676.68351776354</ele>
        <time>2016-12-03T11:16:31.008Z</time>
      </trkpt>
      <trkpt lat="43.01513" lon="0.92684">
        <ele>678</ele>
        <time>2016-12-03T11:16:35.008Z</time>
      </trkpt>
      <trkpt lat="43.0151" lon="0.92694">
        <ele>678</ele>
        <time>2016-12-03T11:16:39.008Z</time>
      </trkpt>
      <trkpt lat="43.01506" lon="0.92702">
        <ele>681</ele>
        <time>2016-12-03T11:16:43.008Z</time>
      </trkpt>
      <trkpt lat="43.01501" lon="0.92709">
        <ele>681.3490048</ele>
        <time>2016-12-03T11:16:46.008Z</time>
      </trkpt>
      <trkpt lat="43.01493" lon="0.9271">
        <ele>682</ele>
        <time>2016-12-03T11:16:49.008Z</time>
      </trkpt>
      <trkpt lat="43.01488" lon="0.92705">
        <ele>682</ele>
        <time>2016-12-03T11:16:51.008Z</time>
      </trkpt>
      <trkpt lat="43.01482" lon="0.927">
        <ele>682</ele>
        <time>2016-12-03T11:16:53.008Z</time>
      </trkpt>
      <trkpt lat="43.01477" lon="0.92696">
        <ele>682</ele>
        <time>2016-12-03T11:16:55.008Z</time>
      </trkpt>
      <trkpt lat="43.01472" lon="0.92692">
        <ele>682</ele>
        <time>2016-12-03T11:16:57.008Z</time>
      </trkpt>
      <trkpt lat="43.01466" lon="0.92689">
        <ele>682</ele>
        <time>2016-12-03T11:16:59.008Z</time>
      </trkpt>
      <trkpt lat="43.01461" lon="0.92684">
        <ele>682.3490048</ele>
        <time>2016-12-03T11:17:01.008Z</time>
      </trkpt>
      <trkpt lat="43.01455" lon="0.9268">
        <ele>683</ele>
        <time>2016-12-03T11:17:03.008Z</time>
      </trkpt>
      <trkpt lat="43.01449" lon="0.92677">
        <ele>683</ele>
        <time>2016-12-03T11:17:05.008Z</time>
      </trkpt>
      <trkpt lat="43.01443" lon="0.92672">
        <ele>683</ele>
        <time>2016-12-03T11:17:07.008Z</time>
      </trkpt>
      <trkpt lat="43.01438" lon="0.92667">
        <ele>683</ele>
        <time>2016-12-03T11:17:09.008Z</time>
      </trkpt>
      <trkpt lat="43.01433" lon="0.92662">
        <ele>683.3490048</ele>
        <time>2016-12-03T11:17:11.008Z</time>
      </trkpt>
      <trkpt lat="43.01427" lon="0.92658">
        <ele>684</ele>
        <time>2016-12-03T11:17:13.008Z</time>
      </trkpt>
      <trkpt lat="43.01421" lon="0.92654">
        <ele>684</ele>
        <time>2016-12-03T11:17:15.008Z</time>
      </trkpt>
      <trkpt lat="43.01415" lon="0.9265">
        <ele>684</ele>
        <time>2016-12-03T11:17:17.008Z</time>
      </trkpt>
      <trkpt lat="43.0141" lon="0.92646">
        <ele>684</ele>
        <time>2016-12-03T11:17:19.008Z</time>
      </trkpt>
      <trkpt lat="43.01404" lon="0.92644">
        <ele>684</ele>
        <time>2016-12-03T11:17:21.008Z</time>
      </trkpt>
      <trkpt lat="43.01399" lon="0.92639">
        <ele>684</ele>
        <time>2016-12-03T11:17:23.008Z</time>
      </trkpt>
      <trkpt lat="43.01392" lon="0.92636">
        <ele>684</ele>
        <time>2016-12-03T11:17:25.008Z</time>
      </trkpt>
      <trkpt lat="43.01386" lon="0.92632">
        <ele>684</ele>
        <time>2016-12-03T11:17:27.008Z</time>
      </trkpt>
      <trkpt lat="43.01379" lon="0.92629">
        <ele>684</ele>
        <time>2016-12-03T11:17:29.008Z</time>
      </trkpt>
      <trkpt lat="43.01372" lon="0.92625">
        <ele>684</ele>
        <time>2016-12-03T11:17:31.008Z</time>
      </trkpt>
      <trkpt lat="43.01364" lon="0.92622">
        <ele>684</ele>
        <time>2016-12-03T11:17:33.008Z</time>
      </trkpt>
      <trkpt lat="43.01356" lon="0.92621">
        <ele>684</ele>
        <time>2016-12-03T11:17:35.008Z</time>
      </trkpt>
      <trkpt lat="43.01346" lon="0.92623">
        <ele>684</ele>
        <time>2016-12-03T11:17:37.008Z</time>
      </trkpt>
      <trkpt lat="43.01336" lon="0.92624">
        <ele>684</ele>
        <time>2016-12-03T11:17:39.008Z</time>
      </trkpt>
      <trkpt lat="43.01328" lon="0.92626">
        <ele>683.30399610885</ele>
        <time>2016-12-03T11:17:41.008Z</time>
      </trkpt>
      <trkpt lat="43.0132" lon="0.92632">
        <ele>682</ele>
        <time>2016-12-03T11:17:43.008Z</time>
      </trkpt>
      <trkpt lat="43.01313" lon="0.92642">
        <ele>682</ele>
        <time>2016-12-03T11:17:45.008Z</time>
      </trkpt>
      <trkpt lat="43.01306" lon="0.92652">
        <ele>682</ele>
        <time>2016-12-03T11:17:47.008Z</time>
      </trkpt>
      <trkpt lat="43.01298" lon="0.92663">
        <ele>682</ele>
        <time>2016-12-03T11:17:50.008Z</time>
      </trkpt>
      <trkpt lat="43.01291" lon="0.92673">
        <ele>681</ele>
        <time>2016-12-03T11:17:53.008Z</time>
      </trkpt>
      <trkpt lat="43.01284" lon="0.92684">
        <ele>681</ele>
        <time>2016-12-03T11:17:56.008Z</time>
      </trkpt>
      <trkpt lat="43.0128" lon="0.92693">
        <ele>681</ele>
        <time>2016-12-03T11:17:58.008Z</time>
      </trkpt>
      <trkpt lat="43.01274" lon="0.92701">
        <ele>681</ele>
        <time>2016-12-03T11:18:00.008Z</time>
      </trkpt>
      <trkpt lat="43.01268" lon="0.92711">
        <ele>679</ele>
        <time>2016-12-03T11:18:02.008Z</time>
      </trkpt>
      <trkpt lat="43.01262" lon="0.92719">
        <ele>679</ele>
        <time>2016-12-03T11:18:04.008Z</time>
      </trkpt>
      <trkpt lat="43.01256" lon="0.92729">
        <ele>679</ele>
        <time>2016-12-03T11:18:06.008Z</time>
      </trkpt>
      <trkpt lat="43.01246" lon="0.92739">
        <ele>679</ele>
        <time>2016-12-03T11:18:09.008Z</time>
      </trkpt>
      <trkpt lat="43.01241" lon="0.92745">
        <ele>679.34800194557</ele>
        <time>2016-12-03T11:18:11.008Z</time>
      </trkpt>
      <trkpt lat="43.01236" lon="0.92751">
        <ele>680</ele>
        <time>2016-12-03T11:18:13.008Z</time>
      </trkpt>
      <trkpt lat="43.01232" lon="0.92758">
        <ele>680</ele>
        <time>2016-12-03T11:18:15.008Z</time>
      </trkpt>
      <trkpt lat="43.01227" lon="0.92766">
        <ele>680</ele>
        <time>2016-12-03T11:18:17.008Z</time>
      </trkpt>
      <trkpt lat="43.01222" lon="0.92777">
        <ele>680</ele>
        <time>2016-12-03T11:18:19.008Z</time>
      </trkpt>
      <trkpt lat="43.01217" lon="0.9279">
        <ele>678.95599416328</ele>
        <time>2016-12-03T11:18:21.008Z</time>
      </trkpt>
      <trkpt lat="43.01211" lon="0.92804">
        <ele>677</ele>
        <time>2016-12-03T11:18:23.008Z</time>
      </trkpt>
      <trkpt lat="43.01204" lon="0.92819">
        <ele>677</ele>
        <time>2016-12-03T11:18:25.008Z</time>
      </trkpt>
      <trkpt lat="43.01198" lon="0.92831">
        <ele>675</ele>
        <time>2016-12-03T11:18:27.008Z</time>
      </trkpt>
      <trkpt lat="43.01193" lon="0.92842">
        <ele>675</ele>
        <time>2016-12-03T11:18:29.008Z</time>
      </trkpt>
      <trkpt lat="43.01189" lon="0.92855">
        <ele>673.95599416328</ele>
        <time>2016-12-03T11:18:31.008Z</time>
      </trkpt>
      <trkpt lat="43.01185" lon="0.92868">
        <ele>669.65199805443</ele>
        <time>2016-12-03T11:18:33.008Z</time>
      </trkpt>
      <trkpt lat="43.01181" lon="0.92883">
        <ele>668.65199805443</ele>
        <time>2016-12-03T11:18:35.008Z</time>
      </trkpt>
      <trkpt lat="43.01178" lon="0.92897">
        <ele>667.65199805443</ele>
        <time>2016-12-03T11:18:37.008Z</time>
      </trkpt>
      <trkpt lat="43.01173" lon="0.92911">
        <ele>666.65199805443</ele>
        <time>2016-12-03T11:18:39.008Z</time>
      </trkpt>
      <trkpt lat="43.01167" lon="0.92927">
        <ele>666</ele>
        <time>2016-12-03T11:18:41.008Z</time>
      </trkpt>
      <trkpt lat="43.0116" lon="0.92941">
        <ele>666</ele>
        <time>2016-12-03T11:18:43.008Z</time>
      </trkpt>
      <trkpt lat="43.01153" lon="0.92951">
        <ele>666</ele>
        <time>2016-12-03T11:18:45.008Z</time>
      </trkpt>
      <trkpt lat="43.01146" lon="0.9296">
        <ele>665</ele>
        <time>2016-12-03T11:18:47.008Z</time>
      </trkpt>
      <trkpt lat="43.0114" lon="0.92968">
        <ele>665</ele>
        <time>2016-12-03T11:18:49.008Z</time>
      </trkpt>
      <trkpt lat="43.01135" lon="0.92975">
        <ele>665</ele>
        <time>2016-12-03T11:18:51.008Z</time>
      </trkpt>
      <trkpt lat="43.01131" lon="0.92982">
        <ele>665</ele>
        <time>2016-12-03T11:18:53.008Z</time>
      </trkpt>
      <trkpt lat="43.01126" lon="0.92991">
        <ele>665</ele>
        <time>2016-12-03T11:18:55.008Z</time>
      </trkpt>
      <trkpt lat="43.01119" lon="0.93">
        <ele>665</ele>
        <time>2016-12-03T11:18:57.008Z</time>
      </trkpt>
      <trkpt lat="43.01111" lon="0.93011">
        <ele>665</ele>
        <time>2016-12-03T11:18:59.008Z</time>
      </trkpt>
      <trkpt lat="43.01102" lon="0.93021">
        <ele>663.25999027212</ele>
        <time>2016-12-03T11:19:01.008Z</time>
      </trkpt>
      <trkpt lat="43.01095" lon="0.93031">
        <ele>660</ele>
        <time>2016-12-03T11:19:03.008Z</time>
      </trkpt>
      <trkpt lat="43.01091" lon="0.93045">
        <ele>657.65199805443</ele>
        <time>2016-12-03T11:19:05.008Z</time>
      </trkpt>
      <trkpt lat="43.01087" lon="0.93061">
        <ele>656.65199805443</ele>
        <time>2016-12-03T11:19:07.008Z</time>
      </trkpt>
      <trkpt lat="43.01082" lon="0.93078">
        <ele>655</ele>
        <time>2016-12-03T11:19:09.008Z</time>
      </trkpt>
      <trkpt lat="43.01075" lon="0.93093">
        <ele>654</ele>
        <time>2016-12-03T11:19:11.008Z</time>
      </trkpt>
      <trkpt lat="43.0107" lon="0.93099">
        <ele>653.65200194562</ele>
        <time>2016-12-03T11:19:12.008Z</time>
      </trkpt>
      <trkpt lat="43.01064" lon="0.93101">
        <ele>653.34800194557</ele>
        <time>2016-12-03T11:19:13.008Z</time>
      </trkpt>
      <trkpt lat="43.01058" lon="0.93101">
        <ele>654</ele>
        <time>2016-12-03T11:19:14.008Z</time>
      </trkpt>
      <trkpt lat="43.01046" lon="0.93102">
        <ele>654.34799805438</ele>
        <time>2016-12-03T11:19:16.008Z</time>
      </trkpt>
      <trkpt lat="43.01038" lon="0.93104">
        <ele>655.34799805438</ele>
        <time>2016-12-03T11:19:18.008Z</time>
      </trkpt>
      <trkpt lat="43.01031" lon="0.93106">
        <ele>656</ele>
        <time>2016-12-03T11:19:20.008Z</time>
      </trkpt>
      <trkpt lat="43.01025" lon="0.93109">
        <ele>656</ele>
        <time>2016-12-03T11:19:22.008Z</time>
      </trkpt>
      <trkpt lat="43.01019" lon="0.93111">
        <ele>656</ele>
        <time>2016-12-03T11:19:24.008Z</time>
      </trkpt>
      <trkpt lat="43.01013" lon="0.93114">
        <ele>656</ele>
        <time>2016-12-03T11:19:26.008Z</time>
      </trkpt>
      <trkpt lat="43.01004" lon="0.93118">
        <ele>656</ele>
        <time>2016-12-03T11:19:29.008Z</time>
      </trkpt>
      <trkpt lat="43.00997" lon="0.93122">
        <ele>658</ele>
        <time>2016-12-03T11:19:32.008Z</time>
      </trkpt>
      <trkpt lat="43.00989" lon="0.93126">
        <ele>657</ele>
        <time>2016-12-03T11:19:35.008Z</time>
      </trkpt>
      <trkpt lat="43.00982" lon="0.9313">
        <ele>657</ele>
        <time>2016-12-03T11:19:38.008Z</time>
      </trkpt>
      <trkpt lat="43.00974" lon="0.93132">
        <ele>658.04400583672</ele>
        <time>2016-12-03T11:19:41.008Z</time>
      </trkpt>
      <trkpt lat="43.00967" lon="0.93134">
        <ele>660</ele>
        <time>2016-12-03T11:19:44.008Z</time>
      </trkpt>
      <trkpt lat="43.00961" lon="0.93136">
        <ele>660.69599610875</ele>
        <time>2016-12-03T11:19:46.008Z</time>
      </trkpt>
      <trkpt lat="43.00953" lon="0.9314">
        <ele>662</ele>
        <time>2016-12-03T11:19:49.008Z</time>
      </trkpt>
      <trkpt lat="43.00945" lon="0.93145">
        <ele>662</ele>
        <time>2016-12-03T11:19:52.008Z</time>
      </trkpt>
      <trkpt lat="43.00938" lon="0.93149">
        <ele>662</ele>
        <time>2016-12-03T11:19:55.008Z</time>
      </trkpt>
      <trkpt lat="43.00932" lon="0.93153">
        <ele>662</ele>
        <time>2016-12-03T11:19:58.008Z</time>
      </trkpt>
      <trkpt lat="43.00927" lon="0.93156">
        <ele>661</ele>
        <time>2016-12-03T11:20:00.008Z</time>
      </trkpt>
      <trkpt lat="43.00922" lon="0.9316">
        <ele>661</ele>
        <time>2016-12-03T11:20:02.008Z</time>
      </trkpt>
      <trkpt lat="43.00913" lon="0.93166">
        <ele>661</ele>
        <time>2016-12-03T11:20:04.008Z</time>
      </trkpt>
      <trkpt lat="43.00909" lon="0.93168">
        <ele>661</ele>
        <time>2016-12-03T11:20:05.008Z</time>
      </trkpt>
      <trkpt lat="43.00904" lon="0.93171">
        <ele>661</ele>
        <time>2016-12-03T11:20:06.008Z</time>
      </trkpt>
      <trkpt lat="43.00895" lon="0.93175">
        <ele>661</ele>
        <time>2016-12-03T11:20:08.008Z</time>
      </trkpt>
      <trkpt lat="43.00885" lon="0.93177">
        <ele>661</ele>
        <time>2016-12-03T11:20:10.008Z</time>
      </trkpt>
      <trkpt lat="43.00874" lon="0.93175">
        <ele>657</ele>
        <time>2016-12-03T11:20:12.008Z</time>
      </trkpt>
      <trkpt lat="43.00869" lon="0.93172">
        <ele>657</ele>
        <time>2016-12-03T11:20:13.008Z</time>
      </trkpt>
      <trkpt lat="43.00864" lon="0.93169">
        <ele>657</ele>
        <time>2016-12-03T11:20:14.008Z</time>
      </trkpt>
      <trkpt lat="43.00861" lon="0.93166">
        <ele>657</ele>
        <time>2016-12-03T11:20:15.008Z</time>
      </trkpt>
      <trkpt lat="43.00857" lon="0.93164">
        <ele>656.30400389125</ele>
        <time>2016-12-03T11:20:16.008Z</time>
      </trkpt>
      <trkpt lat="43.00854" lon="0.93162">
        <ele>655</ele>
        <time>2016-12-03T11:20:17.008Z</time>
      </trkpt>
      <trkpt lat="43.00851" lon="0.93159">
        <ele>655</ele>
        <time>2016-12-03T11:20:18.008Z</time>
      </trkpt>
      <trkpt lat="43.00847" lon="0.93156">
        <ele>655</ele>
        <time>2016-12-03T11:20:19.008Z</time>
      </trkpt>
      <trkpt lat="43.00845" lon="0.93153">
        <ele>655</ele>
        <time>2016-12-03T11:20:20.008Z</time>
      </trkpt>
      <trkpt lat="43.00842" lon="0.93149">
        <ele>655</ele>
        <time>2016-12-03T11:20:21.008Z</time>
      </trkpt>
      <trkpt lat="43.00838" lon="0.93144">
        <ele>655</ele>
        <time>2016-12-03T11:20:22.008Z</time>
      </trkpt>
      <trkpt lat="43.00835" lon="0.9314">
        <ele>655</ele>
        <time>2016-12-03T11:20:23.008Z</time>
      </trkpt>
      <trkpt lat="43.00831" lon="0.93135">
        <ele>655</ele>
        <time>2016-12-03T11:20:24.008Z</time>
      </trkpt>
      <trkpt lat="43.00826" lon="0.93129">
        <ele>654.65199805443</ele>
        <time>2016-12-03T11:20:25.008Z</time>
      </trkpt>
      <trkpt lat="43.00821" lon="0.93123">
        <ele>654</ele>
        <time>2016-12-03T11:20:26.008Z</time>
      </trkpt>
      <trkpt lat="43.00816" lon="0.93118">
        <ele>654</ele>
        <time>2016-12-03T11:20:27.008Z</time>
      </trkpt>
      <trkpt lat="43.00811" lon="0.93112">
        <ele>654</ele>
        <time>2016-12-03T11:20:28.008Z</time>
      </trkpt>
      <trkpt lat="43.00805" lon="0.93108">
        <ele>654</ele>
        <time>2016-12-03T11:20:29.008Z</time>
      </trkpt>
      <trkpt lat="43.00797" lon="0.93106">
        <ele>653.65199805443</ele>
        <time>2016-12-03T11:20:31.008Z</time>
      </trkpt>
      <trkpt lat="43.00787" lon="0.931">
        <ele>653</ele>
        <time>2016-12-03T11:20:34.008Z</time>
      </trkpt>
      <trkpt lat="43.0078" lon="0.93093">
        <ele>653</ele>
        <time>2016-12-03T11:20:36.008Z</time>
      </trkpt>
      <trkpt lat="43.00772" lon="0.93086">
        <ele>653</ele>
        <time>2016-12-03T11:20:38.008Z</time>
      </trkpt>
      <trkpt lat="43.00763" lon="0.93079">
        <ele>653</ele>
        <time>2016-12-03T11:20:40.008Z</time>
      </trkpt>
      <trkpt lat="43.00758" lon="0.93068">
        <ele>652</ele>
        <time>2016-12-03T11:20:42.008Z</time>
      </trkpt>
      <trkpt lat="43.00756" lon="0.93061">
        <ele>652</ele>
        <time>2016-12-03T11:20:43.008Z</time>
      </trkpt>
      <trkpt lat="43.00756" lon="0.93054">
        <ele>652</ele>
        <time>2016-12-03T11:20:44.008Z</time>
      </trkpt>
      <trkpt lat="43.00755" lon="0.93047">
        <ele>652</ele>
        <time>2016-12-03T11:20:45.008Z</time>
      </trkpt>
      <trkpt lat="43.00754" lon="0.93041">
        <ele>652</ele>
        <time>2016-12-03T11:20:46.008Z</time>
      </trkpt>
      <trkpt lat="43.00753" lon="0.93034">
        <ele>652</ele>
        <time>2016-12-03T11:20:47.008Z</time>
      </trkpt>
      <trkpt lat="43.00753" lon="0.93029">
        <ele>652</ele>
        <time>2016-12-03T11:20:48.008Z</time>
      </trkpt>
      <trkpt lat="43.00752" lon="0.93023">
        <ele>652</ele>
        <time>2016-12-03T11:20:49.008Z</time>
      </trkpt>
      <trkpt lat="43.00751" lon="0.93017">
        <ele>652</ele>
        <time>2016-12-03T11:20:50.008Z</time>
      </trkpt>
      <trkpt lat="43.00749" lon="0.93012">
        <ele>652</ele>
        <time>2016-12-03T11:20:51.008Z</time>
      </trkpt>
      <trkpt lat="43.00748" lon="0.93007">
        <ele>652</ele>
        <time>2016-12-03T11:20:52.008Z</time>
      </trkpt>
      <trkpt lat="43.00746" lon="0.93002">
        <ele>652</ele>
        <time>2016-12-03T11:20:53.008Z</time>
      </trkpt>
      <trkpt lat="43.00743" lon="0.92998">
        <ele>652</ele>
        <time>2016-12-03T11:20:54.008Z</time>
      </trkpt>
      <trkpt lat="43.00741" lon="0.92994">
        <ele>652</ele>
        <time>2016-12-03T11:20:55.008Z</time>
      </trkpt>
      <trkpt lat="43.00739" lon="0.92991">
        <ele>652</ele>
        <time>2016-12-03T11:20:56.008Z</time>
      </trkpt>
      <trkpt lat="43.00737" lon="0.92987">
        <ele>652</ele>
        <time>2016-12-03T11:20:57.008Z</time>
      </trkpt>
      <trkpt lat="43.00735" lon="0.92985">
        <ele>652</ele>
        <time>2016-12-03T11:20:58.008Z</time>
      </trkpt>
      <trkpt lat="43.0073" lon="0.92981">
        <ele>652</ele>
        <time>2016-12-03T11:21:00.008Z</time>
      </trkpt>
      <trkpt lat="43.00725" lon="0.92978">
        <ele>654</ele>
        <time>2016-12-03T11:21:02.008Z</time>
      </trkpt>
      <trkpt lat="43.0072" lon="0.92976">
        <ele>654</ele>
        <time>2016-12-03T11:21:04.008Z</time>
      </trkpt>
      <trkpt lat="43.00714" lon="0.92975">
        <ele>654</ele>
        <time>2016-12-03T11:21:07.008Z</time>
      </trkpt>
      <trkpt lat="43.00707" lon="0.92975">
        <ele>654</ele>
        <time>2016-12-03T11:21:10.008Z</time>
      </trkpt>
      <trkpt lat="43.00696" lon="0.92973">
        <ele>655</ele>
        <time>2016-12-03T11:21:15.008Z</time>
      </trkpt>
      <trkpt lat="43.00691" lon="0.92968">
        <ele>655</ele>
        <time>2016-12-03T11:21:18.008Z</time>
      </trkpt>
      <trkpt lat="43.00689" lon="0.92961">
        <ele>656.74000972788</ele>
        <time>2016-12-03T11:21:21.008Z</time>
      </trkpt>
      <trkpt lat="43.00688" lon="0.92953">
        <ele>659</ele>
        <time>2016-12-03T11:21:25.008Z</time>
      </trkpt>
      <trkpt lat="43.00687" lon="0.92944">
        <ele>661</ele>
        <time>2016-12-03T11:21:28.008Z</time>
      </trkpt>
      <trkpt lat="43.00687" lon="0.92935">
        <ele>661.69600389115</ele>
        <time>2016-12-03T11:21:31.008Z</time>
      </trkpt>
      <trkpt lat="43.00686" lon="0.92927">
        <ele>663</ele>
        <time>2016-12-03T11:21:34.008Z</time>
      </trkpt>
      <trkpt lat="43.00685" lon="0.9292">
        <ele>664</ele>
        <time>2016-12-03T11:21:37.008Z</time>
      </trkpt>
      <trkpt lat="43.00684" lon="0.92912">
        <ele>664.34800194557</ele>
        <time>2016-12-03T11:21:41.008Z</time>
      </trkpt>
      <trkpt lat="43.00683" lon="0.92904">
        <ele>665</ele>
        <time>2016-12-03T11:21:45.008Z</time>
      </trkpt>
      <trkpt lat="43.00683" lon="0.92896">
        <ele>667</ele>
        <time>2016-12-03T11:21:49.008Z</time>
      </trkpt>
      <trkpt lat="43.00681" lon="0.92888">
        <ele>669</ele>
        <time>2016-12-03T11:21:53.008Z</time>
      </trkpt>
      <trkpt lat="43.00682" lon="0.92879">
        <ele>669.69599610875</ele>
        <time>2016-12-03T11:21:56.008Z</time>
      </trkpt>
      <trkpt lat="43.00682" lon="0.9287">
        <ele>671</ele>
        <time>2016-12-03T11:22:00.008Z</time>
      </trkpt>
      <trkpt lat="43.0068" lon="0.92862">
        <ele>672</ele>
        <time>2016-12-03T11:22:04.008Z</time>
      </trkpt>
      <trkpt lat="43.00676" lon="0.92855">
        <ele>673</ele>
        <time>2016-12-03T11:22:08.008Z</time>
      </trkpt>
      <trkpt lat="43.00671" lon="0.92849">
        <ele>675</ele>
        <time>2016-12-03T11:22:12.008Z</time>
      </trkpt>
      <trkpt lat="43.00666" lon="0.92846">
        <ele>675.34799805438</ele>
        <time>2016-12-03T11:22:16.008Z</time>
      </trkpt>
      <trkpt lat="43.00661" lon="0.92843">
        <ele>676</ele>
        <time>2016-12-03T11:22:19.008Z</time>
      </trkpt>
      <trkpt lat="43.00657" lon="0.92838">
        <ele>678</ele>
        <time>2016-12-03T11:22:23.008Z</time>
      </trkpt>
      <trkpt lat="43.00652" lon="0.92832">
        <ele>679</ele>
        <time>2016-12-03T11:22:27.008Z</time>
      </trkpt>
      <trkpt lat="43.00649" lon="0.92828">
        <ele>679</ele>
        <time>2016-12-03T11:22:30.008Z</time>
      </trkpt>
      <trkpt lat="43.00645" lon="0.92823">
        <ele>680</ele>
        <time>2016-12-03T11:22:33.008Z</time>
      </trkpt>
      <trkpt lat="43.00641" lon="0.9282">
        <ele>680.69599610875</ele>
        <time>2016-12-03T11:22:36.008Z</time>
      </trkpt>
      <trkpt lat="43.00637" lon="0.92815">
        <ele>682</ele>
        <time>2016-12-03T11:22:39.008Z</time>
      </trkpt>
      <trkpt lat="43.00633" lon="0.9281">
        <ele>683</ele>
        <time>2016-12-03T11:22:42.008Z</time>
      </trkpt>
      <trkpt lat="43.00627" lon="0.92804">
        <ele>683.34799805438</ele>
        <time>2016-12-03T11:22:46.008Z</time>
      </trkpt>
      <trkpt lat="43.00622" lon="0.92799">
        <ele>684</ele>
        <time>2016-12-03T11:22:50.008Z</time>
      </trkpt>
      <trkpt lat="43.00615" lon="0.92795">
        <ele>686</ele>
        <time>2016-12-03T11:22:54.008Z</time>
      </trkpt>
      <trkpt lat="43.00609" lon="0.92793">
        <ele>686</ele>
        <time>2016-12-03T11:22:58.008Z</time>
      </trkpt>
      <trkpt lat="43.00603" lon="0.92793">
        <ele>688</ele>
        <time>2016-12-03T11:23:02.008Z</time>
      </trkpt>
      <trkpt lat="43.00595" lon="0.9279">
        <ele>690</ele>
        <time>2016-12-03T11:23:07.008Z</time>
      </trkpt>
      <trkpt lat="43.00589" lon="0.92785">
        <ele>690.34800194557</ele>
        <time>2016-12-03T11:23:11.008Z</time>
      </trkpt>
      <trkpt lat="43.00584" lon="0.92779">
        <ele>691</ele>
        <time>2016-12-03T11:23:14.008Z</time>
      </trkpt>
      <trkpt lat="43.00579" lon="0.92773">
        <ele>692</ele>
        <time>2016-12-03T11:23:17.008Z</time>
      </trkpt>
      <trkpt lat="43.00574" lon="0.92764">
        <ele>692.34800194557</ele>
        <time>2016-12-03T11:23:21.008Z</time>
      </trkpt>
      <trkpt lat="43.0057" lon="0.92755">
        <ele>693</ele>
        <time>2016-12-03T11:23:26.008Z</time>
      </trkpt>
      <trkpt lat="43.00564" lon="0.92748">
        <ele>693</ele>
        <time>2016-12-03T11:23:29.008Z</time>
      </trkpt>
      <trkpt lat="43.00558" lon="0.92742">
        <ele>694</ele>
        <time>2016-12-03T11:23:32.008Z</time>
      </trkpt>
      <trkpt lat="43.00551" lon="0.92738">
        <ele>694</ele>
        <time>2016-12-03T11:23:37.008Z</time>
      </trkpt>
      <trkpt lat="43.00544" lon="0.92743">
        <ele>697</ele>
        <time>2016-12-03T11:23:43.008Z</time>
      </trkpt>
      <trkpt lat="43.00536" lon="0.92756">
        <ele>699</ele>
        <time>2016-12-03T11:23:49.008Z</time>
      </trkpt>
      <trkpt lat="43.00531" lon="0.92765">
        <ele>699</ele>
        <time>2016-12-03T11:23:52.008Z</time>
      </trkpt>
      <trkpt lat="43.00525" lon="0.92772">
        <ele>699</ele>
        <time>2016-12-03T11:23:57.008Z</time>
      </trkpt>
      <trkpt lat="43.00518" lon="0.92779">
        <ele>699.34800194557</ele>
        <time>2016-12-03T11:24:01.008Z</time>
      </trkpt>
      <trkpt lat="43.00509" lon="0.92783">
        <ele>700</ele>
        <time>2016-12-03T11:24:06.008Z</time>
      </trkpt>
      <trkpt lat="43.005" lon="0.92778">
        <ele>701.3920077823</ele>
        <time>2016-12-03T11:24:11.008Z</time>
      </trkpt>
      <trkpt lat="43.00495" lon="0.92774">
        <ele>704</ele>
        <time>2016-12-03T11:24:14.008Z</time>
      </trkpt>
      <trkpt lat="43.00489" lon="0.92768">
        <ele>708</ele>
        <time>2016-12-03T11:24:18.008Z</time>
      </trkpt>
      <trkpt lat="43.00484" lon="0.92762">
        <ele>708</ele>
        <time>2016-12-03T11:24:21.008Z</time>
      </trkpt>
      <trkpt lat="43.00481" lon="0.92757">
        <ele>708</ele>
        <time>2016-12-03T11:24:23.008Z</time>
      </trkpt>
      <trkpt lat="43.00478" lon="0.92752">
        <ele>708</ele>
        <time>2016-12-03T11:24:25.008Z</time>
      </trkpt>
      <trkpt lat="43.00475" lon="0.92747">
        <ele>707</ele>
        <time>2016-12-03T11:24:27.008Z</time>
      </trkpt>
      <trkpt lat="43.00472" lon="0.92743">
        <ele>707</ele>
        <time>2016-12-03T11:24:29.008Z</time>
      </trkpt>
      <trkpt lat="43.0047" lon="0.92738">
        <ele>707</ele>
        <time>2016-12-03T11:24:31.008Z</time>
      </trkpt>
      <trkpt lat="43.00466" lon="0.92732">
        <ele>707</ele>
        <time>2016-12-03T11:24:33.008Z</time>
      </trkpt>
      <trkpt lat="43.00462" lon="0.92724">
        <ele>707</ele>
        <time>2016-12-03T11:24:35.008Z</time>
      </trkpt>
      <trkpt lat="43.0046" lon="0.9272">
        <ele>707</ele>
        <time>2016-12-03T11:24:36.008Z</time>
      </trkpt>
      <trkpt lat="43.00459" lon="0.92716">
        <ele>707</ele>
        <time>2016-12-03T11:24:37.008Z</time>
      </trkpt>
      <trkpt lat="43.00457" lon="0.92712">
        <ele>707</ele>
        <time>2016-12-03T11:24:38.008Z</time>
      </trkpt>
      <trkpt lat="43.00455" lon="0.92707">
        <ele>707</ele>
        <time>2016-12-03T11:24:39.008Z</time>
      </trkpt>
      <trkpt lat="43.00454" lon="0.92703">
        <ele>707</ele>
        <time>2016-12-03T11:24:40.008Z</time>
      </trkpt>
      <trkpt lat="43.00451" lon="0.92695">
        <ele>706</ele>
        <time>2016-12-03T11:24:42.008Z</time>
      </trkpt>
      <trkpt lat="43.00449" lon="0.92688">
        <ele>706</ele>
        <time>2016-12-03T11:24:44.008Z</time>
      </trkpt>
      <trkpt lat="43.00446" lon="0.9268">
        <ele>706</ele>
        <time>2016-12-03T11:24:46.008Z</time>
      </trkpt>
      <trkpt lat="43.00443" lon="0.92671">
        <ele>706</ele>
        <time>2016-12-03T11:24:48.008Z</time>
      </trkpt>
      <trkpt lat="43.0044" lon="0.92663">
        <ele>706</ele>
        <time>2016-12-03T11:24:50.008Z</time>
      </trkpt>
      <trkpt lat="43.00437" lon="0.92656">
        <ele>705</ele>
        <time>2016-12-03T11:24:52.008Z</time>
      </trkpt>
      <trkpt lat="43.00434" lon="0.92649">
        <ele>705</ele>
        <time>2016-12-03T11:24:54.008Z</time>
      </trkpt>
      <trkpt lat="43.00436" lon="0.92653">
        <ele>704.65199805443</ele>
        <time>2016-12-03T11:25:41.008Z</time>
      </trkpt>
      <trkpt lat="43.00432" lon="0.92654">
        <ele>704</ele>
        <time>2016-12-03T11:25:46.008Z</time>
      </trkpt>
      <trkpt lat="43.00429" lon="0.92654">
        <ele>703</ele>
        <time>2016-12-03T11:25:51.008Z</time>
      </trkpt>
      <trkpt lat="43.00428" lon="0.92656">
        <ele>702</ele>
        <time>2016-12-03T11:28:04.008Z</time>
      </trkpt>
      <trkpt lat="43.00425" lon="0.9265">
        <ele>702</ele>
        <time>2016-12-03T11:28:16.008Z</time>
      </trkpt>
      <trkpt lat="43.00422" lon="0.92648">
        <ele>702</ele>
        <time>2016-12-03T11:28:18.008Z</time>
      </trkpt>
      <trkpt lat="43.00416" lon="0.92648">
        <ele>702</ele>
        <time>2016-12-03T11:28:20.008Z</time>
      </trkpt>
      <trkpt lat="43.0041" lon="0.9265">
        <ele>701</ele>
        <time>2016-12-03T11:28:22.008Z</time>
      </trkpt>
      <trkpt lat="43.00407" lon="0.92651">
        <ele>701</ele>
        <time>2016-12-03T11:28:23.008Z</time>
      </trkpt>
      <trkpt lat="43.00404" lon="0.92651">
        <ele>701</ele>
        <time>2016-12-03T11:28:24.008Z</time>
      </trkpt>
      <trkpt lat="43.00401" lon="0.92651">
        <ele>701</ele>
        <time>2016-12-03T11:28:25.008Z</time>
      </trkpt>
      <trkpt lat="43.00398" lon="0.92651">
        <ele>701</ele>
        <time>2016-12-03T11:28:26.008Z</time>
      </trkpt>
      <trkpt lat="43.00394" lon="0.9265">
        <ele>701</ele>
        <time>2016-12-03T11:28:27.008Z</time>
      </trkpt>
      <trkpt lat="43.00391" lon="0.92649">
        <ele>701</ele>
        <time>2016-12-03T11:28:28.008Z</time>
      </trkpt>
      <trkpt lat="43.00385" lon="0.92646">
        <ele>701</ele>
        <time>2016-12-03T11:28:30.008Z</time>
      </trkpt>
      <trkpt lat="43.00382" lon="0.92644">
        <ele>701</ele>
        <time>2016-12-03T11:28:31.008Z</time>
      </trkpt>
      <trkpt lat="43.00378" lon="0.92642">
        <ele>701</ele>
        <time>2016-12-03T11:28:32.008Z</time>
      </trkpt>
      <trkpt lat="43.00374" lon="0.9264">
        <ele>701</ele>
        <time>2016-12-03T11:28:33.008Z</time>
      </trkpt>
      <trkpt lat="43.00369" lon="0.92638">
        <ele>701</ele>
        <time>2016-12-03T11:28:34.008Z</time>
      </trkpt>
      <trkpt lat="43.00364" lon="0.92635">
        <ele>701</ele>
        <time>2016-12-03T11:28:35.008Z</time>
      </trkpt>
      <trkpt lat="43.00358" lon="0.92633">
        <ele>701</ele>
        <time>2016-12-03T11:28:36.008Z</time>
      </trkpt>
      <trkpt lat="43.00352" lon="0.9263">
        <ele>701</ele>
        <time>2016-12-03T11:28:37.008Z</time>
      </trkpt>
      <trkpt lat="43.00346" lon="0.92627">
        <ele>701</ele>
        <time>2016-12-03T11:28:38.008Z</time>
      </trkpt>
      <trkpt lat="43.00339" lon="0.92624">
        <ele>701</ele>
        <time>2016-12-03T11:28:39.008Z</time>
      </trkpt>
      <trkpt lat="43.00332" lon="0.92622">
        <ele>701</ele>
        <time>2016-12-03T11:28:40.008Z</time>
      </trkpt>
      <trkpt lat="43.00317" lon="0.92622">
        <ele>697</ele>
        <time>2016-12-03T11:28:42.008Z</time>
      </trkpt>
      <trkpt lat="43.00303" lon="0.92628">
        <ele>697</ele>
        <time>2016-12-03T11:28:44.008Z</time>
      </trkpt>
      <trkpt lat="43.00289" lon="0.92635">
        <ele>696.31090157909</ele>
        <time>2016-12-03T11:28:46.008Z</time>
      </trkpt>
      <trkpt lat="43.00276" lon="0.92642">
        <ele>695</ele>
        <time>2016-12-03T11:28:48.008Z</time>
      </trkpt>
      <trkpt lat="43.00264" lon="0.92648">
        <ele>695</ele>
        <time>2016-12-03T11:28:50.008Z</time>
      </trkpt>
      <trkpt lat="43.00253" lon="0.92651">
        <ele>695</ele>
        <time>2016-12-03T11:28:52.008Z</time>
      </trkpt>
      <trkpt lat="43.00242" lon="0.92654">
        <ele>695</ele>
        <time>2016-12-03T11:28:54.008Z</time>
      </trkpt>
      <trkpt lat="43.00231" lon="0.92655">
        <ele>694.65200194562</ele>
        <time>2016-12-03T11:28:56.008Z</time>
      </trkpt>
      <trkpt lat="43.00219" lon="0.92657">
        <ele>694</ele>
        <time>2016-12-03T11:28:58.008Z</time>
      </trkpt>
      <trkpt lat="43.00207" lon="0.92661">
        <ele>694</ele>
        <time>2016-12-03T11:29:00.008Z</time>
      </trkpt>
      <trkpt lat="43.00195" lon="0.92668">
        <ele>692</ele>
        <time>2016-12-03T11:29:02.008Z</time>
      </trkpt>
      <trkpt lat="43.00186" lon="0.92675">
        <ele>692</ele>
        <time>2016-12-03T11:29:04.008Z</time>
      </trkpt>
      <trkpt lat="43.00177" lon="0.92682">
        <ele>692.69599610875</ele>
        <time>2016-12-03T11:29:06.008Z</time>
      </trkpt>
      <trkpt lat="43.00169" lon="0.92687">
        <ele>694</ele>
        <time>2016-12-03T11:29:08.008Z</time>
      </trkpt>
      <trkpt lat="43.00157" lon="0.92695">
        <ele>694.34800194557</ele>
        <time>2016-12-03T11:29:11.008Z</time>
      </trkpt>
      <trkpt lat="43.00147" lon="0.92703">
        <ele>694</ele>
        <time>2016-12-03T11:29:14.008Z</time>
      </trkpt>
      <trkpt lat="43.00139" lon="0.9271">
        <ele>694</ele>
        <time>2016-12-03T11:29:16.008Z</time>
      </trkpt>
      <trkpt lat="43.00131" lon="0.92717">
        <ele>694</ele>
        <time>2016-12-03T11:29:18.008Z</time>
      </trkpt>
      <trkpt lat="43.00122" lon="0.92724">
        <ele>694</ele>
        <time>2016-12-03T11:29:20.008Z</time>
      </trkpt>
      <trkpt lat="43.00113" lon="0.92731">
        <ele>694</ele>
        <time>2016-12-03T11:29:22.008Z</time>
      </trkpt>
      <trkpt lat="43.00105" lon="0.92739">
        <ele>693</ele>
        <time>2016-12-03T11:29:24.008Z</time>
      </trkpt>
      <trkpt lat="43.00098" lon="0.92749">
        <ele>693</ele>
        <time>2016-12-03T11:29:26.008Z</time>
      </trkpt>
      <trkpt lat="43.00091" lon="0.92759">
        <ele>693</ele>
        <time>2016-12-03T11:29:28.008Z</time>
      </trkpt>
      <trkpt lat="43.00085" lon="0.9277">
        <ele>693</ele>
        <time>2016-12-03T11:29:30.008Z</time>
      </trkpt>
      <trkpt lat="43.0008" lon="0.92781">
        <ele>693</ele>
        <time>2016-12-03T11:29:32.008Z</time>
      </trkpt>
      <trkpt lat="43.00075" lon="0.92793">
        <ele>693</ele>
        <time>2016-12-03T11:29:34.008Z</time>
      </trkpt>
      <trkpt lat="43.00069" lon="0.92807">
        <ele>692.65200194562</ele>
        <time>2016-12-03T11:29:36.008Z</time>
      </trkpt>
      <trkpt lat="43.00063" lon="0.9282">
        <ele>692</ele>
        <time>2016-12-03T11:29:38.008Z</time>
      </trkpt>
      <trkpt lat="43.00056" lon="0.92833">
        <ele>692</ele>
        <time>2016-12-03T11:29:40.008Z</time>
      </trkpt>
      <trkpt lat="43.0005" lon="0.92845">
        <ele>692</ele>
        <time>2016-12-03T11:29:42.008Z</time>
      </trkpt>
      <trkpt lat="43.00045" lon="0.92857">
        <ele>692</ele>
        <time>2016-12-03T11:29:44.008Z</time>
      </trkpt>
      <trkpt lat="43.00041" lon="0.92866">
        <ele>692</ele>
        <time>2016-12-03T11:29:46.008Z</time>
      </trkpt>
      <trkpt lat="43.00037" lon="0.92875">
        <ele>692</ele>
        <time>2016-12-03T11:29:49.008Z</time>
      </trkpt>
      <trkpt lat="43.00033" lon="0.92883">
        <ele>690</ele>
        <time>2016-12-03T11:30:02.008Z</time>
      </trkpt>
      <trkpt lat="43.00028" lon="0.92892">
        <ele>690</ele>
        <time>2016-12-03T11:30:05.008Z</time>
      </trkpt>
      <trkpt lat="43.00024" lon="0.92901">
        <ele>690</ele>
        <time>2016-12-03T11:30:07.008Z</time>
      </trkpt>
      <trkpt lat="43.00019" lon="0.92911">
        <ele>690</ele>
        <time>2016-12-03T11:30:09.008Z</time>
      </trkpt>
      <trkpt lat="43.00013" lon="0.92922">
        <ele>689.30399610885</ele>
        <time>2016-12-03T11:30:11.008Z</time>
      </trkpt>
      <trkpt lat="43.00007" lon="0.92935">
        <ele>688</ele>
        <time>2016-12-03T11:30:13.008Z</time>
      </trkpt>
      <trkpt lat="42.99999" lon="0.9295">
        <ele>688</ele>
        <time>2016-12-03T11:30:15.008Z</time>
      </trkpt>
      <trkpt lat="42.9999" lon="0.92965">
        <ele>688</ele>
        <time>2016-12-03T11:30:17.008Z</time>
      </trkpt>
      <trkpt lat="42.99985" lon="0.92974">
        <ele>688</ele>
        <time>2016-12-03T11:30:18.008Z</time>
      </trkpt>
      <trkpt lat="42.9998" lon="0.92983">
        <ele>688</ele>
        <time>2016-12-03T11:30:19.008Z</time>
      </trkpt>
      <trkpt lat="42.99975" lon="0.92991">
        <ele>688</ele>
        <time>2016-12-03T11:30:20.008Z</time>
      </trkpt>
      <trkpt lat="42.99964" lon="0.93007">
        <ele>683</ele>
        <time>2016-12-03T11:30:22.008Z</time>
      </trkpt>
      <trkpt lat="42.99951" lon="0.93023">
        <ele>683</ele>
        <time>2016-12-03T11:30:24.008Z</time>
      </trkpt>
      <trkpt lat="42.99944" lon="0.93031">
        <ele>683</ele>
        <time>2016-12-03T11:30:25.008Z</time>
      </trkpt>
      <trkpt lat="42.99938" lon="0.9304">
        <ele>680.56401361937</ele>
        <time>2016-12-03T11:30:26.008Z</time>
      </trkpt>
      <trkpt lat="42.99931" lon="0.93049">
        <ele>676</ele>
        <time>2016-12-03T11:30:27.008Z</time>
      </trkpt>
      <trkpt lat="42.99925" lon="0.93058">
        <ele>676</ele>
        <time>2016-12-03T11:30:28.008Z</time>
      </trkpt>
      <trkpt lat="42.99918" lon="0.93068">
        <ele>676</ele>
        <time>2016-12-03T11:30:29.008Z</time>
      </trkpt>
      <trkpt lat="42.99911" lon="0.93079">
        <ele>676</ele>
        <time>2016-12-03T11:30:30.008Z</time>
      </trkpt>
      <trkpt lat="42.99904" lon="0.9309">
        <ele>674.25999027212</ele>
        <time>2016-12-03T11:30:31.008Z</time>
      </trkpt>
      <trkpt lat="42.99897" lon="0.93102">
        <ele>670.30400389125</ele>
        <time>2016-12-03T11:30:32.008Z</time>
      </trkpt>
      <trkpt lat="42.9989" lon="0.93114">
        <ele>668.65199805443</ele>
        <time>2016-12-03T11:30:33.008Z</time>
      </trkpt>
      <trkpt lat="42.99882" lon="0.93126">
        <ele>667.65545078955</ele>
        <time>2016-12-03T11:30:34.008Z</time>
      </trkpt>
      <trkpt lat="42.99875" lon="0.93137">
        <ele>667</ele>
        <time>2016-12-03T11:30:35.008Z</time>
      </trkpt>
      <trkpt lat="42.99868" lon="0.93149">
        <ele>667</ele>
        <time>2016-12-03T11:30:36.008Z</time>
      </trkpt>
      <trkpt lat="42.99862" lon="0.9316">
        <ele>666.65199805443</ele>
        <time>2016-12-03T11:30:37.008Z</time>
      </trkpt>
      <trkpt lat="42.99855" lon="0.93171">
        <ele>665.65200194562</ele>
        <time>2016-12-03T11:30:38.008Z</time>
      </trkpt>
      <trkpt lat="42.99848" lon="0.93181">
        <ele>665</ele>
        <time>2016-12-03T11:30:39.008Z</time>
      </trkpt>
      <trkpt lat="42.99841" lon="0.93191">
        <ele>665</ele>
        <time>2016-12-03T11:30:40.008Z</time>
      </trkpt>
      <trkpt lat="42.99835" lon="0.93201">
        <ele>664.65199805443</ele>
        <time>2016-12-03T11:30:41.008Z</time>
      </trkpt>
      <trkpt lat="42.99829" lon="0.9321">
        <ele>664</ele>
        <time>2016-12-03T11:30:42.008Z</time>
      </trkpt>
      <trkpt lat="42.99823" lon="0.93218">
        <ele>664</ele>
        <time>2016-12-03T11:30:43.008Z</time>
      </trkpt>
      <trkpt lat="42.99818" lon="0.93226">
        <ele>664</ele>
        <time>2016-12-03T11:30:44.008Z</time>
      </trkpt>
      <trkpt lat="42.99812" lon="0.93233">
        <ele>664</ele>
        <time>2016-12-03T11:30:45.008Z</time>
      </trkpt>
      <trkpt lat="42.99807" lon="0.93239">
        <ele>664</ele>
        <time>2016-12-03T11:30:46.008Z</time>
      </trkpt>
      <trkpt lat="42.99802" lon="0.93244">
        <ele>664</ele>
        <time>2016-12-03T11:30:47.008Z</time>
      </trkpt>
      <trkpt lat="42.99797" lon="0.93249">
        <ele>664</ele>
        <time>2016-12-03T11:30:48.008Z</time>
      </trkpt>
      <trkpt lat="42.99792" lon="0.93254">
        <ele>664</ele>
        <time>2016-12-03T11:30:49.008Z</time>
      </trkpt>
      <trkpt lat="42.99788" lon="0.93258">
        <ele>664.34799805438</ele>
        <time>2016-12-03T11:30:50.008Z</time>
      </trkpt>
      <trkpt lat="42.99783" lon="0.93266">
        <ele>665</ele>
        <time>2016-12-03T11:30:52.008Z</time>
      </trkpt>
      <trkpt lat="42.99778" lon="0.93271">
        <ele>665</ele>
        <time>2016-12-03T11:30:54.008Z</time>
      </trkpt>
      <trkpt lat="42.99773" lon="0.93276">
        <ele>665</ele>
        <time>2016-12-03T11:30:56.008Z</time>
      </trkpt>
      <trkpt lat="42.9977" lon="0.9328">
        <ele>665</ele>
        <time>2016-12-03T11:30:59.008Z</time>
      </trkpt>
      <trkpt lat="42.99765" lon="0.93286">
        <ele>668</ele>
        <time>2016-12-03T11:31:03.008Z</time>
      </trkpt>
      <trkpt lat="42.99762" lon="0.93294">
        <ele>670</ele>
        <time>2016-12-03T11:31:07.008Z</time>
      </trkpt>
      <trkpt lat="42.99761" lon="0.93303">
        <ele>670.34800194557</ele>
        <time>2016-12-03T11:31:11.008Z</time>
      </trkpt>
      <trkpt lat="42.99758" lon="0.9331">
        <ele>671</ele>
        <time>2016-12-03T11:31:15.008Z</time>
      </trkpt>
      <trkpt lat="42.99753" lon="0.93314">
        <ele>672</ele>
        <time>2016-12-03T11:31:19.008Z</time>
      </trkpt>
      <trkpt lat="42.99747" lon="0.93317">
        <ele>674</ele>
        <time>2016-12-03T11:31:23.008Z</time>
      </trkpt>
      <trkpt lat="42.99743" lon="0.93323">
        <ele>675</ele>
        <time>2016-12-03T11:31:27.008Z</time>
      </trkpt>
      <trkpt lat="42.99738" lon="0.9333">
        <ele>677</ele>
        <time>2016-12-03T11:31:32.008Z</time>
      </trkpt>
      <trkpt lat="42.99732" lon="0.93335">
        <ele>677.34799805438</ele>
        <time>2016-12-03T11:31:36.008Z</time>
      </trkpt>
      <trkpt lat="42.99727" lon="0.93343">
        <ele>680</ele>
        <time>2016-12-03T11:31:42.008Z</time>
      </trkpt>
      <trkpt lat="42.9972" lon="0.93354">
        <ele>681</ele>
        <time>2016-12-03T11:31:49.008Z</time>
      </trkpt>
      <trkpt lat="42.99714" lon="0.93362">
        <ele>682</ele>
        <time>2016-12-03T11:31:53.008Z</time>
      </trkpt>
      <trkpt lat="42.99708" lon="0.93371">
        <ele>683</ele>
        <time>2016-12-03T11:31:57.008Z</time>
      </trkpt>
      <trkpt lat="42.99702" lon="0.93377">
        <ele>683</ele>
        <time>2016-12-03T11:32:01.008Z</time>
      </trkpt>
      <trkpt lat="42.99696" lon="0.93382">
        <ele>683</ele>
        <time>2016-12-03T11:32:04.008Z</time>
      </trkpt>
      <trkpt lat="42.99689" lon="0.93386">
        <ele>683</ele>
        <time>2016-12-03T11:32:07.008Z</time>
      </trkpt>
      <trkpt lat="42.9968" lon="0.93394">
        <ele>683</ele>
        <time>2016-12-03T11:32:10.008Z</time>
      </trkpt>
      <trkpt lat="42.99673" lon="0.93399">
        <ele>683</ele>
        <time>2016-12-03T11:32:13.008Z</time>
      </trkpt>
      <trkpt lat="42.99664" lon="0.93405">
        <ele>683</ele>
        <time>2016-12-03T11:32:16.008Z</time>
      </trkpt>
      <trkpt lat="42.99655" lon="0.93413">
        <ele>683.69600389115</ele>
        <time>2016-12-03T11:32:21.008Z</time>
      </trkpt>
      <trkpt lat="42.99646" lon="0.93419">
        <ele>685</ele>
        <time>2016-12-03T11:32:25.008Z</time>
      </trkpt>
      <trkpt lat="42.99637" lon="0.93425">
        <ele>685</ele>
        <time>2016-12-03T11:32:29.008Z</time>
      </trkpt>
      <trkpt lat="42.9963" lon="0.93437">
        <ele>686</ele>
        <time>2016-12-03T11:32:32.008Z</time>
      </trkpt>
      <trkpt lat="42.99625" lon="0.93447">
        <ele>686</ele>
        <time>2016-12-03T11:32:35.008Z</time>
      </trkpt>
      <trkpt lat="42.99621" lon="0.93458">
        <ele>686</ele>
        <time>2016-12-03T11:32:39.008Z</time>
      </trkpt>
      <trkpt lat="42.99616" lon="0.93468">
        <ele>687</ele>
        <time>2016-12-03T11:32:44.008Z</time>
      </trkpt>
      <trkpt lat="42.99612" lon="0.93478">
        <ele>687</ele>
        <time>2016-12-03T11:32:48.008Z</time>
      </trkpt>
      <trkpt lat="42.99609" lon="0.93491">
        <ele>689</ele>
        <time>2016-12-03T11:32:53.008Z</time>
      </trkpt>
      <trkpt lat="42.99606" lon="0.93503">
        <ele>689</ele>
        <time>2016-12-03T11:32:57.008Z</time>
      </trkpt>
      <trkpt lat="42.99603" lon="0.93516">
        <ele>689.34800194557</ele>
        <time>2016-12-03T11:33:01.008Z</time>
      </trkpt>
      <trkpt lat="42.99599" lon="0.93525">
        <ele>690</ele>
        <time>2016-12-03T11:33:04.008Z</time>
      </trkpt>
      <trkpt lat="42.99592" lon="0.93535">
        <ele>690</ele>
        <time>2016-12-03T11:33:09.008Z</time>
      </trkpt>
      <trkpt lat="42.99582" lon="0.93542">
        <ele>693</ele>
        <time>2016-12-03T11:33:15.008Z</time>
      </trkpt>
      <trkpt lat="42.99574" lon="0.93549">
        <ele>695</ele>
        <time>2016-12-03T11:33:20.008Z</time>
      </trkpt>
      <trkpt lat="42.99567" lon="0.93557">
        <ele>696.34799805438</ele>
        <time>2016-12-03T11:33:26.008Z</time>
      </trkpt>
      <trkpt lat="42.99559" lon="0.93564">
        <ele>699</ele>
        <time>2016-12-03T11:33:33.008Z</time>
      </trkpt>
      <trkpt lat="42.99549" lon="0.9357">
        <ele>702</ele>
        <time>2016-12-03T11:33:38.008Z</time>
      </trkpt>
      <trkpt lat="42.99541" lon="0.93578">
        <ele>703</ele>
        <time>2016-12-03T11:33:43.008Z</time>
      </trkpt>
      <trkpt lat="42.99532" lon="0.93584">
        <ele>704</ele>
        <time>2016-12-03T11:33:49.008Z</time>
      </trkpt>
      <trkpt lat="42.99523" lon="0.93589">
        <ele>705</ele>
        <time>2016-12-03T11:33:55.008Z</time>
      </trkpt>
      <trkpt lat="42.99512" lon="0.93595">
        <ele>709</ele>
        <time>2016-12-03T11:34:02.008Z</time>
      </trkpt>
      <trkpt lat="42.99504" lon="0.93602">
        <ele>709</ele>
        <time>2016-12-03T11:34:07.008Z</time>
      </trkpt>
      <trkpt lat="42.99495" lon="0.93611">
        <ele>709</ele>
        <time>2016-12-03T11:34:12.008Z</time>
      </trkpt>
      <trkpt lat="42.99488" lon="0.9362">
        <ele>709</ele>
        <time>2016-12-03T11:34:17.008Z</time>
      </trkpt>
      <trkpt lat="42.9948" lon="0.93628">
        <ele>712</ele>
        <time>2016-12-03T11:34:24.008Z</time>
      </trkpt>
      <trkpt lat="42.99472" lon="0.93637">
        <ele>713.69600389115</ele>
        <time>2016-12-03T11:34:31.008Z</time>
      </trkpt>
      <trkpt lat="42.99462" lon="0.93643">
        <ele>717</ele>
        <time>2016-12-03T11:34:37.008Z</time>
      </trkpt>
      <trkpt lat="42.99455" lon="0.93653">
        <ele>718</ele>
        <time>2016-12-03T11:34:43.008Z</time>
      </trkpt>
      <trkpt lat="42.99447" lon="0.93665">
        <ele>719</ele>
        <time>2016-12-03T11:34:49.008Z</time>
      </trkpt>
      <trkpt lat="42.99438" lon="0.93674">
        <ele>720</ele>
        <time>2016-12-03T11:34:56.008Z</time>
      </trkpt>
      <trkpt lat="42.99432" lon="0.93682">
        <ele>720</ele>
        <time>2016-12-03T11:34:59.008Z</time>
      </trkpt>
      <trkpt lat="42.99425" lon="0.93691">
        <ele>721</ele>
        <time>2016-12-03T11:35:02.008Z</time>
      </trkpt>
      <trkpt lat="42.99419" lon="0.93698">
        <ele>721</ele>
        <time>2016-12-03T11:35:05.008Z</time>
      </trkpt>
      <trkpt lat="42.99413" lon="0.93706">
        <ele>721</ele>
        <time>2016-12-03T11:35:08.008Z</time>
      </trkpt>
      <trkpt lat="42.99412" lon="0.93719">
        <ele>721</ele>
        <time>2016-12-03T11:35:14.008Z</time>
      </trkpt>
      <trkpt lat="42.99412" lon="0.9373">
        <ele>721</ele>
        <time>2016-12-03T11:35:18.008Z</time>
      </trkpt>
      <trkpt lat="42.99411" lon="0.93741">
        <ele>722</ele>
        <time>2016-12-03T11:35:22.008Z</time>
      </trkpt>
      <trkpt lat="42.99408" lon="0.93751">
        <ele>722</ele>
        <time>2016-12-03T11:35:25.008Z</time>
      </trkpt>
      <trkpt lat="42.99404" lon="0.93762">
        <ele>722</ele>
        <time>2016-12-03T11:35:29.008Z</time>
      </trkpt>
      <trkpt lat="42.99398" lon="0.93774">
        <ele>723</ele>
        <time>2016-12-03T11:35:34.008Z</time>
      </trkpt>
      <trkpt lat="42.99393" lon="0.93784">
        <ele>723</ele>
        <time>2016-12-03T11:35:38.008Z</time>
      </trkpt>
      <trkpt lat="42.99389" lon="0.93797">
        <ele>725</ele>
        <time>2016-12-03T11:35:44.008Z</time>
      </trkpt>
      <trkpt lat="42.99392" lon="0.93809">
        <ele>725</ele>
        <time>2016-12-03T11:35:50.008Z</time>
      </trkpt>
      <trkpt lat="42.99394" lon="0.93821">
        <ele>727</ele>
        <time>2016-12-03T11:35:54.008Z</time>
      </trkpt>
      <trkpt lat="42.99392" lon="0.93835">
        <ele>727</ele>
        <time>2016-12-03T11:35:58.008Z</time>
      </trkpt>
      <trkpt lat="42.99389" lon="0.93847">
        <ele>728</ele>
        <time>2016-12-03T11:36:03.008Z</time>
      </trkpt>
      <trkpt lat="42.99386" lon="0.93858">
        <ele>728</ele>
        <time>2016-12-03T11:36:07.008Z</time>
      </trkpt>
      <trkpt lat="42.99384" lon="0.9387">
        <ele>729</ele>
        <time>2016-12-03T11:36:18.008Z</time>
      </trkpt>
      <trkpt lat="42.99379" lon="0.93883">
        <ele>729</ele>
        <time>2016-12-03T11:36:24.008Z</time>
      </trkpt>
      <trkpt lat="42.99373" lon="0.93893">
        <ele>729</ele>
        <time>2016-12-03T11:36:27.008Z</time>
      </trkpt>
      <trkpt lat="42.99366" lon="0.93902">
        <ele>729</ele>
        <time>2016-12-03T11:36:30.008Z</time>
      </trkpt>
      <trkpt lat="42.99358" lon="0.93911">
        <ele>728</ele>
        <time>2016-12-03T11:36:33.008Z</time>
      </trkpt>
      <trkpt lat="42.9935" lon="0.93922">
        <ele>728</ele>
        <time>2016-12-03T11:36:36.008Z</time>
      </trkpt>
      <trkpt lat="42.99341" lon="0.93932">
        <ele>728</ele>
        <time>2016-12-03T11:36:39.008Z</time>
      </trkpt>
      <trkpt lat="42.99334" lon="0.93941">
        <ele>725</ele>
        <time>2016-12-03T11:36:43.008Z</time>
      </trkpt>
      <trkpt lat="42.99327" lon="0.93954">
        <ele>723</ele>
        <time>2016-12-03T11:36:47.008Z</time>
      </trkpt>
      <trkpt lat="42.99324" lon="0.93972">
        <ele>722.30399610885</ele>
        <time>2016-12-03T11:36:51.008Z</time>
      </trkpt>
      <trkpt lat="42.99321" lon="0.93985">
        <ele>721</ele>
        <time>2016-12-03T11:36:54.008Z</time>
      </trkpt>
      <trkpt lat="42.99314" lon="0.93998">
        <ele>719</ele>
        <time>2016-12-03T11:36:59.008Z</time>
      </trkpt>
      <trkpt lat="42.9931" lon="0.94005">
        <ele>717</ele>
        <time>2016-12-03T11:37:05.008Z</time>
      </trkpt>
      <trkpt lat="42.99305" lon="0.94013">
        <ele>718.34800194557</ele>
        <time>2016-12-03T11:37:11.008Z</time>
      </trkpt>
      <trkpt lat="42.99299" lon="0.94022">
        <ele>719</ele>
        <time>2016-12-03T11:37:16.008Z</time>
      </trkpt>
      <trkpt lat="42.99296" lon="0.94032">
        <ele>719</ele>
        <time>2016-12-03T11:37:20.008Z</time>
      </trkpt>
      <trkpt lat="42.99294" lon="0.94039">
        <ele>719</ele>
        <time>2016-12-03T11:37:28.008Z</time>
      </trkpt>
      <trkpt lat="42.9929" lon="0.94049">
        <ele>719</ele>
        <time>2016-12-03T11:37:36.008Z</time>
      </trkpt>
      <trkpt lat="42.99285" lon="0.9406">
        <ele>719</ele>
        <time>2016-12-03T11:37:42.008Z</time>
      </trkpt>
      <trkpt lat="42.99282" lon="0.94069">
        <ele>719</ele>
        <time>2016-12-03T11:37:49.008Z</time>
      </trkpt>
      <trkpt lat="42.99279" lon="0.9408">
        <ele>721</ele>
        <time>2016-12-03T11:38:02.008Z</time>
      </trkpt>
      <trkpt lat="42.99274" lon="0.94088">
        <ele>721</ele>
        <time>2016-12-03T11:38:10.008Z</time>
      </trkpt>
      <trkpt lat="42.99269" lon="0.94094">
        <ele>721</ele>
        <time>2016-12-03T11:38:22.008Z</time>
      </trkpt>
      <trkpt lat="42.99262" lon="0.941">
        <ele>721</ele>
        <time>2016-12-03T11:38:27.008Z</time>
      </trkpt>
      <trkpt lat="42.99254" lon="0.94106">
        <ele>721</ele>
        <time>2016-12-03T11:38:30.008Z</time>
      </trkpt>
      <trkpt lat="42.99248" lon="0.94111">
        <ele>720</ele>
        <time>2016-12-03T11:38:32.008Z</time>
      </trkpt>
      <trkpt lat="42.99242" lon="0.94115">
        <ele>720</ele>
        <time>2016-12-03T11:38:34.008Z</time>
      </trkpt>
      <trkpt lat="42.99236" lon="0.94121">
        <ele>720</ele>
        <time>2016-12-03T11:38:36.008Z</time>
      </trkpt>
      <trkpt lat="42.9923" lon="0.94127">
        <ele>720</ele>
        <time>2016-12-03T11:38:38.008Z</time>
      </trkpt>
      <trkpt lat="42.99224" lon="0.94134">
        <ele>719.65199805443</ele>
        <time>2016-12-03T11:38:41.008Z</time>
      </trkpt>
      <trkpt lat="42.99216" lon="0.94139">
        <ele>719</ele>
        <time>2016-12-03T11:38:48.008Z</time>
      </trkpt>
      <trkpt lat="42.99212" lon="0.94147">
        <ele>718</ele>
        <time>2016-12-03T11:38:57.008Z</time>
      </trkpt>
      <trkpt lat="42.99207" lon="0.94154">
        <ele>718</ele>
        <time>2016-12-03T11:39:01.008Z</time>
      </trkpt>
      <trkpt lat="42.99203" lon="0.9416">
        <ele>718</ele>
        <time>2016-12-03T11:39:04.008Z</time>
      </trkpt>
      <trkpt lat="42.99199" lon="0.94166">
        <ele>718</ele>
        <time>2016-12-03T11:39:07.008Z</time>
      </trkpt>
      <trkpt lat="42.99196" lon="0.94172">
        <ele>718</ele>
        <time>2016-12-03T11:39:10.008Z</time>
      </trkpt>
      <trkpt lat="42.99193" lon="0.9418">
        <ele>719</ele>
        <time>2016-12-03T11:39:13.008Z</time>
      </trkpt>
      <trkpt lat="42.9919" lon="0.9419">
        <ele>719</ele>
        <time>2016-12-03T11:39:17.008Z</time>
      </trkpt>
      <trkpt lat="42.99183" lon="0.94202">
        <ele>719</ele>
        <time>2016-12-03T11:39:22.008Z</time>
      </trkpt>
      <trkpt lat="42.99177" lon="0.94213">
        <ele>719</ele>
        <time>2016-12-03T11:39:28.008Z</time>
      </trkpt>
      <trkpt lat="42.99171" lon="0.94225">
        <ele>719</ele>
        <time>2016-12-03T11:39:32.008Z</time>
      </trkpt>
      <trkpt lat="42.99166" lon="0.94238">
        <ele>719</ele>
        <time>2016-12-03T11:39:36.008Z</time>
      </trkpt>
      <trkpt lat="42.9916" lon="0.94249">
        <ele>720</ele>
        <time>2016-12-03T11:39:42.008Z</time>
      </trkpt>
      <trkpt lat="42.99153" lon="0.94259">
        <ele>720</ele>
        <time>2016-12-03T11:39:46.008Z</time>
      </trkpt>
      <trkpt lat="42.99148" lon="0.94269">
        <ele>720</ele>
        <time>2016-12-03T11:39:49.008Z</time>
      </trkpt>
      <trkpt lat="42.99144" lon="0.94278">
        <ele>721</ele>
        <time>2016-12-03T11:39:53.008Z</time>
      </trkpt>
      <trkpt lat="42.99139" lon="0.9429">
        <ele>721</ele>
        <time>2016-12-03T11:39:57.008Z</time>
      </trkpt>
      <trkpt lat="42.99134" lon="0.943">
        <ele>721.69600389115</ele>
        <time>2016-12-03T11:40:01.008Z</time>
      </trkpt>
      <trkpt lat="42.9913" lon="0.94309">
        <ele>723</ele>
        <time>2016-12-03T11:40:05.008Z</time>
      </trkpt>
      <trkpt lat="42.99125" lon="0.9432">
        <ele>723</ele>
        <time>2016-12-03T11:40:09.008Z</time>
      </trkpt>
      <trkpt lat="42.99121" lon="0.9433">
        <ele>725</ele>
        <time>2016-12-03T11:40:13.008Z</time>
      </trkpt>
      <trkpt lat="42.99117" lon="0.94339">
        <ele>725</ele>
        <time>2016-12-03T11:40:16.008Z</time>
      </trkpt>
      <trkpt lat="42.99113" lon="0.94349">
        <ele>725</ele>
        <time>2016-12-03T11:40:20.008Z</time>
      </trkpt>
      <trkpt lat="42.99111" lon="0.94358">
        <ele>726</ele>
        <time>2016-12-03T11:40:24.008Z</time>
      </trkpt>
      <trkpt lat="42.99107" lon="0.94369">
        <ele>726</ele>
        <time>2016-12-03T11:40:30.008Z</time>
      </trkpt>
      <trkpt lat="42.99104" lon="0.94381">
        <ele>727</ele>
        <time>2016-12-03T11:40:37.008Z</time>
      </trkpt>
      <trkpt lat="42.99102" lon="0.94392">
        <ele>730</ele>
        <time>2016-12-03T11:40:42.008Z</time>
      </trkpt>
      <trkpt lat="42.99101" lon="0.94403">
        <ele>733</ele>
        <time>2016-12-03T11:40:47.008Z</time>
      </trkpt>
      <trkpt lat="42.991" lon="0.94414">
        <ele>735</ele>
        <time>2016-12-03T11:40:53.008Z</time>
      </trkpt>
      <trkpt lat="42.99099" lon="0.94425">
        <ele>736</ele>
        <time>2016-12-03T11:40:58.008Z</time>
      </trkpt>
      <trkpt lat="42.991" lon="0.94438">
        <ele>736</ele>
        <time>2016-12-03T11:41:04.008Z</time>
      </trkpt>
      <trkpt lat="42.99097" lon="0.94451">
        <ele>736</ele>
        <time>2016-12-03T11:41:10.008Z</time>
      </trkpt>
      <trkpt lat="42.99091" lon="0.94463">
        <ele>738</ele>
        <time>2016-12-03T11:41:16.008Z</time>
      </trkpt>
      <trkpt lat="42.99084" lon="0.94472">
        <ele>738</ele>
        <time>2016-12-03T11:41:20.008Z</time>
      </trkpt>
      <trkpt lat="42.99076" lon="0.94481">
        <ele>740</ele>
        <time>2016-12-03T11:41:25.008Z</time>
      </trkpt>
      <trkpt lat="42.99068" lon="0.94486">
        <ele>740</ele>
        <time>2016-12-03T11:41:28.008Z</time>
      </trkpt>
      <trkpt lat="42.99059" lon="0.9449">
        <ele>740</ele>
        <time>2016-12-03T11:41:31.008Z</time>
      </trkpt>
      <trkpt lat="42.99051" lon="0.94495">
        <ele>740</ele>
        <time>2016-12-03T11:41:35.008Z</time>
      </trkpt>
      <trkpt lat="42.99043" lon="0.94499">
        <ele>740</ele>
        <time>2016-12-03T11:41:39.008Z</time>
      </trkpt>
      <trkpt lat="42.99033" lon="0.94505">
        <ele>741</ele>
        <time>2016-12-03T11:41:43.008Z</time>
      </trkpt>
      <trkpt lat="42.99025" lon="0.94509">
        <ele>741</ele>
        <time>2016-12-03T11:41:46.008Z</time>
      </trkpt>
      <trkpt lat="42.99017" lon="0.94514">
        <ele>741</ele>
        <time>2016-12-03T11:41:49.008Z</time>
      </trkpt>
      <trkpt lat="42.99006" lon="0.9452">
        <ele>741</ele>
        <time>2016-12-03T11:41:53.008Z</time>
      </trkpt>
      <trkpt lat="42.98997" lon="0.94524">
        <ele>741</ele>
        <time>2016-12-03T11:41:57.008Z</time>
      </trkpt>
      <trkpt lat="42.98988" lon="0.94522">
        <ele>741</ele>
        <time>2016-12-03T11:42:04.008Z</time>
      </trkpt>
      <trkpt lat="42.98978" lon="0.94526">
        <ele>741</ele>
        <time>2016-12-03T11:42:09.008Z</time>
      </trkpt>
      <trkpt lat="42.98969" lon="0.9453">
        <ele>742</ele>
        <time>2016-12-03T11:42:13.008Z</time>
      </trkpt>
      <trkpt lat="42.98961" lon="0.9453">
        <ele>742</ele>
        <time>2016-12-03T11:42:17.008Z</time>
      </trkpt>
      <trkpt lat="42.98951" lon="0.94526">
        <ele>743</ele>
        <time>2016-12-03T11:42:22.008Z</time>
      </trkpt>
      <trkpt lat="42.98942" lon="0.94527">
        <ele>743</ele>
        <time>2016-12-03T11:42:26.008Z</time>
      </trkpt>
      <trkpt lat="42.98933" lon="0.94527">
        <ele>743</ele>
        <time>2016-12-03T11:42:30.008Z</time>
      </trkpt>
      <trkpt lat="42.98925" lon="0.94528">
        <ele>745</ele>
        <time>2016-12-03T11:42:34.008Z</time>
      </trkpt>
      <trkpt lat="42.98916" lon="0.94533">
        <ele>745</ele>
        <time>2016-12-03T11:42:38.008Z</time>
      </trkpt>
      <trkpt lat="42.98905" lon="0.94539">
        <ele>745</ele>
        <time>2016-12-03T11:42:43.008Z</time>
      </trkpt>
      <trkpt lat="42.98894" lon="0.94539">
        <ele>745</ele>
        <time>2016-12-03T11:42:48.008Z</time>
      </trkpt>
      <trkpt lat="42.98885" lon="0.9454">
        <ele>745</ele>
        <time>2016-12-03T11:42:52.008Z</time>
      </trkpt>
      <trkpt lat="42.98875" lon="0.94541">
        <ele>745</ele>
        <time>2016-12-03T11:42:57.008Z</time>
      </trkpt>
      <trkpt lat="42.98865" lon="0.94543">
        <ele>745.34800194557</ele>
        <time>2016-12-03T11:43:01.008Z</time>
      </trkpt>
      <trkpt lat="42.98855" lon="0.94546">
        <ele>746</ele>
        <time>2016-12-03T11:43:06.008Z</time>
      </trkpt>
      <trkpt lat="42.98844" lon="0.94553">
        <ele>746.69600389115</ele>
        <time>2016-12-03T11:43:11.008Z</time>
      </trkpt>
      <trkpt lat="42.98835" lon="0.94558">
        <ele>748</ele>
        <time>2016-12-03T11:43:14.008Z</time>
      </trkpt>
      <trkpt lat="42.98827" lon="0.94562">
        <ele>748</ele>
        <time>2016-12-03T11:43:18.008Z</time>
      </trkpt>
      <trkpt lat="42.98816" lon="0.94568">
        <ele>749</ele>
        <time>2016-12-03T11:43:22.008Z</time>
      </trkpt>
      <trkpt lat="42.98809" lon="0.94574">
        <ele>749</ele>
        <time>2016-12-03T11:43:25.008Z</time>
      </trkpt>
      <trkpt lat="42.98799" lon="0.94581">
        <ele>749</ele>
        <time>2016-12-03T11:43:29.008Z</time>
      </trkpt>
      <trkpt lat="42.98791" lon="0.94585">
        <ele>751</ele>
        <time>2016-12-03T11:43:33.008Z</time>
      </trkpt>
      <trkpt lat="42.98783" lon="0.94591">
        <ele>751</ele>
        <time>2016-12-03T11:43:37.008Z</time>
      </trkpt>
      <trkpt lat="42.98775" lon="0.94596">
        <ele>752.04400583672</ele>
        <time>2016-12-03T11:43:41.008Z</time>
      </trkpt>
      <trkpt lat="42.98766" lon="0.94606">
        <ele>756</ele>
        <time>2016-12-03T11:43:47.008Z</time>
      </trkpt>
      <trkpt lat="42.98759" lon="0.94612">
        <ele>756</ele>
        <time>2016-12-03T11:43:51.008Z</time>
      </trkpt>
      <trkpt lat="42.98753" lon="0.9462">
        <ele>756</ele>
        <time>2016-12-03T11:43:55.008Z</time>
      </trkpt>
      <trkpt lat="42.98746" lon="0.94632">
        <ele>757</ele>
        <time>2016-12-03T11:44:00.008Z</time>
      </trkpt>
      <trkpt lat="42.98741" lon="0.94643">
        <ele>758</ele>
        <time>2016-12-03T11:44:03.008Z</time>
      </trkpt>
      <trkpt lat="42.98733" lon="0.94653">
        <ele>758</ele>
        <time>2016-12-03T11:44:06.008Z</time>
      </trkpt>
      <trkpt lat="42.98724" lon="0.94664">
        <ele>758</ele>
        <time>2016-12-03T11:44:10.008Z</time>
      </trkpt>
      <trkpt lat="42.98717" lon="0.94673">
        <ele>759</ele>
        <time>2016-12-03T11:44:14.008Z</time>
      </trkpt>
      <trkpt lat="42.98711" lon="0.94682">
        <ele>759</ele>
        <time>2016-12-03T11:44:18.008Z</time>
      </trkpt>
      <trkpt lat="42.98704" lon="0.94692">
        <ele>759</ele>
        <time>2016-12-03T11:44:22.008Z</time>
      </trkpt>
      <trkpt lat="42.98695" lon="0.947">
        <ele>759</ele>
        <time>2016-12-03T11:44:26.008Z</time>
      </trkpt>
      <trkpt lat="42.98687" lon="0.94707">
        <ele>759</ele>
        <time>2016-12-03T11:44:29.008Z</time>
      </trkpt>
      <trkpt lat="42.98677" lon="0.94713">
        <ele>759</ele>
        <time>2016-12-03T11:44:32.008Z</time>
      </trkpt>
      <trkpt lat="42.9867" lon="0.94723">
        <ele>759</ele>
        <time>2016-12-03T11:44:35.008Z</time>
      </trkpt>
      <trkpt lat="42.98661" lon="0.9473">
        <ele>759</ele>
        <time>2016-12-03T11:44:38.008Z</time>
      </trkpt>
      <trkpt lat="42.9865" lon="0.94741">
        <ele>759</ele>
        <time>2016-12-03T11:44:41.008Z</time>
      </trkpt>
      <trkpt lat="42.98642" lon="0.94755">
        <ele>759</ele>
        <time>2016-12-03T11:44:44.008Z</time>
      </trkpt>
      <trkpt lat="42.98635" lon="0.94762">
        <ele>759</ele>
        <time>2016-12-03T11:44:47.008Z</time>
      </trkpt>
      <trkpt lat="42.98627" lon="0.94768">
        <ele>759</ele>
        <time>2016-12-03T11:44:50.008Z</time>
      </trkpt>
      <trkpt lat="42.9862" lon="0.94774">
        <ele>758</ele>
        <time>2016-12-03T11:44:53.008Z</time>
      </trkpt>
      <trkpt lat="42.98611" lon="0.9478">
        <ele>758</ele>
        <time>2016-12-03T11:44:57.008Z</time>
      </trkpt>
      <trkpt lat="42.98605" lon="0.94783">
        <ele>758</ele>
        <time>2016-12-03T11:45:00.008Z</time>
      </trkpt>
      <trkpt lat="42.98597" lon="0.94785">
        <ele>759</ele>
        <time>2016-12-03T11:45:03.008Z</time>
      </trkpt>
      <trkpt lat="42.98592" lon="0.94788">
        <ele>759</ele>
        <time>2016-12-03T11:45:06.008Z</time>
      </trkpt>
      <trkpt lat="42.98593" lon="0.94794">
        <ele>759</ele>
        <time>2016-12-03T11:46:40.008Z</time>
      </trkpt>
      <trkpt lat="42.98593" lon="0.94798">
        <ele>758</ele>
        <time>2016-12-03T11:50:40.008Z</time>
      </trkpt>
      <trkpt lat="42.9859" lon="0.94795">
        <ele>758</ele>
        <time>2016-12-03T11:51:12.008Z</time>
      </trkpt>
      <trkpt lat="42.98586" lon="0.94793">
        <ele>758</ele>
        <time>2016-12-03T11:51:20.008Z</time>
      </trkpt>
      <trkpt lat="42.98582" lon="0.94794">
        <ele>759</ele>
        <time>2016-12-03T11:51:23.008Z</time>
      </trkpt>
      <trkpt lat="42.98578" lon="0.94795">
        <ele>759</ele>
        <time>2016-12-03T11:51:26.008Z</time>
      </trkpt>
      <trkpt lat="42.98572" lon="0.94798">
        <ele>759</ele>
        <time>2016-12-03T11:51:29.008Z</time>
      </trkpt>
      <trkpt lat="42.98564" lon="0.94801">
        <ele>760</ele>
        <time>2016-12-03T11:51:34.008Z</time>
      </trkpt>
      <trkpt lat="42.98558" lon="0.94804">
        <ele>760</ele>
        <time>2016-12-03T11:51:38.008Z</time>
      </trkpt>
      <trkpt lat="42.98551" lon="0.94809">
        <ele>763</ele>
        <time>2016-12-03T11:51:42.008Z</time>
      </trkpt>
      <trkpt lat="42.98546" lon="0.94813">
        <ele>763.69599610875</ele>
        <time>2016-12-03T11:51:46.008Z</time>
      </trkpt>
      <trkpt lat="42.98538" lon="0.94818">
        <ele>765.69600389115</ele>
        <time>2016-12-03T11:51:51.008Z</time>
      </trkpt>
      <trkpt lat="42.98531" lon="0.94824">
        <ele>767.34799805438</ele>
        <time>2016-12-03T11:51:56.008Z</time>
      </trkpt>
      <trkpt lat="42.98524" lon="0.94832">
        <ele>768.34800194557</ele>
        <time>2016-12-03T11:52:01.008Z</time>
      </trkpt>
      <trkpt lat="42.98517" lon="0.94838">
        <ele>769</ele>
        <time>2016-12-03T11:52:06.008Z</time>
      </trkpt>
      <trkpt lat="42.98511" lon="0.94844">
        <ele>769</ele>
        <time>2016-12-03T11:52:10.008Z</time>
      </trkpt>
      <trkpt lat="42.98506" lon="0.94851">
        <ele>771</ele>
        <time>2016-12-03T11:52:15.008Z</time>
      </trkpt>
      <trkpt lat="42.985" lon="0.94857">
        <ele>773</ele>
        <time>2016-12-03T11:52:19.008Z</time>
      </trkpt>
      <trkpt lat="42.98495" lon="0.94863">
        <ele>775</ele>
        <time>2016-12-03T11:52:23.008Z</time>
      </trkpt>
      <trkpt lat="42.98489" lon="0.94869">
        <ele>777</ele>
        <time>2016-12-03T11:52:28.008Z</time>
      </trkpt>
      <trkpt lat="42.98482" lon="0.94874">
        <ele>778</ele>
        <time>2016-12-03T11:52:33.008Z</time>
      </trkpt>
      <trkpt lat="42.98476" lon="0.94878">
        <ele>779</ele>
        <time>2016-12-03T11:52:38.008Z</time>
      </trkpt>
      <trkpt lat="42.98468" lon="0.94885">
        <ele>780</ele>
        <time>2016-12-03T11:52:43.008Z</time>
      </trkpt>
      <trkpt lat="42.98464" lon="0.9489">
        <ele>780</ele>
        <time>2016-12-03T11:52:47.008Z</time>
      </trkpt>
      <trkpt lat="42.98459" lon="0.94896">
        <ele>781</ele>
        <time>2016-12-03T11:52:52.008Z</time>
      </trkpt>
      <trkpt lat="42.98453" lon="0.94902">
        <ele>781</ele>
        <time>2016-12-03T11:52:58.008Z</time>
      </trkpt>
      <trkpt lat="42.98445" lon="0.94906">
        <ele>784</ele>
        <time>2016-12-03T11:53:03.008Z</time>
      </trkpt>
      <trkpt lat="42.98434" lon="0.94911">
        <ele>785</ele>
        <time>2016-12-03T11:53:09.008Z</time>
      </trkpt>
      <trkpt lat="42.98425" lon="0.94916">
        <ele>787</ele>
        <time>2016-12-03T11:53:15.008Z</time>
      </trkpt>
      <trkpt lat="42.98417" lon="0.9492">
        <ele>788</ele>
        <time>2016-12-03T11:53:20.008Z</time>
      </trkpt>
      <trkpt lat="42.98409" lon="0.94923">
        <ele>789.34799805438</ele>
        <time>2016-12-03T11:53:26.008Z</time>
      </trkpt>
      <trkpt lat="42.98401" lon="0.94927">
        <ele>790.69600389115</ele>
        <time>2016-12-03T11:53:31.008Z</time>
      </trkpt>
      <trkpt lat="42.98394" lon="0.94931">
        <ele>792</ele>
        <time>2016-12-03T11:53:35.008Z</time>
      </trkpt>
      <trkpt lat="42.98387" lon="0.94935">
        <ele>793</ele>
        <time>2016-12-03T11:53:40.008Z</time>
      </trkpt>
      <trkpt lat="42.9838" lon="0.94939">
        <ele>795.34799805438</ele>
        <time>2016-12-03T11:53:46.008Z</time>
      </trkpt>
      <trkpt lat="42.98374" lon="0.94943">
        <ele>796.34800194557</ele>
        <time>2016-12-03T11:53:51.008Z</time>
      </trkpt>
      <trkpt lat="42.98368" lon="0.94947">
        <ele>797</ele>
        <time>2016-12-03T11:53:54.008Z</time>
      </trkpt>
      <trkpt lat="42.98362" lon="0.9495">
        <ele>797</ele>
        <time>2016-12-03T11:53:58.008Z</time>
      </trkpt>
      <trkpt lat="42.98356" lon="0.94953">
        <ele>800</ele>
        <time>2016-12-03T11:54:03.008Z</time>
      </trkpt>
      <trkpt lat="42.98348" lon="0.94956">
        <ele>800</ele>
        <time>2016-12-03T11:54:08.008Z</time>
      </trkpt>
      <trkpt lat="42.9834" lon="0.94959">
        <ele>801</ele>
        <time>2016-12-03T11:54:13.008Z</time>
      </trkpt>
      <trkpt lat="42.98332" lon="0.94963">
        <ele>801</ele>
        <time>2016-12-03T11:54:18.008Z</time>
      </trkpt>
      <trkpt lat="42.98324" lon="0.94968">
        <ele>804</ele>
        <time>2016-12-03T11:54:23.008Z</time>
      </trkpt>
      <trkpt lat="42.98318" lon="0.94971">
        <ele>806</ele>
        <time>2016-12-03T11:54:28.008Z</time>
      </trkpt>
      <trkpt lat="42.98311" lon="0.94974">
        <ele>807</ele>
        <time>2016-12-03T11:54:33.008Z</time>
      </trkpt>
      <trkpt lat="42.98304" lon="0.94976">
        <ele>808</ele>
        <time>2016-12-03T11:54:37.008Z</time>
      </trkpt>
      <trkpt lat="42.98298" lon="0.9498">
        <ele>808.34800194557</ele>
        <time>2016-12-03T11:54:41.008Z</time>
      </trkpt>
      <trkpt lat="42.9829" lon="0.94983">
        <ele>811</ele>
        <time>2016-12-03T11:54:47.008Z</time>
      </trkpt>
      <trkpt lat="42.98284" lon="0.94986">
        <ele>811.34800194557</ele>
        <time>2016-12-03T11:54:51.008Z</time>
      </trkpt>
      <trkpt lat="42.98277" lon="0.94989">
        <ele>813</ele>
        <time>2016-12-03T11:54:57.008Z</time>
      </trkpt>
      <trkpt lat="42.98268" lon="0.94994">
        <ele>815</ele>
        <time>2016-12-03T11:55:03.008Z</time>
      </trkpt>
      <trkpt lat="42.9826" lon="0.94997">
        <ele>816</ele>
        <time>2016-12-03T11:55:08.008Z</time>
      </trkpt>
      <trkpt lat="42.98249" lon="0.95002">
        <ele>817</ele>
        <time>2016-12-03T11:55:15.008Z</time>
      </trkpt>
      <trkpt lat="42.98239" lon="0.95007">
        <ele>820</ele>
        <time>2016-12-03T11:55:22.008Z</time>
      </trkpt>
      <trkpt lat="42.98229" lon="0.95011">
        <ele>821</ele>
        <time>2016-12-03T11:55:28.008Z</time>
      </trkpt>
      <trkpt lat="42.98219" lon="0.95014">
        <ele>822</ele>
        <time>2016-12-03T11:55:35.008Z</time>
      </trkpt>
      <trkpt lat="42.98208" lon="0.95019">
        <ele>822.69600389115</ele>
        <time>2016-12-03T11:55:41.008Z</time>
      </trkpt>
      <trkpt lat="42.98199" lon="0.95024">
        <ele>824</ele>
        <time>2016-12-03T11:55:47.008Z</time>
      </trkpt>
      <trkpt lat="42.98189" lon="0.95029">
        <ele>826</ele>
        <time>2016-12-03T11:55:53.008Z</time>
      </trkpt>
      <trkpt lat="42.9818" lon="0.95036">
        <ele>828</ele>
        <time>2016-12-03T11:56:00.008Z</time>
      </trkpt>
      <trkpt lat="42.98171" lon="0.95042">
        <ele>829.69599610875</ele>
        <time>2016-12-03T11:56:06.008Z</time>
      </trkpt>
      <trkpt lat="42.98162" lon="0.95047">
        <ele>832</ele>
        <time>2016-12-03T11:56:12.008Z</time>
      </trkpt>
      <trkpt lat="42.98155" lon="0.95051">
        <ele>834</ele>
        <time>2016-12-03T11:56:17.008Z</time>
      </trkpt>
      <trkpt lat="42.98148" lon="0.95054">
        <ele>834</ele>
        <time>2016-12-03T11:56:22.008Z</time>
      </trkpt>
      <trkpt lat="42.9814" lon="0.95056">
        <ele>834.34454921045</ele>
        <time>2016-12-03T11:56:26.008Z</time>
      </trkpt>
      <trkpt lat="42.98132" lon="0.95058">
        <ele>835</ele>
        <time>2016-12-03T11:56:30.008Z</time>
      </trkpt>
      <trkpt lat="42.98123" lon="0.95061">
        <ele>837</ele>
        <time>2016-12-03T11:56:35.008Z</time>
      </trkpt>
      <trkpt lat="42.98114" lon="0.95065">
        <ele>838.69600389115</ele>
        <time>2016-12-03T11:56:41.008Z</time>
      </trkpt>
      <trkpt lat="42.98104" lon="0.95068">
        <ele>840.34799805438</ele>
        <time>2016-12-03T11:56:46.008Z</time>
      </trkpt>
      <trkpt lat="42.98096" lon="0.9507">
        <ele>842</ele>
        <time>2016-12-03T11:56:52.008Z</time>
      </trkpt>
      <trkpt lat="42.98088" lon="0.95074">
        <ele>842</ele>
        <time>2016-12-03T11:56:57.008Z</time>
      </trkpt>
      <trkpt lat="42.98079" lon="0.95078">
        <ele>845</ele>
        <time>2016-12-03T11:57:04.008Z</time>
      </trkpt>
      <trkpt lat="42.98068" lon="0.95082">
        <ele>847</ele>
        <time>2016-12-03T11:57:11.008Z</time>
      </trkpt>
      <trkpt lat="42.98058" lon="0.95086">
        <ele>847</ele>
        <time>2016-12-03T11:57:18.008Z</time>
      </trkpt>
      <trkpt lat="42.98049" lon="0.95091">
        <ele>849</ele>
        <time>2016-12-03T11:57:23.008Z</time>
      </trkpt>
      <trkpt lat="42.98039" lon="0.95094">
        <ele>849</ele>
        <time>2016-12-03T11:57:29.008Z</time>
      </trkpt>
      <trkpt lat="42.98029" lon="0.95098">
        <ele>853</ele>
        <time>2016-12-03T11:57:35.008Z</time>
      </trkpt>
      <trkpt lat="42.9802" lon="0.95102">
        <ele>854</ele>
        <time>2016-12-03T11:57:40.008Z</time>
      </trkpt>
      <trkpt lat="42.9801" lon="0.95107">
        <ele>855</ele>
        <time>2016-12-03T11:57:46.008Z</time>
      </trkpt>
      <trkpt lat="42.97998" lon="0.95113">
        <ele>857</ele>
        <time>2016-12-03T11:57:53.008Z</time>
      </trkpt>
      <trkpt lat="42.97989" lon="0.9512">
        <ele>858.3920077823</ele>
        <time>2016-12-03T11:58:01.008Z</time>
      </trkpt>
      <trkpt lat="42.97979" lon="0.95127">
        <ele>862</ele>
        <time>2016-12-03T11:58:08.008Z</time>
      </trkpt>
      <trkpt lat="42.9797" lon="0.95135">
        <ele>863</ele>
        <time>2016-12-03T11:58:15.008Z</time>
      </trkpt>
      <trkpt lat="42.97961" lon="0.95141">
        <ele>865.34800194557</ele>
        <time>2016-12-03T11:58:21.008Z</time>
      </trkpt>
      <trkpt lat="42.97952" lon="0.9515">
        <ele>868</ele>
        <time>2016-12-03T11:58:28.008Z</time>
      </trkpt>
      <trkpt lat="42.97942" lon="0.95158">
        <ele>868</ele>
        <time>2016-12-03T11:58:36.008Z</time>
      </trkpt>
      <trkpt lat="42.97933" lon="0.95164">
        <ele>870</ele>
        <time>2016-12-03T11:58:42.008Z</time>
      </trkpt>
      <trkpt lat="42.97925" lon="0.95172">
        <ele>870</ele>
        <time>2016-12-03T11:58:48.008Z</time>
      </trkpt>
      <trkpt lat="42.97917" lon="0.95181">
        <ele>872</ele>
        <time>2016-12-03T11:58:53.008Z</time>
      </trkpt>
      <trkpt lat="42.97907" lon="0.95189">
        <ele>875</ele>
        <time>2016-12-03T11:58:59.008Z</time>
      </trkpt>
      <trkpt lat="42.97899" lon="0.95197">
        <ele>877</ele>
        <time>2016-12-03T11:59:05.008Z</time>
      </trkpt>
      <trkpt lat="42.97891" lon="0.95207">
        <ele>878.34800194557</ele>
        <time>2016-12-03T11:59:11.008Z</time>
      </trkpt>
      <trkpt lat="42.97883" lon="0.95215">
        <ele>881</ele>
        <time>2016-12-03T11:59:17.008Z</time>
      </trkpt>
      <trkpt lat="42.97876" lon="0.95222">
        <ele>881</ele>
        <time>2016-12-03T11:59:23.008Z</time>
      </trkpt>
      <trkpt lat="42.97869" lon="0.9523">
        <ele>881</ele>
        <time>2016-12-03T11:59:29.008Z</time>
      </trkpt>
      <trkpt lat="42.97863" lon="0.95238">
        <ele>884</ele>
        <time>2016-12-03T11:59:35.008Z</time>
      </trkpt>
      <trkpt lat="42.97855" lon="0.95248">
        <ele>886.34800194557</ele>
        <time>2016-12-03T11:59:41.008Z</time>
      </trkpt>
      <trkpt lat="42.97847" lon="0.95257">
        <ele>888</ele>
        <time>2016-12-03T11:59:47.008Z</time>
      </trkpt>
      <trkpt lat="42.97839" lon="0.95267">
        <ele>890</ele>
        <time>2016-12-03T11:59:54.008Z</time>
      </trkpt>
      <trkpt lat="42.97831" lon="0.95279">
        <ele>891</ele>
        <time>2016-12-03T12:00:00.008Z</time>
      </trkpt>
      <trkpt lat="42.97825" lon="0.9529">
        <ele>892</ele>
        <time>2016-12-03T12:00:07.008Z</time>
      </trkpt>
      <trkpt lat="42.9782" lon="0.95301">
        <ele>895</ele>
        <time>2016-12-03T12:00:13.008Z</time>
      </trkpt>
      <trkpt lat="42.97814" lon="0.95314">
        <ele>897</ele>
        <time>2016-12-03T12:00:19.008Z</time>
      </trkpt>
      <trkpt lat="42.97809" lon="0.95324">
        <ele>898</ele>
        <time>2016-12-03T12:00:24.008Z</time>
      </trkpt>
      <trkpt lat="42.97803" lon="0.95338">
        <ele>899</ele>
        <time>2016-12-03T12:00:30.008Z</time>
      </trkpt>
      <trkpt lat="42.978" lon="0.95351">
        <ele>900</ele>
        <time>2016-12-03T12:00:36.008Z</time>
      </trkpt>
      <trkpt lat="42.97799" lon="0.95366">
        <ele>902</ele>
        <time>2016-12-03T12:00:44.008Z</time>
      </trkpt>
      <trkpt lat="42.97796" lon="0.9538">
        <ele>902</ele>
        <time>2016-12-03T12:00:50.008Z</time>
      </trkpt>
      <trkpt lat="42.97792" lon="0.95395">
        <ele>905.34799805438</ele>
        <time>2016-12-03T12:00:56.008Z</time>
      </trkpt>
      <trkpt lat="42.97785" lon="0.95406">
        <ele>908</ele>
        <time>2016-12-03T12:01:03.008Z</time>
      </trkpt>
      <trkpt lat="42.97778" lon="0.95417">
        <ele>909</ele>
        <time>2016-12-03T12:01:10.008Z</time>
      </trkpt>
      <trkpt lat="42.97772" lon="0.95426">
        <ele>911.34799805438</ele>
        <time>2016-12-03T12:01:16.008Z</time>
      </trkpt>
      <trkpt lat="42.97764" lon="0.95436">
        <ele>913</ele>
        <time>2016-12-03T12:01:23.008Z</time>
      </trkpt>
      <trkpt lat="42.97758" lon="0.95447">
        <ele>913</ele>
        <time>2016-12-03T12:01:29.008Z</time>
      </trkpt>
      <trkpt lat="42.97753" lon="0.9546">
        <ele>916.03364763136</ele>
        <time>2016-12-03T12:01:36.008Z</time>
      </trkpt>
      <trkpt lat="42.97748" lon="0.95473">
        <ele>919</ele>
        <time>2016-12-03T12:01:43.008Z</time>
      </trkpt>
      <trkpt lat="42.97745" lon="0.95487">
        <ele>921</ele>
        <time>2016-12-03T12:01:50.008Z</time>
      </trkpt>
      <trkpt lat="42.9774" lon="0.95498">
        <ele>922.69599610875</ele>
        <time>2016-12-03T12:01:56.008Z</time>
      </trkpt>
      <trkpt lat="42.97738" lon="0.95512">
        <ele>924</ele>
        <time>2016-12-03T12:02:02.008Z</time>
      </trkpt>
      <trkpt lat="42.97735" lon="0.95524">
        <ele>924</ele>
        <time>2016-12-03T12:02:08.008Z</time>
      </trkpt>
      <trkpt lat="42.97729" lon="0.95536">
        <ele>926</ele>
        <time>2016-12-03T12:02:14.008Z</time>
      </trkpt>
      <trkpt lat="42.97723" lon="0.95545">
        <ele>926</ele>
        <time>2016-12-03T12:02:19.008Z</time>
      </trkpt>
      <trkpt lat="42.97715" lon="0.95553">
        <ele>927</ele>
        <time>2016-12-03T12:02:24.008Z</time>
      </trkpt>
      <trkpt lat="42.97709" lon="0.95564">
        <ele>927</ele>
        <time>2016-12-03T12:02:29.008Z</time>
      </trkpt>
      <trkpt lat="42.97704" lon="0.9557">
        <ele>928</ele>
        <time>2016-12-03T12:02:33.008Z</time>
      </trkpt>
      <trkpt lat="42.97702" lon="0.95573">
        <ele>927</ele>
        <time>2016-12-03T12:02:55.008Z</time>
      </trkpt>
      <trkpt lat="42.97695" lon="0.95579">
        <ele>928</ele>
        <time>2016-12-03T12:03:32.008Z</time>
      </trkpt>
      <trkpt lat="42.97689" lon="0.95585">
        <ele>928</ele>
        <time>2016-12-03T12:03:35.008Z</time>
      </trkpt>
      <trkpt lat="42.97684" lon="0.95592">
        <ele>928</ele>
        <time>2016-12-03T12:03:38.008Z</time>
      </trkpt>
      <trkpt lat="42.97678" lon="0.956">
        <ele>928</ele>
        <time>2016-12-03T12:03:41.008Z</time>
      </trkpt>
      <trkpt lat="42.97672" lon="0.95612">
        <ele>928</ele>
        <time>2016-12-03T12:03:45.008Z</time>
      </trkpt>
      <trkpt lat="42.97666" lon="0.95624">
        <ele>928</ele>
        <time>2016-12-03T12:03:49.008Z</time>
      </trkpt>
      <trkpt lat="42.97659" lon="0.95634">
        <ele>928</ele>
        <time>2016-12-03T12:03:52.008Z</time>
      </trkpt>
      <trkpt lat="42.97652" lon="0.95644">
        <ele>928</ele>
        <time>2016-12-03T12:03:55.008Z</time>
      </trkpt>
      <trkpt lat="42.97646" lon="0.95655">
        <ele>928</ele>
        <time>2016-12-03T12:03:59.008Z</time>
      </trkpt>
      <trkpt lat="42.97638" lon="0.95665">
        <ele>929</ele>
        <time>2016-12-03T12:04:04.008Z</time>
      </trkpt>
      <trkpt lat="42.97631" lon="0.95675">
        <ele>929</ele>
        <time>2016-12-03T12:04:09.008Z</time>
      </trkpt>
      <trkpt lat="42.97622" lon="0.95684">
        <ele>930</ele>
        <time>2016-12-03T12:04:15.008Z</time>
      </trkpt>
      <trkpt lat="42.97612" lon="0.95691">
        <ele>930</ele>
        <time>2016-12-03T12:04:19.008Z</time>
      </trkpt>
      <trkpt lat="42.97601" lon="0.95699">
        <ele>930</ele>
        <time>2016-12-03T12:04:23.008Z</time>
      </trkpt>
      <trkpt lat="42.97591" lon="0.95706">
        <ele>930</ele>
        <time>2016-12-03T12:04:28.008Z</time>
      </trkpt>
      <trkpt lat="42.9758" lon="0.9571">
        <ele>931</ele>
        <time>2016-12-03T12:04:33.008Z</time>
      </trkpt>
      <trkpt lat="42.9757" lon="0.95715">
        <ele>931</ele>
        <time>2016-12-03T12:04:37.008Z</time>
      </trkpt>
      <trkpt lat="42.9756" lon="0.9572">
        <ele>931</ele>
        <time>2016-12-03T12:04:40.008Z</time>
      </trkpt>
      <trkpt lat="42.97551" lon="0.95726">
        <ele>931</ele>
        <time>2016-12-03T12:04:44.008Z</time>
      </trkpt>
      <trkpt lat="42.97542" lon="0.9573">
        <ele>931</ele>
        <time>2016-12-03T12:04:48.008Z</time>
      </trkpt>
      <trkpt lat="42.97534" lon="0.95734">
        <ele>932</ele>
        <time>2016-12-03T12:04:52.008Z</time>
      </trkpt>
      <trkpt lat="42.97524" lon="0.9574">
        <ele>932</ele>
        <time>2016-12-03T12:04:56.008Z</time>
      </trkpt>
      <trkpt lat="42.97516" lon="0.95746">
        <ele>932</ele>
        <time>2016-12-03T12:05:00.008Z</time>
      </trkpt>
      <trkpt lat="42.97507" lon="0.95752">
        <ele>933</ele>
        <time>2016-12-03T12:05:04.008Z</time>
      </trkpt>
      <trkpt lat="42.97498" lon="0.95759">
        <ele>933</ele>
        <time>2016-12-03T12:05:07.008Z</time>
      </trkpt>
      <trkpt lat="42.97487" lon="0.95766">
        <ele>933.34800194557</ele>
        <time>2016-12-03T12:05:11.008Z</time>
      </trkpt>
      <trkpt lat="42.97477" lon="0.95771">
        <ele>934</ele>
        <time>2016-12-03T12:05:15.008Z</time>
      </trkpt>
      <trkpt lat="42.97467" lon="0.95779">
        <ele>934</ele>
        <time>2016-12-03T12:05:20.008Z</time>
      </trkpt>
      <trkpt lat="42.9746" lon="0.95783">
        <ele>934</ele>
        <time>2016-12-03T12:05:23.008Z</time>
      </trkpt>
      <trkpt lat="42.97455" lon="0.95787">
        <ele>934</ele>
        <time>2016-12-03T12:05:25.008Z</time>
      </trkpt>
      <trkpt lat="42.9745" lon="0.95789">
        <ele>934</ele>
        <time>2016-12-03T12:05:27.008Z</time>
      </trkpt>
      <trkpt lat="42.97444" lon="0.95792">
        <ele>934</ele>
        <time>2016-12-03T12:05:29.008Z</time>
      </trkpt>
      <trkpt lat="42.97435" lon="0.95799">
        <ele>935</ele>
        <time>2016-12-03T12:05:33.008Z</time>
      </trkpt>
      <trkpt lat="42.97427" lon="0.95804">
        <ele>935</ele>
        <time>2016-12-03T12:05:36.008Z</time>
      </trkpt>
      <trkpt lat="42.97419" lon="0.95806">
        <ele>935</ele>
        <time>2016-12-03T12:05:39.008Z</time>
      </trkpt>
      <trkpt lat="42.97414" lon="0.95808">
        <ele>935</ele>
        <time>2016-12-03T12:05:41.008Z</time>
      </trkpt>
      <trkpt lat="42.97408" lon="0.95808">
        <ele>935</ele>
        <time>2016-12-03T12:05:43.008Z</time>
      </trkpt>
      <trkpt lat="42.97403" lon="0.95807">
        <ele>935</ele>
        <time>2016-12-03T12:05:45.008Z</time>
      </trkpt>
      <trkpt lat="42.97399" lon="0.95808">
        <ele>935</ele>
        <time>2016-12-03T12:05:47.008Z</time>
      </trkpt>
      <trkpt lat="42.97392" lon="0.95807">
        <ele>935</ele>
        <time>2016-12-03T12:05:50.008Z</time>
      </trkpt>
      <trkpt lat="42.97387" lon="0.958">
        <ele>936</ele>
        <time>2016-12-03T12:05:54.008Z</time>
      </trkpt>
      <trkpt lat="42.97386" lon="0.9579">
        <ele>936</ele>
        <time>2016-12-03T12:05:58.008Z</time>
      </trkpt>
      <trkpt lat="42.97393" lon="0.95781">
        <ele>937</ele>
        <time>2016-12-03T12:06:03.008Z</time>
      </trkpt>
      <trkpt lat="42.97401" lon="0.95773">
        <ele>937</ele>
        <time>2016-12-03T12:06:07.008Z</time>
      </trkpt>
      <trkpt lat="42.97407" lon="0.95762">
        <ele>937.34140980554</ele>
        <time>2016-12-03T12:06:11.008Z</time>
      </trkpt>
      <trkpt lat="42.9741" lon="0.95749">
        <ele>938</ele>
        <time>2016-12-03T12:06:15.008Z</time>
      </trkpt>
      <trkpt lat="42.97412" lon="0.95734">
        <ele>938</ele>
        <time>2016-12-03T12:06:19.008Z</time>
      </trkpt>
      <trkpt lat="42.97413" lon="0.95718">
        <ele>940</ele>
        <time>2016-12-03T12:06:24.008Z</time>
      </trkpt>
      <trkpt lat="42.97414" lon="0.95703">
        <ele>940</ele>
        <time>2016-12-03T12:06:29.008Z</time>
      </trkpt>
      <trkpt lat="42.97414" lon="0.95688">
        <ele>941</ele>
        <time>2016-12-03T12:06:34.008Z</time>
      </trkpt>
      <trkpt lat="42.97415" lon="0.95674">
        <ele>941</ele>
        <time>2016-12-03T12:06:39.008Z</time>
      </trkpt>
      <trkpt lat="42.97418" lon="0.95661">
        <ele>943</ele>
        <time>2016-12-03T12:06:43.008Z</time>
      </trkpt>
      <trkpt lat="42.97424" lon="0.95647">
        <ele>943</ele>
        <time>2016-12-03T12:06:48.008Z</time>
      </trkpt>
      <trkpt lat="42.97432" lon="0.9564">
        <ele>943</ele>
        <time>2016-12-03T12:06:52.008Z</time>
      </trkpt>
      <trkpt lat="42.97436" lon="0.9563">
        <ele>943</ele>
        <time>2016-12-03T12:06:56.008Z</time>
      </trkpt>
      <trkpt lat="42.97439" lon="0.95617">
        <ele>943.69600389115</ele>
        <time>2016-12-03T12:07:01.008Z</time>
      </trkpt>
      <trkpt lat="42.97441" lon="0.95605">
        <ele>945</ele>
        <time>2016-12-03T12:07:05.008Z</time>
      </trkpt>
      <trkpt lat="42.9744" lon="0.95593">
        <ele>945</ele>
        <time>2016-12-03T12:07:09.008Z</time>
      </trkpt>
      <trkpt lat="42.9744" lon="0.95581">
        <ele>946</ele>
        <time>2016-12-03T12:07:13.008Z</time>
      </trkpt>
      <trkpt lat="42.97441" lon="0.95568">
        <ele>946</ele>
        <time>2016-12-03T12:07:17.008Z</time>
      </trkpt>
      <trkpt lat="42.97441" lon="0.95555">
        <ele>946.69600389115</ele>
        <time>2016-12-03T12:07:21.008Z</time>
      </trkpt>
      <trkpt lat="42.97446" lon="0.95542">
        <ele>948</ele>
        <time>2016-12-03T12:07:27.008Z</time>
      </trkpt>
      <trkpt lat="42.97452" lon="0.95527">
        <ele>950</ele>
        <time>2016-12-03T12:07:32.008Z</time>
      </trkpt>
      <trkpt lat="42.97454" lon="0.95511">
        <ele>950</ele>
        <time>2016-12-03T12:07:37.008Z</time>
      </trkpt>
      <trkpt lat="42.97458" lon="0.95497">
        <ele>952</ele>
        <time>2016-12-03T12:07:42.008Z</time>
      </trkpt>
      <trkpt lat="42.97459" lon="0.95482">
        <ele>952</ele>
        <time>2016-12-03T12:07:47.008Z</time>
      </trkpt>
      <trkpt lat="42.97459" lon="0.95467">
        <ele>954</ele>
        <time>2016-12-03T12:07:52.008Z</time>
      </trkpt>
      <trkpt lat="42.9746" lon="0.95452">
        <ele>954</ele>
        <time>2016-12-03T12:07:57.008Z</time>
      </trkpt>
      <trkpt lat="42.97458" lon="0.9544">
        <ele>954.34800194557</ele>
        <time>2016-12-03T12:08:01.008Z</time>
      </trkpt>
      <trkpt lat="42.97457" lon="0.95426">
        <ele>955</ele>
        <time>2016-12-03T12:08:06.008Z</time>
      </trkpt>
      <trkpt lat="42.97457" lon="0.95414">
        <ele>955</ele>
        <time>2016-12-03T12:08:10.008Z</time>
      </trkpt>
      <trkpt lat="42.97456" lon="0.95402">
        <ele>957</ele>
        <time>2016-12-03T12:08:14.008Z</time>
      </trkpt>
      <trkpt lat="42.97456" lon="0.95387">
        <ele>957</ele>
        <time>2016-12-03T12:08:19.008Z</time>
      </trkpt>
      <trkpt lat="42.97454" lon="0.95378">
        <ele>958</ele>
        <time>2016-12-03T12:08:23.008Z</time>
      </trkpt>
      <trkpt lat="42.97451" lon="0.95368">
        <ele>958</ele>
        <time>2016-12-03T12:08:27.008Z</time>
      </trkpt>
      <trkpt lat="42.97448" lon="0.9536">
        <ele>958</ele>
        <time>2016-12-03T12:08:30.008Z</time>
      </trkpt>
      <trkpt lat="42.97445" lon="0.95348">
        <ele>959</ele>
        <time>2016-12-03T12:08:34.008Z</time>
      </trkpt>
      <trkpt lat="42.97444" lon="0.95336">
        <ele>959</ele>
        <time>2016-12-03T12:08:38.008Z</time>
      </trkpt>
      <trkpt lat="42.97443" lon="0.95324">
        <ele>961</ele>
        <time>2016-12-03T12:08:42.008Z</time>
      </trkpt>
      <trkpt lat="42.97442" lon="0.95311">
        <ele>961</ele>
        <time>2016-12-03T12:08:47.008Z</time>
      </trkpt>
      <trkpt lat="42.97443" lon="0.95296">
        <ele>964</ele>
        <time>2016-12-03T12:08:52.008Z</time>
      </trkpt>
      <trkpt lat="42.97444" lon="0.95281">
        <ele>964</ele>
        <time>2016-12-03T12:08:57.008Z</time>
      </trkpt>
      <trkpt lat="42.9744" lon="0.95268">
        <ele>964</ele>
        <time>2016-12-03T12:09:01.008Z</time>
      </trkpt>
      <trkpt lat="42.97436" lon="0.95255">
        <ele>964</ele>
        <time>2016-12-03T12:09:05.008Z</time>
      </trkpt>
      <trkpt lat="42.97433" lon="0.95243">
        <ele>964</ele>
        <time>2016-12-03T12:09:09.008Z</time>
      </trkpt>
      <trkpt lat="42.9743" lon="0.95232">
        <ele>965</ele>
        <time>2016-12-03T12:09:13.008Z</time>
      </trkpt>
      <trkpt lat="42.97427" lon="0.95223">
        <ele>965</ele>
        <time>2016-12-03T12:09:16.008Z</time>
      </trkpt>
      <trkpt lat="42.97423" lon="0.95214">
        <ele>965</ele>
        <time>2016-12-03T12:09:19.008Z</time>
      </trkpt>
      <trkpt lat="42.97416" lon="0.95209">
        <ele>967</ele>
        <time>2016-12-03T12:09:23.008Z</time>
      </trkpt>
      <trkpt lat="42.97407" lon="0.95214">
        <ele>967</ele>
        <time>2016-12-03T12:09:27.008Z</time>
      </trkpt>
      <trkpt lat="42.97399" lon="0.95221">
        <ele>967.34800194557</ele>
        <time>2016-12-03T12:09:31.008Z</time>
      </trkpt>
      <trkpt lat="42.97393" lon="0.95229">
        <ele>968</ele>
        <time>2016-12-03T12:09:35.008Z</time>
      </trkpt>
      <trkpt lat="42.97388" lon="0.9524">
        <ele>968</ele>
        <time>2016-12-03T12:09:39.008Z</time>
      </trkpt>
      <trkpt lat="42.97384" lon="0.95249">
        <ele>970</ele>
        <time>2016-12-03T12:09:42.008Z</time>
      </trkpt>
      <trkpt lat="42.9738" lon="0.9526">
        <ele>970</ele>
        <time>2016-12-03T12:09:46.008Z</time>
      </trkpt>
      <trkpt lat="42.97374" lon="0.95269">
        <ele>970</ele>
        <time>2016-12-03T12:09:49.008Z</time>
      </trkpt>
      <trkpt lat="42.97367" lon="0.95279">
        <ele>973</ele>
        <time>2016-12-03T12:09:52.008Z</time>
      </trkpt>
      <trkpt lat="42.97362" lon="0.95289">
        <ele>973</ele>
        <time>2016-12-03T12:09:55.008Z</time>
      </trkpt>
      <trkpt lat="42.97356" lon="0.95296">
        <ele>974</ele>
        <time>2016-12-03T12:09:58.008Z</time>
      </trkpt>
      <trkpt lat="42.97351" lon="0.95303">
        <ele>974.34800194557</ele>
        <time>2016-12-03T12:10:01.008Z</time>
      </trkpt>
      <trkpt lat="42.97346" lon="0.95311">
        <ele>975</ele>
        <time>2016-12-03T12:10:05.008Z</time>
      </trkpt>
      <trkpt lat="42.97342" lon="0.95318">
        <ele>975</ele>
        <time>2016-12-03T12:10:08.008Z</time>
      </trkpt>
      <trkpt lat="42.97338" lon="0.95326">
        <ele>975.69600389115</ele>
        <time>2016-12-03T12:10:11.008Z</time>
      </trkpt>
      <trkpt lat="42.97333" lon="0.95334">
        <ele>977</ele>
        <time>2016-12-03T12:10:15.008Z</time>
      </trkpt>
      <trkpt lat="42.97328" lon="0.95343">
        <ele>977</ele>
        <time>2016-12-03T12:10:18.008Z</time>
      </trkpt>
      <trkpt lat="42.97324" lon="0.95351">
        <ele>977.34800194557</ele>
        <time>2016-12-03T12:10:21.008Z</time>
      </trkpt>
      <trkpt lat="42.97319" lon="0.95359">
        <ele>978</ele>
        <time>2016-12-03T12:10:25.008Z</time>
      </trkpt>
      <trkpt lat="42.97313" lon="0.9537">
        <ele>978.69600389115</ele>
        <time>2016-12-03T12:10:31.008Z</time>
      </trkpt>
      <trkpt lat="42.97308" lon="0.95379">
        <ele>980</ele>
        <time>2016-12-03T12:10:37.008Z</time>
      </trkpt>
      <trkpt lat="42.97301" lon="0.95386">
        <ele>980.34800194557</ele>
        <time>2016-12-03T12:10:41.008Z</time>
      </trkpt>
      <trkpt lat="42.97293" lon="0.9539">
        <ele>981</ele>
        <time>2016-12-03T12:10:45.008Z</time>
      </trkpt>
      <trkpt lat="42.97282" lon="0.95395">
        <ele>981</ele>
        <time>2016-12-03T12:10:49.008Z</time>
      </trkpt>
      <trkpt lat="42.97273" lon="0.95393">
        <ele>982</ele>
        <time>2016-12-03T12:10:52.008Z</time>
      </trkpt>
      <trkpt lat="42.97268" lon="0.95385">
        <ele>982</ele>
        <time>2016-12-03T12:10:55.008Z</time>
      </trkpt>
      <trkpt lat="42.97262" lon="0.95373">
        <ele>982</ele>
        <time>2016-12-03T12:10:59.008Z</time>
      </trkpt>
      <trkpt lat="42.97256" lon="0.95361">
        <ele>984</ele>
        <time>2016-12-03T12:11:04.008Z</time>
      </trkpt>
      <trkpt lat="42.97251" lon="0.95346">
        <ele>984</ele>
        <time>2016-12-03T12:11:09.008Z</time>
      </trkpt>
      <trkpt lat="42.97246" lon="0.95331">
        <ele>986</ele>
        <time>2016-12-03T12:11:14.008Z</time>
      </trkpt>
      <trkpt lat="42.97243" lon="0.95315">
        <ele>986</ele>
        <time>2016-12-03T12:11:19.008Z</time>
      </trkpt>
      <trkpt lat="42.9724" lon="0.95307">
        <ele>988</ele>
        <time>2016-12-03T12:11:22.008Z</time>
      </trkpt>
      <trkpt lat="42.97236" lon="0.95298">
        <ele>988</ele>
        <time>2016-12-03T12:11:25.008Z</time>
      </trkpt>
      <trkpt lat="42.97233" lon="0.95289">
        <ele>988</ele>
        <time>2016-12-03T12:11:28.008Z</time>
      </trkpt>
      <trkpt lat="42.97228" lon="0.95281">
        <ele>988.68911503415</ele>
        <time>2016-12-03T12:11:31.008Z</time>
      </trkpt>
      <trkpt lat="42.97222" lon="0.95275">
        <ele>990</ele>
        <time>2016-12-03T12:11:34.008Z</time>
      </trkpt>
      <trkpt lat="42.97215" lon="0.95273">
        <ele>990</ele>
        <time>2016-12-03T12:11:37.008Z</time>
      </trkpt>
      <trkpt lat="42.97208" lon="0.95275">
        <ele>990</ele>
        <time>2016-12-03T12:11:40.008Z</time>
      </trkpt>
      <trkpt lat="42.972" lon="0.95279">
        <ele>992</ele>
        <time>2016-12-03T12:11:43.008Z</time>
      </trkpt>
      <trkpt lat="42.97191" lon="0.95285">
        <ele>992</ele>
        <time>2016-12-03T12:11:47.008Z</time>
      </trkpt>
      <trkpt lat="42.97182" lon="0.9529">
        <ele>994</ele>
        <time>2016-12-03T12:11:52.008Z</time>
      </trkpt>
      <trkpt lat="42.97171" lon="0.95295">
        <ele>994</ele>
        <time>2016-12-03T12:11:56.008Z</time>
      </trkpt>
      <trkpt lat="42.97161" lon="0.953">
        <ele>994</ele>
        <time>2016-12-03T12:12:00.008Z</time>
      </trkpt>
      <trkpt lat="42.9715" lon="0.95306">
        <ele>996</ele>
        <time>2016-12-03T12:12:05.008Z</time>
      </trkpt>
      <trkpt lat="42.9714" lon="0.95307">
        <ele>996</ele>
        <time>2016-12-03T12:12:08.008Z</time>
      </trkpt>
      <trkpt lat="42.9713" lon="0.95303">
        <ele>997</ele>
        <time>2016-12-03T12:12:12.008Z</time>
      </trkpt>
      <trkpt lat="42.9712" lon="0.95298">
        <ele>997</ele>
        <time>2016-12-03T12:12:16.008Z</time>
      </trkpt>
      <trkpt lat="42.97111" lon="0.95293">
        <ele>997</ele>
        <time>2016-12-03T12:12:20.008Z</time>
      </trkpt>
      <trkpt lat="42.97105" lon="0.95285">
        <ele>999</ele>
        <time>2016-12-03T12:12:23.008Z</time>
      </trkpt>
      <trkpt lat="42.97103" lon="0.95273">
        <ele>999</ele>
        <time>2016-12-03T12:12:26.008Z</time>
      </trkpt>
      <trkpt lat="42.97105" lon="0.95261">
        <ele>999</ele>
        <time>2016-12-03T12:12:29.008Z</time>
      </trkpt>
      <trkpt lat="42.97108" lon="0.95248">
        <ele>999</ele>
        <time>2016-12-03T12:12:32.008Z</time>
      </trkpt>
      <trkpt lat="42.97111" lon="0.95236">
        <ele>999</ele>
        <time>2016-12-03T12:12:35.008Z</time>
      </trkpt>
      <trkpt lat="42.97113" lon="0.95222">
        <ele>999</ele>
        <time>2016-12-03T12:12:38.008Z</time>
      </trkpt>
      <trkpt lat="42.97113" lon="0.95206">
        <ele>1000</ele>
        <time>2016-12-03T12:12:42.008Z</time>
      </trkpt>
      <trkpt lat="42.97109" lon="0.9519">
        <ele>1000</ele>
        <time>2016-12-03T12:12:46.008Z</time>
      </trkpt>
      <trkpt lat="42.97104" lon="0.9518">
        <ele>1000</ele>
        <time>2016-12-03T12:12:49.008Z</time>
      </trkpt>
      <trkpt lat="42.971" lon="0.9517">
        <ele>1001</ele>
        <time>2016-12-03T12:12:52.008Z</time>
      </trkpt>
      <trkpt lat="42.97096" lon="0.9516">
        <ele>1001</ele>
        <time>2016-12-03T12:12:55.008Z</time>
      </trkpt>
      <trkpt lat="42.97092" lon="0.95148">
        <ele>1001</ele>
        <time>2016-12-03T12:12:58.008Z</time>
      </trkpt>
      <trkpt lat="42.9709" lon="0.95136">
        <ele>1001.3480019456</ele>
        <time>2016-12-03T12:13:01.008Z</time>
      </trkpt>
      <trkpt lat="42.97088" lon="0.95125">
        <ele>1002</ele>
        <time>2016-12-03T12:13:04.008Z</time>
      </trkpt>
      <trkpt lat="42.97086" lon="0.95115">
        <ele>1002</ele>
        <time>2016-12-03T12:13:07.008Z</time>
      </trkpt>
      <trkpt lat="42.97084" lon="0.95101">
        <ele>1003.0440058367</ele>
        <time>2016-12-03T12:13:11.008Z</time>
      </trkpt>
      <trkpt lat="42.97083" lon="0.95086">
        <ele>1005</ele>
        <time>2016-12-03T12:13:15.008Z</time>
      </trkpt>
      <trkpt lat="42.97089" lon="0.95075">
        <ele>1006</ele>
        <time>2016-12-03T12:13:18.008Z</time>
      </trkpt>
      <trkpt lat="42.97096" lon="0.95064">
        <ele>1006</ele>
        <time>2016-12-03T12:13:21.008Z</time>
      </trkpt>
      <trkpt lat="42.97101" lon="0.95048">
        <ele>1006</ele>
        <time>2016-12-03T12:13:25.008Z</time>
      </trkpt>
      <trkpt lat="42.97099" lon="0.95035">
        <ele>1006</ele>
        <time>2016-12-03T12:13:28.008Z</time>
      </trkpt>
      <trkpt lat="42.97096" lon="0.95024">
        <ele>1006</ele>
        <time>2016-12-03T12:13:31.008Z</time>
      </trkpt>
      <trkpt lat="42.97093" lon="0.95014">
        <ele>1006</ele>
        <time>2016-12-03T12:13:33.008Z</time>
      </trkpt>
      <trkpt lat="42.97091" lon="0.95004">
        <ele>1006</ele>
        <time>2016-12-03T12:13:35.008Z</time>
      </trkpt>
      <trkpt lat="42.9709" lon="0.94993">
        <ele>1006</ele>
        <time>2016-12-03T12:13:37.008Z</time>
      </trkpt>
      <trkpt lat="42.9709" lon="0.94981">
        <ele>1006</ele>
        <time>2016-12-03T12:13:39.008Z</time>
      </trkpt>
      <trkpt lat="42.9709" lon="0.94968">
        <ele>1005.3039961089</ele>
        <time>2016-12-03T12:13:41.008Z</time>
      </trkpt>
      <trkpt lat="42.97091" lon="0.94954">
        <ele>1004</ele>
        <time>2016-12-03T12:13:43.008Z</time>
      </trkpt>
      <trkpt lat="42.97092" lon="0.94941">
        <ele>1004</ele>
        <time>2016-12-03T12:13:45.008Z</time>
      </trkpt>
      <trkpt lat="42.97094" lon="0.94927">
        <ele>1004</ele>
        <time>2016-12-03T12:13:47.008Z</time>
      </trkpt>
      <trkpt lat="42.97094" lon="0.94908">
        <ele>1004</ele>
        <time>2016-12-03T12:13:50.008Z</time>
      </trkpt>
      <trkpt lat="42.97093" lon="0.94896">
        <ele>1003</ele>
        <time>2016-12-03T12:13:52.008Z</time>
      </trkpt>
      <trkpt lat="42.97091" lon="0.94882">
        <ele>1003</ele>
        <time>2016-12-03T12:13:54.008Z</time>
      </trkpt>
      <trkpt lat="42.97087" lon="0.94866">
        <ele>1003</ele>
        <time>2016-12-03T12:13:56.008Z</time>
      </trkpt>
      <trkpt lat="42.97085" lon="0.94851">
        <ele>1003</ele>
        <time>2016-12-03T12:13:58.008Z</time>
      </trkpt>
      <trkpt lat="42.97084" lon="0.94835">
        <ele>1003</ele>
        <time>2016-12-03T12:14:00.008Z</time>
      </trkpt>
      <trkpt lat="42.97084" lon="0.94818">
        <ele>999</ele>
        <time>2016-12-03T12:14:02.008Z</time>
      </trkpt>
      <trkpt lat="42.97084" lon="0.94801">
        <ele>999</ele>
        <time>2016-12-03T12:14:04.008Z</time>
      </trkpt>
      <trkpt lat="42.97084" lon="0.94785">
        <ele>999</ele>
        <time>2016-12-03T12:14:06.008Z</time>
      </trkpt>
      <trkpt lat="42.97086" lon="0.9477">
        <ele>999</ele>
        <time>2016-12-03T12:14:08.008Z</time>
      </trkpt>
      <trkpt lat="42.97091" lon="0.94755">
        <ele>999</ele>
        <time>2016-12-03T12:14:10.008Z</time>
      </trkpt>
      <trkpt lat="42.97097" lon="0.94743">
        <ele>998</ele>
        <time>2016-12-03T12:14:12.008Z</time>
      </trkpt>
      <trkpt lat="42.97102" lon="0.9473">
        <ele>998</ele>
        <time>2016-12-03T12:14:14.008Z</time>
      </trkpt>
      <trkpt lat="42.97102" lon="0.94715">
        <ele>998</ele>
        <time>2016-12-03T12:14:16.008Z</time>
      </trkpt>
      <trkpt lat="42.971" lon="0.947">
        <ele>998</ele>
        <time>2016-12-03T12:14:18.008Z</time>
      </trkpt>
      <trkpt lat="42.97097" lon="0.94685">
        <ele>998</ele>
        <time>2016-12-03T12:14:20.008Z</time>
      </trkpt>
      <trkpt lat="42.97096" lon="0.94671">
        <ele>996</ele>
        <time>2016-12-03T12:14:22.008Z</time>
      </trkpt>
      <trkpt lat="42.97094" lon="0.94657">
        <ele>996</ele>
        <time>2016-12-03T12:14:24.008Z</time>
      </trkpt>
      <trkpt lat="42.97092" lon="0.94644">
        <ele>996</ele>
        <time>2016-12-03T12:14:26.008Z</time>
      </trkpt>
      <trkpt lat="42.97092" lon="0.94629">
        <ele>996</ele>
        <time>2016-12-03T12:14:28.008Z</time>
      </trkpt>
      <trkpt lat="42.97092" lon="0.94614">
        <ele>996</ele>
        <time>2016-12-03T12:14:30.008Z</time>
      </trkpt>
      <trkpt lat="42.97093" lon="0.94598">
        <ele>994</ele>
        <time>2016-12-03T12:14:32.008Z</time>
      </trkpt>
      <trkpt lat="42.97095" lon="0.9458">
        <ele>994</ele>
        <time>2016-12-03T12:14:34.008Z</time>
      </trkpt>
      <trkpt lat="42.97097" lon="0.94562">
        <ele>994</ele>
        <time>2016-12-03T12:14:36.008Z</time>
      </trkpt>
      <trkpt lat="42.97098" lon="0.94542">
        <ele>994</ele>
        <time>2016-12-03T12:14:38.008Z</time>
      </trkpt>
      <trkpt lat="42.971" lon="0.94524">
        <ele>994</ele>
        <time>2016-12-03T12:14:40.008Z</time>
      </trkpt>
      <trkpt lat="42.97103" lon="0.94505">
        <ele>991</ele>
        <time>2016-12-03T12:14:42.008Z</time>
      </trkpt>
      <trkpt lat="42.9711" lon="0.94488">
        <ele>991</ele>
        <time>2016-12-03T12:14:44.008Z</time>
      </trkpt>
      <trkpt lat="42.97113" lon="0.94472">
        <ele>989.95600583687</ele>
        <time>2016-12-03T12:14:46.008Z</time>
      </trkpt>
      <trkpt lat="42.97112" lon="0.94456">
        <ele>988</ele>
        <time>2016-12-03T12:14:48.008Z</time>
      </trkpt>
      <trkpt lat="42.9711" lon="0.9444">
        <ele>988</ele>
        <time>2016-12-03T12:14:50.008Z</time>
      </trkpt>
      <trkpt lat="42.97106" lon="0.94425">
        <ele>987</ele>
        <time>2016-12-03T12:14:52.008Z</time>
      </trkpt>
      <trkpt lat="42.97101" lon="0.94411">
        <ele>987</ele>
        <time>2016-12-03T12:14:54.008Z</time>
      </trkpt>
      <trkpt lat="42.97096" lon="0.94398">
        <ele>987</ele>
        <time>2016-12-03T12:14:56.008Z</time>
      </trkpt>
      <trkpt lat="42.9709" lon="0.94385">
        <ele>987</ele>
        <time>2016-12-03T12:14:58.008Z</time>
      </trkpt>
      <trkpt lat="42.97084" lon="0.94371">
        <ele>987</ele>
        <time>2016-12-03T12:15:00.008Z</time>
      </trkpt>
      <trkpt lat="42.9708" lon="0.94355">
        <ele>985</ele>
        <time>2016-12-03T12:15:02.008Z</time>
      </trkpt>
      <trkpt lat="42.97078" lon="0.94339">
        <ele>985</ele>
        <time>2016-12-03T12:15:04.008Z</time>
      </trkpt>
      <trkpt lat="42.97078" lon="0.94324">
        <ele>985</ele>
        <time>2016-12-03T12:15:06.008Z</time>
      </trkpt>
      <trkpt lat="42.9708" lon="0.9431">
        <ele>985</ele>
        <time>2016-12-03T12:15:08.008Z</time>
      </trkpt>
      <trkpt lat="42.97084" lon="0.94296">
        <ele>985</ele>
        <time>2016-12-03T12:15:10.008Z</time>
      </trkpt>
      <trkpt lat="42.9709" lon="0.94279">
        <ele>985</ele>
        <time>2016-12-03T12:15:13.008Z</time>
      </trkpt>
      <trkpt lat="42.97096" lon="0.94263">
        <ele>985</ele>
        <time>2016-12-03T12:15:16.008Z</time>
      </trkpt>
      <trkpt lat="42.97101" lon="0.94248">
        <ele>985</ele>
        <time>2016-12-03T12:15:19.008Z</time>
      </trkpt>
      <trkpt lat="42.97102" lon="0.94235">
        <ele>984.65199805443</ele>
        <time>2016-12-03T12:15:21.008Z</time>
      </trkpt>
      <trkpt lat="42.97104" lon="0.9422">
        <ele>984</ele>
        <time>2016-12-03T12:15:23.008Z</time>
      </trkpt>
      <trkpt lat="42.97105" lon="0.94202">
        <ele>984</ele>
        <time>2016-12-03T12:15:25.008Z</time>
      </trkpt>
      <trkpt lat="42.97108" lon="0.94184">
        <ele>984</ele>
        <time>2016-12-03T12:15:27.008Z</time>
      </trkpt>
      <trkpt lat="42.97114" lon="0.94168">
        <ele>984</ele>
        <time>2016-12-03T12:15:29.008Z</time>
      </trkpt>
      <trkpt lat="42.9712" lon="0.94153">
        <ele>982.25999027212</ele>
        <time>2016-12-03T12:15:31.008Z</time>
      </trkpt>
      <trkpt lat="42.97124" lon="0.94136">
        <ele>979</ele>
        <time>2016-12-03T12:15:33.008Z</time>
      </trkpt>
      <trkpt lat="42.97126" lon="0.94117">
        <ele>979</ele>
        <time>2016-12-03T12:15:35.008Z</time>
      </trkpt>
      <trkpt lat="42.97128" lon="0.94097">
        <ele>976</ele>
        <time>2016-12-03T12:15:37.008Z</time>
      </trkpt>
      <trkpt lat="42.97128" lon="0.94076">
        <ele>976</ele>
        <time>2016-12-03T12:15:39.008Z</time>
      </trkpt>
      <trkpt lat="42.97129" lon="0.94055">
        <ele>974.95599416328</ele>
        <time>2016-12-03T12:15:41.008Z</time>
      </trkpt>
      <trkpt lat="42.97129" lon="0.94032">
        <ele>971</ele>
        <time>2016-12-03T12:15:43.008Z</time>
      </trkpt>
      <trkpt lat="42.97133" lon="0.9401">
        <ele>970</ele>
        <time>2016-12-03T12:15:45.008Z</time>
      </trkpt>
      <trkpt lat="42.97139" lon="0.93991">
        <ele>969.65199805443</ele>
        <time>2016-12-03T12:15:47.008Z</time>
      </trkpt>
      <trkpt lat="42.97147" lon="0.93974">
        <ele>968</ele>
        <time>2016-12-03T12:15:49.008Z</time>
      </trkpt>
      <trkpt lat="42.97157" lon="0.9396">
        <ele>968</ele>
        <time>2016-12-03T12:15:51.008Z</time>
      </trkpt>
      <trkpt lat="42.97165" lon="0.93944">
        <ele>966.65199805443</ele>
        <time>2016-12-03T12:15:53.008Z</time>
      </trkpt>
      <trkpt lat="42.9717" lon="0.93923">
        <ele>965</ele>
        <time>2016-12-03T12:15:55.008Z</time>
      </trkpt>
      <trkpt lat="42.97172" lon="0.939">
        <ele>965</ele>
        <time>2016-12-03T12:15:57.008Z</time>
      </trkpt>
      <trkpt lat="42.97173" lon="0.93879">
        <ele>963.30399610885</ele>
        <time>2016-12-03T12:15:59.008Z</time>
      </trkpt>
      <trkpt lat="42.97176" lon="0.93857">
        <ele>961</ele>
        <time>2016-12-03T12:16:01.008Z</time>
      </trkpt>
      <trkpt lat="42.9718" lon="0.93837">
        <ele>960.65199805443</ele>
        <time>2016-12-03T12:16:03.008Z</time>
      </trkpt>
      <trkpt lat="42.97184" lon="0.93815">
        <ele>959</ele>
        <time>2016-12-03T12:16:05.008Z</time>
      </trkpt>
      <trkpt lat="42.97188" lon="0.93793">
        <ele>956.65199805443</ele>
        <time>2016-12-03T12:16:07.008Z</time>
      </trkpt>
      <trkpt lat="42.97191" lon="0.93772">
        <ele>955</ele>
        <time>2016-12-03T12:16:09.008Z</time>
      </trkpt>
      <trkpt lat="42.97196" lon="0.93753">
        <ele>955</ele>
        <time>2016-12-03T12:16:11.008Z</time>
      </trkpt>
      <trkpt lat="42.97203" lon="0.93734">
        <ele>954</ele>
        <time>2016-12-03T12:16:13.008Z</time>
      </trkpt>
      <trkpt lat="42.97207" lon="0.93715">
        <ele>952.65199805443</ele>
        <time>2016-12-03T12:16:15.008Z</time>
      </trkpt>
      <trkpt lat="42.97212" lon="0.93696">
        <ele>952</ele>
        <time>2016-12-03T12:16:17.008Z</time>
      </trkpt>
      <trkpt lat="42.97214" lon="0.93676">
        <ele>952</ele>
        <time>2016-12-03T12:16:19.008Z</time>
      </trkpt>
      <trkpt lat="42.97216" lon="0.93657">
        <ele>951.65199805443</ele>
        <time>2016-12-03T12:16:21.008Z</time>
      </trkpt>
      <trkpt lat="42.97216" lon="0.93639">
        <ele>951</ele>
        <time>2016-12-03T12:16:23.008Z</time>
      </trkpt>
      <trkpt lat="42.97216" lon="0.93621">
        <ele>951</ele>
        <time>2016-12-03T12:16:25.008Z</time>
      </trkpt>
      <trkpt lat="42.97215" lon="0.93602">
        <ele>951</ele>
        <time>2016-12-03T12:16:27.008Z</time>
      </trkpt>
      <trkpt lat="42.97216" lon="0.93584">
        <ele>951</ele>
        <time>2016-12-03T12:16:29.008Z</time>
      </trkpt>
      <trkpt lat="42.97217" lon="0.93564">
        <ele>949.97577058337</ele>
        <time>2016-12-03T12:16:31.008Z</time>
      </trkpt>
      <trkpt lat="42.97221" lon="0.93544">
        <ele>948</ele>
        <time>2016-12-03T12:16:33.008Z</time>
      </trkpt>
      <trkpt lat="42.97225" lon="0.93525">
        <ele>948</ele>
        <time>2016-12-03T12:16:35.008Z</time>
      </trkpt>
      <trkpt lat="42.97227" lon="0.93504">
        <ele>944</ele>
        <time>2016-12-03T12:16:37.008Z</time>
      </trkpt>
      <trkpt lat="42.9723" lon="0.93481">
        <ele>944</ele>
        <time>2016-12-03T12:16:39.008Z</time>
      </trkpt>
      <trkpt lat="42.97234" lon="0.93458">
        <ele>943.30399610885</ele>
        <time>2016-12-03T12:16:41.008Z</time>
      </trkpt>
      <trkpt lat="42.97237" lon="0.93435">
        <ele>940.65199805443</ele>
        <time>2016-12-03T12:16:43.008Z</time>
      </trkpt>
      <trkpt lat="42.97241" lon="0.93414">
        <ele>939.65199805443</ele>
        <time>2016-12-03T12:16:45.008Z</time>
      </trkpt>
      <trkpt lat="42.97246" lon="0.93393">
        <ele>938</ele>
        <time>2016-12-03T12:16:47.008Z</time>
      </trkpt>
      <trkpt lat="42.97253" lon="0.93371">
        <ele>936.95599416328</ele>
        <time>2016-12-03T12:16:49.008Z</time>
      </trkpt>
      <trkpt lat="42.97261" lon="0.9335">
        <ele>935.65199805443</ele>
        <time>2016-12-03T12:16:51.008Z</time>
      </trkpt>
      <trkpt lat="42.97268" lon="0.93328">
        <ele>933.65199805443</ele>
        <time>2016-12-03T12:16:53.008Z</time>
      </trkpt>
      <trkpt lat="42.97275" lon="0.93306">
        <ele>932.65199805443</ele>
        <time>2016-12-03T12:16:55.008Z</time>
      </trkpt>
      <trkpt lat="42.97283" lon="0.93285">
        <ele>931.65199805443</ele>
        <time>2016-12-03T12:16:57.008Z</time>
      </trkpt>
      <trkpt lat="42.97293" lon="0.93267">
        <ele>931</ele>
        <time>2016-12-03T12:16:59.008Z</time>
      </trkpt>
      <trkpt lat="42.97303" lon="0.93252">
        <ele>930.65199805443</ele>
        <time>2016-12-03T12:17:01.008Z</time>
      </trkpt>
      <trkpt lat="42.97308" lon="0.93233">
        <ele>930</ele>
        <time>2016-12-03T12:17:03.008Z</time>
      </trkpt>
      <trkpt lat="42.9731" lon="0.93212">
        <ele>930</ele>
        <time>2016-12-03T12:17:05.008Z</time>
      </trkpt>
      <trkpt lat="42.97309" lon="0.93191">
        <ele>930</ele>
        <time>2016-12-03T12:17:07.008Z</time>
      </trkpt>
      <trkpt lat="42.97309" lon="0.93172">
        <ele>929</ele>
        <time>2016-12-03T12:17:09.008Z</time>
      </trkpt>
      <trkpt lat="42.9731" lon="0.93153">
        <ele>928</ele>
        <time>2016-12-03T12:17:11.008Z</time>
      </trkpt>
      <trkpt lat="42.9731" lon="0.93134">
        <ele>928</ele>
        <time>2016-12-03T12:17:13.008Z</time>
      </trkpt>
      <trkpt lat="42.97309" lon="0.93116">
        <ele>928</ele>
        <time>2016-12-03T12:17:15.008Z</time>
      </trkpt>
      <trkpt lat="42.97308" lon="0.931">
        <ele>928</ele>
        <time>2016-12-03T12:17:17.008Z</time>
      </trkpt>
      <trkpt lat="42.97307" lon="0.93083">
        <ele>928</ele>
        <time>2016-12-03T12:17:19.008Z</time>
      </trkpt>
      <trkpt lat="42.97306" lon="0.93068">
        <ele>927.65199805443</ele>
        <time>2016-12-03T12:17:21.008Z</time>
      </trkpt>
      <trkpt lat="42.97304" lon="0.93054">
        <ele>927</ele>
        <time>2016-12-03T12:17:23.008Z</time>
      </trkpt>
      <trkpt lat="42.97302" lon="0.93039">
        <ele>927</ele>
        <time>2016-12-03T12:17:25.008Z</time>
      </trkpt>
      <trkpt lat="42.97299" lon="0.93024">
        <ele>927</ele>
        <time>2016-12-03T12:17:27.008Z</time>
      </trkpt>
      <trkpt lat="42.97295" lon="0.93007">
        <ele>927</ele>
        <time>2016-12-03T12:17:29.008Z</time>
      </trkpt>
      <trkpt lat="42.97293" lon="0.92989">
        <ele>925.95599416328</ele>
        <time>2016-12-03T12:17:31.008Z</time>
      </trkpt>
      <trkpt lat="42.97293" lon="0.92969">
        <ele>924</ele>
        <time>2016-12-03T12:17:33.008Z</time>
      </trkpt>
      <trkpt lat="42.97298" lon="0.92949">
        <ele>924</ele>
        <time>2016-12-03T12:17:35.008Z</time>
      </trkpt>
      <trkpt lat="42.97303" lon="0.9293">
        <ele>921</ele>
        <time>2016-12-03T12:17:37.008Z</time>
      </trkpt>
      <trkpt lat="42.97306" lon="0.92912">
        <ele>921</ele>
        <time>2016-12-03T12:17:39.008Z</time>
      </trkpt>
      <trkpt lat="42.97309" lon="0.92892">
        <ele>920.65544248292</ele>
        <time>2016-12-03T12:17:41.008Z</time>
      </trkpt>
      <trkpt lat="42.97313" lon="0.92873">
        <ele>920</ele>
        <time>2016-12-03T12:17:43.008Z</time>
      </trkpt>
      <trkpt lat="42.97313" lon="0.92856">
        <ele>920</ele>
        <time>2016-12-03T12:17:45.008Z</time>
      </trkpt>
      <trkpt lat="42.9731" lon="0.9284">
        <ele>919</ele>
        <time>2016-12-03T12:17:47.008Z</time>
      </trkpt>
      <trkpt lat="42.97306" lon="0.92822">
        <ele>919</ele>
        <time>2016-12-03T12:17:49.008Z</time>
      </trkpt>
      <trkpt lat="42.97304" lon="0.92805">
        <ele>918.30399610885</ele>
        <time>2016-12-03T12:17:51.008Z</time>
      </trkpt>
      <trkpt lat="42.97303" lon="0.92787">
        <ele>917</ele>
        <time>2016-12-03T12:17:53.008Z</time>
      </trkpt>
      <trkpt lat="42.97302" lon="0.92767">
        <ele>917</ele>
        <time>2016-12-03T12:17:55.008Z</time>
      </trkpt>
      <trkpt lat="42.973" lon="0.92748">
        <ele>916</ele>
        <time>2016-12-03T12:17:57.008Z</time>
      </trkpt>
      <trkpt lat="42.973" lon="0.92729">
        <ele>916</ele>
        <time>2016-12-03T12:17:59.008Z</time>
      </trkpt>
      <trkpt lat="42.973" lon="0.92711">
        <ele>915.30399610885</ele>
        <time>2016-12-03T12:18:01.008Z</time>
      </trkpt>
      <trkpt lat="42.973" lon="0.92693">
        <ele>914</ele>
        <time>2016-12-03T12:18:03.008Z</time>
      </trkpt>
      <trkpt lat="42.97301" lon="0.92675">
        <ele>914</ele>
        <time>2016-12-03T12:18:05.008Z</time>
      </trkpt>
      <trkpt lat="42.97299" lon="0.92657">
        <ele>913</ele>
        <time>2016-12-03T12:18:07.008Z</time>
      </trkpt>
      <trkpt lat="42.97297" lon="0.9264">
        <ele>913</ele>
        <time>2016-12-03T12:18:09.008Z</time>
      </trkpt>
      <trkpt lat="42.97297" lon="0.92622">
        <ele>912.65199805443</ele>
        <time>2016-12-03T12:18:11.008Z</time>
      </trkpt>
      <trkpt lat="42.97297" lon="0.92604">
        <ele>912</ele>
        <time>2016-12-03T12:18:13.008Z</time>
      </trkpt>
      <trkpt lat="42.97298" lon="0.92585">
        <ele>912</ele>
        <time>2016-12-03T12:18:15.008Z</time>
      </trkpt>
      <trkpt lat="42.97298" lon="0.92565">
        <ele>908</ele>
        <time>2016-12-03T12:18:17.008Z</time>
      </trkpt>
      <trkpt lat="42.97297" lon="0.92544">
        <ele>908</ele>
        <time>2016-12-03T12:18:19.008Z</time>
      </trkpt>
      <trkpt lat="42.97297" lon="0.92523">
        <ele>907.30399610885</ele>
        <time>2016-12-03T12:18:21.008Z</time>
      </trkpt>
      <trkpt lat="42.97297" lon="0.92503">
        <ele>905</ele>
        <time>2016-12-03T12:18:23.008Z</time>
      </trkpt>
      <trkpt lat="42.97299" lon="0.92483">
        <ele>905</ele>
        <time>2016-12-03T12:18:25.008Z</time>
      </trkpt>
      <trkpt lat="42.97301" lon="0.92464">
        <ele>904</ele>
        <time>2016-12-03T12:18:27.008Z</time>
      </trkpt>
      <trkpt lat="42.97302" lon="0.92447">
        <ele>904</ele>
        <time>2016-12-03T12:18:29.008Z</time>
      </trkpt>
      <trkpt lat="42.97301" lon="0.92429">
        <ele>903.65199805443</ele>
        <time>2016-12-03T12:18:31.008Z</time>
      </trkpt>
      <trkpt lat="42.97298" lon="0.92413">
        <ele>903</ele>
        <time>2016-12-03T12:18:33.008Z</time>
      </trkpt>
      <trkpt lat="42.97293" lon="0.92397">
        <ele>903</ele>
        <time>2016-12-03T12:18:35.008Z</time>
      </trkpt>
      <trkpt lat="42.97286" lon="0.92381">
        <ele>902</ele>
        <time>2016-12-03T12:18:37.008Z</time>
      </trkpt>
      <trkpt lat="42.9728" lon="0.92367">
        <ele>902</ele>
        <time>2016-12-03T12:18:39.008Z</time>
      </trkpt>
      <trkpt lat="42.97273" lon="0.92352">
        <ele>901.65199805443</ele>
        <time>2016-12-03T12:18:41.008Z</time>
      </trkpt>
      <trkpt lat="42.97266" lon="0.92336">
        <ele>901</ele>
        <time>2016-12-03T12:18:43.008Z</time>
      </trkpt>
      <trkpt lat="42.97261" lon="0.92319">
        <ele>901</ele>
        <time>2016-12-03T12:18:45.008Z</time>
      </trkpt>
      <trkpt lat="42.97258" lon="0.92304">
        <ele>901</ele>
        <time>2016-12-03T12:18:47.008Z</time>
      </trkpt>
      <trkpt lat="42.97257" lon="0.92288">
        <ele>901</ele>
        <time>2016-12-03T12:18:49.008Z</time>
      </trkpt>
      <trkpt lat="42.97256" lon="0.92272">
        <ele>901</ele>
        <time>2016-12-03T12:18:51.008Z</time>
      </trkpt>
      <trkpt lat="42.97251" lon="0.92258">
        <ele>901</ele>
        <time>2016-12-03T12:18:53.008Z</time>
      </trkpt>
      <trkpt lat="42.97249" lon="0.92245">
        <ele>901</ele>
        <time>2016-12-03T12:18:55.008Z</time>
      </trkpt>
      <trkpt lat="42.97244" lon="0.92234">
        <ele>901</ele>
        <time>2016-12-03T12:18:57.008Z</time>
      </trkpt>
      <trkpt lat="42.97239" lon="0.92226">
        <ele>901</ele>
        <time>2016-12-03T12:18:59.008Z</time>
      </trkpt>
      <trkpt lat="42.97232" lon="0.92218">
        <ele>903</ele>
        <time>2016-12-03T12:19:02.008Z</time>
      </trkpt>
      <trkpt lat="42.97223" lon="0.92211">
        <ele>903</ele>
        <time>2016-12-03T12:19:06.008Z</time>
      </trkpt>
      <trkpt lat="42.97214" lon="0.92203">
        <ele>903</ele>
        <time>2016-12-03T12:19:10.008Z</time>
      </trkpt>
      <trkpt lat="42.97205" lon="0.92196">
        <ele>904</ele>
        <time>2016-12-03T12:19:15.008Z</time>
      </trkpt>
      <trkpt lat="42.97195" lon="0.92187">
        <ele>904</ele>
        <time>2016-12-03T12:19:20.008Z</time>
      </trkpt>
      <trkpt lat="42.97186" lon="0.92178">
        <ele>907</ele>
        <time>2016-12-03T12:19:24.008Z</time>
      </trkpt>
      <trkpt lat="42.97179" lon="0.92169">
        <ele>909</ele>
        <time>2016-12-03T12:19:28.008Z</time>
      </trkpt>
      <trkpt lat="42.97172" lon="0.92163">
        <ele>909.69600389115</ele>
        <time>2016-12-03T12:19:31.008Z</time>
      </trkpt>
      <trkpt lat="42.97166" lon="0.92157">
        <ele>911</ele>
        <time>2016-12-03T12:19:34.008Z</time>
      </trkpt>
      <trkpt lat="42.97159" lon="0.92149">
        <ele>913</ele>
        <time>2016-12-03T12:19:38.008Z</time>
      </trkpt>
      <trkpt lat="42.97151" lon="0.9214">
        <ele>913</ele>
        <time>2016-12-03T12:19:43.008Z</time>
      </trkpt>
      <trkpt lat="42.97144" lon="0.9213">
        <ele>914</ele>
        <time>2016-12-03T12:19:47.008Z</time>
      </trkpt>
      <trkpt lat="42.97136" lon="0.92119">
        <ele>914</ele>
        <time>2016-12-03T12:19:51.008Z</time>
      </trkpt>
      <trkpt lat="42.97129" lon="0.92108">
        <ele>914</ele>
        <time>2016-12-03T12:19:55.008Z</time>
      </trkpt>
      <trkpt lat="42.97123" lon="0.921">
        <ele>914</ele>
        <time>2016-12-03T12:19:58.008Z</time>
      </trkpt>
      <trkpt lat="42.97116" lon="0.9209">
        <ele>914.34800194557</ele>
        <time>2016-12-03T12:20:01.008Z</time>
      </trkpt>
      <trkpt lat="42.97109" lon="0.92081">
        <ele>915</ele>
        <time>2016-12-03T12:20:04.008Z</time>
      </trkpt>
      <trkpt lat="42.97102" lon="0.9207">
        <ele>915</ele>
        <time>2016-12-03T12:20:07.008Z</time>
      </trkpt>
      <trkpt lat="42.97091" lon="0.92064">
        <ele>915.34455751708</ele>
        <time>2016-12-03T12:20:11.008Z</time>
      </trkpt>
      <trkpt lat="42.97084" lon="0.92051">
        <ele>916</ele>
        <time>2016-12-03T12:20:15.008Z</time>
      </trkpt>
      <trkpt lat="42.97077" lon="0.92041">
        <ele>916</ele>
        <time>2016-12-03T12:20:18.008Z</time>
      </trkpt>
      <trkpt lat="42.97069" lon="0.92028">
        <ele>916</ele>
        <time>2016-12-03T12:20:22.008Z</time>
      </trkpt>
      <trkpt lat="42.97057" lon="0.92022">
        <ele>916</ele>
        <time>2016-12-03T12:20:26.008Z</time>
      </trkpt>
      <trkpt lat="42.9705" lon="0.92012">
        <ele>916</ele>
        <time>2016-12-03T12:20:29.008Z</time>
      </trkpt>
      <trkpt lat="42.97042" lon="0.92">
        <ele>917</ele>
        <time>2016-12-03T12:20:32.008Z</time>
      </trkpt>
      <trkpt lat="42.97033" lon="0.91988">
        <ele>917</ele>
        <time>2016-12-03T12:20:35.008Z</time>
      </trkpt>
      <trkpt lat="42.97024" lon="0.91979">
        <ele>917</ele>
        <time>2016-12-03T12:20:38.008Z</time>
      </trkpt>
      <trkpt lat="42.97015" lon="0.9197">
        <ele>917.34800194557</ele>
        <time>2016-12-03T12:20:41.008Z</time>
      </trkpt>
      <trkpt lat="42.97008" lon="0.91961">
        <ele>918</ele>
        <time>2016-12-03T12:20:44.008Z</time>
      </trkpt>
      <trkpt lat="42.96999" lon="0.91949">
        <ele>918</ele>
        <time>2016-12-03T12:20:47.008Z</time>
      </trkpt>
      <trkpt lat="42.96991" lon="0.91939">
        <ele>918</ele>
        <time>2016-12-03T12:20:50.008Z</time>
      </trkpt>
      <trkpt lat="42.96982" lon="0.9193">
        <ele>918</ele>
        <time>2016-12-03T12:20:53.008Z</time>
      </trkpt>
      <trkpt lat="42.96977" lon="0.91924">
        <ele>918</ele>
        <time>2016-12-03T12:20:55.008Z</time>
      </trkpt>
      <trkpt lat="42.9697" lon="0.9192">
        <ele>918</ele>
        <time>2016-12-03T12:20:57.008Z</time>
      </trkpt>
      <trkpt lat="42.96964" lon="0.91914">
        <ele>918</ele>
        <time>2016-12-03T12:20:59.008Z</time>
      </trkpt>
      <trkpt lat="42.96957" lon="0.91908">
        <ele>918.34800194557</ele>
        <time>2016-12-03T12:21:01.008Z</time>
      </trkpt>
      <trkpt lat="42.9695" lon="0.91904">
        <ele>919</ele>
        <time>2016-12-03T12:21:03.008Z</time>
      </trkpt>
      <trkpt lat="42.96943" lon="0.91899">
        <ele>919</ele>
        <time>2016-12-03T12:21:05.008Z</time>
      </trkpt>
      <trkpt lat="42.96935" lon="0.91892">
        <ele>919</ele>
        <time>2016-12-03T12:21:07.008Z</time>
      </trkpt>
      <trkpt lat="42.96928" lon="0.91883">
        <ele>919</ele>
        <time>2016-12-03T12:21:09.008Z</time>
      </trkpt>
      <trkpt lat="42.96922" lon="0.91876">
        <ele>919</ele>
        <time>2016-12-03T12:21:11.008Z</time>
      </trkpt>
      <trkpt lat="42.96916" lon="0.91868">
        <ele>919</ele>
        <time>2016-12-03T12:21:13.008Z</time>
      </trkpt>
      <trkpt lat="42.9691" lon="0.91862">
        <ele>919</ele>
        <time>2016-12-03T12:21:15.008Z</time>
      </trkpt>
      <trkpt lat="42.96903" lon="0.91858">
        <ele>919</ele>
        <time>2016-12-03T12:21:17.008Z</time>
      </trkpt>
      <trkpt lat="42.96896" lon="0.91858">
        <ele>919</ele>
        <time>2016-12-03T12:21:19.008Z</time>
      </trkpt>
      <trkpt lat="42.96886" lon="0.91854">
        <ele>920</ele>
        <time>2016-12-03T12:21:22.008Z</time>
      </trkpt>
      <trkpt lat="42.96881" lon="0.91847">
        <ele>920</ele>
        <time>2016-12-03T12:21:24.008Z</time>
      </trkpt>
      <trkpt lat="42.96876" lon="0.91838">
        <ele>920</ele>
        <time>2016-12-03T12:21:26.008Z</time>
      </trkpt>
      <trkpt lat="42.9687" lon="0.9183">
        <ele>920</ele>
        <time>2016-12-03T12:21:28.008Z</time>
      </trkpt>
      <trkpt lat="42.96865" lon="0.91824">
        <ele>920</ele>
        <time>2016-12-03T12:21:30.008Z</time>
      </trkpt>
      <trkpt lat="42.96859" lon="0.91818">
        <ele>920</ele>
        <time>2016-12-03T12:21:32.008Z</time>
      </trkpt>
      <trkpt lat="42.96853" lon="0.91811">
        <ele>920</ele>
        <time>2016-12-03T12:21:34.008Z</time>
      </trkpt>
      <trkpt lat="42.96847" lon="0.91803">
        <ele>920</ele>
        <time>2016-12-03T12:21:36.008Z</time>
      </trkpt>
      <trkpt lat="42.9684" lon="0.91793">
        <ele>920</ele>
        <time>2016-12-03T12:21:38.008Z</time>
      </trkpt>
      <trkpt lat="42.96831" lon="0.91783">
        <ele>920</ele>
        <time>2016-12-03T12:21:40.008Z</time>
      </trkpt>
      <trkpt lat="42.96819" lon="0.91774">
        <ele>919</ele>
        <time>2016-12-03T12:21:42.008Z</time>
      </trkpt>
      <trkpt lat="42.96813" lon="0.91769">
        <ele>919</ele>
        <time>2016-12-03T12:21:43.008Z</time>
      </trkpt>
      <trkpt lat="42.96806" lon="0.91765">
        <ele>919</ele>
        <time>2016-12-03T12:21:44.008Z</time>
      </trkpt>
      <trkpt lat="42.96799" lon="0.9176">
        <ele>919</ele>
        <time>2016-12-03T12:21:45.008Z</time>
      </trkpt>
      <trkpt lat="42.96792" lon="0.91754">
        <ele>919</ele>
        <time>2016-12-03T12:21:46.008Z</time>
      </trkpt>
      <trkpt lat="42.96786" lon="0.91747">
        <ele>919</ele>
        <time>2016-12-03T12:21:47.008Z</time>
      </trkpt>
      <trkpt lat="42.96781" lon="0.91739">
        <ele>919</ele>
        <time>2016-12-03T12:21:48.008Z</time>
      </trkpt>
      <trkpt lat="42.96776" lon="0.9173">
        <ele>919</ele>
        <time>2016-12-03T12:21:49.008Z</time>
      </trkpt>
      <trkpt lat="42.96772" lon="0.9172">
        <ele>919</ele>
        <time>2016-12-03T12:21:50.008Z</time>
      </trkpt>
      <trkpt lat="42.96769" lon="0.9171">
        <ele>916.2159844354</ele>
        <time>2016-12-03T12:21:51.008Z</time>
      </trkpt>
      <trkpt lat="42.96765" lon="0.917">
        <ele>909.95600583687</ele>
        <time>2016-12-03T12:21:52.008Z</time>
      </trkpt>
      <trkpt lat="42.96761" lon="0.9169">
        <ele>907.65199805443</ele>
        <time>2016-12-03T12:21:53.008Z</time>
      </trkpt>
      <trkpt lat="42.96758" lon="0.9168">
        <ele>906.65200194562</ele>
        <time>2016-12-03T12:21:54.008Z</time>
      </trkpt>
      <trkpt lat="42.96755" lon="0.9167">
        <ele>905.65199805443</ele>
        <time>2016-12-03T12:21:55.008Z</time>
      </trkpt>
      <trkpt lat="42.96753" lon="0.91659">
        <ele>904.65200194562</ele>
        <time>2016-12-03T12:21:56.008Z</time>
      </trkpt>
      <trkpt lat="42.96752" lon="0.91648">
        <ele>903.65199805443</ele>
        <time>2016-12-03T12:21:57.008Z</time>
      </trkpt>
      <trkpt lat="42.9675" lon="0.91638">
        <ele>902.65200194562</ele>
        <time>2016-12-03T12:21:58.008Z</time>
      </trkpt>
      <trkpt lat="42.9675" lon="0.91628">
        <ele>902</ele>
        <time>2016-12-03T12:21:59.008Z</time>
      </trkpt>
      <trkpt lat="42.96753" lon="0.91609">
        <ele>899.95599416328</ele>
        <time>2016-12-03T12:22:01.008Z</time>
      </trkpt>
      <trkpt lat="42.96757" lon="0.9159">
        <ele>896.65199805443</ele>
        <time>2016-12-03T12:22:03.008Z</time>
      </trkpt>
      <trkpt lat="42.9676" lon="0.91571">
        <ele>894.65199805443</ele>
        <time>2016-12-03T12:22:05.008Z</time>
      </trkpt>
      <trkpt lat="42.96761" lon="0.91551">
        <ele>894</ele>
        <time>2016-12-03T12:22:07.008Z</time>
      </trkpt>
      <trkpt lat="42.96761" lon="0.91532">
        <ele>891.30399610885</ele>
        <time>2016-12-03T12:22:09.008Z</time>
      </trkpt>
      <trkpt lat="42.96762" lon="0.91514">
        <ele>889</ele>
        <time>2016-12-03T12:22:11.008Z</time>
      </trkpt>
      <trkpt lat="42.96765" lon="0.91495">
        <ele>886.65199805443</ele>
        <time>2016-12-03T12:22:13.008Z</time>
      </trkpt>
      <trkpt lat="42.96767" lon="0.91476">
        <ele>885.65199805443</ele>
        <time>2016-12-03T12:22:15.008Z</time>
      </trkpt>
      <trkpt lat="42.96765" lon="0.91457">
        <ele>884</ele>
        <time>2016-12-03T12:22:17.008Z</time>
      </trkpt>
      <trkpt lat="42.96762" lon="0.91441">
        <ele>882.65199805443</ele>
        <time>2016-12-03T12:22:19.008Z</time>
      </trkpt>
      <trkpt lat="42.96759" lon="0.91426">
        <ele>880.65199805443</ele>
        <time>2016-12-03T12:22:21.008Z</time>
      </trkpt>
      <trkpt lat="42.96765" lon="0.91417">
        <ele>879.65200194562</ele>
        <time>2016-12-03T12:22:24.008Z</time>
      </trkpt>
      <trkpt lat="42.96771" lon="0.91429">
        <ele>878</ele>
        <time>2016-12-03T12:22:26.008Z</time>
      </trkpt>
      <trkpt lat="42.96778" lon="0.91446">
        <ele>877</ele>
        <time>2016-12-03T12:22:28.008Z</time>
      </trkpt>
      <trkpt lat="42.96784" lon="0.91463">
        <ele>875.65200194562</ele>
        <time>2016-12-03T12:22:30.008Z</time>
      </trkpt>
      <trkpt lat="42.96789" lon="0.91481">
        <ele>873.65200194562</ele>
        <time>2016-12-03T12:22:32.008Z</time>
      </trkpt>
      <trkpt lat="42.96795" lon="0.915">
        <ele>871.65200194562</ele>
        <time>2016-12-03T12:22:34.008Z</time>
      </trkpt>
      <trkpt lat="42.968" lon="0.91518">
        <ele>870</ele>
        <time>2016-12-03T12:22:36.008Z</time>
      </trkpt>
      <trkpt lat="42.96808" lon="0.91536">
        <ele>868.65200194562</ele>
        <time>2016-12-03T12:22:38.008Z</time>
      </trkpt>
      <trkpt lat="42.96815" lon="0.91553">
        <ele>866.65200194562</ele>
        <time>2016-12-03T12:22:40.008Z</time>
      </trkpt>
      <trkpt lat="42.96822" lon="0.91571">
        <ele>864.30400389125</ele>
        <time>2016-12-03T12:22:42.008Z</time>
      </trkpt>
      <trkpt lat="42.96828" lon="0.9159">
        <ele>862</ele>
        <time>2016-12-03T12:22:44.008Z</time>
      </trkpt>
      <trkpt lat="42.96835" lon="0.91607">
        <ele>860.65200194562</ele>
        <time>2016-12-03T12:22:46.008Z</time>
      </trkpt>
      <trkpt lat="42.96843" lon="0.91617">
        <ele>858.65200194562</ele>
        <time>2016-12-03T12:22:48.008Z</time>
      </trkpt>
      <trkpt lat="42.96857" lon="0.91617">
        <ele>855.65200194562</ele>
        <time>2016-12-03T12:22:50.008Z</time>
      </trkpt>
      <trkpt lat="42.96869" lon="0.91612">
        <ele>853.30400389125</ele>
        <time>2016-12-03T12:22:52.008Z</time>
      </trkpt>
      <trkpt lat="42.96879" lon="0.91604">
        <ele>850.65200194562</ele>
        <time>2016-12-03T12:22:54.008Z</time>
      </trkpt>
      <trkpt lat="42.96886" lon="0.91591">
        <ele>849.65200194562</ele>
        <time>2016-12-03T12:22:56.008Z</time>
      </trkpt>
      <trkpt lat="42.96893" lon="0.91574">
        <ele>847.65200194562</ele>
        <time>2016-12-03T12:22:58.008Z</time>
      </trkpt>
      <trkpt lat="42.96901" lon="0.91556">
        <ele>845.65200194562</ele>
        <time>2016-12-03T12:23:00.008Z</time>
      </trkpt>
      <trkpt lat="42.96908" lon="0.91539">
        <ele>843</ele>
        <time>2016-12-03T12:23:02.008Z</time>
      </trkpt>
      <trkpt lat="42.96911" lon="0.91531">
        <ele>843</ele>
        <time>2016-12-03T12:23:03.008Z</time>
      </trkpt>
      <trkpt lat="42.96918" lon="0.91516">
        <ele>840.30399610885</ele>
        <time>2016-12-03T12:23:05.008Z</time>
      </trkpt>
      <trkpt lat="42.96927" lon="0.91507">
        <ele>839</ele>
        <time>2016-12-03T12:23:07.008Z</time>
      </trkpt>
      <trkpt lat="42.96937" lon="0.91509">
        <ele>839</ele>
        <time>2016-12-03T12:23:09.008Z</time>
      </trkpt>
      <trkpt lat="42.96945" lon="0.91518">
        <ele>838</ele>
        <time>2016-12-03T12:23:11.008Z</time>
      </trkpt>
      <trkpt lat="42.96953" lon="0.91528">
        <ele>837.65199805443</ele>
        <time>2016-12-03T12:23:13.008Z</time>
      </trkpt>
      <trkpt lat="42.96957" lon="0.91534">
        <ele>836.65200194562</ele>
        <time>2016-12-03T12:23:14.008Z</time>
      </trkpt>
      <trkpt lat="42.96962" lon="0.9154">
        <ele>835.65199805443</ele>
        <time>2016-12-03T12:23:15.008Z</time>
      </trkpt>
      <trkpt lat="42.96967" lon="0.91546">
        <ele>834.65200194562</ele>
        <time>2016-12-03T12:23:16.008Z</time>
      </trkpt>
      <trkpt lat="42.96971" lon="0.91552">
        <ele>833.30399610885</ele>
        <time>2016-12-03T12:23:17.008Z</time>
      </trkpt>
      <trkpt lat="42.96983" lon="0.91557">
        <ele>831</ele>
        <time>2016-12-03T12:23:19.008Z</time>
      </trkpt>
      <trkpt lat="42.97002" lon="0.91555">
        <ele>829.65199805443</ele>
        <time>2016-12-03T12:23:21.008Z</time>
      </trkpt>
      <trkpt lat="42.97021" lon="0.91551">
        <ele>828.30399610885</ele>
        <time>2016-12-03T12:23:23.008Z</time>
      </trkpt>
      <trkpt lat="42.97031" lon="0.91548">
        <ele>826.65200194562</ele>
        <time>2016-12-03T12:23:24.008Z</time>
      </trkpt>
      <trkpt lat="42.9704" lon="0.91545">
        <ele>825.65199805443</ele>
        <time>2016-12-03T12:23:25.008Z</time>
      </trkpt>
      <trkpt lat="42.97049" lon="0.91542">
        <ele>824.30400389125</ele>
        <time>2016-12-03T12:23:26.008Z</time>
      </trkpt>
      <trkpt lat="42.97057" lon="0.91539">
        <ele>822.65199805443</ele>
        <time>2016-12-03T12:23:27.008Z</time>
      </trkpt>
      <trkpt lat="42.97065" lon="0.91538">
        <ele>821.30400389125</ele>
        <time>2016-12-03T12:23:28.008Z</time>
      </trkpt>
      <trkpt lat="42.97073" lon="0.91538">
        <ele>819.65199805443</ele>
        <time>2016-12-03T12:23:29.008Z</time>
      </trkpt>
      <trkpt lat="42.97081" lon="0.9154">
        <ele>818.65200194562</ele>
        <time>2016-12-03T12:23:30.008Z</time>
      </trkpt>
      <trkpt lat="42.97089" lon="0.91543">
        <ele>818</ele>
        <time>2016-12-03T12:23:31.008Z</time>
      </trkpt>
      <trkpt lat="42.97097" lon="0.91548">
        <ele>818.34799805438</ele>
        <time>2016-12-03T12:23:32.008Z</time>
      </trkpt>
      <trkpt lat="42.97106" lon="0.91552">
        <ele>819</ele>
        <time>2016-12-03T12:23:33.008Z</time>
      </trkpt>
      <trkpt lat="42.97114" lon="0.91555">
        <ele>818.30400389125</ele>
        <time>2016-12-03T12:23:34.008Z</time>
      </trkpt>
      <trkpt lat="42.97123" lon="0.91557">
        <ele>816.65199805443</ele>
        <time>2016-12-03T12:23:35.008Z</time>
      </trkpt>
      <trkpt lat="42.97133" lon="0.91558">
        <ele>816</ele>
        <time>2016-12-03T12:23:36.008Z</time>
      </trkpt>
      <trkpt lat="42.97142" lon="0.91557">
        <ele>815.65199805443</ele>
        <time>2016-12-03T12:23:37.008Z</time>
      </trkpt>
      <trkpt lat="42.97152" lon="0.91555">
        <ele>815</ele>
        <time>2016-12-03T12:23:38.008Z</time>
      </trkpt>
      <trkpt lat="42.97161" lon="0.91553">
        <ele>814.65199805443</ele>
        <time>2016-12-03T12:23:39.008Z</time>
      </trkpt>
      <trkpt lat="42.97171" lon="0.91551">
        <ele>813.65200194562</ele>
        <time>2016-12-03T12:23:40.008Z</time>
      </trkpt>
      <trkpt lat="42.97179" lon="0.91548">
        <ele>812.65199805443</ele>
        <time>2016-12-03T12:23:41.008Z</time>
      </trkpt>
      <trkpt lat="42.97188" lon="0.91545">
        <ele>812</ele>
        <time>2016-12-03T12:23:42.008Z</time>
      </trkpt>
      <trkpt lat="42.97196" lon="0.91543">
        <ele>811.65199805443</ele>
        <time>2016-12-03T12:23:43.008Z</time>
      </trkpt>
      <trkpt lat="42.97204" lon="0.9154">
        <ele>810.65200194562</ele>
        <time>2016-12-03T12:23:44.008Z</time>
      </trkpt>
      <trkpt lat="42.97211" lon="0.91536">
        <ele>809.65199805443</ele>
        <time>2016-12-03T12:23:45.008Z</time>
      </trkpt>
      <trkpt lat="42.97217" lon="0.91531">
        <ele>808.65200194562</ele>
        <time>2016-12-03T12:23:46.008Z</time>
      </trkpt>
      <trkpt lat="42.97223" lon="0.91524">
        <ele>807.65199805443</ele>
        <time>2016-12-03T12:23:47.008Z</time>
      </trkpt>
      <trkpt lat="42.97228" lon="0.91517">
        <ele>807</ele>
        <time>2016-12-03T12:23:48.008Z</time>
      </trkpt>
      <trkpt lat="42.97234" lon="0.91509">
        <ele>806.65544248292</ele>
        <time>2016-12-03T12:23:49.008Z</time>
      </trkpt>
      <trkpt lat="42.97241" lon="0.915">
        <ele>805.65858578023</ele>
        <time>2016-12-03T12:23:50.008Z</time>
      </trkpt>
      <trkpt lat="42.97247" lon="0.91491">
        <ele>804.65199805443</ele>
        <time>2016-12-03T12:23:51.008Z</time>
      </trkpt>
      <trkpt lat="42.97253" lon="0.91482">
        <ele>804</ele>
        <time>2016-12-03T12:23:52.008Z</time>
      </trkpt>
      <trkpt lat="42.97259" lon="0.91473">
        <ele>803.30399610885</ele>
        <time>2016-12-03T12:23:53.008Z</time>
      </trkpt>
      <trkpt lat="42.97265" lon="0.91466">
        <ele>801.65200194562</ele>
        <time>2016-12-03T12:23:54.008Z</time>
      </trkpt>
      <trkpt lat="42.9727" lon="0.91459">
        <ele>800.65199805443</ele>
        <time>2016-12-03T12:23:55.008Z</time>
      </trkpt>
      <trkpt lat="42.97273" lon="0.91456">
        <ele>799.65200194562</ele>
        <time>2016-12-03T12:23:56.008Z</time>
      </trkpt>
      <trkpt lat="42.97277" lon="0.91453">
        <ele>799</ele>
        <time>2016-12-03T12:23:57.008Z</time>
      </trkpt>
      <trkpt lat="42.97281" lon="0.9145">
        <ele>800</ele>
        <time>2016-12-03T12:23:59.008Z</time>
      </trkpt>
      <trkpt lat="42.97282" lon="0.91446">
        <ele>799</ele>
        <time>2016-12-03T12:24:07.008Z</time>
      </trkpt>
      <trkpt lat="42.9728" lon="0.91441">
        <ele>799</ele>
        <time>2016-12-03T12:24:10.008Z</time>
      </trkpt>
      <trkpt lat="42.97277" lon="0.91437">
        <ele>800</ele>
        <time>2016-12-03T12:24:13.008Z</time>
      </trkpt>
      <trkpt lat="42.97275" lon="0.91433">
        <ele>800</ele>
        <time>2016-12-03T12:24:15.008Z</time>
      </trkpt>
      <trkpt lat="42.97272" lon="0.9143">
        <ele>800</ele>
        <time>2016-12-03T12:24:17.008Z</time>
      </trkpt>
      <trkpt lat="42.97269" lon="0.91425">
        <ele>800</ele>
        <time>2016-12-03T12:24:19.008Z</time>
      </trkpt>
      <trkpt lat="42.97265" lon="0.91419">
        <ele>800.34800194557</ele>
        <time>2016-12-03T12:24:21.008Z</time>
      </trkpt>
      <trkpt lat="42.97262" lon="0.91416">
        <ele>801</ele>
        <time>2016-12-03T12:24:22.008Z</time>
      </trkpt>
      <trkpt lat="42.9726" lon="0.91413">
        <ele>801</ele>
        <time>2016-12-03T12:24:23.008Z</time>
      </trkpt>
      <trkpt lat="42.97253" lon="0.91407">
        <ele>801</ele>
        <time>2016-12-03T12:24:25.008Z</time>
      </trkpt>
      <trkpt lat="42.97246" lon="0.91401">
        <ele>801</ele>
        <time>2016-12-03T12:24:27.008Z</time>
      </trkpt>
      <trkpt lat="42.97242" lon="0.91399">
        <ele>801</ele>
        <time>2016-12-03T12:24:28.008Z</time>
      </trkpt>
      <trkpt lat="42.97239" lon="0.91396">
        <ele>801</ele>
        <time>2016-12-03T12:24:29.008Z</time>
      </trkpt>
      <trkpt lat="42.97235" lon="0.91394">
        <ele>801</ele>
        <time>2016-12-03T12:24:30.008Z</time>
      </trkpt>
      <trkpt lat="42.97231" lon="0.91391">
        <ele>801</ele>
        <time>2016-12-03T12:24:31.008Z</time>
      </trkpt>
      <trkpt lat="42.97224" lon="0.91383">
        <ele>801</ele>
        <time>2016-12-03T12:24:33.008Z</time>
      </trkpt>
      <trkpt lat="42.97217" lon="0.91376">
        <ele>801</ele>
        <time>2016-12-03T12:24:35.008Z</time>
      </trkpt>
      <trkpt lat="42.9721" lon="0.91368">
        <ele>801</ele>
        <time>2016-12-03T12:24:37.008Z</time>
      </trkpt>
      <trkpt lat="42.97205" lon="0.91359">
        <ele>801</ele>
        <time>2016-12-03T12:24:39.008Z</time>
      </trkpt>
      <trkpt lat="42.97203" lon="0.91353">
        <ele>801</ele>
        <time>2016-12-03T12:24:40.008Z</time>
      </trkpt>
      <trkpt lat="42.97198" lon="0.91339">
        <ele>799</ele>
        <time>2016-12-03T12:24:42.008Z</time>
      </trkpt>
      <trkpt lat="42.97195" lon="0.91331">
        <ele>799</ele>
        <time>2016-12-03T12:24:43.008Z</time>
      </trkpt>
      <trkpt lat="42.97192" lon="0.91322">
        <ele>799</ele>
        <time>2016-12-03T12:24:44.008Z</time>
      </trkpt>
      <trkpt lat="42.97188" lon="0.91314">
        <ele>799</ele>
        <time>2016-12-03T12:24:45.008Z</time>
      </trkpt>
      <trkpt lat="42.97185" lon="0.91304">
        <ele>799</ele>
        <time>2016-12-03T12:24:46.008Z</time>
      </trkpt>
      <trkpt lat="42.97182" lon="0.91294">
        <ele>799</ele>
        <time>2016-12-03T12:24:47.008Z</time>
      </trkpt>
      <trkpt lat="42.9718" lon="0.91284">
        <ele>799</ele>
        <time>2016-12-03T12:24:48.008Z</time>
      </trkpt>
      <trkpt lat="42.97178" lon="0.91274">
        <ele>799</ele>
        <time>2016-12-03T12:24:49.008Z</time>
      </trkpt>
      <trkpt lat="42.97175" lon="0.91264">
        <ele>799</ele>
        <time>2016-12-03T12:24:50.008Z</time>
      </trkpt>
      <trkpt lat="42.9717" lon="0.91255">
        <ele>797.95599416328</ele>
        <time>2016-12-03T12:24:51.008Z</time>
      </trkpt>
      <trkpt lat="42.97164" lon="0.91246">
        <ele>796</ele>
        <time>2016-12-03T12:24:52.008Z</time>
      </trkpt>
      <trkpt lat="42.97158" lon="0.91238">
        <ele>796</ele>
        <time>2016-12-03T12:24:53.008Z</time>
      </trkpt>
      <trkpt lat="42.97151" lon="0.91229">
        <ele>796</ele>
        <time>2016-12-03T12:24:54.008Z</time>
      </trkpt>
      <trkpt lat="42.97145" lon="0.9122">
        <ele>796</ele>
        <time>2016-12-03T12:24:55.008Z</time>
      </trkpt>
      <trkpt lat="42.97138" lon="0.91211">
        <ele>793.91201167375</ele>
        <time>2016-12-03T12:24:56.008Z</time>
      </trkpt>
      <trkpt lat="42.97132" lon="0.91201">
        <ele>790</ele>
        <time>2016-12-03T12:24:57.008Z</time>
      </trkpt>
      <trkpt lat="42.97128" lon="0.9119">
        <ele>790</ele>
        <time>2016-12-03T12:24:58.008Z</time>
      </trkpt>
      <trkpt lat="42.97124" lon="0.91178">
        <ele>790</ele>
        <time>2016-12-03T12:24:59.008Z</time>
      </trkpt>
      <trkpt lat="42.97122" lon="0.91166">
        <ele>790</ele>
        <time>2016-12-03T12:25:00.008Z</time>
      </trkpt>
      <trkpt lat="42.9712" lon="0.91155">
        <ele>787.95154116674</ele>
        <time>2016-12-03T12:25:01.008Z</time>
      </trkpt>
      <trkpt lat="42.97117" lon="0.91143">
        <ele>783.65200194562</ele>
        <time>2016-12-03T12:25:02.008Z</time>
      </trkpt>
      <trkpt lat="42.97115" lon="0.91133">
        <ele>782.65199805443</ele>
        <time>2016-12-03T12:25:03.008Z</time>
      </trkpt>
      <trkpt lat="42.97111" lon="0.91123">
        <ele>782</ele>
        <time>2016-12-03T12:25:04.008Z</time>
      </trkpt>
      <trkpt lat="42.97105" lon="0.91116">
        <ele>781.30399610885</ele>
        <time>2016-12-03T12:25:05.008Z</time>
      </trkpt>
      <trkpt lat="42.97098" lon="0.91111">
        <ele>780</ele>
        <time>2016-12-03T12:25:06.008Z</time>
      </trkpt>
      <trkpt lat="42.97089" lon="0.91109">
        <ele>780</ele>
        <time>2016-12-03T12:25:07.008Z</time>
      </trkpt>
      <trkpt lat="42.9708" lon="0.91106">
        <ele>779.65200194562</ele>
        <time>2016-12-03T12:25:08.008Z</time>
      </trkpt>
      <trkpt lat="42.97071" lon="0.91101">
        <ele>778.30399610885</ele>
        <time>2016-12-03T12:25:09.008Z</time>
      </trkpt>
      <trkpt lat="42.97063" lon="0.91096">
        <ele>776.65200194562</ele>
        <time>2016-12-03T12:25:10.008Z</time>
      </trkpt>
      <trkpt lat="42.97054" lon="0.9109">
        <ele>775.65199805443</ele>
        <time>2016-12-03T12:25:11.008Z</time>
      </trkpt>
      <trkpt lat="42.97045" lon="0.91086">
        <ele>774.65200194562</ele>
        <time>2016-12-03T12:25:12.008Z</time>
      </trkpt>
      <trkpt lat="42.97029" lon="0.91085">
        <ele>771.65200194562</ele>
        <time>2016-12-03T12:25:14.008Z</time>
      </trkpt>
      <trkpt lat="42.97021" lon="0.91087">
        <ele>771</ele>
        <time>2016-12-03T12:25:15.008Z</time>
      </trkpt>
      <trkpt lat="42.97015" lon="0.91092">
        <ele>771</ele>
        <time>2016-12-03T12:25:16.008Z</time>
      </trkpt>
      <trkpt lat="42.9701" lon="0.91099">
        <ele>770.65199805443</ele>
        <time>2016-12-03T12:25:17.008Z</time>
      </trkpt>
      <trkpt lat="42.97005" lon="0.91107">
        <ele>769.65200194562</ele>
        <time>2016-12-03T12:25:18.008Z</time>
      </trkpt>
      <trkpt lat="42.97001" lon="0.91116">
        <ele>769</ele>
        <time>2016-12-03T12:25:19.008Z</time>
      </trkpt>
      <trkpt lat="42.96996" lon="0.91123">
        <ele>768.65200194562</ele>
        <time>2016-12-03T12:25:20.008Z</time>
      </trkpt>
      <trkpt lat="42.96989" lon="0.91129">
        <ele>768</ele>
        <time>2016-12-03T12:25:21.008Z</time>
      </trkpt>
      <trkpt lat="42.96982" lon="0.91133">
        <ele>767.65200194562</ele>
        <time>2016-12-03T12:25:22.008Z</time>
      </trkpt>
      <trkpt lat="42.96974" lon="0.91135">
        <ele>766.30399610885</ele>
        <time>2016-12-03T12:25:23.008Z</time>
      </trkpt>
      <trkpt lat="42.96967" lon="0.91137">
        <ele>764.65200194562</ele>
        <time>2016-12-03T12:25:24.008Z</time>
      </trkpt>
      <trkpt lat="42.96961" lon="0.91137">
        <ele>763.65199805443</ele>
        <time>2016-12-03T12:25:25.008Z</time>
      </trkpt>
      <trkpt lat="42.96954" lon="0.91137">
        <ele>762.65200194562</ele>
        <time>2016-12-03T12:25:26.008Z</time>
      </trkpt>
      <trkpt lat="42.96947" lon="0.91135">
        <ele>762</ele>
        <time>2016-12-03T12:25:27.008Z</time>
      </trkpt>
      <trkpt lat="42.9694" lon="0.91133">
        <ele>761.65200194562</ele>
        <time>2016-12-03T12:25:28.008Z</time>
      </trkpt>
      <trkpt lat="42.96934" lon="0.9113">
        <ele>760.65199805443</ele>
        <time>2016-12-03T12:25:29.008Z</time>
      </trkpt>
      <trkpt lat="42.96924" lon="0.91122">
        <ele>758.65199805443</ele>
        <time>2016-12-03T12:25:31.008Z</time>
      </trkpt>
      <trkpt lat="42.96917" lon="0.91108">
        <ele>758</ele>
        <time>2016-12-03T12:25:33.008Z</time>
      </trkpt>
      <trkpt lat="42.96912" lon="0.91091">
        <ele>757</ele>
        <time>2016-12-03T12:25:35.008Z</time>
      </trkpt>
      <trkpt lat="42.96911" lon="0.91081">
        <ele>756.65200194562</ele>
        <time>2016-12-03T12:25:36.008Z</time>
      </trkpt>
      <trkpt lat="42.9691" lon="0.91071">
        <ele>755.65199805443</ele>
        <time>2016-12-03T12:25:37.008Z</time>
      </trkpt>
      <trkpt lat="42.96909" lon="0.91061">
        <ele>755</ele>
        <time>2016-12-03T12:25:38.008Z</time>
      </trkpt>
      <trkpt lat="42.96908" lon="0.9105">
        <ele>754.65199805443</ele>
        <time>2016-12-03T12:25:39.008Z</time>
      </trkpt>
      <trkpt lat="42.96907" lon="0.9104">
        <ele>754</ele>
        <time>2016-12-03T12:25:40.008Z</time>
      </trkpt>
      <trkpt lat="42.96905" lon="0.91029">
        <ele>753.65199805443</ele>
        <time>2016-12-03T12:25:41.008Z</time>
      </trkpt>
      <trkpt lat="42.96903" lon="0.91018">
        <ele>753</ele>
        <time>2016-12-03T12:25:42.008Z</time>
      </trkpt>
      <trkpt lat="42.96902" lon="0.91007">
        <ele>753</ele>
        <time>2016-12-03T12:25:43.008Z</time>
      </trkpt>
      <trkpt lat="42.969" lon="0.90997">
        <ele>753</ele>
        <time>2016-12-03T12:25:44.008Z</time>
      </trkpt>
      <trkpt lat="42.96898" lon="0.90989">
        <ele>753</ele>
        <time>2016-12-03T12:25:45.008Z</time>
      </trkpt>
      <trkpt lat="42.96895" lon="0.9098">
        <ele>751.95600583687</ele>
        <time>2016-12-03T12:25:46.008Z</time>
      </trkpt>
      <trkpt lat="42.96893" lon="0.90971">
        <ele>750</ele>
        <time>2016-12-03T12:25:47.008Z</time>
      </trkpt>
      <trkpt lat="42.96891" lon="0.90963">
        <ele>750</ele>
        <time>2016-12-03T12:25:48.008Z</time>
      </trkpt>
      <trkpt lat="42.96888" lon="0.90954">
        <ele>750</ele>
        <time>2016-12-03T12:25:49.008Z</time>
      </trkpt>
      <trkpt lat="42.96884" lon="0.90946">
        <ele>750</ele>
        <time>2016-12-03T12:25:50.008Z</time>
      </trkpt>
      <trkpt lat="42.96879" lon="0.9094">
        <ele>748.6079922177</ele>
        <time>2016-12-03T12:25:51.008Z</time>
      </trkpt>
      <trkpt lat="42.96873" lon="0.90936">
        <ele>745.30400389125</ele>
        <time>2016-12-03T12:25:52.008Z</time>
      </trkpt>
      <trkpt lat="42.96866" lon="0.90933">
        <ele>744</ele>
        <time>2016-12-03T12:25:53.008Z</time>
      </trkpt>
      <trkpt lat="42.96859" lon="0.90931">
        <ele>743.65200194562</ele>
        <time>2016-12-03T12:25:54.008Z</time>
      </trkpt>
      <trkpt lat="42.96852" lon="0.90928">
        <ele>742.65199805443</ele>
        <time>2016-12-03T12:25:55.008Z</time>
      </trkpt>
      <trkpt lat="42.96845" lon="0.90923">
        <ele>741.65200194562</ele>
        <time>2016-12-03T12:25:56.008Z</time>
      </trkpt>
      <trkpt lat="42.9684" lon="0.90917">
        <ele>741</ele>
        <time>2016-12-03T12:25:57.008Z</time>
      </trkpt>
      <trkpt lat="42.96835" lon="0.90909">
        <ele>740.65200194562</ele>
        <time>2016-12-03T12:25:58.008Z</time>
      </trkpt>
      <trkpt lat="42.96831" lon="0.90899">
        <ele>740</ele>
        <time>2016-12-03T12:25:59.008Z</time>
      </trkpt>
      <trkpt lat="42.96829" lon="0.90888">
        <ele>739.65200194562</ele>
        <time>2016-12-03T12:26:00.008Z</time>
      </trkpt>
      <trkpt lat="42.96828" lon="0.90877">
        <ele>738.65199805443</ele>
        <time>2016-12-03T12:26:01.008Z</time>
      </trkpt>
      <trkpt lat="42.96828" lon="0.90866">
        <ele>738</ele>
        <time>2016-12-03T12:26:02.008Z</time>
      </trkpt>
      <trkpt lat="42.96826" lon="0.90856">
        <ele>738</ele>
        <time>2016-12-03T12:26:03.008Z</time>
      </trkpt>
      <trkpt lat="42.96823" lon="0.90847">
        <ele>738</ele>
        <time>2016-12-03T12:26:04.008Z</time>
      </trkpt>
      <trkpt lat="42.96819" lon="0.90839">
        <ele>738</ele>
        <time>2016-12-03T12:26:05.008Z</time>
      </trkpt>
      <trkpt lat="42.96815" lon="0.90831">
        <ele>738</ele>
        <time>2016-12-03T12:26:06.008Z</time>
      </trkpt>
      <trkpt lat="42.9681" lon="0.90824">
        <ele>737.65199805443</ele>
        <time>2016-12-03T12:26:07.008Z</time>
      </trkpt>
      <trkpt lat="42.96806" lon="0.90815">
        <ele>737</ele>
        <time>2016-12-03T12:26:08.008Z</time>
      </trkpt>
      <trkpt lat="42.96802" lon="0.90807">
        <ele>737</ele>
        <time>2016-12-03T12:26:09.008Z</time>
      </trkpt>
      <trkpt lat="42.96798" lon="0.90799">
        <ele>737</ele>
        <time>2016-12-03T12:26:10.008Z</time>
      </trkpt>
      <trkpt lat="42.96794" lon="0.90791">
        <ele>736.65199805443</ele>
        <time>2016-12-03T12:26:11.008Z</time>
      </trkpt>
      <trkpt lat="42.96789" lon="0.90784">
        <ele>736</ele>
        <time>2016-12-03T12:26:12.008Z</time>
      </trkpt>
      <trkpt lat="42.96785" lon="0.90778">
        <ele>736</ele>
        <time>2016-12-03T12:26:13.008Z</time>
      </trkpt>
      <trkpt lat="42.9678" lon="0.90772">
        <ele>736</ele>
        <time>2016-12-03T12:26:14.008Z</time>
      </trkpt>
      <trkpt lat="42.96776" lon="0.90766">
        <ele>736</ele>
        <time>2016-12-03T12:26:15.008Z</time>
      </trkpt>
      <trkpt lat="42.96773" lon="0.9076">
        <ele>736</ele>
        <time>2016-12-03T12:26:16.008Z</time>
      </trkpt>
      <trkpt lat="42.9677" lon="0.90753">
        <ele>736</ele>
        <time>2016-12-03T12:26:17.008Z</time>
      </trkpt>
      <trkpt lat="42.96769" lon="0.90746">
        <ele>736</ele>
        <time>2016-12-03T12:26:18.008Z</time>
      </trkpt>
      <trkpt lat="42.96769" lon="0.90734">
        <ele>736</ele>
        <time>2016-12-03T12:26:20.008Z</time>
      </trkpt>
      <trkpt lat="42.96772" lon="0.90724">
        <ele>738</ele>
        <time>2016-12-03T12:26:22.008Z</time>
      </trkpt>
      <trkpt lat="42.96782" lon="0.90722">
        <ele>738</ele>
        <time>2016-12-03T12:26:26.008Z</time>
      </trkpt>
      <trkpt lat="42.96791" lon="0.90726">
        <ele>738</ele>
        <time>2016-12-03T12:26:29.008Z</time>
      </trkpt>
      <trkpt lat="42.96801" lon="0.90729">
        <ele>741</ele>
        <time>2016-12-03T12:26:32.008Z</time>
      </trkpt>
      <trkpt lat="42.96811" lon="0.90735">
        <ele>744</ele>
        <time>2016-12-03T12:26:37.008Z</time>
      </trkpt>
      <trkpt lat="42.96823" lon="0.90738">
        <ele>744.34800194557</ele>
        <time>2016-12-03T12:26:41.008Z</time>
      </trkpt>
      <trkpt lat="42.96833" lon="0.90743">
        <ele>745</ele>
        <time>2016-12-03T12:26:44.008Z</time>
      </trkpt>
      <trkpt lat="42.96843" lon="0.90747">
        <ele>747</ele>
        <time>2016-12-03T12:26:47.008Z</time>
      </trkpt>
      <trkpt lat="42.96854" lon="0.90751">
        <ele>747.69600389115</ele>
        <time>2016-12-03T12:26:51.008Z</time>
      </trkpt>
      <trkpt lat="42.96863" lon="0.90756">
        <ele>749</ele>
        <time>2016-12-03T12:26:55.008Z</time>
      </trkpt>
      <trkpt lat="42.96873" lon="0.90761">
        <ele>751</ele>
        <time>2016-12-03T12:27:00.008Z</time>
      </trkpt>
      <trkpt lat="42.96884" lon="0.90762">
        <ele>753</ele>
        <time>2016-12-03T12:27:04.008Z</time>
      </trkpt>
      <trkpt lat="42.96896" lon="0.90762">
        <ele>753</ele>
        <time>2016-12-03T12:27:08.008Z</time>
      </trkpt>
      <trkpt lat="42.96906" lon="0.90761">
        <ele>755</ele>
        <time>2016-12-03T12:27:13.008Z</time>
      </trkpt>
      <trkpt lat="42.96917" lon="0.90759">
        <ele>755.69599610875</ele>
        <time>2016-12-03T12:27:16.008Z</time>
      </trkpt>
      <trkpt lat="42.96927" lon="0.90756">
        <ele>757</ele>
        <time>2016-12-03T12:27:20.008Z</time>
      </trkpt>
      <trkpt lat="42.96938" lon="0.90753">
        <ele>759</ele>
        <time>2016-12-03T12:27:25.008Z</time>
      </trkpt>
      <trkpt lat="42.9695" lon="0.90749">
        <ele>761</ele>
        <time>2016-12-03T12:27:30.008Z</time>
      </trkpt>
      <trkpt lat="42.9696" lon="0.90749">
        <ele>762</ele>
        <time>2016-12-03T12:27:33.008Z</time>
      </trkpt>
      <trkpt lat="42.96967" lon="0.90749">
        <ele>762</ele>
        <time>2016-12-03T12:27:35.008Z</time>
      </trkpt>
      <trkpt lat="42.96976" lon="0.90751">
        <ele>763</ele>
        <time>2016-12-03T12:27:38.008Z</time>
      </trkpt>
      <trkpt lat="42.96985" lon="0.90752">
        <ele>763.34800194557</ele>
        <time>2016-12-03T12:27:41.008Z</time>
      </trkpt>
      <trkpt lat="42.96992" lon="0.90753">
        <ele>764</ele>
        <time>2016-12-03T12:27:44.008Z</time>
      </trkpt>
      <trkpt lat="42.97002" lon="0.90754">
        <ele>764</ele>
        <time>2016-12-03T12:27:47.008Z</time>
      </trkpt>
      <trkpt lat="42.97009" lon="0.9075">
        <ele>764</ele>
        <time>2016-12-03T12:27:50.008Z</time>
      </trkpt>
      <trkpt lat="42.97013" lon="0.90743">
        <ele>767</ele>
        <time>2016-12-03T12:27:52.008Z</time>
      </trkpt>
      <trkpt lat="42.97014" lon="0.90735">
        <ele>767</ele>
        <time>2016-12-03T12:27:54.008Z</time>
      </trkpt>
      <trkpt lat="42.97011" lon="0.90728">
        <ele>767.69599610875</ele>
        <time>2016-12-03T12:27:56.008Z</time>
      </trkpt>
      <trkpt lat="42.97008" lon="0.90722">
        <ele>769</ele>
        <time>2016-12-03T12:27:58.008Z</time>
      </trkpt>
      <trkpt lat="42.97001" lon="0.90715">
        <ele>769.34800194557</ele>
        <time>2016-12-03T12:28:01.008Z</time>
      </trkpt>
      <trkpt lat="42.96996" lon="0.90711">
        <ele>770</ele>
        <time>2016-12-03T12:28:03.008Z</time>
      </trkpt>
      <trkpt lat="42.96991" lon="0.90706">
        <ele>770</ele>
        <time>2016-12-03T12:28:05.008Z</time>
      </trkpt>
      <trkpt lat="42.96987" lon="0.90701">
        <ele>771</ele>
        <time>2016-12-03T12:28:07.008Z</time>
      </trkpt>
      <trkpt lat="42.96983" lon="0.90695">
        <ele>771</ele>
        <time>2016-12-03T12:28:09.008Z</time>
      </trkpt>
      <trkpt lat="42.96979" lon="0.9069">
        <ele>771.34800194557</ele>
        <time>2016-12-03T12:28:11.008Z</time>
      </trkpt>
      <trkpt lat="42.96976" lon="0.90688">
        <ele>772</ele>
        <time>2016-12-03T12:28:12.008Z</time>
      </trkpt>
      <trkpt lat="42.96974" lon="0.90686">
        <ele>772</ele>
        <time>2016-12-03T12:28:13.008Z</time>
      </trkpt>
      <trkpt lat="42.96972" lon="0.90683">
        <ele>772</ele>
        <time>2016-12-03T12:28:14.008Z</time>
      </trkpt>
      <trkpt lat="42.96969" lon="0.90681">
        <ele>772</ele>
        <time>2016-12-03T12:28:15.008Z</time>
      </trkpt>
      <trkpt lat="42.96967" lon="0.90679">
        <ele>772.34799805438</ele>
        <time>2016-12-03T12:28:16.008Z</time>
      </trkpt>
      <trkpt lat="42.96964" lon="0.90678">
        <ele>773</ele>
        <time>2016-12-03T12:28:17.008Z</time>
      </trkpt>
      <trkpt lat="42.96961" lon="0.90676">
        <ele>773</ele>
        <time>2016-12-03T12:28:18.008Z</time>
      </trkpt>
      <trkpt lat="42.96959" lon="0.90674">
        <ele>773</ele>
        <time>2016-12-03T12:28:19.008Z</time>
      </trkpt>
      <trkpt lat="42.96956" lon="0.90673">
        <ele>773</ele>
        <time>2016-12-03T12:28:20.008Z</time>
      </trkpt>
      <trkpt lat="42.96951" lon="0.90669">
        <ele>775</ele>
        <time>2016-12-03T12:28:22.008Z</time>
      </trkpt>
      <trkpt lat="42.96948" lon="0.90668">
        <ele>775</ele>
        <time>2016-12-03T12:28:23.008Z</time>
      </trkpt>
      <trkpt lat="42.96943" lon="0.90664">
        <ele>775</ele>
        <time>2016-12-03T12:28:25.008Z</time>
      </trkpt>
      <trkpt lat="42.96941" lon="0.90663">
        <ele>775.69599610875</ele>
        <time>2016-12-03T12:28:26.008Z</time>
      </trkpt>
      <trkpt lat="42.96938" lon="0.90661">
        <ele>777</ele>
        <time>2016-12-03T12:28:27.008Z</time>
      </trkpt>
      <trkpt lat="42.96936" lon="0.9066">
        <ele>777</ele>
        <time>2016-12-03T12:28:28.008Z</time>
      </trkpt>
      <trkpt lat="42.96933" lon="0.90658">
        <ele>777</ele>
        <time>2016-12-03T12:28:29.008Z</time>
      </trkpt>
      <trkpt lat="42.96931" lon="0.90656">
        <ele>777</ele>
        <time>2016-12-03T12:28:30.008Z</time>
      </trkpt>
      <trkpt lat="42.96928" lon="0.90655">
        <ele>777.34800194557</ele>
        <time>2016-12-03T12:28:31.008Z</time>
      </trkpt>
      <trkpt lat="42.96925" lon="0.90653">
        <ele>778</ele>
        <time>2016-12-03T12:28:32.008Z</time>
      </trkpt>
      <trkpt lat="42.96923" lon="0.90651">
        <ele>778</ele>
        <time>2016-12-03T12:28:33.008Z</time>
      </trkpt>
      <trkpt lat="42.9692" lon="0.9065">
        <ele>778</ele>
        <time>2016-12-03T12:28:34.008Z</time>
      </trkpt>
      <trkpt lat="42.96918" lon="0.90648">
        <ele>778</ele>
        <time>2016-12-03T12:28:35.008Z</time>
      </trkpt>
      <trkpt lat="42.96915" lon="0.90647">
        <ele>778.69599610875</ele>
        <time>2016-12-03T12:28:36.008Z</time>
      </trkpt>
      <trkpt lat="42.96912" lon="0.90645">
        <ele>780</ele>
        <time>2016-12-03T12:28:37.008Z</time>
      </trkpt>
      <trkpt lat="42.9691" lon="0.90643">
        <ele>780</ele>
        <time>2016-12-03T12:28:38.008Z</time>
      </trkpt>
      <trkpt lat="42.96907" lon="0.90641">
        <ele>780</ele>
        <time>2016-12-03T12:28:39.008Z</time>
      </trkpt>
      <trkpt lat="42.96905" lon="0.90639">
        <ele>780</ele>
        <time>2016-12-03T12:28:40.008Z</time>
      </trkpt>
      <trkpt lat="42.96902" lon="0.90638">
        <ele>780</ele>
        <time>2016-12-03T12:28:41.008Z</time>
      </trkpt>
      <trkpt lat="42.96899" lon="0.90636">
        <ele>780</ele>
        <time>2016-12-03T12:28:42.008Z</time>
      </trkpt>
      <trkpt lat="42.96897" lon="0.90634">
        <ele>780</ele>
        <time>2016-12-03T12:28:43.008Z</time>
      </trkpt>
      <trkpt lat="42.96894" lon="0.90632">
        <ele>780</ele>
        <time>2016-12-03T12:28:44.008Z</time>
      </trkpt>
      <trkpt lat="42.96892" lon="0.9063">
        <ele>780</ele>
        <time>2016-12-03T12:28:45.008Z</time>
      </trkpt>
      <trkpt lat="42.96889" lon="0.90629">
        <ele>780.69599610875</ele>
        <time>2016-12-03T12:28:46.008Z</time>
      </trkpt>
      <trkpt lat="42.96886" lon="0.90627">
        <ele>782</ele>
        <time>2016-12-03T12:28:47.008Z</time>
      </trkpt>
      <trkpt lat="42.96884" lon="0.90626">
        <ele>782</ele>
        <time>2016-12-03T12:28:48.008Z</time>
      </trkpt>
      <trkpt lat="42.96881" lon="0.90624">
        <ele>782</ele>
        <time>2016-12-03T12:28:49.008Z</time>
      </trkpt>
      <trkpt lat="42.96876" lon="0.90621">
        <ele>782.34800194557</ele>
        <time>2016-12-03T12:28:51.008Z</time>
      </trkpt>
      <trkpt lat="42.96871" lon="0.90617">
        <ele>783</ele>
        <time>2016-12-03T12:28:53.008Z</time>
      </trkpt>
      <trkpt lat="42.96866" lon="0.90613">
        <ele>783</ele>
        <time>2016-12-03T12:28:55.008Z</time>
      </trkpt>
      <trkpt lat="42.96862" lon="0.90608">
        <ele>784</ele>
        <time>2016-12-03T12:28:57.008Z</time>
      </trkpt>
      <trkpt lat="42.9686" lon="0.90604">
        <ele>784</ele>
        <time>2016-12-03T12:28:58.008Z</time>
      </trkpt>
      <trkpt lat="42.96858" lon="0.90596">
        <ele>784</ele>
        <time>2016-12-03T12:29:00.008Z</time>
      </trkpt>
      <trkpt lat="42.96859" lon="0.90592">
        <ele>784.34800194557</ele>
        <time>2016-12-03T12:29:01.008Z</time>
      </trkpt>
      <trkpt lat="42.96859" lon="0.90588">
        <ele>785</ele>
        <time>2016-12-03T12:29:02.008Z</time>
      </trkpt>
      <trkpt lat="42.9686" lon="0.90584">
        <ele>785</ele>
        <time>2016-12-03T12:29:03.008Z</time>
      </trkpt>
      <trkpt lat="42.96864" lon="0.90577">
        <ele>785</ele>
        <time>2016-12-03T12:29:05.008Z</time>
      </trkpt>
      <trkpt lat="42.96865" lon="0.90574">
        <ele>785</ele>
        <time>2016-12-03T12:29:06.008Z</time>
      </trkpt>
      <trkpt lat="42.9687" lon="0.90569">
        <ele>785</ele>
        <time>2016-12-03T12:29:08.008Z</time>
      </trkpt>
      <trkpt lat="42.96874" lon="0.90564">
        <ele>785</ele>
        <time>2016-12-03T12:29:10.008Z</time>
      </trkpt>
      <trkpt lat="42.96879" lon="0.90559">
        <ele>788</ele>
        <time>2016-12-03T12:29:12.008Z</time>
      </trkpt>
      <trkpt lat="42.96883" lon="0.90554">
        <ele>788</ele>
        <time>2016-12-03T12:29:14.008Z</time>
      </trkpt>
      <trkpt lat="42.96888" lon="0.90549">
        <ele>788.69599610875</ele>
        <time>2016-12-03T12:29:16.008Z</time>
      </trkpt>
      <trkpt lat="42.96893" lon="0.90545">
        <ele>790</ele>
        <time>2016-12-03T12:29:18.008Z</time>
      </trkpt>
      <trkpt lat="42.96898" lon="0.90543">
        <ele>790</ele>
        <time>2016-12-03T12:29:20.008Z</time>
      </trkpt>
      <trkpt lat="42.96904" lon="0.90542">
        <ele>791</ele>
        <time>2016-12-03T12:29:22.008Z</time>
      </trkpt>
      <trkpt lat="42.96909" lon="0.90544">
        <ele>791</ele>
        <time>2016-12-03T12:29:24.008Z</time>
      </trkpt>
      <trkpt lat="42.96915" lon="0.90547">
        <ele>791.69599610875</ele>
        <time>2016-12-03T12:29:26.008Z</time>
      </trkpt>
      <trkpt lat="42.96921" lon="0.90551">
        <ele>793</ele>
        <time>2016-12-03T12:29:28.008Z</time>
      </trkpt>
      <trkpt lat="42.96929" lon="0.90557">
        <ele>793.34800194557</ele>
        <time>2016-12-03T12:29:31.008Z</time>
      </trkpt>
      <trkpt lat="42.96937" lon="0.90562">
        <ele>794</ele>
        <time>2016-12-03T12:29:34.008Z</time>
      </trkpt>
      <trkpt lat="42.96942" lon="0.90565">
        <ele>794.69599610875</ele>
        <time>2016-12-03T12:29:36.008Z</time>
      </trkpt>
      <trkpt lat="42.96947" lon="0.90568">
        <ele>796</ele>
        <time>2016-12-03T12:29:38.008Z</time>
      </trkpt>
      <trkpt lat="42.96953" lon="0.9057">
        <ele>796</ele>
        <time>2016-12-03T12:29:40.008Z</time>
      </trkpt>
      <trkpt lat="42.96958" lon="0.90572">
        <ele>797</ele>
        <time>2016-12-03T12:29:42.008Z</time>
      </trkpt>
      <trkpt lat="42.96963" lon="0.90573">
        <ele>797</ele>
        <time>2016-12-03T12:29:44.008Z</time>
      </trkpt>
      <trkpt lat="42.96968" lon="0.90575">
        <ele>797.34799805438</ele>
        <time>2016-12-03T12:29:46.008Z</time>
      </trkpt>
      <trkpt lat="42.96974" lon="0.90575">
        <ele>798</ele>
        <time>2016-12-03T12:29:48.008Z</time>
      </trkpt>
      <trkpt lat="42.96978" lon="0.90573">
        <ele>798</ele>
        <time>2016-12-03T12:29:50.008Z</time>
      </trkpt>
      <trkpt lat="42.96983" lon="0.90571">
        <ele>800</ele>
        <time>2016-12-03T12:29:52.008Z</time>
      </trkpt>
      <trkpt lat="42.96987" lon="0.90567">
        <ele>800</ele>
        <time>2016-12-03T12:29:54.008Z</time>
      </trkpt>
      <trkpt lat="42.96989" lon="0.90561">
        <ele>800.34799805438</ele>
        <time>2016-12-03T12:29:56.008Z</time>
      </trkpt>
      <trkpt lat="42.96989" lon="0.90554">
        <ele>801</ele>
        <time>2016-12-03T12:29:58.008Z</time>
      </trkpt>
      <trkpt lat="42.96989" lon="0.90547">
        <ele>801</ele>
        <time>2016-12-03T12:30:00.008Z</time>
      </trkpt>
      <trkpt lat="42.96988" lon="0.90539">
        <ele>803</ele>
        <time>2016-12-03T12:30:02.008Z</time>
      </trkpt>
      <trkpt lat="42.96986" lon="0.90533">
        <ele>803</ele>
        <time>2016-12-03T12:30:04.008Z</time>
      </trkpt>
      <trkpt lat="42.96984" lon="0.90527">
        <ele>803.69599610875</ele>
        <time>2016-12-03T12:30:06.008Z</time>
      </trkpt>
      <trkpt lat="42.96982" lon="0.90521">
        <ele>805</ele>
        <time>2016-12-03T12:30:08.008Z</time>
      </trkpt>
      <trkpt lat="42.96979" lon="0.90515">
        <ele>805</ele>
        <time>2016-12-03T12:30:10.008Z</time>
      </trkpt>
      <trkpt lat="42.96976" lon="0.9051">
        <ele>807</ele>
        <time>2016-12-03T12:30:12.008Z</time>
      </trkpt>
      <trkpt lat="42.96973" lon="0.90504">
        <ele>807</ele>
        <time>2016-12-03T12:30:14.008Z</time>
      </trkpt>
      <trkpt lat="42.9697" lon="0.90499">
        <ele>807.34799805438</ele>
        <time>2016-12-03T12:30:16.008Z</time>
      </trkpt>
      <trkpt lat="42.96967" lon="0.90493">
        <ele>808</ele>
        <time>2016-12-03T12:30:18.008Z</time>
      </trkpt>
      <trkpt lat="42.96964" lon="0.90488">
        <ele>808</ele>
        <time>2016-12-03T12:30:20.008Z</time>
      </trkpt>
      <trkpt lat="42.96961" lon="0.90482">
        <ele>810</ele>
        <time>2016-12-03T12:30:22.008Z</time>
      </trkpt>
      <trkpt lat="42.96958" lon="0.90476">
        <ele>810</ele>
        <time>2016-12-03T12:30:24.008Z</time>
      </trkpt>
      <trkpt lat="42.96957" lon="0.90469">
        <ele>810.34799805438</ele>
        <time>2016-12-03T12:30:26.008Z</time>
      </trkpt>
      <trkpt lat="42.96957" lon="0.90463">
        <ele>811</ele>
        <time>2016-12-03T12:30:28.008Z</time>
      </trkpt>
      <trkpt lat="42.96956" lon="0.90456">
        <ele>811</ele>
        <time>2016-12-03T12:30:30.008Z</time>
      </trkpt>
      <trkpt lat="42.96954" lon="0.90449">
        <ele>813</ele>
        <time>2016-12-03T12:30:32.008Z</time>
      </trkpt>
      <trkpt lat="42.96953" lon="0.90443">
        <ele>813</ele>
        <time>2016-12-03T12:30:34.008Z</time>
      </trkpt>
      <trkpt lat="42.96952" lon="0.90437">
        <ele>813.68282843955</ele>
        <time>2016-12-03T12:30:36.008Z</time>
      </trkpt>
      <trkpt lat="42.9695" lon="0.9043">
        <ele>815</ele>
        <time>2016-12-03T12:30:38.008Z</time>
      </trkpt>
      <trkpt lat="42.96949" lon="0.90423">
        <ele>815</ele>
        <time>2016-12-03T12:30:40.008Z</time>
      </trkpt>
      <trkpt lat="42.96947" lon="0.90417">
        <ele>816</ele>
        <time>2016-12-03T12:30:42.008Z</time>
      </trkpt>
      <trkpt lat="42.96945" lon="0.9041">
        <ele>816</ele>
        <time>2016-12-03T12:30:44.008Z</time>
      </trkpt>
      <trkpt lat="42.96944" lon="0.90404">
        <ele>816.34799805438</ele>
        <time>2016-12-03T12:30:46.008Z</time>
      </trkpt>
      <trkpt lat="42.96944" lon="0.90396">
        <ele>817</ele>
        <time>2016-12-03T12:30:48.008Z</time>
      </trkpt>
      <trkpt lat="42.96944" lon="0.90392">
        <ele>817</ele>
        <time>2016-12-03T12:30:49.008Z</time>
      </trkpt>
      <trkpt lat="42.96944" lon="0.90388">
        <ele>817</ele>
        <time>2016-12-03T12:30:50.008Z</time>
      </trkpt>
      <trkpt lat="42.96944" lon="0.90384">
        <ele>817.34800194557</ele>
        <time>2016-12-03T12:30:51.008Z</time>
      </trkpt>
      <trkpt lat="42.96943" lon="0.90381">
        <ele>818</ele>
        <time>2016-12-03T12:30:52.008Z</time>
      </trkpt>
      <trkpt lat="42.96943" lon="0.90377">
        <ele>818</ele>
        <time>2016-12-03T12:30:53.008Z</time>
      </trkpt>
      <trkpt lat="42.96942" lon="0.90373">
        <ele>818</ele>
        <time>2016-12-03T12:30:54.008Z</time>
      </trkpt>
      <trkpt lat="42.96941" lon="0.90369">
        <ele>818</ele>
        <time>2016-12-03T12:30:55.008Z</time>
      </trkpt>
      <trkpt lat="42.9694" lon="0.90365">
        <ele>818</ele>
        <time>2016-12-03T12:30:56.008Z</time>
      </trkpt>
      <trkpt lat="42.96939" lon="0.90361">
        <ele>818</ele>
        <time>2016-12-03T12:30:57.008Z</time>
      </trkpt>
      <trkpt lat="42.96938" lon="0.90358">
        <ele>818</ele>
        <time>2016-12-03T12:30:58.008Z</time>
      </trkpt>
      <trkpt lat="42.96937" lon="0.90354">
        <ele>818</ele>
        <time>2016-12-03T12:30:59.008Z</time>
      </trkpt>
      <trkpt lat="42.96935" lon="0.90351">
        <ele>818</ele>
        <time>2016-12-03T12:31:00.008Z</time>
      </trkpt>
      <trkpt lat="42.96933" lon="0.90347">
        <ele>818.34800194557</ele>
        <time>2016-12-03T12:31:01.008Z</time>
      </trkpt>
      <trkpt lat="42.96932" lon="0.90344">
        <ele>819</ele>
        <time>2016-12-03T12:31:02.008Z</time>
      </trkpt>
      <trkpt lat="42.9693" lon="0.90341">
        <ele>819</ele>
        <time>2016-12-03T12:31:03.008Z</time>
      </trkpt>
      <trkpt lat="42.96925" lon="0.90336">
        <ele>819</ele>
        <time>2016-12-03T12:31:05.008Z</time>
      </trkpt>
      <trkpt lat="42.96921" lon="0.90329">
        <ele>819</ele>
        <time>2016-12-03T12:31:07.008Z</time>
      </trkpt>
      <trkpt lat="42.96919" lon="0.90326">
        <ele>819</ele>
        <time>2016-12-03T12:31:08.008Z</time>
      </trkpt>
      <trkpt lat="42.96917" lon="0.90323">
        <ele>819</ele>
        <time>2016-12-03T12:31:09.008Z</time>
      </trkpt>
      <trkpt lat="42.96915" lon="0.9032">
        <ele>819</ele>
        <time>2016-12-03T12:31:10.008Z</time>
      </trkpt>
      <trkpt lat="42.96911" lon="0.90314">
        <ele>821</ele>
        <time>2016-12-03T12:31:12.008Z</time>
      </trkpt>
      <trkpt lat="42.96907" lon="0.90307">
        <ele>821</ele>
        <time>2016-12-03T12:31:14.008Z</time>
      </trkpt>
      <trkpt lat="42.96905" lon="0.903">
        <ele>821</ele>
        <time>2016-12-03T12:31:16.008Z</time>
      </trkpt>
      <trkpt lat="42.96904" lon="0.90296">
        <ele>821</ele>
        <time>2016-12-03T12:31:17.008Z</time>
      </trkpt>
      <trkpt lat="42.96904" lon="0.90288">
        <ele>821</ele>
        <time>2016-12-03T12:31:19.008Z</time>
      </trkpt>
      <trkpt lat="42.96906" lon="0.9028">
        <ele>821.34800194557</ele>
        <time>2016-12-03T12:31:21.008Z</time>
      </trkpt>
      <trkpt lat="42.9691" lon="0.90272">
        <ele>822</ele>
        <time>2016-12-03T12:31:23.008Z</time>
      </trkpt>
      <trkpt lat="42.96915" lon="0.90264">
        <ele>822</ele>
        <time>2016-12-03T12:31:25.008Z</time>
      </trkpt>
      <trkpt lat="42.9692" lon="0.90258">
        <ele>822</ele>
        <time>2016-12-03T12:31:27.008Z</time>
      </trkpt>
      <trkpt lat="42.96925" lon="0.90255">
        <ele>822</ele>
        <time>2016-12-03T12:31:29.008Z</time>
      </trkpt>
      <trkpt lat="42.9693" lon="0.90254">
        <ele>822</ele>
        <time>2016-12-03T12:31:31.008Z</time>
      </trkpt>
      <trkpt lat="42.96937" lon="0.90253">
        <ele>822</ele>
        <time>2016-12-03T12:31:33.008Z</time>
      </trkpt>
      <trkpt lat="42.96944" lon="0.9025">
        <ele>822</ele>
        <time>2016-12-03T12:31:35.008Z</time>
      </trkpt>
      <trkpt lat="42.96949" lon="0.90247">
        <ele>822</ele>
        <time>2016-12-03T12:31:36.008Z</time>
      </trkpt>
      <trkpt lat="42.96955" lon="0.90244">
        <ele>822</ele>
        <time>2016-12-03T12:31:37.008Z</time>
      </trkpt>
      <trkpt lat="42.96961" lon="0.90241">
        <ele>822</ele>
        <time>2016-12-03T12:31:38.008Z</time>
      </trkpt>
      <trkpt lat="42.96967" lon="0.90239">
        <ele>822</ele>
        <time>2016-12-03T12:31:39.008Z</time>
      </trkpt>
      <trkpt lat="42.96979" lon="0.90233">
        <ele>821.30399610885</ele>
        <time>2016-12-03T12:31:41.008Z</time>
      </trkpt>
      <trkpt lat="42.96985" lon="0.90228">
        <ele>820</ele>
        <time>2016-12-03T12:31:42.008Z</time>
      </trkpt>
      <trkpt lat="42.9699" lon="0.90222">
        <ele>820</ele>
        <time>2016-12-03T12:31:43.008Z</time>
      </trkpt>
      <trkpt lat="42.96994" lon="0.90215">
        <ele>820</ele>
        <time>2016-12-03T12:31:44.008Z</time>
      </trkpt>
      <trkpt lat="42.96997" lon="0.90207">
        <ele>820</ele>
        <time>2016-12-03T12:31:45.008Z</time>
      </trkpt>
      <trkpt lat="42.96997" lon="0.9019">
        <ele>820</ele>
        <time>2016-12-03T12:31:47.008Z</time>
      </trkpt>
      <trkpt lat="42.96994" lon="0.9018">
        <ele>820</ele>
        <time>2016-12-03T12:31:48.008Z</time>
      </trkpt>
      <trkpt lat="42.9699" lon="0.90171">
        <ele>820</ele>
        <time>2016-12-03T12:31:49.008Z</time>
      </trkpt>
      <trkpt lat="42.96985" lon="0.90163">
        <ele>820</ele>
        <time>2016-12-03T12:31:50.008Z</time>
      </trkpt>
      <trkpt lat="42.9698" lon="0.90157">
        <ele>818.6079922177</ele>
        <time>2016-12-03T12:31:51.008Z</time>
      </trkpt>
      <trkpt lat="42.96974" lon="0.90152">
        <ele>816</ele>
        <time>2016-12-03T12:31:52.008Z</time>
      </trkpt>
      <trkpt lat="42.96968" lon="0.90148">
        <ele>816</ele>
        <time>2016-12-03T12:31:53.008Z</time>
      </trkpt>
      <trkpt lat="42.96962" lon="0.90144">
        <ele>816</ele>
        <time>2016-12-03T12:31:54.008Z</time>
      </trkpt>
      <trkpt lat="42.96957" lon="0.90141">
        <ele>816</ele>
        <time>2016-12-03T12:31:55.008Z</time>
      </trkpt>
      <trkpt lat="42.96952" lon="0.90138">
        <ele>816</ele>
        <time>2016-12-03T12:31:56.008Z</time>
      </trkpt>
      <trkpt lat="42.96947" lon="0.90136">
        <ele>816</ele>
        <time>2016-12-03T12:31:57.008Z</time>
      </trkpt>
      <trkpt lat="42.96939" lon="0.9013">
        <ele>816</ele>
        <time>2016-12-03T12:31:59.008Z</time>
      </trkpt>
      <trkpt lat="42.96934" lon="0.90127">
        <ele>816</ele>
        <time>2016-12-03T12:32:00.008Z</time>
      </trkpt>
      <trkpt lat="42.9693" lon="0.90125">
        <ele>816</ele>
        <time>2016-12-03T12:32:01.008Z</time>
      </trkpt>
      <trkpt lat="42.96926" lon="0.90123">
        <ele>816</ele>
        <time>2016-12-03T12:32:02.008Z</time>
      </trkpt>
      <trkpt lat="42.96922" lon="0.90121">
        <ele>816</ele>
        <time>2016-12-03T12:32:03.008Z</time>
      </trkpt>
      <trkpt lat="42.96918" lon="0.90118">
        <ele>816</ele>
        <time>2016-12-03T12:32:04.008Z</time>
      </trkpt>
      <trkpt lat="42.96914" lon="0.90116">
        <ele>816</ele>
        <time>2016-12-03T12:32:05.008Z</time>
      </trkpt>
      <trkpt lat="42.96911" lon="0.90113">
        <ele>816</ele>
        <time>2016-12-03T12:32:06.008Z</time>
      </trkpt>
      <trkpt lat="42.96907" lon="0.9011">
        <ele>816</ele>
        <time>2016-12-03T12:32:07.008Z</time>
      </trkpt>
      <trkpt lat="42.96903" lon="0.90106">
        <ele>816</ele>
        <time>2016-12-03T12:32:08.008Z</time>
      </trkpt>
      <trkpt lat="42.969" lon="0.90101">
        <ele>816</ele>
        <time>2016-12-03T12:32:09.008Z</time>
      </trkpt>
      <trkpt lat="42.96898" lon="0.90094">
        <ele>816</ele>
        <time>2016-12-03T12:32:10.008Z</time>
      </trkpt>
      <trkpt lat="42.96896" lon="0.90087">
        <ele>815.65199805443</ele>
        <time>2016-12-03T12:32:11.008Z</time>
      </trkpt>
      <trkpt lat="42.96894" lon="0.90073">
        <ele>814.65199805443</ele>
        <time>2016-12-03T12:32:13.008Z</time>
      </trkpt>
      <trkpt lat="42.96892" lon="0.90058">
        <ele>814</ele>
        <time>2016-12-03T12:32:15.008Z</time>
      </trkpt>
      <trkpt lat="42.96889" lon="0.9005">
        <ele>814</ele>
        <time>2016-12-03T12:32:16.008Z</time>
      </trkpt>
      <trkpt lat="42.96886" lon="0.90042">
        <ele>814</ele>
        <time>2016-12-03T12:32:17.008Z</time>
      </trkpt>
      <trkpt lat="42.96882" lon="0.90033">
        <ele>814</ele>
        <time>2016-12-03T12:32:18.008Z</time>
      </trkpt>
      <trkpt lat="42.96879" lon="0.90026">
        <ele>814</ele>
        <time>2016-12-03T12:32:19.008Z</time>
      </trkpt>
      <trkpt lat="42.96875" lon="0.90019">
        <ele>814</ele>
        <time>2016-12-03T12:32:20.008Z</time>
      </trkpt>
      <trkpt lat="42.96869" lon="0.90007">
        <ele>811</ele>
        <time>2016-12-03T12:32:22.008Z</time>
      </trkpt>
      <trkpt lat="42.96862" lon="0.89995">
        <ele>811</ele>
        <time>2016-12-03T12:32:24.008Z</time>
      </trkpt>
      <trkpt lat="42.96858" lon="0.8999">
        <ele>811</ele>
        <time>2016-12-03T12:32:25.008Z</time>
      </trkpt>
      <trkpt lat="42.96854" lon="0.89984">
        <ele>810.65200194562</ele>
        <time>2016-12-03T12:32:26.008Z</time>
      </trkpt>
      <trkpt lat="42.9685" lon="0.89979">
        <ele>810</ele>
        <time>2016-12-03T12:32:27.008Z</time>
      </trkpt>
      <trkpt lat="42.96847" lon="0.89972">
        <ele>810</ele>
        <time>2016-12-03T12:32:28.008Z</time>
      </trkpt>
      <trkpt lat="42.96843" lon="0.89961">
        <ele>810</ele>
        <time>2016-12-03T12:32:30.008Z</time>
      </trkpt>
      <trkpt lat="42.9684" lon="0.89951">
        <ele>810</ele>
        <time>2016-12-03T12:32:32.008Z</time>
      </trkpt>
      <trkpt lat="42.96836" lon="0.89939">
        <ele>810</ele>
        <time>2016-12-03T12:32:35.008Z</time>
      </trkpt>
      <trkpt lat="42.96832" lon="0.89927">
        <ele>810</ele>
        <time>2016-12-03T12:32:38.008Z</time>
      </trkpt>
      <trkpt lat="42.96829" lon="0.89916">
        <ele>811.3920077823</ele>
        <time>2016-12-03T12:32:41.008Z</time>
      </trkpt>
      <trkpt lat="42.96827" lon="0.89905">
        <ele>814</ele>
        <time>2016-12-03T12:32:44.008Z</time>
      </trkpt>
      <trkpt lat="42.96823" lon="0.89893">
        <ele>815</ele>
        <time>2016-12-03T12:32:47.008Z</time>
      </trkpt>
      <trkpt lat="42.96822" lon="0.89882">
        <ele>815</ele>
        <time>2016-12-03T12:32:49.008Z</time>
      </trkpt>
      <trkpt lat="42.96827" lon="0.8987">
        <ele>815</ele>
        <time>2016-12-03T12:32:51.008Z</time>
      </trkpt>
      <trkpt lat="42.96835" lon="0.8986">
        <ele>815</ele>
        <time>2016-12-03T12:32:53.008Z</time>
      </trkpt>
      <trkpt lat="42.96843" lon="0.8985">
        <ele>815</ele>
        <time>2016-12-03T12:32:55.008Z</time>
      </trkpt>
      <trkpt lat="42.96851" lon="0.8984">
        <ele>815</ele>
        <time>2016-12-03T12:32:57.008Z</time>
      </trkpt>
      <trkpt lat="42.96857" lon="0.89829">
        <ele>815</ele>
        <time>2016-12-03T12:32:59.008Z</time>
      </trkpt>
      <trkpt lat="42.96861" lon="0.89817">
        <ele>814.65199805443</ele>
        <time>2016-12-03T12:33:01.008Z</time>
      </trkpt>
      <trkpt lat="42.96864" lon="0.89798">
        <ele>814</ele>
        <time>2016-12-03T12:33:04.008Z</time>
      </trkpt>
      <trkpt lat="42.96865" lon="0.89785">
        <ele>814</ele>
        <time>2016-12-03T12:33:06.008Z</time>
      </trkpt>
      <trkpt lat="42.96867" lon="0.89772">
        <ele>814</ele>
        <time>2016-12-03T12:33:08.008Z</time>
      </trkpt>
      <trkpt lat="42.9687" lon="0.8976">
        <ele>814</ele>
        <time>2016-12-03T12:33:10.008Z</time>
      </trkpt>
      <trkpt lat="42.96875" lon="0.89749">
        <ele>815</ele>
        <time>2016-12-03T12:33:12.008Z</time>
      </trkpt>
      <trkpt lat="42.96879" lon="0.89741">
        <ele>815</ele>
        <time>2016-12-03T12:33:14.008Z</time>
      </trkpt>
      <trkpt lat="42.96884" lon="0.89734">
        <ele>815</ele>
        <time>2016-12-03T12:33:16.008Z</time>
      </trkpt>
      <trkpt lat="42.96888" lon="0.89727">
        <ele>815</ele>
        <time>2016-12-03T12:33:18.008Z</time>
      </trkpt>
      <trkpt lat="42.96893" lon="0.89721">
        <ele>815</ele>
        <time>2016-12-03T12:33:20.008Z</time>
      </trkpt>
      <trkpt lat="42.96898" lon="0.89715">
        <ele>817</ele>
        <time>2016-12-03T12:33:22.008Z</time>
      </trkpt>
      <trkpt lat="42.96902" lon="0.89709">
        <ele>817</ele>
        <time>2016-12-03T12:33:24.008Z</time>
      </trkpt>
      <trkpt lat="42.96904" lon="0.89703">
        <ele>818.04399416313</ele>
        <time>2016-12-03T12:33:26.008Z</time>
      </trkpt>
      <trkpt lat="42.96905" lon="0.89696">
        <ele>820</ele>
        <time>2016-12-03T12:33:28.008Z</time>
      </trkpt>
      <trkpt lat="42.96903" lon="0.89689">
        <ele>820</ele>
        <time>2016-12-03T12:33:30.008Z</time>
      </trkpt>
      <trkpt lat="42.969" lon="0.89683">
        <ele>822</ele>
        <time>2016-12-03T12:33:32.008Z</time>
      </trkpt>
      <trkpt lat="42.96897" lon="0.89677">
        <ele>822</ele>
        <time>2016-12-03T12:33:34.008Z</time>
      </trkpt>
      <trkpt lat="42.96894" lon="0.8967">
        <ele>822.34799805438</ele>
        <time>2016-12-03T12:33:36.008Z</time>
      </trkpt>
      <trkpt lat="42.96892" lon="0.89662">
        <ele>823</ele>
        <time>2016-12-03T12:33:38.008Z</time>
      </trkpt>
      <trkpt lat="42.96891" lon="0.89655">
        <ele>822</ele>
        <time>2016-12-03T12:33:40.008Z</time>
      </trkpt>
      <trkpt lat="42.9689" lon="0.89648">
        <ele>823</ele>
        <time>2016-12-03T12:33:42.008Z</time>
      </trkpt>
      <trkpt lat="42.96889" lon="0.89641">
        <ele>823</ele>
        <time>2016-12-03T12:33:44.008Z</time>
      </trkpt>
      <trkpt lat="42.96886" lon="0.89635">
        <ele>823</ele>
        <time>2016-12-03T12:33:46.008Z</time>
      </trkpt>
      <trkpt lat="42.96884" lon="0.89629">
        <ele>823</ele>
        <time>2016-12-03T12:33:48.008Z</time>
      </trkpt>
      <trkpt lat="42.96882" lon="0.89622">
        <ele>823</ele>
        <time>2016-12-03T12:33:50.008Z</time>
      </trkpt>
      <trkpt lat="42.96882" lon="0.89615">
        <ele>826</ele>
        <time>2016-12-03T12:33:52.008Z</time>
      </trkpt>
      <trkpt lat="42.96881" lon="0.89608">
        <ele>826</ele>
        <time>2016-12-03T12:33:54.008Z</time>
      </trkpt>
      <trkpt lat="42.96881" lon="0.89601">
        <ele>826.69599610875</ele>
        <time>2016-12-03T12:33:56.008Z</time>
      </trkpt>
      <trkpt lat="42.9688" lon="0.89591">
        <ele>828</ele>
        <time>2016-12-03T12:33:59.008Z</time>
      </trkpt>
      <trkpt lat="42.96875" lon="0.89584">
        <ele>829</ele>
        <time>2016-12-03T12:34:02.008Z</time>
      </trkpt>
      <trkpt lat="42.9687" lon="0.89577">
        <ele>829</ele>
        <time>2016-12-03T12:34:05.008Z</time>
      </trkpt>
      <trkpt lat="42.96865" lon="0.8957">
        <ele>830</ele>
        <time>2016-12-03T12:34:08.008Z</time>
      </trkpt>
      <trkpt lat="42.96861" lon="0.89561">
        <ele>830.34800194557</ele>
        <time>2016-12-03T12:34:11.008Z</time>
      </trkpt>
      <trkpt lat="42.96858" lon="0.8955">
        <ele>831</ele>
        <time>2016-12-03T12:34:14.008Z</time>
      </trkpt>
      <trkpt lat="42.96857" lon="0.89539">
        <ele>831</ele>
        <time>2016-12-03T12:34:17.008Z</time>
      </trkpt>
      <trkpt lat="42.96855" lon="0.89532">
        <ele>831</ele>
        <time>2016-12-03T12:34:19.008Z</time>
      </trkpt>
      <trkpt lat="42.96856" lon="0.89522">
        <ele>833</ele>
        <time>2016-12-03T12:34:22.008Z</time>
      </trkpt>
      <trkpt lat="42.96857" lon="0.89508">
        <ele>833</ele>
        <time>2016-12-03T12:34:26.008Z</time>
      </trkpt>
      <trkpt lat="42.96856" lon="0.89492">
        <ele>833</ele>
        <time>2016-12-03T12:34:30.008Z</time>
      </trkpt>
      <trkpt lat="42.96854" lon="0.89478">
        <ele>836</ele>
        <time>2016-12-03T12:34:34.008Z</time>
      </trkpt>
      <trkpt lat="42.96851" lon="0.89464">
        <ele>837</ele>
        <time>2016-12-03T12:34:38.008Z</time>
      </trkpt>
      <trkpt lat="42.9685" lon="0.89452">
        <ele>837.34800194557</ele>
        <time>2016-12-03T12:34:41.008Z</time>
      </trkpt>
      <trkpt lat="42.96852" lon="0.89441">
        <ele>838</ele>
        <time>2016-12-03T12:34:44.008Z</time>
      </trkpt>
      <trkpt lat="42.96856" lon="0.8943">
        <ele>840</ele>
        <time>2016-12-03T12:34:47.008Z</time>
      </trkpt>
      <trkpt lat="42.96861" lon="0.89418">
        <ele>840.34800194557</ele>
        <time>2016-12-03T12:34:51.008Z</time>
      </trkpt>
      <trkpt lat="42.9686" lon="0.89408">
        <ele>841</ele>
        <time>2016-12-03T12:34:54.008Z</time>
      </trkpt>
      <trkpt lat="42.96859" lon="0.89397">
        <ele>842</ele>
        <time>2016-12-03T12:34:57.008Z</time>
      </trkpt>
      <trkpt lat="42.96863" lon="0.89388">
        <ele>842</ele>
        <time>2016-12-03T12:35:00.008Z</time>
      </trkpt>
      <trkpt lat="42.96872" lon="0.89391">
        <ele>843</ele>
        <time>2016-12-03T12:35:04.008Z</time>
      </trkpt>
      <trkpt lat="42.9688" lon="0.89397">
        <ele>843</ele>
        <time>2016-12-03T12:35:07.008Z</time>
      </trkpt>
      <trkpt lat="42.96887" lon="0.89403">
        <ele>843</ele>
        <time>2016-12-03T12:35:10.008Z</time>
      </trkpt>
      <trkpt lat="42.96898" lon="0.89411">
        <ele>845</ele>
        <time>2016-12-03T12:35:14.008Z</time>
      </trkpt>
      <trkpt lat="42.96909" lon="0.89414">
        <ele>845</ele>
        <time>2016-12-03T12:35:18.008Z</time>
      </trkpt>
      <trkpt lat="42.96917" lon="0.89414">
        <ele>845.69600389115</ele>
        <time>2016-12-03T12:35:21.008Z</time>
      </trkpt>
      <trkpt lat="42.96928" lon="0.89413">
        <ele>847</ele>
        <time>2016-12-03T12:35:25.008Z</time>
      </trkpt>
      <trkpt lat="42.96938" lon="0.89411">
        <ele>847</ele>
        <time>2016-12-03T12:35:29.008Z</time>
      </trkpt>
      <trkpt lat="42.96947" lon="0.89407">
        <ele>849</ele>
        <time>2016-12-03T12:35:33.008Z</time>
      </trkpt>
      <trkpt lat="42.96957" lon="0.894">
        <ele>852</ele>
        <time>2016-12-03T12:35:37.008Z</time>
      </trkpt>
      <trkpt lat="42.96968" lon="0.89396">
        <ele>853</ele>
        <time>2016-12-03T12:35:42.008Z</time>
      </trkpt>
      <trkpt lat="42.96978" lon="0.89389">
        <ele>854</ele>
        <time>2016-12-03T12:35:47.008Z</time>
      </trkpt>
      <trkpt lat="42.96984" lon="0.89375">
        <ele>854</ele>
        <time>2016-12-03T12:35:51.008Z</time>
      </trkpt>
      <trkpt lat="42.96983" lon="0.89361">
        <ele>854</ele>
        <time>2016-12-03T12:35:55.008Z</time>
      </trkpt>
      <trkpt lat="42.96978" lon="0.89349">
        <ele>854</ele>
        <time>2016-12-03T12:35:59.008Z</time>
      </trkpt>
      <trkpt lat="42.96976" lon="0.89335">
        <ele>858</ele>
        <time>2016-12-03T12:36:03.008Z</time>
      </trkpt>
      <trkpt lat="42.9698" lon="0.89326">
        <ele>858.34799805438</ele>
        <time>2016-12-03T12:36:06.008Z</time>
      </trkpt>
      <trkpt lat="42.96991" lon="0.89317">
        <ele>859</ele>
        <time>2016-12-03T12:36:12.008Z</time>
      </trkpt>
      <trkpt lat="42.97001" lon="0.89306">
        <ele>859</ele>
        <time>2016-12-03T12:36:16.008Z</time>
      </trkpt>
      <trkpt lat="42.97009" lon="0.89295">
        <ele>859</ele>
        <time>2016-12-03T12:36:20.008Z</time>
      </trkpt>
      <trkpt lat="42.97017" lon="0.89283">
        <ele>861</ele>
        <time>2016-12-03T12:36:24.008Z</time>
      </trkpt>
      <trkpt lat="42.97025" lon="0.89275">
        <ele>861</ele>
        <time>2016-12-03T12:36:28.008Z</time>
      </trkpt>
      <trkpt lat="42.97032" lon="0.89263">
        <ele>863</ele>
        <time>2016-12-03T12:36:32.008Z</time>
      </trkpt>
      <trkpt lat="42.97038" lon="0.89253">
        <ele>864.04399416313</ele>
        <time>2016-12-03T12:36:36.008Z</time>
      </trkpt>
      <trkpt lat="42.97046" lon="0.89241">
        <ele>866</ele>
        <time>2016-12-03T12:36:41.008Z</time>
      </trkpt>
      <trkpt lat="42.97057" lon="0.89243">
        <ele>866.34799805438</ele>
        <time>2016-12-03T12:36:46.008Z</time>
      </trkpt>
      <trkpt lat="42.97067" lon="0.89253">
        <ele>867</ele>
        <time>2016-12-03T12:36:50.008Z</time>
      </trkpt>
      <trkpt lat="42.97077" lon="0.89259">
        <ele>869</ele>
        <time>2016-12-03T12:36:54.008Z</time>
      </trkpt>
      <trkpt lat="42.97088" lon="0.89254">
        <ele>870</ele>
        <time>2016-12-03T12:36:58.008Z</time>
      </trkpt>
      <trkpt lat="42.97094" lon="0.89242">
        <ele>872</ele>
        <time>2016-12-03T12:37:02.008Z</time>
      </trkpt>
      <trkpt lat="42.97098" lon="0.89229">
        <ele>872</ele>
        <time>2016-12-03T12:37:06.008Z</time>
      </trkpt>
      <trkpt lat="42.97103" lon="0.89222">
        <ele>872</ele>
        <time>2016-12-03T12:37:09.008Z</time>
      </trkpt>
      <trkpt lat="42.97108" lon="0.89215">
        <ele>874</ele>
        <time>2016-12-03T12:37:12.008Z</time>
      </trkpt>
      <trkpt lat="42.97115" lon="0.89206">
        <ele>874.69599610875</ele>
        <time>2016-12-03T12:37:16.008Z</time>
      </trkpt>
      <trkpt lat="42.97122" lon="0.89198">
        <ele>876</ele>
        <time>2016-12-03T12:37:20.008Z</time>
      </trkpt>
      <trkpt lat="42.97128" lon="0.8919">
        <ele>876</ele>
        <time>2016-12-03T12:37:24.008Z</time>
      </trkpt>
      <trkpt lat="42.97133" lon="0.89183">
        <ele>876</ele>
        <time>2016-12-03T12:37:27.008Z</time>
      </trkpt>
      <trkpt lat="42.97141" lon="0.89175">
        <ele>879</ele>
        <time>2016-12-03T12:37:32.008Z</time>
      </trkpt>
      <trkpt lat="42.97151" lon="0.89166">
        <ele>880</ele>
        <time>2016-12-03T12:37:37.008Z</time>
      </trkpt>
      <trkpt lat="42.97156" lon="0.89161">
        <ele>880</ele>
        <time>2016-12-03T12:37:40.008Z</time>
      </trkpt>
      <trkpt lat="42.97163" lon="0.89157">
        <ele>881</ele>
        <time>2016-12-03T12:37:43.008Z</time>
      </trkpt>
      <trkpt lat="42.97169" lon="0.89152">
        <ele>881.69599610875</ele>
        <time>2016-12-03T12:37:46.008Z</time>
      </trkpt>
      <trkpt lat="42.97175" lon="0.89148">
        <ele>883</ele>
        <time>2016-12-03T12:37:49.008Z</time>
      </trkpt>
      <trkpt lat="42.97181" lon="0.89143">
        <ele>885</ele>
        <time>2016-12-03T12:37:52.008Z</time>
      </trkpt>
      <trkpt lat="42.97188" lon="0.89138">
        <ele>885</ele>
        <time>2016-12-03T12:37:55.008Z</time>
      </trkpt>
      <trkpt lat="42.97195" lon="0.89136">
        <ele>886</ele>
        <time>2016-12-03T12:37:58.008Z</time>
      </trkpt>
      <trkpt lat="42.97203" lon="0.89138">
        <ele>886.34800194557</ele>
        <time>2016-12-03T12:38:01.008Z</time>
      </trkpt>
      <trkpt lat="42.9721" lon="0.89144">
        <ele>887</ele>
        <time>2016-12-03T12:38:04.008Z</time>
      </trkpt>
      <trkpt lat="42.97216" lon="0.89151">
        <ele>887</ele>
        <time>2016-12-03T12:38:07.008Z</time>
      </trkpt>
      <trkpt lat="42.97224" lon="0.89159">
        <ele>887.34800194557</ele>
        <time>2016-12-03T12:38:11.008Z</time>
      </trkpt>
      <trkpt lat="42.97233" lon="0.89165">
        <ele>888</ele>
        <time>2016-12-03T12:38:15.008Z</time>
      </trkpt>
      <trkpt lat="42.97241" lon="0.89173">
        <ele>888</ele>
        <time>2016-12-03T12:38:19.008Z</time>
      </trkpt>
      <trkpt lat="42.97251" lon="0.89181">
        <ele>891</ele>
        <time>2016-12-03T12:38:24.008Z</time>
      </trkpt>
      <trkpt lat="42.97259" lon="0.89185">
        <ele>892</ele>
        <time>2016-12-03T12:38:28.008Z</time>
      </trkpt>
      <trkpt lat="42.9727" lon="0.89185">
        <ele>894</ele>
        <time>2016-12-03T12:38:32.008Z</time>
      </trkpt>
      <trkpt lat="42.97278" lon="0.89185">
        <ele>894</ele>
        <time>2016-12-03T12:38:35.008Z</time>
      </trkpt>
      <trkpt lat="42.97291" lon="0.89185">
        <ele>894</ele>
        <time>2016-12-03T12:38:39.008Z</time>
      </trkpt>
      <trkpt lat="42.97303" lon="0.89191">
        <ele>893</ele>
        <time>2016-12-03T12:38:42.008Z</time>
      </trkpt>
      <trkpt lat="42.97312" lon="0.89196">
        <ele>893</ele>
        <time>2016-12-03T12:38:44.008Z</time>
      </trkpt>
      <trkpt lat="42.97325" lon="0.89204">
        <ele>893</ele>
        <time>2016-12-03T12:38:47.008Z</time>
      </trkpt>
      <trkpt lat="42.97338" lon="0.89213">
        <ele>893</ele>
        <time>2016-12-03T12:38:50.008Z</time>
      </trkpt>
      <trkpt lat="42.9735" lon="0.89221">
        <ele>892</ele>
        <time>2016-12-03T12:38:53.008Z</time>
      </trkpt>
      <trkpt lat="42.97355" lon="0.89222">
        <ele>892</ele>
        <time>2016-12-03T12:38:54.008Z</time>
      </trkpt>
      <trkpt lat="42.97362" lon="0.8922">
        <ele>892</ele>
        <time>2016-12-03T12:38:56.008Z</time>
      </trkpt>
      <trkpt lat="42.97368" lon="0.89217">
        <ele>892</ele>
        <time>2016-12-03T12:38:58.008Z</time>
      </trkpt>
      <trkpt lat="42.97375" lon="0.89211">
        <ele>892</ele>
        <time>2016-12-03T12:39:00.008Z</time>
      </trkpt>
      <trkpt lat="42.97382" lon="0.89205">
        <ele>892</ele>
        <time>2016-12-03T12:39:02.008Z</time>
      </trkpt>
      <trkpt lat="42.97389" lon="0.89199">
        <ele>892</ele>
        <time>2016-12-03T12:39:04.008Z</time>
      </trkpt>
      <trkpt lat="42.97396" lon="0.89195">
        <ele>892</ele>
        <time>2016-12-03T12:39:06.008Z</time>
      </trkpt>
      <trkpt lat="42.97404" lon="0.89189">
        <ele>892</ele>
        <time>2016-12-03T12:39:08.008Z</time>
      </trkpt>
      <trkpt lat="42.9741" lon="0.89184">
        <ele>892</ele>
        <time>2016-12-03T12:39:10.008Z</time>
      </trkpt>
      <trkpt lat="42.97419" lon="0.89175">
        <ele>893</ele>
        <time>2016-12-03T12:39:13.008Z</time>
      </trkpt>
      <trkpt lat="42.97425" lon="0.8917">
        <ele>893</ele>
        <time>2016-12-03T12:39:15.008Z</time>
      </trkpt>
      <trkpt lat="42.97432" lon="0.89166">
        <ele>893</ele>
        <time>2016-12-03T12:39:17.008Z</time>
      </trkpt>
      <trkpt lat="42.97442" lon="0.89163">
        <ele>893</ele>
        <time>2016-12-03T12:39:20.008Z</time>
      </trkpt>
      <trkpt lat="42.97451" lon="0.89157">
        <ele>893</ele>
        <time>2016-12-03T12:39:23.008Z</time>
      </trkpt>
      <trkpt lat="42.97461" lon="0.89152">
        <ele>893</ele>
        <time>2016-12-03T12:39:26.008Z</time>
      </trkpt>
      <trkpt lat="42.97468" lon="0.89144">
        <ele>893</ele>
        <time>2016-12-03T12:39:30.008Z</time>
      </trkpt>
      <trkpt lat="42.97472" lon="0.8913">
        <ele>894</ele>
        <time>2016-12-03T12:39:33.008Z</time>
      </trkpt>
      <trkpt lat="42.97475" lon="0.89116">
        <ele>894</ele>
        <time>2016-12-03T12:39:36.008Z</time>
      </trkpt>
      <trkpt lat="42.97477" lon="0.89102">
        <ele>894</ele>
        <time>2016-12-03T12:39:39.008Z</time>
      </trkpt>
      <trkpt lat="42.9748" lon="0.89087">
        <ele>895</ele>
        <time>2016-12-03T12:39:42.008Z</time>
      </trkpt>
      <trkpt lat="42.97485" lon="0.89077">
        <ele>895</ele>
        <time>2016-12-03T12:39:44.008Z</time>
      </trkpt>
      <trkpt lat="42.97492" lon="0.8907">
        <ele>895</ele>
        <time>2016-12-03T12:39:46.008Z</time>
      </trkpt>
      <trkpt lat="42.975" lon="0.89065">
        <ele>895</ele>
        <time>2016-12-03T12:39:48.008Z</time>
      </trkpt>
      <trkpt lat="42.97508" lon="0.89062">
        <ele>895</ele>
        <time>2016-12-03T12:39:50.008Z</time>
      </trkpt>
      <trkpt lat="42.97517" lon="0.89059">
        <ele>895</ele>
        <time>2016-12-03T12:39:53.008Z</time>
      </trkpt>
      <trkpt lat="42.97528" lon="0.89058">
        <ele>895</ele>
        <time>2016-12-03T12:39:56.008Z</time>
      </trkpt>
      <trkpt lat="42.9754" lon="0.89057">
        <ele>895</ele>
        <time>2016-12-03T12:39:59.008Z</time>
      </trkpt>
      <trkpt lat="42.97552" lon="0.89051">
        <ele>897</ele>
        <time>2016-12-03T12:40:02.008Z</time>
      </trkpt>
      <trkpt lat="42.97561" lon="0.89044">
        <ele>897</ele>
        <time>2016-12-03T12:40:04.008Z</time>
      </trkpt>
      <trkpt lat="42.97567" lon="0.89035">
        <ele>897</ele>
        <time>2016-12-03T12:40:06.008Z</time>
      </trkpt>
      <trkpt lat="42.97573" lon="0.89025">
        <ele>897</ele>
        <time>2016-12-03T12:40:08.008Z</time>
      </trkpt>
      <trkpt lat="42.97579" lon="0.89016">
        <ele>897</ele>
        <time>2016-12-03T12:40:10.008Z</time>
      </trkpt>
      <trkpt lat="42.97586" lon="0.89008">
        <ele>897</ele>
        <time>2016-12-03T12:40:12.008Z</time>
      </trkpt>
      <trkpt lat="42.97595" lon="0.88997">
        <ele>897</ele>
        <time>2016-12-03T12:40:15.008Z</time>
      </trkpt>
      <trkpt lat="42.97602" lon="0.88982">
        <ele>897</ele>
        <time>2016-12-03T12:40:18.008Z</time>
      </trkpt>
      <trkpt lat="42.9761" lon="0.88968">
        <ele>897</ele>
        <time>2016-12-03T12:40:21.008Z</time>
      </trkpt>
      <trkpt lat="42.97616" lon="0.88954">
        <ele>897</ele>
        <time>2016-12-03T12:40:24.008Z</time>
      </trkpt>
      <trkpt lat="42.9762" lon="0.8894">
        <ele>897</ele>
        <time>2016-12-03T12:40:27.008Z</time>
      </trkpt>
      <trkpt lat="42.97626" lon="0.88927">
        <ele>897</ele>
        <time>2016-12-03T12:40:30.008Z</time>
      </trkpt>
      <trkpt lat="42.97634" lon="0.88912">
        <ele>897</ele>
        <time>2016-12-03T12:40:33.008Z</time>
      </trkpt>
      <trkpt lat="42.97636" lon="0.889">
        <ele>897</ele>
        <time>2016-12-03T12:40:35.008Z</time>
      </trkpt>
      <trkpt lat="42.97638" lon="0.88885">
        <ele>897</ele>
        <time>2016-12-03T12:40:39.008Z</time>
      </trkpt>
      <trkpt lat="42.97637" lon="0.88871">
        <ele>895</ele>
        <time>2016-12-03T12:40:42.008Z</time>
      </trkpt>
      <trkpt lat="42.97649" lon="0.88867">
        <ele>895</ele>
        <time>2016-12-03T12:40:47.008Z</time>
      </trkpt>
      <trkpt lat="42.9766" lon="0.88871">
        <ele>895</ele>
        <time>2016-12-03T12:40:50.008Z</time>
      </trkpt>
      <trkpt lat="42.97665" lon="0.88857">
        <ele>891</ele>
        <time>2016-12-03T12:40:54.008Z</time>
      </trkpt>
      <trkpt lat="42.97658" lon="0.88843">
        <ele>887</ele>
        <time>2016-12-03T12:40:58.008Z</time>
      </trkpt>
      <trkpt lat="42.97652" lon="0.88832">
        <ele>887</ele>
        <time>2016-12-03T12:41:00.008Z</time>
      </trkpt>
      <trkpt lat="42.97645" lon="0.88819">
        <ele>884</ele>
        <time>2016-12-03T12:41:02.008Z</time>
      </trkpt>
      <trkpt lat="42.97635" lon="0.8881">
        <ele>883</ele>
        <time>2016-12-03T12:41:05.008Z</time>
      </trkpt>
      <trkpt lat="42.97626" lon="0.88806">
        <ele>882.65200194562</ele>
        <time>2016-12-03T12:41:08.008Z</time>
      </trkpt>
      <trkpt lat="42.97616" lon="0.88806">
        <ele>881</ele>
        <time>2016-12-03T12:41:12.008Z</time>
      </trkpt>
      <trkpt lat="42.97604" lon="0.88808">
        <ele>881</ele>
        <time>2016-12-03T12:41:15.008Z</time>
      </trkpt>
      <trkpt lat="42.97589" lon="0.88815">
        <ele>879</ele>
        <time>2016-12-03T12:41:18.008Z</time>
      </trkpt>
      <trkpt lat="42.97576" lon="0.88821">
        <ele>879</ele>
        <time>2016-12-03T12:41:20.008Z</time>
      </trkpt>
      <trkpt lat="42.97576" lon="0.88807">
        <ele>872</ele>
        <time>2016-12-03T12:41:26.008Z</time>
      </trkpt>
      <trkpt lat="42.97584" lon="0.88799">
        <ele>870</ele>
        <time>2016-12-03T12:41:29.008Z</time>
      </trkpt>
      <trkpt lat="42.97594" lon="0.88785">
        <ele>869.65200194562</ele>
        <time>2016-12-03T12:41:32.008Z</time>
      </trkpt>
      <trkpt lat="42.97602" lon="0.88773">
        <ele>868.65200194562</ele>
        <time>2016-12-03T12:41:34.008Z</time>
      </trkpt>
      <trkpt lat="42.9761" lon="0.8876">
        <ele>867</ele>
        <time>2016-12-03T12:41:36.008Z</time>
      </trkpt>
      <trkpt lat="42.97618" lon="0.88748">
        <ele>866</ele>
        <time>2016-12-03T12:41:38.008Z</time>
      </trkpt>
      <trkpt lat="42.97625" lon="0.88735">
        <ele>865.65200194562</ele>
        <time>2016-12-03T12:41:40.008Z</time>
      </trkpt>
      <trkpt lat="42.97631" lon="0.88722">
        <ele>863.65200194562</ele>
        <time>2016-12-03T12:41:42.008Z</time>
      </trkpt>
      <trkpt lat="42.97638" lon="0.88711">
        <ele>861.65200194562</ele>
        <time>2016-12-03T12:41:44.008Z</time>
      </trkpt>
      <trkpt lat="42.97646" lon="0.88702">
        <ele>860.65200194562</ele>
        <time>2016-12-03T12:41:46.008Z</time>
      </trkpt>
      <trkpt lat="42.97654" lon="0.88693">
        <ele>857.65199805443</ele>
        <time>2016-12-03T12:41:51.008Z</time>
      </trkpt>
      <trkpt lat="42.97668" lon="0.88693">
        <ele>855</ele>
        <time>2016-12-03T12:41:55.008Z</time>
      </trkpt>
      <trkpt lat="42.97678" lon="0.88691">
        <ele>853.34141421977</ele>
        <time>2016-12-03T12:42:00.008Z</time>
      </trkpt>
      <trkpt lat="42.97689" lon="0.88689">
        <ele>854</ele>
        <time>2016-12-03T12:42:10.008Z</time>
      </trkpt>
      <trkpt lat="42.97702" lon="0.88683">
        <ele>852</ele>
        <time>2016-12-03T12:42:13.008Z</time>
      </trkpt>
      <trkpt lat="42.97712" lon="0.88675">
        <ele>850.6080077825</ele>
        <time>2016-12-03T12:42:16.008Z</time>
      </trkpt>
      <trkpt lat="42.97725" lon="0.88675">
        <ele>848</ele>
        <time>2016-12-03T12:42:19.008Z</time>
      </trkpt>
      <trkpt lat="42.97735" lon="0.88677">
        <ele>846.6079922177</ele>
        <time>2016-12-03T12:42:21.008Z</time>
      </trkpt>
      <trkpt lat="42.97749" lon="0.88676">
        <ele>841</ele>
        <time>2016-12-03T12:42:24.008Z</time>
      </trkpt>
      <trkpt lat="42.97759" lon="0.88676">
        <ele>839.65200194562</ele>
        <time>2016-12-03T12:42:26.008Z</time>
      </trkpt>
      <trkpt lat="42.9777" lon="0.88679">
        <ele>838.65200194562</ele>
        <time>2016-12-03T12:42:28.008Z</time>
      </trkpt>
      <trkpt lat="42.97781" lon="0.88682">
        <ele>836.65199805443</ele>
        <time>2016-12-03T12:42:31.008Z</time>
      </trkpt>
      <trkpt lat="42.97794" lon="0.88681">
        <ele>834</ele>
        <time>2016-12-03T12:42:34.008Z</time>
      </trkpt>
      <trkpt lat="42.97804" lon="0.8869">
        <ele>834</ele>
        <time>2016-12-03T12:42:36.008Z</time>
      </trkpt>
      <trkpt lat="42.97815" lon="0.88696">
        <ele>833.65858578023</ele>
        <time>2016-12-03T12:42:38.008Z</time>
      </trkpt>
      <trkpt lat="42.97825" lon="0.88707">
        <ele>832.65200194562</ele>
        <time>2016-12-03T12:42:40.008Z</time>
      </trkpt>
      <trkpt lat="42.97833" lon="0.8872">
        <ele>830.65200194562</ele>
        <time>2016-12-03T12:42:42.008Z</time>
      </trkpt>
      <trkpt lat="42.97838" lon="0.88734">
        <ele>828.65200194562</ele>
        <time>2016-12-03T12:42:44.008Z</time>
      </trkpt>
      <trkpt lat="42.97842" lon="0.88747">
        <ele>828</ele>
        <time>2016-12-03T12:42:46.008Z</time>
      </trkpt>
      <trkpt lat="42.97846" lon="0.88759">
        <ele>827</ele>
        <time>2016-12-03T12:42:48.008Z</time>
      </trkpt>
      <trkpt lat="42.97852" lon="0.88775">
        <ele>825</ele>
        <time>2016-12-03T12:42:51.008Z</time>
      </trkpt>
      <trkpt lat="42.97865" lon="0.88785">
        <ele>824</ele>
        <time>2016-12-03T12:42:54.008Z</time>
      </trkpt>
      <trkpt lat="42.97875" lon="0.88786">
        <ele>822.65200194562</ele>
        <time>2016-12-03T12:42:56.008Z</time>
      </trkpt>
      <trkpt lat="42.97888" lon="0.88784">
        <ele>822</ele>
        <time>2016-12-03T12:42:59.008Z</time>
      </trkpt>
      <trkpt lat="42.97899" lon="0.88779">
        <ele>820</ele>
        <time>2016-12-03T12:43:03.008Z</time>
      </trkpt>
      <trkpt lat="42.9791" lon="0.88773">
        <ele>818</ele>
        <time>2016-12-03T12:43:07.008Z</time>
      </trkpt>
      <trkpt lat="42.97919" lon="0.88783">
        <ele>816.65200194562</ele>
        <time>2016-12-03T12:43:10.008Z</time>
      </trkpt>
      <trkpt lat="42.97925" lon="0.88795">
        <ele>816</ele>
        <time>2016-12-03T12:43:13.008Z</time>
      </trkpt>
      <trkpt lat="42.97934" lon="0.88806">
        <ele>816</ele>
        <time>2016-12-03T12:43:16.008Z</time>
      </trkpt>
      <trkpt lat="42.97944" lon="0.88813">
        <ele>816</ele>
        <time>2016-12-03T12:43:19.008Z</time>
      </trkpt>
      <trkpt lat="42.97955" lon="0.88821">
        <ele>815</ele>
        <time>2016-12-03T12:43:22.008Z</time>
      </trkpt>
      <trkpt lat="42.97965" lon="0.88825">
        <ele>815</ele>
        <time>2016-12-03T12:43:26.008Z</time>
      </trkpt>
      <trkpt lat="42.97975" lon="0.88823">
        <ele>815</ele>
        <time>2016-12-03T12:43:30.008Z</time>
      </trkpt>
      <trkpt lat="42.97985" lon="0.88816">
        <ele>812</ele>
        <time>2016-12-03T12:43:34.008Z</time>
      </trkpt>
      <trkpt lat="42.97995" lon="0.88825">
        <ele>809</ele>
        <time>2016-12-03T12:43:38.008Z</time>
      </trkpt>
      <trkpt lat="42.98002" lon="0.8884">
        <ele>808.30399610885</ele>
        <time>2016-12-03T12:43:41.008Z</time>
      </trkpt>
      <trkpt lat="42.98007" lon="0.88854">
        <ele>807</ele>
        <time>2016-12-03T12:43:44.008Z</time>
      </trkpt>
      <trkpt lat="42.98014" lon="0.88866">
        <ele>806</ele>
        <time>2016-12-03T12:43:47.008Z</time>
      </trkpt>
      <trkpt lat="42.98024" lon="0.88876">
        <ele>806</ele>
        <time>2016-12-03T12:43:50.008Z</time>
      </trkpt>
      <trkpt lat="42.98031" lon="0.88885">
        <ele>805</ele>
        <time>2016-12-03T12:43:53.008Z</time>
      </trkpt>
      <trkpt lat="42.98025" lon="0.88898">
        <ele>800.95599416328</ele>
        <time>2016-12-03T12:44:01.008Z</time>
      </trkpt>
      <trkpt lat="42.98021" lon="0.88911">
        <ele>797</ele>
        <time>2016-12-03T12:44:08.008Z</time>
      </trkpt>
      <trkpt lat="42.98023" lon="0.88925">
        <ele>797</ele>
        <time>2016-12-03T12:44:14.008Z</time>
      </trkpt>
      <trkpt lat="42.98026" lon="0.88939">
        <ele>795</ele>
        <time>2016-12-03T12:44:24.008Z</time>
      </trkpt>
      <trkpt lat="42.98033" lon="0.8895">
        <ele>794</ele>
        <time>2016-12-03T12:44:40.008Z</time>
      </trkpt>
      <trkpt lat="42.98036" lon="0.88963">
        <ele>793</ele>
        <time>2016-12-03T12:44:47.008Z</time>
      </trkpt>
      <trkpt lat="42.98031" lon="0.88977">
        <ele>789</ele>
        <time>2016-12-03T12:44:55.008Z</time>
      </trkpt>
      <trkpt lat="42.98027" lon="0.8899">
        <ele>785</ele>
        <time>2016-12-03T12:45:02.008Z</time>
      </trkpt>
      <trkpt lat="42.98023" lon="0.89003">
        <ele>783</ele>
        <time>2016-12-03T12:45:09.008Z</time>
      </trkpt>
      <trkpt lat="42.98021" lon="0.89017">
        <ele>780</ele>
        <time>2016-12-03T12:45:15.008Z</time>
      </trkpt>
      <trkpt lat="42.98027" lon="0.89028">
        <ele>780</ele>
        <time>2016-12-03T12:45:20.008Z</time>
      </trkpt>
      <trkpt lat="42.98037" lon="0.89035">
        <ele>778</ele>
        <time>2016-12-03T12:45:23.008Z</time>
      </trkpt>
      <trkpt lat="42.98046" lon="0.89041">
        <ele>777</ele>
        <time>2016-12-03T12:45:28.008Z</time>
      </trkpt>
      <trkpt lat="42.98054" lon="0.8905">
        <ele>776</ele>
        <time>2016-12-03T12:45:33.008Z</time>
      </trkpt>
      <trkpt lat="42.9806" lon="0.89061">
        <ele>776</ele>
        <time>2016-12-03T12:45:36.008Z</time>
      </trkpt>
      <trkpt lat="42.98068" lon="0.8907">
        <ele>776</ele>
        <time>2016-12-03T12:45:40.008Z</time>
      </trkpt>
      <trkpt lat="42.98075" lon="0.89081">
        <ele>775</ele>
        <time>2016-12-03T12:45:45.008Z</time>
      </trkpt>
      <trkpt lat="42.98086" lon="0.89089">
        <ele>775</ele>
        <time>2016-12-03T12:45:51.008Z</time>
      </trkpt>
      <trkpt lat="42.98093" lon="0.891">
        <ele>775</ele>
        <time>2016-12-03T12:45:57.008Z</time>
      </trkpt>
      <trkpt lat="42.98098" lon="0.89113">
        <ele>774.30399610885</ele>
        <time>2016-12-03T12:46:01.008Z</time>
      </trkpt>
      <trkpt lat="42.98101" lon="0.89126">
        <ele>773</ele>
        <time>2016-12-03T12:46:04.008Z</time>
      </trkpt>
      <trkpt lat="42.98106" lon="0.89139">
        <ele>773</ele>
        <time>2016-12-03T12:46:07.008Z</time>
      </trkpt>
      <trkpt lat="42.98111" lon="0.8915">
        <ele>772.30399610885</ele>
        <time>2016-12-03T12:46:11.008Z</time>
      </trkpt>
      <trkpt lat="42.98115" lon="0.89166">
        <ele>771</ele>
        <time>2016-12-03T12:46:16.008Z</time>
      </trkpt>
      <trkpt lat="42.98121" lon="0.89182">
        <ele>771</ele>
        <time>2016-12-03T12:46:20.008Z</time>
      </trkpt>
      <trkpt lat="42.98126" lon="0.89198">
        <ele>764</ele>
        <time>2016-12-03T12:46:24.008Z</time>
      </trkpt>
      <trkpt lat="42.98129" lon="0.89211">
        <ele>761.65200194562</ele>
        <time>2016-12-03T12:46:28.008Z</time>
      </trkpt>
      <trkpt lat="42.98135" lon="0.89222">
        <ele>759</ele>
        <time>2016-12-03T12:46:33.008Z</time>
      </trkpt>
      <trkpt lat="42.98141" lon="0.89235">
        <ele>755.65200194562</ele>
        <time>2016-12-03T12:46:46.008Z</time>
      </trkpt>
      <trkpt lat="42.98149" lon="0.89244">
        <ele>754</ele>
        <time>2016-12-03T12:46:52.008Z</time>
      </trkpt>
      <trkpt lat="42.98156" lon="0.89258">
        <ele>754</ele>
        <time>2016-12-03T12:46:56.008Z</time>
      </trkpt>
      <trkpt lat="42.98163" lon="0.89268">
        <ele>754</ele>
        <time>2016-12-03T12:47:00.008Z</time>
      </trkpt>
      <trkpt lat="42.98171" lon="0.8928">
        <ele>746</ele>
        <time>2016-12-03T12:47:04.008Z</time>
      </trkpt>
      <trkpt lat="42.9818" lon="0.89285">
        <ele>744</ele>
        <time>2016-12-03T12:47:10.008Z</time>
      </trkpt>
      <trkpt lat="42.98189" lon="0.89291">
        <ele>743</ele>
        <time>2016-12-03T12:47:26.008Z</time>
      </trkpt>
      <trkpt lat="42.98197" lon="0.89301">
        <ele>739</ele>
        <time>2016-12-03T12:47:37.008Z</time>
      </trkpt>
      <trkpt lat="42.98206" lon="0.89308">
        <ele>738</ele>
        <time>2016-12-03T12:47:50.008Z</time>
      </trkpt>
      <trkpt lat="42.98214" lon="0.89317">
        <ele>736</ele>
        <time>2016-12-03T12:47:59.008Z</time>
      </trkpt>
      <trkpt lat="42.98223" lon="0.89325">
        <ele>732</ele>
        <time>2016-12-03T12:48:05.008Z</time>
      </trkpt>
      <trkpt lat="42.98231" lon="0.89335">
        <ele>731</ele>
        <time>2016-12-03T12:48:14.008Z</time>
      </trkpt>
      <trkpt lat="42.9824" lon="0.89344">
        <ele>728</ele>
        <time>2016-12-03T12:48:23.008Z</time>
      </trkpt>
      <trkpt lat="42.98247" lon="0.89352">
        <ele>726</ele>
        <time>2016-12-03T12:48:42.008Z</time>
      </trkpt>
      <trkpt lat="42.98253" lon="0.89365">
        <ele>725</ele>
        <time>2016-12-03T12:48:53.008Z</time>
      </trkpt>
      <trkpt lat="42.98258" lon="0.89377">
        <ele>721</ele>
        <time>2016-12-03T12:49:05.008Z</time>
      </trkpt>
      <trkpt lat="42.98265" lon="0.89387">
        <ele>719</ele>
        <time>2016-12-03T12:49:15.008Z</time>
      </trkpt>
      <trkpt lat="42.98274" lon="0.89395">
        <ele>717</ele>
        <time>2016-12-03T12:49:26.008Z</time>
      </trkpt>
      <trkpt lat="42.98283" lon="0.89401">
        <ele>716</ele>
        <time>2016-12-03T12:49:36.008Z</time>
      </trkpt>
      <trkpt lat="42.98291" lon="0.89407">
        <ele>710</ele>
        <time>2016-12-03T12:49:48.008Z</time>
      </trkpt>
      <trkpt lat="42.98297" lon="0.89419">
        <ele>707</ele>
        <time>2016-12-03T12:50:02.008Z</time>
      </trkpt>
      <trkpt lat="42.98305" lon="0.89427">
        <ele>705.30399610885</ele>
        <time>2016-12-03T12:50:11.008Z</time>
      </trkpt>
      <trkpt lat="42.98314" lon="0.89434">
        <ele>701</ele>
        <time>2016-12-03T12:50:22.008Z</time>
      </trkpt>
      <trkpt lat="42.98324" lon="0.89439">
        <ele>698</ele>
        <time>2016-12-03T12:50:32.008Z</time>
      </trkpt>
      <trkpt lat="42.98333" lon="0.89445">
        <ele>696</ele>
        <time>2016-12-03T12:50:42.008Z</time>
      </trkpt>
      <trkpt lat="42.9834" lon="0.89453">
        <ele>696</ele>
        <time>2016-12-03T12:50:49.008Z</time>
      </trkpt>
      <trkpt lat="42.98347" lon="0.89462">
        <ele>690</ele>
        <time>2016-12-03T12:50:58.008Z</time>
      </trkpt>
      <trkpt lat="42.98354" lon="0.89472">
        <ele>687</ele>
        <time>2016-12-03T12:51:10.008Z</time>
      </trkpt>
      <trkpt lat="42.98361" lon="0.89482">
        <ele>685</ele>
        <time>2016-12-03T12:51:20.008Z</time>
      </trkpt>
      <trkpt lat="42.98371" lon="0.89487">
        <ele>682</ele>
        <time>2016-12-03T12:51:27.008Z</time>
      </trkpt>
      <trkpt lat="42.98381" lon="0.89497">
        <ele>680</ele>
        <time>2016-12-03T12:51:32.008Z</time>
      </trkpt>
      <trkpt lat="42.98391" lon="0.89505">
        <ele>678.95600583687</ele>
        <time>2016-12-03T12:51:36.008Z</time>
      </trkpt>
      <trkpt lat="42.984" lon="0.89511">
        <ele>677</ele>
        <time>2016-12-03T12:51:40.008Z</time>
      </trkpt>
      <trkpt lat="42.98409" lon="0.89519">
        <ele>671.65199805443</ele>
        <time>2016-12-03T12:51:45.008Z</time>
      </trkpt>
      <trkpt lat="42.98419" lon="0.89523">
        <ele>669</ele>
        <time>2016-12-03T12:51:53.008Z</time>
      </trkpt>
      <trkpt lat="42.98425" lon="0.89531">
        <ele>667.65199805443</ele>
        <time>2016-12-03T12:51:59.008Z</time>
      </trkpt>
      <trkpt lat="42.98432" lon="0.89538">
        <ele>666</ele>
        <time>2016-12-03T12:52:04.008Z</time>
      </trkpt>
      <trkpt lat="42.98439" lon="0.89548">
        <ele>662.65200194562</ele>
        <time>2016-12-03T12:52:16.008Z</time>
      </trkpt>
      <trkpt lat="42.98451" lon="0.89553">
        <ele>662</ele>
        <time>2016-12-03T12:52:20.008Z</time>
      </trkpt>
      <trkpt lat="42.98465" lon="0.89558">
        <ele>661</ele>
        <time>2016-12-03T12:52:23.008Z</time>
      </trkpt>
      <trkpt lat="42.98477" lon="0.89561">
        <ele>661</ele>
        <time>2016-12-03T12:52:26.008Z</time>
      </trkpt>
      <trkpt lat="42.98486" lon="0.89567">
        <ele>661</ele>
        <time>2016-12-03T12:52:29.008Z</time>
      </trkpt>
      <trkpt lat="42.9849" lon="0.89581">
        <ele>658</ele>
        <time>2016-12-03T12:52:34.008Z</time>
      </trkpt>
      <trkpt lat="42.98495" lon="0.89594">
        <ele>654</ele>
        <time>2016-12-03T12:52:38.008Z</time>
      </trkpt>
      <trkpt lat="42.98499" lon="0.89606">
        <ele>651</ele>
        <time>2016-12-03T12:52:43.008Z</time>
      </trkpt>
      <trkpt lat="42.98502" lon="0.89621">
        <ele>648.65199805443</ele>
        <time>2016-12-03T12:52:49.008Z</time>
      </trkpt>
      <trkpt lat="42.9851" lon="0.89633">
        <ele>647</ele>
        <time>2016-12-03T12:52:53.008Z</time>
      </trkpt>
      <trkpt lat="42.98518" lon="0.89644">
        <ele>646.65200194562</ele>
        <time>2016-12-03T12:52:56.008Z</time>
      </trkpt>
      <trkpt lat="42.98525" lon="0.89656">
        <ele>646</ele>
        <time>2016-12-03T12:52:59.008Z</time>
      </trkpt>
      <trkpt lat="42.98537" lon="0.89668">
        <ele>643</ele>
        <time>2016-12-03T12:53:02.008Z</time>
      </trkpt>
      <trkpt lat="42.98545" lon="0.8968">
        <ele>642.30400389125</ele>
        <time>2016-12-03T12:53:06.008Z</time>
      </trkpt>
      <trkpt lat="42.98555" lon="0.89687">
        <ele>641</ele>
        <time>2016-12-03T12:53:10.008Z</time>
      </trkpt>
      <trkpt lat="42.98565" lon="0.8969">
        <ele>639</ele>
        <time>2016-12-03T12:53:14.008Z</time>
      </trkpt>
      <trkpt lat="42.98575" lon="0.89695">
        <ele>638</ele>
        <time>2016-12-03T12:53:17.008Z</time>
      </trkpt>
      <trkpt lat="42.98585" lon="0.89699">
        <ele>636</ele>
        <time>2016-12-03T12:53:22.008Z</time>
      </trkpt>
      <trkpt lat="42.98594" lon="0.89705">
        <ele>637</ele>
        <time>2016-12-03T12:53:54.008Z</time>
      </trkpt>
      <trkpt lat="42.98601" lon="0.89715">
        <ele>637</ele>
        <time>2016-12-03T12:53:59.008Z</time>
      </trkpt>
      <trkpt lat="42.98614" lon="0.89724">
        <ele>633</ele>
        <time>2016-12-03T12:54:02.008Z</time>
      </trkpt>
      <trkpt lat="42.98626" lon="0.89729">
        <ele>633</ele>
        <time>2016-12-03T12:54:04.008Z</time>
      </trkpt>
      <trkpt lat="42.98638" lon="0.89735">
        <ele>632.30400389125</ele>
        <time>2016-12-03T12:54:06.008Z</time>
      </trkpt>
      <trkpt lat="42.98649" lon="0.89738">
        <ele>631</ele>
        <time>2016-12-03T12:54:08.008Z</time>
      </trkpt>
      <trkpt lat="42.98659" lon="0.89738">
        <ele>631</ele>
        <time>2016-12-03T12:54:10.008Z</time>
      </trkpt>
      <trkpt lat="42.98668" lon="0.89732">
        <ele>630</ele>
        <time>2016-12-03T12:54:12.008Z</time>
      </trkpt>
      <trkpt lat="42.98679" lon="0.89721">
        <ele>630</ele>
        <time>2016-12-03T12:54:14.008Z</time>
      </trkpt>
      <trkpt lat="42.98687" lon="0.89709">
        <ele>628.95600583687</ele>
        <time>2016-12-03T12:54:16.008Z</time>
      </trkpt>
      <trkpt lat="42.98694" lon="0.89695">
        <ele>627</ele>
        <time>2016-12-03T12:54:18.008Z</time>
      </trkpt>
      <trkpt lat="42.987" lon="0.89681">
        <ele>627</ele>
        <time>2016-12-03T12:54:20.008Z</time>
      </trkpt>
      <trkpt lat="42.98703" lon="0.89667">
        <ele>623.30400389125</ele>
        <time>2016-12-03T12:54:22.008Z</time>
      </trkpt>
      <trkpt lat="42.98704" lon="0.89649">
        <ele>621</ele>
        <time>2016-12-03T12:54:25.008Z</time>
      </trkpt>
      <trkpt lat="42.98706" lon="0.89636">
        <ele>619.65199805443</ele>
        <time>2016-12-03T12:54:27.008Z</time>
      </trkpt>
      <trkpt lat="42.98709" lon="0.89618">
        <ele>617.65200194562</ele>
        <time>2016-12-03T12:54:30.008Z</time>
      </trkpt>
      <trkpt lat="42.98712" lon="0.89602">
        <ele>615</ele>
        <time>2016-12-03T12:54:33.008Z</time>
      </trkpt>
      <trkpt lat="42.98714" lon="0.89581">
        <ele>612.65200194562</ele>
        <time>2016-12-03T12:54:36.008Z</time>
      </trkpt>
      <trkpt lat="42.98714" lon="0.89566">
        <ele>610.30400389125</ele>
        <time>2016-12-03T12:54:38.008Z</time>
      </trkpt>
      <trkpt lat="42.98715" lon="0.89552">
        <ele>608.65200194562</ele>
        <time>2016-12-03T12:54:40.008Z</time>
      </trkpt>
      <trkpt lat="42.98715" lon="0.89538">
        <ele>606.65200194562</ele>
        <time>2016-12-03T12:54:42.008Z</time>
      </trkpt>
      <trkpt lat="42.98716" lon="0.89524">
        <ele>604.31090157909</ele>
        <time>2016-12-03T12:54:44.008Z</time>
      </trkpt>
      <trkpt lat="42.98715" lon="0.89508">
        <ele>602</ele>
        <time>2016-12-03T12:54:46.008Z</time>
      </trkpt>
      <trkpt lat="42.98711" lon="0.89491">
        <ele>600.65200194562</ele>
        <time>2016-12-03T12:54:48.008Z</time>
      </trkpt>
      <trkpt lat="42.98707" lon="0.89474">
        <ele>599.65200194562</ele>
        <time>2016-12-03T12:54:50.008Z</time>
      </trkpt>
      <trkpt lat="42.98708" lon="0.8946">
        <ele>597</ele>
        <time>2016-12-03T12:54:52.008Z</time>
      </trkpt>
      <trkpt lat="42.98711" lon="0.89445">
        <ele>594.65199805443</ele>
        <time>2016-12-03T12:54:55.008Z</time>
      </trkpt>
      <trkpt lat="42.98714" lon="0.89428">
        <ele>591.65200194562</ele>
        <time>2016-12-03T12:54:58.008Z</time>
      </trkpt>
      <trkpt lat="42.98718" lon="0.89413">
        <ele>588</ele>
        <time>2016-12-03T12:55:02.008Z</time>
      </trkpt>
      <trkpt lat="42.98721" lon="0.89399">
        <ele>586</ele>
        <time>2016-12-03T12:55:07.008Z</time>
      </trkpt>
      <trkpt lat="42.98728" lon="0.89412">
        <ele>583</ele>
        <time>2016-12-03T12:55:12.008Z</time>
      </trkpt>
      <trkpt lat="42.9873" lon="0.89429">
        <ele>582.30400389125</ele>
        <time>2016-12-03T12:55:16.008Z</time>
      </trkpt>
      <trkpt lat="42.98734" lon="0.89442">
        <ele>581</ele>
        <time>2016-12-03T12:55:19.008Z</time>
      </trkpt>
      <trkpt lat="42.98742" lon="0.89456">
        <ele>576.31090157909</ele>
        <time>2016-12-03T12:55:22.008Z</time>
      </trkpt>
      <trkpt lat="42.98747" lon="0.8947">
        <ele>573.65200194562</ele>
        <time>2016-12-03T12:55:26.008Z</time>
      </trkpt>
      <trkpt lat="42.98758" lon="0.89483">
        <ele>570.65200194562</ele>
        <time>2016-12-03T12:55:30.008Z</time>
      </trkpt>
      <trkpt lat="42.98768" lon="0.89495">
        <ele>567.65199805443</ele>
        <time>2016-12-03T12:55:33.008Z</time>
      </trkpt>
      <trkpt lat="42.98776" lon="0.89508">
        <ele>566</ele>
        <time>2016-12-03T12:55:36.008Z</time>
      </trkpt>
      <trkpt lat="42.98783" lon="0.89519">
        <ele>562.65200194562</ele>
        <time>2016-12-03T12:55:40.008Z</time>
      </trkpt>
      <trkpt lat="42.98793" lon="0.89528">
        <ele>560.65199805443</ele>
        <time>2016-12-03T12:55:43.008Z</time>
      </trkpt>
      <trkpt lat="42.98801" lon="0.89538">
        <ele>557</ele>
        <time>2016-12-03T12:55:46.008Z</time>
      </trkpt>
      <trkpt lat="42.98812" lon="0.89549">
        <ele>555</ele>
        <time>2016-12-03T12:55:49.008Z</time>
      </trkpt>
      <trkpt lat="42.98821" lon="0.89559">
        <ele>552.65200194562</ele>
        <time>2016-12-03T12:55:52.008Z</time>
      </trkpt>
      <trkpt lat="42.9883" lon="0.89568">
        <ele>550.65199805443</ele>
        <time>2016-12-03T12:55:55.008Z</time>
      </trkpt>
      <trkpt lat="42.98837" lon="0.89578">
        <ele>547</ele>
        <time>2016-12-03T12:56:02.008Z</time>
      </trkpt>
      <trkpt lat="42.98838" lon="0.89567">
        <ele>546</ele>
        <time>2016-12-03T12:56:27.008Z</time>
      </trkpt>
      <trkpt lat="42.98847" lon="0.89576">
        <ele>542</ele>
        <time>2016-12-03T12:56:38.008Z</time>
      </trkpt>
      <trkpt lat="42.98852" lon="0.89589">
        <ele>542</ele>
        <time>2016-12-03T12:56:46.008Z</time>
      </trkpt>
      <trkpt lat="42.98858" lon="0.896">
        <ele>542</ele>
        <time>2016-12-03T12:56:55.008Z</time>
      </trkpt>
      <trkpt lat="42.98858" lon="0.89615">
        <ele>541.65199805443</ele>
        <time>2016-12-03T12:57:01.008Z</time>
      </trkpt>
      <trkpt lat="42.98861" lon="0.89629">
        <ele>541</ele>
        <time>2016-12-03T12:57:05.008Z</time>
      </trkpt>
      <trkpt lat="42.98862" lon="0.89645">
        <ele>541</ele>
        <time>2016-12-03T12:57:09.008Z</time>
      </trkpt>
      <trkpt lat="42.98867" lon="0.89663">
        <ele>537</ele>
        <time>2016-12-03T12:57:12.008Z</time>
      </trkpt>
      <trkpt lat="42.98868" lon="0.89678">
        <ele>537</ele>
        <time>2016-12-03T12:57:14.008Z</time>
      </trkpt>
      <trkpt lat="42.98867" lon="0.89693">
        <ele>535.26000972812</ele>
        <time>2016-12-03T12:57:16.008Z</time>
      </trkpt>
      <trkpt lat="42.98866" lon="0.89711">
        <ele>532</ele>
        <time>2016-12-03T12:57:19.008Z</time>
      </trkpt>
      <trkpt lat="42.98861" lon="0.89729">
        <ele>527.65200194562</ele>
        <time>2016-12-03T12:57:22.008Z</time>
      </trkpt>
      <trkpt lat="42.98849" lon="0.89742">
        <ele>525.65200194562</ele>
        <time>2016-12-03T12:57:24.008Z</time>
      </trkpt>
      <trkpt lat="42.9884" lon="0.89755">
        <ele>524.65200194562</ele>
        <time>2016-12-03T12:57:26.008Z</time>
      </trkpt>
      <trkpt lat="42.98836" lon="0.89768">
        <ele>521.65199805443</ele>
        <time>2016-12-03T12:57:29.008Z</time>
      </trkpt>
      <trkpt lat="42.98837" lon="0.89782">
        <ele>518.65200194562</ele>
        <time>2016-12-03T12:57:34.008Z</time>
      </trkpt>
      <trkpt lat="42.98847" lon="0.89789">
        <ele>514.65199805443</ele>
        <time>2016-12-03T12:57:37.008Z</time>
      </trkpt>
      <trkpt lat="42.98857" lon="0.89797">
        <ele>512.65199805443</ele>
        <time>2016-12-03T12:57:39.008Z</time>
      </trkpt>
      <trkpt lat="42.98867" lon="0.89804">
        <ele>510.65199805443</ele>
        <time>2016-12-03T12:57:41.008Z</time>
      </trkpt>
      <trkpt lat="42.98878" lon="0.89815">
        <ele>509.65200194562</ele>
        <time>2016-12-03T12:57:44.008Z</time>
      </trkpt>
      <trkpt lat="42.98884" lon="0.8983">
        <ele>507</ele>
        <time>2016-12-03T12:57:47.008Z</time>
      </trkpt>
      <trkpt lat="42.98892" lon="0.8984">
        <ele>504.65858578023</ele>
        <time>2016-12-03T12:57:50.008Z</time>
      </trkpt>
      <trkpt lat="42.98898" lon="0.89854">
        <ele>501.65200194562</ele>
        <time>2016-12-03T12:57:54.008Z</time>
      </trkpt>
      <trkpt lat="42.98902" lon="0.89867">
        <ele>500.65199805443</ele>
        <time>2016-12-03T12:57:57.008Z</time>
      </trkpt>
      <trkpt lat="42.9891" lon="0.8988">
        <ele>498</ele>
        <time>2016-12-03T12:58:00.008Z</time>
      </trkpt>
      <trkpt lat="42.98915" lon="0.89898">
        <ele>496.65199805443</ele>
        <time>2016-12-03T12:58:03.008Z</time>
      </trkpt>
      <trkpt lat="42.98921" lon="0.89914">
        <ele>493</ele>
        <time>2016-12-03T12:58:07.008Z</time>
      </trkpt>
      <trkpt lat="42.98929" lon="0.89924">
        <ele>492.34799805438</ele>
        <time>2016-12-03T12:58:10.008Z</time>
      </trkpt>
      <trkpt lat="42.98937" lon="0.89932">
        <ele>491.95600583688</ele>
        <time>2016-12-03T12:58:16.008Z</time>
      </trkpt>
      <trkpt lat="42.98945" lon="0.89943">
        <ele>488</ele>
        <time>2016-12-03T12:58:22.008Z</time>
      </trkpt>
      <trkpt lat="42.98953" lon="0.89953">
        <ele>487.30400389125</ele>
        <time>2016-12-03T12:58:26.008Z</time>
      </trkpt>
      <trkpt lat="42.98958" lon="0.89965">
        <ele>486</ele>
        <time>2016-12-03T12:58:30.008Z</time>
      </trkpt>
      <trkpt lat="42.98962" lon="0.89978">
        <ele>480.65200194562</ele>
        <time>2016-12-03T12:58:34.008Z</time>
      </trkpt>
      <trkpt lat="42.98963" lon="0.89994">
        <ele>478.65200194562</ele>
        <time>2016-12-03T12:58:38.008Z</time>
      </trkpt>
      <trkpt lat="42.98974" lon="0.89998">
        <ele>474</ele>
        <time>2016-12-03T12:58:44.008Z</time>
      </trkpt>
      <trkpt lat="42.98979" lon="0.89984">
        <ele>472</ele>
        <time>2016-12-03T12:58:47.008Z</time>
      </trkpt>
      <trkpt lat="42.98983" lon="0.89974">
        <ele>468.65199805443</ele>
        <time>2016-12-03T12:58:51.008Z</time>
      </trkpt>
      <trkpt lat="42.98995" lon="0.89979">
        <ele>466.65199805443</ele>
        <time>2016-12-03T12:58:55.008Z</time>
      </trkpt>
      <trkpt lat="42.99005" lon="0.8999">
        <ele>465</ele>
        <time>2016-12-03T12:58:58.008Z</time>
      </trkpt>
      <trkpt lat="42.99012" lon="0.9">
        <ele>464</ele>
        <time>2016-12-03T12:59:00.008Z</time>
      </trkpt>
      <trkpt lat="42.99019" lon="0.90012">
        <ele>462</ele>
        <time>2016-12-03T12:59:03.008Z</time>
      </trkpt>
      <trkpt lat="42.99025" lon="0.9002">
        <ele>460</ele>
        <time>2016-12-03T12:59:11.008Z</time>
      </trkpt>
      <trkpt lat="42.9903" lon="0.90035">
        <ele>460</ele>
        <time>2016-12-03T12:59:22.008Z</time>
      </trkpt>
      <trkpt lat="42.99031" lon="0.90049">
        <ele>460</ele>
        <time>2016-12-03T12:59:25.008Z</time>
      </trkpt>
      <trkpt lat="42.99034" lon="0.90062">
        <ele>460</ele>
        <time>2016-12-03T12:59:28.008Z</time>
      </trkpt>
      <trkpt lat="42.99036" lon="0.90078">
        <ele>456</ele>
        <time>2016-12-03T12:59:32.008Z</time>
      </trkpt>
      <trkpt lat="42.99033" lon="0.90092">
        <ele>453</ele>
        <time>2016-12-03T12:59:38.008Z</time>
      </trkpt>
      <trkpt lat="42.99033" lon="0.90109">
        <ele>452</ele>
        <time>2016-12-03T12:59:44.008Z</time>
      </trkpt>
      <trkpt lat="42.9903" lon="0.90127">
        <ele>450</ele>
        <time>2016-12-03T12:59:48.008Z</time>
      </trkpt>
      <trkpt lat="42.99025" lon="0.90143">
        <ele>448</ele>
        <time>2016-12-03T12:59:53.008Z</time>
      </trkpt>
      <trkpt lat="42.99023" lon="0.90156">
        <ele>446</ele>
        <time>2016-12-03T12:59:57.008Z</time>
      </trkpt>
      <trkpt lat="42.99021" lon="0.9017">
        <ele>444.25999027212</ele>
        <time>2016-12-03T13:00:01.008Z</time>
      </trkpt>
      <trkpt lat="42.99021" lon="0.90188">
        <ele>439.65199805443</ele>
        <time>2016-12-03T13:00:05.008Z</time>
      </trkpt>
      <trkpt lat="42.9902" lon="0.90203">
        <ele>438</ele>
        <time>2016-12-03T13:00:08.008Z</time>
      </trkpt>
      <trkpt lat="42.99018" lon="0.90217">
        <ele>437.65200194562</ele>
        <time>2016-12-03T13:00:10.008Z</time>
      </trkpt>
      <trkpt lat="42.9902" lon="0.90234">
        <ele>437</ele>
        <time>2016-12-03T13:00:13.008Z</time>
      </trkpt>
      <trkpt lat="42.99027" lon="0.90245">
        <ele>435</ele>
        <time>2016-12-03T13:00:17.008Z</time>
      </trkpt>
      <trkpt lat="42.99041" lon="0.90245">
        <ele>435</ele>
        <time>2016-12-03T13:00:20.008Z</time>
      </trkpt>
      <trkpt lat="42.99053" lon="0.90243">
        <ele>434</ele>
        <time>2016-12-03T13:00:23.008Z</time>
      </trkpt>
      <trkpt lat="42.99066" lon="0.90242">
        <ele>433.65200194562</ele>
        <time>2016-12-03T13:00:26.008Z</time>
      </trkpt>
      <trkpt lat="42.9908" lon="0.90246">
        <ele>433</ele>
        <time>2016-12-03T13:00:29.008Z</time>
      </trkpt>
      <trkpt lat="42.99091" lon="0.90251">
        <ele>432.30399610885</ele>
        <time>2016-12-03T13:00:31.008Z</time>
      </trkpt>
      <trkpt lat="42.99103" lon="0.90258">
        <ele>431</ele>
        <time>2016-12-03T13:00:33.008Z</time>
      </trkpt>
      <trkpt lat="42.99114" lon="0.90266">
        <ele>431</ele>
        <time>2016-12-03T13:00:35.008Z</time>
      </trkpt>
      <trkpt lat="42.99124" lon="0.90279">
        <ele>429</ele>
        <time>2016-12-03T13:00:37.008Z</time>
      </trkpt>
      <trkpt lat="42.99136" lon="0.90289">
        <ele>429</ele>
        <time>2016-12-03T13:00:39.008Z</time>
      </trkpt>
      <trkpt lat="42.99149" lon="0.90297">
        <ele>427.95599416328</ele>
        <time>2016-12-03T13:00:41.008Z</time>
      </trkpt>
      <trkpt lat="42.9916" lon="0.90301">
        <ele>425</ele>
        <time>2016-12-03T13:00:43.008Z</time>
      </trkpt>
      <trkpt lat="42.99174" lon="0.90298">
        <ele>425</ele>
        <time>2016-12-03T13:00:45.008Z</time>
      </trkpt>
      <trkpt lat="42.99185" lon="0.90294">
        <ele>424</ele>
        <time>2016-12-03T13:00:47.008Z</time>
      </trkpt>
      <trkpt lat="42.99196" lon="0.9029">
        <ele>424</ele>
        <time>2016-12-03T13:00:49.008Z</time>
      </trkpt>
      <trkpt lat="42.99212" lon="0.90285">
        <ele>423</ele>
        <time>2016-12-03T13:00:51.008Z</time>
      </trkpt>
      <trkpt lat="42.99225" lon="0.90282">
        <ele>423</ele>
        <time>2016-12-03T13:00:53.008Z</time>
      </trkpt>
      <trkpt lat="42.99231" lon="0.9028">
        <ele>423</ele>
        <time>2016-12-03T13:00:54.008Z</time>
      </trkpt>
      <trkpt lat="42.99243" lon="0.90277">
        <ele>422.65200194562</ele>
        <time>2016-12-03T13:00:56.008Z</time>
      </trkpt>
      <trkpt lat="42.99255" lon="0.90275">
        <ele>422</ele>
        <time>2016-12-03T13:00:58.008Z</time>
      </trkpt>
      <trkpt lat="42.99266" lon="0.90273">
        <ele>422</ele>
        <time>2016-12-03T13:01:00.008Z</time>
      </trkpt>
      <trkpt lat="42.99278" lon="0.90272">
        <ele>421</ele>
        <time>2016-12-03T13:01:02.008Z</time>
      </trkpt>
      <trkpt lat="42.99289" lon="0.90271">
        <ele>421</ele>
        <time>2016-12-03T13:01:04.008Z</time>
      </trkpt>
      <trkpt lat="42.99301" lon="0.9027">
        <ele>421</ele>
        <time>2016-12-03T13:01:06.008Z</time>
      </trkpt>
      <trkpt lat="42.99311" lon="0.9027">
        <ele>421</ele>
        <time>2016-12-03T13:01:08.008Z</time>
      </trkpt>
      <trkpt lat="42.99322" lon="0.90269">
        <ele>421</ele>
        <time>2016-12-03T13:01:10.008Z</time>
      </trkpt>
      <trkpt lat="42.99333" lon="0.90269">
        <ele>421</ele>
        <time>2016-12-03T13:01:12.008Z</time>
      </trkpt>
      <trkpt lat="42.99344" lon="0.90269">
        <ele>421</ele>
        <time>2016-12-03T13:01:14.008Z</time>
      </trkpt>
      <trkpt lat="42.99353" lon="0.9027">
        <ele>421</ele>
        <time>2016-12-03T13:01:16.008Z</time>
      </trkpt>
      <trkpt lat="42.99361" lon="0.90273">
        <ele>421</ele>
        <time>2016-12-03T13:01:18.008Z</time>
      </trkpt>
      <trkpt lat="42.9937" lon="0.90278">
        <ele>421</ele>
        <time>2016-12-03T13:01:20.008Z</time>
      </trkpt>
      <trkpt lat="42.99379" lon="0.90283">
        <ele>421</ele>
        <time>2016-12-03T13:01:22.008Z</time>
      </trkpt>
      <trkpt lat="42.99389" lon="0.90289">
        <ele>421</ele>
        <time>2016-12-03T13:01:24.008Z</time>
      </trkpt>
      <trkpt lat="42.99399" lon="0.90294">
        <ele>421</ele>
        <time>2016-12-03T13:01:26.008Z</time>
      </trkpt>
      <trkpt lat="42.99408" lon="0.90299">
        <ele>421</ele>
        <time>2016-12-03T13:01:28.008Z</time>
      </trkpt>
      <trkpt lat="42.99418" lon="0.90301">
        <ele>421</ele>
        <time>2016-12-03T13:01:30.008Z</time>
      </trkpt>
      <trkpt lat="42.99427" lon="0.90303">
        <ele>419</ele>
        <time>2016-12-03T13:01:32.008Z</time>
      </trkpt>
      <trkpt lat="42.99434" lon="0.90309">
        <ele>419</ele>
        <time>2016-12-03T13:01:34.008Z</time>
      </trkpt>
      <trkpt lat="42.99439" lon="0.9032">
        <ele>419</ele>
        <time>2016-12-03T13:01:36.008Z</time>
      </trkpt>
      <trkpt lat="42.99444" lon="0.90332">
        <ele>419</ele>
        <time>2016-12-03T13:01:38.008Z</time>
      </trkpt>
      <trkpt lat="42.99448" lon="0.90345">
        <ele>419</ele>
        <time>2016-12-03T13:01:40.008Z</time>
      </trkpt>
      <trkpt lat="42.99453" lon="0.90359">
        <ele>418</ele>
        <time>2016-12-03T13:01:42.008Z</time>
      </trkpt>
      <trkpt lat="42.99458" lon="0.90371">
        <ele>418</ele>
        <time>2016-12-03T13:01:44.008Z</time>
      </trkpt>
      <trkpt lat="42.99461" lon="0.90377">
        <ele>418</ele>
        <time>2016-12-03T13:01:45.008Z</time>
      </trkpt>
      <trkpt lat="42.99464" lon="0.90384">
        <ele>418</ele>
        <time>2016-12-03T13:01:46.008Z</time>
      </trkpt>
      <trkpt lat="42.99466" lon="0.90391">
        <ele>418</ele>
        <time>2016-12-03T13:01:47.008Z</time>
      </trkpt>
      <trkpt lat="42.99472" lon="0.90404">
        <ele>418</ele>
        <time>2016-12-03T13:01:49.008Z</time>
      </trkpt>
      <trkpt lat="42.99478" lon="0.90417">
        <ele>417.65199805443</ele>
        <time>2016-12-03T13:01:51.008Z</time>
      </trkpt>
      <trkpt lat="42.99484" lon="0.90431">
        <ele>417</ele>
        <time>2016-12-03T13:01:53.008Z</time>
      </trkpt>
      <trkpt lat="42.99486" lon="0.90439">
        <ele>417</ele>
        <time>2016-12-03T13:01:54.008Z</time>
      </trkpt>
      <trkpt lat="42.99489" lon="0.90446">
        <ele>417</ele>
        <time>2016-12-03T13:01:55.008Z</time>
      </trkpt>
      <trkpt lat="42.99493" lon="0.9046">
        <ele>417</ele>
        <time>2016-12-03T13:01:57.008Z</time>
      </trkpt>
      <trkpt lat="42.99498" lon="0.90475">
        <ele>417</ele>
        <time>2016-12-03T13:01:59.008Z</time>
      </trkpt>
      <trkpt lat="42.99501" lon="0.9049">
        <ele>415.6079922177</ele>
        <time>2016-12-03T13:02:01.008Z</time>
      </trkpt>
      <trkpt lat="42.99505" lon="0.90505">
        <ele>413</ele>
        <time>2016-12-03T13:02:03.008Z</time>
      </trkpt>
      <trkpt lat="42.99507" lon="0.90513">
        <ele>413</ele>
        <time>2016-12-03T13:02:04.008Z</time>
      </trkpt>
      <trkpt lat="42.9951" lon="0.90521">
        <ele>413</ele>
        <time>2016-12-03T13:02:05.008Z</time>
      </trkpt>
      <trkpt lat="42.99513" lon="0.90529">
        <ele>413</ele>
        <time>2016-12-03T13:02:06.008Z</time>
      </trkpt>
      <trkpt lat="42.99523" lon="0.90541">
        <ele>413</ele>
        <time>2016-12-03T13:02:08.008Z</time>
      </trkpt>
      <trkpt lat="42.99529" lon="0.90545">
        <ele>413</ele>
        <time>2016-12-03T13:02:09.008Z</time>
      </trkpt>
      <trkpt lat="42.99541" lon="0.90554">
        <ele>413</ele>
        <time>2016-12-03T13:02:11.008Z</time>
      </trkpt>
      <trkpt lat="42.99553" lon="0.90562">
        <ele>413</ele>
        <time>2016-12-03T13:02:13.008Z</time>
      </trkpt>
      <trkpt lat="42.99565" lon="0.90568">
        <ele>413</ele>
        <time>2016-12-03T13:02:15.008Z</time>
      </trkpt>
      <trkpt lat="42.99571" lon="0.90568">
        <ele>413</ele>
        <time>2016-12-03T13:02:16.008Z</time>
      </trkpt>
      <trkpt lat="42.99583" lon="0.9057">
        <ele>413</ele>
        <time>2016-12-03T13:02:18.008Z</time>
      </trkpt>
      <trkpt lat="42.99595" lon="0.90571">
        <ele>413</ele>
        <time>2016-12-03T13:02:20.008Z</time>
      </trkpt>
      <trkpt lat="42.99607" lon="0.90573">
        <ele>413</ele>
        <time>2016-12-03T13:02:22.008Z</time>
      </trkpt>
      <trkpt lat="42.99619" lon="0.90577">
        <ele>413</ele>
        <time>2016-12-03T13:02:24.008Z</time>
      </trkpt>
      <trkpt lat="42.99629" lon="0.90581">
        <ele>413</ele>
        <time>2016-12-03T13:02:26.008Z</time>
      </trkpt>
      <trkpt lat="42.99635" lon="0.90588">
        <ele>413</ele>
        <time>2016-12-03T13:02:29.008Z</time>
      </trkpt>
      <trkpt lat="42.99631" lon="0.90575">
        <ele>410</ele>
        <time>2016-12-03T13:02:39.008Z</time>
      </trkpt>
      <trkpt lat="42.99633" lon="0.90561">
        <ele>411</ele>
        <time>2016-12-03T13:02:43.008Z</time>
      </trkpt>
      <trkpt lat="42.99638" lon="0.90546">
        <ele>411</ele>
        <time>2016-12-03T13:02:47.008Z</time>
      </trkpt>
      <trkpt lat="42.99641" lon="0.90533">
        <ele>411</ele>
        <time>2016-12-03T13:02:50.008Z</time>
      </trkpt>
      <trkpt lat="42.99644" lon="0.90516">
        <ele>412</ele>
        <time>2016-12-03T13:02:53.008Z</time>
      </trkpt>
      <trkpt lat="42.99648" lon="0.905">
        <ele>412</ele>
        <time>2016-12-03T13:02:56.008Z</time>
      </trkpt>
      <trkpt lat="42.99652" lon="0.90485">
        <ele>412</ele>
        <time>2016-12-03T13:02:59.008Z</time>
      </trkpt>
      <trkpt lat="42.99658" lon="0.90474">
        <ele>413</ele>
        <time>2016-12-03T13:03:02.008Z</time>
      </trkpt>
      <trkpt lat="42.99663" lon="0.90463">
        <ele>413</ele>
        <time>2016-12-03T13:03:05.008Z</time>
      </trkpt>
      <trkpt lat="42.99669" lon="0.90454">
        <ele>413</ele>
        <time>2016-12-03T13:03:08.008Z</time>
      </trkpt>
      <trkpt lat="42.99677" lon="0.90447">
        <ele>416</ele>
        <time>2016-12-03T13:03:12.008Z</time>
      </trkpt>
      <trkpt lat="42.99685" lon="0.90442">
        <ele>416</ele>
        <time>2016-12-03T13:03:15.008Z</time>
      </trkpt>
      <trkpt lat="42.99693" lon="0.90436">
        <ele>418</ele>
        <time>2016-12-03T13:03:18.008Z</time>
      </trkpt>
      <trkpt lat="42.99698" lon="0.90431">
        <ele>418</ele>
        <time>2016-12-03T13:03:20.008Z</time>
      </trkpt>
      <trkpt lat="42.99702" lon="0.90426">
        <ele>418</ele>
        <time>2016-12-03T13:03:22.008Z</time>
      </trkpt>
      <trkpt lat="42.99706" lon="0.90419">
        <ele>418</ele>
        <time>2016-12-03T13:03:24.008Z</time>
      </trkpt>
      <trkpt lat="42.9971" lon="0.90413">
        <ele>418</ele>
        <time>2016-12-03T13:03:26.008Z</time>
      </trkpt>
      <trkpt lat="42.99715" lon="0.90402">
        <ele>418</ele>
        <time>2016-12-03T13:03:29.008Z</time>
      </trkpt>
      <trkpt lat="42.99719" lon="0.90391">
        <ele>420</ele>
        <time>2016-12-03T13:03:32.008Z</time>
      </trkpt>
      <trkpt lat="42.99723" lon="0.9038">
        <ele>420</ele>
        <time>2016-12-03T13:03:35.008Z</time>
      </trkpt>
      <trkpt lat="42.99727" lon="0.90372">
        <ele>421</ele>
        <time>2016-12-03T13:03:37.008Z</time>
      </trkpt>
      <trkpt lat="42.9973" lon="0.90363">
        <ele>421</ele>
        <time>2016-12-03T13:03:39.008Z</time>
      </trkpt>
      <trkpt lat="42.99736" lon="0.90348">
        <ele>421</ele>
        <time>2016-12-03T13:03:42.008Z</time>
      </trkpt>
      <trkpt lat="42.99743" lon="0.90334">
        <ele>421</ele>
        <time>2016-12-03T13:03:45.008Z</time>
      </trkpt>
      <trkpt lat="42.99749" lon="0.90325">
        <ele>421</ele>
        <time>2016-12-03T13:03:47.008Z</time>
      </trkpt>
      <trkpt lat="42.99756" lon="0.90316">
        <ele>421</ele>
        <time>2016-12-03T13:03:49.008Z</time>
      </trkpt>
      <trkpt lat="42.99762" lon="0.90308">
        <ele>421</ele>
        <time>2016-12-03T13:03:51.008Z</time>
      </trkpt>
      <trkpt lat="42.99768" lon="0.90298">
        <ele>421</ele>
        <time>2016-12-03T13:03:53.008Z</time>
      </trkpt>
      <trkpt lat="42.99777" lon="0.90284">
        <ele>421</ele>
        <time>2016-12-03T13:03:56.008Z</time>
      </trkpt>
      <trkpt lat="42.99783" lon="0.9027">
        <ele>421</ele>
        <time>2016-12-03T13:03:59.008Z</time>
      </trkpt>
      <trkpt lat="42.9979" lon="0.90256">
        <ele>421</ele>
        <time>2016-12-03T13:04:02.008Z</time>
      </trkpt>
      <trkpt lat="42.99797" lon="0.90241">
        <ele>421</ele>
        <time>2016-12-03T13:04:05.008Z</time>
      </trkpt>
      <trkpt lat="42.99803" lon="0.90227">
        <ele>421</ele>
        <time>2016-12-03T13:04:08.008Z</time>
      </trkpt>
      <trkpt lat="42.99809" lon="0.90214">
        <ele>421</ele>
        <time>2016-12-03T13:04:11.008Z</time>
      </trkpt>
      <trkpt lat="42.99817" lon="0.90199">
        <ele>421</ele>
        <time>2016-12-03T13:04:14.008Z</time>
      </trkpt>
      <trkpt lat="42.99823" lon="0.90189">
        <ele>421</ele>
        <time>2016-12-03T13:04:16.008Z</time>
      </trkpt>
      <trkpt lat="42.9983" lon="0.9018">
        <ele>421</ele>
        <time>2016-12-03T13:04:18.008Z</time>
      </trkpt>
      <trkpt lat="42.99837" lon="0.90172">
        <ele>421</ele>
        <time>2016-12-03T13:04:20.008Z</time>
      </trkpt>
      <trkpt lat="42.99841" lon="0.90162">
        <ele>423</ele>
        <time>2016-12-03T13:04:22.008Z</time>
      </trkpt>
      <trkpt lat="42.99844" lon="0.90153">
        <ele>423</ele>
        <time>2016-12-03T13:04:24.008Z</time>
      </trkpt>
      <trkpt lat="42.99847" lon="0.90143">
        <ele>423</ele>
        <time>2016-12-03T13:04:26.008Z</time>
      </trkpt>
      <trkpt lat="42.99849" lon="0.90133">
        <ele>423</ele>
        <time>2016-12-03T13:04:28.008Z</time>
      </trkpt>
      <trkpt lat="42.9985" lon="0.90122">
        <ele>423</ele>
        <time>2016-12-03T13:04:30.008Z</time>
      </trkpt>
      <trkpt lat="42.9985" lon="0.90117">
        <ele>423.69600389115</ele>
        <time>2016-12-03T13:04:31.008Z</time>
      </trkpt>
      <trkpt lat="42.9985" lon="0.90112">
        <ele>425</ele>
        <time>2016-12-03T13:04:32.008Z</time>
      </trkpt>
      <trkpt lat="42.99849" lon="0.90107">
        <ele>425</ele>
        <time>2016-12-03T13:04:33.008Z</time>
      </trkpt>
      <trkpt lat="42.99848" lon="0.90096">
        <ele>425</ele>
        <time>2016-12-03T13:04:35.008Z</time>
      </trkpt>
      <trkpt lat="42.99848" lon="0.90091">
        <ele>425</ele>
        <time>2016-12-03T13:04:36.008Z</time>
      </trkpt>
      <trkpt lat="42.99848" lon="0.90086">
        <ele>425</ele>
        <time>2016-12-03T13:04:37.008Z</time>
      </trkpt>
      <trkpt lat="42.99849" lon="0.90075">
        <ele>425</ele>
        <time>2016-12-03T13:04:39.008Z</time>
      </trkpt>
      <trkpt lat="42.99849" lon="0.90065">
        <ele>425.34800194557</ele>
        <time>2016-12-03T13:04:41.008Z</time>
      </trkpt>
      <trkpt lat="42.9985" lon="0.90055">
        <ele>426</ele>
        <time>2016-12-03T13:04:43.008Z</time>
      </trkpt>
      <trkpt lat="42.9985" lon="0.90046">
        <ele>426</ele>
        <time>2016-12-03T13:04:45.008Z</time>
      </trkpt>
      <trkpt lat="42.99851" lon="0.90036">
        <ele>426</ele>
        <time>2016-12-03T13:04:47.008Z</time>
      </trkpt>
      <trkpt lat="42.99851" lon="0.90026">
        <ele>426</ele>
        <time>2016-12-03T13:04:49.008Z</time>
      </trkpt>
      <trkpt lat="42.99851" lon="0.90016">
        <ele>426.34800194557</ele>
        <time>2016-12-03T13:04:51.008Z</time>
      </trkpt>
      <trkpt lat="42.99851" lon="0.90006">
        <ele>427</ele>
        <time>2016-12-03T13:04:53.008Z</time>
      </trkpt>
      <trkpt lat="42.9985" lon="0.89996">
        <ele>427</ele>
        <time>2016-12-03T13:04:55.008Z</time>
      </trkpt>
      <trkpt lat="42.9985" lon="0.89986">
        <ele>427</ele>
        <time>2016-12-03T13:04:57.008Z</time>
      </trkpt>
      <trkpt lat="42.99849" lon="0.89977">
        <ele>427</ele>
        <time>2016-12-03T13:04:59.008Z</time>
      </trkpt>
      <trkpt lat="42.99848" lon="0.89968">
        <ele>428.04400583672</ele>
        <time>2016-12-03T13:05:01.008Z</time>
      </trkpt>
      <trkpt lat="42.99846" lon="0.89959">
        <ele>430</ele>
        <time>2016-12-03T13:05:03.008Z</time>
      </trkpt>
      <trkpt lat="42.99844" lon="0.89951">
        <ele>430</ele>
        <time>2016-12-03T13:05:05.008Z</time>
      </trkpt>
      <trkpt lat="42.99841" lon="0.89943">
        <ele>431</ele>
        <time>2016-12-03T13:05:07.008Z</time>
      </trkpt>
      <trkpt lat="42.99835" lon="0.89937">
        <ele>431</ele>
        <time>2016-12-03T13:05:09.008Z</time>
      </trkpt>
      <trkpt lat="42.9983" lon="0.89931">
        <ele>431</ele>
        <time>2016-12-03T13:05:11.008Z</time>
      </trkpt>
      <trkpt lat="42.99825" lon="0.89923">
        <ele>431</ele>
        <time>2016-12-03T13:05:13.008Z</time>
      </trkpt>
      <trkpt lat="42.99821" lon="0.89914">
        <ele>431</ele>
        <time>2016-12-03T13:05:15.008Z</time>
      </trkpt>
      <trkpt lat="42.99818" lon="0.89905">
        <ele>431</ele>
        <time>2016-12-03T13:05:17.008Z</time>
      </trkpt>
      <trkpt lat="42.99816" lon="0.89895">
        <ele>431</ele>
        <time>2016-12-03T13:05:19.008Z</time>
      </trkpt>
      <trkpt lat="42.99814" lon="0.89885">
        <ele>431.69600389115</ele>
        <time>2016-12-03T13:05:21.008Z</time>
      </trkpt>
      <trkpt lat="42.99811" lon="0.89874">
        <ele>433</ele>
        <time>2016-12-03T13:05:23.008Z</time>
      </trkpt>
      <trkpt lat="42.99808" lon="0.89863">
        <ele>433</ele>
        <time>2016-12-03T13:05:25.008Z</time>
      </trkpt>
      <trkpt lat="42.99805" lon="0.89853">
        <ele>433</ele>
        <time>2016-12-03T13:05:27.008Z</time>
      </trkpt>
      <trkpt lat="42.99803" lon="0.89842">
        <ele>433</ele>
        <time>2016-12-03T13:05:29.008Z</time>
      </trkpt>
      <trkpt lat="42.998" lon="0.89831">
        <ele>433.34800194557</ele>
        <time>2016-12-03T13:05:31.008Z</time>
      </trkpt>
      <trkpt lat="42.99799" lon="0.89826">
        <ele>434</ele>
        <time>2016-12-03T13:05:32.008Z</time>
      </trkpt>
      <trkpt lat="42.99798" lon="0.8982">
        <ele>434</ele>
        <time>2016-12-03T13:05:33.008Z</time>
      </trkpt>
      <trkpt lat="42.99797" lon="0.89815">
        <ele>434</ele>
        <time>2016-12-03T13:05:34.008Z</time>
      </trkpt>
      <trkpt lat="42.99796" lon="0.8981">
        <ele>434</ele>
        <time>2016-12-03T13:05:35.008Z</time>
      </trkpt>
      <trkpt lat="42.99795" lon="0.89804">
        <ele>434</ele>
        <time>2016-12-03T13:05:36.008Z</time>
      </trkpt>
      <trkpt lat="42.99794" lon="0.89799">
        <ele>434</ele>
        <time>2016-12-03T13:05:37.008Z</time>
      </trkpt>
      <trkpt lat="42.99795" lon="0.89794">
        <ele>434</ele>
        <time>2016-12-03T13:05:38.008Z</time>
      </trkpt>
      <trkpt lat="42.99797" lon="0.8979">
        <ele>434</ele>
        <time>2016-12-03T13:05:39.008Z</time>
      </trkpt>
      <trkpt lat="42.99803" lon="0.89786">
        <ele>434.69600389115</ele>
        <time>2016-12-03T13:05:41.008Z</time>
      </trkpt>
      <trkpt lat="42.9981" lon="0.89783">
        <ele>436</ele>
        <time>2016-12-03T13:05:43.008Z</time>
      </trkpt>
      <trkpt lat="42.99817" lon="0.8978">
        <ele>436</ele>
        <time>2016-12-03T13:05:45.008Z</time>
      </trkpt>
      <trkpt lat="42.99824" lon="0.89777">
        <ele>436</ele>
        <time>2016-12-03T13:05:47.008Z</time>
      </trkpt>
      <trkpt lat="42.9983" lon="0.89774">
        <ele>436</ele>
        <time>2016-12-03T13:05:49.008Z</time>
      </trkpt>
      <trkpt lat="42.9984" lon="0.89769">
        <ele>438</ele>
        <time>2016-12-03T13:05:52.008Z</time>
      </trkpt>
      <trkpt lat="42.9985" lon="0.89765">
        <ele>438</ele>
        <time>2016-12-03T13:05:55.008Z</time>
      </trkpt>
      <trkpt lat="42.99859" lon="0.89761">
        <ele>441</ele>
        <time>2016-12-03T13:05:58.008Z</time>
      </trkpt>
      <trkpt lat="42.99866" lon="0.89758">
        <ele>441</ele>
        <time>2016-12-03T13:06:00.008Z</time>
      </trkpt>
      <trkpt lat="42.99872" lon="0.89755">
        <ele>442</ele>
        <time>2016-12-03T13:06:02.008Z</time>
      </trkpt>
      <trkpt lat="42.99881" lon="0.89751">
        <ele>442</ele>
        <time>2016-12-03T13:06:05.008Z</time>
      </trkpt>
      <trkpt lat="42.99891" lon="0.89747">
        <ele>444</ele>
        <time>2016-12-03T13:06:08.008Z</time>
      </trkpt>
      <trkpt lat="42.999" lon="0.89743">
        <ele>444.34140980554</ele>
        <time>2016-12-03T13:06:11.008Z</time>
      </trkpt>
      <trkpt lat="42.99908" lon="0.8974">
        <ele>445</ele>
        <time>2016-12-03T13:06:14.008Z</time>
      </trkpt>
      <trkpt lat="42.9992" lon="0.89736">
        <ele>446</ele>
        <time>2016-12-03T13:06:18.008Z</time>
      </trkpt>
      <trkpt lat="42.99929" lon="0.89734">
        <ele>446.34800194557</ele>
        <time>2016-12-03T13:06:21.008Z</time>
      </trkpt>
      <trkpt lat="42.9994" lon="0.89731">
        <ele>446.65200194562</ele>
        <time>2016-12-03T13:06:24.008Z</time>
      </trkpt>
      <trkpt lat="42.9995" lon="0.8973">
        <ele>446</ele>
        <time>2016-12-03T13:06:27.008Z</time>
      </trkpt>
      <trkpt lat="42.99961" lon="0.89728">
        <ele>446</ele>
        <time>2016-12-03T13:06:30.008Z</time>
      </trkpt>
      <trkpt lat="42.9997" lon="0.89725">
        <ele>449</ele>
        <time>2016-12-03T13:06:33.008Z</time>
      </trkpt>
      <trkpt lat="42.99979" lon="0.89722">
        <ele>449.69599610875</ele>
        <time>2016-12-03T13:06:36.008Z</time>
      </trkpt>
      <trkpt lat="42.99988" lon="0.89718">
        <ele>451</ele>
        <time>2016-12-03T13:06:39.008Z</time>
      </trkpt>
      <trkpt lat="42.99994" lon="0.89715">
        <ele>451.34800194557</ele>
        <time>2016-12-03T13:06:41.008Z</time>
      </trkpt>
      <trkpt lat="43.00001" lon="0.89712">
        <ele>452</ele>
        <time>2016-12-03T13:06:43.008Z</time>
      </trkpt>
      <trkpt lat="43.00006" lon="0.89707">
        <ele>452</ele>
        <time>2016-12-03T13:06:45.008Z</time>
      </trkpt>
      <trkpt lat="43.00012" lon="0.89702">
        <ele>453</ele>
        <time>2016-12-03T13:06:47.008Z</time>
      </trkpt>
      <trkpt lat="43.00018" lon="0.89697">
        <ele>453</ele>
        <time>2016-12-03T13:06:49.008Z</time>
      </trkpt>
      <trkpt lat="43.00023" lon="0.89691">
        <ele>453</ele>
        <time>2016-12-03T13:06:51.008Z</time>
      </trkpt>
      <trkpt lat="43.00028" lon="0.89686">
        <ele>453</ele>
        <time>2016-12-03T13:06:53.008Z</time>
      </trkpt>
      <trkpt lat="43.00034" lon="0.89681">
        <ele>453</ele>
        <time>2016-12-03T13:06:55.008Z</time>
      </trkpt>
      <trkpt lat="43.00038" lon="0.89674">
        <ele>453</ele>
        <time>2016-12-03T13:06:57.008Z</time>
      </trkpt>
      <trkpt lat="43.00041" lon="0.89665">
        <ele>453</ele>
        <time>2016-12-03T13:06:59.008Z</time>
      </trkpt>
      <trkpt lat="43.00044" lon="0.89655">
        <ele>453.69600389115</ele>
        <time>2016-12-03T13:07:01.008Z</time>
      </trkpt>
      <trkpt lat="43.00047" lon="0.89646">
        <ele>455</ele>
        <time>2016-12-03T13:07:03.008Z</time>
      </trkpt>
      <trkpt lat="43.00051" lon="0.89636">
        <ele>455</ele>
        <time>2016-12-03T13:07:05.008Z</time>
      </trkpt>
      <trkpt lat="43.00054" lon="0.89632">
        <ele>455</ele>
        <time>2016-12-03T13:07:06.008Z</time>
      </trkpt>
      <trkpt lat="43.00062" lon="0.89623">
        <ele>455</ele>
        <time>2016-12-03T13:07:08.008Z</time>
      </trkpt>
      <trkpt lat="43.00071" lon="0.89616">
        <ele>455</ele>
        <time>2016-12-03T13:07:10.008Z</time>
      </trkpt>
      <trkpt lat="43.00075" lon="0.89612">
        <ele>454.30399610885</ele>
        <time>2016-12-03T13:07:11.008Z</time>
      </trkpt>
      <trkpt lat="43.0008" lon="0.89608">
        <ele>453</ele>
        <time>2016-12-03T13:07:12.008Z</time>
      </trkpt>
      <trkpt lat="43.00084" lon="0.89605">
        <ele>453</ele>
        <time>2016-12-03T13:07:13.008Z</time>
      </trkpt>
      <trkpt lat="43.00092" lon="0.89598">
        <ele>453</ele>
        <time>2016-12-03T13:07:15.008Z</time>
      </trkpt>
      <trkpt lat="43.00101" lon="0.89592">
        <ele>453</ele>
        <time>2016-12-03T13:07:17.008Z</time>
      </trkpt>
      <trkpt lat="43.00111" lon="0.89584">
        <ele>453</ele>
        <time>2016-12-03T13:07:19.008Z</time>
      </trkpt>
      <trkpt lat="43.00118" lon="0.8958">
        <ele>453</ele>
        <time>2016-12-03T13:07:20.008Z</time>
      </trkpt>
      <trkpt lat="43.0013" lon="0.89571">
        <ele>449</ele>
        <time>2016-12-03T13:07:22.008Z</time>
      </trkpt>
      <trkpt lat="43.00142" lon="0.89563">
        <ele>449</ele>
        <time>2016-12-03T13:07:24.008Z</time>
      </trkpt>
      <trkpt lat="43.00154" lon="0.89564">
        <ele>447.26000972812</ele>
        <time>2016-12-03T13:07:26.008Z</time>
      </trkpt>
      <trkpt lat="43.00164" lon="0.89575">
        <ele>444</ele>
        <time>2016-12-03T13:07:28.008Z</time>
      </trkpt>
      <trkpt lat="43.00171" lon="0.89591">
        <ele>444</ele>
        <time>2016-12-03T13:07:30.008Z</time>
      </trkpt>
      <trkpt lat="43.00176" lon="0.8961">
        <ele>438.65200194562</ele>
        <time>2016-12-03T13:07:32.008Z</time>
      </trkpt>
      <trkpt lat="43.00179" lon="0.89632">
        <ele>436.65200194562</ele>
        <time>2016-12-03T13:07:34.008Z</time>
      </trkpt>
      <trkpt lat="43.00181" lon="0.89654">
        <ele>433.65200194562</ele>
        <time>2016-12-03T13:07:36.008Z</time>
      </trkpt>
      <trkpt lat="43.00185" lon="0.89674">
        <ele>433</ele>
        <time>2016-12-03T13:07:38.008Z</time>
      </trkpt>
      <trkpt lat="43.00188" lon="0.89693">
        <ele>432.65200194562</ele>
        <time>2016-12-03T13:07:40.008Z</time>
      </trkpt>
      <trkpt lat="43.00191" lon="0.8971">
        <ele>431</ele>
        <time>2016-12-03T13:07:42.008Z</time>
      </trkpt>
      <trkpt lat="43.00196" lon="0.89724">
        <ele>430</ele>
        <time>2016-12-03T13:07:44.008Z</time>
      </trkpt>
      <trkpt lat="43.00202" lon="0.89732">
        <ele>429</ele>
        <time>2016-12-03T13:07:46.008Z</time>
      </trkpt>
      <trkpt lat="43.00211" lon="0.89737">
        <ele>429</ele>
        <time>2016-12-03T13:07:48.008Z</time>
      </trkpt>
      <trkpt lat="43.0022" lon="0.89742">
        <ele>429</ele>
        <time>2016-12-03T13:07:50.008Z</time>
      </trkpt>
      <trkpt lat="43.00228" lon="0.89741">
        <ele>429</ele>
        <time>2016-12-03T13:07:52.008Z</time>
      </trkpt>
      <trkpt lat="43.00234" lon="0.89732">
        <ele>429</ele>
        <time>2016-12-03T13:07:54.008Z</time>
      </trkpt>
      <trkpt lat="43.00241" lon="0.89723">
        <ele>429</ele>
        <time>2016-12-03T13:07:56.008Z</time>
      </trkpt>
      <trkpt lat="43.0025" lon="0.89717">
        <ele>429</ele>
        <time>2016-12-03T13:07:58.008Z</time>
      </trkpt>
      <trkpt lat="43.00259" lon="0.89712">
        <ele>429</ele>
        <time>2016-12-03T13:08:00.008Z</time>
      </trkpt>
      <trkpt lat="43.00269" lon="0.89708">
        <ele>427</ele>
        <time>2016-12-03T13:08:02.008Z</time>
      </trkpt>
      <trkpt lat="43.00279" lon="0.89704">
        <ele>427</ele>
        <time>2016-12-03T13:08:04.008Z</time>
      </trkpt>
      <trkpt lat="43.00288" lon="0.89698">
        <ele>427</ele>
        <time>2016-12-03T13:08:06.008Z</time>
      </trkpt>
      <trkpt lat="43.00298" lon="0.89691">
        <ele>427</ele>
        <time>2016-12-03T13:08:08.008Z</time>
      </trkpt>
      <trkpt lat="43.00307" lon="0.89684">
        <ele>427</ele>
        <time>2016-12-03T13:08:10.008Z</time>
      </trkpt>
      <trkpt lat="43.00318" lon="0.89677">
        <ele>427</ele>
        <time>2016-12-03T13:08:12.008Z</time>
      </trkpt>
      <trkpt lat="43.00323" lon="0.89674">
        <ele>427</ele>
        <time>2016-12-03T13:08:13.008Z</time>
      </trkpt>
      <trkpt lat="43.00333" lon="0.89668">
        <ele>427</ele>
        <time>2016-12-03T13:08:15.008Z</time>
      </trkpt>
      <trkpt lat="43.00337" lon="0.89662">
        <ele>427</ele>
        <time>2016-12-03T13:08:16.008Z</time>
      </trkpt>
      <trkpt lat="43.00341" lon="0.8965">
        <ele>427</ele>
        <time>2016-12-03T13:08:18.008Z</time>
      </trkpt>
      <trkpt lat="43.00342" lon="0.89638">
        <ele>427</ele>
        <time>2016-12-03T13:08:20.008Z</time>
      </trkpt>
      <trkpt lat="43.00342" lon="0.89627">
        <ele>428</ele>
        <time>2016-12-03T13:08:22.008Z</time>
      </trkpt>
      <trkpt lat="43.00345" lon="0.89617">
        <ele>428</ele>
        <time>2016-12-03T13:08:24.008Z</time>
      </trkpt>
      <trkpt lat="43.0035" lon="0.89607">
        <ele>428</ele>
        <time>2016-12-03T13:08:26.008Z</time>
      </trkpt>
      <trkpt lat="43.00354" lon="0.89596">
        <ele>428</ele>
        <time>2016-12-03T13:08:28.008Z</time>
      </trkpt>
      <trkpt lat="43.00356" lon="0.89584">
        <ele>428</ele>
        <time>2016-12-03T13:08:30.008Z</time>
      </trkpt>
      <trkpt lat="43.00356" lon="0.89571">
        <ele>428</ele>
        <time>2016-12-03T13:08:32.008Z</time>
      </trkpt>
      <trkpt lat="43.00356" lon="0.89559">
        <ele>428</ele>
        <time>2016-12-03T13:08:34.008Z</time>
      </trkpt>
      <trkpt lat="43.00356" lon="0.89545">
        <ele>428</ele>
        <time>2016-12-03T13:08:36.008Z</time>
      </trkpt>
      <trkpt lat="43.00356" lon="0.89532">
        <ele>428</ele>
        <time>2016-12-03T13:08:38.008Z</time>
      </trkpt>
      <trkpt lat="43.00357" lon="0.89519">
        <ele>428</ele>
        <time>2016-12-03T13:08:40.008Z</time>
      </trkpt>
      <trkpt lat="43.00358" lon="0.89506">
        <ele>429</ele>
        <time>2016-12-03T13:08:42.008Z</time>
      </trkpt>
      <trkpt lat="43.0036" lon="0.89493">
        <ele>429</ele>
        <time>2016-12-03T13:08:44.008Z</time>
      </trkpt>
      <trkpt lat="43.00363" lon="0.89481">
        <ele>429</ele>
        <time>2016-12-03T13:08:46.008Z</time>
      </trkpt>
      <trkpt lat="43.00367" lon="0.8947">
        <ele>429</ele>
        <time>2016-12-03T13:08:48.008Z</time>
      </trkpt>
      <trkpt lat="43.0037" lon="0.89459">
        <ele>429</ele>
        <time>2016-12-03T13:08:50.008Z</time>
      </trkpt>
      <trkpt lat="43.00374" lon="0.89445">
        <ele>431</ele>
        <time>2016-12-03T13:08:53.008Z</time>
      </trkpt>
      <trkpt lat="43.00376" lon="0.89431">
        <ele>431</ele>
        <time>2016-12-03T13:08:56.008Z</time>
      </trkpt>
      <trkpt lat="43.00376" lon="0.89415">
        <ele>431</ele>
        <time>2016-12-03T13:09:00.008Z</time>
      </trkpt>
      <trkpt lat="43.00374" lon="0.89403">
        <ele>433</ele>
        <time>2016-12-03T13:09:03.008Z</time>
      </trkpt>
      <trkpt lat="43.00372" lon="0.89392">
        <ele>433.69599610875</ele>
        <time>2016-12-03T13:09:06.008Z</time>
      </trkpt>
      <trkpt lat="43.00369" lon="0.89382">
        <ele>435</ele>
        <time>2016-12-03T13:09:09.008Z</time>
      </trkpt>
      <trkpt lat="43.00365" lon="0.89371">
        <ele>438</ele>
        <time>2016-12-03T13:09:12.008Z</time>
      </trkpt>
      <trkpt lat="43.0036" lon="0.89361">
        <ele>438</ele>
        <time>2016-12-03T13:09:15.008Z</time>
      </trkpt>
      <trkpt lat="43.00355" lon="0.89347">
        <ele>439</ele>
        <time>2016-12-03T13:09:19.008Z</time>
      </trkpt>
      <trkpt lat="43.00354" lon="0.89336">
        <ele>440</ele>
        <time>2016-12-03T13:09:22.008Z</time>
      </trkpt>
      <trkpt lat="43.00357" lon="0.89328">
        <ele>440</ele>
        <time>2016-12-03T13:09:24.008Z</time>
      </trkpt>
      <trkpt lat="43.00361" lon="0.89322">
        <ele>440</ele>
        <time>2016-12-03T13:09:26.008Z</time>
      </trkpt>
      <trkpt lat="43.00365" lon="0.89315">
        <ele>440</ele>
        <time>2016-12-03T13:09:28.008Z</time>
      </trkpt>
      <trkpt lat="43.00371" lon="0.89309">
        <ele>440</ele>
        <time>2016-12-03T13:09:30.008Z</time>
      </trkpt>
      <trkpt lat="43.00376" lon="0.89303">
        <ele>442</ele>
        <time>2016-12-03T13:09:32.008Z</time>
      </trkpt>
      <trkpt lat="43.00382" lon="0.89297">
        <ele>442</ele>
        <time>2016-12-03T13:09:34.008Z</time>
      </trkpt>
      <trkpt lat="43.00387" lon="0.8929">
        <ele>442</ele>
        <time>2016-12-03T13:09:36.008Z</time>
      </trkpt>
      <trkpt lat="43.00393" lon="0.89285">
        <ele>442</ele>
        <time>2016-12-03T13:09:38.008Z</time>
      </trkpt>
      <trkpt lat="43.00398" lon="0.89279">
        <ele>442</ele>
        <time>2016-12-03T13:09:40.008Z</time>
      </trkpt>
      <trkpt lat="43.00403" lon="0.89273">
        <ele>444</ele>
        <time>2016-12-03T13:09:42.008Z</time>
      </trkpt>
      <trkpt lat="43.00409" lon="0.89267">
        <ele>444</ele>
        <time>2016-12-03T13:09:44.008Z</time>
      </trkpt>
      <trkpt lat="43.00415" lon="0.8926">
        <ele>444</ele>
        <time>2016-12-03T13:09:46.008Z</time>
      </trkpt>
      <trkpt lat="43.00421" lon="0.89252">
        <ele>444</ele>
        <time>2016-12-03T13:09:48.008Z</time>
      </trkpt>
      <trkpt lat="43.00424" lon="0.89248">
        <ele>444</ele>
        <time>2016-12-03T13:09:49.008Z</time>
      </trkpt>
      <trkpt lat="43.00426" lon="0.89242">
        <ele>444</ele>
        <time>2016-12-03T13:09:50.008Z</time>
      </trkpt>
      <trkpt lat="43.00429" lon="0.89237">
        <ele>444</ele>
        <time>2016-12-03T13:09:51.008Z</time>
      </trkpt>
      <trkpt lat="43.00432" lon="0.89231">
        <ele>444</ele>
        <time>2016-12-03T13:09:52.008Z</time>
      </trkpt>
      <trkpt lat="43.00434" lon="0.89224">
        <ele>444</ele>
        <time>2016-12-03T13:09:53.008Z</time>
      </trkpt>
      <trkpt lat="43.00436" lon="0.89218">
        <ele>444</ele>
        <time>2016-12-03T13:09:54.008Z</time>
      </trkpt>
      <trkpt lat="43.00439" lon="0.89211">
        <ele>444</ele>
        <time>2016-12-03T13:09:55.008Z</time>
      </trkpt>
      <trkpt lat="43.00441" lon="0.89205">
        <ele>444</ele>
        <time>2016-12-03T13:09:56.008Z</time>
      </trkpt>
      <trkpt lat="43.00443" lon="0.89198">
        <ele>444</ele>
        <time>2016-12-03T13:09:57.008Z</time>
      </trkpt>
      <trkpt lat="43.00445" lon="0.89191">
        <ele>444</ele>
        <time>2016-12-03T13:09:58.008Z</time>
      </trkpt>
      <trkpt lat="43.00447" lon="0.89185">
        <ele>444</ele>
        <time>2016-12-03T13:09:59.008Z</time>
      </trkpt>
      <trkpt lat="43.00449" lon="0.89178">
        <ele>444</ele>
        <time>2016-12-03T13:10:00.008Z</time>
      </trkpt>
      <trkpt lat="43.00451" lon="0.89171">
        <ele>443.30399610885</ele>
        <time>2016-12-03T13:10:01.008Z</time>
      </trkpt>
      <trkpt lat="43.00453" lon="0.89165">
        <ele>442</ele>
        <time>2016-12-03T13:10:02.008Z</time>
      </trkpt>
      <trkpt lat="43.00456" lon="0.89158">
        <ele>442</ele>
        <time>2016-12-03T13:10:03.008Z</time>
      </trkpt>
      <trkpt lat="43.00458" lon="0.89151">
        <ele>442</ele>
        <time>2016-12-03T13:10:04.008Z</time>
      </trkpt>
      <trkpt lat="43.0046" lon="0.89144">
        <ele>442</ele>
        <time>2016-12-03T13:10:05.008Z</time>
      </trkpt>
      <trkpt lat="43.00464" lon="0.89137">
        <ele>442</ele>
        <time>2016-12-03T13:10:06.008Z</time>
      </trkpt>
      <trkpt lat="43.00469" lon="0.89131">
        <ele>442</ele>
        <time>2016-12-03T13:10:07.008Z</time>
      </trkpt>
      <trkpt lat="43.00481" lon="0.89125">
        <ele>442</ele>
        <time>2016-12-03T13:10:09.008Z</time>
      </trkpt>
      <trkpt lat="43.00497" lon="0.89133">
        <ele>440.95599416328</ele>
        <time>2016-12-03T13:10:11.008Z</time>
      </trkpt>
      <trkpt lat="43.00514" lon="0.89139">
        <ele>439</ele>
        <time>2016-12-03T13:10:13.008Z</time>
      </trkpt>
      <trkpt lat="43.0053" lon="0.89136">
        <ele>439</ele>
        <time>2016-12-03T13:10:15.008Z</time>
      </trkpt>
      <trkpt lat="43.00538" lon="0.89122">
        <ele>436</ele>
        <time>2016-12-03T13:10:17.008Z</time>
      </trkpt>
      <trkpt lat="43.00541" lon="0.89103">
        <ele>436</ele>
        <time>2016-12-03T13:10:19.008Z</time>
      </trkpt>
      <trkpt lat="43.0054" lon="0.89086">
        <ele>436</ele>
        <time>2016-12-03T13:10:21.008Z</time>
      </trkpt>
      <trkpt lat="43.00538" lon="0.89069">
        <ele>436</ele>
        <time>2016-12-03T13:10:23.008Z</time>
      </trkpt>
      <trkpt lat="43.00538" lon="0.89052">
        <ele>436</ele>
        <time>2016-12-03T13:10:25.008Z</time>
      </trkpt>
      <trkpt lat="43.0054" lon="0.89037">
        <ele>436</ele>
        <time>2016-12-03T13:10:27.008Z</time>
      </trkpt>
      <trkpt lat="43.00541" lon="0.8903">
        <ele>436</ele>
        <time>2016-12-03T13:10:28.008Z</time>
      </trkpt>
      <trkpt lat="43.00541" lon="0.89022">
        <ele>436</ele>
        <time>2016-12-03T13:10:29.008Z</time>
      </trkpt>
      <trkpt lat="43.00543" lon="0.89007">
        <ele>435.65199805443</ele>
        <time>2016-12-03T13:10:31.008Z</time>
      </trkpt>
      <trkpt lat="43.00545" lon="0.89">
        <ele>435</ele>
        <time>2016-12-03T13:10:32.008Z</time>
      </trkpt>
      <trkpt lat="43.00548" lon="0.88994">
        <ele>435</ele>
        <time>2016-12-03T13:10:33.008Z</time>
      </trkpt>
      <trkpt lat="43.00551" lon="0.88987">
        <ele>435</ele>
        <time>2016-12-03T13:10:34.008Z</time>
      </trkpt>
      <trkpt lat="43.00554" lon="0.88981">
        <ele>435</ele>
        <time>2016-12-03T13:10:35.008Z</time>
      </trkpt>
      <trkpt lat="43.00557" lon="0.88974">
        <ele>435</ele>
        <time>2016-12-03T13:10:36.008Z</time>
      </trkpt>
      <trkpt lat="43.00559" lon="0.88967">
        <ele>435</ele>
        <time>2016-12-03T13:10:37.008Z</time>
      </trkpt>
      <trkpt lat="43.00561" lon="0.88961">
        <ele>435</ele>
        <time>2016-12-03T13:10:38.008Z</time>
      </trkpt>
      <trkpt lat="43.00563" lon="0.88954">
        <ele>435</ele>
        <time>2016-12-03T13:10:39.008Z</time>
      </trkpt>
      <trkpt lat="43.00565" lon="0.88947">
        <ele>435</ele>
        <time>2016-12-03T13:10:40.008Z</time>
      </trkpt>
      <trkpt lat="43.00566" lon="0.8894">
        <ele>435</ele>
        <time>2016-12-03T13:10:41.008Z</time>
      </trkpt>
      <trkpt lat="43.00568" lon="0.88933">
        <ele>435</ele>
        <time>2016-12-03T13:10:42.008Z</time>
      </trkpt>
      <trkpt lat="43.00569" lon="0.88926">
        <ele>435</ele>
        <time>2016-12-03T13:10:43.008Z</time>
      </trkpt>
      <trkpt lat="43.0057" lon="0.88919">
        <ele>435</ele>
        <time>2016-12-03T13:10:44.008Z</time>
      </trkpt>
      <trkpt lat="43.00571" lon="0.88912">
        <ele>435</ele>
        <time>2016-12-03T13:10:45.008Z</time>
      </trkpt>
      <trkpt lat="43.00572" lon="0.88905">
        <ele>435</ele>
        <time>2016-12-03T13:10:46.008Z</time>
      </trkpt>
      <trkpt lat="43.00572" lon="0.88898">
        <ele>435</ele>
        <time>2016-12-03T13:10:47.008Z</time>
      </trkpt>
      <trkpt lat="43.00572" lon="0.88891">
        <ele>435</ele>
        <time>2016-12-03T13:10:48.008Z</time>
      </trkpt>
      <trkpt lat="43.00573" lon="0.88884">
        <ele>435</ele>
        <time>2016-12-03T13:10:49.008Z</time>
      </trkpt>
      <trkpt lat="43.00573" lon="0.88876">
        <ele>435</ele>
        <time>2016-12-03T13:10:50.008Z</time>
      </trkpt>
      <trkpt lat="43.00573" lon="0.88862">
        <ele>435</ele>
        <time>2016-12-03T13:10:52.008Z</time>
      </trkpt>
      <trkpt lat="43.00575" lon="0.88848">
        <ele>435</ele>
        <time>2016-12-03T13:10:54.008Z</time>
      </trkpt>
      <trkpt lat="43.00577" lon="0.88835">
        <ele>435</ele>
        <time>2016-12-03T13:10:56.008Z</time>
      </trkpt>
      <trkpt lat="43.00578" lon="0.88828">
        <ele>435</ele>
        <time>2016-12-03T13:10:57.008Z</time>
      </trkpt>
      <trkpt lat="43.00579" lon="0.88822">
        <ele>435</ele>
        <time>2016-12-03T13:10:58.008Z</time>
      </trkpt>
      <trkpt lat="43.0058" lon="0.88816">
        <ele>435</ele>
        <time>2016-12-03T13:10:59.008Z</time>
      </trkpt>
      <trkpt lat="43.00581" lon="0.8881">
        <ele>435</ele>
        <time>2016-12-03T13:11:00.008Z</time>
      </trkpt>
      <trkpt lat="43.00582" lon="0.88805">
        <ele>436.04400583672</ele>
        <time>2016-12-03T13:11:01.008Z</time>
      </trkpt>
      <trkpt lat="43.00583" lon="0.88799">
        <ele>438</ele>
        <time>2016-12-03T13:11:02.008Z</time>
      </trkpt>
      <trkpt lat="43.00584" lon="0.88794">
        <ele>438</ele>
        <time>2016-12-03T13:11:03.008Z</time>
      </trkpt>
      <trkpt lat="43.00584" lon="0.88789">
        <ele>438</ele>
        <time>2016-12-03T13:11:04.008Z</time>
      </trkpt>
      <trkpt lat="43.00585" lon="0.88779">
        <ele>438.34799805438</ele>
        <time>2016-12-03T13:11:06.008Z</time>
      </trkpt>
      <trkpt lat="43.00586" lon="0.88774">
        <ele>439</ele>
        <time>2016-12-03T13:11:07.008Z</time>
      </trkpt>
      <trkpt lat="43.00586" lon="0.88769">
        <ele>439</ele>
        <time>2016-12-03T13:11:08.008Z</time>
      </trkpt>
      <trkpt lat="43.00586" lon="0.88764">
        <ele>439</ele>
        <time>2016-12-03T13:11:09.008Z</time>
      </trkpt>
      <trkpt lat="43.00587" lon="0.88759">
        <ele>439</ele>
        <time>2016-12-03T13:11:10.008Z</time>
      </trkpt>
      <trkpt lat="43.00587" lon="0.88754">
        <ele>439.69600389115</ele>
        <time>2016-12-03T13:11:11.008Z</time>
      </trkpt>
      <trkpt lat="43.00587" lon="0.8875">
        <ele>441</ele>
        <time>2016-12-03T13:11:12.008Z</time>
      </trkpt>
      <trkpt lat="43.00587" lon="0.8874">
        <ele>441</ele>
        <time>2016-12-03T13:11:14.008Z</time>
      </trkpt>
      <trkpt lat="43.00587" lon="0.88728">
        <ele>442</ele>
        <time>2016-12-03T13:11:17.008Z</time>
      </trkpt>
      <trkpt lat="43.00588" lon="0.88718">
        <ele>442</ele>
        <time>2016-12-03T13:11:19.008Z</time>
      </trkpt>
      <trkpt lat="43.00589" lon="0.88704">
        <ele>443</ele>
        <time>2016-12-03T13:11:22.008Z</time>
      </trkpt>
      <trkpt lat="43.00592" lon="0.8869">
        <ele>443</ele>
        <time>2016-12-03T13:11:25.008Z</time>
      </trkpt>
      <trkpt lat="43.00596" lon="0.88677">
        <ele>443</ele>
        <time>2016-12-03T13:11:28.008Z</time>
      </trkpt>
      <trkpt lat="43.00599" lon="0.88663">
        <ele>443.34800194557</ele>
        <time>2016-12-03T13:11:31.008Z</time>
      </trkpt>
      <trkpt lat="43.00604" lon="0.88648">
        <ele>444</ele>
        <time>2016-12-03T13:11:34.008Z</time>
      </trkpt>
      <trkpt lat="43.00609" lon="0.88636">
        <ele>444</ele>
        <time>2016-12-03T13:11:37.008Z</time>
      </trkpt>
      <trkpt lat="43.00611" lon="0.88618">
        <ele>444.69600389115</ele>
        <time>2016-12-03T13:11:41.008Z</time>
      </trkpt>
      <trkpt lat="43.00606" lon="0.88606">
        <ele>446</ele>
        <time>2016-12-03T13:11:44.008Z</time>
      </trkpt>
      <trkpt lat="43.00599" lon="0.88593">
        <ele>446</ele>
        <time>2016-12-03T13:11:47.008Z</time>
      </trkpt>
      <trkpt lat="43.00603" lon="0.88582">
        <ele>446</ele>
        <time>2016-12-03T13:11:49.008Z</time>
      </trkpt>
      <trkpt lat="43.00612" lon="0.88579">
        <ele>446</ele>
        <time>2016-12-03T13:11:51.008Z</time>
      </trkpt>
      <trkpt lat="43.00621" lon="0.88579">
        <ele>446</ele>
        <time>2016-12-03T13:11:53.008Z</time>
      </trkpt>
      <trkpt lat="43.0063" lon="0.88575">
        <ele>446</ele>
        <time>2016-12-03T13:11:55.008Z</time>
      </trkpt>
      <trkpt lat="43.00636" lon="0.88566">
        <ele>446</ele>
        <time>2016-12-03T13:11:57.008Z</time>
      </trkpt>
      <trkpt lat="43.00641" lon="0.88555">
        <ele>446</ele>
        <time>2016-12-03T13:11:59.008Z</time>
      </trkpt>
      <trkpt lat="43.00643" lon="0.88543">
        <ele>445.65199805443</ele>
        <time>2016-12-03T13:12:01.008Z</time>
      </trkpt>
      <trkpt lat="43.00643" lon="0.8853">
        <ele>445</ele>
        <time>2016-12-03T13:12:03.008Z</time>
      </trkpt>
      <trkpt lat="43.00643" lon="0.88518">
        <ele>445</ele>
        <time>2016-12-03T13:12:05.008Z</time>
      </trkpt>
      <trkpt lat="43.00645" lon="0.885">
        <ele>445</ele>
        <time>2016-12-03T13:12:08.008Z</time>
      </trkpt>
      <trkpt lat="43.00652" lon="0.88485">
        <ele>445</ele>
        <time>2016-12-03T13:12:11.008Z</time>
      </trkpt>
      <trkpt lat="43.0066" lon="0.88475">
        <ele>445</ele>
        <time>2016-12-03T13:12:13.008Z</time>
      </trkpt>
      <trkpt lat="43.0067" lon="0.88462">
        <ele>445</ele>
        <time>2016-12-03T13:12:16.008Z</time>
      </trkpt>
      <trkpt lat="43.00679" lon="0.88451">
        <ele>445</ele>
        <time>2016-12-03T13:12:18.008Z</time>
      </trkpt>
      <trkpt lat="43.00688" lon="0.88443">
        <ele>445</ele>
        <time>2016-12-03T13:12:20.008Z</time>
      </trkpt>
      <trkpt lat="43.00697" lon="0.88435">
        <ele>445</ele>
        <time>2016-12-03T13:12:22.008Z</time>
      </trkpt>
      <trkpt lat="43.00707" lon="0.88432">
        <ele>445</ele>
        <time>2016-12-03T13:12:24.008Z</time>
      </trkpt>
      <trkpt lat="43.00719" lon="0.88435">
        <ele>445</ele>
        <time>2016-12-03T13:12:27.008Z</time>
      </trkpt>
      <trkpt lat="43.00732" lon="0.88441">
        <ele>445</ele>
        <time>2016-12-03T13:12:30.008Z</time>
      </trkpt>
      <trkpt lat="43.0074" lon="0.88451">
        <ele>447</ele>
        <time>2016-12-03T13:12:33.008Z</time>
      </trkpt>
      <trkpt lat="43.00745" lon="0.88465">
        <ele>447</ele>
        <time>2016-12-03T13:12:37.008Z</time>
      </trkpt>
      <trkpt lat="43.00752" lon="0.88473">
        <ele>448.3920077823</ele>
        <time>2016-12-03T13:12:41.008Z</time>
      </trkpt>
      <trkpt lat="43.00763" lon="0.88476">
        <ele>451</ele>
        <time>2016-12-03T13:12:44.008Z</time>
      </trkpt>
      <trkpt lat="43.0077" lon="0.88483">
        <ele>454</ele>
        <time>2016-12-03T13:12:47.008Z</time>
      </trkpt>
      <trkpt lat="43.00772" lon="0.88494">
        <ele>454</ele>
        <time>2016-12-03T13:12:50.008Z</time>
      </trkpt>
      <trkpt lat="43.0077" lon="0.88505">
        <ele>457</ele>
        <time>2016-12-03T13:12:53.008Z</time>
      </trkpt>
      <trkpt lat="43.00769" lon="0.88517">
        <ele>457</ele>
        <time>2016-12-03T13:12:56.008Z</time>
      </trkpt>
      <trkpt lat="43.00772" lon="0.88528">
        <ele>459</ele>
        <time>2016-12-03T13:12:59.008Z</time>
      </trkpt>
      <trkpt lat="43.00779" lon="0.88537">
        <ele>460</ele>
        <time>2016-12-03T13:13:03.008Z</time>
      </trkpt>
      <trkpt lat="43.00786" lon="0.8854">
        <ele>460.69599610875</ele>
        <time>2016-12-03T13:13:06.008Z</time>
      </trkpt>
      <trkpt lat="43.00797" lon="0.88545">
        <ele>462.34800194557</ele>
        <time>2016-12-03T13:13:11.008Z</time>
      </trkpt>
      <trkpt lat="43.00803" lon="0.88546">
        <ele>463</ele>
        <time>2016-12-03T13:13:14.008Z</time>
      </trkpt>
      <trkpt lat="43.00811" lon="0.88547">
        <ele>465</ele>
        <time>2016-12-03T13:13:18.008Z</time>
      </trkpt>
      <trkpt lat="43.0082" lon="0.88546">
        <ele>467</ele>
        <time>2016-12-03T13:13:22.008Z</time>
      </trkpt>
      <trkpt lat="43.00826" lon="0.88543">
        <ele>467</ele>
        <time>2016-12-03T13:13:25.008Z</time>
      </trkpt>
      <trkpt lat="43.00834" lon="0.8854">
        <ele>469</ele>
        <time>2016-12-03T13:13:29.008Z</time>
      </trkpt>
      <trkpt lat="43.00838" lon="0.8853">
        <ele>470</ele>
        <time>2016-12-03T13:13:33.008Z</time>
      </trkpt>
      <trkpt lat="43.00836" lon="0.88521">
        <ele>470</ele>
        <time>2016-12-03T13:13:36.008Z</time>
      </trkpt>
      <trkpt lat="43.00833" lon="0.88509">
        <ele>470</ele>
        <time>2016-12-03T13:13:39.008Z</time>
      </trkpt>
      <trkpt lat="43.0083" lon="0.885">
        <ele>470</ele>
        <time>2016-12-03T13:13:41.008Z</time>
      </trkpt>
      <trkpt lat="43.00827" lon="0.88491">
        <ele>470</ele>
        <time>2016-12-03T13:13:43.008Z</time>
      </trkpt>
      <trkpt lat="43.00823" lon="0.88481">
        <ele>470</ele>
        <time>2016-12-03T13:13:45.008Z</time>
      </trkpt>
      <trkpt lat="43.00818" lon="0.8847">
        <ele>470</ele>
        <time>2016-12-03T13:13:47.008Z</time>
      </trkpt>
      <trkpt lat="43.00813" lon="0.88458">
        <ele>470</ele>
        <time>2016-12-03T13:13:49.008Z</time>
      </trkpt>
      <trkpt lat="43.0081" lon="0.88453">
        <ele>470</ele>
        <time>2016-12-03T13:13:50.008Z</time>
      </trkpt>
      <trkpt lat="43.00806" lon="0.88448">
        <ele>469.65199805443</ele>
        <time>2016-12-03T13:13:51.008Z</time>
      </trkpt>
      <trkpt lat="43.00802" lon="0.88443">
        <ele>469</ele>
        <time>2016-12-03T13:13:52.008Z</time>
      </trkpt>
      <trkpt lat="43.00799" lon="0.88438">
        <ele>469</ele>
        <time>2016-12-03T13:13:53.008Z</time>
      </trkpt>
      <trkpt lat="43.00795" lon="0.88433">
        <ele>469</ele>
        <time>2016-12-03T13:13:54.008Z</time>
      </trkpt>
      <trkpt lat="43.00792" lon="0.88427">
        <ele>469</ele>
        <time>2016-12-03T13:13:55.008Z</time>
      </trkpt>
      <trkpt lat="43.0079" lon="0.88422">
        <ele>469</ele>
        <time>2016-12-03T13:13:56.008Z</time>
      </trkpt>
      <trkpt lat="43.00788" lon="0.8841">
        <ele>469</ele>
        <time>2016-12-03T13:13:58.008Z</time>
      </trkpt>
      <trkpt lat="43.00786" lon="0.88399">
        <ele>469</ele>
        <time>2016-12-03T13:14:00.008Z</time>
      </trkpt>
      <trkpt lat="43.00786" lon="0.88388">
        <ele>471</ele>
        <time>2016-12-03T13:14:02.008Z</time>
      </trkpt>
      <trkpt lat="43.00787" lon="0.88374">
        <ele>471</ele>
        <time>2016-12-03T13:14:05.008Z</time>
      </trkpt>
      <trkpt lat="43.00789" lon="0.88358">
        <ele>471</ele>
        <time>2016-12-03T13:14:08.008Z</time>
      </trkpt>
      <trkpt lat="43.00789" lon="0.88349">
        <ele>471</ele>
        <time>2016-12-03T13:14:10.008Z</time>
      </trkpt>
      <trkpt lat="43.00789" lon="0.88339">
        <ele>473</ele>
        <time>2016-12-03T13:14:12.008Z</time>
      </trkpt>
      <trkpt lat="43.0079" lon="0.88329">
        <ele>473</ele>
        <time>2016-12-03T13:14:14.008Z</time>
      </trkpt>
      <trkpt lat="43.0079" lon="0.8832">
        <ele>473</ele>
        <time>2016-12-03T13:14:16.008Z</time>
      </trkpt>
      <trkpt lat="43.00791" lon="0.8831">
        <ele>473</ele>
        <time>2016-12-03T13:14:18.008Z</time>
      </trkpt>
      <trkpt lat="43.00792" lon="0.88301">
        <ele>473</ele>
        <time>2016-12-03T13:14:20.008Z</time>
      </trkpt>
      <trkpt lat="43.00793" lon="0.88291">
        <ele>475</ele>
        <time>2016-12-03T13:14:22.008Z</time>
      </trkpt>
      <trkpt lat="43.00794" lon="0.88281">
        <ele>475</ele>
        <time>2016-12-03T13:14:24.008Z</time>
      </trkpt>
      <trkpt lat="43.00795" lon="0.8827">
        <ele>475</ele>
        <time>2016-12-03T13:14:26.008Z</time>
      </trkpt>
      <trkpt lat="43.00796" lon="0.8826">
        <ele>475</ele>
        <time>2016-12-03T13:14:28.008Z</time>
      </trkpt>
      <trkpt lat="43.00798" lon="0.8825">
        <ele>475</ele>
        <time>2016-12-03T13:14:30.008Z</time>
      </trkpt>
      <trkpt lat="43.008" lon="0.88239">
        <ele>477</ele>
        <time>2016-12-03T13:14:32.008Z</time>
      </trkpt>
      <trkpt lat="43.00803" lon="0.88228">
        <ele>477</ele>
        <time>2016-12-03T13:14:34.008Z</time>
      </trkpt>
      <trkpt lat="43.00806" lon="0.88217">
        <ele>477</ele>
        <time>2016-12-03T13:14:36.008Z</time>
      </trkpt>
      <trkpt lat="43.0081" lon="0.88205">
        <ele>477</ele>
        <time>2016-12-03T13:14:38.008Z</time>
      </trkpt>
      <trkpt lat="43.00812" lon="0.88199">
        <ele>477</ele>
        <time>2016-12-03T13:14:39.008Z</time>
      </trkpt>
      <trkpt lat="43.00815" lon="0.88186">
        <ele>477</ele>
        <time>2016-12-03T13:14:41.008Z</time>
      </trkpt>
      <trkpt lat="43.00819" lon="0.88174">
        <ele>477</ele>
        <time>2016-12-03T13:14:43.008Z</time>
      </trkpt>
      <trkpt lat="43.00821" lon="0.88167">
        <ele>477</ele>
        <time>2016-12-03T13:14:44.008Z</time>
      </trkpt>
      <trkpt lat="43.00823" lon="0.88154">
        <ele>477</ele>
        <time>2016-12-03T13:14:46.008Z</time>
      </trkpt>
      <trkpt lat="43.00824" lon="0.88142">
        <ele>477</ele>
        <time>2016-12-03T13:14:48.008Z</time>
      </trkpt>
      <trkpt lat="43.00825" lon="0.8813">
        <ele>477</ele>
        <time>2016-12-03T13:14:50.008Z</time>
      </trkpt>
      <trkpt lat="43.00824" lon="0.88116">
        <ele>476</ele>
        <time>2016-12-03T13:14:52.008Z</time>
      </trkpt>
      <trkpt lat="43.00825" lon="0.88101">
        <ele>476</ele>
        <time>2016-12-03T13:14:54.008Z</time>
      </trkpt>
      <trkpt lat="43.00827" lon="0.88094">
        <ele>476</ele>
        <time>2016-12-03T13:14:55.008Z</time>
      </trkpt>
      <trkpt lat="43.00829" lon="0.88087">
        <ele>476</ele>
        <time>2016-12-03T13:14:56.008Z</time>
      </trkpt>
      <trkpt lat="43.00832" lon="0.88081">
        <ele>476</ele>
        <time>2016-12-03T13:14:57.008Z</time>
      </trkpt>
      <trkpt lat="43.00835" lon="0.88075">
        <ele>476</ele>
        <time>2016-12-03T13:14:58.008Z</time>
      </trkpt>
      <trkpt lat="43.00838" lon="0.8807">
        <ele>476</ele>
        <time>2016-12-03T13:14:59.008Z</time>
      </trkpt>
      <trkpt lat="43.00842" lon="0.88066">
        <ele>476</ele>
        <time>2016-12-03T13:15:00.008Z</time>
      </trkpt>
      <trkpt lat="43.00849" lon="0.88059">
        <ele>476</ele>
        <time>2016-12-03T13:15:02.008Z</time>
      </trkpt>
      <trkpt lat="43.00852" lon="0.88056">
        <ele>476</ele>
        <time>2016-12-03T13:15:03.008Z</time>
      </trkpt>
      <trkpt lat="43.00858" lon="0.88048">
        <ele>476</ele>
        <time>2016-12-03T13:15:05.008Z</time>
      </trkpt>
      <trkpt lat="43.00865" lon="0.88041">
        <ele>476</ele>
        <time>2016-12-03T13:15:07.008Z</time>
      </trkpt>
      <trkpt lat="43.00871" lon="0.88034">
        <ele>476</ele>
        <time>2016-12-03T13:15:09.008Z</time>
      </trkpt>
      <trkpt lat="43.00876" lon="0.88028">
        <ele>476.69600389115</ele>
        <time>2016-12-03T13:15:11.008Z</time>
      </trkpt>
      <trkpt lat="43.00882" lon="0.88021">
        <ele>478</ele>
        <time>2016-12-03T13:15:13.008Z</time>
      </trkpt>
      <trkpt lat="43.00887" lon="0.88015">
        <ele>478</ele>
        <time>2016-12-03T13:15:15.008Z</time>
      </trkpt>
      <trkpt lat="43.00892" lon="0.88007">
        <ele>478</ele>
        <time>2016-12-03T13:15:17.008Z</time>
      </trkpt>
      <trkpt lat="43.00899" lon="0.87998">
        <ele>478</ele>
        <time>2016-12-03T13:15:20.008Z</time>
      </trkpt>
      <trkpt lat="43.00906" lon="0.87988">
        <ele>481</ele>
        <time>2016-12-03T13:15:23.008Z</time>
      </trkpt>
      <trkpt lat="43.00912" lon="0.87979">
        <ele>481.69599610875</ele>
        <time>2016-12-03T13:15:26.008Z</time>
      </trkpt>
      <trkpt lat="43.00918" lon="0.87967">
        <ele>483</ele>
        <time>2016-12-03T13:15:29.008Z</time>
      </trkpt>
      <trkpt lat="43.00923" lon="0.87959">
        <ele>483.69600389115</ele>
        <time>2016-12-03T13:15:31.008Z</time>
      </trkpt>
      <trkpt lat="43.00928" lon="0.87951">
        <ele>485</ele>
        <time>2016-12-03T13:15:33.008Z</time>
      </trkpt>
      <trkpt lat="43.00933" lon="0.87943">
        <ele>485</ele>
        <time>2016-12-03T13:15:35.008Z</time>
      </trkpt>
      <trkpt lat="43.00938" lon="0.87936">
        <ele>486</ele>
        <time>2016-12-03T13:15:37.008Z</time>
      </trkpt>
      <trkpt lat="43.00945" lon="0.87925">
        <ele>486</ele>
        <time>2016-12-03T13:15:40.008Z</time>
      </trkpt>
      <trkpt lat="43.0095" lon="0.87918">
        <ele>487</ele>
        <time>2016-12-03T13:15:42.008Z</time>
      </trkpt>
      <trkpt lat="43.00954" lon="0.87911">
        <ele>487</ele>
        <time>2016-12-03T13:15:44.008Z</time>
      </trkpt>
      <trkpt lat="43.00958" lon="0.87904">
        <ele>487.34799805438</ele>
        <time>2016-12-03T13:15:46.008Z</time>
      </trkpt>
      <trkpt lat="43.00963" lon="0.87897">
        <ele>488</ele>
        <time>2016-12-03T13:15:48.008Z</time>
      </trkpt>
      <trkpt lat="43.00966" lon="0.8789">
        <ele>488</ele>
        <time>2016-12-03T13:15:50.008Z</time>
      </trkpt>
      <trkpt lat="43.00971" lon="0.87883">
        <ele>489</ele>
        <time>2016-12-03T13:15:52.008Z</time>
      </trkpt>
      <trkpt lat="43.00974" lon="0.87876">
        <ele>489</ele>
        <time>2016-12-03T13:15:54.008Z</time>
      </trkpt>
      <trkpt lat="43.00978" lon="0.87869">
        <ele>489</ele>
        <time>2016-12-03T13:15:56.008Z</time>
      </trkpt>
      <trkpt lat="43.00982" lon="0.87861">
        <ele>489</ele>
        <time>2016-12-03T13:15:58.008Z</time>
      </trkpt>
      <trkpt lat="43.00986" lon="0.87854">
        <ele>489</ele>
        <time>2016-12-03T13:16:00.008Z</time>
      </trkpt>
      <trkpt lat="43.00989" lon="0.87846">
        <ele>493</ele>
        <time>2016-12-03T13:16:02.008Z</time>
      </trkpt>
      <trkpt lat="43.00993" lon="0.87839">
        <ele>493</ele>
        <time>2016-12-03T13:16:04.008Z</time>
      </trkpt>
      <trkpt lat="43.00997" lon="0.87831">
        <ele>493</ele>
        <time>2016-12-03T13:16:06.008Z</time>
      </trkpt>
      <trkpt lat="43.00999" lon="0.87828">
        <ele>493</ele>
        <time>2016-12-03T13:16:07.008Z</time>
      </trkpt>
      <trkpt lat="43.01001" lon="0.87824">
        <ele>493</ele>
        <time>2016-12-03T13:16:08.008Z</time>
      </trkpt>
      <trkpt lat="43.01005" lon="0.87817">
        <ele>493</ele>
        <time>2016-12-03T13:16:10.008Z</time>
      </trkpt>
      <trkpt lat="43.01008" lon="0.8781">
        <ele>493</ele>
        <time>2016-12-03T13:16:12.008Z</time>
      </trkpt>
      <trkpt lat="43.01012" lon="0.87802">
        <ele>493</ele>
        <time>2016-12-03T13:16:14.008Z</time>
      </trkpt>
      <trkpt lat="43.01016" lon="0.87795">
        <ele>493</ele>
        <time>2016-12-03T13:16:16.008Z</time>
      </trkpt>
      <trkpt lat="43.01018" lon="0.87791">
        <ele>493</ele>
        <time>2016-12-03T13:16:17.008Z</time>
      </trkpt>
      <trkpt lat="43.0102" lon="0.87787">
        <ele>493</ele>
        <time>2016-12-03T13:16:18.008Z</time>
      </trkpt>
      <trkpt lat="43.01022" lon="0.87783">
        <ele>493</ele>
        <time>2016-12-03T13:16:19.008Z</time>
      </trkpt>
      <trkpt lat="43.01024" lon="0.8778">
        <ele>493</ele>
        <time>2016-12-03T13:16:20.008Z</time>
      </trkpt>
      <trkpt lat="43.01026" lon="0.87776">
        <ele>493.69600389115</ele>
        <time>2016-12-03T13:16:21.008Z</time>
      </trkpt>
      <trkpt lat="43.01029" lon="0.87768">
        <ele>495</ele>
        <time>2016-12-03T13:16:23.008Z</time>
      </trkpt>
      <trkpt lat="43.01033" lon="0.87761">
        <ele>495</ele>
        <time>2016-12-03T13:16:25.008Z</time>
      </trkpt>
      <trkpt lat="43.01037" lon="0.87753">
        <ele>495</ele>
        <time>2016-12-03T13:16:27.008Z</time>
      </trkpt>
      <trkpt lat="43.01041" lon="0.87746">
        <ele>495</ele>
        <time>2016-12-03T13:16:29.008Z</time>
      </trkpt>
      <trkpt lat="43.01045" lon="0.87738">
        <ele>496.04400583672</ele>
        <time>2016-12-03T13:16:31.008Z</time>
      </trkpt>
      <trkpt lat="43.01049" lon="0.87731">
        <ele>498</ele>
        <time>2016-12-03T13:16:33.008Z</time>
      </trkpt>
      <trkpt lat="43.01052" lon="0.87723">
        <ele>498</ele>
        <time>2016-12-03T13:16:35.008Z</time>
      </trkpt>
      <trkpt lat="43.01055" lon="0.87716">
        <ele>500</ele>
        <time>2016-12-03T13:16:37.008Z</time>
      </trkpt>
      <trkpt lat="43.01058" lon="0.87708">
        <ele>500</ele>
        <time>2016-12-03T13:16:39.008Z</time>
      </trkpt>
      <trkpt lat="43.0106" lon="0.877">
        <ele>500.69600389115</ele>
        <time>2016-12-03T13:16:41.008Z</time>
      </trkpt>
      <trkpt lat="43.01062" lon="0.87691">
        <ele>502</ele>
        <time>2016-12-03T13:16:43.008Z</time>
      </trkpt>
      <trkpt lat="43.01063" lon="0.87681">
        <ele>502</ele>
        <time>2016-12-03T13:16:45.008Z</time>
      </trkpt>
      <trkpt lat="43.01063" lon="0.87672">
        <ele>503</ele>
        <time>2016-12-03T13:16:47.008Z</time>
      </trkpt>
      <trkpt lat="43.01063" lon="0.87663">
        <ele>503</ele>
        <time>2016-12-03T13:16:49.008Z</time>
      </trkpt>
      <trkpt lat="43.01063" lon="0.87654">
        <ele>503.34800194557</ele>
        <time>2016-12-03T13:16:51.008Z</time>
      </trkpt>
      <trkpt lat="43.01064" lon="0.87646">
        <ele>504</ele>
        <time>2016-12-03T13:16:53.008Z</time>
      </trkpt>
      <trkpt lat="43.01065" lon="0.87637">
        <ele>504</ele>
        <time>2016-12-03T13:16:55.008Z</time>
      </trkpt>
      <trkpt lat="43.01066" lon="0.87628">
        <ele>506</ele>
        <time>2016-12-03T13:16:57.008Z</time>
      </trkpt>
      <trkpt lat="43.01068" lon="0.8762">
        <ele>506</ele>
        <time>2016-12-03T13:16:59.008Z</time>
      </trkpt>
      <trkpt lat="43.01069" lon="0.87611">
        <ele>506.34800194557</ele>
        <time>2016-12-03T13:17:01.008Z</time>
      </trkpt>
      <trkpt lat="43.01071" lon="0.87603">
        <ele>507</ele>
        <time>2016-12-03T13:17:03.008Z</time>
      </trkpt>
      <trkpt lat="43.01073" lon="0.87593">
        <ele>507</ele>
        <time>2016-12-03T13:17:05.008Z</time>
      </trkpt>
      <trkpt lat="43.01075" lon="0.87582">
        <ele>508</ele>
        <time>2016-12-03T13:17:08.008Z</time>
      </trkpt>
      <trkpt lat="43.01078" lon="0.87569">
        <ele>508.69600389115</ele>
        <time>2016-12-03T13:17:11.008Z</time>
      </trkpt>
      <trkpt lat="43.01079" lon="0.87561">
        <ele>510</ele>
        <time>2016-12-03T13:17:13.008Z</time>
      </trkpt>
      <trkpt lat="43.01081" lon="0.87552">
        <ele>510</ele>
        <time>2016-12-03T13:17:15.008Z</time>
      </trkpt>
      <trkpt lat="43.01083" lon="0.87544">
        <ele>512</ele>
        <time>2016-12-03T13:17:17.008Z</time>
      </trkpt>
      <trkpt lat="43.01084" lon="0.87535">
        <ele>512</ele>
        <time>2016-12-03T13:17:19.008Z</time>
      </trkpt>
      <trkpt lat="43.01086" lon="0.87526">
        <ele>512</ele>
        <time>2016-12-03T13:17:21.008Z</time>
      </trkpt>
      <trkpt lat="43.01088" lon="0.87518">
        <ele>512</ele>
        <time>2016-12-03T13:17:23.008Z</time>
      </trkpt>
      <trkpt lat="43.01089" lon="0.87509">
        <ele>512</ele>
        <time>2016-12-03T13:17:25.008Z</time>
      </trkpt>
      <trkpt lat="43.01091" lon="0.875">
        <ele>513</ele>
        <time>2016-12-03T13:17:27.008Z</time>
      </trkpt>
      <trkpt lat="43.01093" lon="0.87492">
        <ele>513</ele>
        <time>2016-12-03T13:17:29.008Z</time>
      </trkpt>
      <trkpt lat="43.01095" lon="0.87483">
        <ele>513.34800194557</ele>
        <time>2016-12-03T13:17:31.008Z</time>
      </trkpt>
      <trkpt lat="43.01097" lon="0.87475">
        <ele>514</ele>
        <time>2016-12-03T13:17:33.008Z</time>
      </trkpt>
      <trkpt lat="43.01099" lon="0.87467">
        <ele>514</ele>
        <time>2016-12-03T13:17:35.008Z</time>
      </trkpt>
      <trkpt lat="43.01101" lon="0.87455">
        <ele>514</ele>
        <time>2016-12-03T13:17:38.008Z</time>
      </trkpt>
      <trkpt lat="43.01108" lon="0.87448">
        <ele>515.04400583672</ele>
        <time>2016-12-03T13:17:41.008Z</time>
      </trkpt>
      <trkpt lat="43.01113" lon="0.87445">
        <ele>517</ele>
        <time>2016-12-03T13:17:43.008Z</time>
      </trkpt>
      <trkpt lat="43.01117" lon="0.87439">
        <ele>517</ele>
        <time>2016-12-03T13:17:45.008Z</time>
      </trkpt>
      <trkpt lat="43.01121" lon="0.87432">
        <ele>518</ele>
        <time>2016-12-03T13:17:47.008Z</time>
      </trkpt>
      <trkpt lat="43.01127" lon="0.87422">
        <ele>518</ele>
        <time>2016-12-03T13:17:50.008Z</time>
      </trkpt>
      <trkpt lat="43.01131" lon="0.87414">
        <ele>520</ele>
        <time>2016-12-03T13:17:52.008Z</time>
      </trkpt>
      <trkpt lat="43.01135" lon="0.87408">
        <ele>520</ele>
        <time>2016-12-03T13:17:54.008Z</time>
      </trkpt>
      <trkpt lat="43.01139" lon="0.87401">
        <ele>520.34799805438</ele>
        <time>2016-12-03T13:17:56.008Z</time>
      </trkpt>
      <trkpt lat="43.01144" lon="0.87395">
        <ele>521</ele>
        <time>2016-12-03T13:17:58.008Z</time>
      </trkpt>
      <trkpt lat="43.01148" lon="0.8739">
        <ele>521</ele>
        <time>2016-12-03T13:18:00.008Z</time>
      </trkpt>
      <trkpt lat="43.01155" lon="0.87382">
        <ele>524</ele>
        <time>2016-12-03T13:18:03.008Z</time>
      </trkpt>
      <trkpt lat="43.0116" lon="0.87378">
        <ele>524</ele>
        <time>2016-12-03T13:18:05.008Z</time>
      </trkpt>
      <trkpt lat="43.01166" lon="0.8737">
        <ele>526</ele>
        <time>2016-12-03T13:18:08.008Z</time>
      </trkpt>
      <trkpt lat="43.01171" lon="0.87358">
        <ele>527</ele>
        <time>2016-12-03T13:18:12.008Z</time>
      </trkpt>
      <trkpt lat="43.01171" lon="0.87346">
        <ele>527</ele>
        <time>2016-12-03T13:18:15.008Z</time>
      </trkpt>
      <trkpt lat="43.01169" lon="0.87333">
        <ele>528</ele>
        <time>2016-12-03T13:18:18.008Z</time>
      </trkpt>
      <trkpt lat="43.01168" lon="0.87325">
        <ele>528</ele>
        <time>2016-12-03T13:18:20.008Z</time>
      </trkpt>
      <trkpt lat="43.01168" lon="0.87316">
        <ele>529</ele>
        <time>2016-12-03T13:18:22.008Z</time>
      </trkpt>
      <trkpt lat="43.01168" lon="0.87308">
        <ele>529</ele>
        <time>2016-12-03T13:18:24.008Z</time>
      </trkpt>
      <trkpt lat="43.01169" lon="0.87295">
        <ele>529</ele>
        <time>2016-12-03T13:18:27.008Z</time>
      </trkpt>
      <trkpt lat="43.0117" lon="0.8728">
        <ele>529.34800194557</ele>
        <time>2016-12-03T13:18:31.008Z</time>
      </trkpt>
      <trkpt lat="43.01172" lon="0.87269">
        <ele>530</ele>
        <time>2016-12-03T13:18:34.008Z</time>
      </trkpt>
      <trkpt lat="43.01174" lon="0.87256">
        <ele>530</ele>
        <time>2016-12-03T13:18:37.008Z</time>
      </trkpt>
      <trkpt lat="43.01176" lon="0.87247">
        <ele>530</ele>
        <time>2016-12-03T13:18:39.008Z</time>
      </trkpt>
      <trkpt lat="43.01178" lon="0.87238">
        <ele>531.04400583672</ele>
        <time>2016-12-03T13:18:41.008Z</time>
      </trkpt>
      <trkpt lat="43.01179" lon="0.8723">
        <ele>533</ele>
        <time>2016-12-03T13:18:43.008Z</time>
      </trkpt>
      <trkpt lat="43.01181" lon="0.87221">
        <ele>533</ele>
        <time>2016-12-03T13:18:45.008Z</time>
      </trkpt>
      <trkpt lat="43.01182" lon="0.87213">
        <ele>533</ele>
        <time>2016-12-03T13:18:47.008Z</time>
      </trkpt>
      <trkpt lat="43.01184" lon="0.87205">
        <ele>533</ele>
        <time>2016-12-03T13:18:49.008Z</time>
      </trkpt>
      <trkpt lat="43.01186" lon="0.87196">
        <ele>533.69600389115</ele>
        <time>2016-12-03T13:18:51.008Z</time>
      </trkpt>
      <trkpt lat="43.01188" lon="0.87189">
        <ele>535</ele>
        <time>2016-12-03T13:18:53.008Z</time>
      </trkpt>
      <trkpt lat="43.01189" lon="0.87181">
        <ele>535</ele>
        <time>2016-12-03T13:18:55.008Z</time>
      </trkpt>
      <trkpt lat="43.0119" lon="0.87173">
        <ele>535</ele>
        <time>2016-12-03T13:18:57.008Z</time>
      </trkpt>
      <trkpt lat="43.01192" lon="0.87165">
        <ele>535</ele>
        <time>2016-12-03T13:18:59.008Z</time>
      </trkpt>
      <trkpt lat="43.01194" lon="0.87153">
        <ele>538</ele>
        <time>2016-12-03T13:19:02.008Z</time>
      </trkpt>
      <trkpt lat="43.01195" lon="0.87145">
        <ele>538</ele>
        <time>2016-12-03T13:19:04.008Z</time>
      </trkpt>
      <trkpt lat="43.01197" lon="0.87137">
        <ele>538.34799805438</ele>
        <time>2016-12-03T13:19:06.008Z</time>
      </trkpt>
      <trkpt lat="43.01198" lon="0.8713">
        <ele>539</ele>
        <time>2016-12-03T13:19:08.008Z</time>
      </trkpt>
      <trkpt lat="43.01202" lon="0.87125">
        <ele>539</ele>
        <time>2016-12-03T13:19:10.008Z</time>
      </trkpt>
      <trkpt lat="43.01207" lon="0.87123">
        <ele>540</ele>
        <time>2016-12-03T13:19:12.008Z</time>
      </trkpt>
      <trkpt lat="43.01215" lon="0.87124">
        <ele>540.34799805438</ele>
        <time>2016-12-03T13:19:16.008Z</time>
      </trkpt>
      <trkpt lat="43.01224" lon="0.87126">
        <ele>542.04400583672</ele>
        <time>2016-12-03T13:19:21.008Z</time>
      </trkpt>
      <trkpt lat="43.01234" lon="0.87127">
        <ele>544</ele>
        <time>2016-12-03T13:19:25.008Z</time>
      </trkpt>
      <trkpt lat="43.01243" lon="0.87119">
        <ele>548</ele>
        <time>2016-12-03T13:19:32.008Z</time>
      </trkpt>
      <trkpt lat="43.01247" lon="0.87106">
        <ele>550</ele>
        <time>2016-12-03T13:19:38.008Z</time>
      </trkpt>
      <trkpt lat="43.01253" lon="0.87097">
        <ele>552</ele>
        <time>2016-12-03T13:19:43.008Z</time>
      </trkpt>
      <trkpt lat="43.0126" lon="0.87091">
        <ele>554</ele>
        <time>2016-12-03T13:19:48.008Z</time>
      </trkpt>
      <trkpt lat="43.01265" lon="0.87085">
        <ele>557</ele>
        <time>2016-12-03T13:19:52.008Z</time>
      </trkpt>
      <trkpt lat="43.01269" lon="0.87079">
        <ele>557.69599610875</ele>
        <time>2016-12-03T13:19:56.008Z</time>
      </trkpt>
      <trkpt lat="43.01273" lon="0.87072">
        <ele>559</ele>
        <time>2016-12-03T13:20:00.008Z</time>
      </trkpt>
      <trkpt lat="43.01275" lon="0.87064">
        <ele>561</ele>
        <time>2016-12-03T13:20:04.008Z</time>
      </trkpt>
      <trkpt lat="43.01278" lon="0.87055">
        <ele>563</ele>
        <time>2016-12-03T13:20:08.008Z</time>
      </trkpt>
      <trkpt lat="43.01279" lon="0.87046">
        <ele>565</ele>
        <time>2016-12-03T13:20:12.008Z</time>
      </trkpt>
      <trkpt lat="43.01281" lon="0.87037">
        <ele>565.34799805438</ele>
        <time>2016-12-03T13:20:16.008Z</time>
      </trkpt>
      <trkpt lat="43.01285" lon="0.87026">
        <ele>566.34800194557</ele>
        <time>2016-12-03T13:20:21.008Z</time>
      </trkpt>
      <trkpt lat="43.01288" lon="0.87018">
        <ele>567</ele>
        <time>2016-12-03T13:20:25.008Z</time>
      </trkpt>
      <trkpt lat="43.01289" lon="0.87006">
        <ele>570</ele>
        <time>2016-12-03T13:20:30.008Z</time>
      </trkpt>
      <trkpt lat="43.01292" lon="0.86993">
        <ele>574</ele>
        <time>2016-12-03T13:20:37.008Z</time>
      </trkpt>
      <trkpt lat="43.01296" lon="0.86981">
        <ele>575</ele>
        <time>2016-12-03T13:20:43.008Z</time>
      </trkpt>
      <trkpt lat="43.01299" lon="0.86969">
        <ele>578</ele>
        <time>2016-12-03T13:20:49.008Z</time>
      </trkpt>
      <trkpt lat="43.01302" lon="0.86959">
        <ele>579</ele>
        <time>2016-12-03T13:20:54.008Z</time>
      </trkpt>
      <trkpt lat="43.01305" lon="0.86947">
        <ele>581</ele>
        <time>2016-12-03T13:20:59.008Z</time>
      </trkpt>
      <trkpt lat="43.01307" lon="0.86935">
        <ele>582</ele>
        <time>2016-12-03T13:21:05.008Z</time>
      </trkpt>
      <trkpt lat="43.01311" lon="0.86925">
        <ele>584</ele>
        <time>2016-12-03T13:21:10.008Z</time>
      </trkpt>
      <trkpt lat="43.01314" lon="0.86914">
        <ele>585.69599610875</ele>
        <time>2016-12-03T13:21:16.008Z</time>
      </trkpt>
      <trkpt lat="43.01317" lon="0.86903">
        <ele>587.69600389115</ele>
        <time>2016-12-03T13:21:21.008Z</time>
      </trkpt>
      <trkpt lat="43.01322" lon="0.8689">
        <ele>590</ele>
        <time>2016-12-03T13:21:27.008Z</time>
      </trkpt>
      <trkpt lat="43.01326" lon="0.86878">
        <ele>592</ele>
        <time>2016-12-03T13:21:33.008Z</time>
      </trkpt>
      <trkpt lat="43.01329" lon="0.86868">
        <ele>593</ele>
        <time>2016-12-03T13:21:38.008Z</time>
      </trkpt>
      <trkpt lat="43.01332" lon="0.86857">
        <ele>595</ele>
        <time>2016-12-03T13:21:43.008Z</time>
      </trkpt>
      <trkpt lat="43.01334" lon="0.86844">
        <ele>597</ele>
        <time>2016-12-03T13:21:49.008Z</time>
      </trkpt>
      <trkpt lat="43.01338" lon="0.86833">
        <ele>598</ele>
        <time>2016-12-03T13:21:54.008Z</time>
      </trkpt>
      <trkpt lat="43.01344" lon="0.86822">
        <ele>600.69600389115</ele>
        <time>2016-12-03T13:22:01.008Z</time>
      </trkpt>
      <trkpt lat="43.01351" lon="0.8681">
        <ele>604</ele>
        <time>2016-12-03T13:22:07.008Z</time>
      </trkpt>
      <trkpt lat="43.01356" lon="0.86803">
        <ele>607</ele>
        <time>2016-12-03T13:22:12.008Z</time>
      </trkpt>
      <trkpt lat="43.01364" lon="0.86798">
        <ele>608</ele>
        <time>2016-12-03T13:22:18.008Z</time>
      </trkpt>
      <trkpt lat="43.01363" lon="0.86789">
        <ele>609</ele>
        <time>2016-12-03T13:22:49.008Z</time>
      </trkpt>
      <trkpt lat="43.01364" lon="0.86776">
        <ele>610</ele>
        <time>2016-12-03T13:22:54.008Z</time>
      </trkpt>
      <trkpt lat="43.01365" lon="0.86768">
        <ele>610</ele>
        <time>2016-12-03T13:22:57.008Z</time>
      </trkpt>
      <trkpt lat="43.01366" lon="0.8676">
        <ele>610</ele>
        <time>2016-12-03T13:23:00.008Z</time>
      </trkpt>
      <trkpt lat="43.01367" lon="0.86755">
        <ele>611</ele>
        <time>2016-12-03T13:23:02.008Z</time>
      </trkpt>
      <trkpt lat="43.01367" lon="0.86749">
        <ele>611</ele>
        <time>2016-12-03T13:23:04.008Z</time>
      </trkpt>
      <trkpt lat="43.01368" lon="0.86744">
        <ele>611</ele>
        <time>2016-12-03T13:23:06.008Z</time>
      </trkpt>
      <trkpt lat="43.01369" lon="0.86738">
        <ele>611</ele>
        <time>2016-12-03T13:23:08.008Z</time>
      </trkpt>
      <trkpt lat="43.01369" lon="0.86733">
        <ele>611</ele>
        <time>2016-12-03T13:23:10.008Z</time>
      </trkpt>
      <trkpt lat="43.01369" lon="0.86728">
        <ele>613</ele>
        <time>2016-12-03T13:23:12.008Z</time>
      </trkpt>
      <trkpt lat="43.0137" lon="0.86722">
        <ele>613</ele>
        <time>2016-12-03T13:23:14.008Z</time>
      </trkpt>
      <trkpt lat="43.01371" lon="0.86716">
        <ele>613</ele>
        <time>2016-12-03T13:23:16.008Z</time>
      </trkpt>
      <trkpt lat="43.01372" lon="0.86708">
        <ele>613</ele>
        <time>2016-12-03T13:23:19.008Z</time>
      </trkpt>
      <trkpt lat="43.01372" lon="0.86702">
        <ele>614.04400583672</ele>
        <time>2016-12-03T13:23:21.008Z</time>
      </trkpt>
      <trkpt lat="43.01373" lon="0.86697">
        <ele>616</ele>
        <time>2016-12-03T13:23:23.008Z</time>
      </trkpt>
      <trkpt lat="43.01373" lon="0.86691">
        <ele>616</ele>
        <time>2016-12-03T13:23:25.008Z</time>
      </trkpt>
      <trkpt lat="43.01373" lon="0.86683">
        <ele>619</ele>
        <time>2016-12-03T13:23:28.008Z</time>
      </trkpt>
      <trkpt lat="43.01373" lon="0.86675">
        <ele>619.34800194557</ele>
        <time>2016-12-03T13:23:31.008Z</time>
      </trkpt>
      <trkpt lat="43.01372" lon="0.8667">
        <ele>620</ele>
        <time>2016-12-03T13:23:33.008Z</time>
      </trkpt>
      <trkpt lat="43.01371" lon="0.86665">
        <ele>620</ele>
        <time>2016-12-03T13:23:35.008Z</time>
      </trkpt>
      <trkpt lat="43.0137" lon="0.8666">
        <ele>621</ele>
        <time>2016-12-03T13:23:37.008Z</time>
      </trkpt>
      <trkpt lat="43.01368" lon="0.86655">
        <ele>621</ele>
        <time>2016-12-03T13:23:39.008Z</time>
      </trkpt>
      <trkpt lat="43.01367" lon="0.8665">
        <ele>621.69600389115</ele>
        <time>2016-12-03T13:23:41.008Z</time>
      </trkpt>
      <trkpt lat="43.01365" lon="0.86645">
        <ele>623</ele>
        <time>2016-12-03T13:23:43.008Z</time>
      </trkpt>
      <trkpt lat="43.01362" lon="0.86641">
        <ele>623</ele>
        <time>2016-12-03T13:23:45.008Z</time>
      </trkpt>
      <trkpt lat="43.0136" lon="0.86637">
        <ele>625</ele>
        <time>2016-12-03T13:23:47.008Z</time>
      </trkpt>
      <trkpt lat="43.01357" lon="0.86633">
        <ele>625</ele>
        <time>2016-12-03T13:23:49.008Z</time>
      </trkpt>
      <trkpt lat="43.01354" lon="0.86629">
        <ele>625.34800194557</ele>
        <time>2016-12-03T13:23:51.008Z</time>
      </trkpt>
      <trkpt lat="43.01352" lon="0.86624">
        <ele>626</ele>
        <time>2016-12-03T13:23:53.008Z</time>
      </trkpt>
      <trkpt lat="43.01351" lon="0.86614">
        <ele>627</ele>
        <time>2016-12-03T13:23:57.008Z</time>
      </trkpt>
      <trkpt lat="43.01352" lon="0.86607">
        <ele>627</ele>
        <time>2016-12-03T13:24:00.008Z</time>
      </trkpt>
      <trkpt lat="43.01353" lon="0.86598">
        <ele>627</ele>
        <time>2016-12-03T13:24:03.008Z</time>
      </trkpt>
      <trkpt lat="43.01356" lon="0.86589">
        <ele>627</ele>
        <time>2016-12-03T13:24:07.008Z</time>
      </trkpt>
      <trkpt lat="43.01359" lon="0.86578">
        <ele>629</ele>
        <time>2016-12-03T13:24:12.008Z</time>
      </trkpt>
      <trkpt lat="43.01362" lon="0.86565">
        <ele>629</ele>
        <time>2016-12-03T13:24:18.008Z</time>
      </trkpt>
      <trkpt lat="43.01365" lon="0.86557">
        <ele>631</ele>
        <time>2016-12-03T13:24:22.008Z</time>
      </trkpt>
      <trkpt lat="43.01366" lon="0.86545">
        <ele>633</ele>
        <time>2016-12-03T13:24:27.008Z</time>
      </trkpt>
      <trkpt lat="43.01369" lon="0.86535">
        <ele>635</ele>
        <time>2016-12-03T13:24:33.008Z</time>
      </trkpt>
      <trkpt lat="43.01371" lon="0.86527">
        <ele>636</ele>
        <time>2016-12-03T13:24:37.008Z</time>
      </trkpt>
      <trkpt lat="43.01372" lon="0.86516">
        <ele>638</ele>
        <time>2016-12-03T13:24:43.008Z</time>
      </trkpt>
      <trkpt lat="43.01373" lon="0.86504">
        <ele>638</ele>
        <time>2016-12-03T13:24:48.008Z</time>
      </trkpt>
      <trkpt lat="43.01374" lon="0.86493">
        <ele>639</ele>
        <time>2016-12-03T13:24:54.008Z</time>
      </trkpt>
      <trkpt lat="43.01376" lon="0.86482">
        <ele>639</ele>
        <time>2016-12-03T13:24:59.008Z</time>
      </trkpt>
      <trkpt lat="43.01377" lon="0.8647">
        <ele>643</ele>
        <time>2016-12-03T13:25:04.008Z</time>
      </trkpt>
      <trkpt lat="43.01376" lon="0.86458">
        <ele>643</ele>
        <time>2016-12-03T13:25:10.008Z</time>
      </trkpt>
      <trkpt lat="43.01376" lon="0.86447">
        <ele>645</ele>
        <time>2016-12-03T13:25:15.008Z</time>
      </trkpt>
      <trkpt lat="43.01377" lon="0.86438">
        <ele>645</ele>
        <time>2016-12-03T13:25:19.008Z</time>
      </trkpt>
      <trkpt lat="43.01378" lon="0.86429">
        <ele>647</ele>
        <time>2016-12-03T13:25:24.008Z</time>
      </trkpt>
      <trkpt lat="43.01379" lon="0.86414">
        <ele>651</ele>
        <time>2016-12-03T13:25:34.008Z</time>
      </trkpt>
      <trkpt lat="43.01377" lon="0.864">
        <ele>653</ele>
        <time>2016-12-03T13:25:40.008Z</time>
      </trkpt>
      <trkpt lat="43.01377" lon="0.86388">
        <ele>655.34799805438</ele>
        <time>2016-12-03T13:25:46.008Z</time>
      </trkpt>
      <trkpt lat="43.01376" lon="0.86374">
        <ele>658</ele>
        <time>2016-12-03T13:25:53.008Z</time>
      </trkpt>
      <trkpt lat="43.01373" lon="0.86362">
        <ele>659</ele>
        <time>2016-12-03T13:25:59.008Z</time>
      </trkpt>
      <trkpt lat="43.01372" lon="0.8635">
        <ele>661.34799805438</ele>
        <time>2016-12-03T13:26:06.008Z</time>
      </trkpt>
      <trkpt lat="43.01372" lon="0.86336">
        <ele>664</ele>
        <time>2016-12-03T13:26:13.008Z</time>
      </trkpt>
      <trkpt lat="43.01374" lon="0.86326">
        <ele>665</ele>
        <time>2016-12-03T13:26:18.008Z</time>
      </trkpt>
      <trkpt lat="43.01375" lon="0.86315">
        <ele>665</ele>
        <time>2016-12-03T13:26:24.008Z</time>
      </trkpt>
      <trkpt lat="43.01378" lon="0.86302">
        <ele>665.69600389115</ele>
        <time>2016-12-03T13:26:31.008Z</time>
      </trkpt>
      <trkpt lat="43.01382" lon="0.86288">
        <ele>668</ele>
        <time>2016-12-03T13:26:44.008Z</time>
      </trkpt>
      <trkpt lat="43.01388" lon="0.86277">
        <ele>668.34800194557</ele>
        <time>2016-12-03T13:26:51.008Z</time>
      </trkpt>
      <trkpt lat="43.01397" lon="0.86276">
        <ele>672</ele>
        <time>2016-12-03T13:27:02.008Z</time>
      </trkpt>
      <trkpt lat="43.01406" lon="0.86276">
        <ele>674</ele>
        <time>2016-12-03T13:27:07.008Z</time>
      </trkpt>
      <trkpt lat="43.01415" lon="0.86276">
        <ele>674</ele>
        <time>2016-12-03T13:27:14.008Z</time>
      </trkpt>
      <trkpt lat="43.01426" lon="0.86275">
        <ele>675</ele>
        <time>2016-12-03T13:27:20.008Z</time>
      </trkpt>
      <trkpt lat="43.01436" lon="0.86272">
        <ele>676</ele>
        <time>2016-12-03T13:27:26.008Z</time>
      </trkpt>
      <trkpt lat="43.01446" lon="0.86274">
        <ele>676.69600389115</ele>
        <time>2016-12-03T13:27:31.008Z</time>
      </trkpt>
      <trkpt lat="43.01458" lon="0.86276">
        <ele>678</ele>
        <time>2016-12-03T13:27:36.008Z</time>
      </trkpt>
      <trkpt lat="43.01469" lon="0.86273">
        <ele>679</ele>
        <time>2016-12-03T13:27:43.008Z</time>
      </trkpt>
      <trkpt lat="43.01478" lon="0.86263">
        <ele>679</ele>
        <time>2016-12-03T13:27:49.008Z</time>
      </trkpt>
      <trkpt lat="43.01485" lon="0.86253">
        <ele>681</ele>
        <time>2016-12-03T13:27:54.008Z</time>
      </trkpt>
      <trkpt lat="43.01489" lon="0.86244">
        <ele>681</ele>
        <time>2016-12-03T13:27:58.008Z</time>
      </trkpt>
      <trkpt lat="43.01493" lon="0.86236">
        <ele>683</ele>
        <time>2016-12-03T13:28:02.008Z</time>
      </trkpt>
      <trkpt lat="43.01496" lon="0.86227">
        <ele>683</ele>
        <time>2016-12-03T13:28:06.008Z</time>
      </trkpt>
      <trkpt lat="43.01502" lon="0.86218">
        <ele>683</ele>
        <time>2016-12-03T13:28:10.008Z</time>
      </trkpt>
      <trkpt lat="43.01509" lon="0.86208">
        <ele>684</ele>
        <time>2016-12-03T13:28:17.008Z</time>
      </trkpt>
      <trkpt lat="43.01515" lon="0.86198">
        <ele>687</ele>
        <time>2016-12-03T13:28:22.008Z</time>
      </trkpt>
      <trkpt lat="43.01519" lon="0.86188">
        <ele>689</ele>
        <time>2016-12-03T13:28:27.008Z</time>
      </trkpt>
      <trkpt lat="43.01522" lon="0.86178">
        <ele>691</ele>
        <time>2016-12-03T13:28:32.008Z</time>
      </trkpt>
      <trkpt lat="43.01527" lon="0.8617">
        <ele>692</ele>
        <time>2016-12-03T13:28:37.008Z</time>
      </trkpt>
      <trkpt lat="43.01532" lon="0.8616">
        <ele>692</ele>
        <time>2016-12-03T13:28:43.008Z</time>
      </trkpt>
      <trkpt lat="43.01538" lon="0.8615">
        <ele>694</ele>
        <time>2016-12-03T13:28:52.008Z</time>
      </trkpt>
      <trkpt lat="43.01544" lon="0.86142">
        <ele>696</ele>
        <time>2016-12-03T13:28:57.008Z</time>
      </trkpt>
      <trkpt lat="43.0155" lon="0.86135">
        <ele>696.69600389115</ele>
        <time>2016-12-03T13:29:01.008Z</time>
      </trkpt>
      <trkpt lat="43.01555" lon="0.86125">
        <ele>698</ele>
        <time>2016-12-03T13:29:06.008Z</time>
      </trkpt>
      <trkpt lat="43.01561" lon="0.86114">
        <ele>698</ele>
        <time>2016-12-03T13:29:10.008Z</time>
      </trkpt>
      <trkpt lat="43.01564" lon="0.86102">
        <ele>699</ele>
        <time>2016-12-03T13:29:15.008Z</time>
      </trkpt>
      <trkpt lat="43.01567" lon="0.86092">
        <ele>699</ele>
        <time>2016-12-03T13:29:20.008Z</time>
      </trkpt>
      <trkpt lat="43.0157" lon="0.86084">
        <ele>701</ele>
        <time>2016-12-03T13:29:24.008Z</time>
      </trkpt>
      <trkpt lat="43.01574" lon="0.86074">
        <ele>701</ele>
        <time>2016-12-03T13:29:30.008Z</time>
      </trkpt>
      <trkpt lat="43.01578" lon="0.86064">
        <ele>703</ele>
        <time>2016-12-03T13:29:35.008Z</time>
      </trkpt>
      <trkpt lat="43.01583" lon="0.86052">
        <ele>705.34800194557</ele>
        <time>2016-12-03T13:29:41.008Z</time>
      </trkpt>
      <trkpt lat="43.01589" lon="0.86041">
        <ele>708</ele>
        <time>2016-12-03T13:29:47.008Z</time>
      </trkpt>
      <trkpt lat="43.01592" lon="0.86029">
        <ele>710</ele>
        <time>2016-12-03T13:29:54.008Z</time>
      </trkpt>
      <trkpt lat="43.01596" lon="0.86017">
        <ele>710</ele>
        <time>2016-12-03T13:29:59.008Z</time>
      </trkpt>
      <trkpt lat="43.016" lon="0.86005">
        <ele>710</ele>
        <time>2016-12-03T13:30:04.008Z</time>
      </trkpt>
      <trkpt lat="43.01606" lon="0.85996">
        <ele>710</ele>
        <time>2016-12-03T13:30:08.008Z</time>
      </trkpt>
      <trkpt lat="43.01609" lon="0.85989">
        <ele>710.68281961109</ele>
        <time>2016-12-03T13:30:11.008Z</time>
      </trkpt>
      <trkpt lat="43.01612" lon="0.85982">
        <ele>712</ele>
        <time>2016-12-03T13:30:14.008Z</time>
      </trkpt>
      <trkpt lat="43.01617" lon="0.85976">
        <ele>712</ele>
        <time>2016-12-03T13:30:17.008Z</time>
      </trkpt>
      <trkpt lat="43.01623" lon="0.85971">
        <ele>712</ele>
        <time>2016-12-03T13:30:20.008Z</time>
      </trkpt>
      <trkpt lat="43.01627" lon="0.85968">
        <ele>714</ele>
        <time>2016-12-03T13:30:22.008Z</time>
      </trkpt>
      <trkpt lat="43.01633" lon="0.85965">
        <ele>714</ele>
        <time>2016-12-03T13:30:25.008Z</time>
      </trkpt>
      <trkpt lat="43.01639" lon="0.85961">
        <ele>714</ele>
        <time>2016-12-03T13:30:28.008Z</time>
      </trkpt>
      <trkpt lat="43.01644" lon="0.85957">
        <ele>714.34800194557</ele>
        <time>2016-12-03T13:30:31.008Z</time>
      </trkpt>
      <trkpt lat="43.01641" lon="0.85949">
        <ele>715</ele>
        <time>2016-12-03T13:30:36.008Z</time>
      </trkpt>
      <trkpt lat="43.01635" lon="0.85949">
        <ele>715</ele>
        <time>2016-12-03T13:30:39.008Z</time>
      </trkpt>
      <trkpt lat="43.01629" lon="0.8595">
        <ele>717</ele>
        <time>2016-12-03T13:30:42.008Z</time>
      </trkpt>
      <trkpt lat="43.01624" lon="0.85949">
        <ele>717</ele>
        <time>2016-12-03T13:30:45.008Z</time>
      </trkpt>
      <trkpt lat="43.01618" lon="0.85949">
        <ele>717</ele>
        <time>2016-12-03T13:30:48.008Z</time>
      </trkpt>
      <trkpt lat="43.01613" lon="0.85949">
        <ele>717</ele>
        <time>2016-12-03T13:30:51.008Z</time>
      </trkpt>
      <trkpt lat="43.01608" lon="0.85951">
        <ele>717</ele>
        <time>2016-12-03T13:30:54.008Z</time>
      </trkpt>
      <trkpt lat="43.01604" lon="0.85948">
        <ele>717</ele>
        <time>2016-12-03T13:30:56.008Z</time>
      </trkpt>
      <trkpt lat="43.01602" lon="0.85943">
        <ele>717</ele>
        <time>2016-12-03T13:30:58.008Z</time>
      </trkpt>
      <trkpt lat="43.01602" lon="0.85938">
        <ele>717</ele>
        <time>2016-12-03T13:31:00.008Z</time>
      </trkpt>
      <trkpt lat="43.01603" lon="0.85934">
        <ele>717</ele>
        <time>2016-12-03T13:31:02.008Z</time>
      </trkpt>
      <trkpt lat="43.01604" lon="0.85929">
        <ele>717</ele>
        <time>2016-12-03T13:31:05.008Z</time>
      </trkpt>
      <trkpt lat="43.01605" lon="0.85924">
        <ele>717</ele>
        <time>2016-12-03T13:31:08.008Z</time>
      </trkpt>
      <trkpt lat="43.01606" lon="0.85917">
        <ele>717.69600389115</ele>
        <time>2016-12-03T13:31:11.008Z</time>
      </trkpt>
      <trkpt lat="43.01606" lon="0.85907">
        <ele>719</ele>
        <time>2016-12-03T13:31:14.008Z</time>
      </trkpt>
      <trkpt lat="43.01605" lon="0.85901">
        <ele>719</ele>
        <time>2016-12-03T13:31:16.008Z</time>
      </trkpt>
      <trkpt lat="43.01603" lon="0.85891">
        <ele>719</ele>
        <time>2016-12-03T13:31:19.008Z</time>
      </trkpt>
      <trkpt lat="43.01602" lon="0.85882">
        <ele>720</ele>
        <time>2016-12-03T13:31:22.008Z</time>
      </trkpt>
      <trkpt lat="43.01601" lon="0.85875">
        <ele>720</ele>
        <time>2016-12-03T13:31:24.008Z</time>
      </trkpt>
      <trkpt lat="43.016" lon="0.85869">
        <ele>720</ele>
        <time>2016-12-03T13:31:26.008Z</time>
      </trkpt>
      <trkpt lat="43.01599" lon="0.85862">
        <ele>720</ele>
        <time>2016-12-03T13:31:28.008Z</time>
      </trkpt>
      <trkpt lat="43.01598" lon="0.85855">
        <ele>720</ele>
        <time>2016-12-03T13:31:30.008Z</time>
      </trkpt>
      <trkpt lat="43.01597" lon="0.85849">
        <ele>721</ele>
        <time>2016-12-03T13:31:32.008Z</time>
      </trkpt>
      <trkpt lat="43.01596" lon="0.8584">
        <ele>721</ele>
        <time>2016-12-03T13:31:35.008Z</time>
      </trkpt>
      <trkpt lat="43.01593" lon="0.8583">
        <ele>721</ele>
        <time>2016-12-03T13:31:38.008Z</time>
      </trkpt>
      <trkpt lat="43.01591" lon="0.85824">
        <ele>721</ele>
        <time>2016-12-03T13:31:40.008Z</time>
      </trkpt>
      <trkpt lat="43.01587" lon="0.85816">
        <ele>723</ele>
        <time>2016-12-03T13:31:43.008Z</time>
      </trkpt>
      <trkpt lat="43.01584" lon="0.8581">
        <ele>723</ele>
        <time>2016-12-03T13:31:45.008Z</time>
      </trkpt>
      <trkpt lat="43.01579" lon="0.85805">
        <ele>723</ele>
        <time>2016-12-03T13:31:47.008Z</time>
      </trkpt>
      <trkpt lat="43.01575" lon="0.858">
        <ele>723</ele>
        <time>2016-12-03T13:31:49.008Z</time>
      </trkpt>
      <trkpt lat="43.0157" lon="0.85796">
        <ele>723.69600389115</ele>
        <time>2016-12-03T13:31:51.008Z</time>
      </trkpt>
      <trkpt lat="43.01565" lon="0.85792">
        <ele>725</ele>
        <time>2016-12-03T13:31:53.008Z</time>
      </trkpt>
      <trkpt lat="43.0156" lon="0.8579">
        <ele>725</ele>
        <time>2016-12-03T13:31:55.008Z</time>
      </trkpt>
      <trkpt lat="43.01555" lon="0.85787">
        <ele>725</ele>
        <time>2016-12-03T13:31:57.008Z</time>
      </trkpt>
      <trkpt lat="43.01549" lon="0.85786">
        <ele>725</ele>
        <time>2016-12-03T13:31:59.008Z</time>
      </trkpt>
      <trkpt lat="43.01544" lon="0.85785">
        <ele>725.69600389115</ele>
        <time>2016-12-03T13:32:01.008Z</time>
      </trkpt>
      <trkpt lat="43.01539" lon="0.85784">
        <ele>727</ele>
        <time>2016-12-03T13:32:03.008Z</time>
      </trkpt>
      <trkpt lat="43.01533" lon="0.85785">
        <ele>727</ele>
        <time>2016-12-03T13:32:05.008Z</time>
      </trkpt>
      <trkpt lat="43.01528" lon="0.85785">
        <ele>727</ele>
        <time>2016-12-03T13:32:07.008Z</time>
      </trkpt>
      <trkpt lat="43.01523" lon="0.85785">
        <ele>727</ele>
        <time>2016-12-03T13:32:09.008Z</time>
      </trkpt>
      <trkpt lat="43.01518" lon="0.85786">
        <ele>727.34800194557</ele>
        <time>2016-12-03T13:32:11.008Z</time>
      </trkpt>
      <trkpt lat="43.01513" lon="0.85786">
        <ele>728</ele>
        <time>2016-12-03T13:32:13.008Z</time>
      </trkpt>
      <trkpt lat="43.0151" lon="0.85785">
        <ele>728</ele>
        <time>2016-12-03T13:32:15.008Z</time>
      </trkpt>
      <trkpt lat="43.01506" lon="0.85786">
        <ele>728</ele>
        <time>2016-12-03T13:32:18.008Z</time>
      </trkpt>
      <trkpt lat="43.01502" lon="0.85784">
        <ele>727</ele>
        <time>2016-12-03T13:39:58.008Z</time>
      </trkpt>
      <trkpt lat="43.01498" lon="0.85784">
        <ele>727.34800194557</ele>
        <time>2016-12-03T13:40:01.008Z</time>
      </trkpt>
      <trkpt lat="43.01494" lon="0.85785">
        <ele>728</ele>
        <time>2016-12-03T13:40:04.008Z</time>
      </trkpt>
      <trkpt lat="43.01491" lon="0.85784">
        <ele>728</ele>
        <time>2016-12-03T13:40:06.008Z</time>
      </trkpt>
      <trkpt lat="43.01487" lon="0.85783">
        <ele>728</ele>
        <time>2016-12-03T13:40:08.008Z</time>
      </trkpt>
      <trkpt lat="43.01483" lon="0.85783">
        <ele>728</ele>
        <time>2016-12-03T13:40:10.008Z</time>
      </trkpt>
      <trkpt lat="43.01478" lon="0.85783">
        <ele>730</ele>
        <time>2016-12-03T13:40:12.008Z</time>
      </trkpt>
      <trkpt lat="43.01474" lon="0.85783">
        <ele>730</ele>
        <time>2016-12-03T13:40:14.008Z</time>
      </trkpt>
      <trkpt lat="43.01471" lon="0.85782">
        <ele>730</ele>
        <time>2016-12-03T13:40:16.008Z</time>
      </trkpt>
      <trkpt lat="43.01464" lon="0.85781">
        <ele>730</ele>
        <time>2016-12-03T13:40:19.008Z</time>
      </trkpt>
      <trkpt lat="43.0146" lon="0.85779">
        <ele>731</ele>
        <time>2016-12-03T13:40:22.008Z</time>
      </trkpt>
      <trkpt lat="43.01454" lon="0.85778">
        <ele>731</ele>
        <time>2016-12-03T13:40:25.008Z</time>
      </trkpt>
      <trkpt lat="43.01448" lon="0.85776">
        <ele>731</ele>
        <time>2016-12-03T13:40:28.008Z</time>
      </trkpt>
      <trkpt lat="43.01441" lon="0.8577">
        <ele>732</ele>
        <time>2016-12-03T13:40:32.008Z</time>
      </trkpt>
      <trkpt lat="43.01434" lon="0.85767">
        <ele>732</ele>
        <time>2016-12-03T13:40:35.008Z</time>
      </trkpt>
      <trkpt lat="43.01427" lon="0.85763">
        <ele>732</ele>
        <time>2016-12-03T13:40:38.008Z</time>
      </trkpt>
      <trkpt lat="43.01419" lon="0.85758">
        <ele>732.69600389115</ele>
        <time>2016-12-03T13:40:41.008Z</time>
      </trkpt>
      <trkpt lat="43.01412" lon="0.85752">
        <ele>734</ele>
        <time>2016-12-03T13:40:44.008Z</time>
      </trkpt>
      <trkpt lat="43.01405" lon="0.85747">
        <ele>734</ele>
        <time>2016-12-03T13:40:47.008Z</time>
      </trkpt>
      <trkpt lat="43.01398" lon="0.85742">
        <ele>734</ele>
        <time>2016-12-03T13:40:50.008Z</time>
      </trkpt>
      <trkpt lat="43.01391" lon="0.85735">
        <ele>735</ele>
        <time>2016-12-03T13:40:53.008Z</time>
      </trkpt>
      <trkpt lat="43.01384" lon="0.85726">
        <ele>735</ele>
        <time>2016-12-03T13:40:56.008Z</time>
      </trkpt>
      <trkpt lat="43.01377" lon="0.85717">
        <ele>735</ele>
        <time>2016-12-03T13:40:59.008Z</time>
      </trkpt>
      <trkpt lat="43.01371" lon="0.8571">
        <ele>737</ele>
        <time>2016-12-03T13:41:02.008Z</time>
      </trkpt>
      <trkpt lat="43.01366" lon="0.85702">
        <ele>737</ele>
        <time>2016-12-03T13:41:05.008Z</time>
      </trkpt>
      <trkpt lat="43.01362" lon="0.85692">
        <ele>737</ele>
        <time>2016-12-03T13:41:08.008Z</time>
      </trkpt>
      <trkpt lat="43.01357" lon="0.85682">
        <ele>737.34800194557</ele>
        <time>2016-12-03T13:41:11.008Z</time>
      </trkpt>
      <trkpt lat="43.01353" lon="0.85673">
        <ele>738</ele>
        <time>2016-12-03T13:41:14.008Z</time>
      </trkpt>
      <trkpt lat="43.01351" lon="0.85662">
        <ele>738</ele>
        <time>2016-12-03T13:41:17.008Z</time>
      </trkpt>
      <trkpt lat="43.01347" lon="0.85651">
        <ele>738</ele>
        <time>2016-12-03T13:41:20.008Z</time>
      </trkpt>
      <trkpt lat="43.01344" lon="0.85639">
        <ele>739</ele>
        <time>2016-12-03T13:41:23.008Z</time>
      </trkpt>
      <trkpt lat="43.01343" lon="0.85627">
        <ele>739</ele>
        <time>2016-12-03T13:41:26.008Z</time>
      </trkpt>
      <trkpt lat="43.01341" lon="0.85619">
        <ele>739</ele>
        <time>2016-12-03T13:41:28.008Z</time>
      </trkpt>
      <trkpt lat="43.01336" lon="0.85608">
        <ele>739.69600389115</ele>
        <time>2016-12-03T13:41:31.008Z</time>
      </trkpt>
      <trkpt lat="43.01333" lon="0.856">
        <ele>741</ele>
        <time>2016-12-03T13:41:33.008Z</time>
      </trkpt>
      <trkpt lat="43.0133" lon="0.85592">
        <ele>741</ele>
        <time>2016-12-03T13:41:35.008Z</time>
      </trkpt>
      <trkpt lat="43.01326" lon="0.85585">
        <ele>741</ele>
        <time>2016-12-03T13:41:37.008Z</time>
      </trkpt>
      <trkpt lat="43.01321" lon="0.85576">
        <ele>741</ele>
        <time>2016-12-03T13:41:40.008Z</time>
      </trkpt>
      <trkpt lat="43.01316" lon="0.85571">
        <ele>743</ele>
        <time>2016-12-03T13:41:42.008Z</time>
      </trkpt>
      <trkpt lat="43.01309" lon="0.85564">
        <ele>743</ele>
        <time>2016-12-03T13:41:45.008Z</time>
      </trkpt>
      <trkpt lat="43.01305" lon="0.85559">
        <ele>743</ele>
        <time>2016-12-03T13:41:47.008Z</time>
      </trkpt>
      <trkpt lat="43.01297" lon="0.85555">
        <ele>743</ele>
        <time>2016-12-03T13:41:50.008Z</time>
      </trkpt>
      <trkpt lat="43.01289" lon="0.85552">
        <ele>745</ele>
        <time>2016-12-03T13:41:53.008Z</time>
      </trkpt>
      <trkpt lat="43.01281" lon="0.8555">
        <ele>745</ele>
        <time>2016-12-03T13:41:56.008Z</time>
      </trkpt>
      <trkpt lat="43.01275" lon="0.85549">
        <ele>745</ele>
        <time>2016-12-03T13:41:58.008Z</time>
      </trkpt>
      <trkpt lat="43.01266" lon="0.85546">
        <ele>745.69600389115</ele>
        <time>2016-12-03T13:42:01.008Z</time>
      </trkpt>
      <trkpt lat="43.01257" lon="0.85544">
        <ele>747</ele>
        <time>2016-12-03T13:42:04.008Z</time>
      </trkpt>
      <trkpt lat="43.01251" lon="0.85543">
        <ele>747</ele>
        <time>2016-12-03T13:42:06.008Z</time>
      </trkpt>
      <trkpt lat="43.01246" lon="0.85541">
        <ele>747</ele>
        <time>2016-12-03T13:42:08.008Z</time>
      </trkpt>
      <trkpt lat="43.01237" lon="0.85538">
        <ele>747.34800194557</ele>
        <time>2016-12-03T13:42:11.008Z</time>
      </trkpt>
      <trkpt lat="43.01231" lon="0.85536">
        <ele>748</ele>
        <time>2016-12-03T13:42:13.008Z</time>
      </trkpt>
      <trkpt lat="43.01226" lon="0.85534">
        <ele>748</ele>
        <time>2016-12-03T13:42:15.008Z</time>
      </trkpt>
      <trkpt lat="43.01221" lon="0.85532">
        <ele>748</ele>
        <time>2016-12-03T13:42:17.008Z</time>
      </trkpt>
      <trkpt lat="43.01215" lon="0.85529">
        <ele>748</ele>
        <time>2016-12-03T13:42:19.008Z</time>
      </trkpt>
      <trkpt lat="43.0121" lon="0.85527">
        <ele>748.69600389115</ele>
        <time>2016-12-03T13:42:21.008Z</time>
      </trkpt>
      <trkpt lat="43.01204" lon="0.85525">
        <ele>750</ele>
        <time>2016-12-03T13:42:23.008Z</time>
      </trkpt>
      <trkpt lat="43.01198" lon="0.85524">
        <ele>750</ele>
        <time>2016-12-03T13:42:25.008Z</time>
      </trkpt>
      <trkpt lat="43.01193" lon="0.85522">
        <ele>750</ele>
        <time>2016-12-03T13:42:27.008Z</time>
      </trkpt>
      <trkpt lat="43.01187" lon="0.85521">
        <ele>750</ele>
        <time>2016-12-03T13:42:29.008Z</time>
      </trkpt>
      <trkpt lat="43.01181" lon="0.85519">
        <ele>750.68911503415</ele>
        <time>2016-12-03T13:42:31.008Z</time>
      </trkpt>
      <trkpt lat="43.01175" lon="0.85519">
        <ele>752</ele>
        <time>2016-12-03T13:42:33.008Z</time>
      </trkpt>
      <trkpt lat="43.0117" lon="0.85518">
        <ele>752</ele>
        <time>2016-12-03T13:42:35.008Z</time>
      </trkpt>
      <trkpt lat="43.01164" lon="0.85517">
        <ele>752</ele>
        <time>2016-12-03T13:42:37.008Z</time>
      </trkpt>
      <trkpt lat="43.01158" lon="0.85517">
        <ele>752</ele>
        <time>2016-12-03T13:42:39.008Z</time>
      </trkpt>
      <trkpt lat="43.01152" lon="0.85516">
        <ele>752.34800194557</ele>
        <time>2016-12-03T13:42:41.008Z</time>
      </trkpt>
      <trkpt lat="43.01147" lon="0.85516">
        <ele>753</ele>
        <time>2016-12-03T13:42:43.008Z</time>
      </trkpt>
      <trkpt lat="43.01141" lon="0.85516">
        <ele>753</ele>
        <time>2016-12-03T13:42:45.008Z</time>
      </trkpt>
      <trkpt lat="43.01134" lon="0.85516">
        <ele>753</ele>
        <time>2016-12-03T13:42:47.008Z</time>
      </trkpt>
      <trkpt lat="43.01128" lon="0.85515">
        <ele>753</ele>
        <time>2016-12-03T13:42:49.008Z</time>
      </trkpt>
      <trkpt lat="43.01125" lon="0.85515">
        <ele>753</ele>
        <time>2016-12-03T13:42:50.008Z</time>
      </trkpt>
      <trkpt lat="43.01119" lon="0.85514">
        <ele>754</ele>
        <time>2016-12-03T13:42:52.008Z</time>
      </trkpt>
      <trkpt lat="43.01114" lon="0.85513">
        <ele>754</ele>
        <time>2016-12-03T13:42:54.008Z</time>
      </trkpt>
      <trkpt lat="43.01108" lon="0.85513">
        <ele>754</ele>
        <time>2016-12-03T13:42:56.008Z</time>
      </trkpt>
      <trkpt lat="43.01105" lon="0.85512">
        <ele>754</ele>
        <time>2016-12-03T13:42:57.008Z</time>
      </trkpt>
      <trkpt lat="43.01102" lon="0.85512">
        <ele>754</ele>
        <time>2016-12-03T13:42:58.008Z</time>
      </trkpt>
      <trkpt lat="43.01096" lon="0.85511">
        <ele>754</ele>
        <time>2016-12-03T13:43:00.008Z</time>
      </trkpt>
      <trkpt lat="43.0109" lon="0.85509">
        <ele>758</ele>
        <time>2016-12-03T13:43:02.008Z</time>
      </trkpt>
      <trkpt lat="43.01084" lon="0.85507">
        <ele>758</ele>
        <time>2016-12-03T13:43:04.008Z</time>
      </trkpt>
      <trkpt lat="43.01078" lon="0.85505">
        <ele>758</ele>
        <time>2016-12-03T13:43:06.008Z</time>
      </trkpt>
      <trkpt lat="43.01073" lon="0.85502">
        <ele>758</ele>
        <time>2016-12-03T13:43:08.008Z</time>
      </trkpt>
      <trkpt lat="43.01067" lon="0.85498">
        <ele>758</ele>
        <time>2016-12-03T13:43:10.008Z</time>
      </trkpt>
      <trkpt lat="43.01062" lon="0.85494">
        <ele>759</ele>
        <time>2016-12-03T13:43:12.008Z</time>
      </trkpt>
      <trkpt lat="43.01057" lon="0.8549">
        <ele>759</ele>
        <time>2016-12-03T13:43:14.008Z</time>
      </trkpt>
      <trkpt lat="43.01055" lon="0.85488">
        <ele>758.65199805443</ele>
        <time>2016-12-03T13:43:15.008Z</time>
      </trkpt>
      <trkpt lat="43.0105" lon="0.85483">
        <ele>758</ele>
        <time>2016-12-03T13:43:17.008Z</time>
      </trkpt>
      <trkpt lat="43.01045" lon="0.85478">
        <ele>758</ele>
        <time>2016-12-03T13:43:19.008Z</time>
      </trkpt>
      <trkpt lat="43.01043" lon="0.85475">
        <ele>758</ele>
        <time>2016-12-03T13:43:20.008Z</time>
      </trkpt>
      <trkpt lat="43.01041" lon="0.85473">
        <ele>758.34800194557</ele>
        <time>2016-12-03T13:43:21.008Z</time>
      </trkpt>
      <trkpt lat="43.01036" lon="0.85468">
        <ele>759</ele>
        <time>2016-12-03T13:43:23.008Z</time>
      </trkpt>
      <trkpt lat="43.01033" lon="0.85464">
        <ele>759</ele>
        <time>2016-12-03T13:43:25.008Z</time>
      </trkpt>
      <trkpt lat="43.01029" lon="0.85459">
        <ele>759</ele>
        <time>2016-12-03T13:43:28.008Z</time>
      </trkpt>
      <trkpt lat="43.01028" lon="0.85456">
        <ele>760</ele>
        <time>2016-12-03T13:43:53.008Z</time>
      </trkpt>
      <trkpt lat="43.0102" lon="0.85453">
        <ele>760</ele>
        <time>2016-12-03T13:44:23.008Z</time>
      </trkpt>
      <trkpt lat="43.01012" lon="0.85449">
        <ele>760</ele>
        <time>2016-12-03T13:44:27.008Z</time>
      </trkpt>
      <trkpt lat="43.01006" lon="0.85446">
        <ele>760</ele>
        <time>2016-12-03T13:44:30.008Z</time>
      </trkpt>
      <trkpt lat="43.01001" lon="0.85443">
        <ele>761</ele>
        <time>2016-12-03T13:44:32.008Z</time>
      </trkpt>
      <trkpt lat="43.00994" lon="0.85439">
        <ele>761</ele>
        <time>2016-12-03T13:44:35.008Z</time>
      </trkpt>
      <trkpt lat="43.00985" lon="0.85438">
        <ele>761</ele>
        <time>2016-12-03T13:44:38.008Z</time>
      </trkpt>
      <trkpt lat="43.00977" lon="0.85438">
        <ele>761.69600389115</ele>
        <time>2016-12-03T13:44:41.008Z</time>
      </trkpt>
      <trkpt lat="43.00969" lon="0.8544">
        <ele>763</ele>
        <time>2016-12-03T13:44:44.008Z</time>
      </trkpt>
      <trkpt lat="43.00961" lon="0.85445">
        <ele>763</ele>
        <time>2016-12-03T13:44:47.008Z</time>
      </trkpt>
      <trkpt lat="43.00953" lon="0.85449">
        <ele>763</ele>
        <time>2016-12-03T13:44:50.008Z</time>
      </trkpt>
      <trkpt lat="43.00945" lon="0.85455">
        <ele>764</ele>
        <time>2016-12-03T13:44:53.008Z</time>
      </trkpt>
      <trkpt lat="43.00937" lon="0.85459">
        <ele>764</ele>
        <time>2016-12-03T13:44:56.008Z</time>
      </trkpt>
      <trkpt lat="43.00931" lon="0.85463">
        <ele>764</ele>
        <time>2016-12-03T13:44:58.008Z</time>
      </trkpt>
      <trkpt lat="43.00926" lon="0.85466">
        <ele>764</ele>
        <time>2016-12-03T13:45:00.008Z</time>
      </trkpt>
      <trkpt lat="43.0092" lon="0.85469">
        <ele>766</ele>
        <time>2016-12-03T13:45:02.008Z</time>
      </trkpt>
      <trkpt lat="43.00914" lon="0.85472">
        <ele>765.65200194562</ele>
        <time>2016-12-03T13:45:04.008Z</time>
      </trkpt>
      <trkpt lat="43.00909" lon="0.85476">
        <ele>765</ele>
        <time>2016-12-03T13:45:06.008Z</time>
      </trkpt>
      <trkpt lat="43.00903" lon="0.8548">
        <ele>765</ele>
        <time>2016-12-03T13:45:08.008Z</time>
      </trkpt>
      <trkpt lat="43.009" lon="0.85481">
        <ele>765</ele>
        <time>2016-12-03T13:45:09.008Z</time>
      </trkpt>
      <trkpt lat="43.00894" lon="0.85485">
        <ele>765.69600389115</ele>
        <time>2016-12-03T13:45:11.008Z</time>
      </trkpt>
      <trkpt lat="43.00888" lon="0.85488">
        <ele>767</ele>
        <time>2016-12-03T13:45:13.008Z</time>
      </trkpt>
      <trkpt lat="43.00882" lon="0.85492">
        <ele>767</ele>
        <time>2016-12-03T13:45:15.008Z</time>
      </trkpt>
      <trkpt lat="43.00876" lon="0.85496">
        <ele>767</ele>
        <time>2016-12-03T13:45:17.008Z</time>
      </trkpt>
      <trkpt lat="43.0087" lon="0.85499">
        <ele>767</ele>
        <time>2016-12-03T13:45:19.008Z</time>
      </trkpt>
      <trkpt lat="43.00863" lon="0.85501">
        <ele>767.69600389115</ele>
        <time>2016-12-03T13:45:21.008Z</time>
      </trkpt>
      <trkpt lat="43.00857" lon="0.85502">
        <ele>769</ele>
        <time>2016-12-03T13:45:23.008Z</time>
      </trkpt>
      <trkpt lat="43.00851" lon="0.85502">
        <ele>769</ele>
        <time>2016-12-03T13:45:25.008Z</time>
      </trkpt>
      <trkpt lat="43.00845" lon="0.855">
        <ele>769</ele>
        <time>2016-12-03T13:45:27.008Z</time>
      </trkpt>
      <trkpt lat="43.00837" lon="0.85495">
        <ele>769</ele>
        <time>2016-12-03T13:45:30.008Z</time>
      </trkpt>
      <trkpt lat="43.0083" lon="0.85488">
        <ele>770</ele>
        <time>2016-12-03T13:45:33.008Z</time>
      </trkpt>
      <trkpt lat="43.00822" lon="0.8548">
        <ele>770</ele>
        <time>2016-12-03T13:45:36.008Z</time>
      </trkpt>
      <trkpt lat="43.00818" lon="0.85475">
        <ele>770</ele>
        <time>2016-12-03T13:45:38.008Z</time>
      </trkpt>
      <trkpt lat="43.00813" lon="0.85469">
        <ele>770</ele>
        <time>2016-12-03T13:45:40.008Z</time>
      </trkpt>
      <trkpt lat="43.00809" lon="0.85463">
        <ele>772</ele>
        <time>2016-12-03T13:45:42.008Z</time>
      </trkpt>
      <trkpt lat="43.00804" lon="0.85458">
        <ele>772</ele>
        <time>2016-12-03T13:45:44.008Z</time>
      </trkpt>
      <trkpt lat="43.008" lon="0.85452">
        <ele>772</ele>
        <time>2016-12-03T13:45:46.008Z</time>
      </trkpt>
      <trkpt lat="43.00796" lon="0.85446">
        <ele>772</ele>
        <time>2016-12-03T13:45:48.008Z</time>
      </trkpt>
      <trkpt lat="43.00792" lon="0.8544">
        <ele>772</ele>
        <time>2016-12-03T13:45:50.008Z</time>
      </trkpt>
      <trkpt lat="43.00788" lon="0.85434">
        <ele>774</ele>
        <time>2016-12-03T13:45:52.008Z</time>
      </trkpt>
      <trkpt lat="43.00785" lon="0.85428">
        <ele>774</ele>
        <time>2016-12-03T13:45:54.008Z</time>
      </trkpt>
      <trkpt lat="43.00781" lon="0.85422">
        <ele>774.69599610875</ele>
        <time>2016-12-03T13:45:56.008Z</time>
      </trkpt>
      <trkpt lat="43.00778" lon="0.85415">
        <ele>776</ele>
        <time>2016-12-03T13:45:58.008Z</time>
      </trkpt>
      <trkpt lat="43.00774" lon="0.85409">
        <ele>776</ele>
        <time>2016-12-03T13:46:00.008Z</time>
      </trkpt>
      <trkpt lat="43.00772" lon="0.85402">
        <ele>778</ele>
        <time>2016-12-03T13:46:02.008Z</time>
      </trkpt>
      <trkpt lat="43.00768" lon="0.85392">
        <ele>778</ele>
        <time>2016-12-03T13:46:05.008Z</time>
      </trkpt>
      <trkpt lat="43.00764" lon="0.85381">
        <ele>779</ele>
        <time>2016-12-03T13:46:08.008Z</time>
      </trkpt>
      <trkpt lat="43.00761" lon="0.85371">
        <ele>779.34800194557</ele>
        <time>2016-12-03T13:46:11.008Z</time>
      </trkpt>
      <trkpt lat="43.00758" lon="0.8536">
        <ele>780</ele>
        <time>2016-12-03T13:46:14.008Z</time>
      </trkpt>
      <trkpt lat="43.00756" lon="0.85349">
        <ele>780</ele>
        <time>2016-12-03T13:46:17.008Z</time>
      </trkpt>
      <trkpt lat="43.00754" lon="0.85338">
        <ele>780</ele>
        <time>2016-12-03T13:46:20.008Z</time>
      </trkpt>
      <trkpt lat="43.00753" lon="0.85327">
        <ele>781</ele>
        <time>2016-12-03T13:46:23.008Z</time>
      </trkpt>
      <trkpt lat="43.0075" lon="0.85317">
        <ele>781</ele>
        <time>2016-12-03T13:46:26.008Z</time>
      </trkpt>
      <trkpt lat="43.00749" lon="0.85302">
        <ele>781</ele>
        <time>2016-12-03T13:46:30.008Z</time>
      </trkpt>
      <trkpt lat="43.00748" lon="0.8529">
        <ele>784</ele>
        <time>2016-12-03T13:46:34.008Z</time>
      </trkpt>
      <trkpt lat="43.00746" lon="0.8528">
        <ele>786</ele>
        <time>2016-12-03T13:46:37.008Z</time>
      </trkpt>
      <trkpt lat="43.00745" lon="0.8527">
        <ele>786</ele>
        <time>2016-12-03T13:46:40.008Z</time>
      </trkpt>
      <trkpt lat="43.00743" lon="0.85258">
        <ele>788</ele>
        <time>2016-12-03T13:46:44.008Z</time>
      </trkpt>
      <trkpt lat="43.00741" lon="0.85245">
        <ele>789</ele>
        <time>2016-12-03T13:46:48.008Z</time>
      </trkpt>
      <trkpt lat="43.00738" lon="0.85237">
        <ele>789.34800194557</ele>
        <time>2016-12-03T13:46:51.008Z</time>
      </trkpt>
      <trkpt lat="43.00737" lon="0.85228">
        <ele>790</ele>
        <time>2016-12-03T13:46:54.008Z</time>
      </trkpt>
      <trkpt lat="43.00735" lon="0.85217">
        <ele>790</ele>
        <time>2016-12-03T13:46:58.008Z</time>
      </trkpt>
      <trkpt lat="43.00731" lon="0.85209">
        <ele>790.34140980554</ele>
        <time>2016-12-03T13:47:01.008Z</time>
      </trkpt>
      <trkpt lat="43.00728" lon="0.85202">
        <ele>791</ele>
        <time>2016-12-03T13:47:04.008Z</time>
      </trkpt>
      <trkpt lat="43.00723" lon="0.85194">
        <ele>791</ele>
        <time>2016-12-03T13:47:07.008Z</time>
      </trkpt>
      <trkpt lat="43.0072" lon="0.85186">
        <ele>791</ele>
        <time>2016-12-03T13:47:10.008Z</time>
      </trkpt>
      <trkpt lat="43.00715" lon="0.85178">
        <ele>793</ele>
        <time>2016-12-03T13:47:13.008Z</time>
      </trkpt>
      <trkpt lat="43.00712" lon="0.85173">
        <ele>793</ele>
        <time>2016-12-03T13:47:15.008Z</time>
      </trkpt>
      <trkpt lat="43.00707" lon="0.85165">
        <ele>793</ele>
        <time>2016-12-03T13:47:18.008Z</time>
      </trkpt>
      <trkpt lat="43.00703" lon="0.85161">
        <ele>793</ele>
        <time>2016-12-03T13:47:20.008Z</time>
      </trkpt>
      <trkpt lat="43.00697" lon="0.85155">
        <ele>795</ele>
        <time>2016-12-03T13:47:23.008Z</time>
      </trkpt>
      <trkpt lat="43.00691" lon="0.8515">
        <ele>795</ele>
        <time>2016-12-03T13:47:26.008Z</time>
      </trkpt>
      <trkpt lat="43.00685" lon="0.85145">
        <ele>795</ele>
        <time>2016-12-03T13:47:29.008Z</time>
      </trkpt>
      <trkpt lat="43.00678" lon="0.85139">
        <ele>797</ele>
        <time>2016-12-03T13:47:33.008Z</time>
      </trkpt>
      <trkpt lat="43.00673" lon="0.85131">
        <ele>797</ele>
        <time>2016-12-03T13:47:36.008Z</time>
      </trkpt>
      <trkpt lat="43.00671" lon="0.8512">
        <ele>797</ele>
        <time>2016-12-03T13:47:39.008Z</time>
      </trkpt>
      <trkpt lat="43.00671" lon="0.8511">
        <ele>799</ele>
        <time>2016-12-03T13:47:42.008Z</time>
      </trkpt>
      <trkpt lat="43.00673" lon="0.851">
        <ele>799</ele>
        <time>2016-12-03T13:47:45.008Z</time>
      </trkpt>
      <trkpt lat="43.00678" lon="0.85088">
        <ele>800</ele>
        <time>2016-12-03T13:47:49.008Z</time>
      </trkpt>
      <trkpt lat="43.00685" lon="0.85077">
        <ele>801</ele>
        <time>2016-12-03T13:47:53.008Z</time>
      </trkpt>
      <trkpt lat="43.00692" lon="0.85068">
        <ele>801</ele>
        <time>2016-12-03T13:47:57.008Z</time>
      </trkpt>
      <trkpt lat="43.00698" lon="0.85056">
        <ele>801.69600389115</ele>
        <time>2016-12-03T13:48:01.008Z</time>
      </trkpt>
      <trkpt lat="43.00704" lon="0.85043">
        <ele>803</ele>
        <time>2016-12-03T13:48:05.008Z</time>
      </trkpt>
      <trkpt lat="43.00711" lon="0.85029">
        <ele>803</ele>
        <time>2016-12-03T13:48:09.008Z</time>
      </trkpt>
      <trkpt lat="43.00715" lon="0.85018">
        <ele>805</ele>
        <time>2016-12-03T13:48:12.008Z</time>
      </trkpt>
      <trkpt lat="43.0072" lon="0.85005">
        <ele>805</ele>
        <time>2016-12-03T13:48:16.008Z</time>
      </trkpt>
      <trkpt lat="43.00725" lon="0.8499">
        <ele>805</ele>
        <time>2016-12-03T13:48:20.008Z</time>
      </trkpt>
      <trkpt lat="43.00732" lon="0.84978">
        <ele>805</ele>
        <time>2016-12-03T13:48:24.008Z</time>
      </trkpt>
      <trkpt lat="43.00738" lon="0.84963">
        <ele>805</ele>
        <time>2016-12-03T13:48:28.008Z</time>
      </trkpt>
      <trkpt lat="43.00743" lon="0.84953">
        <ele>805.69600389115</ele>
        <time>2016-12-03T13:48:31.008Z</time>
      </trkpt>
      <trkpt lat="43.00749" lon="0.84942">
        <ele>807</ele>
        <time>2016-12-03T13:48:34.008Z</time>
      </trkpt>
      <trkpt lat="43.00755" lon="0.84933">
        <ele>807</ele>
        <time>2016-12-03T13:48:37.008Z</time>
      </trkpt>
      <trkpt lat="43.00764" lon="0.84924">
        <ele>807.34800194557</ele>
        <time>2016-12-03T13:48:41.008Z</time>
      </trkpt>
      <trkpt lat="43.00772" lon="0.84916">
        <ele>808</ele>
        <time>2016-12-03T13:48:44.008Z</time>
      </trkpt>
      <trkpt lat="43.00781" lon="0.84908">
        <ele>808</ele>
        <time>2016-12-03T13:48:47.008Z</time>
      </trkpt>
      <trkpt lat="43.00791" lon="0.84901">
        <ele>808</ele>
        <time>2016-12-03T13:48:50.008Z</time>
      </trkpt>
      <trkpt lat="43.00798" lon="0.84896">
        <ele>808</ele>
        <time>2016-12-03T13:48:52.008Z</time>
      </trkpt>
      <trkpt lat="43.00806" lon="0.84893">
        <ele>808</ele>
        <time>2016-12-03T13:48:54.008Z</time>
      </trkpt>
      <trkpt lat="43.00813" lon="0.8489">
        <ele>808</ele>
        <time>2016-12-03T13:48:56.008Z</time>
      </trkpt>
      <trkpt lat="43.0082" lon="0.84886">
        <ele>808</ele>
        <time>2016-12-03T13:48:58.008Z</time>
      </trkpt>
      <trkpt lat="43.00825" lon="0.84882">
        <ele>808</ele>
        <time>2016-12-03T13:49:00.008Z</time>
      </trkpt>
      <trkpt lat="43.0083" lon="0.84877">
        <ele>808</ele>
        <time>2016-12-03T13:49:02.008Z</time>
      </trkpt>
      <trkpt lat="43.00834" lon="0.84871">
        <ele>808</ele>
        <time>2016-12-03T13:49:04.008Z</time>
      </trkpt>
      <trkpt lat="43.00837" lon="0.84864">
        <ele>808</ele>
        <time>2016-12-03T13:49:06.008Z</time>
      </trkpt>
      <trkpt lat="43.0084" lon="0.84855">
        <ele>808</ele>
        <time>2016-12-03T13:49:08.008Z</time>
      </trkpt>
      <trkpt lat="43.00843" lon="0.84847">
        <ele>808</ele>
        <time>2016-12-03T13:49:10.008Z</time>
      </trkpt>
      <trkpt lat="43.00845" lon="0.84838">
        <ele>809</ele>
        <time>2016-12-03T13:49:12.008Z</time>
      </trkpt>
      <trkpt lat="43.00847" lon="0.84828">
        <ele>809</ele>
        <time>2016-12-03T13:49:14.008Z</time>
      </trkpt>
      <trkpt lat="43.00848" lon="0.84817">
        <ele>809</ele>
        <time>2016-12-03T13:49:16.008Z</time>
      </trkpt>
      <trkpt lat="43.00849" lon="0.84807">
        <ele>809</ele>
        <time>2016-12-03T13:49:18.008Z</time>
      </trkpt>
      <trkpt lat="43.00848" lon="0.84796">
        <ele>809</ele>
        <time>2016-12-03T13:49:20.008Z</time>
      </trkpt>
      <trkpt lat="43.00848" lon="0.84786">
        <ele>809</ele>
        <time>2016-12-03T13:49:22.008Z</time>
      </trkpt>
      <trkpt lat="43.00847" lon="0.84776">
        <ele>809</ele>
        <time>2016-12-03T13:49:24.008Z</time>
      </trkpt>
      <trkpt lat="43.00845" lon="0.84767">
        <ele>809</ele>
        <time>2016-12-03T13:49:26.008Z</time>
      </trkpt>
      <trkpt lat="43.00842" lon="0.84753">
        <ele>809</ele>
        <time>2016-12-03T13:49:29.008Z</time>
      </trkpt>
      <trkpt lat="43.00836" lon="0.8474">
        <ele>809</ele>
        <time>2016-12-03T13:49:32.008Z</time>
      </trkpt>
      <trkpt lat="43.0083" lon="0.84733">
        <ele>809</ele>
        <time>2016-12-03T13:49:34.008Z</time>
      </trkpt>
      <trkpt lat="43.00825" lon="0.84727">
        <ele>809</ele>
        <time>2016-12-03T13:49:36.008Z</time>
      </trkpt>
      <trkpt lat="43.00819" lon="0.84722">
        <ele>809</ele>
        <time>2016-12-03T13:49:38.008Z</time>
      </trkpt>
      <trkpt lat="43.00812" lon="0.84718">
        <ele>809</ele>
        <time>2016-12-03T13:49:40.008Z</time>
      </trkpt>
      <trkpt lat="43.00805" lon="0.84715">
        <ele>809</ele>
        <time>2016-12-03T13:49:42.008Z</time>
      </trkpt>
      <trkpt lat="43.00797" lon="0.84715">
        <ele>809</ele>
        <time>2016-12-03T13:49:44.008Z</time>
      </trkpt>
      <trkpt lat="43.00788" lon="0.84715">
        <ele>809</ele>
        <time>2016-12-03T13:49:46.008Z</time>
      </trkpt>
      <trkpt lat="43.0078" lon="0.84717">
        <ele>809</ele>
        <time>2016-12-03T13:49:48.008Z</time>
      </trkpt>
      <trkpt lat="43.00773" lon="0.84719">
        <ele>809</ele>
        <time>2016-12-03T13:49:50.008Z</time>
      </trkpt>
      <trkpt lat="43.00765" lon="0.8472">
        <ele>810</ele>
        <time>2016-12-03T13:49:52.008Z</time>
      </trkpt>
      <trkpt lat="43.00758" lon="0.84722">
        <ele>810</ele>
        <time>2016-12-03T13:49:54.008Z</time>
      </trkpt>
      <trkpt lat="43.00751" lon="0.84726">
        <ele>810</ele>
        <time>2016-12-03T13:49:56.008Z</time>
      </trkpt>
      <trkpt lat="43.00744" lon="0.84729">
        <ele>810</ele>
        <time>2016-12-03T13:49:58.008Z</time>
      </trkpt>
      <trkpt lat="43.00737" lon="0.84732">
        <ele>810</ele>
        <time>2016-12-03T13:50:00.008Z</time>
      </trkpt>
      <trkpt lat="43.0073" lon="0.84735">
        <ele>812</ele>
        <time>2016-12-03T13:50:02.008Z</time>
      </trkpt>
      <trkpt lat="43.00722" lon="0.84737">
        <ele>812</ele>
        <time>2016-12-03T13:50:04.008Z</time>
      </trkpt>
      <trkpt lat="43.00715" lon="0.84739">
        <ele>812</ele>
        <time>2016-12-03T13:50:06.008Z</time>
      </trkpt>
      <trkpt lat="43.00708" lon="0.8474">
        <ele>812</ele>
        <time>2016-12-03T13:50:08.008Z</time>
      </trkpt>
      <trkpt lat="43.00701" lon="0.8474">
        <ele>812</ele>
        <time>2016-12-03T13:50:10.008Z</time>
      </trkpt>
      <trkpt lat="43.00694" lon="0.84741">
        <ele>812</ele>
        <time>2016-12-03T13:50:12.008Z</time>
      </trkpt>
      <trkpt lat="43.00691" lon="0.84741">
        <ele>812</ele>
        <time>2016-12-03T13:50:13.008Z</time>
      </trkpt>
      <trkpt lat="43.00687" lon="0.84742">
        <ele>812</ele>
        <time>2016-12-03T13:50:14.008Z</time>
      </trkpt>
      <trkpt lat="43.00684" lon="0.84742">
        <ele>812</ele>
        <time>2016-12-03T13:50:15.008Z</time>
      </trkpt>
      <trkpt lat="43.00681" lon="0.84742">
        <ele>812</ele>
        <time>2016-12-03T13:50:16.008Z</time>
      </trkpt>
      <trkpt lat="43.00678" lon="0.84743">
        <ele>812</ele>
        <time>2016-12-03T13:50:17.008Z</time>
      </trkpt>
      <trkpt lat="43.00674" lon="0.84743">
        <ele>812</ele>
        <time>2016-12-03T13:50:18.008Z</time>
      </trkpt>
      <trkpt lat="43.00671" lon="0.84743">
        <ele>812</ele>
        <time>2016-12-03T13:50:19.008Z</time>
      </trkpt>
      <trkpt lat="43.00668" lon="0.84743">
        <ele>812</ele>
        <time>2016-12-03T13:50:20.008Z</time>
      </trkpt>
      <trkpt lat="43.00664" lon="0.84744">
        <ele>813.04400583672</ele>
        <time>2016-12-03T13:50:21.008Z</time>
      </trkpt>
      <trkpt lat="43.00658" lon="0.84744">
        <ele>815</ele>
        <time>2016-12-03T13:50:23.008Z</time>
      </trkpt>
      <trkpt lat="43.00652" lon="0.84745">
        <ele>815</ele>
        <time>2016-12-03T13:50:25.008Z</time>
      </trkpt>
      <trkpt lat="43.00646" lon="0.84746">
        <ele>817</ele>
        <time>2016-12-03T13:50:27.008Z</time>
      </trkpt>
      <trkpt lat="43.0064" lon="0.84747">
        <ele>817</ele>
        <time>2016-12-03T13:50:29.008Z</time>
      </trkpt>
      <trkpt lat="43.00635" lon="0.84747">
        <ele>817.34800194557</ele>
        <time>2016-12-03T13:50:31.008Z</time>
      </trkpt>
      <trkpt lat="43.00629" lon="0.84748">
        <ele>818</ele>
        <time>2016-12-03T13:50:33.008Z</time>
      </trkpt>
      <trkpt lat="43.00623" lon="0.84749">
        <ele>818</ele>
        <time>2016-12-03T13:50:35.008Z</time>
      </trkpt>
      <trkpt lat="43.00617" lon="0.84749">
        <ele>820</ele>
        <time>2016-12-03T13:50:37.008Z</time>
      </trkpt>
      <trkpt lat="43.00611" lon="0.84749">
        <ele>820</ele>
        <time>2016-12-03T13:50:39.008Z</time>
      </trkpt>
      <trkpt lat="43.00605" lon="0.8475">
        <ele>820.34800194557</ele>
        <time>2016-12-03T13:50:41.008Z</time>
      </trkpt>
      <trkpt lat="43.006" lon="0.8475">
        <ele>821</ele>
        <time>2016-12-03T13:50:43.008Z</time>
      </trkpt>
      <trkpt lat="43.00594" lon="0.84751">
        <ele>821</ele>
        <time>2016-12-03T13:50:45.008Z</time>
      </trkpt>
      <trkpt lat="43.00588" lon="0.84752">
        <ele>822</ele>
        <time>2016-12-03T13:50:47.008Z</time>
      </trkpt>
      <trkpt lat="43.00582" lon="0.84754">
        <ele>822</ele>
        <time>2016-12-03T13:50:49.008Z</time>
      </trkpt>
      <trkpt lat="43.00576" lon="0.84756">
        <ele>822</ele>
        <time>2016-12-03T13:50:51.008Z</time>
      </trkpt>
      <trkpt lat="43.00573" lon="0.84757">
        <ele>822</ele>
        <time>2016-12-03T13:50:52.008Z</time>
      </trkpt>
      <trkpt lat="43.0057" lon="0.84758">
        <ele>822</ele>
        <time>2016-12-03T13:50:53.008Z</time>
      </trkpt>
      <trkpt lat="43.00567" lon="0.84759">
        <ele>822</ele>
        <time>2016-12-03T13:50:54.008Z</time>
      </trkpt>
      <trkpt lat="43.00564" lon="0.84761">
        <ele>822</ele>
        <time>2016-12-03T13:50:55.008Z</time>
      </trkpt>
      <trkpt lat="43.00561" lon="0.84762">
        <ele>822</ele>
        <time>2016-12-03T13:50:56.008Z</time>
      </trkpt>
      <trkpt lat="43.00555" lon="0.84765">
        <ele>822</ele>
        <time>2016-12-03T13:50:58.008Z</time>
      </trkpt>
      <trkpt lat="43.00551" lon="0.84766">
        <ele>822</ele>
        <time>2016-12-03T13:50:59.008Z</time>
      </trkpt>
      <trkpt lat="43.00548" lon="0.84768">
        <ele>822</ele>
        <time>2016-12-03T13:51:00.008Z</time>
      </trkpt>
      <trkpt lat="43.00545" lon="0.84769">
        <ele>822.34800194557</ele>
        <time>2016-12-03T13:51:01.008Z</time>
      </trkpt>
      <trkpt lat="43.00542" lon="0.8477">
        <ele>822.65200194562</ele>
        <time>2016-12-03T13:51:02.008Z</time>
      </trkpt>
      <trkpt lat="43.00539" lon="0.84772">
        <ele>822</ele>
        <time>2016-12-03T13:51:03.008Z</time>
      </trkpt>
      <trkpt lat="43.00533" lon="0.84773">
        <ele>822</ele>
        <time>2016-12-03T13:51:05.008Z</time>
      </trkpt>
      <trkpt lat="43.00527" lon="0.84776">
        <ele>822</ele>
        <time>2016-12-03T13:51:07.008Z</time>
      </trkpt>
      <trkpt lat="43.0052" lon="0.84779">
        <ele>822</ele>
        <time>2016-12-03T13:51:09.008Z</time>
      </trkpt>
      <trkpt lat="43.00514" lon="0.84781">
        <ele>822.69600389115</ele>
        <time>2016-12-03T13:51:11.008Z</time>
      </trkpt>
      <trkpt lat="43.00509" lon="0.84783">
        <ele>824</ele>
        <time>2016-12-03T13:51:13.008Z</time>
      </trkpt>
      <trkpt lat="43.00503" lon="0.84785">
        <ele>824</ele>
        <time>2016-12-03T13:51:15.008Z</time>
      </trkpt>
      <trkpt lat="43.00498" lon="0.84788">
        <ele>824</ele>
        <time>2016-12-03T13:51:17.008Z</time>
      </trkpt>
      <trkpt lat="43.00492" lon="0.8479">
        <ele>824</ele>
        <time>2016-12-03T13:51:19.008Z</time>
      </trkpt>
      <trkpt lat="43.00487" lon="0.84792">
        <ele>824.69600389115</ele>
        <time>2016-12-03T13:51:21.008Z</time>
      </trkpt>
      <trkpt lat="43.00481" lon="0.84795">
        <ele>826</ele>
        <time>2016-12-03T13:51:23.008Z</time>
      </trkpt>
      <trkpt lat="43.00476" lon="0.84797">
        <ele>826</ele>
        <time>2016-12-03T13:51:25.008Z</time>
      </trkpt>
      <trkpt lat="43.0047" lon="0.84801">
        <ele>826</ele>
        <time>2016-12-03T13:51:27.008Z</time>
      </trkpt>
      <trkpt lat="43.00465" lon="0.84803">
        <ele>826</ele>
        <time>2016-12-03T13:51:29.008Z</time>
      </trkpt>
      <trkpt lat="43.0046" lon="0.84807">
        <ele>827.04400583672</ele>
        <time>2016-12-03T13:51:31.008Z</time>
      </trkpt>
      <trkpt lat="43.00455" lon="0.84811">
        <ele>829</ele>
        <time>2016-12-03T13:51:33.008Z</time>
      </trkpt>
      <trkpt lat="43.00449" lon="0.84815">
        <ele>829</ele>
        <time>2016-12-03T13:51:35.008Z</time>
      </trkpt>
      <trkpt lat="43.00444" lon="0.8482">
        <ele>829</ele>
        <time>2016-12-03T13:51:37.008Z</time>
      </trkpt>
      <trkpt lat="43.00439" lon="0.84824">
        <ele>829</ele>
        <time>2016-12-03T13:51:39.008Z</time>
      </trkpt>
      <trkpt lat="43.00435" lon="0.84828">
        <ele>829.34800194557</ele>
        <time>2016-12-03T13:51:41.008Z</time>
      </trkpt>
      <trkpt lat="43.0043" lon="0.84831">
        <ele>830</ele>
        <time>2016-12-03T13:51:43.008Z</time>
      </trkpt>
      <trkpt lat="43.00425" lon="0.84835">
        <ele>830</ele>
        <time>2016-12-03T13:51:45.008Z</time>
      </trkpt>
      <trkpt lat="43.0042" lon="0.8484">
        <ele>830</ele>
        <time>2016-12-03T13:51:47.008Z</time>
      </trkpt>
      <trkpt lat="43.00416" lon="0.84844">
        <ele>830</ele>
        <time>2016-12-03T13:51:49.008Z</time>
      </trkpt>
      <trkpt lat="43.00411" lon="0.84847">
        <ele>830.69600389115</ele>
        <time>2016-12-03T13:51:51.008Z</time>
      </trkpt>
      <trkpt lat="43.00406" lon="0.84851">
        <ele>832</ele>
        <time>2016-12-03T13:51:53.008Z</time>
      </trkpt>
      <trkpt lat="43.00402" lon="0.84854">
        <ele>832</ele>
        <time>2016-12-03T13:51:55.008Z</time>
      </trkpt>
      <trkpt lat="43.00397" lon="0.84858">
        <ele>832</ele>
        <time>2016-12-03T13:51:57.008Z</time>
      </trkpt>
      <trkpt lat="43.00392" lon="0.84863">
        <ele>832</ele>
        <time>2016-12-03T13:51:59.008Z</time>
      </trkpt>
      <trkpt lat="43.00387" lon="0.84866">
        <ele>833.37823006831</ele>
        <time>2016-12-03T13:52:01.008Z</time>
      </trkpt>
      <trkpt lat="43.00382" lon="0.84869">
        <ele>836</ele>
        <time>2016-12-03T13:52:03.008Z</time>
      </trkpt>
      <trkpt lat="43.00378" lon="0.84872">
        <ele>836</ele>
        <time>2016-12-03T13:52:05.008Z</time>
      </trkpt>
      <trkpt lat="43.00373" lon="0.84875">
        <ele>837</ele>
        <time>2016-12-03T13:52:07.008Z</time>
      </trkpt>
      <trkpt lat="43.00369" lon="0.84878">
        <ele>837</ele>
        <time>2016-12-03T13:52:09.008Z</time>
      </trkpt>
      <trkpt lat="43.00364" lon="0.84879">
        <ele>837</ele>
        <time>2016-12-03T13:52:11.008Z</time>
      </trkpt>
      <trkpt lat="43.00359" lon="0.84881">
        <ele>837</ele>
        <time>2016-12-03T13:52:13.008Z</time>
      </trkpt>
      <trkpt lat="43.00354" lon="0.84883">
        <ele>837</ele>
        <time>2016-12-03T13:52:15.008Z</time>
      </trkpt>
      <trkpt lat="43.00349" lon="0.84884">
        <ele>837</ele>
        <time>2016-12-03T13:52:17.008Z</time>
      </trkpt>
      <trkpt lat="43.00344" lon="0.84886">
        <ele>837</ele>
        <time>2016-12-03T13:52:19.008Z</time>
      </trkpt>
      <trkpt lat="43.00339" lon="0.84888">
        <ele>837.69600389115</ele>
        <time>2016-12-03T13:52:21.008Z</time>
      </trkpt>
      <trkpt lat="43.00334" lon="0.84891">
        <ele>839</ele>
        <time>2016-12-03T13:52:23.008Z</time>
      </trkpt>
      <trkpt lat="43.00329" lon="0.84894">
        <ele>839</ele>
        <time>2016-12-03T13:52:25.008Z</time>
      </trkpt>
      <trkpt lat="43.00323" lon="0.84896">
        <ele>839</ele>
        <time>2016-12-03T13:52:27.008Z</time>
      </trkpt>
      <trkpt lat="43.00316" lon="0.84896">
        <ele>839</ele>
        <time>2016-12-03T13:52:30.008Z</time>
      </trkpt>
      <trkpt lat="43.00308" lon="0.84901">
        <ele>842</ele>
        <time>2016-12-03T13:52:33.008Z</time>
      </trkpt>
      <trkpt lat="43.00304" lon="0.84904">
        <ele>842</ele>
        <time>2016-12-03T13:52:35.008Z</time>
      </trkpt>
      <trkpt lat="43.00297" lon="0.84907">
        <ele>842</ele>
        <time>2016-12-03T13:52:38.008Z</time>
      </trkpt>
      <trkpt lat="43.00293" lon="0.8491">
        <ele>842</ele>
        <time>2016-12-03T13:52:41.008Z</time>
      </trkpt>
      <trkpt lat="43.00294" lon="0.84903">
        <ele>842</ele>
        <time>2016-12-03T13:53:31.008Z</time>
      </trkpt>
      <trkpt lat="43.00289" lon="0.849">
        <ele>843</ele>
        <time>2016-12-03T13:53:40.008Z</time>
      </trkpt>
      <trkpt lat="43.00283" lon="0.84905">
        <ele>842</ele>
        <time>2016-12-03T13:53:44.008Z</time>
      </trkpt>
      <trkpt lat="43.00277" lon="0.84909">
        <ele>842</ele>
        <time>2016-12-03T13:53:47.008Z</time>
      </trkpt>
      <trkpt lat="43.00271" lon="0.84914">
        <ele>842</ele>
        <time>2016-12-03T13:53:50.008Z</time>
      </trkpt>
      <trkpt lat="43.00264" lon="0.84916">
        <ele>842</ele>
        <time>2016-12-03T13:53:52.008Z</time>
      </trkpt>
      <trkpt lat="43.00257" lon="0.84919">
        <ele>842</ele>
        <time>2016-12-03T13:53:54.008Z</time>
      </trkpt>
      <trkpt lat="43.00248" lon="0.84921">
        <ele>842</ele>
        <time>2016-12-03T13:53:56.008Z</time>
      </trkpt>
      <trkpt lat="43.00238" lon="0.84921">
        <ele>842</ele>
        <time>2016-12-03T13:53:58.008Z</time>
      </trkpt>
      <trkpt lat="43.00227" lon="0.8492">
        <ele>842</ele>
        <time>2016-12-03T13:54:00.008Z</time>
      </trkpt>
      <trkpt lat="43.00213" lon="0.84915">
        <ele>838</ele>
        <time>2016-12-03T13:54:02.008Z</time>
      </trkpt>
      <trkpt lat="43.00198" lon="0.84908">
        <ele>838</ele>
        <time>2016-12-03T13:54:04.008Z</time>
      </trkpt>
      <trkpt lat="43.00183" lon="0.84896">
        <ele>837.30400389125</ele>
        <time>2016-12-03T13:54:06.008Z</time>
      </trkpt>
      <trkpt lat="43.00169" lon="0.84888">
        <ele>836</ele>
        <time>2016-12-03T13:54:08.008Z</time>
      </trkpt>
      <trkpt lat="43.00153" lon="0.84884">
        <ele>836</ele>
        <time>2016-12-03T13:54:10.008Z</time>
      </trkpt>
      <trkpt lat="43.00138" lon="0.84884">
        <ele>833</ele>
        <time>2016-12-03T13:54:12.008Z</time>
      </trkpt>
      <trkpt lat="43.00123" lon="0.84885">
        <ele>833</ele>
        <time>2016-12-03T13:54:14.008Z</time>
      </trkpt>
      <trkpt lat="43.00107" lon="0.84884">
        <ele>832.30400389125</ele>
        <time>2016-12-03T13:54:16.008Z</time>
      </trkpt>
      <trkpt lat="43.00091" lon="0.84882">
        <ele>831</ele>
        <time>2016-12-03T13:54:18.008Z</time>
      </trkpt>
      <trkpt lat="43.00077" lon="0.84882">
        <ele>831</ele>
        <time>2016-12-03T13:54:20.008Z</time>
      </trkpt>
      <trkpt lat="43.00063" lon="0.84884">
        <ele>831</ele>
        <time>2016-12-03T13:54:22.008Z</time>
      </trkpt>
      <trkpt lat="43.0005" lon="0.84886">
        <ele>831</ele>
        <time>2016-12-03T13:54:24.008Z</time>
      </trkpt>
      <trkpt lat="43.00036" lon="0.84888">
        <ele>830.30400389125</ele>
        <time>2016-12-03T13:54:26.008Z</time>
      </trkpt>
      <trkpt lat="43.00024" lon="0.8489">
        <ele>829</ele>
        <time>2016-12-03T13:54:28.008Z</time>
      </trkpt>
      <trkpt lat="43.00012" lon="0.8489">
        <ele>829</ele>
        <time>2016-12-03T13:54:30.008Z</time>
      </trkpt>
      <trkpt lat="43" lon="0.84891">
        <ele>828</ele>
        <time>2016-12-03T13:54:32.008Z</time>
      </trkpt>
      <trkpt lat="42.99989" lon="0.84889">
        <ele>828</ele>
        <time>2016-12-03T13:54:34.008Z</time>
      </trkpt>
      <trkpt lat="42.99976" lon="0.84887">
        <ele>827.65200194562</ele>
        <time>2016-12-03T13:54:36.008Z</time>
      </trkpt>
      <trkpt lat="42.99964" lon="0.84884">
        <ele>827</ele>
        <time>2016-12-03T13:54:38.008Z</time>
      </trkpt>
      <trkpt lat="42.99951" lon="0.84883">
        <ele>827</ele>
        <time>2016-12-03T13:54:40.008Z</time>
      </trkpt>
      <trkpt lat="42.99938" lon="0.8488">
        <ele>824</ele>
        <time>2016-12-03T13:54:42.008Z</time>
      </trkpt>
      <trkpt lat="42.99924" lon="0.84876">
        <ele>824</ele>
        <time>2016-12-03T13:54:44.008Z</time>
      </trkpt>
      <trkpt lat="42.99911" lon="0.84873">
        <ele>823.65200194562</ele>
        <time>2016-12-03T13:54:46.008Z</time>
      </trkpt>
      <trkpt lat="42.999" lon="0.8487">
        <ele>823</ele>
        <time>2016-12-03T13:54:48.008Z</time>
      </trkpt>
      <trkpt lat="42.99889" lon="0.84867">
        <ele>823</ele>
        <time>2016-12-03T13:54:50.008Z</time>
      </trkpt>
      <trkpt lat="42.99876" lon="0.84866">
        <ele>823</ele>
        <time>2016-12-03T13:54:52.008Z</time>
      </trkpt>
      <trkpt lat="42.99864" lon="0.84864">
        <ele>823</ele>
        <time>2016-12-03T13:54:54.008Z</time>
      </trkpt>
      <trkpt lat="42.99853" lon="0.8486">
        <ele>823</ele>
        <time>2016-12-03T13:54:56.008Z</time>
      </trkpt>
      <trkpt lat="42.99841" lon="0.84856">
        <ele>823</ele>
        <time>2016-12-03T13:54:58.008Z</time>
      </trkpt>
      <trkpt lat="42.99831" lon="0.84853">
        <ele>823</ele>
        <time>2016-12-03T13:55:00.008Z</time>
      </trkpt>
      <trkpt lat="42.99821" lon="0.8485">
        <ele>821</ele>
        <time>2016-12-03T13:55:02.008Z</time>
      </trkpt>
      <trkpt lat="42.99808" lon="0.84845">
        <ele>821</ele>
        <time>2016-12-03T13:55:05.008Z</time>
      </trkpt>
      <trkpt lat="42.99797" lon="0.8484">
        <ele>821</ele>
        <time>2016-12-03T13:55:08.008Z</time>
      </trkpt>
      <trkpt lat="42.99786" lon="0.84835">
        <ele>821</ele>
        <time>2016-12-03T13:55:11.008Z</time>
      </trkpt>
      <trkpt lat="42.99773" lon="0.84831">
        <ele>821</ele>
        <time>2016-12-03T13:55:14.008Z</time>
      </trkpt>
      <trkpt lat="42.99764" lon="0.84827">
        <ele>821</ele>
        <time>2016-12-03T13:55:16.008Z</time>
      </trkpt>
      <trkpt lat="42.99755" lon="0.84823">
        <ele>821</ele>
        <time>2016-12-03T13:55:18.008Z</time>
      </trkpt>
      <trkpt lat="42.99748" lon="0.84818">
        <ele>821</ele>
        <time>2016-12-03T13:55:20.008Z</time>
      </trkpt>
      <trkpt lat="42.99741" lon="0.84812">
        <ele>821</ele>
        <time>2016-12-03T13:55:22.008Z</time>
      </trkpt>
      <trkpt lat="42.99731" lon="0.84805">
        <ele>821</ele>
        <time>2016-12-03T13:55:24.008Z</time>
      </trkpt>
      <trkpt lat="42.99718" lon="0.84798">
        <ele>821</ele>
        <time>2016-12-03T13:55:26.008Z</time>
      </trkpt>
      <trkpt lat="42.99707" lon="0.8479">
        <ele>821</ele>
        <time>2016-12-03T13:55:28.008Z</time>
      </trkpt>
      <trkpt lat="42.99694" lon="0.84782">
        <ele>821</ele>
        <time>2016-12-03T13:55:30.008Z</time>
      </trkpt>
      <trkpt lat="42.9968" lon="0.84778">
        <ele>818</ele>
        <time>2016-12-03T13:55:32.008Z</time>
      </trkpt>
      <trkpt lat="42.99667" lon="0.84779">
        <ele>818</ele>
        <time>2016-12-03T13:55:34.008Z</time>
      </trkpt>
      <trkpt lat="42.99654" lon="0.84781">
        <ele>816.97575734068</ele>
        <time>2016-12-03T13:55:36.008Z</time>
      </trkpt>
      <trkpt lat="42.99645" lon="0.84772">
        <ele>815</ele>
        <time>2016-12-03T13:55:38.008Z</time>
      </trkpt>
      <trkpt lat="42.99642" lon="0.84757">
        <ele>815</ele>
        <time>2016-12-03T13:55:40.008Z</time>
      </trkpt>
      <trkpt lat="42.99651" lon="0.84748">
        <ele>814</ele>
        <time>2016-12-03T13:55:43.008Z</time>
      </trkpt>
      <trkpt lat="42.99664" lon="0.84746">
        <ele>814</ele>
        <time>2016-12-03T13:55:46.008Z</time>
      </trkpt>
      <trkpt lat="42.99675" lon="0.84742">
        <ele>814</ele>
        <time>2016-12-03T13:55:49.008Z</time>
      </trkpt>
      <trkpt lat="42.99686" lon="0.84736">
        <ele>814</ele>
        <time>2016-12-03T13:55:52.008Z</time>
      </trkpt>
      <trkpt lat="42.99697" lon="0.84729">
        <ele>814</ele>
        <time>2016-12-03T13:55:55.008Z</time>
      </trkpt>
      <trkpt lat="42.99706" lon="0.84721">
        <ele>814</ele>
        <time>2016-12-03T13:55:57.008Z</time>
      </trkpt>
      <trkpt lat="42.99714" lon="0.84713">
        <ele>814</ele>
        <time>2016-12-03T13:55:59.008Z</time>
      </trkpt>
      <trkpt lat="42.99728" lon="0.84704">
        <ele>813</ele>
        <time>2016-12-03T13:56:02.008Z</time>
      </trkpt>
      <trkpt lat="42.99738" lon="0.84696">
        <ele>813</ele>
        <time>2016-12-03T13:56:04.008Z</time>
      </trkpt>
      <trkpt lat="42.9975" lon="0.84691">
        <ele>813</ele>
        <time>2016-12-03T13:56:06.008Z</time>
      </trkpt>
      <trkpt lat="42.99763" lon="0.84685">
        <ele>813</ele>
        <time>2016-12-03T13:56:08.008Z</time>
      </trkpt>
      <trkpt lat="42.99777" lon="0.84681">
        <ele>813</ele>
        <time>2016-12-03T13:56:10.008Z</time>
      </trkpt>
      <trkpt lat="42.9979" lon="0.8468">
        <ele>811</ele>
        <time>2016-12-03T13:56:12.008Z</time>
      </trkpt>
      <trkpt lat="42.99801" lon="0.8468">
        <ele>811</ele>
        <time>2016-12-03T13:56:14.008Z</time>
      </trkpt>
      <trkpt lat="42.99811" lon="0.84673">
        <ele>811</ele>
        <time>2016-12-03T13:56:16.008Z</time>
      </trkpt>
      <trkpt lat="42.99822" lon="0.84661">
        <ele>811</ele>
        <time>2016-12-03T13:56:19.008Z</time>
      </trkpt>
      <trkpt lat="42.99828" lon="0.84647">
        <ele>812</ele>
        <time>2016-12-03T13:56:22.008Z</time>
      </trkpt>
      <trkpt lat="42.99834" lon="0.84634">
        <ele>812</ele>
        <time>2016-12-03T13:56:25.008Z</time>
      </trkpt>
      <trkpt lat="42.99839" lon="0.84622">
        <ele>812</ele>
        <time>2016-12-03T13:56:28.008Z</time>
      </trkpt>
      <trkpt lat="42.99846" lon="0.84608">
        <ele>814</ele>
        <time>2016-12-03T13:56:32.008Z</time>
      </trkpt>
      <trkpt lat="42.99851" lon="0.84598">
        <ele>814</ele>
        <time>2016-12-03T13:56:35.008Z</time>
      </trkpt>
      <trkpt lat="42.99854" lon="0.84591">
        <ele>814</ele>
        <time>2016-12-03T13:56:37.008Z</time>
      </trkpt>
      <trkpt lat="42.99856" lon="0.84585">
        <ele>814</ele>
        <time>2016-12-03T13:56:39.008Z</time>
      </trkpt>
      <trkpt lat="42.9986" lon="0.84579">
        <ele>814.34800194557</ele>
        <time>2016-12-03T13:56:41.008Z</time>
      </trkpt>
      <trkpt lat="42.99865" lon="0.84569">
        <ele>815</ele>
        <time>2016-12-03T13:56:44.008Z</time>
      </trkpt>
      <trkpt lat="42.99869" lon="0.84559">
        <ele>815</ele>
        <time>2016-12-03T13:56:47.008Z</time>
      </trkpt>
      <trkpt lat="42.99874" lon="0.84548">
        <ele>815</ele>
        <time>2016-12-03T13:56:50.008Z</time>
      </trkpt>
      <trkpt lat="42.99879" lon="0.84538">
        <ele>817</ele>
        <time>2016-12-03T13:56:53.008Z</time>
      </trkpt>
      <trkpt lat="42.99882" lon="0.84531">
        <ele>817</ele>
        <time>2016-12-03T13:56:55.008Z</time>
      </trkpt>
      <trkpt lat="42.99886" lon="0.84524">
        <ele>817</ele>
        <time>2016-12-03T13:56:57.008Z</time>
      </trkpt>
      <trkpt lat="42.9989" lon="0.84517">
        <ele>817</ele>
        <time>2016-12-03T13:56:59.008Z</time>
      </trkpt>
      <trkpt lat="42.99893" lon="0.8451">
        <ele>817.69600389115</ele>
        <time>2016-12-03T13:57:01.008Z</time>
      </trkpt>
      <trkpt lat="42.99897" lon="0.84503">
        <ele>819</ele>
        <time>2016-12-03T13:57:03.008Z</time>
      </trkpt>
      <trkpt lat="42.999" lon="0.84496">
        <ele>819</ele>
        <time>2016-12-03T13:57:05.008Z</time>
      </trkpt>
      <trkpt lat="42.99904" lon="0.84489">
        <ele>819</ele>
        <time>2016-12-03T13:57:07.008Z</time>
      </trkpt>
      <trkpt lat="42.99907" lon="0.84483">
        <ele>819</ele>
        <time>2016-12-03T13:57:09.008Z</time>
      </trkpt>
      <trkpt lat="42.99911" lon="0.84477">
        <ele>819.69600389115</ele>
        <time>2016-12-03T13:57:11.008Z</time>
      </trkpt>
      <trkpt lat="42.99915" lon="0.8447">
        <ele>821</ele>
        <time>2016-12-03T13:57:13.008Z</time>
      </trkpt>
      <trkpt lat="42.99919" lon="0.84465">
        <ele>821</ele>
        <time>2016-12-03T13:57:15.008Z</time>
      </trkpt>
      <trkpt lat="42.99923" lon="0.84458">
        <ele>821</ele>
        <time>2016-12-03T13:57:17.008Z</time>
      </trkpt>
      <trkpt lat="42.99926" lon="0.84451">
        <ele>821</ele>
        <time>2016-12-03T13:57:19.008Z</time>
      </trkpt>
      <trkpt lat="42.9993" lon="0.8444">
        <ele>823</ele>
        <time>2016-12-03T13:57:22.008Z</time>
      </trkpt>
      <trkpt lat="42.99932" lon="0.84432">
        <ele>823</ele>
        <time>2016-12-03T13:57:24.008Z</time>
      </trkpt>
      <trkpt lat="42.99935" lon="0.8442">
        <ele>825</ele>
        <time>2016-12-03T13:57:27.008Z</time>
      </trkpt>
      <trkpt lat="42.9994" lon="0.84409">
        <ele>825</ele>
        <time>2016-12-03T13:57:30.008Z</time>
      </trkpt>
      <trkpt lat="42.99942" lon="0.84401">
        <ele>825</ele>
        <time>2016-12-03T13:57:32.008Z</time>
      </trkpt>
      <trkpt lat="42.99945" lon="0.84393">
        <ele>825</ele>
        <time>2016-12-03T13:57:34.008Z</time>
      </trkpt>
      <trkpt lat="42.99948" lon="0.84382">
        <ele>825</ele>
        <time>2016-12-03T13:57:37.008Z</time>
      </trkpt>
      <trkpt lat="42.99952" lon="0.8437">
        <ele>825</ele>
        <time>2016-12-03T13:57:40.008Z</time>
      </trkpt>
      <trkpt lat="42.99955" lon="0.84359">
        <ele>826</ele>
        <time>2016-12-03T13:57:43.008Z</time>
      </trkpt>
      <trkpt lat="42.99958" lon="0.84347">
        <ele>826</ele>
        <time>2016-12-03T13:57:46.008Z</time>
      </trkpt>
      <trkpt lat="42.99959" lon="0.84338">
        <ele>826</ele>
        <time>2016-12-03T13:57:48.008Z</time>
      </trkpt>
      <trkpt lat="42.99957" lon="0.84326">
        <ele>826.34800194557</ele>
        <time>2016-12-03T13:57:51.008Z</time>
      </trkpt>
      <trkpt lat="42.99954" lon="0.8432">
        <ele>827</ele>
        <time>2016-12-03T13:57:53.008Z</time>
      </trkpt>
      <trkpt lat="42.99949" lon="0.84313">
        <ele>827</ele>
        <time>2016-12-03T13:57:55.008Z</time>
      </trkpt>
      <trkpt lat="42.99944" lon="0.84308">
        <ele>827</ele>
        <time>2016-12-03T13:57:57.008Z</time>
      </trkpt>
      <trkpt lat="42.99937" lon="0.84305">
        <ele>827</ele>
        <time>2016-12-03T13:57:59.008Z</time>
      </trkpt>
      <trkpt lat="42.99929" lon="0.84302">
        <ele>826.65199805443</ele>
        <time>2016-12-03T13:58:01.008Z</time>
      </trkpt>
      <trkpt lat="42.99919" lon="0.843">
        <ele>826</ele>
        <time>2016-12-03T13:58:03.008Z</time>
      </trkpt>
      <trkpt lat="42.99909" lon="0.84298">
        <ele>826</ele>
        <time>2016-12-03T13:58:05.008Z</time>
      </trkpt>
      <trkpt lat="42.99898" lon="0.84295">
        <ele>826</ele>
        <time>2016-12-03T13:58:07.008Z</time>
      </trkpt>
      <trkpt lat="42.99886" lon="0.84294">
        <ele>826</ele>
        <time>2016-12-03T13:58:09.008Z</time>
      </trkpt>
      <trkpt lat="42.99876" lon="0.84294">
        <ele>825.31718038891</ele>
        <time>2016-12-03T13:58:11.008Z</time>
      </trkpt>
      <trkpt lat="42.99864" lon="0.84294">
        <ele>824</ele>
        <time>2016-12-03T13:58:13.008Z</time>
      </trkpt>
      <trkpt lat="42.99858" lon="0.84294">
        <ele>824</ele>
        <time>2016-12-03T13:58:14.008Z</time>
      </trkpt>
      <trkpt lat="42.99845" lon="0.84294">
        <ele>824</ele>
        <time>2016-12-03T13:58:16.008Z</time>
      </trkpt>
      <trkpt lat="42.99838" lon="0.84294">
        <ele>824</ele>
        <time>2016-12-03T13:58:17.008Z</time>
      </trkpt>
      <trkpt lat="42.99831" lon="0.84294">
        <ele>824</ele>
        <time>2016-12-03T13:58:18.008Z</time>
      </trkpt>
      <trkpt lat="42.99824" lon="0.84292">
        <ele>824</ele>
        <time>2016-12-03T13:58:19.008Z</time>
      </trkpt>
      <trkpt lat="42.99816" lon="0.84288">
        <ele>824</ele>
        <time>2016-12-03T13:58:20.008Z</time>
      </trkpt>
      <trkpt lat="42.99803" lon="0.84281">
        <ele>822</ele>
        <time>2016-12-03T13:58:22.008Z</time>
      </trkpt>
      <trkpt lat="42.99787" lon="0.84275">
        <ele>822</ele>
        <time>2016-12-03T13:58:24.008Z</time>
      </trkpt>
      <trkpt lat="42.99773" lon="0.84266">
        <ele>820.95600583687</ele>
        <time>2016-12-03T13:58:26.008Z</time>
      </trkpt>
      <trkpt lat="42.9976" lon="0.84256">
        <ele>819</ele>
        <time>2016-12-03T13:58:28.008Z</time>
      </trkpt>
      <trkpt lat="42.9975" lon="0.84247">
        <ele>819</ele>
        <time>2016-12-03T13:58:30.008Z</time>
      </trkpt>
      <trkpt lat="42.99738" lon="0.84238">
        <ele>818</ele>
        <time>2016-12-03T13:58:33.008Z</time>
      </trkpt>
      <trkpt lat="42.99728" lon="0.84226">
        <ele>817.65200194562</ele>
        <time>2016-12-03T13:58:36.008Z</time>
      </trkpt>
      <trkpt lat="42.99721" lon="0.84215">
        <ele>817</ele>
        <time>2016-12-03T13:58:38.008Z</time>
      </trkpt>
      <trkpt lat="42.9972" lon="0.84196">
        <ele>816.30399610885</ele>
        <time>2016-12-03T13:58:41.008Z</time>
      </trkpt>
      <trkpt lat="42.99732" lon="0.84187">
        <ele>815</ele>
        <time>2016-12-03T13:58:45.008Z</time>
      </trkpt>
      <trkpt lat="42.99746" lon="0.84185">
        <ele>814</ele>
        <time>2016-12-03T13:58:48.008Z</time>
      </trkpt>
      <trkpt lat="42.99759" lon="0.84182">
        <ele>814.34800194557</ele>
        <time>2016-12-03T13:58:51.008Z</time>
      </trkpt>
      <trkpt lat="42.99771" lon="0.84177">
        <ele>815</ele>
        <time>2016-12-03T13:58:54.008Z</time>
      </trkpt>
      <trkpt lat="42.99781" lon="0.84168">
        <ele>815</ele>
        <time>2016-12-03T13:58:57.008Z</time>
      </trkpt>
      <trkpt lat="42.9979" lon="0.84158">
        <ele>815</ele>
        <time>2016-12-03T13:59:00.008Z</time>
      </trkpt>
      <trkpt lat="42.99798" lon="0.84145">
        <ele>819</ele>
        <time>2016-12-03T13:59:03.008Z</time>
      </trkpt>
      <trkpt lat="42.99804" lon="0.84129">
        <ele>819</ele>
        <time>2016-12-03T13:59:07.008Z</time>
      </trkpt>
      <trkpt lat="42.9981" lon="0.84115">
        <ele>819</ele>
        <time>2016-12-03T13:59:10.008Z</time>
      </trkpt>
      <trkpt lat="42.99817" lon="0.84103">
        <ele>821</ele>
        <time>2016-12-03T13:59:13.008Z</time>
      </trkpt>
      <trkpt lat="42.99823" lon="0.84091">
        <ele>821</ele>
        <time>2016-12-03T13:59:16.008Z</time>
      </trkpt>
      <trkpt lat="42.99831" lon="0.8408">
        <ele>821</ele>
        <time>2016-12-03T13:59:19.008Z</time>
      </trkpt>
      <trkpt lat="42.99835" lon="0.84072">
        <ele>821.68911503415</ele>
        <time>2016-12-03T13:59:21.008Z</time>
      </trkpt>
      <trkpt lat="42.99839" lon="0.84064">
        <ele>823</ele>
        <time>2016-12-03T13:59:23.008Z</time>
      </trkpt>
      <trkpt lat="42.99842" lon="0.84056">
        <ele>823</ele>
        <time>2016-12-03T13:59:25.008Z</time>
      </trkpt>
      <trkpt lat="42.99844" lon="0.84048">
        <ele>823</ele>
        <time>2016-12-03T13:59:27.008Z</time>
      </trkpt>
      <trkpt lat="42.99848" lon="0.84037">
        <ele>823</ele>
        <time>2016-12-03T13:59:30.008Z</time>
      </trkpt>
      <trkpt lat="42.9985" lon="0.84023">
        <ele>824</ele>
        <time>2016-12-03T13:59:33.008Z</time>
      </trkpt>
      <trkpt lat="42.99849" lon="0.84014">
        <ele>824</ele>
        <time>2016-12-03T13:59:35.008Z</time>
      </trkpt>
      <trkpt lat="42.9985" lon="0.84004">
        <ele>824</ele>
        <time>2016-12-03T13:59:37.008Z</time>
      </trkpt>
      <trkpt lat="42.99859" lon="0.83994">
        <ele>824.34800194557</ele>
        <time>2016-12-03T13:59:41.008Z</time>
      </trkpt>
      <trkpt lat="42.9987" lon="0.83994">
        <ele>825</ele>
        <time>2016-12-03T13:59:44.008Z</time>
      </trkpt>
      <trkpt lat="42.99882" lon="0.83991">
        <ele>825</ele>
        <time>2016-12-03T13:59:48.008Z</time>
      </trkpt>
      <trkpt lat="42.9989" lon="0.83986">
        <ele>825.34800194557</ele>
        <time>2016-12-03T13:59:51.008Z</time>
      </trkpt>
      <trkpt lat="42.99896" lon="0.83982">
        <ele>826</ele>
        <time>2016-12-03T13:59:53.008Z</time>
      </trkpt>
      <trkpt lat="42.99905" lon="0.83976">
        <ele>826</ele>
        <time>2016-12-03T13:59:56.008Z</time>
      </trkpt>
      <trkpt lat="42.99911" lon="0.8397">
        <ele>826</ele>
        <time>2016-12-03T13:59:58.008Z</time>
      </trkpt>
      <trkpt lat="42.99916" lon="0.83963">
        <ele>826</ele>
        <time>2016-12-03T14:00:00.008Z</time>
      </trkpt>
      <trkpt lat="42.99922" lon="0.83952">
        <ele>828</ele>
        <time>2016-12-03T14:00:03.008Z</time>
      </trkpt>
      <trkpt lat="42.99926" lon="0.83945">
        <ele>828</ele>
        <time>2016-12-03T14:00:05.008Z</time>
      </trkpt>
      <trkpt lat="42.9993" lon="0.83934">
        <ele>828</ele>
        <time>2016-12-03T14:00:08.008Z</time>
      </trkpt>
      <trkpt lat="42.99935" lon="0.83925">
        <ele>828.69600389115</ele>
        <time>2016-12-03T14:00:11.008Z</time>
      </trkpt>
      <trkpt lat="42.99941" lon="0.83914">
        <ele>830</ele>
        <time>2016-12-03T14:00:14.008Z</time>
      </trkpt>
      <trkpt lat="42.99948" lon="0.83907">
        <ele>830</ele>
        <time>2016-12-03T14:00:17.008Z</time>
      </trkpt>
      <trkpt lat="42.99955" lon="0.83903">
        <ele>830</ele>
        <time>2016-12-03T14:00:19.008Z</time>
      </trkpt>
      <trkpt lat="42.99962" lon="0.839">
        <ele>830.34800194557</ele>
        <time>2016-12-03T14:00:21.008Z</time>
      </trkpt>
      <trkpt lat="42.99969" lon="0.83898">
        <ele>831</ele>
        <time>2016-12-03T14:00:23.008Z</time>
      </trkpt>
      <trkpt lat="42.99976" lon="0.83895">
        <ele>831</ele>
        <time>2016-12-03T14:00:25.008Z</time>
      </trkpt>
      <trkpt lat="42.99982" lon="0.83892">
        <ele>831</ele>
        <time>2016-12-03T14:00:27.008Z</time>
      </trkpt>
      <trkpt lat="42.99988" lon="0.83889">
        <ele>831</ele>
        <time>2016-12-03T14:00:29.008Z</time>
      </trkpt>
      <trkpt lat="42.99994" lon="0.83885">
        <ele>831.34800194557</ele>
        <time>2016-12-03T14:00:31.008Z</time>
      </trkpt>
      <trkpt lat="43" lon="0.83879">
        <ele>832</ele>
        <time>2016-12-03T14:00:33.008Z</time>
      </trkpt>
      <trkpt lat="43.00005" lon="0.83873">
        <ele>832</ele>
        <time>2016-12-03T14:00:35.008Z</time>
      </trkpt>
      <trkpt lat="43.00009" lon="0.83866">
        <ele>832</ele>
        <time>2016-12-03T14:00:37.008Z</time>
      </trkpt>
      <trkpt lat="43.00014" lon="0.83859">
        <ele>832</ele>
        <time>2016-12-03T14:00:39.008Z</time>
      </trkpt>
      <trkpt lat="43.00018" lon="0.83852">
        <ele>832.34800194557</ele>
        <time>2016-12-03T14:00:41.008Z</time>
      </trkpt>
      <trkpt lat="43.00023" lon="0.83845">
        <ele>833</ele>
        <time>2016-12-03T14:00:43.008Z</time>
      </trkpt>
      <trkpt lat="43.00027" lon="0.83837">
        <ele>833</ele>
        <time>2016-12-03T14:00:45.008Z</time>
      </trkpt>
      <trkpt lat="43.00029" lon="0.83832">
        <ele>833</ele>
        <time>2016-12-03T14:00:46.008Z</time>
      </trkpt>
      <trkpt lat="43.0003" lon="0.83827">
        <ele>833</ele>
        <time>2016-12-03T14:00:47.008Z</time>
      </trkpt>
      <trkpt lat="43.00032" lon="0.83822">
        <ele>833</ele>
        <time>2016-12-03T14:00:48.008Z</time>
      </trkpt>
      <trkpt lat="43.00033" lon="0.83816">
        <ele>833</ele>
        <time>2016-12-03T14:00:49.008Z</time>
      </trkpt>
      <trkpt lat="43.00034" lon="0.8381">
        <ele>833</ele>
        <time>2016-12-03T14:00:50.008Z</time>
      </trkpt>
      <trkpt lat="43.00035" lon="0.83804">
        <ele>833</ele>
        <time>2016-12-03T14:00:51.008Z</time>
      </trkpt>
      <trkpt lat="43.00035" lon="0.83798">
        <ele>833</ele>
        <time>2016-12-03T14:00:52.008Z</time>
      </trkpt>
      <trkpt lat="43.00034" lon="0.83792">
        <ele>833</ele>
        <time>2016-12-03T14:00:53.008Z</time>
      </trkpt>
      <trkpt lat="43.00033" lon="0.83786">
        <ele>833</ele>
        <time>2016-12-03T14:00:54.008Z</time>
      </trkpt>
      <trkpt lat="43.00028" lon="0.83773">
        <ele>833</ele>
        <time>2016-12-03T14:00:56.008Z</time>
      </trkpt>
      <trkpt lat="43.00025" lon="0.83767">
        <ele>833</ele>
        <time>2016-12-03T14:00:57.008Z</time>
      </trkpt>
      <trkpt lat="43.00019" lon="0.83752">
        <ele>833</ele>
        <time>2016-12-03T14:00:59.008Z</time>
      </trkpt>
      <trkpt lat="43.00016" lon="0.83743">
        <ele>833</ele>
        <time>2016-12-03T14:01:00.008Z</time>
      </trkpt>
      <trkpt lat="43.00014" lon="0.83733">
        <ele>831.6079922177</ele>
        <time>2016-12-03T14:01:01.008Z</time>
      </trkpt>
      <trkpt lat="43.00012" lon="0.83724">
        <ele>829</ele>
        <time>2016-12-03T14:01:02.008Z</time>
      </trkpt>
      <trkpt lat="43.0001" lon="0.83713">
        <ele>829</ele>
        <time>2016-12-03T14:01:03.008Z</time>
      </trkpt>
      <trkpt lat="43.00008" lon="0.83702">
        <ele>829</ele>
        <time>2016-12-03T14:01:04.008Z</time>
      </trkpt>
      <trkpt lat="43.00006" lon="0.83692">
        <ele>829</ele>
        <time>2016-12-03T14:01:05.008Z</time>
      </trkpt>
      <trkpt lat="43.00004" lon="0.83681">
        <ele>828.65200194562</ele>
        <time>2016-12-03T14:01:06.008Z</time>
      </trkpt>
      <trkpt lat="43.00003" lon="0.8367">
        <ele>828</ele>
        <time>2016-12-03T14:01:07.008Z</time>
      </trkpt>
      <trkpt lat="43.00002" lon="0.83659">
        <ele>828</ele>
        <time>2016-12-03T14:01:08.008Z</time>
      </trkpt>
      <trkpt lat="43.00002" lon="0.83648">
        <ele>828</ele>
        <time>2016-12-03T14:01:09.008Z</time>
      </trkpt>
      <trkpt lat="43.00002" lon="0.83638">
        <ele>828</ele>
        <time>2016-12-03T14:01:10.008Z</time>
      </trkpt>
      <trkpt lat="43.00006" lon="0.83617">
        <ele>824</ele>
        <time>2016-12-03T14:01:12.008Z</time>
      </trkpt>
      <trkpt lat="43.00013" lon="0.83601">
        <ele>824</ele>
        <time>2016-12-03T14:01:14.008Z</time>
      </trkpt>
      <trkpt lat="43.00028" lon="0.83587">
        <ele>822.95600583687</ele>
        <time>2016-12-03T14:01:16.008Z</time>
      </trkpt>
      <trkpt lat="43.0004" lon="0.83569">
        <ele>821</ele>
        <time>2016-12-03T14:01:18.008Z</time>
      </trkpt>
      <trkpt lat="43.00049" lon="0.83548">
        <ele>821</ele>
        <time>2016-12-03T14:01:20.008Z</time>
      </trkpt>
      <trkpt lat="43.00054" lon="0.83538">
        <ele>820.30399610885</ele>
        <time>2016-12-03T14:01:21.008Z</time>
      </trkpt>
      <trkpt lat="43.00058" lon="0.83527">
        <ele>818.65200194562</ele>
        <time>2016-12-03T14:01:22.008Z</time>
      </trkpt>
      <trkpt lat="43.00062" lon="0.83517">
        <ele>817.65199805443</ele>
        <time>2016-12-03T14:01:23.008Z</time>
      </trkpt>
      <trkpt lat="43.00066" lon="0.83507">
        <ele>817</ele>
        <time>2016-12-03T14:01:24.008Z</time>
      </trkpt>
      <trkpt lat="43.0007" lon="0.83497">
        <ele>816.65544248292</ele>
        <time>2016-12-03T14:01:25.008Z</time>
      </trkpt>
      <trkpt lat="43.00075" lon="0.83488">
        <ele>816</ele>
        <time>2016-12-03T14:01:26.008Z</time>
      </trkpt>
      <trkpt lat="43.00081" lon="0.83481">
        <ele>815.65199805443</ele>
        <time>2016-12-03T14:01:27.008Z</time>
      </trkpt>
      <trkpt lat="43.00088" lon="0.83475">
        <ele>815</ele>
        <time>2016-12-03T14:01:28.008Z</time>
      </trkpt>
      <trkpt lat="43.00095" lon="0.8347">
        <ele>815</ele>
        <time>2016-12-03T14:01:29.008Z</time>
      </trkpt>
      <trkpt lat="43.00101" lon="0.83463">
        <ele>814.65200194562</ele>
        <time>2016-12-03T14:01:30.008Z</time>
      </trkpt>
      <trkpt lat="43.00106" lon="0.83455">
        <ele>813.65199805443</ele>
        <time>2016-12-03T14:01:31.008Z</time>
      </trkpt>
      <trkpt lat="43.0011" lon="0.83446">
        <ele>813</ele>
        <time>2016-12-03T14:01:32.008Z</time>
      </trkpt>
      <trkpt lat="43.00115" lon="0.83436">
        <ele>813</ele>
        <time>2016-12-03T14:01:33.008Z</time>
      </trkpt>
      <trkpt lat="43.00118" lon="0.83426">
        <ele>813</ele>
        <time>2016-12-03T14:01:34.008Z</time>
      </trkpt>
      <trkpt lat="43.0012" lon="0.83417">
        <ele>812.65199805443</ele>
        <time>2016-12-03T14:01:35.008Z</time>
      </trkpt>
      <trkpt lat="43.00122" lon="0.83407">
        <ele>812</ele>
        <time>2016-12-03T14:01:36.008Z</time>
      </trkpt>
      <trkpt lat="43.00125" lon="0.83398">
        <ele>812</ele>
        <time>2016-12-03T14:01:37.008Z</time>
      </trkpt>
      <trkpt lat="43.00127" lon="0.83389">
        <ele>811.65200194562</ele>
        <time>2016-12-03T14:01:38.008Z</time>
      </trkpt>
      <trkpt lat="43.0013" lon="0.8338">
        <ele>811</ele>
        <time>2016-12-03T14:01:39.008Z</time>
      </trkpt>
      <trkpt lat="43.00132" lon="0.83372">
        <ele>811</ele>
        <time>2016-12-03T14:01:40.008Z</time>
      </trkpt>
      <trkpt lat="43.00135" lon="0.83364">
        <ele>811</ele>
        <time>2016-12-03T14:01:41.008Z</time>
      </trkpt>
      <trkpt lat="43.00137" lon="0.83356">
        <ele>811</ele>
        <time>2016-12-03T14:01:42.008Z</time>
      </trkpt>
      <trkpt lat="43.0014" lon="0.83346">
        <ele>811</ele>
        <time>2016-12-03T14:01:43.008Z</time>
      </trkpt>
      <trkpt lat="43.00146" lon="0.83328">
        <ele>811</ele>
        <time>2016-12-03T14:01:45.008Z</time>
      </trkpt>
      <trkpt lat="43.00149" lon="0.83319">
        <ele>811</ele>
        <time>2016-12-03T14:01:46.008Z</time>
      </trkpt>
      <trkpt lat="43.00153" lon="0.8331">
        <ele>811</ele>
        <time>2016-12-03T14:01:47.008Z</time>
      </trkpt>
      <trkpt lat="43.00157" lon="0.83301">
        <ele>811</ele>
        <time>2016-12-03T14:01:48.008Z</time>
      </trkpt>
      <trkpt lat="43.00161" lon="0.83292">
        <ele>811</ele>
        <time>2016-12-03T14:01:49.008Z</time>
      </trkpt>
      <trkpt lat="43.00165" lon="0.83283">
        <ele>811</ele>
        <time>2016-12-03T14:01:50.008Z</time>
      </trkpt>
      <trkpt lat="43.00169" lon="0.83273">
        <ele>809.6079922177</ele>
        <time>2016-12-03T14:01:51.008Z</time>
      </trkpt>
      <trkpt lat="43.00173" lon="0.83264">
        <ele>807</ele>
        <time>2016-12-03T14:01:52.008Z</time>
      </trkpt>
      <trkpt lat="43.00178" lon="0.83255">
        <ele>807</ele>
        <time>2016-12-03T14:01:53.008Z</time>
      </trkpt>
      <trkpt lat="43.00183" lon="0.83245">
        <ele>807</ele>
        <time>2016-12-03T14:01:54.008Z</time>
      </trkpt>
      <trkpt lat="43.00187" lon="0.83236">
        <ele>807</ele>
        <time>2016-12-03T14:01:55.008Z</time>
      </trkpt>
      <trkpt lat="43.00191" lon="0.83226">
        <ele>805.6080077825</ele>
        <time>2016-12-03T14:01:56.008Z</time>
      </trkpt>
      <trkpt lat="43.00195" lon="0.83218">
        <ele>803</ele>
        <time>2016-12-03T14:01:57.008Z</time>
      </trkpt>
      <trkpt lat="43.002" lon="0.8321">
        <ele>803</ele>
        <time>2016-12-03T14:01:58.008Z</time>
      </trkpt>
      <trkpt lat="43.00206" lon="0.83203">
        <ele>803</ele>
        <time>2016-12-03T14:01:59.008Z</time>
      </trkpt>
      <trkpt lat="43.00218" lon="0.83192">
        <ele>801.25999027212</ele>
        <time>2016-12-03T14:02:01.008Z</time>
      </trkpt>
      <trkpt lat="43.00231" lon="0.83185">
        <ele>797.65544248292</ele>
        <time>2016-12-03T14:02:03.008Z</time>
      </trkpt>
      <trkpt lat="43.00239" lon="0.83181">
        <ele>797</ele>
        <time>2016-12-03T14:02:04.008Z</time>
      </trkpt>
      <trkpt lat="43.00246" lon="0.83176">
        <ele>796.30399610885</ele>
        <time>2016-12-03T14:02:05.008Z</time>
      </trkpt>
      <trkpt lat="43.00251" lon="0.8317">
        <ele>794.65200194562</ele>
        <time>2016-12-03T14:02:06.008Z</time>
      </trkpt>
      <trkpt lat="43.00258" lon="0.83163">
        <ele>794</ele>
        <time>2016-12-03T14:02:07.008Z</time>
      </trkpt>
      <trkpt lat="43.00263" lon="0.83157">
        <ele>794</ele>
        <time>2016-12-03T14:02:08.008Z</time>
      </trkpt>
      <trkpt lat="43.00274" lon="0.83147">
        <ele>792.30400389125</ele>
        <time>2016-12-03T14:02:10.008Z</time>
      </trkpt>
      <trkpt lat="43.00284" lon="0.83137">
        <ele>790</ele>
        <time>2016-12-03T14:02:12.008Z</time>
      </trkpt>
      <trkpt lat="43.00294" lon="0.83124">
        <ele>788.65200194562</ele>
        <time>2016-12-03T14:02:14.008Z</time>
      </trkpt>
      <trkpt lat="43.00299" lon="0.83116">
        <ele>787.65199805443</ele>
        <time>2016-12-03T14:02:15.008Z</time>
      </trkpt>
      <trkpt lat="43.00304" lon="0.83108">
        <ele>787</ele>
        <time>2016-12-03T14:02:16.008Z</time>
      </trkpt>
      <trkpt lat="43.00308" lon="0.831">
        <ele>786.30399610885</ele>
        <time>2016-12-03T14:02:17.008Z</time>
      </trkpt>
      <trkpt lat="43.00312" lon="0.83092">
        <ele>784.65200194562</ele>
        <time>2016-12-03T14:02:18.008Z</time>
      </trkpt>
      <trkpt lat="43.00316" lon="0.83085">
        <ele>783.30399610885</ele>
        <time>2016-12-03T14:02:19.008Z</time>
      </trkpt>
      <trkpt lat="43.00319" lon="0.8308">
        <ele>781.65200194562</ele>
        <time>2016-12-03T14:02:20.008Z</time>
      </trkpt>
      <trkpt lat="43.00324" lon="0.83076">
        <ele>780.65199805443</ele>
        <time>2016-12-03T14:02:21.008Z</time>
      </trkpt>
      <trkpt lat="43.00332" lon="0.83079">
        <ele>779.65199805443</ele>
        <time>2016-12-03T14:02:23.008Z</time>
      </trkpt>
      <trkpt lat="43.0033" lon="0.83093">
        <ele>779</ele>
        <time>2016-12-03T14:02:25.008Z</time>
      </trkpt>
      <trkpt lat="43.0033" lon="0.83101">
        <ele>778.65200194562</ele>
        <time>2016-12-03T14:02:26.008Z</time>
      </trkpt>
      <trkpt lat="43.00329" lon="0.83108">
        <ele>778</ele>
        <time>2016-12-03T14:02:27.008Z</time>
      </trkpt>
      <trkpt lat="43.00328" lon="0.83116">
        <ele>778</ele>
        <time>2016-12-03T14:02:28.008Z</time>
      </trkpt>
      <trkpt lat="43.00327" lon="0.83125">
        <ele>778</ele>
        <time>2016-12-03T14:02:29.008Z</time>
      </trkpt>
      <trkpt lat="43.00327" lon="0.83134">
        <ele>778</ele>
        <time>2016-12-03T14:02:30.008Z</time>
      </trkpt>
      <trkpt lat="43.00326" lon="0.83144">
        <ele>777.65199805443</ele>
        <time>2016-12-03T14:02:31.008Z</time>
      </trkpt>
      <trkpt lat="43.00325" lon="0.83154">
        <ele>777</ele>
        <time>2016-12-03T14:02:32.008Z</time>
      </trkpt>
      <trkpt lat="43.00324" lon="0.83165">
        <ele>777</ele>
        <time>2016-12-03T14:02:33.008Z</time>
      </trkpt>
      <trkpt lat="43.00323" lon="0.83176">
        <ele>777</ele>
        <time>2016-12-03T14:02:34.008Z</time>
      </trkpt>
      <trkpt lat="43.00322" lon="0.83187">
        <ele>777</ele>
        <time>2016-12-03T14:02:35.008Z</time>
      </trkpt>
      <trkpt lat="43.0032" lon="0.83198">
        <ele>775.96635236864</ele>
        <time>2016-12-03T14:02:36.008Z</time>
      </trkpt>
      <trkpt lat="43.00319" lon="0.83208">
        <ele>774</ele>
        <time>2016-12-03T14:02:37.008Z</time>
      </trkpt>
      <trkpt lat="43.00316" lon="0.83216">
        <ele>774</ele>
        <time>2016-12-03T14:02:38.008Z</time>
      </trkpt>
      <trkpt lat="43.00308" lon="0.8323">
        <ele>774</ele>
        <time>2016-12-03T14:02:40.008Z</time>
      </trkpt>
      <trkpt lat="43.00298" lon="0.83242">
        <ele>768.30400389125</ele>
        <time>2016-12-03T14:02:42.008Z</time>
      </trkpt>
      <trkpt lat="43.00285" lon="0.83249">
        <ele>765.65200194562</ele>
        <time>2016-12-03T14:02:44.008Z</time>
      </trkpt>
      <trkpt lat="43.00277" lon="0.83252">
        <ele>764.65199805443</ele>
        <time>2016-12-03T14:02:45.008Z</time>
      </trkpt>
      <trkpt lat="43.00268" lon="0.83253">
        <ele>763.65200194562</ele>
        <time>2016-12-03T14:02:46.008Z</time>
      </trkpt>
      <trkpt lat="43.00261" lon="0.83256">
        <ele>762.65199805443</ele>
        <time>2016-12-03T14:02:47.008Z</time>
      </trkpt>
      <trkpt lat="43.00254" lon="0.83261">
        <ele>761.65200194562</ele>
        <time>2016-12-03T14:02:48.008Z</time>
      </trkpt>
      <trkpt lat="43.00246" lon="0.83273">
        <ele>761</ele>
        <time>2016-12-03T14:02:50.008Z</time>
      </trkpt>
      <trkpt lat="43.00242" lon="0.83289">
        <ele>760</ele>
        <time>2016-12-03T14:02:52.008Z</time>
      </trkpt>
      <trkpt lat="43.00241" lon="0.83309">
        <ele>758.65200194562</ele>
        <time>2016-12-03T14:02:54.008Z</time>
      </trkpt>
      <trkpt lat="43.00239" lon="0.83328">
        <ele>757</ele>
        <time>2016-12-03T14:02:56.008Z</time>
      </trkpt>
      <trkpt lat="43.00239" lon="0.83349">
        <ele>756.65200194562</ele>
        <time>2016-12-03T14:02:58.008Z</time>
      </trkpt>
      <trkpt lat="43.00236" lon="0.83368">
        <ele>754.65545078955</ele>
        <time>2016-12-03T14:03:00.008Z</time>
      </trkpt>
      <trkpt lat="43.00233" lon="0.83384">
        <ele>753</ele>
        <time>2016-12-03T14:03:02.008Z</time>
      </trkpt>
      <trkpt lat="43.00236" lon="0.83397">
        <ele>752</ele>
        <time>2016-12-03T14:03:05.008Z</time>
      </trkpt>
      <trkpt lat="43.00241" lon="0.8338">
        <ele>752</ele>
        <time>2016-12-03T14:03:08.008Z</time>
      </trkpt>
      <trkpt lat="43.00246" lon="0.83367">
        <ele>752</ele>
        <time>2016-12-03T14:03:10.008Z</time>
      </trkpt>
      <trkpt lat="43.0025" lon="0.83351">
        <ele>752</ele>
        <time>2016-12-03T14:03:12.008Z</time>
      </trkpt>
      <trkpt lat="43.00252" lon="0.83335">
        <ele>752</ele>
        <time>2016-12-03T14:03:14.008Z</time>
      </trkpt>
      <trkpt lat="43.00254" lon="0.83315">
        <ele>752</ele>
        <time>2016-12-03T14:03:16.008Z</time>
      </trkpt>
      <trkpt lat="43.00256" lon="0.83295">
        <ele>752</ele>
        <time>2016-12-03T14:03:18.008Z</time>
      </trkpt>
      <trkpt lat="43.00262" lon="0.83282">
        <ele>752</ele>
        <time>2016-12-03T14:03:20.008Z</time>
      </trkpt>
      <trkpt lat="43.00272" lon="0.83272">
        <ele>751</ele>
        <time>2016-12-03T14:03:22.008Z</time>
      </trkpt>
      <trkpt lat="43.00285" lon="0.83269">
        <ele>751</ele>
        <time>2016-12-03T14:03:24.008Z</time>
      </trkpt>
      <trkpt lat="43.003" lon="0.83267">
        <ele>751</ele>
        <time>2016-12-03T14:03:26.008Z</time>
      </trkpt>
      <trkpt lat="43.00315" lon="0.83265">
        <ele>751</ele>
        <time>2016-12-03T14:03:28.008Z</time>
      </trkpt>
      <trkpt lat="43.00326" lon="0.83266">
        <ele>751</ele>
        <time>2016-12-03T14:03:30.008Z</time>
      </trkpt>
      <trkpt lat="43.0034" lon="0.83266">
        <ele>748</ele>
        <time>2016-12-03T14:03:32.008Z</time>
      </trkpt>
      <trkpt lat="43.00353" lon="0.83262">
        <ele>748</ele>
        <time>2016-12-03T14:03:34.008Z</time>
      </trkpt>
      <trkpt lat="43.00364" lon="0.83253">
        <ele>746.6080077825</ele>
        <time>2016-12-03T14:03:36.008Z</time>
      </trkpt>
      <trkpt lat="43.00376" lon="0.83236">
        <ele>744</ele>
        <time>2016-12-03T14:03:38.008Z</time>
      </trkpt>
      <trkpt lat="43.00386" lon="0.83216">
        <ele>744</ele>
        <time>2016-12-03T14:03:40.008Z</time>
      </trkpt>
      <trkpt lat="43.00393" lon="0.83193">
        <ele>742.65200194562</ele>
        <time>2016-12-03T14:03:42.008Z</time>
      </trkpt>
      <trkpt lat="43.00399" lon="0.83171">
        <ele>741.65200194562</ele>
        <time>2016-12-03T14:03:44.008Z</time>
      </trkpt>
      <trkpt lat="43.00403" lon="0.83147">
        <ele>741.65200194562</ele>
        <time>2016-12-03T14:03:46.008Z</time>
      </trkpt>
      <trkpt lat="43.00406" lon="0.83124">
        <ele>739.65200194562</ele>
        <time>2016-12-03T14:03:48.008Z</time>
      </trkpt>
      <trkpt lat="43.00406" lon="0.83111">
        <ele>738.65199805443</ele>
        <time>2016-12-03T14:03:49.008Z</time>
      </trkpt>
      <trkpt lat="43.00405" lon="0.83097">
        <ele>738</ele>
        <time>2016-12-03T14:03:50.008Z</time>
      </trkpt>
      <trkpt lat="43.00405" lon="0.83075">
        <ele>736</ele>
        <time>2016-12-03T14:03:52.008Z</time>
      </trkpt>
      <trkpt lat="43.0041" lon="0.83057">
        <ele>736</ele>
        <time>2016-12-03T14:03:54.008Z</time>
      </trkpt>
      <trkpt lat="43.00421" lon="0.8305">
        <ele>735.65200194562</ele>
        <time>2016-12-03T14:03:56.008Z</time>
      </trkpt>
      <trkpt lat="43.00428" lon="0.83051">
        <ele>735</ele>
        <time>2016-12-03T14:03:57.008Z</time>
      </trkpt>
      <trkpt lat="43.00436" lon="0.83051">
        <ele>734.65200194562</ele>
        <time>2016-12-03T14:03:58.008Z</time>
      </trkpt>
      <trkpt lat="43.00443" lon="0.83051">
        <ele>734</ele>
        <time>2016-12-03T14:03:59.008Z</time>
      </trkpt>
      <trkpt lat="43.00451" lon="0.83051">
        <ele>734</ele>
        <time>2016-12-03T14:04:00.008Z</time>
      </trkpt>
      <trkpt lat="43.00459" lon="0.83051">
        <ele>733.65199805443</ele>
        <time>2016-12-03T14:04:01.008Z</time>
      </trkpt>
      <trkpt lat="43.00467" lon="0.83049">
        <ele>733</ele>
        <time>2016-12-03T14:04:02.008Z</time>
      </trkpt>
      <trkpt lat="43.00475" lon="0.83049">
        <ele>733</ele>
        <time>2016-12-03T14:04:03.008Z</time>
      </trkpt>
      <trkpt lat="43.00484" lon="0.83047">
        <ele>733</ele>
        <time>2016-12-03T14:04:04.008Z</time>
      </trkpt>
      <trkpt lat="43.00491" lon="0.83046">
        <ele>733</ele>
        <time>2016-12-03T14:04:05.008Z</time>
      </trkpt>
      <trkpt lat="43.00498" lon="0.83042">
        <ele>732.65200194562</ele>
        <time>2016-12-03T14:04:06.008Z</time>
      </trkpt>
      <trkpt lat="43.00505" lon="0.83036">
        <ele>732</ele>
        <time>2016-12-03T14:04:07.008Z</time>
      </trkpt>
      <trkpt lat="43.00509" lon="0.83028">
        <ele>732</ele>
        <time>2016-12-03T14:04:08.008Z</time>
      </trkpt>
      <trkpt lat="43.00512" lon="0.83019">
        <ele>732</ele>
        <time>2016-12-03T14:04:09.008Z</time>
      </trkpt>
      <trkpt lat="43.00516" lon="0.8301">
        <ele>732</ele>
        <time>2016-12-03T14:04:10.008Z</time>
      </trkpt>
      <trkpt lat="43.00519" lon="0.83002">
        <ele>731.65544248292</ele>
        <time>2016-12-03T14:04:11.008Z</time>
      </trkpt>
      <trkpt lat="43.00522" lon="0.82993">
        <ele>731</ele>
        <time>2016-12-03T14:04:12.008Z</time>
      </trkpt>
      <trkpt lat="43.00525" lon="0.82985">
        <ele>731</ele>
        <time>2016-12-03T14:04:13.008Z</time>
      </trkpt>
      <trkpt lat="43.00528" lon="0.82977">
        <ele>731</ele>
        <time>2016-12-03T14:04:14.008Z</time>
      </trkpt>
      <trkpt lat="43.00531" lon="0.82969">
        <ele>731</ele>
        <time>2016-12-03T14:04:15.008Z</time>
      </trkpt>
      <trkpt lat="43.00534" lon="0.82961">
        <ele>731</ele>
        <time>2016-12-03T14:04:16.008Z</time>
      </trkpt>
      <trkpt lat="43.00536" lon="0.82954">
        <ele>731</ele>
        <time>2016-12-03T14:04:17.008Z</time>
      </trkpt>
      <trkpt lat="43.00538" lon="0.82946">
        <ele>731</ele>
        <time>2016-12-03T14:04:18.008Z</time>
      </trkpt>
      <trkpt lat="43.00541" lon="0.82939">
        <ele>731</ele>
        <time>2016-12-03T14:04:19.008Z</time>
      </trkpt>
      <trkpt lat="43.00543" lon="0.82932">
        <ele>731</ele>
        <time>2016-12-03T14:04:20.008Z</time>
      </trkpt>
      <trkpt lat="43.00546" lon="0.82926">
        <ele>731</ele>
        <time>2016-12-03T14:04:21.008Z</time>
      </trkpt>
      <trkpt lat="43.00548" lon="0.82921">
        <ele>731</ele>
        <time>2016-12-03T14:04:22.008Z</time>
      </trkpt>
      <trkpt lat="43.00556" lon="0.82914">
        <ele>731</ele>
        <time>2016-12-03T14:04:24.008Z</time>
      </trkpt>
      <trkpt lat="43.00567" lon="0.82913">
        <ele>731</ele>
        <time>2016-12-03T14:04:26.008Z</time>
      </trkpt>
      <trkpt lat="43.00573" lon="0.82914">
        <ele>731</ele>
        <time>2016-12-03T14:04:27.008Z</time>
      </trkpt>
      <trkpt lat="43.0058" lon="0.82915">
        <ele>731</ele>
        <time>2016-12-03T14:04:28.008Z</time>
      </trkpt>
      <trkpt lat="43.00586" lon="0.82917">
        <ele>731</ele>
        <time>2016-12-03T14:04:29.008Z</time>
      </trkpt>
      <trkpt lat="43.00593" lon="0.82919">
        <ele>731</ele>
        <time>2016-12-03T14:04:30.008Z</time>
      </trkpt>
      <trkpt lat="43.006" lon="0.8292">
        <ele>730.30399610885</ele>
        <time>2016-12-03T14:04:31.008Z</time>
      </trkpt>
      <trkpt lat="43.00606" lon="0.82921">
        <ele>729</ele>
        <time>2016-12-03T14:04:32.008Z</time>
      </trkpt>
      <trkpt lat="43.00611" lon="0.8292">
        <ele>729</ele>
        <time>2016-12-03T14:04:33.008Z</time>
      </trkpt>
      <trkpt lat="43.00616" lon="0.82916">
        <ele>729</ele>
        <time>2016-12-03T14:04:34.008Z</time>
      </trkpt>
      <trkpt lat="43.00621" lon="0.8291">
        <ele>729</ele>
        <time>2016-12-03T14:04:35.008Z</time>
      </trkpt>
      <trkpt lat="43.00624" lon="0.82901">
        <ele>729</ele>
        <time>2016-12-03T14:04:36.008Z</time>
      </trkpt>
      <trkpt lat="43.00626" lon="0.8289">
        <ele>729</ele>
        <time>2016-12-03T14:04:37.008Z</time>
      </trkpt>
      <trkpt lat="43.00628" lon="0.82878">
        <ele>729</ele>
        <time>2016-12-03T14:04:38.008Z</time>
      </trkpt>
      <trkpt lat="43.00631" lon="0.82868">
        <ele>729</ele>
        <time>2016-12-03T14:04:39.008Z</time>
      </trkpt>
      <trkpt lat="43.00633" lon="0.82857">
        <ele>729</ele>
        <time>2016-12-03T14:04:40.008Z</time>
      </trkpt>
      <trkpt lat="43.00634" lon="0.82849">
        <ele>726.2159844354</ele>
        <time>2016-12-03T14:04:41.008Z</time>
      </trkpt>
      <trkpt lat="43.00636" lon="0.82841">
        <ele>719.6080077825</ele>
        <time>2016-12-03T14:04:42.008Z</time>
      </trkpt>
      <trkpt lat="43.00637" lon="0.82835">
        <ele>717</ele>
        <time>2016-12-03T14:04:43.008Z</time>
      </trkpt>
      <trkpt lat="43.00635" lon="0.82824">
        <ele>716</ele>
        <time>2016-12-03T14:04:45.008Z</time>
      </trkpt>
      <trkpt lat="43.0063" lon="0.82818">
        <ele>716.34800194557</ele>
        <time>2016-12-03T14:04:47.008Z</time>
      </trkpt>
      <trkpt lat="43.00624" lon="0.82814">
        <ele>717</ele>
        <time>2016-12-03T14:04:49.008Z</time>
      </trkpt>
      <trkpt lat="43.00618" lon="0.8281">
        <ele>717</ele>
        <time>2016-12-03T14:04:51.008Z</time>
      </trkpt>
      <trkpt lat="43.00615" lon="0.82809">
        <ele>717</ele>
        <time>2016-12-03T14:04:52.008Z</time>
      </trkpt>
      <trkpt lat="43.00609" lon="0.82806">
        <ele>717</ele>
        <time>2016-12-03T14:04:54.008Z</time>
      </trkpt>
      <trkpt lat="43.00605" lon="0.82803">
        <ele>717</ele>
        <time>2016-12-03T14:04:56.008Z</time>
      </trkpt>
      <trkpt lat="43.006" lon="0.82801">
        <ele>717</ele>
        <time>2016-12-03T14:04:58.008Z</time>
      </trkpt>
      <trkpt lat="43.00597" lon="0.828">
        <ele>717</ele>
        <time>2016-12-03T14:04:59.008Z</time>
      </trkpt>
      <trkpt lat="43.00595" lon="0.82798">
        <ele>717</ele>
        <time>2016-12-03T14:05:00.008Z</time>
      </trkpt>
      <trkpt lat="43.00592" lon="0.82797">
        <ele>717.34800194557</ele>
        <time>2016-12-03T14:05:01.008Z</time>
      </trkpt>
      <trkpt lat="43.00586" lon="0.82794">
        <ele>718</ele>
        <time>2016-12-03T14:05:03.008Z</time>
      </trkpt>
      <trkpt lat="43.00584" lon="0.82792">
        <ele>718</ele>
        <time>2016-12-03T14:05:04.008Z</time>
      </trkpt>
      <trkpt lat="43.00581" lon="0.82791">
        <ele>718</ele>
        <time>2016-12-03T14:05:05.008Z</time>
      </trkpt>
      <trkpt lat="43.00578" lon="0.8279">
        <ele>718</ele>
        <time>2016-12-03T14:05:06.008Z</time>
      </trkpt>
      <trkpt lat="43.00576" lon="0.82788">
        <ele>718</ele>
        <time>2016-12-03T14:05:07.008Z</time>
      </trkpt>
      <trkpt lat="43.00573" lon="0.82786">
        <ele>718</ele>
        <time>2016-12-03T14:05:08.008Z</time>
      </trkpt>
      <trkpt lat="43.0057" lon="0.82785">
        <ele>718</ele>
        <time>2016-12-03T14:05:09.008Z</time>
      </trkpt>
      <trkpt lat="43.00567" lon="0.82782">
        <ele>718</ele>
        <time>2016-12-03T14:05:10.008Z</time>
      </trkpt>
      <trkpt lat="43.00564" lon="0.8278">
        <ele>718</ele>
        <time>2016-12-03T14:05:11.008Z</time>
      </trkpt>
      <trkpt lat="43.0056" lon="0.82777">
        <ele>718</ele>
        <time>2016-12-03T14:05:12.008Z</time>
      </trkpt>
      <trkpt lat="43.00552" lon="0.82769">
        <ele>718</ele>
        <time>2016-12-03T14:05:14.008Z</time>
      </trkpt>
      <trkpt lat="43.00548" lon="0.82765">
        <ele>718</ele>
        <time>2016-12-03T14:05:15.008Z</time>
      </trkpt>
      <trkpt lat="43.00539" lon="0.82757">
        <ele>718</ele>
        <time>2016-12-03T14:05:17.008Z</time>
      </trkpt>
      <trkpt lat="43.0053" lon="0.82749">
        <ele>718</ele>
        <time>2016-12-03T14:05:19.008Z</time>
      </trkpt>
      <trkpt lat="43.00522" lon="0.8274">
        <ele>716.95599416328</ele>
        <time>2016-12-03T14:05:21.008Z</time>
      </trkpt>
      <trkpt lat="43.00517" lon="0.82736">
        <ele>715</ele>
        <time>2016-12-03T14:05:22.008Z</time>
      </trkpt>
      <trkpt lat="43.00507" lon="0.82726">
        <ele>715</ele>
        <time>2016-12-03T14:05:24.008Z</time>
      </trkpt>
      <trkpt lat="43.00498" lon="0.82718">
        <ele>714.30400389125</ele>
        <time>2016-12-03T14:05:26.008Z</time>
      </trkpt>
      <trkpt lat="43.00488" lon="0.82709">
        <ele>713</ele>
        <time>2016-12-03T14:05:28.008Z</time>
      </trkpt>
      <trkpt lat="43.00477" lon="0.82699">
        <ele>713</ele>
        <time>2016-12-03T14:05:30.008Z</time>
      </trkpt>
      <trkpt lat="43.00467" lon="0.82694">
        <ele>707.30400389125</ele>
        <time>2016-12-03T14:05:32.008Z</time>
      </trkpt>
      <trkpt lat="43.00458" lon="0.8269">
        <ele>706</ele>
        <time>2016-12-03T14:05:34.008Z</time>
      </trkpt>
      <trkpt lat="43.00449" lon="0.8269">
        <ele>705.65200194562</ele>
        <time>2016-12-03T14:05:36.008Z</time>
      </trkpt>
      <trkpt lat="43.0044" lon="0.82692">
        <ele>703.65200194562</ele>
        <time>2016-12-03T14:05:38.008Z</time>
      </trkpt>
      <trkpt lat="43.00426" lon="0.82693">
        <ele>700.65199805443</ele>
        <time>2016-12-03T14:05:41.008Z</time>
      </trkpt>
      <trkpt lat="43.00414" lon="0.82687">
        <ele>699.65199805443</ele>
        <time>2016-12-03T14:05:43.008Z</time>
      </trkpt>
      <trkpt lat="43.00405" lon="0.82675">
        <ele>700</ele>
        <time>2016-12-03T14:05:45.008Z</time>
      </trkpt>
      <trkpt lat="43.00397" lon="0.82664">
        <ele>700.34800194557</ele>
        <time>2016-12-03T14:05:47.008Z</time>
      </trkpt>
      <trkpt lat="43.00391" lon="0.82654">
        <ele>700.65199805443</ele>
        <time>2016-12-03T14:05:49.008Z</time>
      </trkpt>
      <trkpt lat="43.00381" lon="0.82643">
        <ele>701</ele>
        <time>2016-12-03T14:05:52.008Z</time>
      </trkpt>
      <trkpt lat="43.00372" lon="0.82635">
        <ele>701</ele>
        <time>2016-12-03T14:05:55.008Z</time>
      </trkpt>
      <trkpt lat="43.0036" lon="0.82628">
        <ele>701</ele>
        <time>2016-12-03T14:05:59.008Z</time>
      </trkpt>
      <trkpt lat="43.0035" lon="0.82625">
        <ele>703</ele>
        <time>2016-12-03T14:06:02.008Z</time>
      </trkpt>
      <trkpt lat="43.00339" lon="0.82621">
        <ele>703</ele>
        <time>2016-12-03T14:06:06.008Z</time>
      </trkpt>
      <trkpt lat="43.0033" lon="0.82616">
        <ele>703</ele>
        <time>2016-12-03T14:06:10.008Z</time>
      </trkpt>
      <trkpt lat="43.00321" lon="0.82615">
        <ele>705</ele>
        <time>2016-12-03T14:06:13.008Z</time>
      </trkpt>
      <trkpt lat="43.00312" lon="0.82617">
        <ele>705</ele>
        <time>2016-12-03T14:06:16.008Z</time>
      </trkpt>
      <trkpt lat="43.00305" lon="0.8262">
        <ele>705</ele>
        <time>2016-12-03T14:06:18.008Z</time>
      </trkpt>
      <trkpt lat="43.003" lon="0.82624">
        <ele>705</ele>
        <time>2016-12-03T14:06:20.008Z</time>
      </trkpt>
      <trkpt lat="43.00293" lon="0.82632">
        <ele>706</ele>
        <time>2016-12-03T14:06:23.008Z</time>
      </trkpt>
      <trkpt lat="43.00289" lon="0.82638">
        <ele>706</ele>
        <time>2016-12-03T14:06:25.008Z</time>
      </trkpt>
      <trkpt lat="43.00286" lon="0.82642">
        <ele>706</ele>
        <time>2016-12-03T14:06:27.008Z</time>
      </trkpt>
      <trkpt lat="43.00281" lon="0.82649">
        <ele>706</ele>
        <time>2016-12-03T14:06:31.008Z</time>
      </trkpt>
      <trkpt lat="43.00276" lon="0.82658">
        <ele>706</ele>
        <time>2016-12-03T14:06:34.008Z</time>
      </trkpt>
      <trkpt lat="43.00269" lon="0.82669">
        <ele>706</ele>
        <time>2016-12-03T14:06:37.008Z</time>
      </trkpt>
      <trkpt lat="43.00263" lon="0.82678">
        <ele>705.65199805443</ele>
        <time>2016-12-03T14:06:39.008Z</time>
      </trkpt>
      <trkpt lat="43.0026" lon="0.82683">
        <ele>705</ele>
        <time>2016-12-03T14:06:40.008Z</time>
      </trkpt>
      <trkpt lat="43.00257" lon="0.82689">
        <ele>704.65199805443</ele>
        <time>2016-12-03T14:06:41.008Z</time>
      </trkpt>
      <trkpt lat="43.00253" lon="0.82696">
        <ele>704</ele>
        <time>2016-12-03T14:06:42.008Z</time>
      </trkpt>
      <trkpt lat="43.00249" lon="0.82704">
        <ele>704</ele>
        <time>2016-12-03T14:06:43.008Z</time>
      </trkpt>
      <trkpt lat="43.00246" lon="0.82713">
        <ele>704</ele>
        <time>2016-12-03T14:06:44.008Z</time>
      </trkpt>
      <trkpt lat="43.00242" lon="0.82721">
        <ele>704</ele>
        <time>2016-12-03T14:06:45.008Z</time>
      </trkpt>
      <trkpt lat="43.00237" lon="0.82729">
        <ele>704</ele>
        <time>2016-12-03T14:06:46.008Z</time>
      </trkpt>
      <trkpt lat="43.00232" lon="0.82735">
        <ele>704</ele>
        <time>2016-12-03T14:06:47.008Z</time>
      </trkpt>
      <trkpt lat="43.00227" lon="0.82738">
        <ele>704</ele>
        <time>2016-12-03T14:06:48.008Z</time>
      </trkpt>
      <trkpt lat="43.00221" lon="0.82738">
        <ele>704</ele>
        <time>2016-12-03T14:06:49.008Z</time>
      </trkpt>
      <trkpt lat="43.00217" lon="0.82735">
        <ele>704</ele>
        <time>2016-12-03T14:06:50.008Z</time>
      </trkpt>
      <trkpt lat="43.00213" lon="0.82731">
        <ele>702.6079922177</ele>
        <time>2016-12-03T14:06:51.008Z</time>
      </trkpt>
      <trkpt lat="43.00209" lon="0.82727">
        <ele>700</ele>
        <time>2016-12-03T14:06:52.008Z</time>
      </trkpt>
      <trkpt lat="43.00206" lon="0.82723">
        <ele>700</ele>
        <time>2016-12-03T14:06:53.008Z</time>
      </trkpt>
      <trkpt lat="43.00203" lon="0.82719">
        <ele>700</ele>
        <time>2016-12-03T14:06:54.008Z</time>
      </trkpt>
      <trkpt lat="43.002" lon="0.82716">
        <ele>700</ele>
        <time>2016-12-03T14:06:55.008Z</time>
      </trkpt>
      <trkpt lat="43.00197" lon="0.82712">
        <ele>699.65200194562</ele>
        <time>2016-12-03T14:06:56.008Z</time>
      </trkpt>
      <trkpt lat="43.00192" lon="0.82706">
        <ele>699</ele>
        <time>2016-12-03T14:06:58.008Z</time>
      </trkpt>
      <trkpt lat="43.00187" lon="0.827">
        <ele>699</ele>
        <time>2016-12-03T14:07:00.008Z</time>
      </trkpt>
      <trkpt lat="43.00183" lon="0.82694">
        <ele>700</ele>
        <time>2016-12-03T14:07:02.008Z</time>
      </trkpt>
      <trkpt lat="43.00178" lon="0.82689">
        <ele>700</ele>
        <time>2016-12-03T14:07:04.008Z</time>
      </trkpt>
      <trkpt lat="43.00174" lon="0.82684">
        <ele>700</ele>
        <time>2016-12-03T14:07:06.008Z</time>
      </trkpt>
      <trkpt lat="43.00171" lon="0.82679">
        <ele>700</ele>
        <time>2016-12-03T14:07:08.008Z</time>
      </trkpt>
      <trkpt lat="43.00168" lon="0.82675">
        <ele>700</ele>
        <time>2016-12-03T14:07:10.008Z</time>
      </trkpt>
      <trkpt lat="43.00165" lon="0.82669">
        <ele>704</ele>
        <time>2016-12-03T14:07:12.008Z</time>
      </trkpt>
      <trkpt lat="43.00163" lon="0.82664">
        <ele>704</ele>
        <time>2016-12-03T14:07:14.008Z</time>
      </trkpt>
      <trkpt lat="43.0016" lon="0.8266">
        <ele>704.69599610875</ele>
        <time>2016-12-03T14:07:16.008Z</time>
      </trkpt>
      <trkpt lat="43.00157" lon="0.82655">
        <ele>706</ele>
        <time>2016-12-03T14:07:18.008Z</time>
      </trkpt>
      <trkpt lat="43.00154" lon="0.82648">
        <ele>706.69600389115</ele>
        <time>2016-12-03T14:07:21.008Z</time>
      </trkpt>
      <trkpt lat="43.0015" lon="0.82641">
        <ele>708</ele>
        <time>2016-12-03T14:07:24.008Z</time>
      </trkpt>
      <trkpt lat="43.00144" lon="0.82631">
        <ele>711</ele>
        <time>2016-12-03T14:07:28.008Z</time>
      </trkpt>
      <trkpt lat="43.00138" lon="0.82623">
        <ele>713</ele>
        <time>2016-12-03T14:07:32.008Z</time>
      </trkpt>
      <trkpt lat="43.00131" lon="0.82614">
        <ele>713</ele>
        <time>2016-12-03T14:07:36.008Z</time>
      </trkpt>
      <trkpt lat="43.00123" lon="0.8261">
        <ele>713</ele>
        <time>2016-12-03T14:07:40.008Z</time>
      </trkpt>
      <trkpt lat="43.00116" lon="0.82609">
        <ele>714</ele>
        <time>2016-12-03T14:07:43.008Z</time>
      </trkpt>
      <trkpt lat="43.00105" lon="0.8261">
        <ele>714</ele>
        <time>2016-12-03T14:07:48.008Z</time>
      </trkpt>
      <trkpt lat="43.00095" lon="0.82612">
        <ele>716</ele>
        <time>2016-12-03T14:07:53.008Z</time>
      </trkpt>
      <trkpt lat="43.00084" lon="0.82616">
        <ele>716</ele>
        <time>2016-12-03T14:07:58.008Z</time>
      </trkpt>
      <trkpt lat="43.00074" lon="0.82622">
        <ele>721</ele>
        <time>2016-12-03T14:08:04.008Z</time>
      </trkpt>
      <trkpt lat="43.00065" lon="0.82629">
        <ele>723</ele>
        <time>2016-12-03T14:08:09.008Z</time>
      </trkpt>
      <trkpt lat="43.0006" lon="0.82632">
        <ele>724</ele>
        <time>2016-12-03T14:08:12.008Z</time>
      </trkpt>
      <trkpt lat="43.00051" lon="0.82637">
        <ele>725</ele>
        <time>2016-12-03T14:08:17.008Z</time>
      </trkpt>
      <trkpt lat="43.0004" lon="0.8264">
        <ele>727</ele>
        <time>2016-12-03T14:08:23.008Z</time>
      </trkpt>
      <trkpt lat="43.00029" lon="0.82642">
        <ele>728</ele>
        <time>2016-12-03T14:08:28.008Z</time>
      </trkpt>
      <trkpt lat="43.0002" lon="0.82646">
        <ele>729</ele>
        <time>2016-12-03T14:08:33.008Z</time>
      </trkpt>
      <trkpt lat="43.0001" lon="0.82652">
        <ele>729</ele>
        <time>2016-12-03T14:08:38.008Z</time>
      </trkpt>
      <trkpt lat="43.00004" lon="0.82657">
        <ele>729.69600389115</ele>
        <time>2016-12-03T14:08:41.008Z</time>
      </trkpt>
      <trkpt lat="43.00001" lon="0.82664">
        <ele>731</ele>
        <time>2016-12-03T14:08:44.008Z</time>
      </trkpt>
      <trkpt lat="42.99999" lon="0.82671">
        <ele>731</ele>
        <time>2016-12-03T14:08:47.008Z</time>
      </trkpt>
      <trkpt lat="42.99997" lon="0.82678">
        <ele>731</ele>
        <time>2016-12-03T14:08:50.008Z</time>
      </trkpt>
      <trkpt lat="42.99995" lon="0.82684">
        <ele>733</ele>
        <time>2016-12-03T14:08:52.008Z</time>
      </trkpt>
      <trkpt lat="42.99991" lon="0.8269">
        <ele>733</ele>
        <time>2016-12-03T14:08:55.008Z</time>
      </trkpt>
      <trkpt lat="42.99985" lon="0.82697">
        <ele>735</ele>
        <time>2016-12-03T14:08:58.008Z</time>
      </trkpt>
      <trkpt lat="42.99981" lon="0.82704">
        <ele>737</ele>
        <time>2016-12-03T14:09:02.008Z</time>
      </trkpt>
      <trkpt lat="42.99976" lon="0.82711">
        <ele>737</ele>
        <time>2016-12-03T14:09:05.008Z</time>
      </trkpt>
      <trkpt lat="42.99971" lon="0.82719">
        <ele>737</ele>
        <time>2016-12-03T14:09:08.008Z</time>
      </trkpt>
      <trkpt lat="42.99964" lon="0.82729">
        <ele>737</ele>
        <time>2016-12-03T14:09:11.008Z</time>
      </trkpt>
      <trkpt lat="42.99959" lon="0.82736">
        <ele>737</ele>
        <time>2016-12-03T14:09:13.008Z</time>
      </trkpt>
      <trkpt lat="42.99954" lon="0.82743">
        <ele>737</ele>
        <time>2016-12-03T14:09:15.008Z</time>
      </trkpt>
      <trkpt lat="42.99948" lon="0.82756">
        <ele>737</ele>
        <time>2016-12-03T14:09:18.008Z</time>
      </trkpt>
      <trkpt lat="42.99942" lon="0.82767">
        <ele>737</ele>
        <time>2016-12-03T14:09:21.008Z</time>
      </trkpt>
      <trkpt lat="42.99935" lon="0.82778">
        <ele>737</ele>
        <time>2016-12-03T14:09:24.008Z</time>
      </trkpt>
      <trkpt lat="42.9993" lon="0.8279">
        <ele>737</ele>
        <time>2016-12-03T14:09:27.008Z</time>
      </trkpt>
      <trkpt lat="42.99923" lon="0.82804">
        <ele>737</ele>
        <time>2016-12-03T14:09:31.008Z</time>
      </trkpt>
      <trkpt lat="42.99916" lon="0.82818">
        <ele>737</ele>
        <time>2016-12-03T14:09:34.008Z</time>
      </trkpt>
      <trkpt lat="42.99907" lon="0.82831">
        <ele>737</ele>
        <time>2016-12-03T14:09:36.008Z</time>
      </trkpt>
      <trkpt lat="42.99896" lon="0.82846">
        <ele>737</ele>
        <time>2016-12-03T14:09:38.008Z</time>
      </trkpt>
      <trkpt lat="42.99887" lon="0.82854">
        <ele>737</ele>
        <time>2016-12-03T14:09:40.008Z</time>
      </trkpt>
      <trkpt lat="42.99878" lon="0.82865">
        <ele>738</ele>
        <time>2016-12-03T14:09:43.008Z</time>
      </trkpt>
      <trkpt lat="42.99871" lon="0.82875">
        <ele>738</ele>
        <time>2016-12-03T14:09:46.008Z</time>
      </trkpt>
      <trkpt lat="42.99863" lon="0.82886">
        <ele>738</ele>
        <time>2016-12-03T14:09:49.008Z</time>
      </trkpt>
      <trkpt lat="42.99857" lon="0.82896">
        <ele>738</ele>
        <time>2016-12-03T14:09:52.008Z</time>
      </trkpt>
      <trkpt lat="42.9985" lon="0.82906">
        <ele>738</ele>
        <time>2016-12-03T14:09:55.008Z</time>
      </trkpt>
      <trkpt lat="42.99843" lon="0.82921">
        <ele>738</ele>
        <time>2016-12-03T14:09:59.008Z</time>
      </trkpt>
      <trkpt lat="42.99839" lon="0.82934">
        <ele>741</ele>
        <time>2016-12-03T14:10:02.008Z</time>
      </trkpt>
      <trkpt lat="42.99836" lon="0.82947">
        <ele>741.34799805438</ele>
        <time>2016-12-03T14:10:06.008Z</time>
      </trkpt>
      <trkpt lat="42.99833" lon="0.82961">
        <ele>742</ele>
        <time>2016-12-03T14:10:10.008Z</time>
      </trkpt>
      <trkpt lat="42.99829" lon="0.82974">
        <ele>743</ele>
        <time>2016-12-03T14:10:14.008Z</time>
      </trkpt>
      <trkpt lat="42.99824" lon="0.8299">
        <ele>743</ele>
        <time>2016-12-03T14:10:19.008Z</time>
      </trkpt>
      <trkpt lat="42.99816" lon="0.83002">
        <ele>744</ele>
        <time>2016-12-03T14:10:23.008Z</time>
      </trkpt>
      <trkpt lat="42.99807" lon="0.8299">
        <ele>744</ele>
        <time>2016-12-03T14:10:27.008Z</time>
      </trkpt>
      <trkpt lat="42.99801" lon="0.82979">
        <ele>746</ele>
        <time>2016-12-03T14:10:32.008Z</time>
      </trkpt>
      <trkpt lat="42.99793" lon="0.8297">
        <ele>746</ele>
        <time>2016-12-03T14:10:38.008Z</time>
      </trkpt>
      <trkpt lat="42.99786" lon="0.82959">
        <ele>749</ele>
        <time>2016-12-03T14:10:43.008Z</time>
      </trkpt>
      <trkpt lat="42.99779" lon="0.82948">
        <ele>751</ele>
        <time>2016-12-03T14:10:48.008Z</time>
      </trkpt>
      <trkpt lat="42.99772" lon="0.82937">
        <ele>752</ele>
        <time>2016-12-03T14:10:53.008Z</time>
      </trkpt>
      <trkpt lat="42.99766" lon="0.82925">
        <ele>754</ele>
        <time>2016-12-03T14:10:58.008Z</time>
      </trkpt>
      <trkpt lat="42.9976" lon="0.82913">
        <ele>756.34799805438</ele>
        <time>2016-12-03T14:11:06.008Z</time>
      </trkpt>
      <trkpt lat="42.99751" lon="0.82905">
        <ele>757.34800194557</ele>
        <time>2016-12-03T14:11:11.008Z</time>
      </trkpt>
      <trkpt lat="42.99743" lon="0.82903">
        <ele>758.34799805438</ele>
        <time>2016-12-03T14:11:16.008Z</time>
      </trkpt>
      <trkpt lat="42.99735" lon="0.82909">
        <ele>759</ele>
        <time>2016-12-03T14:11:20.008Z</time>
      </trkpt>
      <trkpt lat="42.99727" lon="0.82916">
        <ele>759</ele>
        <time>2016-12-03T14:11:23.008Z</time>
      </trkpt>
      <trkpt lat="42.99717" lon="0.82926">
        <ele>759</ele>
        <time>2016-12-03T14:11:26.008Z</time>
      </trkpt>
      <trkpt lat="42.99709" lon="0.82934">
        <ele>759</ele>
        <time>2016-12-03T14:11:28.008Z</time>
      </trkpt>
      <trkpt lat="42.99699" lon="0.82942">
        <ele>759</ele>
        <time>2016-12-03T14:11:30.008Z</time>
      </trkpt>
      <trkpt lat="42.99688" lon="0.82951">
        <ele>757</ele>
        <time>2016-12-03T14:11:32.008Z</time>
      </trkpt>
      <trkpt lat="42.99677" lon="0.8296">
        <ele>757</ele>
        <time>2016-12-03T14:11:34.008Z</time>
      </trkpt>
      <trkpt lat="42.99665" lon="0.82968">
        <ele>755.6080077825</ele>
        <time>2016-12-03T14:11:36.008Z</time>
      </trkpt>
      <trkpt lat="42.99652" lon="0.82976">
        <ele>753</ele>
        <time>2016-12-03T14:11:38.008Z</time>
      </trkpt>
      <trkpt lat="42.99639" lon="0.82984">
        <ele>753</ele>
        <time>2016-12-03T14:11:40.008Z</time>
      </trkpt>
      <trkpt lat="42.99629" lon="0.82994">
        <ele>752</ele>
        <time>2016-12-03T14:11:42.008Z</time>
      </trkpt>
      <trkpt lat="42.99617" lon="0.83006">
        <ele>752</ele>
        <time>2016-12-03T14:11:45.008Z</time>
      </trkpt>
      <trkpt lat="42.99607" lon="0.83014">
        <ele>752</ele>
        <time>2016-12-03T14:11:48.008Z</time>
      </trkpt>
      <trkpt lat="42.99596" lon="0.83022">
        <ele>754</ele>
        <time>2016-12-03T14:11:52.008Z</time>
      </trkpt>
      <trkpt lat="42.99584" lon="0.83028">
        <ele>754</ele>
        <time>2016-12-03T14:11:57.008Z</time>
      </trkpt>
      <trkpt lat="42.99575" lon="0.83034">
        <ele>754</ele>
        <time>2016-12-03T14:12:00.008Z</time>
      </trkpt>
      <trkpt lat="42.99565" lon="0.8304">
        <ele>756</ele>
        <time>2016-12-03T14:12:03.008Z</time>
      </trkpt>
      <trkpt lat="42.99551" lon="0.83043">
        <ele>756</ele>
        <time>2016-12-03T14:12:07.008Z</time>
      </trkpt>
      <trkpt lat="42.99537" lon="0.83043">
        <ele>756</ele>
        <time>2016-12-03T14:12:10.008Z</time>
      </trkpt>
      <trkpt lat="42.99525" lon="0.83047">
        <ele>751</ele>
        <time>2016-12-03T14:12:12.008Z</time>
      </trkpt>
      <trkpt lat="42.99516" lon="0.8304">
        <ele>751</ele>
        <time>2016-12-03T14:12:15.008Z</time>
      </trkpt>
      <trkpt lat="42.99512" lon="0.83025">
        <ele>749</ele>
        <time>2016-12-03T14:12:18.008Z</time>
      </trkpt>
      <trkpt lat="42.99517" lon="0.83011">
        <ele>748.65199805443</ele>
        <time>2016-12-03T14:12:21.008Z</time>
      </trkpt>
      <trkpt lat="42.99523" lon="0.82997">
        <ele>748</ele>
        <time>2016-12-03T14:12:23.008Z</time>
      </trkpt>
      <trkpt lat="42.99528" lon="0.82987">
        <ele>748</ele>
        <time>2016-12-03T14:12:25.008Z</time>
      </trkpt>
      <trkpt lat="42.99531" lon="0.82976">
        <ele>748</ele>
        <time>2016-12-03T14:12:28.008Z</time>
      </trkpt>
      <trkpt lat="42.99534" lon="0.82962">
        <ele>748</ele>
        <time>2016-12-03T14:12:31.008Z</time>
      </trkpt>
      <trkpt lat="42.99543" lon="0.82956">
        <ele>748</ele>
        <time>2016-12-03T14:12:34.008Z</time>
      </trkpt>
      <trkpt lat="42.99554" lon="0.82955">
        <ele>748</ele>
        <time>2016-12-03T14:12:37.008Z</time>
      </trkpt>
      <trkpt lat="42.99562" lon="0.82946">
        <ele>748.34800194557</ele>
        <time>2016-12-03T14:12:41.008Z</time>
      </trkpt>
      <trkpt lat="42.99568" lon="0.82936">
        <ele>749</ele>
        <time>2016-12-03T14:12:44.008Z</time>
      </trkpt>
      <trkpt lat="42.99575" lon="0.82924">
        <ele>749</ele>
        <time>2016-12-03T14:12:47.008Z</time>
      </trkpt>
      <trkpt lat="42.99578" lon="0.82909">
        <ele>749</ele>
        <time>2016-12-03T14:12:50.008Z</time>
      </trkpt>
      <trkpt lat="42.99581" lon="0.82893">
        <ele>750</ele>
        <time>2016-12-03T14:12:53.008Z</time>
      </trkpt>
      <trkpt lat="42.99583" lon="0.82879">
        <ele>750</ele>
        <time>2016-12-03T14:12:56.008Z</time>
      </trkpt>
      <trkpt lat="42.99587" lon="0.82864">
        <ele>750</ele>
        <time>2016-12-03T14:12:59.008Z</time>
      </trkpt>
      <trkpt lat="42.99589" lon="0.82848">
        <ele>749</ele>
        <time>2016-12-03T14:13:02.008Z</time>
      </trkpt>
      <trkpt lat="42.99592" lon="0.8283">
        <ele>749</ele>
        <time>2016-12-03T14:13:05.008Z</time>
      </trkpt>
      <trkpt lat="42.9959" lon="0.8281">
        <ele>749</ele>
        <time>2016-12-03T14:13:08.008Z</time>
      </trkpt>
      <trkpt lat="42.99589" lon="0.82795">
        <ele>749</ele>
        <time>2016-12-03T14:13:10.008Z</time>
      </trkpt>
      <trkpt lat="42.99587" lon="0.82778">
        <ele>747</ele>
        <time>2016-12-03T14:13:13.008Z</time>
      </trkpt>
      <trkpt lat="42.99587" lon="0.82766">
        <ele>747</ele>
        <time>2016-12-03T14:13:17.008Z</time>
      </trkpt>
      <trkpt lat="42.99587" lon="0.82751">
        <ele>746.65199805443</ele>
        <time>2016-12-03T14:13:21.008Z</time>
      </trkpt>
      <trkpt lat="42.9959" lon="0.82736">
        <ele>746</ele>
        <time>2016-12-03T14:13:25.008Z</time>
      </trkpt>
      <trkpt lat="42.99596" lon="0.82723">
        <ele>746</ele>
        <time>2016-12-03T14:13:28.008Z</time>
      </trkpt>
      <trkpt lat="42.99603" lon="0.82713">
        <ele>748</ele>
        <time>2016-12-03T14:13:32.008Z</time>
      </trkpt>
      <trkpt lat="42.9961" lon="0.82702">
        <ele>748</ele>
        <time>2016-12-03T14:13:36.008Z</time>
      </trkpt>
      <trkpt lat="42.99608" lon="0.82688">
        <ele>749.04400583672</ele>
        <time>2016-12-03T14:13:41.008Z</time>
      </trkpt>
      <trkpt lat="42.99597" lon="0.82685">
        <ele>751</ele>
        <time>2016-12-03T14:13:45.008Z</time>
      </trkpt>
      <trkpt lat="42.99588" lon="0.82683">
        <ele>753</ele>
        <time>2016-12-03T14:13:49.008Z</time>
      </trkpt>
      <trkpt lat="42.99579" lon="0.82678">
        <ele>754</ele>
        <time>2016-12-03T14:13:55.008Z</time>
      </trkpt>
      <trkpt lat="42.99571" lon="0.82669">
        <ele>757.04400583672</ele>
        <time>2016-12-03T14:14:01.008Z</time>
      </trkpt>
      <trkpt lat="42.99562" lon="0.82665">
        <ele>759</ele>
        <time>2016-12-03T14:14:06.008Z</time>
      </trkpt>
      <trkpt lat="42.99552" lon="0.82664">
        <ele>759.34800194557</ele>
        <time>2016-12-03T14:14:11.008Z</time>
      </trkpt>
      <trkpt lat="42.99542" lon="0.82662">
        <ele>760</ele>
        <time>2016-12-03T14:14:16.008Z</time>
      </trkpt>
      <trkpt lat="42.99533" lon="0.82664">
        <ele>760</ele>
        <time>2016-12-03T14:14:22.008Z</time>
      </trkpt>
      <trkpt lat="42.99522" lon="0.82667">
        <ele>760</ele>
        <time>2016-12-03T14:14:27.008Z</time>
      </trkpt>
      <trkpt lat="42.99512" lon="0.8267">
        <ele>763</ele>
        <time>2016-12-03T14:14:32.008Z</time>
      </trkpt>
      <trkpt lat="42.99504" lon="0.82671">
        <ele>764.04399416313</ele>
        <time>2016-12-03T14:14:36.008Z</time>
      </trkpt>
      <trkpt lat="42.99494" lon="0.8267">
        <ele>768</ele>
        <time>2016-12-03T14:14:42.008Z</time>
      </trkpt>
      <trkpt lat="42.99485" lon="0.82668">
        <ele>768</ele>
        <time>2016-12-03T14:14:47.008Z</time>
      </trkpt>
      <trkpt lat="42.99478" lon="0.82665">
        <ele>769.04400583672</ele>
        <time>2016-12-03T14:14:51.008Z</time>
      </trkpt>
      <trkpt lat="42.9947" lon="0.82663">
        <ele>773</ele>
        <time>2016-12-03T14:15:02.008Z</time>
      </trkpt>
      <trkpt lat="42.99465" lon="0.82653">
        <ele>775</ele>
        <time>2016-12-03T14:15:18.008Z</time>
      </trkpt>
      <trkpt lat="42.99464" lon="0.82644">
        <ele>778</ele>
        <time>2016-12-03T14:15:28.008Z</time>
      </trkpt>
      <trkpt lat="42.99465" lon="0.82635">
        <ele>779</ele>
        <time>2016-12-03T14:15:35.008Z</time>
      </trkpt>
      <trkpt lat="42.99466" lon="0.82623">
        <ele>781</ele>
        <time>2016-12-03T14:15:47.008Z</time>
      </trkpt>
      <trkpt lat="42.99463" lon="0.82611">
        <ele>786</ele>
        <time>2016-12-03T14:15:59.008Z</time>
      </trkpt>
      <trkpt lat="42.99464" lon="0.82601">
        <ele>787</ele>
        <time>2016-12-03T14:16:09.008Z</time>
      </trkpt>
      <trkpt lat="42.99466" lon="0.82593">
        <ele>788</ele>
        <time>2016-12-03T14:16:16.008Z</time>
      </trkpt>
      <trkpt lat="42.99466" lon="0.82585">
        <ele>789</ele>
        <time>2016-12-03T14:16:22.008Z</time>
      </trkpt>
      <trkpt lat="42.9947" lon="0.82579">
        <ele>789</ele>
        <time>2016-12-03T14:17:07.008Z</time>
      </trkpt>
      <trkpt lat="42.99472" lon="0.8257">
        <ele>789.34800194557</ele>
        <time>2016-12-03T14:17:11.008Z</time>
      </trkpt>
      <trkpt lat="42.99474" lon="0.82558">
        <ele>790</ele>
        <time>2016-12-03T14:17:15.008Z</time>
      </trkpt>
      <trkpt lat="42.99477" lon="0.82545">
        <ele>790</ele>
        <time>2016-12-03T14:17:19.008Z</time>
      </trkpt>
      <trkpt lat="42.99483" lon="0.82534">
        <ele>790</ele>
        <time>2016-12-03T14:17:22.008Z</time>
      </trkpt>
      <trkpt lat="42.99487" lon="0.82522">
        <ele>790</ele>
        <time>2016-12-03T14:17:25.008Z</time>
      </trkpt>
      <trkpt lat="42.99488" lon="0.82508">
        <ele>790</ele>
        <time>2016-12-03T14:17:28.008Z</time>
      </trkpt>
      <trkpt lat="42.99484" lon="0.82491">
        <ele>789.65199805443</ele>
        <time>2016-12-03T14:17:31.008Z</time>
      </trkpt>
      <trkpt lat="42.99479" lon="0.82481">
        <ele>789</ele>
        <time>2016-12-03T14:17:33.008Z</time>
      </trkpt>
      <trkpt lat="42.99469" lon="0.82464">
        <ele>789</ele>
        <time>2016-12-03T14:17:36.008Z</time>
      </trkpt>
      <trkpt lat="42.99462" lon="0.8245">
        <ele>789</ele>
        <time>2016-12-03T14:17:38.008Z</time>
      </trkpt>
      <trkpt lat="42.99456" lon="0.82434">
        <ele>789</ele>
        <time>2016-12-03T14:17:40.008Z</time>
      </trkpt>
      <trkpt lat="42.99448" lon="0.8242">
        <ele>786</ele>
        <time>2016-12-03T14:17:42.008Z</time>
      </trkpt>
      <trkpt lat="42.99437" lon="0.82407">
        <ele>786</ele>
        <time>2016-12-03T14:17:44.008Z</time>
      </trkpt>
      <trkpt lat="42.99427" lon="0.82395">
        <ele>785.30400389125</ele>
        <time>2016-12-03T14:17:46.008Z</time>
      </trkpt>
      <trkpt lat="42.99419" lon="0.82382">
        <ele>784</ele>
        <time>2016-12-03T14:17:48.008Z</time>
      </trkpt>
      <trkpt lat="42.99409" lon="0.8237">
        <ele>784</ele>
        <time>2016-12-03T14:17:50.008Z</time>
      </trkpt>
      <trkpt lat="42.99399" lon="0.82357">
        <ele>780.30400389125</ele>
        <time>2016-12-03T14:17:52.008Z</time>
      </trkpt>
      <trkpt lat="42.99388" lon="0.82344">
        <ele>778.65200194562</ele>
        <time>2016-12-03T14:17:54.008Z</time>
      </trkpt>
      <trkpt lat="42.99376" lon="0.82333">
        <ele>777.65200194562</ele>
        <time>2016-12-03T14:17:56.008Z</time>
      </trkpt>
      <trkpt lat="42.99366" lon="0.82323">
        <ele>777</ele>
        <time>2016-12-03T14:17:58.008Z</time>
      </trkpt>
      <trkpt lat="42.99355" lon="0.82309">
        <ele>776</ele>
        <time>2016-12-03T14:18:00.008Z</time>
      </trkpt>
      <trkpt lat="42.99344" lon="0.82298">
        <ele>776</ele>
        <time>2016-12-03T14:18:02.008Z</time>
      </trkpt>
      <trkpt lat="42.99335" lon="0.8229">
        <ele>776</ele>
        <time>2016-12-03T14:18:04.008Z</time>
      </trkpt>
      <trkpt lat="42.99326" lon="0.82286">
        <ele>776</ele>
        <time>2016-12-03T14:18:06.008Z</time>
      </trkpt>
      <trkpt lat="42.99316" lon="0.8228">
        <ele>777</ele>
        <time>2016-12-03T14:18:08.008Z</time>
      </trkpt>
      <trkpt lat="42.99306" lon="0.82277">
        <ele>777</ele>
        <time>2016-12-03T14:18:11.008Z</time>
      </trkpt>
      <trkpt lat="42.99295" lon="0.82275">
        <ele>777</ele>
        <time>2016-12-03T14:18:15.008Z</time>
      </trkpt>
      <trkpt lat="42.99285" lon="0.82272">
        <ele>777</ele>
        <time>2016-12-03T14:18:18.008Z</time>
      </trkpt>
      <trkpt lat="42.99272" lon="0.82268">
        <ele>778</ele>
        <time>2016-12-03T14:18:22.008Z</time>
      </trkpt>
      <trkpt lat="42.99258" lon="0.82267">
        <ele>778</ele>
        <time>2016-12-03T14:18:26.008Z</time>
      </trkpt>
      <trkpt lat="42.99247" lon="0.82267">
        <ele>778</ele>
        <time>2016-12-03T14:18:29.008Z</time>
      </trkpt>
      <trkpt lat="42.99239" lon="0.82256">
        <ele>777</ele>
        <time>2016-12-03T14:18:33.008Z</time>
      </trkpt>
      <trkpt lat="42.99241" lon="0.8224">
        <ele>777</ele>
        <time>2016-12-03T14:18:36.008Z</time>
      </trkpt>
      <trkpt lat="42.99243" lon="0.82223">
        <ele>777</ele>
        <time>2016-12-03T14:18:40.008Z</time>
      </trkpt>
      <trkpt lat="42.99247" lon="0.82208">
        <ele>777</ele>
        <time>2016-12-03T14:18:44.008Z</time>
      </trkpt>
      <trkpt lat="42.99254" lon="0.82195">
        <ele>777</ele>
        <time>2016-12-03T14:18:49.008Z</time>
      </trkpt>
      <trkpt lat="42.99266" lon="0.8219">
        <ele>779</ele>
        <time>2016-12-03T14:18:53.008Z</time>
      </trkpt>
      <trkpt lat="42.99275" lon="0.82183">
        <ele>779</ele>
        <time>2016-12-03T14:18:57.008Z</time>
      </trkpt>
      <trkpt lat="42.99282" lon="0.82177">
        <ele>779</ele>
        <time>2016-12-03T14:18:59.008Z</time>
      </trkpt>
      <trkpt lat="42.99289" lon="0.82168">
        <ele>778.30399610885</ele>
        <time>2016-12-03T14:19:01.008Z</time>
      </trkpt>
      <trkpt lat="42.99293" lon="0.82157">
        <ele>777</ele>
        <time>2016-12-03T14:19:03.008Z</time>
      </trkpt>
      <trkpt lat="42.99297" lon="0.82143">
        <ele>777</ele>
        <time>2016-12-03T14:19:05.008Z</time>
      </trkpt>
      <trkpt lat="42.99299" lon="0.82129">
        <ele>777</ele>
        <time>2016-12-03T14:19:07.008Z</time>
      </trkpt>
      <trkpt lat="42.99303" lon="0.82117">
        <ele>777</ele>
        <time>2016-12-03T14:19:09.008Z</time>
      </trkpt>
      <trkpt lat="42.99307" lon="0.82105">
        <ele>775.95599416328</ele>
        <time>2016-12-03T14:19:11.008Z</time>
      </trkpt>
      <trkpt lat="42.99312" lon="0.82098">
        <ele>774</ele>
        <time>2016-12-03T14:19:13.008Z</time>
      </trkpt>
      <trkpt lat="42.9932" lon="0.82093">
        <ele>773.65200194562</ele>
        <time>2016-12-03T14:19:16.008Z</time>
      </trkpt>
      <trkpt lat="42.99326" lon="0.82087">
        <ele>773</ele>
        <time>2016-12-03T14:19:19.008Z</time>
      </trkpt>
      <trkpt lat="42.99334" lon="0.82081">
        <ele>775</ele>
        <time>2016-12-03T14:19:22.008Z</time>
      </trkpt>
      <trkpt lat="42.9934" lon="0.82073">
        <ele>775</ele>
        <time>2016-12-03T14:19:24.008Z</time>
      </trkpt>
      <trkpt lat="42.99346" lon="0.8206">
        <ele>775</ele>
        <time>2016-12-03T14:19:26.008Z</time>
      </trkpt>
      <trkpt lat="42.99349" lon="0.82045">
        <ele>775</ele>
        <time>2016-12-03T14:19:28.008Z</time>
      </trkpt>
      <trkpt lat="42.99351" lon="0.82027">
        <ele>775</ele>
        <time>2016-12-03T14:19:30.008Z</time>
      </trkpt>
      <trkpt lat="42.99354" lon="0.82007">
        <ele>770</ele>
        <time>2016-12-03T14:19:32.008Z</time>
      </trkpt>
      <trkpt lat="42.99356" lon="0.81988">
        <ele>770</ele>
        <time>2016-12-03T14:19:34.008Z</time>
      </trkpt>
      <trkpt lat="42.99358" lon="0.81968">
        <ele>768.6080077825</ele>
        <time>2016-12-03T14:19:36.008Z</time>
      </trkpt>
      <trkpt lat="42.99358" lon="0.8195">
        <ele>766</ele>
        <time>2016-12-03T14:19:38.008Z</time>
      </trkpt>
      <trkpt lat="42.99355" lon="0.81917">
        <ele>764.25999027212</ele>
        <time>2016-12-03T14:19:41.008Z</time>
      </trkpt>
      <trkpt lat="42.99349" lon="0.81896">
        <ele>758.65199805443</ele>
        <time>2016-12-03T14:19:43.008Z</time>
      </trkpt>
      <trkpt lat="42.99342" lon="0.81877">
        <ele>755.65199805443</ele>
        <time>2016-12-03T14:19:45.008Z</time>
      </trkpt>
      <trkpt lat="42.99335" lon="0.81863">
        <ele>752.65544248292</ele>
        <time>2016-12-03T14:19:47.008Z</time>
      </trkpt>
      <trkpt lat="42.99323" lon="0.81833">
        <ele>750</ele>
        <time>2016-12-03T14:19:50.008Z</time>
      </trkpt>
      <trkpt lat="42.99311" lon="0.81813">
        <ele>747.65199805443</ele>
        <time>2016-12-03T14:19:53.008Z</time>
      </trkpt>
      <trkpt lat="42.99309" lon="0.81796">
        <ele>746</ele>
        <time>2016-12-03T14:19:56.008Z</time>
      </trkpt>
      <trkpt lat="42.9932" lon="0.81793">
        <ele>745.65200194562</ele>
        <time>2016-12-03T14:19:58.008Z</time>
      </trkpt>
      <trkpt lat="42.99333" lon="0.81789">
        <ele>743.65200194562</ele>
        <time>2016-12-03T14:20:00.008Z</time>
      </trkpt>
      <trkpt lat="42.99352" lon="0.8178">
        <ele>743</ele>
        <time>2016-12-03T14:20:03.008Z</time>
      </trkpt>
      <trkpt lat="42.99363" lon="0.81772">
        <ele>742.65199805443</ele>
        <time>2016-12-03T14:20:05.008Z</time>
      </trkpt>
      <trkpt lat="42.99373" lon="0.81763">
        <ele>741.65199805443</ele>
        <time>2016-12-03T14:20:07.008Z</time>
      </trkpt>
      <trkpt lat="42.99384" lon="0.81754">
        <ele>740.65199805443</ele>
        <time>2016-12-03T14:20:09.008Z</time>
      </trkpt>
      <trkpt lat="42.99391" lon="0.81742">
        <ele>740</ele>
        <time>2016-12-03T14:20:11.008Z</time>
      </trkpt>
      <trkpt lat="42.99395" lon="0.81726">
        <ele>740</ele>
        <time>2016-12-03T14:20:13.008Z</time>
      </trkpt>
      <trkpt lat="42.99392" lon="0.81714">
        <ele>739.65200194562</ele>
        <time>2016-12-03T14:20:16.008Z</time>
      </trkpt>
      <trkpt lat="42.99381" lon="0.81706">
        <ele>739</ele>
        <time>2016-12-03T14:20:19.008Z</time>
      </trkpt>
      <trkpt lat="42.99368" lon="0.81697">
        <ele>738</ele>
        <time>2016-12-03T14:20:22.008Z</time>
      </trkpt>
      <trkpt lat="42.99358" lon="0.81688">
        <ele>738</ele>
        <time>2016-12-03T14:20:24.008Z</time>
      </trkpt>
      <trkpt lat="42.99344" lon="0.81672">
        <ele>738</ele>
        <time>2016-12-03T14:20:27.008Z</time>
      </trkpt>
      <trkpt lat="42.99334" lon="0.81657">
        <ele>738</ele>
        <time>2016-12-03T14:20:30.008Z</time>
      </trkpt>
      <trkpt lat="42.99329" lon="0.81642">
        <ele>736</ele>
        <time>2016-12-03T14:20:32.008Z</time>
      </trkpt>
      <trkpt lat="42.99326" lon="0.81626">
        <ele>736</ele>
        <time>2016-12-03T14:20:34.008Z</time>
      </trkpt>
      <trkpt lat="42.99324" lon="0.81612">
        <ele>736</ele>
        <time>2016-12-03T14:20:36.008Z</time>
      </trkpt>
      <trkpt lat="42.99321" lon="0.81595">
        <ele>736</ele>
        <time>2016-12-03T14:20:39.008Z</time>
      </trkpt>
      <trkpt lat="42.99313" lon="0.81582">
        <ele>734.95599416328</ele>
        <time>2016-12-03T14:20:41.008Z</time>
      </trkpt>
      <trkpt lat="42.99307" lon="0.8157">
        <ele>733</ele>
        <time>2016-12-03T14:20:43.008Z</time>
      </trkpt>
      <trkpt lat="42.99302" lon="0.81545">
        <ele>732.65200194562</ele>
        <time>2016-12-03T14:20:46.008Z</time>
      </trkpt>
      <trkpt lat="42.99301" lon="0.8152">
        <ele>732</ele>
        <time>2016-12-03T14:20:49.008Z</time>
      </trkpt>
      <trkpt lat="42.99299" lon="0.81504">
        <ele>731.65199805443</ele>
        <time>2016-12-03T14:20:51.008Z</time>
      </trkpt>
      <trkpt lat="42.99292" lon="0.81487">
        <ele>731</ele>
        <time>2016-12-03T14:20:54.008Z</time>
      </trkpt>
      <trkpt lat="42.99289" lon="0.81471">
        <ele>732</ele>
        <time>2016-12-03T14:20:57.008Z</time>
      </trkpt>
      <trkpt lat="42.99285" lon="0.81458">
        <ele>732</ele>
        <time>2016-12-03T14:21:00.008Z</time>
      </trkpt>
      <trkpt lat="42.9928" lon="0.81443">
        <ele>732</ele>
        <time>2016-12-03T14:21:04.008Z</time>
      </trkpt>
      <trkpt lat="42.99277" lon="0.81429">
        <ele>732</ele>
        <time>2016-12-03T14:21:07.008Z</time>
      </trkpt>
      <trkpt lat="42.99272" lon="0.81409">
        <ele>732.34800194557</ele>
        <time>2016-12-03T14:21:11.008Z</time>
      </trkpt>
      <trkpt lat="42.99268" lon="0.81392">
        <ele>733</ele>
        <time>2016-12-03T14:21:14.008Z</time>
      </trkpt>
      <trkpt lat="42.99268" lon="0.81378">
        <ele>733</ele>
        <time>2016-12-03T14:21:17.008Z</time>
      </trkpt>
      <trkpt lat="42.99268" lon="0.81364">
        <ele>733</ele>
        <time>2016-12-03T14:21:20.008Z</time>
      </trkpt>
      <trkpt lat="42.99269" lon="0.8135">
        <ele>735</ele>
        <time>2016-12-03T14:21:23.008Z</time>
      </trkpt>
      <trkpt lat="42.99274" lon="0.81336">
        <ele>735</ele>
        <time>2016-12-03T14:21:26.008Z</time>
      </trkpt>
      <trkpt lat="42.99277" lon="0.81319">
        <ele>735</ele>
        <time>2016-12-03T14:21:30.008Z</time>
      </trkpt>
      <trkpt lat="42.99279" lon="0.81307">
        <ele>736</ele>
        <time>2016-12-03T14:21:34.008Z</time>
      </trkpt>
      <trkpt lat="42.99283" lon="0.81295">
        <ele>736</ele>
        <time>2016-12-03T14:21:37.008Z</time>
      </trkpt>
      <trkpt lat="42.99287" lon="0.81281">
        <ele>736</ele>
        <time>2016-12-03T14:21:40.008Z</time>
      </trkpt>
      <trkpt lat="42.99291" lon="0.81271">
        <ele>738</ele>
        <time>2016-12-03T14:21:42.008Z</time>
      </trkpt>
      <trkpt lat="42.99296" lon="0.81254">
        <ele>738</ele>
        <time>2016-12-03T14:21:46.008Z</time>
      </trkpt>
      <trkpt lat="42.99298" lon="0.81241">
        <ele>738</ele>
        <time>2016-12-03T14:21:49.008Z</time>
      </trkpt>
      <trkpt lat="42.99299" lon="0.81227">
        <ele>737.30399610885</ele>
        <time>2016-12-03T14:21:51.008Z</time>
      </trkpt>
      <trkpt lat="42.99299" lon="0.81204">
        <ele>736</ele>
        <time>2016-12-03T14:21:54.008Z</time>
      </trkpt>
      <trkpt lat="42.99299" lon="0.81189">
        <ele>737</ele>
        <time>2016-12-03T14:21:57.008Z</time>
      </trkpt>
      <trkpt lat="42.99304" lon="0.8118">
        <ele>735</ele>
        <time>2016-12-03T14:22:25.008Z</time>
      </trkpt>
      <trkpt lat="42.99302" lon="0.81169">
        <ele>735</ele>
        <time>2016-12-03T14:22:28.008Z</time>
      </trkpt>
      <trkpt lat="42.99299" lon="0.81156">
        <ele>735</ele>
        <time>2016-12-03T14:22:31.008Z</time>
      </trkpt>
      <trkpt lat="42.99297" lon="0.81141">
        <ele>735</ele>
        <time>2016-12-03T14:22:35.008Z</time>
      </trkpt>
      <trkpt lat="42.99298" lon="0.81125">
        <ele>735</ele>
        <time>2016-12-03T14:22:39.008Z</time>
      </trkpt>
      <trkpt lat="42.99295" lon="0.81108">
        <ele>736</ele>
        <time>2016-12-03T14:22:43.008Z</time>
      </trkpt>
      <trkpt lat="42.99293" lon="0.81095">
        <ele>736</ele>
        <time>2016-12-03T14:22:46.008Z</time>
      </trkpt>
      <trkpt lat="42.99293" lon="0.8108">
        <ele>736</ele>
        <time>2016-12-03T14:22:50.008Z</time>
      </trkpt>
      <trkpt lat="42.99292" lon="0.81068">
        <ele>739</ele>
        <time>2016-12-03T14:22:53.008Z</time>
      </trkpt>
      <trkpt lat="42.99296" lon="0.81054">
        <ele>736</ele>
        <time>2016-12-03T14:22:57.008Z</time>
      </trkpt>
      <trkpt lat="42.99303" lon="0.81042">
        <ele>736</ele>
        <time>2016-12-03T14:22:59.008Z</time>
      </trkpt>
      <trkpt lat="42.99308" lon="0.8103">
        <ele>732.51998054425</ele>
        <time>2016-12-03T14:23:01.008Z</time>
      </trkpt>
      <trkpt lat="42.99311" lon="0.81015">
        <ele>725</ele>
        <time>2016-12-03T14:23:04.008Z</time>
      </trkpt>
      <trkpt lat="42.99314" lon="0.80999">
        <ele>719.65199805443</ele>
        <time>2016-12-03T14:23:07.008Z</time>
      </trkpt>
      <trkpt lat="42.99317" lon="0.80984">
        <ele>715.30400389125</ele>
        <time>2016-12-03T14:23:10.008Z</time>
      </trkpt>
      <trkpt lat="42.9932" lon="0.80965">
        <ele>710.65199805443</ele>
        <time>2016-12-03T14:23:13.008Z</time>
      </trkpt>
      <trkpt lat="42.99323" lon="0.80949">
        <ele>708.30400389125</ele>
        <time>2016-12-03T14:23:16.008Z</time>
      </trkpt>
      <trkpt lat="42.99328" lon="0.80935">
        <ele>705.65199805443</ele>
        <time>2016-12-03T14:23:19.008Z</time>
      </trkpt>
      <trkpt lat="42.99336" lon="0.80922">
        <ele>700.65200194562</ele>
        <time>2016-12-03T14:23:22.008Z</time>
      </trkpt>
      <trkpt lat="42.99342" lon="0.80911">
        <ele>698.30400389125</ele>
        <time>2016-12-03T14:23:24.008Z</time>
      </trkpt>
      <trkpt lat="42.99346" lon="0.80894">
        <ele>693.65199805443</ele>
        <time>2016-12-03T14:23:27.008Z</time>
      </trkpt>
      <trkpt lat="42.99344" lon="0.80877">
        <ele>689.30400389125</ele>
        <time>2016-12-03T14:23:30.008Z</time>
      </trkpt>
      <trkpt lat="42.99342" lon="0.8086">
        <ele>685.30399610885</ele>
        <time>2016-12-03T14:23:33.008Z</time>
      </trkpt>
      <trkpt lat="42.99343" lon="0.80844">
        <ele>681.31717156045</ele>
        <time>2016-12-03T14:23:36.008Z</time>
      </trkpt>
      <trkpt lat="42.9934" lon="0.80825">
        <ele>675.95599416328</ele>
        <time>2016-12-03T14:23:39.008Z</time>
      </trkpt>
      <trkpt lat="42.99339" lon="0.80811">
        <ele>673.65199805443</ele>
        <time>2016-12-03T14:23:41.008Z</time>
      </trkpt>
      <trkpt lat="42.99337" lon="0.80793">
        <ele>669.30400389125</ele>
        <time>2016-12-03T14:23:44.008Z</time>
      </trkpt>
      <trkpt lat="42.99336" lon="0.80775">
        <ele>665.65199805443</ele>
        <time>2016-12-03T14:23:47.008Z</time>
      </trkpt>
      <trkpt lat="42.99339" lon="0.80757">
        <ele>662.30400389125</ele>
        <time>2016-12-03T14:23:50.008Z</time>
      </trkpt>
      <trkpt lat="42.99341" lon="0.80743">
        <ele>659.65200194562</ele>
        <time>2016-12-03T14:23:52.008Z</time>
      </trkpt>
      <trkpt lat="42.99342" lon="0.80729">
        <ele>657.65200194562</ele>
        <time>2016-12-03T14:23:54.008Z</time>
      </trkpt>
      <trkpt lat="42.99345" lon="0.80713">
        <ele>655.30400389125</ele>
        <time>2016-12-03T14:23:56.008Z</time>
      </trkpt>
      <trkpt lat="42.99347" lon="0.80697">
        <ele>651.65200194562</ele>
        <time>2016-12-03T14:23:58.008Z</time>
      </trkpt>
      <trkpt lat="42.99349" lon="0.8068">
        <ele>648.30399610885</ele>
        <time>2016-12-03T14:24:01.008Z</time>
      </trkpt>
      <trkpt lat="42.99349" lon="0.80671">
        <ele>647</ele>
        <time>2016-12-03T14:24:14.008Z</time>
      </trkpt>
      <trkpt lat="42.99353" lon="0.80667">
        <ele>647</ele>
        <time>2016-12-03T14:24:17.008Z</time>
      </trkpt>
      <trkpt lat="42.9936" lon="0.80666">
        <ele>647</ele>
        <time>2016-12-03T14:24:19.008Z</time>
      </trkpt>
      <trkpt lat="42.99367" lon="0.8067">
        <ele>645.95599416328</ele>
        <time>2016-12-03T14:24:21.008Z</time>
      </trkpt>
      <trkpt lat="42.99376" lon="0.8068">
        <ele>644</ele>
        <time>2016-12-03T14:24:24.008Z</time>
      </trkpt>
      <trkpt lat="42.99382" lon="0.80671">
        <ele>642.26000972812</ele>
        <time>2016-12-03T14:24:26.008Z</time>
      </trkpt>
      <trkpt lat="42.99387" lon="0.80659">
        <ele>639</ele>
        <time>2016-12-03T14:24:28.008Z</time>
      </trkpt>
      <trkpt lat="42.9939" lon="0.80648">
        <ele>639</ele>
        <time>2016-12-03T14:24:30.008Z</time>
      </trkpt>
      <trkpt lat="42.99393" lon="0.80639">
        <ele>634.65200194562</ele>
        <time>2016-12-03T14:24:32.008Z</time>
      </trkpt>
      <trkpt lat="42.99394" lon="0.80624">
        <ele>630.65199805443</ele>
        <time>2016-12-03T14:24:35.008Z</time>
      </trkpt>
      <trkpt lat="42.99393" lon="0.80606">
        <ele>627.65200194562</ele>
        <time>2016-12-03T14:24:38.008Z</time>
      </trkpt>
      <trkpt lat="42.99389" lon="0.80589">
        <ele>624.30400389125</ele>
        <time>2016-12-03T14:24:40.008Z</time>
      </trkpt>
      <trkpt lat="42.99386" lon="0.80572">
        <ele>621.65200194562</ele>
        <time>2016-12-03T14:24:42.008Z</time>
      </trkpt>
      <trkpt lat="42.99387" lon="0.80555">
        <ele>620</ele>
        <time>2016-12-03T14:24:44.008Z</time>
      </trkpt>
      <trkpt lat="42.99393" lon="0.80541">
        <ele>619.65200194562</ele>
        <time>2016-12-03T14:24:46.008Z</time>
      </trkpt>
      <trkpt lat="42.99403" lon="0.80528">
        <ele>617.65200194562</ele>
        <time>2016-12-03T14:24:48.008Z</time>
      </trkpt>
      <trkpt lat="42.99413" lon="0.80515">
        <ele>614.65200194562</ele>
        <time>2016-12-03T14:24:50.008Z</time>
      </trkpt>
      <trkpt lat="42.99423" lon="0.80502">
        <ele>613.65858578023</ele>
        <time>2016-12-03T14:24:52.008Z</time>
      </trkpt>
      <trkpt lat="42.99432" lon="0.8049">
        <ele>610.65200194562</ele>
        <time>2016-12-03T14:24:54.008Z</time>
      </trkpt>
      <trkpt lat="42.9944" lon="0.8048">
        <ele>608.65200194562</ele>
        <time>2016-12-03T14:24:56.008Z</time>
      </trkpt>
      <trkpt lat="42.99449" lon="0.80467">
        <ele>605.65199805443</ele>
        <time>2016-12-03T14:24:59.008Z</time>
      </trkpt>
      <trkpt lat="42.99458" lon="0.80459">
        <ele>603.30399610885</ele>
        <time>2016-12-03T14:25:01.008Z</time>
      </trkpt>
      <trkpt lat="42.99466" lon="0.8045">
        <ele>602</ele>
        <time>2016-12-03T14:25:03.008Z</time>
      </trkpt>
      <trkpt lat="42.99473" lon="0.80438">
        <ele>599.65199805443</ele>
        <time>2016-12-03T14:25:05.008Z</time>
      </trkpt>
      <trkpt lat="42.99481" lon="0.80428">
        <ele>597.65199805443</ele>
        <time>2016-12-03T14:25:07.008Z</time>
      </trkpt>
      <trkpt lat="42.99489" lon="0.80413">
        <ele>596.65199805443</ele>
        <time>2016-12-03T14:25:09.008Z</time>
      </trkpt>
      <trkpt lat="42.99496" lon="0.804">
        <ele>593.65199805443</ele>
        <time>2016-12-03T14:25:11.008Z</time>
      </trkpt>
      <trkpt lat="42.99503" lon="0.80387">
        <ele>592.65199805443</ele>
        <time>2016-12-03T14:25:13.008Z</time>
      </trkpt>
      <trkpt lat="42.9951" lon="0.80372">
        <ele>590.65199805443</ele>
        <time>2016-12-03T14:25:15.008Z</time>
      </trkpt>
      <trkpt lat="42.99517" lon="0.80354">
        <ele>589</ele>
        <time>2016-12-03T14:25:17.008Z</time>
      </trkpt>
      <trkpt lat="42.99521" lon="0.80346">
        <ele>588.65200194562</ele>
        <time>2016-12-03T14:25:18.008Z</time>
      </trkpt>
      <trkpt lat="42.99524" lon="0.80337">
        <ele>587.65199805443</ele>
        <time>2016-12-03T14:25:19.008Z</time>
      </trkpt>
      <trkpt lat="42.99527" lon="0.80329">
        <ele>586.65200194562</ele>
        <time>2016-12-03T14:25:20.008Z</time>
      </trkpt>
      <trkpt lat="42.99533" lon="0.80313">
        <ele>584.65200194562</ele>
        <time>2016-12-03T14:25:22.008Z</time>
      </trkpt>
      <trkpt lat="42.99536" lon="0.80306">
        <ele>584</ele>
        <time>2016-12-03T14:25:23.008Z</time>
      </trkpt>
      <trkpt lat="42.9954" lon="0.803">
        <ele>583.65200194562</ele>
        <time>2016-12-03T14:25:24.008Z</time>
      </trkpt>
      <trkpt lat="42.99544" lon="0.80293">
        <ele>582.65199805443</ele>
        <time>2016-12-03T14:25:25.008Z</time>
      </trkpt>
      <trkpt lat="42.99547" lon="0.80287">
        <ele>581.65200194562</ele>
        <time>2016-12-03T14:25:26.008Z</time>
      </trkpt>
      <trkpt lat="42.99551" lon="0.8028">
        <ele>580.65199805443</ele>
        <time>2016-12-03T14:25:27.008Z</time>
      </trkpt>
      <trkpt lat="42.99554" lon="0.80273">
        <ele>579.65200194562</ele>
        <time>2016-12-03T14:25:28.008Z</time>
      </trkpt>
      <trkpt lat="42.99558" lon="0.80266">
        <ele>578.65544248292</ele>
        <time>2016-12-03T14:25:29.008Z</time>
      </trkpt>
      <trkpt lat="42.99561" lon="0.80259">
        <ele>577.31717156045</ele>
        <time>2016-12-03T14:25:30.008Z</time>
      </trkpt>
      <trkpt lat="42.99568" lon="0.80245">
        <ele>574.65200194562</ele>
        <time>2016-12-03T14:25:32.008Z</time>
      </trkpt>
      <trkpt lat="42.99569" lon="0.8023">
        <ele>571.65200194562</ele>
        <time>2016-12-03T14:25:34.008Z</time>
      </trkpt>
      <trkpt lat="42.99565" lon="0.80214">
        <ele>570</ele>
        <time>2016-12-03T14:25:36.008Z</time>
      </trkpt>
      <trkpt lat="42.99557" lon="0.80198">
        <ele>569.65200194562</ele>
        <time>2016-12-03T14:25:38.008Z</time>
      </trkpt>
      <trkpt lat="42.99552" lon="0.80183">
        <ele>567.65200194562</ele>
        <time>2016-12-03T14:25:40.008Z</time>
      </trkpt>
      <trkpt lat="42.9955" lon="0.80172">
        <ele>566.65200194562</ele>
        <time>2016-12-03T14:25:42.008Z</time>
      </trkpt>
      <trkpt lat="42.99549" lon="0.80164">
        <ele>565</ele>
        <time>2016-12-03T14:26:26.008Z</time>
      </trkpt>
      <trkpt lat="42.99551" lon="0.80158">
        <ele>565</ele>
        <time>2016-12-03T14:26:32.008Z</time>
      </trkpt>
      <trkpt lat="42.99551" lon="0.80152">
        <ele>565</ele>
        <time>2016-12-03T14:26:34.008Z</time>
      </trkpt>
      <trkpt lat="42.99552" lon="0.80144">
        <ele>565</ele>
        <time>2016-12-03T14:26:36.008Z</time>
      </trkpt>
      <trkpt lat="42.99553" lon="0.80134">
        <ele>565</ele>
        <time>2016-12-03T14:26:38.008Z</time>
      </trkpt>
      <trkpt lat="42.99553" lon="0.8013">
        <ele>565</ele>
        <time>2016-12-03T14:26:39.008Z</time>
      </trkpt>
      <trkpt lat="42.99555" lon="0.80121">
        <ele>564.30399610885</ele>
        <time>2016-12-03T14:26:41.008Z</time>
      </trkpt>
      <trkpt lat="42.99556" lon="0.80116">
        <ele>563</ele>
        <time>2016-12-03T14:26:42.008Z</time>
      </trkpt>
      <trkpt lat="42.99557" lon="0.80111">
        <ele>563</ele>
        <time>2016-12-03T14:26:43.008Z</time>
      </trkpt>
      <trkpt lat="42.99558" lon="0.80106">
        <ele>563</ele>
        <time>2016-12-03T14:26:44.008Z</time>
      </trkpt>
      <trkpt lat="42.99559" lon="0.80101">
        <ele>563</ele>
        <time>2016-12-03T14:26:45.008Z</time>
      </trkpt>
      <trkpt lat="42.9956" lon="0.80095">
        <ele>563</ele>
        <time>2016-12-03T14:26:46.008Z</time>
      </trkpt>
      <trkpt lat="42.99561" lon="0.80089">
        <ele>563</ele>
        <time>2016-12-03T14:26:47.008Z</time>
      </trkpt>
      <trkpt lat="42.99563" lon="0.80083">
        <ele>563</ele>
        <time>2016-12-03T14:26:48.008Z</time>
      </trkpt>
      <trkpt lat="42.99567" lon="0.8007">
        <ele>563</ele>
        <time>2016-12-03T14:26:50.008Z</time>
      </trkpt>
      <trkpt lat="42.99573" lon="0.8006">
        <ele>559</ele>
        <time>2016-12-03T14:26:52.008Z</time>
      </trkpt>
      <trkpt lat="42.99579" lon="0.80051">
        <ele>559</ele>
        <time>2016-12-03T14:26:54.008Z</time>
      </trkpt>
      <trkpt lat="42.99583" lon="0.80034">
        <ele>556</ele>
        <time>2016-12-03T14:26:57.008Z</time>
      </trkpt>
      <trkpt lat="42.99572" lon="0.80025">
        <ele>556</ele>
        <time>2016-12-03T14:27:00.008Z</time>
      </trkpt>
      <trkpt lat="42.99558" lon="0.80022">
        <ele>551</ele>
        <time>2016-12-03T14:27:03.008Z</time>
      </trkpt>
      <trkpt lat="42.99548" lon="0.80024">
        <ele>550.65199805443</ele>
        <time>2016-12-03T14:27:05.008Z</time>
      </trkpt>
      <trkpt lat="42.99538" lon="0.80029">
        <ele>548.65199805443</ele>
        <time>2016-12-03T14:27:07.008Z</time>
      </trkpt>
      <trkpt lat="42.99528" lon="0.80037">
        <ele>548</ele>
        <time>2016-12-03T14:27:09.008Z</time>
      </trkpt>
      <trkpt lat="42.99519" lon="0.80045">
        <ele>547</ele>
        <time>2016-12-03T14:27:11.008Z</time>
      </trkpt>
      <trkpt lat="42.99509" lon="0.8006">
        <ele>547</ele>
        <time>2016-12-03T14:27:14.008Z</time>
      </trkpt>
      <trkpt lat="42.99502" lon="0.80076">
        <ele>542</ele>
        <time>2016-12-03T14:27:17.008Z</time>
      </trkpt>
      <trkpt lat="42.99492" lon="0.80088">
        <ele>542</ele>
        <time>2016-12-03T14:27:20.008Z</time>
      </trkpt>
      <trkpt lat="42.99483" lon="0.80078">
        <ele>535.65200194562</ele>
        <time>2016-12-03T14:27:24.008Z</time>
      </trkpt>
      <trkpt lat="42.99484" lon="0.80062">
        <ele>533.65200194562</ele>
        <time>2016-12-03T14:27:26.008Z</time>
      </trkpt>
      <trkpt lat="42.99484" lon="0.80047">
        <ele>531.30400389125</ele>
        <time>2016-12-03T14:27:28.008Z</time>
      </trkpt>
      <trkpt lat="42.99483" lon="0.80033">
        <ele>529.65200194562</ele>
        <time>2016-12-03T14:27:30.008Z</time>
      </trkpt>
      <trkpt lat="42.99479" lon="0.80015">
        <ele>526.95600583687</ele>
        <time>2016-12-03T14:27:32.008Z</time>
      </trkpt>
      <trkpt lat="42.99475" lon="0.79996">
        <ele>523</ele>
        <time>2016-12-03T14:27:34.008Z</time>
      </trkpt>
      <trkpt lat="42.99469" lon="0.79979">
        <ele>521.65200194562</ele>
        <time>2016-12-03T14:27:36.008Z</time>
      </trkpt>
      <trkpt lat="42.99459" lon="0.79963">
        <ele>520.65200194562</ele>
        <time>2016-12-03T14:27:38.008Z</time>
      </trkpt>
      <trkpt lat="42.99449" lon="0.79947">
        <ele>518.30400389125</ele>
        <time>2016-12-03T14:27:40.008Z</time>
      </trkpt>
      <trkpt lat="42.99439" lon="0.79934">
        <ele>514.95600583687</ele>
        <time>2016-12-03T14:27:42.008Z</time>
      </trkpt>
      <trkpt lat="42.99431" lon="0.79925">
        <ele>512</ele>
        <time>2016-12-03T14:27:44.008Z</time>
      </trkpt>
      <trkpt lat="42.99427" lon="0.79916">
        <ele>511</ele>
        <time>2016-12-03T14:27:52.008Z</time>
      </trkpt>
      <trkpt lat="42.99422" lon="0.79904">
        <ele>508</ele>
        <time>2016-12-03T14:28:05.008Z</time>
      </trkpt>
      <trkpt lat="42.99416" lon="0.79892">
        <ele>507</ele>
        <time>2016-12-03T14:28:08.008Z</time>
      </trkpt>
      <trkpt lat="42.99405" lon="0.79884">
        <ele>505.6079922177</ele>
        <time>2016-12-03T14:28:11.008Z</time>
      </trkpt>
      <trkpt lat="42.99397" lon="0.7988">
        <ele>503</ele>
        <time>2016-12-03T14:28:13.008Z</time>
      </trkpt>
      <trkpt lat="42.99389" lon="0.79875">
        <ele>503</ele>
        <time>2016-12-03T14:28:15.008Z</time>
      </trkpt>
      <trkpt lat="42.99381" lon="0.79871">
        <ele>499</ele>
        <time>2016-12-03T14:28:18.008Z</time>
      </trkpt>
      <trkpt lat="42.99377" lon="0.79877">
        <ele>499</ele>
        <time>2016-12-03T14:28:20.008Z</time>
      </trkpt>
      <trkpt lat="42.99374" lon="0.79883">
        <ele>497</ele>
        <time>2016-12-03T14:28:22.008Z</time>
      </trkpt>
      <trkpt lat="42.99368" lon="0.79889">
        <ele>496</ele>
        <time>2016-12-03T14:28:26.008Z</time>
      </trkpt>
      <trkpt lat="42.99367" lon="0.79876">
        <ele>495</ele>
        <time>2016-12-03T14:28:40.008Z</time>
      </trkpt>
      <trkpt lat="42.99363" lon="0.79864">
        <ele>496</ele>
        <time>2016-12-03T14:28:57.008Z</time>
      </trkpt>
      <trkpt lat="42.9936" lon="0.79855">
        <ele>495.69600389115</ele>
        <time>2016-12-03T14:29:11.008Z</time>
      </trkpt>
      <trkpt lat="42.99355" lon="0.79841">
        <ele>497</ele>
        <time>2016-12-03T14:29:17.008Z</time>
      </trkpt>
      <trkpt lat="42.99354" lon="0.79826">
        <ele>497.34800194557</ele>
        <time>2016-12-03T14:29:21.008Z</time>
      </trkpt>
      <trkpt lat="42.99355" lon="0.79813">
        <ele>498</ele>
        <time>2016-12-03T14:29:24.008Z</time>
      </trkpt>
      <trkpt lat="42.99355" lon="0.798">
        <ele>498</ele>
        <time>2016-12-03T14:29:27.008Z</time>
      </trkpt>
      <trkpt lat="42.99357" lon="0.79786">
        <ele>498</ele>
        <time>2016-12-03T14:29:30.008Z</time>
      </trkpt>
      <trkpt lat="42.9936" lon="0.79773">
        <ele>500</ele>
        <time>2016-12-03T14:29:33.008Z</time>
      </trkpt>
      <trkpt lat="42.99363" lon="0.79762">
        <ele>500</ele>
        <time>2016-12-03T14:29:36.008Z</time>
      </trkpt>
      <trkpt lat="42.99367" lon="0.7975">
        <ele>500</ele>
        <time>2016-12-03T14:29:39.008Z</time>
      </trkpt>
      <trkpt lat="42.99371" lon="0.79736">
        <ele>503</ele>
        <time>2016-12-03T14:29:43.008Z</time>
      </trkpt>
      <trkpt lat="42.99372" lon="0.79723">
        <ele>503</ele>
        <time>2016-12-03T14:29:46.008Z</time>
      </trkpt>
      <trkpt lat="42.99373" lon="0.79711">
        <ele>503</ele>
        <time>2016-12-03T14:29:49.008Z</time>
      </trkpt>
      <trkpt lat="42.99373" lon="0.79703">
        <ele>503.69600389115</ele>
        <time>2016-12-03T14:29:51.008Z</time>
      </trkpt>
      <trkpt lat="42.99373" lon="0.79699">
        <ele>505</ele>
        <time>2016-12-03T14:29:52.008Z</time>
      </trkpt>
      <trkpt lat="42.99373" lon="0.79695">
        <ele>505</ele>
        <time>2016-12-03T14:29:53.008Z</time>
      </trkpt>
      <trkpt lat="42.99373" lon="0.79691">
        <ele>505</ele>
        <time>2016-12-03T14:29:54.008Z</time>
      </trkpt>
      <trkpt lat="42.99373" lon="0.79687">
        <ele>505</ele>
        <time>2016-12-03T14:29:55.008Z</time>
      </trkpt>
      <trkpt lat="42.99372" lon="0.79683">
        <ele>505.34799805438</ele>
        <time>2016-12-03T14:29:56.008Z</time>
      </trkpt>
      <trkpt lat="42.99371" lon="0.79679">
        <ele>506</ele>
        <time>2016-12-03T14:29:57.008Z</time>
      </trkpt>
      <trkpt lat="42.9937" lon="0.79675">
        <ele>506</ele>
        <time>2016-12-03T14:29:58.008Z</time>
      </trkpt>
      <trkpt lat="42.99369" lon="0.79671">
        <ele>506</ele>
        <time>2016-12-03T14:29:59.008Z</time>
      </trkpt>
      <trkpt lat="42.99367" lon="0.79668">
        <ele>506</ele>
        <time>2016-12-03T14:30:00.008Z</time>
      </trkpt>
      <trkpt lat="42.99365" lon="0.79664">
        <ele>506.34800194557</ele>
        <time>2016-12-03T14:30:01.008Z</time>
      </trkpt>
      <trkpt lat="42.99363" lon="0.79661">
        <ele>507</ele>
        <time>2016-12-03T14:30:02.008Z</time>
      </trkpt>
      <trkpt lat="42.99361" lon="0.79659">
        <ele>507</ele>
        <time>2016-12-03T14:30:03.008Z</time>
      </trkpt>
      <trkpt lat="42.99359" lon="0.79657">
        <ele>507</ele>
        <time>2016-12-03T14:30:04.008Z</time>
      </trkpt>
      <trkpt lat="42.99356" lon="0.79655">
        <ele>507</ele>
        <time>2016-12-03T14:30:05.008Z</time>
      </trkpt>
      <trkpt lat="42.9935" lon="0.79651">
        <ele>507</ele>
        <time>2016-12-03T14:30:07.008Z</time>
      </trkpt>
      <trkpt lat="42.99344" lon="0.79647">
        <ele>507</ele>
        <time>2016-12-03T14:30:09.008Z</time>
      </trkpt>
      <trkpt lat="42.99338" lon="0.79645">
        <ele>507.69600389115</ele>
        <time>2016-12-03T14:30:11.008Z</time>
      </trkpt>
      <trkpt lat="42.99332" lon="0.79643">
        <ele>509</ele>
        <time>2016-12-03T14:30:13.008Z</time>
      </trkpt>
      <trkpt lat="42.99326" lon="0.79642">
        <ele>509</ele>
        <time>2016-12-03T14:30:15.008Z</time>
      </trkpt>
      <trkpt lat="42.9932" lon="0.79641">
        <ele>509</ele>
        <time>2016-12-03T14:30:17.008Z</time>
      </trkpt>
      <trkpt lat="42.99314" lon="0.79641">
        <ele>509</ele>
        <time>2016-12-03T14:30:19.008Z</time>
      </trkpt>
      <trkpt lat="42.99308" lon="0.79642">
        <ele>510.04400583672</ele>
        <time>2016-12-03T14:30:21.008Z</time>
      </trkpt>
      <trkpt lat="42.99302" lon="0.79644">
        <ele>512</ele>
        <time>2016-12-03T14:30:23.008Z</time>
      </trkpt>
      <trkpt lat="42.99296" lon="0.79645">
        <ele>512</ele>
        <time>2016-12-03T14:30:25.008Z</time>
      </trkpt>
      <trkpt lat="42.99289" lon="0.79646">
        <ele>513</ele>
        <time>2016-12-03T14:30:27.008Z</time>
      </trkpt>
      <trkpt lat="42.99282" lon="0.79647">
        <ele>513</ele>
        <time>2016-12-03T14:30:29.008Z</time>
      </trkpt>
      <trkpt lat="42.99276" lon="0.79649">
        <ele>513</ele>
        <time>2016-12-03T14:30:31.008Z</time>
      </trkpt>
      <trkpt lat="42.99269" lon="0.79651">
        <ele>513</ele>
        <time>2016-12-03T14:30:33.008Z</time>
      </trkpt>
      <trkpt lat="42.99262" lon="0.79653">
        <ele>513</ele>
        <time>2016-12-03T14:30:35.008Z</time>
      </trkpt>
      <trkpt lat="42.99256" lon="0.79656">
        <ele>513</ele>
        <time>2016-12-03T14:30:37.008Z</time>
      </trkpt>
      <trkpt lat="42.99249" lon="0.7966">
        <ele>513</ele>
        <time>2016-12-03T14:30:39.008Z</time>
      </trkpt>
      <trkpt lat="42.99243" lon="0.79663">
        <ele>513.69600389115</ele>
        <time>2016-12-03T14:30:41.008Z</time>
      </trkpt>
      <trkpt lat="42.99236" lon="0.79667">
        <ele>515</ele>
        <time>2016-12-03T14:30:43.008Z</time>
      </trkpt>
      <trkpt lat="42.9923" lon="0.79673">
        <ele>515</ele>
        <time>2016-12-03T14:30:45.008Z</time>
      </trkpt>
      <trkpt lat="42.99224" lon="0.79678">
        <ele>515</ele>
        <time>2016-12-03T14:30:47.008Z</time>
      </trkpt>
      <trkpt lat="42.99218" lon="0.79684">
        <ele>515</ele>
        <time>2016-12-03T14:30:49.008Z</time>
      </trkpt>
      <trkpt lat="42.99215" lon="0.79687">
        <ele>515</ele>
        <time>2016-12-03T14:30:50.008Z</time>
      </trkpt>
      <trkpt lat="42.99209" lon="0.79694">
        <ele>517</ele>
        <time>2016-12-03T14:30:52.008Z</time>
      </trkpt>
      <trkpt lat="42.99203" lon="0.797">
        <ele>517</ele>
        <time>2016-12-03T14:30:54.008Z</time>
      </trkpt>
      <trkpt lat="42.99197" lon="0.79707">
        <ele>517</ele>
        <time>2016-12-03T14:30:56.008Z</time>
      </trkpt>
      <trkpt lat="42.99191" lon="0.79713">
        <ele>517</ele>
        <time>2016-12-03T14:30:58.008Z</time>
      </trkpt>
      <trkpt lat="42.99188" lon="0.79716">
        <ele>517</ele>
        <time>2016-12-03T14:30:59.008Z</time>
      </trkpt>
      <trkpt lat="42.99185" lon="0.79719">
        <ele>517</ele>
        <time>2016-12-03T14:31:00.008Z</time>
      </trkpt>
      <trkpt lat="42.99182" lon="0.79723">
        <ele>517.34800194557</ele>
        <time>2016-12-03T14:31:01.008Z</time>
      </trkpt>
      <trkpt lat="42.99179" lon="0.79726">
        <ele>518</ele>
        <time>2016-12-03T14:31:02.008Z</time>
      </trkpt>
      <trkpt lat="42.99176" lon="0.79729">
        <ele>518</ele>
        <time>2016-12-03T14:31:03.008Z</time>
      </trkpt>
      <trkpt lat="42.99173" lon="0.79733">
        <ele>518</ele>
        <time>2016-12-03T14:31:04.008Z</time>
      </trkpt>
      <trkpt lat="42.9917" lon="0.79736">
        <ele>518</ele>
        <time>2016-12-03T14:31:05.008Z</time>
      </trkpt>
      <trkpt lat="42.99164" lon="0.79743">
        <ele>518</ele>
        <time>2016-12-03T14:31:07.008Z</time>
      </trkpt>
      <trkpt lat="42.99158" lon="0.79749">
        <ele>518</ele>
        <time>2016-12-03T14:31:09.008Z</time>
      </trkpt>
      <trkpt lat="42.99152" lon="0.79756">
        <ele>518.34800194557</ele>
        <time>2016-12-03T14:31:11.008Z</time>
      </trkpt>
      <trkpt lat="42.99146" lon="0.79762">
        <ele>519</ele>
        <time>2016-12-03T14:31:13.008Z</time>
      </trkpt>
      <trkpt lat="42.99143" lon="0.79766">
        <ele>519</ele>
        <time>2016-12-03T14:31:14.008Z</time>
      </trkpt>
      <trkpt lat="42.9914" lon="0.79769">
        <ele>519</ele>
        <time>2016-12-03T14:31:15.008Z</time>
      </trkpt>
      <trkpt lat="42.99137" lon="0.79773">
        <ele>519</ele>
        <time>2016-12-03T14:31:16.008Z</time>
      </trkpt>
      <trkpt lat="42.99132" lon="0.79781">
        <ele>519</ele>
        <time>2016-12-03T14:31:18.008Z</time>
      </trkpt>
      <trkpt lat="42.99126" lon="0.7979">
        <ele>519</ele>
        <time>2016-12-03T14:31:20.008Z</time>
      </trkpt>
      <trkpt lat="42.99124" lon="0.79796">
        <ele>519</ele>
        <time>2016-12-03T14:31:21.008Z</time>
      </trkpt>
      <trkpt lat="42.99122" lon="0.79802">
        <ele>519</ele>
        <time>2016-12-03T14:31:22.008Z</time>
      </trkpt>
      <trkpt lat="42.99119" lon="0.79809">
        <ele>519</ele>
        <time>2016-12-03T14:31:23.008Z</time>
      </trkpt>
      <trkpt lat="42.99117" lon="0.79817">
        <ele>519</ele>
        <time>2016-12-03T14:31:24.008Z</time>
      </trkpt>
      <trkpt lat="42.99115" lon="0.79825">
        <ele>519</ele>
        <time>2016-12-03T14:31:25.008Z</time>
      </trkpt>
      <trkpt lat="42.99113" lon="0.79833">
        <ele>519</ele>
        <time>2016-12-03T14:31:26.008Z</time>
      </trkpt>
      <trkpt lat="42.99111" lon="0.79841">
        <ele>519</ele>
        <time>2016-12-03T14:31:27.008Z</time>
      </trkpt>
      <trkpt lat="42.99108" lon="0.79849">
        <ele>519</ele>
        <time>2016-12-03T14:31:28.008Z</time>
      </trkpt>
      <trkpt lat="42.99106" lon="0.79857">
        <ele>519</ele>
        <time>2016-12-03T14:31:29.008Z</time>
      </trkpt>
      <trkpt lat="42.99104" lon="0.79866">
        <ele>519</ele>
        <time>2016-12-03T14:31:30.008Z</time>
      </trkpt>
      <trkpt lat="42.99102" lon="0.79874">
        <ele>518.65199805443</ele>
        <time>2016-12-03T14:31:31.008Z</time>
      </trkpt>
      <trkpt lat="42.99101" lon="0.79883">
        <ele>518</ele>
        <time>2016-12-03T14:31:32.008Z</time>
      </trkpt>
      <trkpt lat="42.99099" lon="0.79891">
        <ele>518</ele>
        <time>2016-12-03T14:31:33.008Z</time>
      </trkpt>
      <trkpt lat="42.99098" lon="0.799">
        <ele>518</ele>
        <time>2016-12-03T14:31:34.008Z</time>
      </trkpt>
      <trkpt lat="42.99096" lon="0.79909">
        <ele>518</ele>
        <time>2016-12-03T14:31:35.008Z</time>
      </trkpt>
      <trkpt lat="42.99094" lon="0.79918">
        <ele>518</ele>
        <time>2016-12-03T14:31:36.008Z</time>
      </trkpt>
      <trkpt lat="42.99093" lon="0.79926">
        <ele>518</ele>
        <time>2016-12-03T14:31:37.008Z</time>
      </trkpt>
      <trkpt lat="42.99091" lon="0.79935">
        <ele>518</ele>
        <time>2016-12-03T14:31:38.008Z</time>
      </trkpt>
      <trkpt lat="42.99089" lon="0.79944">
        <ele>518</ele>
        <time>2016-12-03T14:31:39.008Z</time>
      </trkpt>
      <trkpt lat="42.99088" lon="0.79953">
        <ele>518</ele>
        <time>2016-12-03T14:31:40.008Z</time>
      </trkpt>
      <trkpt lat="42.99086" lon="0.79962">
        <ele>518</ele>
        <time>2016-12-03T14:31:41.008Z</time>
      </trkpt>
      <trkpt lat="42.99085" lon="0.79971">
        <ele>518</ele>
        <time>2016-12-03T14:31:42.008Z</time>
      </trkpt>
      <trkpt lat="42.99083" lon="0.7998">
        <ele>518</ele>
        <time>2016-12-03T14:31:43.008Z</time>
      </trkpt>
      <trkpt lat="42.99082" lon="0.79989">
        <ele>518</ele>
        <time>2016-12-03T14:31:44.008Z</time>
      </trkpt>
      <trkpt lat="42.99081" lon="0.79998">
        <ele>518</ele>
        <time>2016-12-03T14:31:45.008Z</time>
      </trkpt>
      <trkpt lat="42.99079" lon="0.80007">
        <ele>518</ele>
        <time>2016-12-03T14:31:46.008Z</time>
      </trkpt>
      <trkpt lat="42.99078" lon="0.80016">
        <ele>518</ele>
        <time>2016-12-03T14:31:47.008Z</time>
      </trkpt>
      <trkpt lat="42.99077" lon="0.80025">
        <ele>518</ele>
        <time>2016-12-03T14:31:48.008Z</time>
      </trkpt>
      <trkpt lat="42.99076" lon="0.80034">
        <ele>518</ele>
        <time>2016-12-03T14:31:49.008Z</time>
      </trkpt>
      <trkpt lat="42.99074" lon="0.80043">
        <ele>517.65200194562</ele>
        <time>2016-12-03T14:31:50.008Z</time>
      </trkpt>
      <trkpt lat="42.99073" lon="0.80052">
        <ele>516.65199805443</ele>
        <time>2016-12-03T14:31:51.008Z</time>
      </trkpt>
      <trkpt lat="42.99072" lon="0.80061">
        <ele>516</ele>
        <time>2016-12-03T14:31:52.008Z</time>
      </trkpt>
      <trkpt lat="42.99071" lon="0.8007">
        <ele>516</ele>
        <time>2016-12-03T14:31:53.008Z</time>
      </trkpt>
      <trkpt lat="42.99069" lon="0.80079">
        <ele>516</ele>
        <time>2016-12-03T14:31:54.008Z</time>
      </trkpt>
      <trkpt lat="42.99066" lon="0.80087">
        <ele>516</ele>
        <time>2016-12-03T14:31:55.008Z</time>
      </trkpt>
      <trkpt lat="42.99063" lon="0.80095">
        <ele>516</ele>
        <time>2016-12-03T14:31:56.008Z</time>
      </trkpt>
      <trkpt lat="42.9906" lon="0.80103">
        <ele>516</ele>
        <time>2016-12-03T14:31:57.008Z</time>
      </trkpt>
      <trkpt lat="42.99057" lon="0.8011">
        <ele>516</ele>
        <time>2016-12-03T14:31:58.008Z</time>
      </trkpt>
      <trkpt lat="42.99053" lon="0.80118">
        <ele>516</ele>
        <time>2016-12-03T14:31:59.008Z</time>
      </trkpt>
      <trkpt lat="42.99045" lon="0.80132">
        <ele>515.65199805443</ele>
        <time>2016-12-03T14:32:01.008Z</time>
      </trkpt>
      <trkpt lat="42.99041" lon="0.80139">
        <ele>515</ele>
        <time>2016-12-03T14:32:02.008Z</time>
      </trkpt>
      <trkpt lat="42.99037" lon="0.80147">
        <ele>515</ele>
        <time>2016-12-03T14:32:03.008Z</time>
      </trkpt>
      <trkpt lat="42.99034" lon="0.80154">
        <ele>515</ele>
        <time>2016-12-03T14:32:04.008Z</time>
      </trkpt>
      <trkpt lat="42.99031" lon="0.80162">
        <ele>515</ele>
        <time>2016-12-03T14:32:05.008Z</time>
      </trkpt>
      <trkpt lat="42.99028" lon="0.8017">
        <ele>515</ele>
        <time>2016-12-03T14:32:06.008Z</time>
      </trkpt>
      <trkpt lat="42.99026" lon="0.80178">
        <ele>515</ele>
        <time>2016-12-03T14:32:07.008Z</time>
      </trkpt>
      <trkpt lat="42.99023" lon="0.80186">
        <ele>515</ele>
        <time>2016-12-03T14:32:08.008Z</time>
      </trkpt>
      <trkpt lat="42.9902" lon="0.80202">
        <ele>515</ele>
        <time>2016-12-03T14:32:10.008Z</time>
      </trkpt>
      <trkpt lat="42.99019" lon="0.8021">
        <ele>515</ele>
        <time>2016-12-03T14:32:11.008Z</time>
      </trkpt>
      <trkpt lat="42.99017" lon="0.80218">
        <ele>515</ele>
        <time>2016-12-03T14:32:12.008Z</time>
      </trkpt>
      <trkpt lat="42.99016" lon="0.80227">
        <ele>515</ele>
        <time>2016-12-03T14:32:13.008Z</time>
      </trkpt>
      <trkpt lat="42.99015" lon="0.80235">
        <ele>515</ele>
        <time>2016-12-03T14:32:14.008Z</time>
      </trkpt>
      <trkpt lat="42.99014" lon="0.80243">
        <ele>515</ele>
        <time>2016-12-03T14:32:15.008Z</time>
      </trkpt>
      <trkpt lat="42.99013" lon="0.80251">
        <ele>515</ele>
        <time>2016-12-03T14:32:16.008Z</time>
      </trkpt>
      <trkpt lat="42.9901" lon="0.80267">
        <ele>515</ele>
        <time>2016-12-03T14:32:18.008Z</time>
      </trkpt>
      <trkpt lat="42.99006" lon="0.80283">
        <ele>515</ele>
        <time>2016-12-03T14:32:20.008Z</time>
      </trkpt>
      <trkpt lat="42.99004" lon="0.80291">
        <ele>515.34800194557</ele>
        <time>2016-12-03T14:32:21.008Z</time>
      </trkpt>
      <trkpt lat="42.99002" lon="0.80299">
        <ele>516</ele>
        <time>2016-12-03T14:32:22.008Z</time>
      </trkpt>
      <trkpt lat="42.98999" lon="0.80306">
        <ele>516</ele>
        <time>2016-12-03T14:32:23.008Z</time>
      </trkpt>
      <trkpt lat="42.98996" lon="0.80313">
        <ele>516</ele>
        <time>2016-12-03T14:32:24.008Z</time>
      </trkpt>
      <trkpt lat="42.98993" lon="0.8032">
        <ele>516</ele>
        <time>2016-12-03T14:32:25.008Z</time>
      </trkpt>
      <trkpt lat="42.9899" lon="0.80326">
        <ele>516</ele>
        <time>2016-12-03T14:32:26.008Z</time>
      </trkpt>
      <trkpt lat="42.98987" lon="0.80332">
        <ele>516</ele>
        <time>2016-12-03T14:32:27.008Z</time>
      </trkpt>
      <trkpt lat="42.98984" lon="0.80339">
        <ele>516</ele>
        <time>2016-12-03T14:32:28.008Z</time>
      </trkpt>
      <trkpt lat="42.98981" lon="0.80345">
        <ele>516</ele>
        <time>2016-12-03T14:32:29.008Z</time>
      </trkpt>
      <trkpt lat="42.98975" lon="0.80356">
        <ele>516.34800194557</ele>
        <time>2016-12-03T14:32:31.008Z</time>
      </trkpt>
      <trkpt lat="42.98969" lon="0.80367">
        <ele>517</ele>
        <time>2016-12-03T14:32:33.008Z</time>
      </trkpt>
      <trkpt lat="42.98964" lon="0.80378">
        <ele>517</ele>
        <time>2016-12-03T14:32:35.008Z</time>
      </trkpt>
      <trkpt lat="42.9896" lon="0.8039">
        <ele>517</ele>
        <time>2016-12-03T14:32:37.008Z</time>
      </trkpt>
      <trkpt lat="42.98956" lon="0.80401">
        <ele>517</ele>
        <time>2016-12-03T14:32:39.008Z</time>
      </trkpt>
      <trkpt lat="42.98951" lon="0.80413">
        <ele>517.34800194557</ele>
        <time>2016-12-03T14:32:41.008Z</time>
      </trkpt>
      <trkpt lat="42.98946" lon="0.80424">
        <ele>518</ele>
        <time>2016-12-03T14:32:43.008Z</time>
      </trkpt>
      <trkpt lat="42.98941" lon="0.80437">
        <ele>518</ele>
        <time>2016-12-03T14:32:45.008Z</time>
      </trkpt>
      <trkpt lat="42.98934" lon="0.80449">
        <ele>518</ele>
        <time>2016-12-03T14:32:47.008Z</time>
      </trkpt>
      <trkpt lat="42.98928" lon="0.80461">
        <ele>518</ele>
        <time>2016-12-03T14:32:49.008Z</time>
      </trkpt>
      <trkpt lat="42.98923" lon="0.80472">
        <ele>518.69600389115</ele>
        <time>2016-12-03T14:32:51.008Z</time>
      </trkpt>
      <trkpt lat="42.9892" lon="0.80478">
        <ele>520</ele>
        <time>2016-12-03T14:32:52.008Z</time>
      </trkpt>
      <trkpt lat="42.98918" lon="0.80484">
        <ele>520</ele>
        <time>2016-12-03T14:32:53.008Z</time>
      </trkpt>
      <trkpt lat="42.98913" lon="0.80495">
        <ele>520</ele>
        <time>2016-12-03T14:32:55.008Z</time>
      </trkpt>
      <trkpt lat="42.98908" lon="0.80507">
        <ele>520</ele>
        <time>2016-12-03T14:32:57.008Z</time>
      </trkpt>
      <trkpt lat="42.98902" lon="0.80518">
        <ele>520</ele>
        <time>2016-12-03T14:32:59.008Z</time>
      </trkpt>
      <trkpt lat="42.98897" lon="0.80527">
        <ele>520</ele>
        <time>2016-12-03T14:33:01.008Z</time>
      </trkpt>
      <trkpt lat="42.98892" lon="0.80538">
        <ele>520</ele>
        <time>2016-12-03T14:33:03.008Z</time>
      </trkpt>
      <trkpt lat="42.98887" lon="0.80549">
        <ele>520</ele>
        <time>2016-12-03T14:33:05.008Z</time>
      </trkpt>
      <trkpt lat="42.98881" lon="0.8056">
        <ele>520</ele>
        <time>2016-12-03T14:33:07.008Z</time>
      </trkpt>
      <trkpt lat="42.98875" lon="0.80571">
        <ele>520</ele>
        <time>2016-12-03T14:33:09.008Z</time>
      </trkpt>
      <trkpt lat="42.98869" lon="0.80582">
        <ele>520</ele>
        <time>2016-12-03T14:33:11.008Z</time>
      </trkpt>
      <trkpt lat="42.98861" lon="0.80592">
        <ele>520</ele>
        <time>2016-12-03T14:33:13.008Z</time>
      </trkpt>
      <trkpt lat="42.98857" lon="0.80596">
        <ele>520</ele>
        <time>2016-12-03T14:33:14.008Z</time>
      </trkpt>
      <trkpt lat="42.98852" lon="0.80601">
        <ele>520</ele>
        <time>2016-12-03T14:33:15.008Z</time>
      </trkpt>
      <trkpt lat="42.98843" lon="0.8061">
        <ele>520</ele>
        <time>2016-12-03T14:33:17.008Z</time>
      </trkpt>
      <trkpt lat="42.98836" lon="0.80619">
        <ele>520</ele>
        <time>2016-12-03T14:33:19.008Z</time>
      </trkpt>
      <trkpt lat="42.98831" lon="0.8063">
        <ele>519.30399610885</ele>
        <time>2016-12-03T14:33:21.008Z</time>
      </trkpt>
      <trkpt lat="42.98827" lon="0.8064">
        <ele>518</ele>
        <time>2016-12-03T14:33:23.008Z</time>
      </trkpt>
      <trkpt lat="42.98821" lon="0.80648">
        <ele>518</ele>
        <time>2016-12-03T14:33:25.008Z</time>
      </trkpt>
      <trkpt lat="42.98814" lon="0.80652">
        <ele>518</ele>
        <time>2016-12-03T14:33:27.008Z</time>
      </trkpt>
      <trkpt lat="42.98807" lon="0.80656">
        <ele>518</ele>
        <time>2016-12-03T14:33:29.008Z</time>
      </trkpt>
      <trkpt lat="42.98801" lon="0.80661">
        <ele>518.34800194557</ele>
        <time>2016-12-03T14:33:31.008Z</time>
      </trkpt>
      <trkpt lat="42.98791" lon="0.80657">
        <ele>519</ele>
        <time>2016-12-03T14:33:34.008Z</time>
      </trkpt>
      <trkpt lat="42.98785" lon="0.8065">
        <ele>519</ele>
        <time>2016-12-03T14:33:36.008Z</time>
      </trkpt>
      <trkpt lat="42.98778" lon="0.80645">
        <ele>519</ele>
        <time>2016-12-03T14:33:38.008Z</time>
      </trkpt>
      <trkpt lat="42.9877" lon="0.80634">
        <ele>520.04400583672</ele>
        <time>2016-12-03T14:33:41.008Z</time>
      </trkpt>
      <trkpt lat="42.98769" lon="0.80618">
        <ele>522</ele>
        <time>2016-12-03T14:33:44.008Z</time>
      </trkpt>
      <trkpt lat="42.98768" lon="0.80603">
        <ele>522</ele>
        <time>2016-12-03T14:33:47.008Z</time>
      </trkpt>
      <trkpt lat="42.98769" lon="0.80592">
        <ele>522</ele>
        <time>2016-12-03T14:33:49.008Z</time>
      </trkpt>
      <trkpt lat="42.98769" lon="0.80582">
        <ele>522.34800194557</ele>
        <time>2016-12-03T14:33:51.008Z</time>
      </trkpt>
      <trkpt lat="42.98769" lon="0.80571">
        <ele>523</ele>
        <time>2016-12-03T14:33:53.008Z</time>
      </trkpt>
      <trkpt lat="42.98767" lon="0.80561">
        <ele>523</ele>
        <time>2016-12-03T14:33:55.008Z</time>
      </trkpt>
      <trkpt lat="42.98766" lon="0.80551">
        <ele>523</ele>
        <time>2016-12-03T14:33:57.008Z</time>
      </trkpt>
      <trkpt lat="42.98765" lon="0.80541">
        <ele>523</ele>
        <time>2016-12-03T14:33:59.008Z</time>
      </trkpt>
      <trkpt lat="42.98763" lon="0.8053">
        <ele>523.69600389115</ele>
        <time>2016-12-03T14:34:01.008Z</time>
      </trkpt>
      <trkpt lat="42.98762" lon="0.8052">
        <ele>525</ele>
        <time>2016-12-03T14:34:03.008Z</time>
      </trkpt>
      <trkpt lat="42.9876" lon="0.8051">
        <ele>525</ele>
        <time>2016-12-03T14:34:05.008Z</time>
      </trkpt>
      <trkpt lat="42.98758" lon="0.805">
        <ele>525</ele>
        <time>2016-12-03T14:34:07.008Z</time>
      </trkpt>
      <trkpt lat="42.98757" lon="0.8049">
        <ele>525</ele>
        <time>2016-12-03T14:34:09.008Z</time>
      </trkpt>
      <trkpt lat="42.98754" lon="0.80476">
        <ele>526</ele>
        <time>2016-12-03T14:34:12.008Z</time>
      </trkpt>
      <trkpt lat="42.98753" lon="0.80467">
        <ele>526</ele>
        <time>2016-12-03T14:34:14.008Z</time>
      </trkpt>
      <trkpt lat="42.98751" lon="0.80458">
        <ele>526</ele>
        <time>2016-12-03T14:34:16.008Z</time>
      </trkpt>
      <trkpt lat="42.98748" lon="0.80449">
        <ele>526</ele>
        <time>2016-12-03T14:34:18.008Z</time>
      </trkpt>
      <trkpt lat="42.98747" lon="0.80439">
        <ele>526</ele>
        <time>2016-12-03T14:34:20.008Z</time>
      </trkpt>
      <trkpt lat="42.98746" lon="0.80428">
        <ele>528</ele>
        <time>2016-12-03T14:34:22.008Z</time>
      </trkpt>
      <trkpt lat="42.98744" lon="0.80412">
        <ele>528</ele>
        <time>2016-12-03T14:34:25.008Z</time>
      </trkpt>
      <trkpt lat="42.98744" lon="0.80397">
        <ele>528</ele>
        <time>2016-12-03T14:34:28.008Z</time>
      </trkpt>
      <trkpt lat="42.98743" lon="0.80383">
        <ele>529.04400583672</ele>
        <time>2016-12-03T14:34:31.008Z</time>
      </trkpt>
      <trkpt lat="42.98744" lon="0.80369">
        <ele>531</ele>
        <time>2016-12-03T14:34:34.008Z</time>
      </trkpt>
      <trkpt lat="42.98747" lon="0.80354">
        <ele>533</ele>
        <time>2016-12-03T14:34:38.008Z</time>
      </trkpt>
      <trkpt lat="42.98753" lon="0.80343">
        <ele>534</ele>
        <time>2016-12-03T14:34:42.008Z</time>
      </trkpt>
      <trkpt lat="42.98762" lon="0.80338">
        <ele>534</ele>
        <time>2016-12-03T14:34:50.008Z</time>
      </trkpt>
      <trkpt lat="42.98769" lon="0.80324">
        <ele>534</ele>
        <time>2016-12-03T14:34:59.008Z</time>
      </trkpt>
      <trkpt lat="42.98774" lon="0.80312">
        <ele>534</ele>
        <time>2016-12-03T14:35:03.008Z</time>
      </trkpt>
      <trkpt lat="42.98779" lon="0.80299">
        <ele>534</ele>
        <time>2016-12-03T14:35:13.008Z</time>
      </trkpt>
      <trkpt lat="42.98783" lon="0.80285">
        <ele>534</ele>
        <time>2016-12-03T14:35:21.008Z</time>
      </trkpt>
      <trkpt lat="42.98786" lon="0.8027">
        <ele>534</ele>
        <time>2016-12-03T14:35:26.008Z</time>
      </trkpt>
      <trkpt lat="42.98788" lon="0.80255">
        <ele>534</ele>
        <time>2016-12-03T14:35:30.008Z</time>
      </trkpt>
      <trkpt lat="42.98791" lon="0.8024">
        <ele>534</ele>
        <time>2016-12-03T14:35:35.008Z</time>
      </trkpt>
      <trkpt lat="42.98794" lon="0.80226">
        <ele>534.34800194557</ele>
        <time>2016-12-03T14:35:41.008Z</time>
      </trkpt>
      <trkpt lat="42.98797" lon="0.80212">
        <ele>535</ele>
        <time>2016-12-03T14:35:47.008Z</time>
      </trkpt>
      <trkpt lat="42.98802" lon="0.80197">
        <ele>535.69600389115</ele>
        <time>2016-12-03T14:35:51.008Z</time>
      </trkpt>
      <trkpt lat="42.98806" lon="0.80182">
        <ele>537</ele>
        <time>2016-12-03T14:35:55.008Z</time>
      </trkpt>
      <trkpt lat="42.98804" lon="0.80169">
        <ele>537</ele>
        <time>2016-12-03T14:35:58.008Z</time>
      </trkpt>
      <trkpt lat="42.98801" lon="0.80151">
        <ele>535</ele>
        <time>2016-12-03T14:36:02.008Z</time>
      </trkpt>
      <trkpt lat="42.98801" lon="0.80135">
        <ele>535</ele>
        <time>2016-12-03T14:36:05.008Z</time>
      </trkpt>
      <trkpt lat="42.98805" lon="0.80123">
        <ele>535</ele>
        <time>2016-12-03T14:36:09.008Z</time>
      </trkpt>
      <trkpt lat="42.98813" lon="0.80112">
        <ele>535</ele>
        <time>2016-12-03T14:36:13.008Z</time>
      </trkpt>
      <trkpt lat="42.98822" lon="0.80101">
        <ele>535</ele>
        <time>2016-12-03T14:36:17.008Z</time>
      </trkpt>
      <trkpt lat="42.9883" lon="0.80092">
        <ele>535</ele>
        <time>2016-12-03T14:36:21.008Z</time>
      </trkpt>
      <trkpt lat="42.98837" lon="0.8008">
        <ele>535</ele>
        <time>2016-12-03T14:36:25.008Z</time>
      </trkpt>
      <trkpt lat="42.98842" lon="0.80072">
        <ele>535</ele>
        <time>2016-12-03T14:36:27.008Z</time>
      </trkpt>
      <trkpt lat="42.98847" lon="0.80063">
        <ele>535</ele>
        <time>2016-12-03T14:36:30.008Z</time>
      </trkpt>
      <trkpt lat="42.98848" lon="0.80051">
        <ele>536</ele>
        <time>2016-12-03T14:36:33.008Z</time>
      </trkpt>
      <trkpt lat="42.98849" lon="0.80042">
        <ele>536</ele>
        <time>2016-12-03T14:36:36.008Z</time>
      </trkpt>
      <trkpt lat="42.9885" lon="0.80034">
        <ele>534</ele>
        <time>2016-12-03T14:37:38.008Z</time>
      </trkpt>
      <trkpt lat="42.98852" lon="0.80023">
        <ele>535</ele>
        <time>2016-12-03T14:37:42.008Z</time>
      </trkpt>
      <trkpt lat="42.98855" lon="0.80011">
        <ele>535</ele>
        <time>2016-12-03T14:37:45.008Z</time>
      </trkpt>
      <trkpt lat="42.98857" lon="0.79998">
        <ele>535</ele>
        <time>2016-12-03T14:37:48.008Z</time>
      </trkpt>
      <trkpt lat="42.98859" lon="0.79982">
        <ele>535</ele>
        <time>2016-12-03T14:37:52.008Z</time>
      </trkpt>
      <trkpt lat="42.98861" lon="0.79968">
        <ele>535</ele>
        <time>2016-12-03T14:37:55.008Z</time>
      </trkpt>
      <trkpt lat="42.98862" lon="0.7995">
        <ele>535</ele>
        <time>2016-12-03T14:37:59.008Z</time>
      </trkpt>
      <trkpt lat="42.98863" lon="0.79934">
        <ele>535</ele>
        <time>2016-12-03T14:38:03.008Z</time>
      </trkpt>
      <trkpt lat="42.98865" lon="0.7992">
        <ele>535</ele>
        <time>2016-12-03T14:38:08.008Z</time>
      </trkpt>
      <trkpt lat="42.98865" lon="0.79903">
        <ele>536</ele>
        <time>2016-12-03T14:38:12.008Z</time>
      </trkpt>
      <trkpt lat="42.98867" lon="0.79886">
        <ele>536</ele>
        <time>2016-12-03T14:38:16.008Z</time>
      </trkpt>
      <trkpt lat="42.98871" lon="0.79873">
        <ele>536</ele>
        <time>2016-12-03T14:38:21.008Z</time>
      </trkpt>
      <trkpt lat="42.98876" lon="0.79863">
        <ele>534</ele>
        <time>2016-12-03T14:38:38.008Z</time>
      </trkpt>
      <trkpt lat="42.98881" lon="0.79849">
        <ele>534</ele>
        <time>2016-12-03T14:38:47.008Z</time>
      </trkpt>
      <trkpt lat="42.98882" lon="0.7984">
        <ele>533</ele>
        <time>2016-12-03T14:38:53.008Z</time>
      </trkpt>
      <trkpt lat="42.98885" lon="0.79825">
        <ele>533</ele>
        <time>2016-12-03T14:38:59.008Z</time>
      </trkpt>
      <trkpt lat="42.98887" lon="0.79809">
        <ele>531</ele>
        <time>2016-12-03T14:39:03.008Z</time>
      </trkpt>
      <trkpt lat="42.98886" lon="0.798">
        <ele>531</ele>
        <time>2016-12-03T14:39:06.008Z</time>
      </trkpt>
      <trkpt lat="42.98885" lon="0.79786">
        <ele>531</ele>
        <time>2016-12-03T14:39:10.008Z</time>
      </trkpt>
      <trkpt lat="42.98885" lon="0.79777">
        <ele>531</ele>
        <time>2016-12-03T14:39:13.008Z</time>
      </trkpt>
      <trkpt lat="42.98883" lon="0.79765">
        <ele>531</ele>
        <time>2016-12-03T14:39:16.008Z</time>
      </trkpt>
      <trkpt lat="42.98879" lon="0.79756">
        <ele>531</ele>
        <time>2016-12-03T14:39:18.008Z</time>
      </trkpt>
      <trkpt lat="42.98873" lon="0.79748">
        <ele>531</ele>
        <time>2016-12-03T14:39:20.008Z</time>
      </trkpt>
      <trkpt lat="42.98865" lon="0.79741">
        <ele>529</ele>
        <time>2016-12-03T14:39:22.008Z</time>
      </trkpt>
      <trkpt lat="42.98859" lon="0.79737">
        <ele>529</ele>
        <time>2016-12-03T14:39:24.008Z</time>
      </trkpt>
      <trkpt lat="42.98847" lon="0.79733">
        <ele>529</ele>
        <time>2016-12-03T14:39:27.008Z</time>
      </trkpt>
      <trkpt lat="42.98838" lon="0.79731">
        <ele>529</ele>
        <time>2016-12-03T14:39:29.008Z</time>
      </trkpt>
      <trkpt lat="42.9883" lon="0.79726">
        <ele>526.56398638097</ele>
        <time>2016-12-03T14:39:31.008Z</time>
      </trkpt>
      <trkpt lat="42.98823" lon="0.79716">
        <ele>517.65199805443</ele>
        <time>2016-12-03T14:39:33.008Z</time>
      </trkpt>
      <trkpt lat="42.98817" lon="0.79708">
        <ele>515.65199805443</ele>
        <time>2016-12-03T14:39:35.008Z</time>
      </trkpt>
      <trkpt lat="42.98809" lon="0.79696">
        <ele>515</ele>
        <time>2016-12-03T14:39:38.008Z</time>
      </trkpt>
      <trkpt lat="42.98807" lon="0.79684">
        <ele>513.65200194562</ele>
        <time>2016-12-03T14:39:40.008Z</time>
      </trkpt>
      <trkpt lat="42.98804" lon="0.79671">
        <ele>511.65200194562</ele>
        <time>2016-12-03T14:39:42.008Z</time>
      </trkpt>
      <trkpt lat="42.98793" lon="0.79663">
        <ele>510</ele>
        <time>2016-12-03T14:39:45.008Z</time>
      </trkpt>
      <trkpt lat="42.98779" lon="0.79665">
        <ele>507</ele>
        <time>2016-12-03T14:39:48.008Z</time>
      </trkpt>
      <trkpt lat="42.98764" lon="0.79666">
        <ele>506</ele>
        <time>2016-12-03T14:39:51.008Z</time>
      </trkpt>
      <trkpt lat="42.98755" lon="0.79671">
        <ele>505</ele>
        <time>2016-12-03T14:39:53.008Z</time>
      </trkpt>
      <trkpt lat="42.98744" lon="0.79677">
        <ele>504.65199805443</ele>
        <time>2016-12-03T14:39:55.008Z</time>
      </trkpt>
      <trkpt lat="42.98734" lon="0.79679">
        <ele>504</ele>
        <time>2016-12-03T14:39:57.008Z</time>
      </trkpt>
      <trkpt lat="42.98723" lon="0.79681">
        <ele>501.65200194562</ele>
        <time>2016-12-03T14:40:00.008Z</time>
      </trkpt>
      <trkpt lat="42.98714" lon="0.79673">
        <ele>502</ele>
        <time>2016-12-03T14:40:10.008Z</time>
      </trkpt>
      <trkpt lat="42.98706" lon="0.79663">
        <ele>502</ele>
        <time>2016-12-03T14:40:18.008Z</time>
      </trkpt>
      <trkpt lat="42.98702" lon="0.79657">
        <ele>503</ele>
        <time>2016-12-03T14:40:24.008Z</time>
      </trkpt>
      <trkpt lat="42.98695" lon="0.79654">
        <ele>505</ele>
        <time>2016-12-03T14:40:32.008Z</time>
      </trkpt>
      <trkpt lat="42.98684" lon="0.79651">
        <ele>505</ele>
        <time>2016-12-03T14:40:38.008Z</time>
      </trkpt>
      <trkpt lat="42.98678" lon="0.7965">
        <ele>505</ele>
        <time>2016-12-03T14:40:40.008Z</time>
      </trkpt>
      <trkpt lat="42.9867" lon="0.79649">
        <ele>504</ele>
        <time>2016-12-03T14:40:43.008Z</time>
      </trkpt>
      <trkpt lat="42.98663" lon="0.79645">
        <ele>503</ele>
        <time>2016-12-03T14:40:52.008Z</time>
      </trkpt>
      <trkpt lat="42.98665" lon="0.79632">
        <ele>502</ele>
        <time>2016-12-03T14:41:02.008Z</time>
      </trkpt>
      <trkpt lat="42.98666" lon="0.7962">
        <ele>503.34799805438</ele>
        <time>2016-12-03T14:41:16.008Z</time>
      </trkpt>
      <trkpt lat="42.98668" lon="0.79609">
        <ele>505</ele>
        <time>2016-12-03T14:41:24.008Z</time>
      </trkpt>
      <trkpt lat="42.98671" lon="0.796">
        <ele>505.69600389115</ele>
        <time>2016-12-03T14:41:31.008Z</time>
      </trkpt>
      <trkpt lat="42.98674" lon="0.79591">
        <ele>507</ele>
        <time>2016-12-03T14:41:40.008Z</time>
      </trkpt>
      <trkpt lat="42.98674" lon="0.79579">
        <ele>509</ele>
        <time>2016-12-03T14:41:47.008Z</time>
      </trkpt>
      <trkpt lat="42.98666" lon="0.79572">
        <ele>509</ele>
        <time>2016-12-03T14:41:50.008Z</time>
      </trkpt>
      <trkpt lat="42.98659" lon="0.79566">
        <ele>507</ele>
        <time>2016-12-03T14:41:52.008Z</time>
      </trkpt>
      <trkpt lat="42.98651" lon="0.79557">
        <ele>507</ele>
        <time>2016-12-03T14:41:54.008Z</time>
      </trkpt>
      <trkpt lat="42.98641" lon="0.79546">
        <ele>507.34799805438</ele>
        <time>2016-12-03T14:41:56.008Z</time>
      </trkpt>
      <trkpt lat="42.98635" lon="0.79533">
        <ele>508</ele>
        <time>2016-12-03T14:41:58.008Z</time>
      </trkpt>
      <trkpt lat="42.9863" lon="0.79522">
        <ele>508</ele>
        <time>2016-12-03T14:42:00.008Z</time>
      </trkpt>
      <trkpt lat="42.98625" lon="0.79512">
        <ele>497.65200194562</ele>
        <time>2016-12-03T14:42:02.008Z</time>
      </trkpt>
      <trkpt lat="42.98616" lon="0.79498">
        <ele>494.65199805443</ele>
        <time>2016-12-03T14:42:05.008Z</time>
      </trkpt>
      <trkpt lat="42.9861" lon="0.79483">
        <ele>493</ele>
        <time>2016-12-03T14:42:08.008Z</time>
      </trkpt>
      <trkpt lat="42.98607" lon="0.79474">
        <ele>492</ele>
        <time>2016-12-03T14:42:10.008Z</time>
      </trkpt>
      <trkpt lat="42.98601" lon="0.79465">
        <ele>492.65199805443</ele>
        <time>2016-12-03T14:42:13.008Z</time>
      </trkpt>
      <trkpt lat="42.98597" lon="0.79456">
        <ele>492.65200194562</ele>
        <time>2016-12-03T14:42:16.008Z</time>
      </trkpt>
      <trkpt lat="42.98591" lon="0.79444">
        <ele>492.34141421977</ele>
        <time>2016-12-03T14:42:20.008Z</time>
      </trkpt>
      <trkpt lat="42.98584" lon="0.79439">
        <ele>493</ele>
        <time>2016-12-03T14:42:24.008Z</time>
      </trkpt>
      <trkpt lat="42.98578" lon="0.79435">
        <ele>493</ele>
        <time>2016-12-03T14:42:28.008Z</time>
      </trkpt>
      <trkpt lat="42.98571" lon="0.79431">
        <ele>495</ele>
        <time>2016-12-03T14:42:33.008Z</time>
      </trkpt>
      <trkpt lat="42.98565" lon="0.79428">
        <ele>495</ele>
        <time>2016-12-03T14:42:36.008Z</time>
      </trkpt>
      <trkpt lat="42.9856" lon="0.79423">
        <ele>495</ele>
        <time>2016-12-03T14:42:39.008Z</time>
      </trkpt>
      <trkpt lat="42.98555" lon="0.79417">
        <ele>497</ele>
        <time>2016-12-03T14:42:42.008Z</time>
      </trkpt>
      <trkpt lat="42.98548" lon="0.79413">
        <ele>497</ele>
        <time>2016-12-03T14:42:45.008Z</time>
      </trkpt>
      <trkpt lat="42.98543" lon="0.79409">
        <ele>497</ele>
        <time>2016-12-03T14:42:48.008Z</time>
      </trkpt>
      <trkpt lat="42.9854" lon="0.79403">
        <ele>497</ele>
        <time>2016-12-03T14:42:51.008Z</time>
      </trkpt>
      <trkpt lat="42.98538" lon="0.79396">
        <ele>497</ele>
        <time>2016-12-03T14:42:53.008Z</time>
      </trkpt>
      <trkpt lat="42.98537" lon="0.79387">
        <ele>497</ele>
        <time>2016-12-03T14:42:55.008Z</time>
      </trkpt>
      <trkpt lat="42.98537" lon="0.79375">
        <ele>497</ele>
        <time>2016-12-03T14:42:57.008Z</time>
      </trkpt>
      <trkpt lat="42.98541" lon="0.79361">
        <ele>497</ele>
        <time>2016-12-03T14:42:59.008Z</time>
      </trkpt>
      <trkpt lat="42.98545" lon="0.79347">
        <ele>492.8239766531</ele>
        <time>2016-12-03T14:43:01.008Z</time>
      </trkpt>
      <trkpt lat="42.98548" lon="0.79336">
        <ele>484.65199805443</ele>
        <time>2016-12-03T14:43:03.008Z</time>
      </trkpt>
      <trkpt lat="42.98547" lon="0.79328">
        <ele>484</ele>
        <time>2016-12-03T14:43:06.008Z</time>
      </trkpt>
      <trkpt lat="42.98542" lon="0.79327">
        <ele>483.65200194562</ele>
        <time>2016-12-03T14:43:08.008Z</time>
      </trkpt>
      <trkpt lat="42.98537" lon="0.79324">
        <ele>483.34799805438</ele>
        <time>2016-12-03T14:43:10.008Z</time>
      </trkpt>
      <trkpt lat="42.98533" lon="0.7932">
        <ele>484</ele>
        <time>2016-12-03T14:43:12.008Z</time>
      </trkpt>
      <trkpt lat="42.98529" lon="0.79316">
        <ele>484</ele>
        <time>2016-12-03T14:43:14.008Z</time>
      </trkpt>
      <trkpt lat="42.98524" lon="0.79311">
        <ele>484</ele>
        <time>2016-12-03T14:43:16.008Z</time>
      </trkpt>
      <trkpt lat="42.98517" lon="0.79304">
        <ele>484</ele>
        <time>2016-12-03T14:43:19.008Z</time>
      </trkpt>
      <trkpt lat="42.98511" lon="0.793">
        <ele>484</ele>
        <time>2016-12-03T14:43:21.008Z</time>
      </trkpt>
      <trkpt lat="42.98504" lon="0.79297">
        <ele>484</ele>
        <time>2016-12-03T14:43:23.008Z</time>
      </trkpt>
      <trkpt lat="42.98493" lon="0.79293">
        <ele>484.34141421977</ele>
        <time>2016-12-03T14:43:26.008Z</time>
      </trkpt>
      <trkpt lat="42.98485" lon="0.79292">
        <ele>485</ele>
        <time>2016-12-03T14:43:28.008Z</time>
      </trkpt>
      <trkpt lat="42.98477" lon="0.79291">
        <ele>485</ele>
        <time>2016-12-03T14:43:30.008Z</time>
      </trkpt>
      <trkpt lat="42.9847" lon="0.7929">
        <ele>484</ele>
        <time>2016-12-03T14:43:32.008Z</time>
      </trkpt>
      <trkpt lat="42.98463" lon="0.7929">
        <ele>484</ele>
        <time>2016-12-03T14:43:34.008Z</time>
      </trkpt>
      <trkpt lat="42.98454" lon="0.79291">
        <ele>484</ele>
        <time>2016-12-03T14:43:37.008Z</time>
      </trkpt>
      <trkpt lat="42.98444" lon="0.79292">
        <ele>484</ele>
        <time>2016-12-03T14:43:40.008Z</time>
      </trkpt>
      <trkpt lat="42.98435" lon="0.79294">
        <ele>485</ele>
        <time>2016-12-03T14:43:42.008Z</time>
      </trkpt>
      <trkpt lat="42.98422" lon="0.79289">
        <ele>485</ele>
        <time>2016-12-03T14:43:45.008Z</time>
      </trkpt>
      <trkpt lat="42.98412" lon="0.79283">
        <ele>485</ele>
        <time>2016-12-03T14:43:48.008Z</time>
      </trkpt>
      <trkpt lat="42.98405" lon="0.79278">
        <ele>485</ele>
        <time>2016-12-03T14:43:50.008Z</time>
      </trkpt>
      <trkpt lat="42.98398" lon="0.79274">
        <ele>485</ele>
        <time>2016-12-03T14:43:52.008Z</time>
      </trkpt>
      <trkpt lat="42.98391" lon="0.7927">
        <ele>485</ele>
        <time>2016-12-03T14:43:54.008Z</time>
      </trkpt>
      <trkpt lat="42.98385" lon="0.79263">
        <ele>485</ele>
        <time>2016-12-03T14:43:56.008Z</time>
      </trkpt>
      <trkpt lat="42.98381" lon="0.79252">
        <ele>485</ele>
        <time>2016-12-03T14:43:58.008Z</time>
      </trkpt>
      <trkpt lat="42.98377" lon="0.7924">
        <ele>485</ele>
        <time>2016-12-03T14:44:00.008Z</time>
      </trkpt>
      <trkpt lat="42.98374" lon="0.79226">
        <ele>483</ele>
        <time>2016-12-03T14:44:03.008Z</time>
      </trkpt>
      <trkpt lat="42.98368" lon="0.79212">
        <ele>483</ele>
        <time>2016-12-03T14:44:06.008Z</time>
      </trkpt>
      <trkpt lat="42.98358" lon="0.79203">
        <ele>483</ele>
        <time>2016-12-03T14:44:09.008Z</time>
      </trkpt>
      <trkpt lat="42.98346" lon="0.79199">
        <ele>484</ele>
        <time>2016-12-03T14:44:13.008Z</time>
      </trkpt>
      <trkpt lat="42.98339" lon="0.79198">
        <ele>484</ele>
        <time>2016-12-03T14:44:15.008Z</time>
      </trkpt>
      <trkpt lat="42.98329" lon="0.79197">
        <ele>484</ele>
        <time>2016-12-03T14:44:18.008Z</time>
      </trkpt>
      <trkpt lat="42.98319" lon="0.79197">
        <ele>484.69600389115</ele>
        <time>2016-12-03T14:44:21.008Z</time>
      </trkpt>
      <trkpt lat="42.98309" lon="0.79198">
        <ele>486</ele>
        <time>2016-12-03T14:44:25.008Z</time>
      </trkpt>
      <trkpt lat="42.98306" lon="0.79188">
        <ele>486</ele>
        <time>2016-12-03T14:44:28.008Z</time>
      </trkpt>
      <trkpt lat="42.98307" lon="0.79177">
        <ele>486</ele>
        <time>2016-12-03T14:44:31.008Z</time>
      </trkpt>
      <trkpt lat="42.98308" lon="0.79166">
        <ele>486</ele>
        <time>2016-12-03T14:44:34.008Z</time>
      </trkpt>
      <trkpt lat="42.9831" lon="0.79151">
        <ele>486</ele>
        <time>2016-12-03T14:44:37.008Z</time>
      </trkpt>
      <trkpt lat="42.98311" lon="0.79137">
        <ele>486</ele>
        <time>2016-12-03T14:44:40.008Z</time>
      </trkpt>
      <trkpt lat="42.98313" lon="0.79127">
        <ele>486</ele>
        <time>2016-12-03T14:44:42.008Z</time>
      </trkpt>
      <trkpt lat="42.98314" lon="0.79119">
        <ele>486</ele>
        <time>2016-12-03T14:44:44.008Z</time>
      </trkpt>
      <trkpt lat="42.98314" lon="0.79111">
        <ele>486</ele>
        <time>2016-12-03T14:44:46.008Z</time>
      </trkpt>
      <trkpt lat="42.98311" lon="0.79105">
        <ele>486</ele>
        <time>2016-12-03T14:44:48.008Z</time>
      </trkpt>
      <trkpt lat="42.98305" lon="0.79103">
        <ele>486</ele>
        <time>2016-12-03T14:44:50.008Z</time>
      </trkpt>
      <trkpt lat="42.98296" lon="0.79101">
        <ele>488</ele>
        <time>2016-12-03T14:44:53.008Z</time>
      </trkpt>
      <trkpt lat="42.9829" lon="0.791">
        <ele>488</ele>
        <time>2016-12-03T14:44:55.008Z</time>
      </trkpt>
      <trkpt lat="42.98283" lon="0.79098">
        <ele>488</ele>
        <time>2016-12-03T14:44:57.008Z</time>
      </trkpt>
      <trkpt lat="42.98277" lon="0.79096">
        <ele>488</ele>
        <time>2016-12-03T14:44:59.008Z</time>
      </trkpt>
      <trkpt lat="42.98274" lon="0.79096">
        <ele>488</ele>
        <time>2016-12-03T14:45:00.008Z</time>
      </trkpt>
      <trkpt lat="42.98272" lon="0.79095">
        <ele>489.04400583672</ele>
        <time>2016-12-03T14:45:01.008Z</time>
      </trkpt>
      <trkpt lat="42.98266" lon="0.79093">
        <ele>491</ele>
        <time>2016-12-03T14:45:03.008Z</time>
      </trkpt>
      <trkpt lat="42.98263" lon="0.79092">
        <ele>491</ele>
        <time>2016-12-03T14:45:04.008Z</time>
      </trkpt>
      <trkpt lat="42.9826" lon="0.79091">
        <ele>491</ele>
        <time>2016-12-03T14:45:05.008Z</time>
      </trkpt>
      <trkpt lat="42.98253" lon="0.79089">
        <ele>492</ele>
        <time>2016-12-03T14:45:07.008Z</time>
      </trkpt>
      <trkpt lat="42.98246" lon="0.79088">
        <ele>492</ele>
        <time>2016-12-03T14:45:09.008Z</time>
      </trkpt>
      <trkpt lat="42.98238" lon="0.79086">
        <ele>492</ele>
        <time>2016-12-03T14:45:11.008Z</time>
      </trkpt>
      <trkpt lat="42.98231" lon="0.79085">
        <ele>492</ele>
        <time>2016-12-03T14:45:13.008Z</time>
      </trkpt>
      <trkpt lat="42.98224" lon="0.79083">
        <ele>492</ele>
        <time>2016-12-03T14:45:15.008Z</time>
      </trkpt>
      <trkpt lat="42.98217" lon="0.79081">
        <ele>492</ele>
        <time>2016-12-03T14:45:17.008Z</time>
      </trkpt>
      <trkpt lat="42.9821" lon="0.79078">
        <ele>492</ele>
        <time>2016-12-03T14:45:19.008Z</time>
      </trkpt>
      <trkpt lat="42.98203" lon="0.79075">
        <ele>492.34800194557</ele>
        <time>2016-12-03T14:45:21.008Z</time>
      </trkpt>
      <trkpt lat="42.98196" lon="0.79071">
        <ele>493</ele>
        <time>2016-12-03T14:45:23.008Z</time>
      </trkpt>
      <trkpt lat="42.98189" lon="0.79068">
        <ele>493</ele>
        <time>2016-12-03T14:45:25.008Z</time>
      </trkpt>
      <trkpt lat="42.98183" lon="0.79065">
        <ele>493</ele>
        <time>2016-12-03T14:45:27.008Z</time>
      </trkpt>
      <trkpt lat="42.98176" lon="0.79062">
        <ele>493</ele>
        <time>2016-12-03T14:45:29.008Z</time>
      </trkpt>
      <trkpt lat="42.98169" lon="0.79061">
        <ele>493.34800194557</ele>
        <time>2016-12-03T14:45:31.008Z</time>
      </trkpt>
      <trkpt lat="42.98163" lon="0.7906">
        <ele>494</ele>
        <time>2016-12-03T14:45:33.008Z</time>
      </trkpt>
      <trkpt lat="42.98153" lon="0.79062">
        <ele>494</ele>
        <time>2016-12-03T14:45:36.008Z</time>
      </trkpt>
      <trkpt lat="42.98141" lon="0.79067">
        <ele>494</ele>
        <time>2016-12-03T14:45:40.008Z</time>
      </trkpt>
      <trkpt lat="42.98131" lon="0.79069">
        <ele>498</ele>
        <time>2016-12-03T14:45:44.008Z</time>
      </trkpt>
      <trkpt lat="42.98121" lon="0.79073">
        <ele>502</ele>
        <time>2016-12-03T14:45:49.008Z</time>
      </trkpt>
      <trkpt lat="42.98111" lon="0.79076">
        <ele>506</ele>
        <time>2016-12-03T14:45:54.008Z</time>
      </trkpt>
      <trkpt lat="42.98102" lon="0.79075">
        <ele>509</ele>
        <time>2016-12-03T14:45:59.008Z</time>
      </trkpt>
      <trkpt lat="42.98097" lon="0.79068">
        <ele>510</ele>
        <time>2016-12-03T14:46:03.008Z</time>
      </trkpt>
      <trkpt lat="42.98093" lon="0.7906">
        <ele>510</ele>
        <time>2016-12-03T14:46:06.008Z</time>
      </trkpt>
      <trkpt lat="42.98091" lon="0.79051">
        <ele>511.34800194557</ele>
        <time>2016-12-03T14:46:09.008Z</time>
      </trkpt>
      <trkpt lat="42.98088" lon="0.7904">
        <ele>512</ele>
        <time>2016-12-03T14:46:13.008Z</time>
      </trkpt>
      <trkpt lat="42.98085" lon="0.7903">
        <ele>512.69599610875</ele>
        <time>2016-12-03T14:46:16.008Z</time>
      </trkpt>
      <trkpt lat="42.98083" lon="0.79022">
        <ele>514</ele>
        <time>2016-12-03T14:46:19.008Z</time>
      </trkpt>
      <trkpt lat="42.98079" lon="0.79011">
        <ele>516</ele>
        <time>2016-12-03T14:46:22.008Z</time>
      </trkpt>
      <trkpt lat="42.98075" lon="0.79002">
        <ele>516</ele>
        <time>2016-12-03T14:46:25.008Z</time>
      </trkpt>
      <trkpt lat="42.98073" lon="0.78995">
        <ele>516</ele>
        <time>2016-12-03T14:46:27.008Z</time>
      </trkpt>
      <trkpt lat="42.98071" lon="0.78988">
        <ele>516</ele>
        <time>2016-12-03T14:46:29.008Z</time>
      </trkpt>
      <trkpt lat="42.98069" lon="0.78981">
        <ele>516.34800194557</ele>
        <time>2016-12-03T14:46:31.008Z</time>
      </trkpt>
      <trkpt lat="42.98067" lon="0.78974">
        <ele>517</ele>
        <time>2016-12-03T14:46:33.008Z</time>
      </trkpt>
      <trkpt lat="42.98066" lon="0.78968">
        <ele>517</ele>
        <time>2016-12-03T14:46:35.008Z</time>
      </trkpt>
      <trkpt lat="42.98066" lon="0.78961">
        <ele>517</ele>
        <time>2016-12-03T14:46:37.008Z</time>
      </trkpt>
      <trkpt lat="42.98065" lon="0.78954">
        <ele>517</ele>
        <time>2016-12-03T14:46:39.008Z</time>
      </trkpt>
      <trkpt lat="42.98064" lon="0.78947">
        <ele>517.34800194557</ele>
        <time>2016-12-03T14:46:41.008Z</time>
      </trkpt>
      <trkpt lat="42.98063" lon="0.7894">
        <ele>518</ele>
        <time>2016-12-03T14:46:43.008Z</time>
      </trkpt>
      <trkpt lat="42.98062" lon="0.78933">
        <ele>518</ele>
        <time>2016-12-03T14:46:45.008Z</time>
      </trkpt>
      <trkpt lat="42.98061" lon="0.78926">
        <ele>518</ele>
        <time>2016-12-03T14:46:47.008Z</time>
      </trkpt>
      <trkpt lat="42.9806" lon="0.78919">
        <ele>518</ele>
        <time>2016-12-03T14:46:49.008Z</time>
      </trkpt>
      <trkpt lat="42.98057" lon="0.7891">
        <ele>520</ele>
        <time>2016-12-03T14:46:52.008Z</time>
      </trkpt>
      <trkpt lat="42.98054" lon="0.789">
        <ele>520</ele>
        <time>2016-12-03T14:46:55.008Z</time>
      </trkpt>
      <trkpt lat="42.98049" lon="0.7889">
        <ele>520</ele>
        <time>2016-12-03T14:46:58.008Z</time>
      </trkpt>
      <trkpt lat="42.98044" lon="0.7888">
        <ele>524</ele>
        <time>2016-12-03T14:47:02.008Z</time>
      </trkpt>
      <trkpt lat="42.98041" lon="0.78867">
        <ele>524.34799805438</ele>
        <time>2016-12-03T14:47:06.008Z</time>
      </trkpt>
      <trkpt lat="42.98042" lon="0.78854">
        <ele>525</ele>
        <time>2016-12-03T14:47:09.008Z</time>
      </trkpt>
      <trkpt lat="42.9805" lon="0.78847">
        <ele>526</ele>
        <time>2016-12-03T14:47:12.008Z</time>
      </trkpt>
      <trkpt lat="42.98057" lon="0.78844">
        <ele>526</ele>
        <time>2016-12-03T14:47:14.008Z</time>
      </trkpt>
      <trkpt lat="42.98066" lon="0.78841">
        <ele>526</ele>
        <time>2016-12-03T14:47:17.008Z</time>
      </trkpt>
      <trkpt lat="42.98072" lon="0.78839">
        <ele>526</ele>
        <time>2016-12-03T14:47:19.008Z</time>
      </trkpt>
      <trkpt lat="42.98077" lon="0.78836">
        <ele>526.34800194557</ele>
        <time>2016-12-03T14:47:21.008Z</time>
      </trkpt>
      <trkpt lat="42.98083" lon="0.78834">
        <ele>527</ele>
        <time>2016-12-03T14:47:23.008Z</time>
      </trkpt>
      <trkpt lat="42.98089" lon="0.78832">
        <ele>527</ele>
        <time>2016-12-03T14:47:25.008Z</time>
      </trkpt>
      <trkpt lat="42.98098" lon="0.78829">
        <ele>527</ele>
        <time>2016-12-03T14:47:28.008Z</time>
      </trkpt>
      <trkpt lat="42.98107" lon="0.78825">
        <ele>527.69600389115</ele>
        <time>2016-12-03T14:47:31.008Z</time>
      </trkpt>
      <trkpt lat="42.98116" lon="0.78823">
        <ele>529</ele>
        <time>2016-12-03T14:47:34.008Z</time>
      </trkpt>
      <trkpt lat="42.98126" lon="0.78822">
        <ele>529</ele>
        <time>2016-12-03T14:47:37.008Z</time>
      </trkpt>
      <trkpt lat="42.98133" lon="0.78822">
        <ele>529</ele>
        <time>2016-12-03T14:47:39.008Z</time>
      </trkpt>
      <trkpt lat="42.9814" lon="0.78823">
        <ele>530.04400583672</ele>
        <time>2016-12-03T14:47:41.008Z</time>
      </trkpt>
      <trkpt lat="42.98147" lon="0.78823">
        <ele>532</ele>
        <time>2016-12-03T14:47:43.008Z</time>
      </trkpt>
      <trkpt lat="42.98153" lon="0.78824">
        <ele>532</ele>
        <time>2016-12-03T14:47:45.008Z</time>
      </trkpt>
      <trkpt lat="42.9816" lon="0.78822">
        <ele>532</ele>
        <time>2016-12-03T14:47:47.008Z</time>
      </trkpt>
      <trkpt lat="42.98167" lon="0.7882">
        <ele>532</ele>
        <time>2016-12-03T14:47:49.008Z</time>
      </trkpt>
      <trkpt lat="42.98173" lon="0.78815">
        <ele>532.34800194557</ele>
        <time>2016-12-03T14:47:51.008Z</time>
      </trkpt>
      <trkpt lat="42.98179" lon="0.7881">
        <ele>533</ele>
        <time>2016-12-03T14:47:53.008Z</time>
      </trkpt>
      <trkpt lat="42.98184" lon="0.78804">
        <ele>533</ele>
        <time>2016-12-03T14:47:55.008Z</time>
      </trkpt>
      <trkpt lat="42.98191" lon="0.78799">
        <ele>533</ele>
        <time>2016-12-03T14:47:57.008Z</time>
      </trkpt>
      <trkpt lat="42.98198" lon="0.78797">
        <ele>533</ele>
        <time>2016-12-03T14:47:59.008Z</time>
      </trkpt>
      <trkpt lat="42.98207" lon="0.78798">
        <ele>532.65544248292</ele>
        <time>2016-12-03T14:48:01.008Z</time>
      </trkpt>
      <trkpt lat="42.98217" lon="0.78801">
        <ele>532</ele>
        <time>2016-12-03T14:48:03.008Z</time>
      </trkpt>
      <trkpt lat="42.98227" lon="0.78806">
        <ele>532</ele>
        <time>2016-12-03T14:48:05.008Z</time>
      </trkpt>
      <trkpt lat="42.98233" lon="0.78809">
        <ele>532</ele>
        <time>2016-12-03T14:48:06.008Z</time>
      </trkpt>
      <trkpt lat="42.98239" lon="0.78812">
        <ele>532</ele>
        <time>2016-12-03T14:48:07.008Z</time>
      </trkpt>
      <trkpt lat="42.98245" lon="0.78815">
        <ele>532</ele>
        <time>2016-12-03T14:48:08.008Z</time>
      </trkpt>
      <trkpt lat="42.98251" lon="0.78818">
        <ele>532</ele>
        <time>2016-12-03T14:48:09.008Z</time>
      </trkpt>
      <trkpt lat="42.98257" lon="0.78821">
        <ele>532</ele>
        <time>2016-12-03T14:48:10.008Z</time>
      </trkpt>
      <trkpt lat="42.98263" lon="0.78824">
        <ele>531.65199805443</ele>
        <time>2016-12-03T14:48:11.008Z</time>
      </trkpt>
      <trkpt lat="42.9827" lon="0.78827">
        <ele>531</ele>
        <time>2016-12-03T14:48:12.008Z</time>
      </trkpt>
      <trkpt lat="42.98275" lon="0.78827">
        <ele>531</ele>
        <time>2016-12-03T14:48:13.008Z</time>
      </trkpt>
      <trkpt lat="42.98285" lon="0.78821">
        <ele>531</ele>
        <time>2016-12-03T14:48:15.008Z</time>
      </trkpt>
      <trkpt lat="42.98293" lon="0.78812">
        <ele>531</ele>
        <time>2016-12-03T14:48:17.008Z</time>
      </trkpt>
      <trkpt lat="42.98296" lon="0.78807">
        <ele>531</ele>
        <time>2016-12-03T14:48:18.008Z</time>
      </trkpt>
      <trkpt lat="42.98301" lon="0.78799">
        <ele>531</ele>
        <time>2016-12-03T14:48:20.008Z</time>
      </trkpt>
      <trkpt lat="42.98304" lon="0.78792">
        <ele>532</ele>
        <time>2016-12-03T14:48:22.008Z</time>
      </trkpt>
      <trkpt lat="42.98306" lon="0.78783">
        <ele>532</ele>
        <time>2016-12-03T14:48:24.008Z</time>
      </trkpt>
      <trkpt lat="42.98306" lon="0.78774">
        <ele>532</ele>
        <time>2016-12-03T14:48:26.008Z</time>
      </trkpt>
      <trkpt lat="42.98306" lon="0.78765">
        <ele>532</ele>
        <time>2016-12-03T14:48:28.008Z</time>
      </trkpt>
      <trkpt lat="42.98305" lon="0.78756">
        <ele>532</ele>
        <time>2016-12-03T14:48:30.008Z</time>
      </trkpt>
      <trkpt lat="42.98305" lon="0.78747">
        <ele>535</ele>
        <time>2016-12-03T14:48:32.008Z</time>
      </trkpt>
      <trkpt lat="42.98304" lon="0.78733">
        <ele>535</ele>
        <time>2016-12-03T14:48:35.008Z</time>
      </trkpt>
      <trkpt lat="42.98305" lon="0.78724">
        <ele>536</ele>
        <time>2016-12-03T14:48:37.008Z</time>
      </trkpt>
      <trkpt lat="42.98305" lon="0.78715">
        <ele>536</ele>
        <time>2016-12-03T14:48:39.008Z</time>
      </trkpt>
      <trkpt lat="42.98306" lon="0.78707">
        <ele>536.69600389115</ele>
        <time>2016-12-03T14:48:41.008Z</time>
      </trkpt>
      <trkpt lat="42.98306" lon="0.78698">
        <ele>538</ele>
        <time>2016-12-03T14:48:43.008Z</time>
      </trkpt>
      <trkpt lat="42.98306" lon="0.78689">
        <ele>538</ele>
        <time>2016-12-03T14:48:45.008Z</time>
      </trkpt>
      <trkpt lat="42.98307" lon="0.78679">
        <ele>539</ele>
        <time>2016-12-03T14:48:47.008Z</time>
      </trkpt>
      <trkpt lat="42.98308" lon="0.78666">
        <ele>539</ele>
        <time>2016-12-03T14:48:50.008Z</time>
      </trkpt>
      <trkpt lat="42.98309" lon="0.78653">
        <ele>539</ele>
        <time>2016-12-03T14:48:53.008Z</time>
      </trkpt>
      <trkpt lat="42.9831" lon="0.78639">
        <ele>539</ele>
        <time>2016-12-03T14:48:56.008Z</time>
      </trkpt>
      <trkpt lat="42.9831" lon="0.78626">
        <ele>539</ele>
        <time>2016-12-03T14:48:59.008Z</time>
      </trkpt>
      <trkpt lat="42.98311" lon="0.78613">
        <ele>540</ele>
        <time>2016-12-03T14:49:02.008Z</time>
      </trkpt>
      <trkpt lat="42.98311" lon="0.78597">
        <ele>540</ele>
        <time>2016-12-03T14:49:06.008Z</time>
      </trkpt>
      <trkpt lat="42.98313" lon="0.7858">
        <ele>540</ele>
        <time>2016-12-03T14:49:10.008Z</time>
      </trkpt>
      <trkpt lat="42.98318" lon="0.78568">
        <ele>542</ele>
        <time>2016-12-03T14:49:13.008Z</time>
      </trkpt>
      <trkpt lat="42.98326" lon="0.7856">
        <ele>542</ele>
        <time>2016-12-03T14:49:16.008Z</time>
      </trkpt>
      <trkpt lat="42.98336" lon="0.78562">
        <ele>542</ele>
        <time>2016-12-03T14:49:19.008Z</time>
      </trkpt>
      <trkpt lat="42.98345" lon="0.78566">
        <ele>544</ele>
        <time>2016-12-03T14:49:22.008Z</time>
      </trkpt>
      <trkpt lat="42.98353" lon="0.78571">
        <ele>544</ele>
        <time>2016-12-03T14:49:25.008Z</time>
      </trkpt>
      <trkpt lat="42.98358" lon="0.78575">
        <ele>544</ele>
        <time>2016-12-03T14:49:27.008Z</time>
      </trkpt>
      <trkpt lat="42.98363" lon="0.78578">
        <ele>544</ele>
        <time>2016-12-03T14:49:29.008Z</time>
      </trkpt>
      <trkpt lat="42.98367" lon="0.78581">
        <ele>545.04400583672</ele>
        <time>2016-12-03T14:49:31.008Z</time>
      </trkpt>
      <trkpt lat="42.9837" lon="0.78584">
        <ele>547</ele>
        <time>2016-12-03T14:49:33.008Z</time>
      </trkpt>
      <trkpt lat="42.98376" lon="0.78587">
        <ele>547.69599610875</ele>
        <time>2016-12-03T14:49:36.008Z</time>
      </trkpt>
      <trkpt lat="42.98385" lon="0.78589">
        <ele>549</ele>
        <time>2016-12-03T14:49:40.008Z</time>
      </trkpt>
      <trkpt lat="42.98391" lon="0.78589">
        <ele>551</ele>
        <time>2016-12-03T14:49:43.008Z</time>
      </trkpt>
      <trkpt lat="42.98398" lon="0.78588">
        <ele>551.34799805438</ele>
        <time>2016-12-03T14:49:46.008Z</time>
      </trkpt>
      <trkpt lat="42.98405" lon="0.78588">
        <ele>552</ele>
        <time>2016-12-03T14:49:49.008Z</time>
      </trkpt>
      <trkpt lat="42.98413" lon="0.78589">
        <ele>553</ele>
        <time>2016-12-03T14:49:52.008Z</time>
      </trkpt>
      <trkpt lat="42.9842" lon="0.78593">
        <ele>553</ele>
        <time>2016-12-03T14:49:55.008Z</time>
      </trkpt>
      <trkpt lat="42.98427" lon="0.78599">
        <ele>553</ele>
        <time>2016-12-03T14:49:58.008Z</time>
      </trkpt>
      <trkpt lat="42.98433" lon="0.78607">
        <ele>553.69600389115</ele>
        <time>2016-12-03T14:50:01.008Z</time>
      </trkpt>
      <trkpt lat="42.98438" lon="0.78614">
        <ele>555</ele>
        <time>2016-12-03T14:50:04.008Z</time>
      </trkpt>
      <trkpt lat="42.98444" lon="0.78622">
        <ele>555</ele>
        <time>2016-12-03T14:50:07.008Z</time>
      </trkpt>
      <trkpt lat="42.98451" lon="0.78628">
        <ele>555</ele>
        <time>2016-12-03T14:50:10.008Z</time>
      </trkpt>
      <trkpt lat="42.98457" lon="0.78627">
        <ele>556</ele>
        <time>2016-12-03T14:50:13.008Z</time>
      </trkpt>
      <trkpt lat="42.9846" lon="0.78617">
        <ele>556</ele>
        <time>2016-12-03T14:50:16.008Z</time>
      </trkpt>
      <trkpt lat="42.98457" lon="0.78607">
        <ele>556</ele>
        <time>2016-12-03T14:50:19.008Z</time>
      </trkpt>
      <trkpt lat="42.98453" lon="0.78602">
        <ele>556.69600389115</ele>
        <time>2016-12-03T14:50:21.008Z</time>
      </trkpt>
      <trkpt lat="42.98446" lon="0.78596">
        <ele>558</ele>
        <time>2016-12-03T14:50:24.008Z</time>
      </trkpt>
      <trkpt lat="42.98441" lon="0.78589">
        <ele>558</ele>
        <time>2016-12-03T14:50:27.008Z</time>
      </trkpt>
      <trkpt lat="42.98436" lon="0.78581">
        <ele>558</ele>
        <time>2016-12-03T14:50:30.008Z</time>
      </trkpt>
      <trkpt lat="42.98431" lon="0.78573">
        <ele>561</ele>
        <time>2016-12-03T14:50:33.008Z</time>
      </trkpt>
      <trkpt lat="42.98426" lon="0.78564">
        <ele>561.69599610875</ele>
        <time>2016-12-03T14:50:36.008Z</time>
      </trkpt>
      <trkpt lat="42.9842" lon="0.78558">
        <ele>563</ele>
        <time>2016-12-03T14:50:39.008Z</time>
      </trkpt>
      <trkpt lat="42.98413" lon="0.78556">
        <ele>565</ele>
        <time>2016-12-03T14:50:42.008Z</time>
      </trkpt>
      <trkpt lat="42.98405" lon="0.78554">
        <ele>565.34799805438</ele>
        <time>2016-12-03T14:50:46.008Z</time>
      </trkpt>
      <trkpt lat="42.98396" lon="0.78552">
        <ele>566</ele>
        <time>2016-12-03T14:50:50.008Z</time>
      </trkpt>
      <trkpt lat="42.98388" lon="0.78546">
        <ele>567</ele>
        <time>2016-12-03T14:50:54.008Z</time>
      </trkpt>
      <trkpt lat="42.98381" lon="0.78539">
        <ele>568</ele>
        <time>2016-12-03T14:50:58.008Z</time>
      </trkpt>
      <trkpt lat="42.98375" lon="0.78529">
        <ele>570</ele>
        <time>2016-12-03T14:51:02.008Z</time>
      </trkpt>
      <trkpt lat="42.98372" lon="0.78519">
        <ele>570</ele>
        <time>2016-12-03T14:51:05.008Z</time>
      </trkpt>
      <trkpt lat="42.98369" lon="0.78509">
        <ele>572</ele>
        <time>2016-12-03T14:51:08.008Z</time>
      </trkpt>
      <trkpt lat="42.98369" lon="0.78497">
        <ele>572.34800194557</ele>
        <time>2016-12-03T14:51:11.008Z</time>
      </trkpt>
      <trkpt lat="42.98368" lon="0.78485">
        <ele>573</ele>
        <time>2016-12-03T14:51:14.008Z</time>
      </trkpt>
      <trkpt lat="42.98369" lon="0.78476">
        <ele>575</ele>
        <time>2016-12-03T14:51:17.008Z</time>
      </trkpt>
      <trkpt lat="42.98369" lon="0.78466">
        <ele>575</ele>
        <time>2016-12-03T14:51:20.008Z</time>
      </trkpt>
      <trkpt lat="42.98371" lon="0.78456">
        <ele>576</ele>
        <time>2016-12-03T14:51:23.008Z</time>
      </trkpt>
      <trkpt lat="42.98374" lon="0.78448">
        <ele>576</ele>
        <time>2016-12-03T14:51:26.008Z</time>
      </trkpt>
      <trkpt lat="42.98375" lon="0.78436">
        <ele>576</ele>
        <time>2016-12-03T14:51:30.008Z</time>
      </trkpt>
      <trkpt lat="42.98376" lon="0.78428">
        <ele>578</ele>
        <time>2016-12-03T14:51:33.008Z</time>
      </trkpt>
      <trkpt lat="42.98375" lon="0.78417">
        <ele>579</ele>
        <time>2016-12-03T14:51:37.008Z</time>
      </trkpt>
      <trkpt lat="42.98374" lon="0.78406">
        <ele>579.69600389115</ele>
        <time>2016-12-03T14:51:41.008Z</time>
      </trkpt>
      <trkpt lat="42.98379" lon="0.78399">
        <ele>581</ele>
        <time>2016-12-03T14:51:44.008Z</time>
      </trkpt>
      <trkpt lat="42.98387" lon="0.78401">
        <ele>582</ele>
        <time>2016-12-03T14:51:47.008Z</time>
      </trkpt>
      <trkpt lat="42.98392" lon="0.78409">
        <ele>582</ele>
        <time>2016-12-03T14:51:50.008Z</time>
      </trkpt>
      <trkpt lat="42.98392" lon="0.78419">
        <ele>582</ele>
        <time>2016-12-03T14:51:53.008Z</time>
      </trkpt>
      <trkpt lat="42.98392" lon="0.78427">
        <ele>582</ele>
        <time>2016-12-03T14:51:55.008Z</time>
      </trkpt>
      <trkpt lat="42.98391" lon="0.78438">
        <ele>582</ele>
        <time>2016-12-03T14:51:58.008Z</time>
      </trkpt>
      <trkpt lat="42.9839" lon="0.78449">
        <ele>583.04400583672</ele>
        <time>2016-12-03T14:52:01.008Z</time>
      </trkpt>
      <trkpt lat="42.98391" lon="0.78457">
        <ele>585</ele>
        <time>2016-12-03T14:52:03.008Z</time>
      </trkpt>
      <trkpt lat="42.98392" lon="0.78465">
        <ele>585</ele>
        <time>2016-12-03T14:52:05.008Z</time>
      </trkpt>
      <trkpt lat="42.98396" lon="0.78473">
        <ele>585</ele>
        <time>2016-12-03T14:52:08.008Z</time>
      </trkpt>
      <trkpt lat="42.98401" lon="0.7848">
        <ele>585.34800194557</ele>
        <time>2016-12-03T14:52:11.008Z</time>
      </trkpt>
      <trkpt lat="42.98411" lon="0.78485">
        <ele>586</ele>
        <time>2016-12-03T14:52:16.008Z</time>
      </trkpt>
      <trkpt lat="42.98419" lon="0.78483">
        <ele>586</ele>
        <time>2016-12-03T14:52:20.008Z</time>
      </trkpt>
      <trkpt lat="42.98428" lon="0.78479">
        <ele>588</ele>
        <time>2016-12-03T14:52:24.008Z</time>
      </trkpt>
      <trkpt lat="42.98435" lon="0.78474">
        <ele>588</ele>
        <time>2016-12-03T14:52:27.008Z</time>
      </trkpt>
      <trkpt lat="42.98443" lon="0.78465">
        <ele>589.04400583672</ele>
        <time>2016-12-03T14:52:31.008Z</time>
      </trkpt>
      <trkpt lat="42.98449" lon="0.78455">
        <ele>591</ele>
        <time>2016-12-03T14:52:34.008Z</time>
      </trkpt>
      <trkpt lat="42.98454" lon="0.78443">
        <ele>594</ele>
        <time>2016-12-03T14:52:38.008Z</time>
      </trkpt>
      <trkpt lat="42.98456" lon="0.78432">
        <ele>594</ele>
        <time>2016-12-03T14:52:42.008Z</time>
      </trkpt>
      <trkpt lat="42.98458" lon="0.7842">
        <ele>594.69599610875</ele>
        <time>2016-12-03T14:52:46.008Z</time>
      </trkpt>
      <trkpt lat="42.98461" lon="0.78409">
        <ele>596</ele>
        <time>2016-12-03T14:52:50.008Z</time>
      </trkpt>
      <trkpt lat="42.98466" lon="0.78399">
        <ele>598</ele>
        <time>2016-12-03T14:52:53.008Z</time>
      </trkpt>
      <trkpt lat="42.98471" lon="0.78388">
        <ele>599</ele>
        <time>2016-12-03T14:52:57.008Z</time>
      </trkpt>
      <trkpt lat="42.98476" lon="0.78376">
        <ele>599.34800194557</ele>
        <time>2016-12-03T14:53:01.008Z</time>
      </trkpt>
      <trkpt lat="42.98481" lon="0.78365">
        <ele>600</ele>
        <time>2016-12-03T14:53:05.008Z</time>
      </trkpt>
      <trkpt lat="42.98486" lon="0.78354">
        <ele>600</ele>
        <time>2016-12-03T14:53:09.008Z</time>
      </trkpt>
      <trkpt lat="42.98491" lon="0.78345">
        <ele>603</ele>
        <time>2016-12-03T14:53:14.008Z</time>
      </trkpt>
      <trkpt lat="42.98497" lon="0.78331">
        <ele>604</ele>
        <time>2016-12-03T14:53:19.008Z</time>
      </trkpt>
      <trkpt lat="42.98503" lon="0.78322">
        <ele>606</ele>
        <time>2016-12-03T14:53:24.008Z</time>
      </trkpt>
      <trkpt lat="42.98512" lon="0.78314">
        <ele>608</ele>
        <time>2016-12-03T14:53:28.008Z</time>
      </trkpt>
      <trkpt lat="42.98521" lon="0.78308">
        <ele>608</ele>
        <time>2016-12-03T14:53:32.008Z</time>
      </trkpt>
      <trkpt lat="42.9853" lon="0.78299">
        <ele>608</ele>
        <time>2016-12-03T14:53:35.008Z</time>
      </trkpt>
      <trkpt lat="42.98536" lon="0.78292">
        <ele>608</ele>
        <time>2016-12-03T14:53:38.008Z</time>
      </trkpt>
      <trkpt lat="42.9854" lon="0.78278">
        <ele>611</ele>
        <time>2016-12-03T14:53:43.008Z</time>
      </trkpt>
      <trkpt lat="42.98543" lon="0.78263">
        <ele>612</ele>
        <time>2016-12-03T14:53:48.008Z</time>
      </trkpt>
      <trkpt lat="42.98544" lon="0.78248">
        <ele>614</ele>
        <time>2016-12-03T14:53:53.008Z</time>
      </trkpt>
      <trkpt lat="42.98544" lon="0.78234">
        <ele>616</ele>
        <time>2016-12-03T14:53:57.008Z</time>
      </trkpt>
      <trkpt lat="42.98544" lon="0.7822">
        <ele>616.34800194557</ele>
        <time>2016-12-03T14:54:01.008Z</time>
      </trkpt>
      <trkpt lat="42.98543" lon="0.78206">
        <ele>617.69599610875</ele>
        <time>2016-12-03T14:54:06.008Z</time>
      </trkpt>
      <trkpt lat="42.98544" lon="0.78193">
        <ele>619</ele>
        <time>2016-12-03T14:54:10.008Z</time>
      </trkpt>
      <trkpt lat="42.98542" lon="0.78176">
        <ele>620</ele>
        <time>2016-12-03T14:54:15.008Z</time>
      </trkpt>
      <trkpt lat="42.98542" lon="0.78164">
        <ele>621</ele>
        <time>2016-12-03T14:54:19.008Z</time>
      </trkpt>
      <trkpt lat="42.98542" lon="0.78148">
        <ele>623</ele>
        <time>2016-12-03T14:54:24.008Z</time>
      </trkpt>
      <trkpt lat="42.98541" lon="0.78132">
        <ele>623</ele>
        <time>2016-12-03T14:54:29.008Z</time>
      </trkpt>
      <trkpt lat="42.98541" lon="0.78119">
        <ele>625</ele>
        <time>2016-12-03T14:54:33.008Z</time>
      </trkpt>
      <trkpt lat="42.9854" lon="0.78106">
        <ele>625</ele>
        <time>2016-12-03T14:54:37.008Z</time>
      </trkpt>
      <trkpt lat="42.98539" lon="0.78091">
        <ele>625.69600389115</ele>
        <time>2016-12-03T14:54:41.008Z</time>
      </trkpt>
      <trkpt lat="42.98539" lon="0.78079">
        <ele>627</ele>
        <time>2016-12-03T14:54:45.008Z</time>
      </trkpt>
      <trkpt lat="42.98539" lon="0.78063">
        <ele>627</ele>
        <time>2016-12-03T14:54:50.008Z</time>
      </trkpt>
      <trkpt lat="42.98538" lon="0.78048">
        <ele>630</ele>
        <time>2016-12-03T14:54:55.008Z</time>
      </trkpt>
      <trkpt lat="42.98538" lon="0.78035">
        <ele>631</ele>
        <time>2016-12-03T14:54:59.008Z</time>
      </trkpt>
      <trkpt lat="42.98538" lon="0.78023">
        <ele>633</ele>
        <time>2016-12-03T14:55:03.008Z</time>
      </trkpt>
      <trkpt lat="42.98538" lon="0.78009">
        <ele>634</ele>
        <time>2016-12-03T14:55:07.008Z</time>
      </trkpt>
      <trkpt lat="42.9854" lon="0.77996">
        <ele>634.69600389115</ele>
        <time>2016-12-03T14:55:11.008Z</time>
      </trkpt>
      <trkpt lat="42.98541" lon="0.7798">
        <ele>636</ele>
        <time>2016-12-03T14:55:16.008Z</time>
      </trkpt>
      <trkpt lat="42.98544" lon="0.77967">
        <ele>636</ele>
        <time>2016-12-03T14:55:20.008Z</time>
      </trkpt>
      <trkpt lat="42.98546" lon="0.77953">
        <ele>637</ele>
        <time>2016-12-03T14:55:25.008Z</time>
      </trkpt>
      <trkpt lat="42.98547" lon="0.77939">
        <ele>637</ele>
        <time>2016-12-03T14:55:30.008Z</time>
      </trkpt>
      <trkpt lat="42.98551" lon="0.77927">
        <ele>639</ele>
        <time>2016-12-03T14:55:35.008Z</time>
      </trkpt>
      <trkpt lat="42.98554" lon="0.77915">
        <ele>639</ele>
        <time>2016-12-03T14:55:39.008Z</time>
      </trkpt>
      <trkpt lat="42.98554" lon="0.77903">
        <ele>641</ele>
        <time>2016-12-03T14:55:43.008Z</time>
      </trkpt>
      <trkpt lat="42.98559" lon="0.7789">
        <ele>644</ele>
        <time>2016-12-03T14:55:48.008Z</time>
      </trkpt>
      <trkpt lat="42.98566" lon="0.77878">
        <ele>644</ele>
        <time>2016-12-03T14:55:53.008Z</time>
      </trkpt>
      <trkpt lat="42.9857" lon="0.77865">
        <ele>646</ele>
        <time>2016-12-03T14:55:58.008Z</time>
      </trkpt>
      <trkpt lat="42.98576" lon="0.77855">
        <ele>647</ele>
        <time>2016-12-03T14:56:02.008Z</time>
      </trkpt>
      <trkpt lat="42.98579" lon="0.77844">
        <ele>647.34799805438</ele>
        <time>2016-12-03T14:56:06.008Z</time>
      </trkpt>
      <trkpt lat="42.9858" lon="0.77834">
        <ele>648</ele>
        <time>2016-12-03T14:56:09.008Z</time>
      </trkpt>
      <trkpt lat="42.98583" lon="0.77824">
        <ele>649</ele>
        <time>2016-12-03T14:56:12.008Z</time>
      </trkpt>
      <trkpt lat="42.98584" lon="0.77814">
        <ele>649</ele>
        <time>2016-12-03T14:56:15.008Z</time>
      </trkpt>
      <trkpt lat="42.98585" lon="0.77805">
        <ele>650</ele>
        <time>2016-12-03T14:56:18.008Z</time>
      </trkpt>
      <trkpt lat="42.98588" lon="0.77793">
        <ele>652</ele>
        <time>2016-12-03T14:56:22.008Z</time>
      </trkpt>
      <trkpt lat="42.98588" lon="0.7778">
        <ele>652.34799805438</ele>
        <time>2016-12-03T14:56:26.008Z</time>
      </trkpt>
      <trkpt lat="42.98588" lon="0.7777">
        <ele>653</ele>
        <time>2016-12-03T14:56:29.008Z</time>
      </trkpt>
      <trkpt lat="42.98587" lon="0.77761">
        <ele>655</ele>
        <time>2016-12-03T14:56:32.008Z</time>
      </trkpt>
      <trkpt lat="42.98586" lon="0.7775">
        <ele>655.34799805438</ele>
        <time>2016-12-03T14:56:36.008Z</time>
      </trkpt>
      <trkpt lat="42.98585" lon="0.77739">
        <ele>656</ele>
        <time>2016-12-03T14:56:40.008Z</time>
      </trkpt>
      <trkpt lat="42.98593" lon="0.77732">
        <ele>657</ele>
        <time>2016-12-03T14:56:44.008Z</time>
      </trkpt>
      <trkpt lat="42.98601" lon="0.77741">
        <ele>658</ele>
        <time>2016-12-03T14:56:48.008Z</time>
      </trkpt>
      <trkpt lat="42.9861" lon="0.77751">
        <ele>659</ele>
        <time>2016-12-03T14:56:53.008Z</time>
      </trkpt>
      <trkpt lat="42.9862" lon="0.77759">
        <ele>659</ele>
        <time>2016-12-03T14:56:58.008Z</time>
      </trkpt>
      <trkpt lat="42.98626" lon="0.77764">
        <ele>660.04400583672</ele>
        <time>2016-12-03T14:57:01.008Z</time>
      </trkpt>
      <trkpt lat="42.98631" lon="0.77771">
        <ele>662</ele>
        <time>2016-12-03T14:57:04.008Z</time>
      </trkpt>
      <trkpt lat="42.98639" lon="0.77779">
        <ele>664</ele>
        <time>2016-12-03T14:57:09.008Z</time>
      </trkpt>
      <trkpt lat="42.98649" lon="0.77787">
        <ele>665</ele>
        <time>2016-12-03T14:57:14.008Z</time>
      </trkpt>
      <trkpt lat="42.98656" lon="0.77795">
        <ele>666</ele>
        <time>2016-12-03T14:57:18.008Z</time>
      </trkpt>
      <trkpt lat="42.98662" lon="0.77803">
        <ele>666</ele>
        <time>2016-12-03T14:57:22.008Z</time>
      </trkpt>
      <trkpt lat="42.98671" lon="0.77813">
        <ele>666</ele>
        <time>2016-12-03T14:57:27.008Z</time>
      </trkpt>
      <trkpt lat="42.98679" lon="0.77823">
        <ele>668</ele>
        <time>2016-12-03T14:57:32.008Z</time>
      </trkpt>
      <trkpt lat="42.98685" lon="0.77837">
        <ele>668</ele>
        <time>2016-12-03T14:57:37.008Z</time>
      </trkpt>
      <trkpt lat="42.98693" lon="0.77849">
        <ele>671</ele>
        <time>2016-12-03T14:57:42.008Z</time>
      </trkpt>
      <trkpt lat="42.98696" lon="0.77864">
        <ele>671.34799805438</ele>
        <time>2016-12-03T14:57:46.008Z</time>
      </trkpt>
      <trkpt lat="42.987" lon="0.77877">
        <ele>672</ele>
        <time>2016-12-03T14:57:50.008Z</time>
      </trkpt>
      <trkpt lat="42.98704" lon="0.77887">
        <ele>673</ele>
        <time>2016-12-03T14:57:53.008Z</time>
      </trkpt>
      <trkpt lat="42.98708" lon="0.77897">
        <ele>673</ele>
        <time>2016-12-03T14:57:56.008Z</time>
      </trkpt>
      <trkpt lat="42.98714" lon="0.77909">
        <ele>673</ele>
        <time>2016-12-03T14:58:00.008Z</time>
      </trkpt>
      <trkpt lat="42.98721" lon="0.7792">
        <ele>675</ele>
        <time>2016-12-03T14:58:04.008Z</time>
      </trkpt>
      <trkpt lat="42.9873" lon="0.7793">
        <ele>675</ele>
        <time>2016-12-03T14:58:08.008Z</time>
      </trkpt>
      <trkpt lat="42.98739" lon="0.77941">
        <ele>675</ele>
        <time>2016-12-03T14:58:12.008Z</time>
      </trkpt>
      <trkpt lat="42.98747" lon="0.77948">
        <ele>675</ele>
        <time>2016-12-03T14:58:15.008Z</time>
      </trkpt>
      <trkpt lat="42.98756" lon="0.77952">
        <ele>675</ele>
        <time>2016-12-03T14:58:20.008Z</time>
      </trkpt>
      <trkpt lat="42.98767" lon="0.77953">
        <ele>675</ele>
        <time>2016-12-03T14:58:24.008Z</time>
      </trkpt>
      <trkpt lat="42.98778" lon="0.7795">
        <ele>675</ele>
        <time>2016-12-03T14:58:28.008Z</time>
      </trkpt>
      <trkpt lat="42.98788" lon="0.77943">
        <ele>675</ele>
        <time>2016-12-03T14:58:32.008Z</time>
      </trkpt>
      <trkpt lat="42.988" lon="0.77938">
        <ele>675</ele>
        <time>2016-12-03T14:58:36.008Z</time>
      </trkpt>
      <trkpt lat="42.98811" lon="0.77933">
        <ele>675</ele>
        <time>2016-12-03T14:58:40.008Z</time>
      </trkpt>
      <trkpt lat="42.98822" lon="0.77929">
        <ele>676</ele>
        <time>2016-12-03T14:58:44.008Z</time>
      </trkpt>
      <trkpt lat="42.98831" lon="0.77927">
        <ele>676</ele>
        <time>2016-12-03T14:58:47.008Z</time>
      </trkpt>
      <trkpt lat="42.98842" lon="0.77924">
        <ele>676.69600389115</ele>
        <time>2016-12-03T14:58:51.008Z</time>
      </trkpt>
      <trkpt lat="42.98852" lon="0.77923">
        <ele>678</ele>
        <time>2016-12-03T14:58:54.008Z</time>
      </trkpt>
      <trkpt lat="42.98864" lon="0.77922">
        <ele>678</ele>
        <time>2016-12-03T14:58:58.008Z</time>
      </trkpt>
      <trkpt lat="42.98873" lon="0.77921">
        <ele>678</ele>
        <time>2016-12-03T14:59:02.008Z</time>
      </trkpt>
      <trkpt lat="42.98882" lon="0.77917">
        <ele>678</ele>
        <time>2016-12-03T14:59:05.008Z</time>
      </trkpt>
      <trkpt lat="42.98891" lon="0.77913">
        <ele>678</ele>
        <time>2016-12-03T14:59:08.008Z</time>
      </trkpt>
      <trkpt lat="42.989" lon="0.77911">
        <ele>678.69600389115</ele>
        <time>2016-12-03T14:59:11.008Z</time>
      </trkpt>
      <trkpt lat="42.98912" lon="0.77909">
        <ele>680</ele>
        <time>2016-12-03T14:59:15.008Z</time>
      </trkpt>
      <trkpt lat="42.9892" lon="0.77908">
        <ele>680</ele>
        <time>2016-12-03T14:59:18.008Z</time>
      </trkpt>
      <trkpt lat="42.98929" lon="0.77908">
        <ele>680</ele>
        <time>2016-12-03T14:59:23.008Z</time>
      </trkpt>
      <trkpt lat="42.98939" lon="0.77905">
        <ele>680.34800194557</ele>
        <time>2016-12-03T14:59:41.008Z</time>
      </trkpt>
      <trkpt lat="42.98948" lon="0.779">
        <ele>681</ele>
        <time>2016-12-03T14:59:44.008Z</time>
      </trkpt>
      <trkpt lat="42.98956" lon="0.77896">
        <ele>681</ele>
        <time>2016-12-03T14:59:47.008Z</time>
      </trkpt>
      <trkpt lat="42.98966" lon="0.77896">
        <ele>681.34800194557</ele>
        <time>2016-12-03T14:59:51.008Z</time>
      </trkpt>
      <trkpt lat="42.98978" lon="0.77901">
        <ele>682</ele>
        <time>2016-12-03T14:59:55.008Z</time>
      </trkpt>
      <trkpt lat="42.98986" lon="0.77911">
        <ele>682</ele>
        <time>2016-12-03T14:59:59.008Z</time>
      </trkpt>
      <trkpt lat="42.98994" lon="0.77921">
        <ele>684</ele>
        <time>2016-12-03T15:00:03.008Z</time>
      </trkpt>
      <trkpt lat="42.99001" lon="0.77926">
        <ele>684</ele>
        <time>2016-12-03T15:00:06.008Z</time>
      </trkpt>
      <trkpt lat="42.99013" lon="0.77924">
        <ele>684</ele>
        <time>2016-12-03T15:00:10.008Z</time>
      </trkpt>
      <trkpt lat="42.99026" lon="0.77927">
        <ele>684</ele>
        <time>2016-12-03T15:00:14.008Z</time>
      </trkpt>
      <trkpt lat="42.99035" lon="0.77937">
        <ele>684</ele>
        <time>2016-12-03T15:00:18.008Z</time>
      </trkpt>
      <trkpt lat="42.99034" lon="0.77955">
        <ele>684.34800194557</ele>
        <time>2016-12-03T15:00:21.008Z</time>
      </trkpt>
      <trkpt lat="42.99038" lon="0.77971">
        <ele>685</ele>
        <time>2016-12-03T15:00:25.008Z</time>
      </trkpt>
      <trkpt lat="42.99044" lon="0.77985">
        <ele>685</ele>
        <time>2016-12-03T15:00:29.008Z</time>
      </trkpt>
      <trkpt lat="42.9905" lon="0.77997">
        <ele>687</ele>
        <time>2016-12-03T15:00:33.008Z</time>
      </trkpt>
      <trkpt lat="42.99057" lon="0.7801">
        <ele>687</ele>
        <time>2016-12-03T15:00:37.008Z</time>
      </trkpt>
      <trkpt lat="42.99066" lon="0.78019">
        <ele>687.69600389115</ele>
        <time>2016-12-03T15:00:41.008Z</time>
      </trkpt>
      <trkpt lat="42.99075" lon="0.78023">
        <ele>689</ele>
        <time>2016-12-03T15:00:45.008Z</time>
      </trkpt>
      <trkpt lat="42.99086" lon="0.78024">
        <ele>689</ele>
        <time>2016-12-03T15:00:50.008Z</time>
      </trkpt>
      <trkpt lat="42.99095" lon="0.78025">
        <ele>691</ele>
        <time>2016-12-03T15:00:53.008Z</time>
      </trkpt>
      <trkpt lat="42.99101" lon="0.78025">
        <ele>691</ele>
        <time>2016-12-03T15:00:55.008Z</time>
      </trkpt>
      <trkpt lat="42.99108" lon="0.78025">
        <ele>691</ele>
        <time>2016-12-03T15:00:57.008Z</time>
      </trkpt>
      <trkpt lat="42.99119" lon="0.78028">
        <ele>691.34800194557</ele>
        <time>2016-12-03T15:01:01.008Z</time>
      </trkpt>
      <trkpt lat="42.9913" lon="0.78032">
        <ele>692</ele>
        <time>2016-12-03T15:01:05.008Z</time>
      </trkpt>
      <trkpt lat="42.99139" lon="0.78041">
        <ele>692</ele>
        <time>2016-12-03T15:01:09.008Z</time>
      </trkpt>
      <trkpt lat="42.99148" lon="0.78052">
        <ele>693</ele>
        <time>2016-12-03T15:01:13.008Z</time>
      </trkpt>
      <trkpt lat="42.9915" lon="0.78068">
        <ele>693</ele>
        <time>2016-12-03T15:01:16.008Z</time>
      </trkpt>
      <trkpt lat="42.99152" lon="0.78082">
        <ele>693</ele>
        <time>2016-12-03T15:01:19.008Z</time>
      </trkpt>
      <trkpt lat="42.99157" lon="0.78096">
        <ele>694</ele>
        <time>2016-12-03T15:01:23.008Z</time>
      </trkpt>
      <trkpt lat="42.99161" lon="0.78109">
        <ele>694</ele>
        <time>2016-12-03T15:01:26.008Z</time>
      </trkpt>
      <trkpt lat="42.99167" lon="0.78122">
        <ele>694</ele>
        <time>2016-12-03T15:01:30.008Z</time>
      </trkpt>
      <trkpt lat="42.99173" lon="0.78134">
        <ele>695</ele>
        <time>2016-12-03T15:01:34.008Z</time>
      </trkpt>
      <trkpt lat="42.99179" lon="0.78148">
        <ele>695</ele>
        <time>2016-12-03T15:01:38.008Z</time>
      </trkpt>
      <trkpt lat="42.99184" lon="0.78163">
        <ele>696</ele>
        <time>2016-12-03T15:01:42.008Z</time>
      </trkpt>
      <trkpt lat="42.99184" lon="0.78176">
        <ele>696</ele>
        <time>2016-12-03T15:01:45.008Z</time>
      </trkpt>
      <trkpt lat="42.99186" lon="0.78187">
        <ele>696</ele>
        <time>2016-12-03T15:01:48.008Z</time>
      </trkpt>
      <trkpt lat="42.99193" lon="0.78192">
        <ele>698</ele>
        <time>2016-12-03T15:01:52.008Z</time>
      </trkpt>
      <trkpt lat="42.99194" lon="0.7818">
        <ele>698</ele>
        <time>2016-12-03T15:01:57.008Z</time>
      </trkpt>
      <trkpt lat="42.99192" lon="0.78168">
        <ele>699.3920077823</ele>
        <time>2016-12-03T15:02:01.008Z</time>
      </trkpt>
      <trkpt lat="42.99189" lon="0.78157">
        <ele>702</ele>
        <time>2016-12-03T15:02:05.008Z</time>
      </trkpt>
      <trkpt lat="42.99187" lon="0.78145">
        <ele>703</ele>
        <time>2016-12-03T15:02:09.008Z</time>
      </trkpt>
      <trkpt lat="42.99184" lon="0.78131">
        <ele>704</ele>
        <time>2016-12-03T15:02:13.008Z</time>
      </trkpt>
      <trkpt lat="42.99181" lon="0.78117">
        <ele>704</ele>
        <time>2016-12-03T15:02:18.008Z</time>
      </trkpt>
      <trkpt lat="42.99179" lon="0.78104">
        <ele>706</ele>
        <time>2016-12-03T15:02:22.008Z</time>
      </trkpt>
      <trkpt lat="42.99176" lon="0.78092">
        <ele>706</ele>
        <time>2016-12-03T15:02:27.008Z</time>
      </trkpt>
      <trkpt lat="42.99176" lon="0.78079">
        <ele>709</ele>
        <time>2016-12-03T15:02:32.008Z</time>
      </trkpt>
      <trkpt lat="42.99175" lon="0.78067">
        <ele>709.69599610875</ele>
        <time>2016-12-03T15:02:36.008Z</time>
      </trkpt>
      <trkpt lat="42.99175" lon="0.78054">
        <ele>711</ele>
        <time>2016-12-03T15:02:40.008Z</time>
      </trkpt>
      <trkpt lat="42.99174" lon="0.78043">
        <ele>712</ele>
        <time>2016-12-03T15:02:44.008Z</time>
      </trkpt>
      <trkpt lat="42.99172" lon="0.78031">
        <ele>713</ele>
        <time>2016-12-03T15:02:48.008Z</time>
      </trkpt>
      <trkpt lat="42.99168" lon="0.78016">
        <ele>715</ele>
        <time>2016-12-03T15:02:54.008Z</time>
      </trkpt>
      <trkpt lat="42.99162" lon="0.78005">
        <ele>717</ele>
        <time>2016-12-03T15:02:59.008Z</time>
      </trkpt>
      <trkpt lat="42.99155" lon="0.77996">
        <ele>718</ele>
        <time>2016-12-03T15:03:03.008Z</time>
      </trkpt>
      <trkpt lat="42.99144" lon="0.77989">
        <ele>719</ele>
        <time>2016-12-03T15:03:08.008Z</time>
      </trkpt>
      <trkpt lat="42.99134" lon="0.77984">
        <ele>720</ele>
        <time>2016-12-03T15:03:13.008Z</time>
      </trkpt>
      <trkpt lat="42.99124" lon="0.77976">
        <ele>720</ele>
        <time>2016-12-03T15:03:18.008Z</time>
      </trkpt>
      <trkpt lat="42.99113" lon="0.77969">
        <ele>722</ele>
        <time>2016-12-03T15:03:23.008Z</time>
      </trkpt>
      <trkpt lat="42.99104" lon="0.77961">
        <ele>724</ele>
        <time>2016-12-03T15:03:28.008Z</time>
      </trkpt>
      <trkpt lat="42.99097" lon="0.77952">
        <ele>724</ele>
        <time>2016-12-03T15:03:32.008Z</time>
      </trkpt>
      <trkpt lat="42.9909" lon="0.7794">
        <ele>724</ele>
        <time>2016-12-03T15:03:37.008Z</time>
      </trkpt>
      <trkpt lat="42.99086" lon="0.77925">
        <ele>727</ele>
        <time>2016-12-03T15:03:42.008Z</time>
      </trkpt>
      <trkpt lat="42.99085" lon="0.7791">
        <ele>727.68909842091</ele>
        <time>2016-12-03T15:03:46.008Z</time>
      </trkpt>
      <trkpt lat="42.99082" lon="0.77893">
        <ele>729.34800194557</ele>
        <time>2016-12-03T15:03:51.008Z</time>
      </trkpt>
      <trkpt lat="42.99079" lon="0.77879">
        <ele>730.69599610875</ele>
        <time>2016-12-03T15:03:56.008Z</time>
      </trkpt>
      <trkpt lat="42.99074" lon="0.77866">
        <ele>732.34800194557</ele>
        <time>2016-12-03T15:04:01.008Z</time>
      </trkpt>
      <trkpt lat="42.99072" lon="0.77852">
        <ele>733.69599610875</ele>
        <time>2016-12-03T15:04:06.008Z</time>
      </trkpt>
      <trkpt lat="42.99068" lon="0.77841">
        <ele>735</ele>
        <time>2016-12-03T15:04:10.008Z</time>
      </trkpt>
      <trkpt lat="42.99058" lon="0.77832">
        <ele>735</ele>
        <time>2016-12-03T15:04:16.008Z</time>
      </trkpt>
      <trkpt lat="42.99049" lon="0.77823">
        <ele>735.69600389115</ele>
        <time>2016-12-03T15:04:21.008Z</time>
      </trkpt>
      <trkpt lat="42.99043" lon="0.7782">
        <ele>737</ele>
        <time>2016-12-03T15:04:24.008Z</time>
      </trkpt>
      <trkpt lat="42.99039" lon="0.77812">
        <ele>737</ele>
        <time>2016-12-03T15:04:27.008Z</time>
      </trkpt>
      <trkpt lat="42.99035" lon="0.77804">
        <ele>737</ele>
        <time>2016-12-03T15:04:30.008Z</time>
      </trkpt>
      <trkpt lat="42.99031" lon="0.77796">
        <ele>739</ele>
        <time>2016-12-03T15:04:33.008Z</time>
      </trkpt>
      <trkpt lat="42.99027" lon="0.77788">
        <ele>739</ele>
        <time>2016-12-03T15:04:36.008Z</time>
      </trkpt>
      <trkpt lat="42.99022" lon="0.77782">
        <ele>739</ele>
        <time>2016-12-03T15:04:39.008Z</time>
      </trkpt>
      <trkpt lat="42.99016" lon="0.77778">
        <ele>741</ele>
        <time>2016-12-03T15:04:42.008Z</time>
      </trkpt>
      <trkpt lat="42.99009" lon="0.77773">
        <ele>741</ele>
        <time>2016-12-03T15:04:45.008Z</time>
      </trkpt>
      <trkpt lat="42.99002" lon="0.77772">
        <ele>741</ele>
        <time>2016-12-03T15:04:48.008Z</time>
      </trkpt>
      <trkpt lat="42.98994" lon="0.77772">
        <ele>741.69600389115</ele>
        <time>2016-12-03T15:04:51.008Z</time>
      </trkpt>
      <trkpt lat="42.98987" lon="0.77771">
        <ele>743</ele>
        <time>2016-12-03T15:04:54.008Z</time>
      </trkpt>
      <trkpt lat="42.98985" lon="0.77761">
        <ele>743</ele>
        <time>2016-12-03T15:04:58.008Z</time>
      </trkpt>
      <trkpt lat="42.98994" lon="0.7776">
        <ele>746</ele>
        <time>2016-12-03T15:05:02.008Z</time>
      </trkpt>
      <trkpt lat="42.99002" lon="0.77761">
        <ele>746</ele>
        <time>2016-12-03T15:05:05.008Z</time>
      </trkpt>
      <trkpt lat="42.99011" lon="0.77762">
        <ele>747</ele>
        <time>2016-12-03T15:05:08.008Z</time>
      </trkpt>
      <trkpt lat="42.9902" lon="0.77763">
        <ele>747</ele>
        <time>2016-12-03T15:05:11.008Z</time>
      </trkpt>
      <trkpt lat="42.99026" lon="0.77766">
        <ele>747</ele>
        <time>2016-12-03T15:05:14.008Z</time>
      </trkpt>
      <trkpt lat="42.99033" lon="0.77772">
        <ele>747</ele>
        <time>2016-12-03T15:05:17.008Z</time>
      </trkpt>
      <trkpt lat="42.9904" lon="0.77779">
        <ele>747</ele>
        <time>2016-12-03T15:05:20.008Z</time>
      </trkpt>
      <trkpt lat="42.99047" lon="0.77785">
        <ele>749</ele>
        <time>2016-12-03T15:05:23.008Z</time>
      </trkpt>
      <trkpt lat="42.99054" lon="0.77795">
        <ele>749</ele>
        <time>2016-12-03T15:05:28.008Z</time>
      </trkpt>
      <trkpt lat="42.99062" lon="0.77799">
        <ele>751</ele>
        <time>2016-12-03T15:05:32.008Z</time>
      </trkpt>
      <trkpt lat="42.9907" lon="0.77799">
        <ele>751</ele>
        <time>2016-12-03T15:05:35.008Z</time>
      </trkpt>
      <trkpt lat="42.99083" lon="0.77797">
        <ele>751</ele>
        <time>2016-12-03T15:05:39.008Z</time>
      </trkpt>
      <trkpt lat="42.99095" lon="0.77802">
        <ele>755</ele>
        <time>2016-12-03T15:05:44.008Z</time>
      </trkpt>
      <trkpt lat="42.99102" lon="0.77812">
        <ele>756</ele>
        <time>2016-12-03T15:05:48.008Z</time>
      </trkpt>
      <trkpt lat="42.99106" lon="0.77826">
        <ele>757</ele>
        <time>2016-12-03T15:05:52.008Z</time>
      </trkpt>
      <trkpt lat="42.99115" lon="0.77831">
        <ele>758</ele>
        <time>2016-12-03T15:05:58.008Z</time>
      </trkpt>
      <trkpt lat="42.99109" lon="0.77819">
        <ele>760</ele>
        <time>2016-12-03T15:06:03.008Z</time>
      </trkpt>
      <trkpt lat="42.99102" lon="0.7781">
        <ele>762</ele>
        <time>2016-12-03T15:06:07.008Z</time>
      </trkpt>
      <trkpt lat="42.99097" lon="0.77797">
        <ele>764</ele>
        <time>2016-12-03T15:06:12.008Z</time>
      </trkpt>
      <trkpt lat="42.99091" lon="0.77782">
        <ele>765</ele>
        <time>2016-12-03T15:06:17.008Z</time>
      </trkpt>
      <trkpt lat="42.99082" lon="0.77777">
        <ele>766</ele>
        <time>2016-12-03T15:06:22.008Z</time>
      </trkpt>
      <trkpt lat="42.99071" lon="0.77773">
        <ele>768</ele>
        <time>2016-12-03T15:06:27.008Z</time>
      </trkpt>
      <trkpt lat="42.99061" lon="0.77766">
        <ele>769</ele>
        <time>2016-12-03T15:06:32.008Z</time>
      </trkpt>
      <trkpt lat="42.99061" lon="0.77752">
        <ele>769.34799805438</ele>
        <time>2016-12-03T15:06:36.008Z</time>
      </trkpt>
      <trkpt lat="42.99065" lon="0.77747">
        <ele>770</ele>
        <time>2016-12-03T15:06:38.008Z</time>
      </trkpt>
      <trkpt lat="42.9907" lon="0.77747">
        <ele>770</ele>
        <time>2016-12-03T15:06:40.008Z</time>
      </trkpt>
      <trkpt lat="42.99082" lon="0.77751">
        <ele>772</ele>
        <time>2016-12-03T15:06:45.008Z</time>
      </trkpt>
      <trkpt lat="42.99091" lon="0.77747">
        <ele>773</ele>
        <time>2016-12-03T15:06:49.008Z</time>
      </trkpt>
      <trkpt lat="42.99099" lon="0.77738">
        <ele>773</ele>
        <time>2016-12-03T15:06:53.008Z</time>
      </trkpt>
      <trkpt lat="42.99101" lon="0.7773">
        <ele>773</ele>
        <time>2016-12-03T15:06:56.008Z</time>
      </trkpt>
      <trkpt lat="42.99102" lon="0.77724">
        <ele>773</ele>
        <time>2016-12-03T15:06:58.008Z</time>
      </trkpt>
      <trkpt lat="42.99104" lon="0.77719">
        <ele>773</ele>
        <time>2016-12-03T15:07:00.008Z</time>
      </trkpt>
      <trkpt lat="42.99106" lon="0.77713">
        <ele>778</ele>
        <time>2016-12-03T15:07:02.008Z</time>
      </trkpt>
      <trkpt lat="42.99108" lon="0.77708">
        <ele>778</ele>
        <time>2016-12-03T15:07:04.008Z</time>
      </trkpt>
      <trkpt lat="42.9911" lon="0.77704">
        <ele>778</ele>
        <time>2016-12-03T15:07:06.008Z</time>
      </trkpt>
      <trkpt lat="42.99112" lon="0.77698">
        <ele>778.34799805438</ele>
        <time>2016-12-03T15:07:08.008Z</time>
      </trkpt>
      <trkpt lat="42.99114" lon="0.77693">
        <ele>779</ele>
        <time>2016-12-03T15:07:10.008Z</time>
      </trkpt>
      <trkpt lat="42.99116" lon="0.77687">
        <ele>779</ele>
        <time>2016-12-03T15:07:12.008Z</time>
      </trkpt>
      <trkpt lat="42.99117" lon="0.77682">
        <ele>779</ele>
        <time>2016-12-03T15:07:14.008Z</time>
      </trkpt>
      <trkpt lat="42.99118" lon="0.77679">
        <ele>779</ele>
        <time>2016-12-03T15:07:15.008Z</time>
      </trkpt>
      <trkpt lat="42.99118" lon="0.77677">
        <ele>779</ele>
        <time>2016-12-03T15:07:16.008Z</time>
      </trkpt>
      <trkpt lat="42.99119" lon="0.77674">
        <ele>779</ele>
        <time>2016-12-03T15:07:17.008Z</time>
      </trkpt>
      <trkpt lat="42.99121" lon="0.77668">
        <ele>779</ele>
        <time>2016-12-03T15:07:19.008Z</time>
      </trkpt>
      <trkpt lat="42.99123" lon="0.77661">
        <ele>779</ele>
        <time>2016-12-03T15:07:21.008Z</time>
      </trkpt>
      <trkpt lat="42.99125" lon="0.77656">
        <ele>779</ele>
        <time>2016-12-03T15:07:23.008Z</time>
      </trkpt>
      <trkpt lat="42.99126" lon="0.7765">
        <ele>779</ele>
        <time>2016-12-03T15:07:26.008Z</time>
      </trkpt>
      <trkpt lat="42.99126" lon="0.77645">
        <ele>779</ele>
        <time>2016-12-03T15:07:28.008Z</time>
      </trkpt>
      <trkpt lat="42.99127" lon="0.77638">
        <ele>781</ele>
        <time>2016-12-03T15:07:32.008Z</time>
      </trkpt>
      <trkpt lat="42.99127" lon="0.77635">
        <ele>782</ele>
        <time>2016-12-03T15:09:36.008Z</time>
      </trkpt>
      <trkpt lat="42.99134" lon="0.77635">
        <ele>784</ele>
        <time>2016-12-03T15:13:41.008Z</time>
      </trkpt>
      <trkpt lat="42.99142" lon="0.77635">
        <ele>784</ele>
        <time>2016-12-03T15:13:43.008Z</time>
      </trkpt>
      <trkpt lat="42.99151" lon="0.77636">
        <ele>784</ele>
        <time>2016-12-03T15:13:45.008Z</time>
      </trkpt>
      <trkpt lat="42.99161" lon="0.77639">
        <ele>784</ele>
        <time>2016-12-03T15:13:47.008Z</time>
      </trkpt>
      <trkpt lat="42.99169" lon="0.77641">
        <ele>784</ele>
        <time>2016-12-03T15:13:49.008Z</time>
      </trkpt>
      <trkpt lat="42.99174" lon="0.77644">
        <ele>783.30399610885</ele>
        <time>2016-12-03T15:13:51.008Z</time>
      </trkpt>
      <trkpt lat="42.99181" lon="0.77647">
        <ele>781.65200194562</ele>
        <time>2016-12-03T15:13:56.008Z</time>
      </trkpt>
      <trkpt lat="42.99189" lon="0.77652">
        <ele>782</ele>
        <time>2016-12-03T15:14:05.008Z</time>
      </trkpt>
      <trkpt lat="42.99197" lon="0.77655">
        <ele>782</ele>
        <time>2016-12-03T15:14:18.008Z</time>
      </trkpt>
      <trkpt lat="42.99202" lon="0.77659">
        <ele>784</ele>
        <time>2016-12-03T15:14:22.008Z</time>
      </trkpt>
      <trkpt lat="42.99209" lon="0.7766">
        <ele>784</ele>
        <time>2016-12-03T15:14:26.008Z</time>
      </trkpt>
      <trkpt lat="42.99217" lon="0.77664">
        <ele>784.69600389115</ele>
        <time>2016-12-03T15:14:31.008Z</time>
      </trkpt>
      <trkpt lat="42.99223" lon="0.77668">
        <ele>786</ele>
        <time>2016-12-03T15:14:35.008Z</time>
      </trkpt>
      <trkpt lat="42.99229" lon="0.77673">
        <ele>786</ele>
        <time>2016-12-03T15:14:39.008Z</time>
      </trkpt>
      <trkpt lat="42.99234" lon="0.77678">
        <ele>789</ele>
        <time>2016-12-03T15:14:42.008Z</time>
      </trkpt>
      <trkpt lat="42.99239" lon="0.77682">
        <ele>790.04399416313</ele>
        <time>2016-12-03T15:14:46.008Z</time>
      </trkpt>
      <trkpt lat="42.99244" lon="0.77686">
        <ele>792</ele>
        <time>2016-12-03T15:14:50.008Z</time>
      </trkpt>
      <trkpt lat="42.9925" lon="0.77691">
        <ele>793</ele>
        <time>2016-12-03T15:14:54.008Z</time>
      </trkpt>
      <trkpt lat="42.99257" lon="0.77693">
        <ele>794</ele>
        <time>2016-12-03T15:14:59.008Z</time>
      </trkpt>
      <trkpt lat="42.99263" lon="0.77694">
        <ele>795</ele>
        <time>2016-12-03T15:15:02.008Z</time>
      </trkpt>
      <trkpt lat="42.99269" lon="0.77699">
        <ele>795</ele>
        <time>2016-12-03T15:15:06.008Z</time>
      </trkpt>
      <trkpt lat="42.99274" lon="0.77705">
        <ele>795</ele>
        <time>2016-12-03T15:15:09.008Z</time>
      </trkpt>
      <trkpt lat="42.99279" lon="0.77713">
        <ele>796</ele>
        <time>2016-12-03T15:15:12.008Z</time>
      </trkpt>
      <trkpt lat="42.99283" lon="0.77719">
        <ele>796</ele>
        <time>2016-12-03T15:15:14.008Z</time>
      </trkpt>
      <trkpt lat="42.99286" lon="0.77727">
        <ele>796</ele>
        <time>2016-12-03T15:15:17.008Z</time>
      </trkpt>
      <trkpt lat="42.99291" lon="0.77736">
        <ele>796.34800194557</ele>
        <time>2016-12-03T15:15:21.008Z</time>
      </trkpt>
      <trkpt lat="42.99294" lon="0.77745">
        <ele>797</ele>
        <time>2016-12-03T15:15:24.008Z</time>
      </trkpt>
      <trkpt lat="42.99297" lon="0.77756">
        <ele>797</ele>
        <time>2016-12-03T15:15:27.008Z</time>
      </trkpt>
      <trkpt lat="42.99301" lon="0.77766">
        <ele>797</ele>
        <time>2016-12-03T15:15:30.008Z</time>
      </trkpt>
      <trkpt lat="42.99306" lon="0.77777">
        <ele>797</ele>
        <time>2016-12-03T15:15:34.008Z</time>
      </trkpt>
      <trkpt lat="42.99312" lon="0.7779">
        <ele>797</ele>
        <time>2016-12-03T15:15:38.008Z</time>
      </trkpt>
      <trkpt lat="42.99317" lon="0.77802">
        <ele>797</ele>
        <time>2016-12-03T15:15:41.008Z</time>
      </trkpt>
      <trkpt lat="42.99323" lon="0.77812">
        <ele>797</ele>
        <time>2016-12-03T15:15:44.008Z</time>
      </trkpt>
      <trkpt lat="42.99329" lon="0.77825">
        <ele>797</ele>
        <time>2016-12-03T15:15:47.008Z</time>
      </trkpt>
      <trkpt lat="42.99336" lon="0.77837">
        <ele>797</ele>
        <time>2016-12-03T15:15:50.008Z</time>
      </trkpt>
      <trkpt lat="42.99346" lon="0.77847">
        <ele>796</ele>
        <time>2016-12-03T15:15:52.008Z</time>
      </trkpt>
      <trkpt lat="42.99355" lon="0.77857">
        <ele>796</ele>
        <time>2016-12-03T15:15:54.008Z</time>
      </trkpt>
      <trkpt lat="42.99365" lon="0.77865">
        <ele>796</ele>
        <time>2016-12-03T15:15:56.008Z</time>
      </trkpt>
      <trkpt lat="42.99375" lon="0.77874">
        <ele>796</ele>
        <time>2016-12-03T15:15:58.008Z</time>
      </trkpt>
      <trkpt lat="42.99382" lon="0.77881">
        <ele>796</ele>
        <time>2016-12-03T15:16:00.008Z</time>
      </trkpt>
      <trkpt lat="42.99389" lon="0.77886">
        <ele>795</ele>
        <time>2016-12-03T15:16:02.008Z</time>
      </trkpt>
      <trkpt lat="42.99401" lon="0.77893">
        <ele>795</ele>
        <time>2016-12-03T15:16:05.008Z</time>
      </trkpt>
      <trkpt lat="42.99409" lon="0.77895">
        <ele>795</ele>
        <time>2016-12-03T15:16:07.008Z</time>
      </trkpt>
      <trkpt lat="42.99419" lon="0.779">
        <ele>795</ele>
        <time>2016-12-03T15:16:09.008Z</time>
      </trkpt>
      <trkpt lat="42.99428" lon="0.77905">
        <ele>794.65199805443</ele>
        <time>2016-12-03T15:16:11.008Z</time>
      </trkpt>
      <trkpt lat="42.99436" lon="0.77908">
        <ele>794</ele>
        <time>2016-12-03T15:16:13.008Z</time>
      </trkpt>
      <trkpt lat="42.99446" lon="0.77912">
        <ele>794</ele>
        <time>2016-12-03T15:16:15.008Z</time>
      </trkpt>
      <trkpt lat="42.99454" lon="0.77915">
        <ele>794</ele>
        <time>2016-12-03T15:16:17.008Z</time>
      </trkpt>
      <trkpt lat="42.99462" lon="0.77919">
        <ele>794</ele>
        <time>2016-12-03T15:16:19.008Z</time>
      </trkpt>
      <trkpt lat="42.99471" lon="0.77922">
        <ele>793.65199805443</ele>
        <time>2016-12-03T15:16:21.008Z</time>
      </trkpt>
      <trkpt lat="42.99481" lon="0.77926">
        <ele>793</ele>
        <time>2016-12-03T15:16:23.008Z</time>
      </trkpt>
      <trkpt lat="42.9949" lon="0.77929">
        <ele>793</ele>
        <time>2016-12-03T15:16:25.008Z</time>
      </trkpt>
      <trkpt lat="42.995" lon="0.77935">
        <ele>793</ele>
        <time>2016-12-03T15:16:27.008Z</time>
      </trkpt>
      <trkpt lat="42.99515" lon="0.77945">
        <ele>793</ele>
        <time>2016-12-03T15:16:30.008Z</time>
      </trkpt>
      <trkpt lat="42.99524" lon="0.77951">
        <ele>792</ele>
        <time>2016-12-03T15:16:32.008Z</time>
      </trkpt>
      <trkpt lat="42.99532" lon="0.77957">
        <ele>792</ele>
        <time>2016-12-03T15:16:34.008Z</time>
      </trkpt>
      <trkpt lat="42.99543" lon="0.77967">
        <ele>792</ele>
        <time>2016-12-03T15:16:37.008Z</time>
      </trkpt>
      <trkpt lat="42.9955" lon="0.77977">
        <ele>792</ele>
        <time>2016-12-03T15:16:40.008Z</time>
      </trkpt>
      <trkpt lat="42.99559" lon="0.77986">
        <ele>793</ele>
        <time>2016-12-03T15:16:43.008Z</time>
      </trkpt>
      <trkpt lat="42.99566" lon="0.77992">
        <ele>793</ele>
        <time>2016-12-03T15:16:45.008Z</time>
      </trkpt>
      <trkpt lat="42.99573" lon="0.77997">
        <ele>793</ele>
        <time>2016-12-03T15:16:47.008Z</time>
      </trkpt>
      <trkpt lat="42.99581" lon="0.78004">
        <ele>793</ele>
        <time>2016-12-03T15:16:50.008Z</time>
      </trkpt>
      <trkpt lat="42.99587" lon="0.78011">
        <ele>793</ele>
        <time>2016-12-03T15:16:53.008Z</time>
      </trkpt>
      <trkpt lat="42.99596" lon="0.7802">
        <ele>793</ele>
        <time>2016-12-03T15:16:56.008Z</time>
      </trkpt>
      <trkpt lat="42.99605" lon="0.78029">
        <ele>793</ele>
        <time>2016-12-03T15:16:58.008Z</time>
      </trkpt>
      <trkpt lat="42.99613" lon="0.78036">
        <ele>793</ele>
        <time>2016-12-03T15:17:00.008Z</time>
      </trkpt>
      <trkpt lat="42.99624" lon="0.78044">
        <ele>792</ele>
        <time>2016-12-03T15:17:03.008Z</time>
      </trkpt>
      <trkpt lat="42.9963" lon="0.7805">
        <ele>792</ele>
        <time>2016-12-03T15:17:05.008Z</time>
      </trkpt>
      <trkpt lat="42.99639" lon="0.78057">
        <ele>792</ele>
        <time>2016-12-03T15:17:08.008Z</time>
      </trkpt>
      <trkpt lat="42.99646" lon="0.78063">
        <ele>792</ele>
        <time>2016-12-03T15:17:10.008Z</time>
      </trkpt>
      <trkpt lat="42.99653" lon="0.78068">
        <ele>794</ele>
        <time>2016-12-03T15:17:12.008Z</time>
      </trkpt>
      <trkpt lat="42.99664" lon="0.78069">
        <ele>794</ele>
        <time>2016-12-03T15:17:15.008Z</time>
      </trkpt>
      <trkpt lat="42.99671" lon="0.78066">
        <ele>794</ele>
        <time>2016-12-03T15:17:17.008Z</time>
      </trkpt>
      <trkpt lat="42.99682" lon="0.7806">
        <ele>794</ele>
        <time>2016-12-03T15:17:20.008Z</time>
      </trkpt>
      <trkpt lat="42.99687" lon="0.78051">
        <ele>794</ele>
        <time>2016-12-03T15:17:22.008Z</time>
      </trkpt>
      <trkpt lat="42.9969" lon="0.78039">
        <ele>794</ele>
        <time>2016-12-03T15:17:24.008Z</time>
      </trkpt>
      <trkpt lat="42.99692" lon="0.78022">
        <ele>794</ele>
        <time>2016-12-03T15:17:27.008Z</time>
      </trkpt>
      <trkpt lat="42.99694" lon="0.78014">
        <ele>794</ele>
        <time>2016-12-03T15:17:29.008Z</time>
      </trkpt>
      <trkpt lat="42.99699" lon="0.78008">
        <ele>794</ele>
        <time>2016-12-03T15:17:31.008Z</time>
      </trkpt>
      <trkpt lat="42.99704" lon="0.78004">
        <ele>794</ele>
        <time>2016-12-03T15:17:33.008Z</time>
      </trkpt>
      <trkpt lat="42.99708" lon="0.77999">
        <ele>794</ele>
        <time>2016-12-03T15:17:35.008Z</time>
      </trkpt>
      <trkpt lat="42.99712" lon="0.77994">
        <ele>794</ele>
        <time>2016-12-03T15:17:37.008Z</time>
      </trkpt>
      <trkpt lat="42.99716" lon="0.7799">
        <ele>794</ele>
        <time>2016-12-03T15:17:39.008Z</time>
      </trkpt>
      <trkpt lat="42.99719" lon="0.77985">
        <ele>794.69600389115</ele>
        <time>2016-12-03T15:17:41.008Z</time>
      </trkpt>
      <trkpt lat="42.99722" lon="0.77981">
        <ele>796</ele>
        <time>2016-12-03T15:17:43.008Z</time>
      </trkpt>
      <trkpt lat="42.99725" lon="0.77976">
        <ele>796</ele>
        <time>2016-12-03T15:17:45.008Z</time>
      </trkpt>
      <trkpt lat="42.99727" lon="0.77971">
        <ele>798</ele>
        <time>2016-12-03T15:17:47.008Z</time>
      </trkpt>
      <trkpt lat="42.99729" lon="0.77965">
        <ele>798</ele>
        <time>2016-12-03T15:17:49.008Z</time>
      </trkpt>
      <trkpt lat="42.99731" lon="0.77959">
        <ele>798.34800194557</ele>
        <time>2016-12-03T15:17:51.008Z</time>
      </trkpt>
      <trkpt lat="42.99732" lon="0.77954">
        <ele>799</ele>
        <time>2016-12-03T15:17:53.008Z</time>
      </trkpt>
      <trkpt lat="42.99733" lon="0.77949">
        <ele>799</ele>
        <time>2016-12-03T15:17:55.008Z</time>
      </trkpt>
      <trkpt lat="42.99734" lon="0.77943">
        <ele>801</ele>
        <time>2016-12-03T15:17:57.008Z</time>
      </trkpt>
      <trkpt lat="42.99736" lon="0.77938">
        <ele>801</ele>
        <time>2016-12-03T15:17:59.008Z</time>
      </trkpt>
      <trkpt lat="42.99738" lon="0.77934">
        <ele>801.69600389115</ele>
        <time>2016-12-03T15:18:01.008Z</time>
      </trkpt>
      <trkpt lat="42.99741" lon="0.77931">
        <ele>803</ele>
        <time>2016-12-03T15:18:03.008Z</time>
      </trkpt>
      <trkpt lat="42.99745" lon="0.7793">
        <ele>803</ele>
        <time>2016-12-03T15:18:05.008Z</time>
      </trkpt>
      <trkpt lat="42.99755" lon="0.77933">
        <ele>802</ele>
        <time>2016-12-03T15:18:08.008Z</time>
      </trkpt>
      <trkpt lat="42.99758" lon="0.77936">
        <ele>802</ele>
        <time>2016-12-03T15:18:09.008Z</time>
      </trkpt>
      <trkpt lat="42.99767" lon="0.77943">
        <ele>801.30399610885</ele>
        <time>2016-12-03T15:18:11.008Z</time>
      </trkpt>
      <trkpt lat="42.99772" lon="0.77949">
        <ele>800</ele>
        <time>2016-12-03T15:18:12.008Z</time>
      </trkpt>
      <trkpt lat="42.99777" lon="0.77955">
        <ele>800</ele>
        <time>2016-12-03T15:18:13.008Z</time>
      </trkpt>
      <trkpt lat="42.99781" lon="0.77961">
        <ele>800</ele>
        <time>2016-12-03T15:18:14.008Z</time>
      </trkpt>
      <trkpt lat="42.9979" lon="0.77976">
        <ele>798.95600583687</ele>
        <time>2016-12-03T15:18:16.008Z</time>
      </trkpt>
      <trkpt lat="42.99798" lon="0.77992">
        <ele>797</ele>
        <time>2016-12-03T15:18:18.008Z</time>
      </trkpt>
      <trkpt lat="42.99801" lon="0.78">
        <ele>797</ele>
        <time>2016-12-03T15:18:19.008Z</time>
      </trkpt>
      <trkpt lat="42.99804" lon="0.78008">
        <ele>797</ele>
        <time>2016-12-03T15:18:20.008Z</time>
      </trkpt>
      <trkpt lat="42.99806" lon="0.78016">
        <ele>795.6079922177</ele>
        <time>2016-12-03T15:18:21.008Z</time>
      </trkpt>
      <trkpt lat="42.99809" lon="0.78023">
        <ele>792.30400389125</ele>
        <time>2016-12-03T15:18:22.008Z</time>
      </trkpt>
      <trkpt lat="42.99815" lon="0.78035">
        <ele>790.65200194562</ele>
        <time>2016-12-03T15:18:24.008Z</time>
      </trkpt>
      <trkpt lat="42.99822" lon="0.78045">
        <ele>787.30400389125</ele>
        <time>2016-12-03T15:18:26.008Z</time>
      </trkpt>
      <trkpt lat="42.99827" lon="0.78057">
        <ele>785.65200194562</ele>
        <time>2016-12-03T15:18:28.008Z</time>
      </trkpt>
      <trkpt lat="42.99829" lon="0.78071">
        <ele>783.65200194562</ele>
        <time>2016-12-03T15:18:30.008Z</time>
      </trkpt>
      <trkpt lat="42.99831" lon="0.78086">
        <ele>779.65792226915</ele>
        <time>2016-12-03T15:18:32.008Z</time>
      </trkpt>
      <trkpt lat="42.99832" lon="0.78102">
        <ele>776.65200194562</ele>
        <time>2016-12-03T15:18:34.008Z</time>
      </trkpt>
      <trkpt lat="42.9984" lon="0.78117">
        <ele>773.65200194562</ele>
        <time>2016-12-03T15:18:36.008Z</time>
      </trkpt>
      <trkpt lat="42.99854" lon="0.78128">
        <ele>771.65200194562</ele>
        <time>2016-12-03T15:18:38.008Z</time>
      </trkpt>
      <trkpt lat="42.99872" lon="0.78136">
        <ele>768.95600583687</ele>
        <time>2016-12-03T15:18:40.008Z</time>
      </trkpt>
      <trkpt lat="42.99883" lon="0.78139">
        <ele>766.30399610885</ele>
        <time>2016-12-03T15:18:41.008Z</time>
      </trkpt>
      <trkpt lat="42.99893" lon="0.78141">
        <ele>764.65200194562</ele>
        <time>2016-12-03T15:18:42.008Z</time>
      </trkpt>
      <trkpt lat="42.99903" lon="0.78144">
        <ele>763.65199805443</ele>
        <time>2016-12-03T15:18:43.008Z</time>
      </trkpt>
      <trkpt lat="42.99913" lon="0.78149">
        <ele>762.30400389125</ele>
        <time>2016-12-03T15:18:44.008Z</time>
      </trkpt>
      <trkpt lat="42.99922" lon="0.78155">
        <ele>760.65199805443</ele>
        <time>2016-12-03T15:18:45.008Z</time>
      </trkpt>
      <trkpt lat="42.99931" lon="0.78161">
        <ele>759.65200194562</ele>
        <time>2016-12-03T15:18:46.008Z</time>
      </trkpt>
      <trkpt lat="42.99939" lon="0.78167">
        <ele>759</ele>
        <time>2016-12-03T15:18:47.008Z</time>
      </trkpt>
      <trkpt lat="42.99955" lon="0.78178">
        <ele>758.34800194557</ele>
        <time>2016-12-03T15:18:49.008Z</time>
      </trkpt>
      <trkpt lat="42.99963" lon="0.78182">
        <ele>759</ele>
        <time>2016-12-03T15:18:50.008Z</time>
      </trkpt>
      <trkpt lat="42.99969" lon="0.78184">
        <ele>759</ele>
        <time>2016-12-03T15:18:51.008Z</time>
      </trkpt>
      <trkpt lat="42.99975" lon="0.78186">
        <ele>759</ele>
        <time>2016-12-03T15:18:52.008Z</time>
      </trkpt>
      <trkpt lat="42.99982" lon="0.78186">
        <ele>759</ele>
        <time>2016-12-03T15:18:53.008Z</time>
      </trkpt>
      <trkpt lat="42.99992" lon="0.78185">
        <ele>759</ele>
        <time>2016-12-03T15:18:55.008Z</time>
      </trkpt>
      <trkpt lat="42.99997" lon="0.78186">
        <ele>758.65200194562</ele>
        <time>2016-12-03T15:18:56.008Z</time>
      </trkpt>
      <trkpt lat="43.00009" lon="0.78187">
        <ele>760</ele>
        <time>2016-12-03T15:18:59.008Z</time>
      </trkpt>
      <trkpt lat="43.00017" lon="0.78189">
        <ele>760</ele>
        <time>2016-12-03T15:19:01.008Z</time>
      </trkpt>
      <trkpt lat="43.00024" lon="0.7819">
        <ele>760</ele>
        <time>2016-12-03T15:19:03.008Z</time>
      </trkpt>
      <trkpt lat="43.0003" lon="0.78191">
        <ele>760</ele>
        <time>2016-12-03T15:19:05.008Z</time>
      </trkpt>
      <trkpt lat="43.00043" lon="0.78189">
        <ele>760</ele>
        <time>2016-12-03T15:19:08.008Z</time>
      </trkpt>
      <trkpt lat="43.00047" lon="0.78189">
        <ele>760</ele>
        <time>2016-12-03T15:19:09.008Z</time>
      </trkpt>
      <trkpt lat="43.00057" lon="0.78189">
        <ele>760</ele>
        <time>2016-12-03T15:19:11.008Z</time>
      </trkpt>
      <trkpt lat="43.00067" lon="0.78189">
        <ele>760</ele>
        <time>2016-12-03T15:19:13.008Z</time>
      </trkpt>
      <trkpt lat="43.00073" lon="0.78189">
        <ele>760</ele>
        <time>2016-12-03T15:19:14.008Z</time>
      </trkpt>
      <trkpt lat="43.00086" lon="0.7819">
        <ele>760</ele>
        <time>2016-12-03T15:19:16.008Z</time>
      </trkpt>
      <trkpt lat="43.001" lon="0.78192">
        <ele>760</ele>
        <time>2016-12-03T15:19:18.008Z</time>
      </trkpt>
      <trkpt lat="43.00113" lon="0.78195">
        <ele>760</ele>
        <time>2016-12-03T15:19:20.008Z</time>
      </trkpt>
      <trkpt lat="43.00124" lon="0.78202">
        <ele>752.30400389125</ele>
        <time>2016-12-03T15:19:22.008Z</time>
      </trkpt>
      <trkpt lat="43.00138" lon="0.78215">
        <ele>748.65200194562</ele>
        <time>2016-12-03T15:19:24.008Z</time>
      </trkpt>
      <trkpt lat="43.00146" lon="0.78223">
        <ele>747.65199805443</ele>
        <time>2016-12-03T15:19:25.008Z</time>
      </trkpt>
      <trkpt lat="43.00161" lon="0.78238">
        <ele>745.65199805443</ele>
        <time>2016-12-03T15:19:27.008Z</time>
      </trkpt>
      <trkpt lat="43.00174" lon="0.78253">
        <ele>744.65199805443</ele>
        <time>2016-12-03T15:19:29.008Z</time>
      </trkpt>
      <trkpt lat="43.00185" lon="0.78267">
        <ele>741.95599416328</ele>
        <time>2016-12-03T15:19:31.008Z</time>
      </trkpt>
      <trkpt lat="43.00197" lon="0.7828">
        <ele>740</ele>
        <time>2016-12-03T15:19:33.008Z</time>
      </trkpt>
      <trkpt lat="43.00209" lon="0.78292">
        <ele>737.65199805443</ele>
        <time>2016-12-03T15:19:35.008Z</time>
      </trkpt>
      <trkpt lat="43.00221" lon="0.78302">
        <ele>735.65199805443</ele>
        <time>2016-12-03T15:19:37.008Z</time>
      </trkpt>
      <trkpt lat="43.00231" lon="0.78312">
        <ele>734</ele>
        <time>2016-12-03T15:19:39.008Z</time>
      </trkpt>
      <trkpt lat="43.0024" lon="0.78321">
        <ele>732.65199805443</ele>
        <time>2016-12-03T15:19:41.008Z</time>
      </trkpt>
      <trkpt lat="43.0025" lon="0.78332">
        <ele>730.65199805443</ele>
        <time>2016-12-03T15:19:43.008Z</time>
      </trkpt>
      <trkpt lat="43.00259" lon="0.78345">
        <ele>728.65199805443</ele>
        <time>2016-12-03T15:19:45.008Z</time>
      </trkpt>
      <trkpt lat="43.00271" lon="0.78358">
        <ele>725.65510154892</ele>
        <time>2016-12-03T15:19:47.008Z</time>
      </trkpt>
      <trkpt lat="43.00286" lon="0.78368">
        <ele>725</ele>
        <time>2016-12-03T15:19:49.008Z</time>
      </trkpt>
      <trkpt lat="43.00307" lon="0.78383">
        <ele>721.65200194562</ele>
        <time>2016-12-03T15:19:52.008Z</time>
      </trkpt>
      <trkpt lat="43.00322" lon="0.78392">
        <ele>720.65200194562</ele>
        <time>2016-12-03T15:19:54.008Z</time>
      </trkpt>
      <trkpt lat="43.00337" lon="0.78397">
        <ele>718.30400389125</ele>
        <time>2016-12-03T15:19:56.008Z</time>
      </trkpt>
      <trkpt lat="43.0036" lon="0.78407">
        <ele>714.30399610885</ele>
        <time>2016-12-03T15:19:59.008Z</time>
      </trkpt>
      <trkpt lat="43.00375" lon="0.78415">
        <ele>711.65199805443</ele>
        <time>2016-12-03T15:20:01.008Z</time>
      </trkpt>
      <trkpt lat="43.0039" lon="0.78424">
        <ele>710.65199805443</ele>
        <time>2016-12-03T15:20:03.008Z</time>
      </trkpt>
      <trkpt lat="43.00406" lon="0.78431">
        <ele>708.65199805443</ele>
        <time>2016-12-03T15:20:05.008Z</time>
      </trkpt>
      <trkpt lat="43.00423" lon="0.78437">
        <ele>706.30399610885</ele>
        <time>2016-12-03T15:20:07.008Z</time>
      </trkpt>
      <trkpt lat="43.00439" lon="0.78441">
        <ele>704</ele>
        <time>2016-12-03T15:20:09.008Z</time>
      </trkpt>
      <trkpt lat="43.00453" lon="0.78447">
        <ele>702.34800194557</ele>
        <time>2016-12-03T15:20:11.008Z</time>
      </trkpt>
      <trkpt lat="43.00466" lon="0.78453">
        <ele>701.65199805443</ele>
        <time>2016-12-03T15:20:13.008Z</time>
      </trkpt>
      <trkpt lat="43.00481" lon="0.78458">
        <ele>698</ele>
        <time>2016-12-03T15:20:15.008Z</time>
      </trkpt>
      <trkpt lat="43.00489" lon="0.78461">
        <ele>697.30400389125</ele>
        <time>2016-12-03T15:20:16.008Z</time>
      </trkpt>
      <trkpt lat="43.00496" lon="0.78464">
        <ele>695.65199805443</ele>
        <time>2016-12-03T15:20:17.008Z</time>
      </trkpt>
      <trkpt lat="43.00507" lon="0.78468">
        <ele>693.65199805443</ele>
        <time>2016-12-03T15:20:19.008Z</time>
      </trkpt>
      <trkpt lat="43.00515" lon="0.78478">
        <ele>691</ele>
        <time>2016-12-03T15:20:22.008Z</time>
      </trkpt>
      <trkpt lat="43.00517" lon="0.78494">
        <ele>690</ele>
        <time>2016-12-03T15:20:25.008Z</time>
      </trkpt>
      <trkpt lat="43.00521" lon="0.78508">
        <ele>690</ele>
        <time>2016-12-03T15:20:27.008Z</time>
      </trkpt>
      <trkpt lat="43.00525" lon="0.78522">
        <ele>689</ele>
        <time>2016-12-03T15:20:29.008Z</time>
      </trkpt>
      <trkpt lat="43.00526" lon="0.78537">
        <ele>689</ele>
        <time>2016-12-03T15:20:31.008Z</time>
      </trkpt>
      <trkpt lat="43.00526" lon="0.7855">
        <ele>689</ele>
        <time>2016-12-03T15:20:33.008Z</time>
      </trkpt>
      <trkpt lat="43.00525" lon="0.78563">
        <ele>689</ele>
        <time>2016-12-03T15:20:35.008Z</time>
      </trkpt>
      <trkpt lat="43.00521" lon="0.78574">
        <ele>689</ele>
        <time>2016-12-03T15:20:37.008Z</time>
      </trkpt>
      <trkpt lat="43.00518" lon="0.78588">
        <ele>689</ele>
        <time>2016-12-03T15:20:40.008Z</time>
      </trkpt>
      <trkpt lat="43.00516" lon="0.78602">
        <ele>689</ele>
        <time>2016-12-03T15:20:43.008Z</time>
      </trkpt>
      <trkpt lat="43.00513" lon="0.78611">
        <ele>689</ele>
        <time>2016-12-03T15:20:45.008Z</time>
      </trkpt>
      <trkpt lat="43.0051" lon="0.78621">
        <ele>689</ele>
        <time>2016-12-03T15:20:47.008Z</time>
      </trkpt>
      <trkpt lat="43.00505" lon="0.78637">
        <ele>689</ele>
        <time>2016-12-03T15:20:50.008Z</time>
      </trkpt>
      <trkpt lat="43.00504" lon="0.78648">
        <ele>690</ele>
        <time>2016-12-03T15:20:52.008Z</time>
      </trkpt>
      <trkpt lat="43.00503" lon="0.78657">
        <ele>690</ele>
        <time>2016-12-03T15:20:54.008Z</time>
      </trkpt>
      <trkpt lat="43.00505" lon="0.78669">
        <ele>690</ele>
        <time>2016-12-03T15:20:57.008Z</time>
      </trkpt>
      <trkpt lat="43.00509" lon="0.78679">
        <ele>690</ele>
        <time>2016-12-03T15:21:00.008Z</time>
      </trkpt>
      <trkpt lat="43.00514" lon="0.78687">
        <ele>691</ele>
        <time>2016-12-03T15:21:03.008Z</time>
      </trkpt>
      <trkpt lat="43.0052" lon="0.78693">
        <ele>691</ele>
        <time>2016-12-03T15:21:06.008Z</time>
      </trkpt>
      <trkpt lat="43.00527" lon="0.787">
        <ele>691</ele>
        <time>2016-12-03T15:21:09.008Z</time>
      </trkpt>
      <trkpt lat="43.00535" lon="0.78705">
        <ele>693</ele>
        <time>2016-12-03T15:21:12.008Z</time>
      </trkpt>
      <trkpt lat="43.00542" lon="0.78711">
        <ele>693</ele>
        <time>2016-12-03T15:21:15.008Z</time>
      </trkpt>
      <trkpt lat="43.00549" lon="0.78716">
        <ele>693</ele>
        <time>2016-12-03T15:21:18.008Z</time>
      </trkpt>
      <trkpt lat="43.00557" lon="0.78719">
        <ele>693</ele>
        <time>2016-12-03T15:21:21.008Z</time>
      </trkpt>
      <trkpt lat="43.00566" lon="0.78724">
        <ele>693</ele>
        <time>2016-12-03T15:21:24.008Z</time>
      </trkpt>
      <trkpt lat="43.00575" lon="0.78726">
        <ele>693</ele>
        <time>2016-12-03T15:21:27.008Z</time>
      </trkpt>
      <trkpt lat="43.0059" lon="0.7873">
        <ele>693</ele>
        <time>2016-12-03T15:21:30.008Z</time>
      </trkpt>
      <trkpt lat="43.00603" lon="0.78735">
        <ele>691</ele>
        <time>2016-12-03T15:21:32.008Z</time>
      </trkpt>
      <trkpt lat="43.0061" lon="0.78737">
        <ele>691</ele>
        <time>2016-12-03T15:21:33.008Z</time>
      </trkpt>
      <trkpt lat="43.00623" lon="0.78741">
        <ele>691</ele>
        <time>2016-12-03T15:21:35.008Z</time>
      </trkpt>
      <trkpt lat="43.00635" lon="0.78747">
        <ele>691</ele>
        <time>2016-12-03T15:21:37.008Z</time>
      </trkpt>
      <trkpt lat="43.00653" lon="0.78756">
        <ele>691</ele>
        <time>2016-12-03T15:21:40.008Z</time>
      </trkpt>
      <trkpt lat="43.00668" lon="0.78754">
        <ele>688</ele>
        <time>2016-12-03T15:21:42.008Z</time>
      </trkpt>
      <trkpt lat="43.0068" lon="0.78752">
        <ele>688</ele>
        <time>2016-12-03T15:21:44.008Z</time>
      </trkpt>
      <trkpt lat="43.00692" lon="0.78754">
        <ele>687.30400389125</ele>
        <time>2016-12-03T15:21:46.008Z</time>
      </trkpt>
      <trkpt lat="43.00702" lon="0.78758">
        <ele>686</ele>
        <time>2016-12-03T15:21:48.008Z</time>
      </trkpt>
      <trkpt lat="43.00713" lon="0.78763">
        <ele>685.65199805443</ele>
        <time>2016-12-03T15:21:51.008Z</time>
      </trkpt>
      <trkpt lat="43.00726" lon="0.78761">
        <ele>685</ele>
        <time>2016-12-03T15:21:54.008Z</time>
      </trkpt>
      <trkpt lat="43.00738" lon="0.78754">
        <ele>686</ele>
        <time>2016-12-03T15:21:57.008Z</time>
      </trkpt>
      <trkpt lat="43.00748" lon="0.78742">
        <ele>686.69600389115</ele>
        <time>2016-12-03T15:22:01.008Z</time>
      </trkpt>
      <trkpt lat="43.00754" lon="0.78731">
        <ele>688</ele>
        <time>2016-12-03T15:22:04.008Z</time>
      </trkpt>
      <trkpt lat="43.00761" lon="0.78719">
        <ele>688</ele>
        <time>2016-12-03T15:22:07.008Z</time>
      </trkpt>
      <trkpt lat="43.00769" lon="0.7871">
        <ele>688</ele>
        <time>2016-12-03T15:22:10.008Z</time>
      </trkpt>
      <trkpt lat="43.00774" lon="0.78703">
        <ele>687</ele>
        <time>2016-12-03T15:22:12.008Z</time>
      </trkpt>
      <trkpt lat="43.0078" lon="0.78696">
        <ele>687</ele>
        <time>2016-12-03T15:22:14.008Z</time>
      </trkpt>
      <trkpt lat="43.00788" lon="0.78688">
        <ele>687</ele>
        <time>2016-12-03T15:22:16.008Z</time>
      </trkpt>
      <trkpt lat="43.00798" lon="0.7868">
        <ele>687</ele>
        <time>2016-12-03T15:22:18.008Z</time>
      </trkpt>
      <trkpt lat="43.00803" lon="0.78676">
        <ele>687</ele>
        <time>2016-12-03T15:22:19.008Z</time>
      </trkpt>
      <trkpt lat="43.00814" lon="0.78671">
        <ele>686.65199805443</ele>
        <time>2016-12-03T15:22:21.008Z</time>
      </trkpt>
      <trkpt lat="43.00822" lon="0.78666">
        <ele>686</ele>
        <time>2016-12-03T15:22:23.008Z</time>
      </trkpt>
      <trkpt lat="43.00829" lon="0.78659">
        <ele>686</ele>
        <time>2016-12-03T15:22:25.008Z</time>
      </trkpt>
      <trkpt lat="43.00837" lon="0.78654">
        <ele>686</ele>
        <time>2016-12-03T15:22:27.008Z</time>
      </trkpt>
      <trkpt lat="43.00844" lon="0.78648">
        <ele>686</ele>
        <time>2016-12-03T15:22:29.008Z</time>
      </trkpt>
      <trkpt lat="43.00852" lon="0.78643">
        <ele>685.65199805443</ele>
        <time>2016-12-03T15:22:31.008Z</time>
      </trkpt>
      <trkpt lat="43.00858" lon="0.78638">
        <ele>685</ele>
        <time>2016-12-03T15:22:33.008Z</time>
      </trkpt>
      <trkpt lat="43.00864" lon="0.78634">
        <ele>685</ele>
        <time>2016-12-03T15:22:35.008Z</time>
      </trkpt>
      <trkpt lat="43.00871" lon="0.7863">
        <ele>685</ele>
        <time>2016-12-03T15:22:37.008Z</time>
      </trkpt>
      <trkpt lat="43.00878" lon="0.78628">
        <ele>685</ele>
        <time>2016-12-03T15:22:39.008Z</time>
      </trkpt>
      <trkpt lat="43.00882" lon="0.78629">
        <ele>685</ele>
        <time>2016-12-03T15:22:40.008Z</time>
      </trkpt>
      <trkpt lat="43.00886" lon="0.78631">
        <ele>685</ele>
        <time>2016-12-03T15:22:41.008Z</time>
      </trkpt>
      <trkpt lat="43.00892" lon="0.78635">
        <ele>685</ele>
        <time>2016-12-03T15:22:43.008Z</time>
      </trkpt>
      <trkpt lat="43.009" lon="0.78641">
        <ele>685</ele>
        <time>2016-12-03T15:22:45.008Z</time>
      </trkpt>
      <trkpt lat="43.00908" lon="0.78648">
        <ele>685</ele>
        <time>2016-12-03T15:22:47.008Z</time>
      </trkpt>
      <trkpt lat="43.00916" lon="0.78656">
        <ele>685</ele>
        <time>2016-12-03T15:22:49.008Z</time>
      </trkpt>
      <trkpt lat="43.00923" lon="0.78665">
        <ele>683.97577058337</ele>
        <time>2016-12-03T15:22:51.008Z</time>
      </trkpt>
      <trkpt lat="43.0093" lon="0.78673">
        <ele>682</ele>
        <time>2016-12-03T15:22:53.008Z</time>
      </trkpt>
      <trkpt lat="43.00935" lon="0.7868">
        <ele>682</ele>
        <time>2016-12-03T15:22:55.008Z</time>
      </trkpt>
      <trkpt lat="43.00941" lon="0.78687">
        <ele>680</ele>
        <time>2016-12-03T15:22:57.008Z</time>
      </trkpt>
      <trkpt lat="43.00948" lon="0.78695">
        <ele>680</ele>
        <time>2016-12-03T15:22:59.008Z</time>
      </trkpt>
      <trkpt lat="43.00951" lon="0.78699">
        <ele>680</ele>
        <time>2016-12-03T15:23:00.008Z</time>
      </trkpt>
      <trkpt lat="43.00955" lon="0.78704">
        <ele>678.95599416328</ele>
        <time>2016-12-03T15:23:01.008Z</time>
      </trkpt>
      <trkpt lat="43.00959" lon="0.78708">
        <ele>677.34799805438</ele>
        <time>2016-12-03T15:23:02.008Z</time>
      </trkpt>
      <trkpt lat="43.00962" lon="0.78712">
        <ele>678</ele>
        <time>2016-12-03T15:23:03.008Z</time>
      </trkpt>
      <trkpt lat="43.00966" lon="0.78716">
        <ele>677.65200194562</ele>
        <time>2016-12-03T15:23:04.008Z</time>
      </trkpt>
      <trkpt lat="43.00972" lon="0.78724">
        <ele>677</ele>
        <time>2016-12-03T15:23:06.008Z</time>
      </trkpt>
      <trkpt lat="43.00979" lon="0.78731">
        <ele>677.34799805438</ele>
        <time>2016-12-03T15:23:08.008Z</time>
      </trkpt>
      <trkpt lat="43.00985" lon="0.78737">
        <ele>678</ele>
        <time>2016-12-03T15:23:10.008Z</time>
      </trkpt>
      <trkpt lat="43.00995" lon="0.78745">
        <ele>678</ele>
        <time>2016-12-03T15:23:13.008Z</time>
      </trkpt>
      <trkpt lat="43.01002" lon="0.78751">
        <ele>678</ele>
        <time>2016-12-03T15:23:15.008Z</time>
      </trkpt>
      <trkpt lat="43.01008" lon="0.78756">
        <ele>678</ele>
        <time>2016-12-03T15:23:17.008Z</time>
      </trkpt>
      <trkpt lat="43.01014" lon="0.78762">
        <ele>678</ele>
        <time>2016-12-03T15:23:19.008Z</time>
      </trkpt>
      <trkpt lat="43.0102" lon="0.78768">
        <ele>677.65199805443</ele>
        <time>2016-12-03T15:23:21.008Z</time>
      </trkpt>
      <trkpt lat="43.01025" lon="0.78774">
        <ele>677</ele>
        <time>2016-12-03T15:23:23.008Z</time>
      </trkpt>
      <trkpt lat="43.0103" lon="0.7878">
        <ele>677</ele>
        <time>2016-12-03T15:23:25.008Z</time>
      </trkpt>
      <trkpt lat="43.01034" lon="0.78788">
        <ele>677</ele>
        <time>2016-12-03T15:23:27.008Z</time>
      </trkpt>
      <trkpt lat="43.01037" lon="0.78796">
        <ele>677</ele>
        <time>2016-12-03T15:23:29.008Z</time>
      </trkpt>
      <trkpt lat="43.01041" lon="0.78803">
        <ele>676.65199805443</ele>
        <time>2016-12-03T15:23:31.008Z</time>
      </trkpt>
      <trkpt lat="43.01048" lon="0.78812">
        <ele>676</ele>
        <time>2016-12-03T15:23:33.008Z</time>
      </trkpt>
      <trkpt lat="43.01058" lon="0.78823">
        <ele>676</ele>
        <time>2016-12-03T15:23:35.008Z</time>
      </trkpt>
      <trkpt lat="43.0107" lon="0.78834">
        <ele>676</ele>
        <time>2016-12-03T15:23:37.008Z</time>
      </trkpt>
      <trkpt lat="43.01076" lon="0.78839">
        <ele>676</ele>
        <time>2016-12-03T15:23:38.008Z</time>
      </trkpt>
      <trkpt lat="43.0109" lon="0.78847">
        <ele>676</ele>
        <time>2016-12-03T15:23:40.008Z</time>
      </trkpt>
      <trkpt lat="43.01097" lon="0.7885">
        <ele>674.25999027212</ele>
        <time>2016-12-03T15:23:41.008Z</time>
      </trkpt>
      <trkpt lat="43.01111" lon="0.78853">
        <ele>671</ele>
        <time>2016-12-03T15:23:43.008Z</time>
      </trkpt>
      <trkpt lat="43.01118" lon="0.78853">
        <ele>671</ele>
        <time>2016-12-03T15:23:44.008Z</time>
      </trkpt>
      <trkpt lat="43.01129" lon="0.78849">
        <ele>668.91201167375</ele>
        <time>2016-12-03T15:23:46.008Z</time>
      </trkpt>
      <trkpt lat="43.01135" lon="0.78845">
        <ele>665</ele>
        <time>2016-12-03T15:23:48.008Z</time>
      </trkpt>
      <trkpt lat="43.01137" lon="0.78841">
        <ele>663</ele>
        <time>2016-12-03T15:24:10.008Z</time>
      </trkpt>
      <trkpt lat="43.01143" lon="0.78835">
        <ele>663</ele>
        <time>2016-12-03T15:24:14.008Z</time>
      </trkpt>
      <trkpt lat="43.01148" lon="0.78831">
        <ele>663</ele>
        <time>2016-12-03T15:24:16.008Z</time>
      </trkpt>
      <trkpt lat="43.01154" lon="0.78826">
        <ele>663</ele>
        <time>2016-12-03T15:24:18.008Z</time>
      </trkpt>
      <trkpt lat="43.0116" lon="0.78821">
        <ele>663</ele>
        <time>2016-12-03T15:24:20.008Z</time>
      </trkpt>
      <trkpt lat="43.01165" lon="0.78815">
        <ele>663</ele>
        <time>2016-12-03T15:24:22.008Z</time>
      </trkpt>
      <trkpt lat="43.01169" lon="0.78808">
        <ele>663</ele>
        <time>2016-12-03T15:24:24.008Z</time>
      </trkpt>
      <trkpt lat="43.01173" lon="0.788">
        <ele>663</ele>
        <time>2016-12-03T15:24:26.008Z</time>
      </trkpt>
      <trkpt lat="43.01175" lon="0.78792">
        <ele>663</ele>
        <time>2016-12-03T15:24:28.008Z</time>
      </trkpt>
      <trkpt lat="43.01176" lon="0.78787">
        <ele>663</ele>
        <time>2016-12-03T15:24:29.008Z</time>
      </trkpt>
      <trkpt lat="43.01177" lon="0.78783">
        <ele>663</ele>
        <time>2016-12-03T15:24:30.008Z</time>
      </trkpt>
      <trkpt lat="43.01178" lon="0.78779">
        <ele>663.69600389115</ele>
        <time>2016-12-03T15:24:31.008Z</time>
      </trkpt>
      <trkpt lat="43.01179" lon="0.78774">
        <ele>665</ele>
        <time>2016-12-03T15:24:32.008Z</time>
      </trkpt>
      <trkpt lat="43.0118" lon="0.7877">
        <ele>665</ele>
        <time>2016-12-03T15:24:33.008Z</time>
      </trkpt>
      <trkpt lat="43.01181" lon="0.78766">
        <ele>665</ele>
        <time>2016-12-03T15:24:34.008Z</time>
      </trkpt>
      <trkpt lat="43.01182" lon="0.78761">
        <ele>665</ele>
        <time>2016-12-03T15:24:35.008Z</time>
      </trkpt>
      <trkpt lat="43.01183" lon="0.78756">
        <ele>665</ele>
        <time>2016-12-03T15:24:36.008Z</time>
      </trkpt>
      <trkpt lat="43.01185" lon="0.78752">
        <ele>665</ele>
        <time>2016-12-03T15:24:37.008Z</time>
      </trkpt>
      <trkpt lat="43.01189" lon="0.78743">
        <ele>665</ele>
        <time>2016-12-03T15:24:39.008Z</time>
      </trkpt>
      <trkpt lat="43.01194" lon="0.78735">
        <ele>665.69600389115</ele>
        <time>2016-12-03T15:24:41.008Z</time>
      </trkpt>
      <trkpt lat="43.01198" lon="0.78727">
        <ele>667</ele>
        <time>2016-12-03T15:24:43.008Z</time>
      </trkpt>
      <trkpt lat="43.01206" lon="0.78715">
        <ele>667</ele>
        <time>2016-12-03T15:24:46.008Z</time>
      </trkpt>
      <trkpt lat="43.01213" lon="0.78705">
        <ele>667</ele>
        <time>2016-12-03T15:24:49.008Z</time>
      </trkpt>
      <trkpt lat="43.0122" lon="0.78695">
        <ele>668</ele>
        <time>2016-12-03T15:24:53.008Z</time>
      </trkpt>
      <trkpt lat="43.01228" lon="0.78682">
        <ele>668</ele>
        <time>2016-12-03T15:24:58.008Z</time>
      </trkpt>
      <trkpt lat="43.01234" lon="0.78672">
        <ele>671</ele>
        <time>2016-12-03T15:25:02.008Z</time>
      </trkpt>
      <trkpt lat="43.01239" lon="0.78663">
        <ele>671</ele>
        <time>2016-12-03T15:25:05.008Z</time>
      </trkpt>
      <trkpt lat="43.01244" lon="0.78651">
        <ele>671</ele>
        <time>2016-12-03T15:25:08.008Z</time>
      </trkpt>
      <trkpt lat="43.01249" lon="0.78643">
        <ele>671</ele>
        <time>2016-12-03T15:25:10.008Z</time>
      </trkpt>
      <trkpt lat="43.01255" lon="0.78634">
        <ele>671</ele>
        <time>2016-12-03T15:25:12.008Z</time>
      </trkpt>
      <trkpt lat="43.01261" lon="0.78624">
        <ele>671</ele>
        <time>2016-12-03T15:25:14.008Z</time>
      </trkpt>
      <trkpt lat="43.01266" lon="0.78617">
        <ele>671</ele>
        <time>2016-12-03T15:25:16.008Z</time>
      </trkpt>
      <trkpt lat="43.01277" lon="0.78616">
        <ele>671</ele>
        <time>2016-12-03T15:25:19.008Z</time>
      </trkpt>
      <trkpt lat="43.01285" lon="0.78616">
        <ele>669.25999027212</ele>
        <time>2016-12-03T15:25:21.008Z</time>
      </trkpt>
      <trkpt lat="43.0129" lon="0.78616">
        <ele>666</ele>
        <time>2016-12-03T15:25:22.008Z</time>
      </trkpt>
      <trkpt lat="43.01295" lon="0.78617">
        <ele>666</ele>
        <time>2016-12-03T15:25:23.008Z</time>
      </trkpt>
      <trkpt lat="43.013" lon="0.78619">
        <ele>666</ele>
        <time>2016-12-03T15:25:24.008Z</time>
      </trkpt>
      <trkpt lat="43.01305" lon="0.7862">
        <ele>666</ele>
        <time>2016-12-03T15:25:25.008Z</time>
      </trkpt>
      <trkpt lat="43.0131" lon="0.78621">
        <ele>664.6080077825</ele>
        <time>2016-12-03T15:25:26.008Z</time>
      </trkpt>
      <trkpt lat="43.01314" lon="0.78623">
        <ele>662</ele>
        <time>2016-12-03T15:25:27.008Z</time>
      </trkpt>
      <trkpt lat="43.01324" lon="0.78627">
        <ele>662</ele>
        <time>2016-12-03T15:25:29.008Z</time>
      </trkpt>
      <trkpt lat="43.01332" lon="0.78632">
        <ele>661.30399610885</ele>
        <time>2016-12-03T15:25:31.008Z</time>
      </trkpt>
      <trkpt lat="43.0134" lon="0.78636">
        <ele>657.65199805443</ele>
        <time>2016-12-03T15:25:33.008Z</time>
      </trkpt>
      <trkpt lat="43.0135" lon="0.78642">
        <ele>655.30399610885</ele>
        <time>2016-12-03T15:25:35.008Z</time>
      </trkpt>
      <trkpt lat="43.01363" lon="0.78645">
        <ele>653</ele>
        <time>2016-12-03T15:25:37.008Z</time>
      </trkpt>
      <trkpt lat="43.01377" lon="0.78643">
        <ele>650.65199805443</ele>
        <time>2016-12-03T15:25:39.008Z</time>
      </trkpt>
      <trkpt lat="43.01389" lon="0.78642">
        <ele>649.65199805443</ele>
        <time>2016-12-03T15:25:41.008Z</time>
      </trkpt>
      <trkpt lat="43.01401" lon="0.78644">
        <ele>646.65199805443</ele>
        <time>2016-12-03T15:25:43.008Z</time>
      </trkpt>
      <trkpt lat="43.01413" lon="0.78646">
        <ele>645</ele>
        <time>2016-12-03T15:25:45.008Z</time>
      </trkpt>
      <trkpt lat="43.01424" lon="0.78648">
        <ele>644</ele>
        <time>2016-12-03T15:25:47.008Z</time>
      </trkpt>
      <trkpt lat="43.01435" lon="0.78651">
        <ele>641.30399610885</ele>
        <time>2016-12-03T15:25:49.008Z</time>
      </trkpt>
      <trkpt lat="43.01451" lon="0.78657">
        <ele>637.30399610885</ele>
        <time>2016-12-03T15:25:53.008Z</time>
      </trkpt>
      <trkpt lat="43.0146" lon="0.78657">
        <ele>634</ele>
        <time>2016-12-03T15:25:57.008Z</time>
      </trkpt>
      <trkpt lat="43.01456" lon="0.78647">
        <ele>633</ele>
        <time>2016-12-03T15:25:59.008Z</time>
      </trkpt>
      <trkpt lat="43.01451" lon="0.78635">
        <ele>631.65199805443</ele>
        <time>2016-12-03T15:26:01.008Z</time>
      </trkpt>
      <trkpt lat="43.01446" lon="0.78622">
        <ele>630.65199805443</ele>
        <time>2016-12-03T15:26:03.008Z</time>
      </trkpt>
      <trkpt lat="43.01441" lon="0.78608">
        <ele>627.65199805443</ele>
        <time>2016-12-03T15:26:05.008Z</time>
      </trkpt>
      <trkpt lat="43.01436" lon="0.78594">
        <ele>626</ele>
        <time>2016-12-03T15:26:07.008Z</time>
      </trkpt>
      <trkpt lat="43.01431" lon="0.78581">
        <ele>624.65199805443</ele>
        <time>2016-12-03T15:26:09.008Z</time>
      </trkpt>
      <trkpt lat="43.01423" lon="0.78564">
        <ele>622</ele>
        <time>2016-12-03T15:26:12.008Z</time>
      </trkpt>
      <trkpt lat="43.01415" lon="0.78547">
        <ele>618.65199805443</ele>
        <time>2016-12-03T15:26:15.008Z</time>
      </trkpt>
      <trkpt lat="43.01409" lon="0.78536">
        <ele>617</ele>
        <time>2016-12-03T15:26:17.008Z</time>
      </trkpt>
      <trkpt lat="43.01403" lon="0.78525">
        <ele>615.65199805443</ele>
        <time>2016-12-03T15:26:19.008Z</time>
      </trkpt>
      <trkpt lat="43.01397" lon="0.78512">
        <ele>613.65199805443</ele>
        <time>2016-12-03T15:26:21.008Z</time>
      </trkpt>
      <trkpt lat="43.0139" lon="0.785">
        <ele>612</ele>
        <time>2016-12-03T15:26:23.008Z</time>
      </trkpt>
      <trkpt lat="43.01383" lon="0.78487">
        <ele>610.65199805443</ele>
        <time>2016-12-03T15:26:25.008Z</time>
      </trkpt>
      <trkpt lat="43.01377" lon="0.78475">
        <ele>608.65199805443</ele>
        <time>2016-12-03T15:26:27.008Z</time>
      </trkpt>
      <trkpt lat="43.01371" lon="0.78463">
        <ele>606.65858578023</ele>
        <time>2016-12-03T15:26:30.008Z</time>
      </trkpt>
      <trkpt lat="43.01364" lon="0.78449">
        <ele>604.65199805443</ele>
        <time>2016-12-03T15:26:33.008Z</time>
      </trkpt>
      <trkpt lat="43.01355" lon="0.78434">
        <ele>602.30400389125</ele>
        <time>2016-12-03T15:26:36.008Z</time>
      </trkpt>
      <trkpt lat="43.01347" lon="0.78423">
        <ele>600</ele>
        <time>2016-12-03T15:26:38.008Z</time>
      </trkpt>
      <trkpt lat="43.0134" lon="0.78411">
        <ele>599.65200194562</ele>
        <time>2016-12-03T15:26:40.008Z</time>
      </trkpt>
      <trkpt lat="43.01329" lon="0.78394">
        <ele>597.65199805443</ele>
        <time>2016-12-03T15:26:43.008Z</time>
      </trkpt>
      <trkpt lat="43.01319" lon="0.78382">
        <ele>593.65200194562</ele>
        <time>2016-12-03T15:26:46.008Z</time>
      </trkpt>
      <trkpt lat="43.01311" lon="0.78373">
        <ele>592.65200194562</ele>
        <time>2016-12-03T15:26:48.008Z</time>
      </trkpt>
      <trkpt lat="43.01302" lon="0.78361">
        <ele>590</ele>
        <time>2016-12-03T15:26:51.008Z</time>
      </trkpt>
      <trkpt lat="43.01294" lon="0.78353">
        <ele>588.65200194562</ele>
        <time>2016-12-03T15:26:54.008Z</time>
      </trkpt>
      <trkpt lat="43.01304" lon="0.78341">
        <ele>581.65199805443</ele>
        <time>2016-12-03T15:27:01.008Z</time>
      </trkpt>
      <trkpt lat="43.0132" lon="0.7834">
        <ele>580.30400389125</ele>
        <time>2016-12-03T15:27:04.008Z</time>
      </trkpt>
      <trkpt lat="43.01333" lon="0.78339">
        <ele>576.65200194562</ele>
        <time>2016-12-03T15:27:06.008Z</time>
      </trkpt>
      <trkpt lat="43.01345" lon="0.78338">
        <ele>573.65858578023</ele>
        <time>2016-12-03T15:27:08.008Z</time>
      </trkpt>
      <trkpt lat="43.01356" lon="0.78337">
        <ele>572</ele>
        <time>2016-12-03T15:27:10.008Z</time>
      </trkpt>
      <trkpt lat="43.01367" lon="0.78338">
        <ele>570.65200194562</ele>
        <time>2016-12-03T15:27:12.008Z</time>
      </trkpt>
      <trkpt lat="43.01379" lon="0.7834">
        <ele>568.65200194562</ele>
        <time>2016-12-03T15:27:14.008Z</time>
      </trkpt>
      <trkpt lat="43.01391" lon="0.78342">
        <ele>566.65200194562</ele>
        <time>2016-12-03T15:27:16.008Z</time>
      </trkpt>
      <trkpt lat="43.01402" lon="0.78344">
        <ele>563.65200194562</ele>
        <time>2016-12-03T15:27:18.008Z</time>
      </trkpt>
      <trkpt lat="43.01413" lon="0.78345">
        <ele>563</ele>
        <time>2016-12-03T15:27:20.008Z</time>
      </trkpt>
      <trkpt lat="43.01425" lon="0.78348">
        <ele>561.65200194562</ele>
        <time>2016-12-03T15:27:22.008Z</time>
      </trkpt>
      <trkpt lat="43.01436" lon="0.78353">
        <ele>559.65200194562</ele>
        <time>2016-12-03T15:27:24.008Z</time>
      </trkpt>
      <trkpt lat="43.01447" lon="0.78357">
        <ele>557.30400389125</ele>
        <time>2016-12-03T15:27:26.008Z</time>
      </trkpt>
      <trkpt lat="43.01456" lon="0.78363">
        <ele>554.65200194562</ele>
        <time>2016-12-03T15:27:28.008Z</time>
      </trkpt>
      <trkpt lat="43.01466" lon="0.78369">
        <ele>553.65200194562</ele>
        <time>2016-12-03T15:27:30.008Z</time>
      </trkpt>
      <trkpt lat="43.01482" lon="0.78379">
        <ele>548.65200194562</ele>
        <time>2016-12-03T15:27:34.008Z</time>
      </trkpt>
      <trkpt lat="43.01492" lon="0.7839">
        <ele>546.65199805443</ele>
        <time>2016-12-03T15:27:37.008Z</time>
      </trkpt>
      <trkpt lat="43.01502" lon="0.78401">
        <ele>545.65200194562</ele>
        <time>2016-12-03T15:27:40.008Z</time>
      </trkpt>
      <trkpt lat="43.01511" lon="0.78408">
        <ele>544.30400389125</ele>
        <time>2016-12-03T15:27:42.008Z</time>
      </trkpt>
      <trkpt lat="43.01523" lon="0.78414">
        <ele>541.30400389125</ele>
        <time>2016-12-03T15:27:44.008Z</time>
      </trkpt>
      <trkpt lat="43.01532" lon="0.7842">
        <ele>539</ele>
        <time>2016-12-03T15:27:46.008Z</time>
      </trkpt>
      <trkpt lat="43.01542" lon="0.78428">
        <ele>536.65200194562</ele>
        <time>2016-12-03T15:27:48.008Z</time>
      </trkpt>
      <trkpt lat="43.01554" lon="0.78436">
        <ele>535.65200194562</ele>
        <time>2016-12-03T15:27:50.008Z</time>
      </trkpt>
      <trkpt lat="43.01565" lon="0.78443">
        <ele>533.65200194562</ele>
        <time>2016-12-03T15:27:52.008Z</time>
      </trkpt>
      <trkpt lat="43.01576" lon="0.78452">
        <ele>531.42951569582</ele>
        <time>2016-12-03T15:27:54.008Z</time>
      </trkpt>
      <trkpt lat="43.01585" lon="0.7846">
        <ele>528.65200194562</ele>
        <time>2016-12-03T15:27:56.008Z</time>
      </trkpt>
      <trkpt lat="43.01596" lon="0.78465">
        <ele>526.65200194562</ele>
        <time>2016-12-03T15:27:58.008Z</time>
      </trkpt>
      <trkpt lat="43.01598" lon="0.78448">
        <ele>522.65199805443</ele>
        <time>2016-12-03T15:28:03.008Z</time>
      </trkpt>
      <trkpt lat="43.01594" lon="0.78429">
        <ele>518.65200194562</ele>
        <time>2016-12-03T15:28:06.008Z</time>
      </trkpt>
      <trkpt lat="43.01592" lon="0.78414">
        <ele>516.65200194562</ele>
        <time>2016-12-03T15:28:08.008Z</time>
      </trkpt>
      <trkpt lat="43.01587" lon="0.784">
        <ele>515.30400389125</ele>
        <time>2016-12-03T15:28:10.008Z</time>
      </trkpt>
      <trkpt lat="43.01581" lon="0.78387">
        <ele>513</ele>
        <time>2016-12-03T15:28:12.008Z</time>
      </trkpt>
      <trkpt lat="43.01573" lon="0.78367">
        <ele>510.65199805443</ele>
        <time>2016-12-03T15:28:15.008Z</time>
      </trkpt>
      <trkpt lat="43.01568" lon="0.78355">
        <ele>509</ele>
        <time>2016-12-03T15:28:17.008Z</time>
      </trkpt>
      <trkpt lat="43.0156" lon="0.78339">
        <ele>507</ele>
        <time>2016-12-03T15:28:20.008Z</time>
      </trkpt>
      <trkpt lat="43.01552" lon="0.78323">
        <ele>506</ele>
        <time>2016-12-03T15:28:23.008Z</time>
      </trkpt>
      <trkpt lat="43.01547" lon="0.78312">
        <ele>504.65199805443</ele>
        <time>2016-12-03T15:28:25.008Z</time>
      </trkpt>
      <trkpt lat="43.01542" lon="0.78298">
        <ele>503.30399610885</ele>
        <time>2016-12-03T15:28:27.008Z</time>
      </trkpt>
      <trkpt lat="43.01538" lon="0.78286">
        <ele>500.65199805443</ele>
        <time>2016-12-03T15:28:29.008Z</time>
      </trkpt>
      <trkpt lat="43.0153" lon="0.78272">
        <ele>499</ele>
        <time>2016-12-03T15:28:32.008Z</time>
      </trkpt>
      <trkpt lat="43.01539" lon="0.78279">
        <ele>499.65200194562</ele>
        <time>2016-12-03T15:28:38.008Z</time>
      </trkpt>
      <trkpt lat="43.01546" lon="0.7829">
        <ele>499</ele>
        <time>2016-12-03T15:28:43.008Z</time>
      </trkpt>
      <trkpt lat="43.01553" lon="0.78302">
        <ele>499</ele>
        <time>2016-12-03T15:28:47.008Z</time>
      </trkpt>
      <trkpt lat="43.0156" lon="0.78312">
        <ele>499.34800194557</ele>
        <time>2016-12-03T15:28:51.008Z</time>
      </trkpt>
      <trkpt lat="43.01569" lon="0.78324">
        <ele>500</ele>
        <time>2016-12-03T15:28:56.008Z</time>
      </trkpt>
      <trkpt lat="43.01577" lon="0.78334">
        <ele>500</ele>
        <time>2016-12-03T15:29:00.008Z</time>
      </trkpt>
      <trkpt lat="43.01584" lon="0.78344">
        <ele>500</ele>
        <time>2016-12-03T15:29:03.008Z</time>
      </trkpt>
      <trkpt lat="43.01594" lon="0.78356">
        <ele>500</ele>
        <time>2016-12-03T15:29:06.008Z</time>
      </trkpt>
      <trkpt lat="43.01605" lon="0.7837">
        <ele>500</ele>
        <time>2016-12-03T15:29:09.008Z</time>
      </trkpt>
      <trkpt lat="43.01611" lon="0.7838">
        <ele>500</ele>
        <time>2016-12-03T15:29:11.008Z</time>
      </trkpt>
      <trkpt lat="43.0162" lon="0.7839">
        <ele>500</ele>
        <time>2016-12-03T15:29:13.008Z</time>
      </trkpt>
      <trkpt lat="43.01626" lon="0.78401">
        <ele>500</ele>
        <time>2016-12-03T15:29:15.008Z</time>
      </trkpt>
      <trkpt lat="43.01635" lon="0.78415">
        <ele>500</ele>
        <time>2016-12-03T15:29:18.008Z</time>
      </trkpt>
      <trkpt lat="43.01642" lon="0.78429">
        <ele>499.65199805443</ele>
        <time>2016-12-03T15:29:21.008Z</time>
      </trkpt>
      <trkpt lat="43.01651" lon="0.78443">
        <ele>499</ele>
        <time>2016-12-03T15:29:24.008Z</time>
      </trkpt>
      <trkpt lat="43.01659" lon="0.78456">
        <ele>499</ele>
        <time>2016-12-03T15:29:27.008Z</time>
      </trkpt>
      <trkpt lat="43.01667" lon="0.78467">
        <ele>499</ele>
        <time>2016-12-03T15:29:30.008Z</time>
      </trkpt>
      <trkpt lat="43.01676" lon="0.78479">
        <ele>498</ele>
        <time>2016-12-03T15:29:33.008Z</time>
      </trkpt>
      <trkpt lat="43.01686" lon="0.78491">
        <ele>498</ele>
        <time>2016-12-03T15:29:36.008Z</time>
      </trkpt>
      <trkpt lat="43.01694" lon="0.78504">
        <ele>498</ele>
        <time>2016-12-03T15:29:39.008Z</time>
      </trkpt>
      <trkpt lat="43.01703" lon="0.78516">
        <ele>497</ele>
        <time>2016-12-03T15:29:42.008Z</time>
      </trkpt>
      <trkpt lat="43.01714" lon="0.7853">
        <ele>497</ele>
        <time>2016-12-03T15:29:45.008Z</time>
      </trkpt>
      <trkpt lat="43.01723" lon="0.78545">
        <ele>497</ele>
        <time>2016-12-03T15:29:48.008Z</time>
      </trkpt>
      <trkpt lat="43.0173" lon="0.78557">
        <ele>497</ele>
        <time>2016-12-03T15:29:50.008Z</time>
      </trkpt>
      <trkpt lat="43.01739" lon="0.7857">
        <ele>497</ele>
        <time>2016-12-03T15:29:53.008Z</time>
      </trkpt>
      <trkpt lat="43.01746" lon="0.78585">
        <ele>497</ele>
        <time>2016-12-03T15:29:56.008Z</time>
      </trkpt>
      <trkpt lat="43.01749" lon="0.78598">
        <ele>497</ele>
        <time>2016-12-03T15:29:58.008Z</time>
      </trkpt>
      <trkpt lat="43.01748" lon="0.78612">
        <ele>497</ele>
        <time>2016-12-03T15:30:00.008Z</time>
      </trkpt>
      <trkpt lat="43.01744" lon="0.78632">
        <ele>494</ele>
        <time>2016-12-03T15:30:03.008Z</time>
      </trkpt>
      <trkpt lat="43.01744" lon="0.78652">
        <ele>494</ele>
        <time>2016-12-03T15:30:06.008Z</time>
      </trkpt>
      <trkpt lat="43.01746" lon="0.78666">
        <ele>494</ele>
        <time>2016-12-03T15:30:08.008Z</time>
      </trkpt>
      <trkpt lat="43.01752" lon="0.7868">
        <ele>494</ele>
        <time>2016-12-03T15:30:11.008Z</time>
      </trkpt>
      <trkpt lat="43.01755" lon="0.78694">
        <ele>494</ele>
        <time>2016-12-03T15:30:14.008Z</time>
      </trkpt>
      <trkpt lat="43.01758" lon="0.7871">
        <ele>494</ele>
        <time>2016-12-03T15:30:17.008Z</time>
      </trkpt>
      <trkpt lat="43.01761" lon="0.78727">
        <ele>494</ele>
        <time>2016-12-03T15:30:20.008Z</time>
      </trkpt>
      <trkpt lat="43.01764" lon="0.7874">
        <ele>495</ele>
        <time>2016-12-03T15:30:23.008Z</time>
      </trkpt>
      <trkpt lat="43.01765" lon="0.78755">
        <ele>495</ele>
        <time>2016-12-03T15:30:27.008Z</time>
      </trkpt>
      <trkpt lat="43.01768" lon="0.78771">
        <ele>496</ele>
        <time>2016-12-03T15:30:32.008Z</time>
      </trkpt>
      <trkpt lat="43.01772" lon="0.78789">
        <ele>496</ele>
        <time>2016-12-03T15:30:36.008Z</time>
      </trkpt>
      <trkpt lat="43.01775" lon="0.78802">
        <ele>496</ele>
        <time>2016-12-03T15:30:38.008Z</time>
      </trkpt>
      <trkpt lat="43.01779" lon="0.78816">
        <ele>496</ele>
        <time>2016-12-03T15:30:40.008Z</time>
      </trkpt>
      <trkpt lat="43.01781" lon="0.78829">
        <ele>495</ele>
        <time>2016-12-03T15:30:42.008Z</time>
      </trkpt>
      <trkpt lat="43.01783" lon="0.78843">
        <ele>495</ele>
        <time>2016-12-03T15:30:44.008Z</time>
      </trkpt>
      <trkpt lat="43.01787" lon="0.78867">
        <ele>495</ele>
        <time>2016-12-03T15:30:48.008Z</time>
      </trkpt>
      <trkpt lat="43.01791" lon="0.78887">
        <ele>494.30399610885</ele>
        <time>2016-12-03T15:30:51.008Z</time>
      </trkpt>
      <trkpt lat="43.01795" lon="0.78899">
        <ele>493</ele>
        <time>2016-12-03T15:30:53.008Z</time>
      </trkpt>
      <trkpt lat="43.01799" lon="0.78927">
        <ele>491</ele>
        <time>2016-12-03T15:30:57.008Z</time>
      </trkpt>
      <trkpt lat="43.01801" lon="0.78942">
        <ele>491</ele>
        <time>2016-12-03T15:30:59.008Z</time>
      </trkpt>
      <trkpt lat="43.01804" lon="0.78957">
        <ele>490.30399610885</ele>
        <time>2016-12-03T15:31:01.008Z</time>
      </trkpt>
      <trkpt lat="43.01802" lon="0.78975">
        <ele>489</ele>
        <time>2016-12-03T15:31:03.008Z</time>
      </trkpt>
      <trkpt lat="43.01801" lon="0.78989">
        <ele>489</ele>
        <time>2016-12-03T15:31:05.008Z</time>
      </trkpt>
      <trkpt lat="43.01799" lon="0.79009">
        <ele>487</ele>
        <time>2016-12-03T15:31:08.008Z</time>
      </trkpt>
      <trkpt lat="43.01793" lon="0.79022">
        <ele>487</ele>
        <time>2016-12-03T15:31:10.008Z</time>
      </trkpt>
      <trkpt lat="43.01787" lon="0.79035">
        <ele>483.65200194562</ele>
        <time>2016-12-03T15:31:12.008Z</time>
      </trkpt>
      <trkpt lat="43.01779" lon="0.79051">
        <ele>482.65199805443</ele>
        <time>2016-12-03T15:31:15.008Z</time>
      </trkpt>
      <trkpt lat="43.01773" lon="0.79063">
        <ele>481</ele>
        <time>2016-12-03T15:31:17.008Z</time>
      </trkpt>
      <trkpt lat="43.01768" lon="0.7908">
        <ele>480.65199805443</ele>
        <time>2016-12-03T15:31:19.008Z</time>
      </trkpt>
      <trkpt lat="43.01769" lon="0.79094">
        <ele>480</ele>
        <time>2016-12-03T15:31:21.008Z</time>
      </trkpt>
      <trkpt lat="43.01769" lon="0.7911">
        <ele>480</ele>
        <time>2016-12-03T15:31:24.008Z</time>
      </trkpt>
      <trkpt lat="43.0177" lon="0.79125">
        <ele>478</ele>
        <time>2016-12-03T15:31:27.008Z</time>
      </trkpt>
      <trkpt lat="43.01768" lon="0.79141">
        <ele>476.95599416328</ele>
        <time>2016-12-03T15:31:31.008Z</time>
      </trkpt>
      <trkpt lat="43.01765" lon="0.79156">
        <ele>475</ele>
        <time>2016-12-03T15:31:34.008Z</time>
      </trkpt>
      <trkpt lat="43.0176" lon="0.79172">
        <ele>475</ele>
        <time>2016-12-03T15:31:37.008Z</time>
      </trkpt>
      <trkpt lat="43.01755" lon="0.79184">
        <ele>475</ele>
        <time>2016-12-03T15:31:39.008Z</time>
      </trkpt>
      <trkpt lat="43.0175" lon="0.79198">
        <ele>474.30399610885</ele>
        <time>2016-12-03T15:31:41.008Z</time>
      </trkpt>
      <trkpt lat="43.01745" lon="0.79212">
        <ele>473</ele>
        <time>2016-12-03T15:31:43.008Z</time>
      </trkpt>
      <trkpt lat="43.0174" lon="0.79227">
        <ele>473</ele>
        <time>2016-12-03T15:31:45.008Z</time>
      </trkpt>
      <trkpt lat="43.01733" lon="0.79243">
        <ele>470</ele>
        <time>2016-12-03T15:31:47.008Z</time>
      </trkpt>
      <trkpt lat="43.01724" lon="0.79262">
        <ele>470</ele>
        <time>2016-12-03T15:31:49.008Z</time>
      </trkpt>
      <trkpt lat="43.01723" lon="0.79275">
        <ele>469.30399610885</ele>
        <time>2016-12-03T15:31:51.008Z</time>
      </trkpt>
      <trkpt lat="43.01724" lon="0.7929">
        <ele>466.65199805443</ele>
        <time>2016-12-03T15:31:53.008Z</time>
      </trkpt>
      <trkpt lat="43.01726" lon="0.79305">
        <ele>465</ele>
        <time>2016-12-03T15:31:55.008Z</time>
      </trkpt>
      <trkpt lat="43.01728" lon="0.79321">
        <ele>463.65199805443</ele>
        <time>2016-12-03T15:31:57.008Z</time>
      </trkpt>
      <trkpt lat="43.01733" lon="0.79336">
        <ele>463</ele>
        <time>2016-12-03T15:31:59.008Z</time>
      </trkpt>
      <trkpt lat="43.01737" lon="0.79352">
        <ele>462</ele>
        <time>2016-12-03T15:32:01.008Z</time>
      </trkpt>
      <trkpt lat="43.01744" lon="0.79364">
        <ele>461.65199805443</ele>
        <time>2016-12-03T15:32:03.008Z</time>
      </trkpt>
      <trkpt lat="43.01753" lon="0.79372">
        <ele>461</ele>
        <time>2016-12-03T15:32:05.008Z</time>
      </trkpt>
      <trkpt lat="43.01763" lon="0.79379">
        <ele>460.65199805443</ele>
        <time>2016-12-03T15:32:07.008Z</time>
      </trkpt>
      <trkpt lat="43.01774" lon="0.79387">
        <ele>460</ele>
        <time>2016-12-03T15:32:09.008Z</time>
      </trkpt>
      <trkpt lat="43.01782" lon="0.79395">
        <ele>459</ele>
        <time>2016-12-03T15:32:11.008Z</time>
      </trkpt>
      <trkpt lat="43.01792" lon="0.79404">
        <ele>459</ele>
        <time>2016-12-03T15:32:13.008Z</time>
      </trkpt>
      <trkpt lat="43.01805" lon="0.79413">
        <ele>459</ele>
        <time>2016-12-03T15:32:15.008Z</time>
      </trkpt>
      <trkpt lat="43.01819" lon="0.79421">
        <ele>456</ele>
        <time>2016-12-03T15:32:17.008Z</time>
      </trkpt>
      <trkpt lat="43.01831" lon="0.7943">
        <ele>456</ele>
        <time>2016-12-03T15:32:19.008Z</time>
      </trkpt>
      <trkpt lat="43.01842" lon="0.79438">
        <ele>455.65199805443</ele>
        <time>2016-12-03T15:32:21.008Z</time>
      </trkpt>
      <trkpt lat="43.01852" lon="0.79443">
        <ele>455</ele>
        <time>2016-12-03T15:32:24.008Z</time>
      </trkpt>
      <trkpt lat="43.01851" lon="0.79439">
        <ele>452</ele>
        <time>2016-12-03T15:34:13.008Z</time>
      </trkpt>
      <trkpt lat="43.0186" lon="0.79447">
        <ele>453</ele>
        <time>2016-12-03T15:35:09.008Z</time>
      </trkpt>
      <trkpt lat="43.01866" lon="0.7946">
        <ele>453</ele>
        <time>2016-12-03T15:35:12.008Z</time>
      </trkpt>
      <trkpt lat="43.0187" lon="0.7947">
        <ele>453</ele>
        <time>2016-12-03T15:35:14.008Z</time>
      </trkpt>
      <trkpt lat="43.01874" lon="0.79481">
        <ele>453</ele>
        <time>2016-12-03T15:35:16.008Z</time>
      </trkpt>
      <trkpt lat="43.01879" lon="0.79493">
        <ele>453</ele>
        <time>2016-12-03T15:35:18.008Z</time>
      </trkpt>
      <trkpt lat="43.01884" lon="0.79505">
        <ele>453</ele>
        <time>2016-12-03T15:35:20.008Z</time>
      </trkpt>
      <trkpt lat="43.01889" lon="0.79517">
        <ele>452</ele>
        <time>2016-12-03T15:35:22.008Z</time>
      </trkpt>
      <trkpt lat="43.01891" lon="0.79533">
        <ele>452</ele>
        <time>2016-12-03T15:35:24.008Z</time>
      </trkpt>
      <trkpt lat="43.01889" lon="0.79551">
        <ele>452</ele>
        <time>2016-12-03T15:35:26.008Z</time>
      </trkpt>
      <trkpt lat="43.01883" lon="0.79571">
        <ele>452</ele>
        <time>2016-12-03T15:35:28.008Z</time>
      </trkpt>
      <trkpt lat="43.01873" lon="0.79591">
        <ele>452</ele>
        <time>2016-12-03T15:35:30.008Z</time>
      </trkpt>
      <trkpt lat="43.01861" lon="0.79611">
        <ele>449</ele>
        <time>2016-12-03T15:35:32.008Z</time>
      </trkpt>
      <trkpt lat="43.01853" lon="0.7962">
        <ele>449</ele>
        <time>2016-12-03T15:35:33.008Z</time>
      </trkpt>
      <trkpt lat="43.01845" lon="0.79629">
        <ele>449</ele>
        <time>2016-12-03T15:35:34.008Z</time>
      </trkpt>
      <trkpt lat="43.01837" lon="0.79638">
        <ele>449</ele>
        <time>2016-12-03T15:35:35.008Z</time>
      </trkpt>
      <trkpt lat="43.01828" lon="0.79646">
        <ele>447.26000972812</ele>
        <time>2016-12-03T15:35:36.008Z</time>
      </trkpt>
      <trkpt lat="43.01819" lon="0.79654">
        <ele>444</ele>
        <time>2016-12-03T15:35:37.008Z</time>
      </trkpt>
      <trkpt lat="43.01809" lon="0.79662">
        <ele>444</ele>
        <time>2016-12-03T15:35:38.008Z</time>
      </trkpt>
      <trkpt lat="43.01799" lon="0.7967">
        <ele>444</ele>
        <time>2016-12-03T15:35:39.008Z</time>
      </trkpt>
      <trkpt lat="43.01789" lon="0.79678">
        <ele>444</ele>
        <time>2016-12-03T15:35:40.008Z</time>
      </trkpt>
      <trkpt lat="43.01778" lon="0.79685">
        <ele>442.6079922177</ele>
        <time>2016-12-03T15:35:41.008Z</time>
      </trkpt>
      <trkpt lat="43.01767" lon="0.79692">
        <ele>439.30400389125</ele>
        <time>2016-12-03T15:35:42.008Z</time>
      </trkpt>
      <trkpt lat="43.01757" lon="0.79698">
        <ele>437.30399610885</ele>
        <time>2016-12-03T15:35:43.008Z</time>
      </trkpt>
      <trkpt lat="43.01746" lon="0.79704">
        <ele>435.65200194562</ele>
        <time>2016-12-03T15:35:44.008Z</time>
      </trkpt>
      <trkpt lat="43.01736" lon="0.7971">
        <ele>435</ele>
        <time>2016-12-03T15:35:45.008Z</time>
      </trkpt>
      <trkpt lat="43.01722" lon="0.79721">
        <ele>432.65199805443</ele>
        <time>2016-12-03T15:35:47.008Z</time>
      </trkpt>
      <trkpt lat="43.01717" lon="0.79736">
        <ele>432</ele>
        <time>2016-12-03T15:35:49.008Z</time>
      </trkpt>
      <trkpt lat="43.01715" lon="0.79751">
        <ele>432</ele>
        <time>2016-12-03T15:35:51.008Z</time>
      </trkpt>
      <trkpt lat="43.01717" lon="0.79763">
        <ele>432</ele>
        <time>2016-12-03T15:35:53.008Z</time>
      </trkpt>
      <trkpt lat="43.0173" lon="0.79769">
        <ele>432</ele>
        <time>2016-12-03T15:35:56.008Z</time>
      </trkpt>
      <trkpt lat="43.01739" lon="0.79772">
        <ele>432</ele>
        <time>2016-12-03T15:35:58.008Z</time>
      </trkpt>
      <trkpt lat="43.01751" lon="0.79777">
        <ele>431</ele>
        <time>2016-12-03T15:36:01.008Z</time>
      </trkpt>
      <trkpt lat="43.01758" lon="0.79785">
        <ele>431</ele>
        <time>2016-12-03T15:36:03.008Z</time>
      </trkpt>
      <trkpt lat="43.01765" lon="0.79794">
        <ele>431</ele>
        <time>2016-12-03T15:36:05.008Z</time>
      </trkpt>
      <trkpt lat="43.01772" lon="0.79802">
        <ele>431</ele>
        <time>2016-12-03T15:36:07.008Z</time>
      </trkpt>
      <trkpt lat="43.0178" lon="0.7981">
        <ele>431</ele>
        <time>2016-12-03T15:36:09.008Z</time>
      </trkpt>
      <trkpt lat="43.01787" lon="0.79817">
        <ele>431</ele>
        <time>2016-12-03T15:36:11.008Z</time>
      </trkpt>
      <trkpt lat="43.01794" lon="0.79824">
        <ele>431</ele>
        <time>2016-12-03T15:36:13.008Z</time>
      </trkpt>
      <trkpt lat="43.01802" lon="0.7983">
        <ele>431</ele>
        <time>2016-12-03T15:36:15.008Z</time>
      </trkpt>
      <trkpt lat="43.0181" lon="0.79836">
        <ele>431</ele>
        <time>2016-12-03T15:36:17.008Z</time>
      </trkpt>
      <trkpt lat="43.01817" lon="0.79842">
        <ele>431</ele>
        <time>2016-12-03T15:36:19.008Z</time>
      </trkpt>
      <trkpt lat="43.01818" lon="0.79852">
        <ele>431</ele>
        <time>2016-12-03T15:36:22.008Z</time>
      </trkpt>
      <trkpt lat="43.01812" lon="0.79857">
        <ele>431</ele>
        <time>2016-12-03T15:36:24.008Z</time>
      </trkpt>
      <trkpt lat="43.01805" lon="0.7986">
        <ele>431</ele>
        <time>2016-12-03T15:36:26.008Z</time>
      </trkpt>
      <trkpt lat="43.01797" lon="0.79865">
        <ele>431</ele>
        <time>2016-12-03T15:36:28.008Z</time>
      </trkpt>
      <trkpt lat="43.01786" lon="0.79873">
        <ele>431.34800194557</ele>
        <time>2016-12-03T15:36:31.008Z</time>
      </trkpt>
      <trkpt lat="43.01779" lon="0.7988">
        <ele>431</ele>
        <time>2016-12-03T15:36:33.008Z</time>
      </trkpt>
      <trkpt lat="43.01773" lon="0.79888">
        <ele>431</ele>
        <time>2016-12-03T15:36:35.008Z</time>
      </trkpt>
      <trkpt lat="43.01767" lon="0.79896">
        <ele>431</ele>
        <time>2016-12-03T15:36:37.008Z</time>
      </trkpt>
      <trkpt lat="43.01761" lon="0.79904">
        <ele>431</ele>
        <time>2016-12-03T15:36:39.008Z</time>
      </trkpt>
      <trkpt lat="43.01756" lon="0.79912">
        <ele>432.04400583672</ele>
        <time>2016-12-03T15:36:41.008Z</time>
      </trkpt>
      <trkpt lat="43.0175" lon="0.7992">
        <ele>434</ele>
        <time>2016-12-03T15:36:43.008Z</time>
      </trkpt>
      <trkpt lat="43.01747" lon="0.79924">
        <ele>434</ele>
        <time>2016-12-03T15:36:44.008Z</time>
      </trkpt>
      <trkpt lat="43.01744" lon="0.79928">
        <ele>434</ele>
        <time>2016-12-03T15:36:45.008Z</time>
      </trkpt>
      <trkpt lat="43.01738" lon="0.79935">
        <ele>435</ele>
        <time>2016-12-03T15:36:47.008Z</time>
      </trkpt>
      <trkpt lat="43.01732" lon="0.79941">
        <ele>435</ele>
        <time>2016-12-03T15:36:49.008Z</time>
      </trkpt>
      <trkpt lat="43.01726" lon="0.79948">
        <ele>435.34800194557</ele>
        <time>2016-12-03T15:36:51.008Z</time>
      </trkpt>
      <trkpt lat="43.0172" lon="0.79954">
        <ele>436</ele>
        <time>2016-12-03T15:36:53.008Z</time>
      </trkpt>
      <trkpt lat="43.01714" lon="0.7996">
        <ele>436</ele>
        <time>2016-12-03T15:36:55.008Z</time>
      </trkpt>
      <trkpt lat="43.01709" lon="0.79966">
        <ele>438</ele>
        <time>2016-12-03T15:36:57.008Z</time>
      </trkpt>
      <trkpt lat="43.01706" lon="0.79969">
        <ele>438</ele>
        <time>2016-12-03T15:36:58.008Z</time>
      </trkpt>
      <trkpt lat="43.01702" lon="0.79977">
        <ele>438</ele>
        <time>2016-12-03T15:37:00.008Z</time>
      </trkpt>
      <trkpt lat="43.01701" lon="0.79986">
        <ele>438</ele>
        <time>2016-12-03T15:37:02.008Z</time>
      </trkpt>
      <trkpt lat="43.01702" lon="0.79991">
        <ele>438</ele>
        <time>2016-12-03T15:37:03.008Z</time>
      </trkpt>
      <trkpt lat="43.01706" lon="0.80001">
        <ele>438</ele>
        <time>2016-12-03T15:37:05.008Z</time>
      </trkpt>
      <trkpt lat="43.01709" lon="0.80006">
        <ele>438</ele>
        <time>2016-12-03T15:37:06.008Z</time>
      </trkpt>
      <trkpt lat="43.01717" lon="0.80012">
        <ele>438</ele>
        <time>2016-12-03T15:37:08.008Z</time>
      </trkpt>
      <trkpt lat="43.01722" lon="0.80015">
        <ele>438</ele>
        <time>2016-12-03T15:37:09.008Z</time>
      </trkpt>
      <trkpt lat="43.01727" lon="0.80017">
        <ele>438</ele>
        <time>2016-12-03T15:37:10.008Z</time>
      </trkpt>
      <trkpt lat="43.01737" lon="0.8002">
        <ele>438</ele>
        <time>2016-12-03T15:37:12.008Z</time>
      </trkpt>
      <trkpt lat="43.01746" lon="0.80022">
        <ele>438</ele>
        <time>2016-12-03T15:37:14.008Z</time>
      </trkpt>
      <trkpt lat="43.01756" lon="0.80024">
        <ele>438</ele>
        <time>2016-12-03T15:37:16.008Z</time>
      </trkpt>
      <trkpt lat="43.01766" lon="0.80026">
        <ele>438</ele>
        <time>2016-12-03T15:37:18.008Z</time>
      </trkpt>
      <trkpt lat="43.01776" lon="0.80029">
        <ele>438</ele>
        <time>2016-12-03T15:37:20.008Z</time>
      </trkpt>
      <trkpt lat="43.01785" lon="0.80031">
        <ele>438</ele>
        <time>2016-12-03T15:37:22.008Z</time>
      </trkpt>
      <trkpt lat="43.01793" lon="0.80032">
        <ele>438</ele>
        <time>2016-12-03T15:37:24.008Z</time>
      </trkpt>
      <trkpt lat="43.01801" lon="0.80034">
        <ele>438</ele>
        <time>2016-12-03T15:37:26.008Z</time>
      </trkpt>
      <trkpt lat="43.01808" lon="0.80035">
        <ele>438</ele>
        <time>2016-12-03T15:37:28.008Z</time>
      </trkpt>
      <trkpt lat="43.01815" lon="0.80036">
        <ele>438</ele>
        <time>2016-12-03T15:37:30.008Z</time>
      </trkpt>
      <trkpt lat="43.01822" lon="0.80037">
        <ele>441</ele>
        <time>2016-12-03T15:37:32.008Z</time>
      </trkpt>
      <trkpt lat="43.01829" lon="0.80038">
        <ele>441</ele>
        <time>2016-12-03T15:37:34.008Z</time>
      </trkpt>
      <trkpt lat="43.01839" lon="0.80039">
        <ele>442</ele>
        <time>2016-12-03T15:37:37.008Z</time>
      </trkpt>
      <trkpt lat="43.01846" lon="0.8004">
        <ele>442</ele>
        <time>2016-12-03T15:37:39.008Z</time>
      </trkpt>
      <trkpt lat="43.01853" lon="0.80042">
        <ele>442.34800194557</ele>
        <time>2016-12-03T15:37:41.008Z</time>
      </trkpt>
      <trkpt lat="43.01863" lon="0.80045">
        <ele>443</ele>
        <time>2016-12-03T15:37:44.008Z</time>
      </trkpt>
      <trkpt lat="43.0187" lon="0.80046">
        <ele>443.34799805438</ele>
        <time>2016-12-03T15:37:46.008Z</time>
      </trkpt>
      <trkpt lat="43.01877" lon="0.80047">
        <ele>444</ele>
        <time>2016-12-03T15:37:48.008Z</time>
      </trkpt>
      <trkpt lat="43.01888" lon="0.80049">
        <ele>444.69600389115</ele>
        <time>2016-12-03T15:37:51.008Z</time>
      </trkpt>
      <trkpt lat="43.01895" lon="0.8005">
        <ele>446</ele>
        <time>2016-12-03T15:37:53.008Z</time>
      </trkpt>
      <trkpt lat="43.01902" lon="0.80051">
        <ele>446</ele>
        <time>2016-12-03T15:37:55.008Z</time>
      </trkpt>
      <trkpt lat="43.01909" lon="0.80052">
        <ele>446</ele>
        <time>2016-12-03T15:37:57.008Z</time>
      </trkpt>
      <trkpt lat="43.0192" lon="0.80055">
        <ele>446</ele>
        <time>2016-12-03T15:38:00.008Z</time>
      </trkpt>
      <trkpt lat="43.0193" lon="0.80058">
        <ele>446</ele>
        <time>2016-12-03T15:38:03.008Z</time>
      </trkpt>
      <trkpt lat="43.01941" lon="0.8006">
        <ele>446</ele>
        <time>2016-12-03T15:38:06.008Z</time>
      </trkpt>
      <trkpt lat="43.01952" lon="0.80062">
        <ele>446</ele>
        <time>2016-12-03T15:38:09.008Z</time>
      </trkpt>
      <trkpt lat="43.01962" lon="0.80064">
        <ele>448</ele>
        <time>2016-12-03T15:38:12.008Z</time>
      </trkpt>
      <trkpt lat="43.01973" lon="0.80067">
        <ele>448</ele>
        <time>2016-12-03T15:38:15.008Z</time>
      </trkpt>
      <trkpt lat="43.01983" lon="0.8007">
        <ele>448</ele>
        <time>2016-12-03T15:38:18.008Z</time>
      </trkpt>
      <trkpt lat="43.01997" lon="0.80072">
        <ele>451</ele>
        <time>2016-12-03T15:38:22.008Z</time>
      </trkpt>
      <trkpt lat="43.02008" lon="0.80074">
        <ele>451</ele>
        <time>2016-12-03T15:38:25.008Z</time>
      </trkpt>
      <trkpt lat="43.02018" lon="0.80076">
        <ele>451</ele>
        <time>2016-12-03T15:38:28.008Z</time>
      </trkpt>
      <trkpt lat="43.02028" lon="0.80078">
        <ele>451.34800194557</ele>
        <time>2016-12-03T15:38:31.008Z</time>
      </trkpt>
      <trkpt lat="43.02038" lon="0.80079">
        <ele>452</ele>
        <time>2016-12-03T15:38:34.008Z</time>
      </trkpt>
      <trkpt lat="43.02048" lon="0.80082">
        <ele>452</ele>
        <time>2016-12-03T15:38:37.008Z</time>
      </trkpt>
      <trkpt lat="43.02058" lon="0.80084">
        <ele>452</ele>
        <time>2016-12-03T15:38:40.008Z</time>
      </trkpt>
      <trkpt lat="43.02067" lon="0.80086">
        <ele>456</ele>
        <time>2016-12-03T15:38:43.008Z</time>
      </trkpt>
      <trkpt lat="43.02077" lon="0.80089">
        <ele>456.34799805438</ele>
        <time>2016-12-03T15:38:46.008Z</time>
      </trkpt>
      <trkpt lat="43.02086" lon="0.80092">
        <ele>457</ele>
        <time>2016-12-03T15:38:49.008Z</time>
      </trkpt>
      <trkpt lat="43.02094" lon="0.80099">
        <ele>459</ele>
        <time>2016-12-03T15:38:52.008Z</time>
      </trkpt>
      <trkpt lat="43.02103" lon="0.80111">
        <ele>459.69599610875</ele>
        <time>2016-12-03T15:38:56.008Z</time>
      </trkpt>
      <trkpt lat="43.02108" lon="0.80127">
        <ele>461</ele>
        <time>2016-12-03T15:39:00.008Z</time>
      </trkpt>
      <trkpt lat="43.02111" lon="0.80144">
        <ele>462</ele>
        <time>2016-12-03T15:39:04.008Z</time>
      </trkpt>
      <trkpt lat="43.02113" lon="0.80161">
        <ele>464</ele>
        <time>2016-12-03T15:39:08.008Z</time>
      </trkpt>
      <trkpt lat="43.02117" lon="0.80181">
        <ele>465</ele>
        <time>2016-12-03T15:39:13.008Z</time>
      </trkpt>
      <trkpt lat="43.02122" lon="0.80197">
        <ele>466</ele>
        <time>2016-12-03T15:39:17.008Z</time>
      </trkpt>
      <trkpt lat="43.02129" lon="0.80211">
        <ele>466.34800194557</ele>
        <time>2016-12-03T15:39:21.008Z</time>
      </trkpt>
      <trkpt lat="43.02135" lon="0.80226">
        <ele>467</ele>
        <time>2016-12-03T15:39:25.008Z</time>
      </trkpt>
      <trkpt lat="43.02141" lon="0.8024">
        <ele>469</ele>
        <time>2016-12-03T15:39:29.008Z</time>
      </trkpt>
      <trkpt lat="43.02146" lon="0.80257">
        <ele>470</ele>
        <time>2016-12-03T15:39:33.008Z</time>
      </trkpt>
      <trkpt lat="43.02148" lon="0.80269">
        <ele>470</ele>
        <time>2016-12-03T15:39:36.008Z</time>
      </trkpt>
      <trkpt lat="43.02143" lon="0.80284">
        <ele>470</ele>
        <time>2016-12-03T15:39:40.008Z</time>
      </trkpt>
      <trkpt lat="43.02134" lon="0.80292">
        <ele>471</ele>
        <time>2016-12-03T15:39:45.008Z</time>
      </trkpt>
      <trkpt lat="43.02127" lon="0.80303">
        <ele>471</ele>
        <time>2016-12-03T15:39:50.008Z</time>
      </trkpt>
      <trkpt lat="43.02121" lon="0.80317">
        <ele>474</ele>
        <time>2016-12-03T15:39:55.008Z</time>
      </trkpt>
      <trkpt lat="43.02117" lon="0.80334">
        <ele>475.34800194557</ele>
        <time>2016-12-03T15:40:01.008Z</time>
      </trkpt>
      <trkpt lat="43.02113" lon="0.80347">
        <ele>476.69599610875</ele>
        <time>2016-12-03T15:40:06.008Z</time>
      </trkpt>
      <trkpt lat="43.02109" lon="0.80359">
        <ele>478</ele>
        <time>2016-12-03T15:40:10.008Z</time>
      </trkpt>
      <trkpt lat="43.02103" lon="0.80374">
        <ele>479.34799805438</ele>
        <time>2016-12-03T15:40:16.008Z</time>
      </trkpt>
      <trkpt lat="43.02098" lon="0.80388">
        <ele>480.69600389115</ele>
        <time>2016-12-03T15:40:21.008Z</time>
      </trkpt>
      <trkpt lat="43.02096" lon="0.80402">
        <ele>482.34799805438</ele>
        <time>2016-12-03T15:40:26.008Z</time>
      </trkpt>
      <trkpt lat="43.02094" lon="0.80419">
        <ele>483</ele>
        <time>2016-12-03T15:40:32.008Z</time>
      </trkpt>
      <trkpt lat="43.0209" lon="0.80433">
        <ele>483</ele>
        <time>2016-12-03T15:40:36.008Z</time>
      </trkpt>
      <trkpt lat="43.02088" lon="0.80447">
        <ele>483.69600389115</ele>
        <time>2016-12-03T15:40:41.008Z</time>
      </trkpt>
      <trkpt lat="43.02086" lon="0.80464">
        <ele>485</ele>
        <time>2016-12-03T15:40:47.008Z</time>
      </trkpt>
      <trkpt lat="43.02086" lon="0.80478">
        <ele>487</ele>
        <time>2016-12-03T15:40:52.008Z</time>
      </trkpt>
      <trkpt lat="43.02086" lon="0.80493">
        <ele>490</ele>
        <time>2016-12-03T15:40:58.008Z</time>
      </trkpt>
      <trkpt lat="43.02084" lon="0.80507">
        <ele>491</ele>
        <time>2016-12-03T15:41:03.008Z</time>
      </trkpt>
      <trkpt lat="43.02084" lon="0.80523">
        <ele>493</ele>
        <time>2016-12-03T15:41:09.008Z</time>
      </trkpt>
      <trkpt lat="43.02081" lon="0.80537">
        <ele>493</ele>
        <time>2016-12-03T15:41:16.008Z</time>
      </trkpt>
      <trkpt lat="43.02079" lon="0.80551">
        <ele>496</ele>
        <time>2016-12-03T15:41:22.008Z</time>
      </trkpt>
      <trkpt lat="43.02077" lon="0.80564">
        <ele>498</ele>
        <time>2016-12-03T15:41:28.008Z</time>
      </trkpt>
      <trkpt lat="43.02076" lon="0.80578">
        <ele>500</ele>
        <time>2016-12-03T15:41:34.008Z</time>
      </trkpt>
      <trkpt lat="43.02074" lon="0.80593">
        <ele>503</ele>
        <time>2016-12-03T15:41:40.008Z</time>
      </trkpt>
      <trkpt lat="43.02072" lon="0.80606">
        <ele>504.69599610875</ele>
        <time>2016-12-03T15:41:46.008Z</time>
      </trkpt>
      <trkpt lat="43.0207" lon="0.8062">
        <ele>506</ele>
        <time>2016-12-03T15:41:53.008Z</time>
      </trkpt>
      <trkpt lat="43.02066" lon="0.80633">
        <ele>508</ele>
        <time>2016-12-03T15:42:00.008Z</time>
      </trkpt>
      <trkpt lat="43.02061" lon="0.80648">
        <ele>512</ele>
        <time>2016-12-03T15:42:07.008Z</time>
      </trkpt>
      <trkpt lat="43.02058" lon="0.80663">
        <ele>514</ele>
        <time>2016-12-03T15:42:13.008Z</time>
      </trkpt>
      <trkpt lat="43.02054" lon="0.80676">
        <ele>514</ele>
        <time>2016-12-03T15:42:18.008Z</time>
      </trkpt>
      <trkpt lat="43.02051" lon="0.8069">
        <ele>515</ele>
        <time>2016-12-03T15:42:25.008Z</time>
      </trkpt>
      <trkpt lat="43.02045" lon="0.80705">
        <ele>517</ele>
        <time>2016-12-03T15:42:32.008Z</time>
      </trkpt>
      <trkpt lat="43.02038" lon="0.80717">
        <ele>517</ele>
        <time>2016-12-03T15:42:38.008Z</time>
      </trkpt>
      <trkpt lat="43.02031" lon="0.80727">
        <ele>520</ele>
        <time>2016-12-03T15:42:43.008Z</time>
      </trkpt>
      <trkpt lat="43.02024" lon="0.80736">
        <ele>521</ele>
        <time>2016-12-03T15:42:48.008Z</time>
      </trkpt>
      <trkpt lat="43.02017" lon="0.80747">
        <ele>521</ele>
        <time>2016-12-03T15:42:53.008Z</time>
      </trkpt>
      <trkpt lat="43.02009" lon="0.80757">
        <ele>521</ele>
        <time>2016-12-03T15:42:59.008Z</time>
      </trkpt>
      <trkpt lat="43.02001" lon="0.80766">
        <ele>523</ele>
        <time>2016-12-03T15:43:05.008Z</time>
      </trkpt>
      <trkpt lat="43.01994" lon="0.80773">
        <ele>523</ele>
        <time>2016-12-03T15:43:09.008Z</time>
      </trkpt>
      <trkpt lat="43.01988" lon="0.80782">
        <ele>524</ele>
        <time>2016-12-03T15:43:13.008Z</time>
      </trkpt>
      <trkpt lat="43.01983" lon="0.8079">
        <ele>524</ele>
        <time>2016-12-03T15:43:16.008Z</time>
      </trkpt>
      <trkpt lat="43.01979" lon="0.80798">
        <ele>524</ele>
        <time>2016-12-03T15:43:19.008Z</time>
      </trkpt>
      <trkpt lat="43.01975" lon="0.80806">
        <ele>527</ele>
        <time>2016-12-03T15:43:22.008Z</time>
      </trkpt>
      <trkpt lat="43.01972" lon="0.80814">
        <ele>527</ele>
        <time>2016-12-03T15:43:25.008Z</time>
      </trkpt>
      <trkpt lat="43.01968" lon="0.80824">
        <ele>529</ele>
        <time>2016-12-03T15:43:29.008Z</time>
      </trkpt>
      <trkpt lat="43.01965" lon="0.80832">
        <ele>530</ele>
        <time>2016-12-03T15:43:32.008Z</time>
      </trkpt>
      <trkpt lat="43.01961" lon="0.80839">
        <ele>530</ele>
        <time>2016-12-03T15:43:35.008Z</time>
      </trkpt>
      <trkpt lat="43.0196" lon="0.80846">
        <ele>531</ele>
        <time>2016-12-03T15:43:38.008Z</time>
      </trkpt>
      <trkpt lat="43.01954" lon="0.80854">
        <ele>531</ele>
        <time>2016-12-03T15:43:43.008Z</time>
      </trkpt>
      <trkpt lat="43.0195" lon="0.80863">
        <ele>531</ele>
        <time>2016-12-03T15:43:47.008Z</time>
      </trkpt>
      <trkpt lat="43.01948" lon="0.80872">
        <ele>533</ele>
        <time>2016-12-03T15:43:52.008Z</time>
      </trkpt>
      <trkpt lat="43.01944" lon="0.80889">
        <ele>535</ele>
        <time>2016-12-03T15:43:59.008Z</time>
      </trkpt>
      <trkpt lat="43.01942" lon="0.80905">
        <ele>537</ele>
        <time>2016-12-03T15:44:05.008Z</time>
      </trkpt>
      <trkpt lat="43.01939" lon="0.80917">
        <ele>538</ele>
        <time>2016-12-03T15:44:09.008Z</time>
      </trkpt>
      <trkpt lat="43.01936" lon="0.80932">
        <ele>538</ele>
        <time>2016-12-03T15:44:15.008Z</time>
      </trkpt>
      <trkpt lat="43.01933" lon="0.80948">
        <ele>538</ele>
        <time>2016-12-03T15:44:20.008Z</time>
      </trkpt>
      <trkpt lat="43.01931" lon="0.80961">
        <ele>539</ele>
        <time>2016-12-03T15:44:25.008Z</time>
      </trkpt>
      <trkpt lat="43.01929" lon="0.80978">
        <ele>539</ele>
        <time>2016-12-03T15:44:41.008Z</time>
      </trkpt>
      <trkpt lat="43.01927" lon="0.80992">
        <ele>539</ele>
        <time>2016-12-03T15:44:45.008Z</time>
      </trkpt>
      <trkpt lat="43.01925" lon="0.81006">
        <ele>539</ele>
        <time>2016-12-03T15:44:49.008Z</time>
      </trkpt>
      <trkpt lat="43.01922" lon="0.81023">
        <ele>539</ele>
        <time>2016-12-03T15:44:55.008Z</time>
      </trkpt>
      <trkpt lat="43.0192" lon="0.81038">
        <ele>539</ele>
        <time>2016-12-03T15:45:00.008Z</time>
      </trkpt>
      <trkpt lat="43.0192" lon="0.81054">
        <ele>541</ele>
        <time>2016-12-03T15:45:04.008Z</time>
      </trkpt>
      <trkpt lat="43.01918" lon="0.81069">
        <ele>541</ele>
        <time>2016-12-03T15:45:09.008Z</time>
      </trkpt>
      <trkpt lat="43.01919" lon="0.81084">
        <ele>540</ele>
        <time>2016-12-03T15:45:13.008Z</time>
      </trkpt>
      <trkpt lat="43.01918" lon="0.81097">
        <ele>540</ele>
        <time>2016-12-03T15:45:16.008Z</time>
      </trkpt>
      <trkpt lat="43.01917" lon="0.81111">
        <ele>540</ele>
        <time>2016-12-03T15:45:19.008Z</time>
      </trkpt>
      <trkpt lat="43.01916" lon="0.81128">
        <ele>539</ele>
        <time>2016-12-03T15:45:22.008Z</time>
      </trkpt>
      <trkpt lat="43.01914" lon="0.81149">
        <ele>539</ele>
        <time>2016-12-03T15:45:25.008Z</time>
      </trkpt>
      <trkpt lat="43.01913" lon="0.81162">
        <ele>539</ele>
        <time>2016-12-03T15:45:27.008Z</time>
      </trkpt>
      <trkpt lat="43.01909" lon="0.81179">
        <ele>539</ele>
        <time>2016-12-03T15:45:30.008Z</time>
      </trkpt>
      <trkpt lat="43.01907" lon="0.81191">
        <ele>538</ele>
        <time>2016-12-03T15:45:32.008Z</time>
      </trkpt>
      <trkpt lat="43.01904" lon="0.81208">
        <ele>538</ele>
        <time>2016-12-03T15:45:35.008Z</time>
      </trkpt>
      <trkpt lat="43.01901" lon="0.81224">
        <ele>538</ele>
        <time>2016-12-03T15:45:38.008Z</time>
      </trkpt>
      <trkpt lat="43.01898" lon="0.8124">
        <ele>539</ele>
        <time>2016-12-03T15:45:42.008Z</time>
      </trkpt>
      <trkpt lat="43.01897" lon="0.81252">
        <ele>539</ele>
        <time>2016-12-03T15:45:45.008Z</time>
      </trkpt>
      <trkpt lat="43.01895" lon="0.81265">
        <ele>539</ele>
        <time>2016-12-03T15:45:48.008Z</time>
      </trkpt>
      <trkpt lat="43.01893" lon="0.81276">
        <ele>539.34800194557</ele>
        <time>2016-12-03T15:45:51.008Z</time>
      </trkpt>
      <trkpt lat="43.01889" lon="0.81287">
        <ele>540</ele>
        <time>2016-12-03T15:45:54.008Z</time>
      </trkpt>
      <trkpt lat="43.01886" lon="0.813">
        <ele>540</ele>
        <time>2016-12-03T15:45:57.008Z</time>
      </trkpt>
      <trkpt lat="43.01884" lon="0.81313">
        <ele>540</ele>
        <time>2016-12-03T15:46:00.008Z</time>
      </trkpt>
      <trkpt lat="43.01882" lon="0.81326">
        <ele>542</ele>
        <time>2016-12-03T15:46:03.008Z</time>
      </trkpt>
      <trkpt lat="43.01879" lon="0.81341">
        <ele>542</ele>
        <time>2016-12-03T15:46:07.008Z</time>
      </trkpt>
      <trkpt lat="43.01878" lon="0.81355">
        <ele>543</ele>
        <time>2016-12-03T15:46:12.008Z</time>
      </trkpt>
      <trkpt lat="43.01877" lon="0.81366">
        <ele>543</ele>
        <time>2016-12-03T15:46:16.008Z</time>
      </trkpt>
      <trkpt lat="43.01878" lon="0.81381">
        <ele>543</ele>
        <time>2016-12-03T15:46:20.008Z</time>
      </trkpt>
      <trkpt lat="43.01877" lon="0.81395">
        <ele>545</ele>
        <time>2016-12-03T15:46:24.008Z</time>
      </trkpt>
      <trkpt lat="43.01879" lon="0.81405">
        <ele>545</ele>
        <time>2016-12-03T15:46:27.008Z</time>
      </trkpt>
      <trkpt lat="43.01879" lon="0.81418">
        <ele>545.69600389115</ele>
        <time>2016-12-03T15:46:31.008Z</time>
      </trkpt>
      <trkpt lat="43.01878" lon="0.81436">
        <ele>547</ele>
        <time>2016-12-03T15:46:36.008Z</time>
      </trkpt>
      <trkpt lat="43.01878" lon="0.81449">
        <ele>547</ele>
        <time>2016-12-03T15:46:40.008Z</time>
      </trkpt>
      <trkpt lat="43.01879" lon="0.81463">
        <ele>550</ele>
        <time>2016-12-03T15:46:44.008Z</time>
      </trkpt>
      <trkpt lat="43.01878" lon="0.81477">
        <ele>551</ele>
        <time>2016-12-03T15:46:48.008Z</time>
      </trkpt>
      <trkpt lat="43.01879" lon="0.81488">
        <ele>551.34800194557</ele>
        <time>2016-12-03T15:46:51.008Z</time>
      </trkpt>
      <trkpt lat="43.0188" lon="0.815">
        <ele>552</ele>
        <time>2016-12-03T15:46:54.008Z</time>
      </trkpt>
      <trkpt lat="43.01881" lon="0.81511">
        <ele>552</ele>
        <time>2016-12-03T15:46:57.008Z</time>
      </trkpt>
      <trkpt lat="43.01883" lon="0.81522">
        <ele>552</ele>
        <time>2016-12-03T15:47:00.008Z</time>
      </trkpt>
      <trkpt lat="43.01885" lon="0.81533">
        <ele>553</ele>
        <time>2016-12-03T15:47:03.008Z</time>
      </trkpt>
      <trkpt lat="43.01886" lon="0.81543">
        <ele>553</ele>
        <time>2016-12-03T15:47:06.008Z</time>
      </trkpt>
      <trkpt lat="43.01889" lon="0.81554">
        <ele>553</ele>
        <time>2016-12-03T15:47:09.008Z</time>
      </trkpt>
      <trkpt lat="43.0189" lon="0.81565">
        <ele>554</ele>
        <time>2016-12-03T15:47:12.008Z</time>
      </trkpt>
      <trkpt lat="43.01893" lon="0.81579">
        <ele>554</ele>
        <time>2016-12-03T15:47:16.008Z</time>
      </trkpt>
      <trkpt lat="43.01895" lon="0.81591">
        <ele>554</ele>
        <time>2016-12-03T15:47:19.008Z</time>
      </trkpt>
      <trkpt lat="43.01897" lon="0.81603">
        <ele>556</ele>
        <time>2016-12-03T15:47:22.008Z</time>
      </trkpt>
      <trkpt lat="43.01898" lon="0.81614">
        <ele>556</ele>
        <time>2016-12-03T15:47:25.008Z</time>
      </trkpt>
      <trkpt lat="43.01898" lon="0.81628">
        <ele>556</ele>
        <time>2016-12-03T15:47:29.008Z</time>
      </trkpt>
      <trkpt lat="43.01898" lon="0.8164">
        <ele>558</ele>
        <time>2016-12-03T15:47:32.008Z</time>
      </trkpt>
      <trkpt lat="43.01898" lon="0.81654">
        <ele>558</ele>
        <time>2016-12-03T15:47:36.008Z</time>
      </trkpt>
      <trkpt lat="43.01898" lon="0.81666">
        <ele>558</ele>
        <time>2016-12-03T15:47:39.008Z</time>
      </trkpt>
      <trkpt lat="43.01899" lon="0.81678">
        <ele>559</ele>
        <time>2016-12-03T15:47:42.008Z</time>
      </trkpt>
      <trkpt lat="43.01898" lon="0.81691">
        <ele>559</ele>
        <time>2016-12-03T15:47:45.008Z</time>
      </trkpt>
      <trkpt lat="43.01896" lon="0.81703">
        <ele>559</ele>
        <time>2016-12-03T15:47:48.008Z</time>
      </trkpt>
      <trkpt lat="43.01895" lon="0.81716">
        <ele>559.34800194557</ele>
        <time>2016-12-03T15:47:51.008Z</time>
      </trkpt>
      <trkpt lat="43.01893" lon="0.81729">
        <ele>560</ele>
        <time>2016-12-03T15:47:54.008Z</time>
      </trkpt>
      <trkpt lat="43.01891" lon="0.81742">
        <ele>560</ele>
        <time>2016-12-03T15:47:57.008Z</time>
      </trkpt>
      <trkpt lat="43.01891" lon="0.81756">
        <ele>560</ele>
        <time>2016-12-03T15:48:00.008Z</time>
      </trkpt>
      <trkpt lat="43.01891" lon="0.81765">
        <ele>560</ele>
        <time>2016-12-03T15:48:02.008Z</time>
      </trkpt>
      <trkpt lat="43.01891" lon="0.81774">
        <ele>560</ele>
        <time>2016-12-03T15:48:04.008Z</time>
      </trkpt>
      <trkpt lat="43.01891" lon="0.81783">
        <ele>560</ele>
        <time>2016-12-03T15:48:06.008Z</time>
      </trkpt>
      <trkpt lat="43.01891" lon="0.81793">
        <ele>560</ele>
        <time>2016-12-03T15:48:08.008Z</time>
      </trkpt>
      <trkpt lat="43.01891" lon="0.81803">
        <ele>560</ele>
        <time>2016-12-03T15:48:10.008Z</time>
      </trkpt>
      <trkpt lat="43.0189" lon="0.81818">
        <ele>560</ele>
        <time>2016-12-03T15:48:13.008Z</time>
      </trkpt>
      <trkpt lat="43.0189" lon="0.81829">
        <ele>560</ele>
        <time>2016-12-03T15:48:15.008Z</time>
      </trkpt>
      <trkpt lat="43.0189" lon="0.81841">
        <ele>560</ele>
        <time>2016-12-03T15:48:17.008Z</time>
      </trkpt>
      <trkpt lat="43.01891" lon="0.81852">
        <ele>560</ele>
        <time>2016-12-03T15:48:19.008Z</time>
      </trkpt>
      <trkpt lat="43.01891" lon="0.81864">
        <ele>560</ele>
        <time>2016-12-03T15:48:21.008Z</time>
      </trkpt>
      <trkpt lat="43.01892" lon="0.81876">
        <ele>560</ele>
        <time>2016-12-03T15:48:23.008Z</time>
      </trkpt>
      <trkpt lat="43.01893" lon="0.81888">
        <ele>560</ele>
        <time>2016-12-03T15:48:25.008Z</time>
      </trkpt>
      <trkpt lat="43.01893" lon="0.819">
        <ele>560</ele>
        <time>2016-12-03T15:48:27.008Z</time>
      </trkpt>
      <trkpt lat="43.01894" lon="0.81911">
        <ele>560</ele>
        <time>2016-12-03T15:48:29.008Z</time>
      </trkpt>
      <trkpt lat="43.01894" lon="0.81923">
        <ele>560.34800194557</ele>
        <time>2016-12-03T15:48:31.008Z</time>
      </trkpt>
      <trkpt lat="43.01895" lon="0.81934">
        <ele>561</ele>
        <time>2016-12-03T15:48:33.008Z</time>
      </trkpt>
      <trkpt lat="43.01895" lon="0.81944">
        <ele>561</ele>
        <time>2016-12-03T15:48:35.008Z</time>
      </trkpt>
      <trkpt lat="43.01895" lon="0.81955">
        <ele>561</ele>
        <time>2016-12-03T15:48:37.008Z</time>
      </trkpt>
      <trkpt lat="43.01895" lon="0.81966">
        <ele>561</ele>
        <time>2016-12-03T15:48:39.008Z</time>
      </trkpt>
      <trkpt lat="43.01895" lon="0.81977">
        <ele>561</ele>
        <time>2016-12-03T15:48:41.008Z</time>
      </trkpt>
      <trkpt lat="43.01895" lon="0.81988">
        <ele>561</ele>
        <time>2016-12-03T15:48:43.008Z</time>
      </trkpt>
      <trkpt lat="43.01895" lon="0.82">
        <ele>561</ele>
        <time>2016-12-03T15:48:45.008Z</time>
      </trkpt>
      <trkpt lat="43.01894" lon="0.82011">
        <ele>561</ele>
        <time>2016-12-03T15:48:47.008Z</time>
      </trkpt>
      <trkpt lat="43.01894" lon="0.82022">
        <ele>561</ele>
        <time>2016-12-03T15:48:49.008Z</time>
      </trkpt>
      <trkpt lat="43.01894" lon="0.82033">
        <ele>561</ele>
        <time>2016-12-03T15:48:51.008Z</time>
      </trkpt>
      <trkpt lat="43.01894" lon="0.82049">
        <ele>561</ele>
        <time>2016-12-03T15:48:54.008Z</time>
      </trkpt>
      <trkpt lat="43.01893" lon="0.8206">
        <ele>561</ele>
        <time>2016-12-03T15:48:56.008Z</time>
      </trkpt>
      <trkpt lat="43.01893" lon="0.82071">
        <ele>561</ele>
        <time>2016-12-03T15:48:58.008Z</time>
      </trkpt>
      <trkpt lat="43.01893" lon="0.82083">
        <ele>561</ele>
        <time>2016-12-03T15:49:00.008Z</time>
      </trkpt>
      <trkpt lat="43.01892" lon="0.82095">
        <ele>562</ele>
        <time>2016-12-03T15:49:02.008Z</time>
      </trkpt>
      <trkpt lat="43.01892" lon="0.82108">
        <ele>562</ele>
        <time>2016-12-03T15:49:04.008Z</time>
      </trkpt>
      <trkpt lat="43.0189" lon="0.8212">
        <ele>562</ele>
        <time>2016-12-03T15:49:06.008Z</time>
      </trkpt>
      <trkpt lat="43.01889" lon="0.82133">
        <ele>562</ele>
        <time>2016-12-03T15:49:08.008Z</time>
      </trkpt>
      <trkpt lat="43.01888" lon="0.82146">
        <ele>562</ele>
        <time>2016-12-03T15:49:10.008Z</time>
      </trkpt>
      <trkpt lat="43.01888" lon="0.82153">
        <ele>562</ele>
        <time>2016-12-03T15:49:11.008Z</time>
      </trkpt>
      <trkpt lat="43.01888" lon="0.82167">
        <ele>562</ele>
        <time>2016-12-03T15:49:13.008Z</time>
      </trkpt>
      <trkpt lat="43.01887" lon="0.8218">
        <ele>562</ele>
        <time>2016-12-03T15:49:15.008Z</time>
      </trkpt>
      <trkpt lat="43.01887" lon="0.82194">
        <ele>562</ele>
        <time>2016-12-03T15:49:17.008Z</time>
      </trkpt>
      <trkpt lat="43.01887" lon="0.82208">
        <ele>562</ele>
        <time>2016-12-03T15:49:19.008Z</time>
      </trkpt>
      <trkpt lat="43.01887" lon="0.82223">
        <ele>561.65199805443</ele>
        <time>2016-12-03T15:49:21.008Z</time>
      </trkpt>
      <trkpt lat="43.01887" lon="0.82236">
        <ele>561</ele>
        <time>2016-12-03T15:49:23.008Z</time>
      </trkpt>
      <trkpt lat="43.01887" lon="0.8225">
        <ele>561</ele>
        <time>2016-12-03T15:49:25.008Z</time>
      </trkpt>
      <trkpt lat="43.01888" lon="0.82264">
        <ele>561</ele>
        <time>2016-12-03T15:49:27.008Z</time>
      </trkpt>
      <trkpt lat="43.01888" lon="0.82278">
        <ele>561</ele>
        <time>2016-12-03T15:49:29.008Z</time>
      </trkpt>
      <trkpt lat="43.01889" lon="0.82298">
        <ele>560</ele>
        <time>2016-12-03T15:49:32.008Z</time>
      </trkpt>
      <trkpt lat="43.0189" lon="0.82311">
        <ele>560</ele>
        <time>2016-12-03T15:49:34.008Z</time>
      </trkpt>
      <trkpt lat="43.01889" lon="0.82324">
        <ele>560</ele>
        <time>2016-12-03T15:49:36.008Z</time>
      </trkpt>
      <trkpt lat="43.01888" lon="0.82337">
        <ele>560</ele>
        <time>2016-12-03T15:49:38.008Z</time>
      </trkpt>
      <trkpt lat="43.01888" lon="0.82344">
        <ele>560</ele>
        <time>2016-12-03T15:49:39.008Z</time>
      </trkpt>
      <trkpt lat="43.01886" lon="0.82356">
        <ele>560.69600389115</ele>
        <time>2016-12-03T15:49:41.008Z</time>
      </trkpt>
      <trkpt lat="43.01885" lon="0.82368">
        <ele>562</ele>
        <time>2016-12-03T15:49:43.008Z</time>
      </trkpt>
      <trkpt lat="43.01884" lon="0.82379">
        <ele>562</ele>
        <time>2016-12-03T15:49:45.008Z</time>
      </trkpt>
      <trkpt lat="43.01883" lon="0.82391">
        <ele>562</ele>
        <time>2016-12-03T15:49:47.008Z</time>
      </trkpt>
      <trkpt lat="43.01883" lon="0.82401">
        <ele>562</ele>
        <time>2016-12-03T15:49:49.008Z</time>
      </trkpt>
      <trkpt lat="43.01882" lon="0.82412">
        <ele>562.34800194557</ele>
        <time>2016-12-03T15:49:51.008Z</time>
      </trkpt>
      <trkpt lat="43.01881" lon="0.82423">
        <ele>563</ele>
        <time>2016-12-03T15:49:53.008Z</time>
      </trkpt>
      <trkpt lat="43.0188" lon="0.82433">
        <ele>563</ele>
        <time>2016-12-03T15:49:55.008Z</time>
      </trkpt>
      <trkpt lat="43.01879" lon="0.82444">
        <ele>563</ele>
        <time>2016-12-03T15:49:57.008Z</time>
      </trkpt>
      <trkpt lat="43.01878" lon="0.82456">
        <ele>563</ele>
        <time>2016-12-03T15:49:59.008Z</time>
      </trkpt>
      <trkpt lat="43.01876" lon="0.82467">
        <ele>563.69600389115</ele>
        <time>2016-12-03T15:50:01.008Z</time>
      </trkpt>
      <trkpt lat="43.01875" lon="0.82478">
        <ele>565</ele>
        <time>2016-12-03T15:50:03.008Z</time>
      </trkpt>
      <trkpt lat="43.01873" lon="0.82489">
        <ele>565</ele>
        <time>2016-12-03T15:50:05.008Z</time>
      </trkpt>
      <trkpt lat="43.01871" lon="0.825">
        <ele>565</ele>
        <time>2016-12-03T15:50:07.008Z</time>
      </trkpt>
      <trkpt lat="43.01871" lon="0.82505">
        <ele>565</ele>
        <time>2016-12-03T15:50:08.008Z</time>
      </trkpt>
      <trkpt lat="43.0187" lon="0.82511">
        <ele>565</ele>
        <time>2016-12-03T15:50:09.008Z</time>
      </trkpt>
      <trkpt lat="43.01869" lon="0.82516">
        <ele>565</ele>
        <time>2016-12-03T15:50:10.008Z</time>
      </trkpt>
      <trkpt lat="43.01868" lon="0.82522">
        <ele>565</ele>
        <time>2016-12-03T15:50:11.008Z</time>
      </trkpt>
      <trkpt lat="43.01867" lon="0.82528">
        <ele>565</ele>
        <time>2016-12-03T15:50:12.008Z</time>
      </trkpt>
      <trkpt lat="43.01867" lon="0.82533">
        <ele>565</ele>
        <time>2016-12-03T15:50:13.008Z</time>
      </trkpt>
      <trkpt lat="43.01865" lon="0.82544">
        <ele>565</ele>
        <time>2016-12-03T15:50:15.008Z</time>
      </trkpt>
      <trkpt lat="43.01864" lon="0.8255">
        <ele>565</ele>
        <time>2016-12-03T15:50:16.008Z</time>
      </trkpt>
      <trkpt lat="43.01863" lon="0.82556">
        <ele>565</ele>
        <time>2016-12-03T15:50:17.008Z</time>
      </trkpt>
      <trkpt lat="43.01862" lon="0.82561">
        <ele>565</ele>
        <time>2016-12-03T15:50:18.008Z</time>
      </trkpt>
      <trkpt lat="43.01861" lon="0.82567">
        <ele>565</ele>
        <time>2016-12-03T15:50:19.008Z</time>
      </trkpt>
      <trkpt lat="43.0186" lon="0.82572">
        <ele>565</ele>
        <time>2016-12-03T15:50:20.008Z</time>
      </trkpt>
      <trkpt lat="43.01859" lon="0.82577">
        <ele>565.34800194557</ele>
        <time>2016-12-03T15:50:21.008Z</time>
      </trkpt>
      <trkpt lat="43.01858" lon="0.82582">
        <ele>566</ele>
        <time>2016-12-03T15:50:22.008Z</time>
      </trkpt>
      <trkpt lat="43.01857" lon="0.82588">
        <ele>566</ele>
        <time>2016-12-03T15:50:23.008Z</time>
      </trkpt>
      <trkpt lat="43.01856" lon="0.82597">
        <ele>566</ele>
        <time>2016-12-03T15:50:25.008Z</time>
      </trkpt>
      <trkpt lat="43.01854" lon="0.82608">
        <ele>566</ele>
        <time>2016-12-03T15:50:27.008Z</time>
      </trkpt>
      <trkpt lat="43.01853" lon="0.82618">
        <ele>566</ele>
        <time>2016-12-03T15:50:29.008Z</time>
      </trkpt>
      <trkpt lat="43.01851" lon="0.82629">
        <ele>566.69600389115</ele>
        <time>2016-12-03T15:50:31.008Z</time>
      </trkpt>
      <trkpt lat="43.01848" lon="0.82642">
        <ele>568</ele>
        <time>2016-12-03T15:50:33.008Z</time>
      </trkpt>
      <trkpt lat="43.01846" lon="0.82654">
        <ele>568</ele>
        <time>2016-12-03T15:50:35.008Z</time>
      </trkpt>
      <trkpt lat="43.01844" lon="0.82667">
        <ele>568</ele>
        <time>2016-12-03T15:50:37.008Z</time>
      </trkpt>
      <trkpt lat="43.01842" lon="0.82679">
        <ele>568</ele>
        <time>2016-12-03T15:50:39.008Z</time>
      </trkpt>
      <trkpt lat="43.01841" lon="0.82692">
        <ele>568</ele>
        <time>2016-12-03T15:50:41.008Z</time>
      </trkpt>
      <trkpt lat="43.01841" lon="0.82705">
        <ele>568</ele>
        <time>2016-12-03T15:50:43.008Z</time>
      </trkpt>
      <trkpt lat="43.01839" lon="0.82717">
        <ele>568</ele>
        <time>2016-12-03T15:50:45.008Z</time>
      </trkpt>
      <trkpt lat="43.01837" lon="0.8273">
        <ele>568</ele>
        <time>2016-12-03T15:50:47.008Z</time>
      </trkpt>
      <trkpt lat="43.01834" lon="0.82742">
        <ele>568</ele>
        <time>2016-12-03T15:50:49.008Z</time>
      </trkpt>
      <trkpt lat="43.01833" lon="0.82754">
        <ele>568</ele>
        <time>2016-12-03T15:50:51.008Z</time>
      </trkpt>
      <trkpt lat="43.01831" lon="0.82766">
        <ele>568</ele>
        <time>2016-12-03T15:50:53.008Z</time>
      </trkpt>
      <trkpt lat="43.0183" lon="0.82777">
        <ele>568</ele>
        <time>2016-12-03T15:50:55.008Z</time>
      </trkpt>
      <trkpt lat="43.01827" lon="0.82794">
        <ele>568</ele>
        <time>2016-12-03T15:50:58.008Z</time>
      </trkpt>
      <trkpt lat="43.01825" lon="0.82806">
        <ele>568</ele>
        <time>2016-12-03T15:51:00.008Z</time>
      </trkpt>
      <trkpt lat="43.01823" lon="0.82817">
        <ele>569</ele>
        <time>2016-12-03T15:51:02.008Z</time>
      </trkpt>
      <trkpt lat="43.01821" lon="0.82828">
        <ele>569</ele>
        <time>2016-12-03T15:51:04.008Z</time>
      </trkpt>
      <trkpt lat="43.01819" lon="0.82839">
        <ele>569</ele>
        <time>2016-12-03T15:51:06.008Z</time>
      </trkpt>
      <trkpt lat="43.01817" lon="0.8285">
        <ele>569</ele>
        <time>2016-12-03T15:51:08.008Z</time>
      </trkpt>
      <trkpt lat="43.01814" lon="0.82866">
        <ele>569.68281961109</ele>
        <time>2016-12-03T15:51:11.008Z</time>
      </trkpt>
      <trkpt lat="43.01812" lon="0.82876">
        <ele>571</ele>
        <time>2016-12-03T15:51:13.008Z</time>
      </trkpt>
      <trkpt lat="43.01809" lon="0.82887">
        <ele>571</ele>
        <time>2016-12-03T15:51:15.008Z</time>
      </trkpt>
      <trkpt lat="43.01807" lon="0.82897">
        <ele>571</ele>
        <time>2016-12-03T15:51:17.008Z</time>
      </trkpt>
      <trkpt lat="43.01805" lon="0.82908">
        <ele>571</ele>
        <time>2016-12-03T15:51:19.008Z</time>
      </trkpt>
      <trkpt lat="43.01802" lon="0.82918">
        <ele>571.34800194557</ele>
        <time>2016-12-03T15:51:21.008Z</time>
      </trkpt>
      <trkpt lat="43.01799" lon="0.82929">
        <ele>572</ele>
        <time>2016-12-03T15:51:23.008Z</time>
      </trkpt>
      <trkpt lat="43.01796" lon="0.82939">
        <ele>572</ele>
        <time>2016-12-03T15:51:25.008Z</time>
      </trkpt>
      <trkpt lat="43.01793" lon="0.8295">
        <ele>572</ele>
        <time>2016-12-03T15:51:27.008Z</time>
      </trkpt>
      <trkpt lat="43.0179" lon="0.8296">
        <ele>572</ele>
        <time>2016-12-03T15:51:29.008Z</time>
      </trkpt>
      <trkpt lat="43.01788" lon="0.82965">
        <ele>572</ele>
        <time>2016-12-03T15:51:30.008Z</time>
      </trkpt>
      <trkpt lat="43.01786" lon="0.82969">
        <ele>572.34800194557</ele>
        <time>2016-12-03T15:51:31.008Z</time>
      </trkpt>
      <trkpt lat="43.01782" lon="0.82979">
        <ele>573</ele>
        <time>2016-12-03T15:51:33.008Z</time>
      </trkpt>
      <trkpt lat="43.01777" lon="0.82989">
        <ele>573</ele>
        <time>2016-12-03T15:51:35.008Z</time>
      </trkpt>
      <trkpt lat="43.01772" lon="0.82999">
        <ele>573</ele>
        <time>2016-12-03T15:51:37.008Z</time>
      </trkpt>
      <trkpt lat="43.01769" lon="0.83003">
        <ele>573</ele>
        <time>2016-12-03T15:51:38.008Z</time>
      </trkpt>
      <trkpt lat="43.01767" lon="0.83008">
        <ele>573</ele>
        <time>2016-12-03T15:51:39.008Z</time>
      </trkpt>
      <trkpt lat="43.01764" lon="0.83013">
        <ele>573</ele>
        <time>2016-12-03T15:51:40.008Z</time>
      </trkpt>
      <trkpt lat="43.01761" lon="0.83018">
        <ele>573</ele>
        <time>2016-12-03T15:51:41.008Z</time>
      </trkpt>
      <trkpt lat="43.01759" lon="0.83023">
        <ele>573</ele>
        <time>2016-12-03T15:51:42.008Z</time>
      </trkpt>
      <trkpt lat="43.01756" lon="0.83028">
        <ele>573</ele>
        <time>2016-12-03T15:51:43.008Z</time>
      </trkpt>
      <trkpt lat="43.01753" lon="0.83033">
        <ele>573</ele>
        <time>2016-12-03T15:51:44.008Z</time>
      </trkpt>
      <trkpt lat="43.0175" lon="0.83038">
        <ele>573</ele>
        <time>2016-12-03T15:51:45.008Z</time>
      </trkpt>
      <trkpt lat="43.01744" lon="0.83048">
        <ele>573</ele>
        <time>2016-12-03T15:51:47.008Z</time>
      </trkpt>
      <trkpt lat="43.01738" lon="0.83057">
        <ele>573</ele>
        <time>2016-12-03T15:51:49.008Z</time>
      </trkpt>
      <trkpt lat="43.01734" lon="0.83066">
        <ele>573</ele>
        <time>2016-12-03T15:51:51.008Z</time>
      </trkpt>
      <trkpt lat="43.01729" lon="0.83073">
        <ele>573</ele>
        <time>2016-12-03T15:51:54.008Z</time>
      </trkpt>
      <trkpt lat="43.01723" lon="0.83081">
        <ele>573</ele>
        <time>2016-12-03T15:51:58.008Z</time>
      </trkpt>
      <trkpt lat="43.01717" lon="0.8309">
        <ele>573</ele>
        <time>2016-12-03T15:52:02.008Z</time>
      </trkpt>
      <trkpt lat="43.01712" lon="0.83098">
        <ele>573</ele>
        <time>2016-12-03T15:52:05.008Z</time>
      </trkpt>
      <trkpt lat="43.01706" lon="0.83108">
        <ele>573</ele>
        <time>2016-12-03T15:52:08.008Z</time>
      </trkpt>
      <trkpt lat="43.01701" lon="0.83114">
        <ele>573</ele>
        <time>2016-12-03T15:52:10.008Z</time>
      </trkpt>
      <trkpt lat="43.01696" lon="0.83121">
        <ele>575</ele>
        <time>2016-12-03T15:52:12.008Z</time>
      </trkpt>
      <trkpt lat="43.01691" lon="0.83129">
        <ele>575</ele>
        <time>2016-12-03T15:52:14.008Z</time>
      </trkpt>
      <trkpt lat="43.01685" lon="0.83136">
        <ele>575</ele>
        <time>2016-12-03T15:52:16.008Z</time>
      </trkpt>
      <trkpt lat="43.01679" lon="0.83142">
        <ele>575</ele>
        <time>2016-12-03T15:52:18.008Z</time>
      </trkpt>
      <trkpt lat="43.01673" lon="0.83149">
        <ele>575</ele>
        <time>2016-12-03T15:52:20.008Z</time>
      </trkpt>
      <trkpt lat="43.01667" lon="0.83156">
        <ele>575</ele>
        <time>2016-12-03T15:52:22.008Z</time>
      </trkpt>
      <trkpt lat="43.01661" lon="0.83163">
        <ele>575</ele>
        <time>2016-12-03T15:52:24.008Z</time>
      </trkpt>
      <trkpt lat="43.01656" lon="0.8317">
        <ele>575</ele>
        <time>2016-12-03T15:52:26.008Z</time>
      </trkpt>
      <trkpt lat="43.01655" lon="0.83179">
        <ele>575</ele>
        <time>2016-12-03T15:52:29.008Z</time>
      </trkpt>
      <trkpt lat="43.0166" lon="0.83186">
        <ele>576</ele>
        <time>2016-12-03T15:52:32.008Z</time>
      </trkpt>
      <trkpt lat="43.01664" lon="0.8319">
        <ele>576</ele>
        <time>2016-12-03T15:52:34.008Z</time>
      </trkpt>
      <trkpt lat="43.01666" lon="0.83197">
        <ele>576</ele>
        <time>2016-12-03T15:52:36.008Z</time>
      </trkpt>
      <trkpt lat="43.01669" lon="0.83205">
        <ele>576</ele>
        <time>2016-12-03T15:52:39.008Z</time>
      </trkpt>
      <trkpt lat="43.01675" lon="0.83208">
        <ele>576</ele>
        <time>2016-12-03T15:53:04.008Z</time>
      </trkpt>
      <trkpt lat="43.01682" lon="0.83212">
        <ele>575</ele>
        <time>2016-12-03T15:53:29.008Z</time>
      </trkpt>
      <trkpt lat="43.01686" lon="0.83223">
        <ele>573.30399610885</ele>
        <time>2016-12-03T15:53:41.008Z</time>
      </trkpt>
      <trkpt lat="43.01687" lon="0.83239">
        <ele>572</ele>
        <time>2016-12-03T15:53:44.008Z</time>
      </trkpt>
      <trkpt lat="43.01686" lon="0.83254">
        <ele>572</ele>
        <time>2016-12-03T15:53:46.008Z</time>
      </trkpt>
      <trkpt lat="43.01685" lon="0.8327">
        <ele>572</ele>
        <time>2016-12-03T15:53:48.008Z</time>
      </trkpt>
      <trkpt lat="43.01684" lon="0.83285">
        <ele>572</ele>
        <time>2016-12-03T15:53:50.008Z</time>
      </trkpt>
      <trkpt lat="43.01684" lon="0.833">
        <ele>564.6080077825</ele>
        <time>2016-12-03T15:53:52.008Z</time>
      </trkpt>
      <trkpt lat="43.01682" lon="0.83316">
        <ele>561</ele>
        <time>2016-12-03T15:53:54.008Z</time>
      </trkpt>
      <trkpt lat="43.01681" lon="0.83332">
        <ele>558.30400389125</ele>
        <time>2016-12-03T15:53:56.008Z</time>
      </trkpt>
      <trkpt lat="43.01692" lon="0.83341">
        <ele>555</ele>
        <time>2016-12-03T15:54:00.008Z</time>
      </trkpt>
      <trkpt lat="43.01704" lon="0.83337">
        <ele>554</ele>
        <time>2016-12-03T15:54:02.008Z</time>
      </trkpt>
      <trkpt lat="43.01716" lon="0.8333">
        <ele>553</ele>
        <time>2016-12-03T15:54:04.008Z</time>
      </trkpt>
      <trkpt lat="43.01727" lon="0.83322">
        <ele>550.65200194562</ele>
        <time>2016-12-03T15:54:06.008Z</time>
      </trkpt>
      <trkpt lat="43.01737" lon="0.83314">
        <ele>549</ele>
        <time>2016-12-03T15:54:08.008Z</time>
      </trkpt>
      <trkpt lat="43.0175" lon="0.83303">
        <ele>546.31718038891</ele>
        <time>2016-12-03T15:54:11.008Z</time>
      </trkpt>
      <trkpt lat="43.01758" lon="0.83296">
        <ele>544.65199805443</ele>
        <time>2016-12-03T15:54:13.008Z</time>
      </trkpt>
      <trkpt lat="43.01765" lon="0.8329">
        <ele>542.65199805443</ele>
        <time>2016-12-03T15:54:15.008Z</time>
      </trkpt>
      <trkpt lat="43.01772" lon="0.83283">
        <ele>539.65199805443</ele>
        <time>2016-12-03T15:54:17.008Z</time>
      </trkpt>
      <trkpt lat="43.01779" lon="0.83277">
        <ele>538.65199805443</ele>
        <time>2016-12-03T15:54:19.008Z</time>
      </trkpt>
      <trkpt lat="43.01785" lon="0.83271">
        <ele>537</ele>
        <time>2016-12-03T15:54:21.008Z</time>
      </trkpt>
      <trkpt lat="43.01793" lon="0.83269">
        <ele>536</ele>
        <time>2016-12-03T15:54:23.008Z</time>
      </trkpt>
      <trkpt lat="43.018" lon="0.83278">
        <ele>534.65199805443</ele>
        <time>2016-12-03T15:54:25.008Z</time>
      </trkpt>
      <trkpt lat="43.01805" lon="0.83291">
        <ele>531.65199805443</ele>
        <time>2016-12-03T15:54:27.008Z</time>
      </trkpt>
      <trkpt lat="43.01807" lon="0.83304">
        <ele>531</ele>
        <time>2016-12-03T15:54:29.008Z</time>
      </trkpt>
      <trkpt lat="43.01808" lon="0.83318">
        <ele>529.65199805443</ele>
        <time>2016-12-03T15:54:31.008Z</time>
      </trkpt>
      <trkpt lat="43.01808" lon="0.83331">
        <ele>529</ele>
        <time>2016-12-03T15:54:33.008Z</time>
      </trkpt>
      <trkpt lat="43.01805" lon="0.83341">
        <ele>527.65199805443</ele>
        <time>2016-12-03T15:54:35.008Z</time>
      </trkpt>
      <trkpt lat="43.01801" lon="0.8335">
        <ele>526.65199805443</ele>
        <time>2016-12-03T15:54:37.008Z</time>
      </trkpt>
      <trkpt lat="43.01797" lon="0.83359">
        <ele>525.65199805443</ele>
        <time>2016-12-03T15:54:39.008Z</time>
      </trkpt>
      <trkpt lat="43.01791" lon="0.83369">
        <ele>523.65199805443</ele>
        <time>2016-12-03T15:54:41.008Z</time>
      </trkpt>
      <trkpt lat="43.01787" lon="0.83379">
        <ele>521.65199805443</ele>
        <time>2016-12-03T15:54:43.008Z</time>
      </trkpt>
      <trkpt lat="43.0178" lon="0.83391">
        <ele>520.65199805443</ele>
        <time>2016-12-03T15:54:45.008Z</time>
      </trkpt>
      <trkpt lat="43.01773" lon="0.83405">
        <ele>518.65199805443</ele>
        <time>2016-12-03T15:54:47.008Z</time>
      </trkpt>
      <trkpt lat="43.01771" lon="0.83418">
        <ele>516.65859019446</ele>
        <time>2016-12-03T15:54:49.008Z</time>
      </trkpt>
      <trkpt lat="43.01773" lon="0.83427">
        <ele>516</ele>
        <time>2016-12-03T15:55:40.008Z</time>
      </trkpt>
      <trkpt lat="43.01779" lon="0.83429">
        <ele>516</ele>
        <time>2016-12-03T15:55:45.008Z</time>
      </trkpt>
      <trkpt lat="43.01783" lon="0.83429">
        <ele>516</ele>
        <time>2016-12-03T15:55:47.008Z</time>
      </trkpt>
      <trkpt lat="43.01789" lon="0.83428">
        <ele>516</ele>
        <time>2016-12-03T15:55:49.008Z</time>
      </trkpt>
      <trkpt lat="43.01793" lon="0.83428">
        <ele>516</ele>
        <time>2016-12-03T15:55:50.008Z</time>
      </trkpt>
      <trkpt lat="43.01797" lon="0.83428">
        <ele>516</ele>
        <time>2016-12-03T15:55:51.008Z</time>
      </trkpt>
      <trkpt lat="43.01805" lon="0.83428">
        <ele>516</ele>
        <time>2016-12-03T15:55:53.008Z</time>
      </trkpt>
      <trkpt lat="43.01813" lon="0.83427">
        <ele>516</ele>
        <time>2016-12-03T15:55:55.008Z</time>
      </trkpt>
      <trkpt lat="43.01821" lon="0.83425">
        <ele>516</ele>
        <time>2016-12-03T15:55:57.008Z</time>
      </trkpt>
      <trkpt lat="43.01829" lon="0.83423">
        <ele>516</ele>
        <time>2016-12-03T15:55:59.008Z</time>
      </trkpt>
      <trkpt lat="43.01838" lon="0.8342">
        <ele>515.65199805443</ele>
        <time>2016-12-03T15:56:01.008Z</time>
      </trkpt>
      <trkpt lat="43.01843" lon="0.83419">
        <ele>515</ele>
        <time>2016-12-03T15:56:02.008Z</time>
      </trkpt>
      <trkpt lat="43.01849" lon="0.83418">
        <ele>515</ele>
        <time>2016-12-03T15:56:03.008Z</time>
      </trkpt>
      <trkpt lat="43.01859" lon="0.83417">
        <ele>515</ele>
        <time>2016-12-03T15:56:05.008Z</time>
      </trkpt>
      <trkpt lat="43.01869" lon="0.83416">
        <ele>515</ele>
        <time>2016-12-03T15:56:07.008Z</time>
      </trkpt>
      <trkpt lat="43.01878" lon="0.83413">
        <ele>515</ele>
        <time>2016-12-03T15:56:09.008Z</time>
      </trkpt>
      <trkpt lat="43.01888" lon="0.8341">
        <ele>515.69600389115</ele>
        <time>2016-12-03T15:56:11.008Z</time>
      </trkpt>
      <trkpt lat="43.01897" lon="0.83406">
        <ele>517</ele>
        <time>2016-12-03T15:56:13.008Z</time>
      </trkpt>
      <trkpt lat="43.01905" lon="0.83401">
        <ele>517</ele>
        <time>2016-12-03T15:56:15.008Z</time>
      </trkpt>
      <trkpt lat="43.01914" lon="0.83396">
        <ele>517</ele>
        <time>2016-12-03T15:56:17.008Z</time>
      </trkpt>
      <trkpt lat="43.01924" lon="0.83391">
        <ele>517</ele>
        <time>2016-12-03T15:56:19.008Z</time>
      </trkpt>
      <trkpt lat="43.01933" lon="0.83387">
        <ele>517</ele>
        <time>2016-12-03T15:56:21.008Z</time>
      </trkpt>
      <trkpt lat="43.01941" lon="0.83384">
        <ele>517</ele>
        <time>2016-12-03T15:56:23.008Z</time>
      </trkpt>
      <trkpt lat="43.0195" lon="0.83383">
        <ele>517</ele>
        <time>2016-12-03T15:56:25.008Z</time>
      </trkpt>
      <trkpt lat="43.01959" lon="0.83382">
        <ele>517</ele>
        <time>2016-12-03T15:56:27.008Z</time>
      </trkpt>
      <trkpt lat="43.01969" lon="0.83382">
        <ele>517</ele>
        <time>2016-12-03T15:56:29.008Z</time>
      </trkpt>
      <trkpt lat="43.01978" lon="0.83381">
        <ele>517.34800194557</ele>
        <time>2016-12-03T15:56:31.008Z</time>
      </trkpt>
      <trkpt lat="43.01992" lon="0.8338">
        <ele>518</ele>
        <time>2016-12-03T15:56:34.008Z</time>
      </trkpt>
      <trkpt lat="43.02001" lon="0.83379">
        <ele>518</ele>
        <time>2016-12-03T15:56:36.008Z</time>
      </trkpt>
      <trkpt lat="43.0201" lon="0.83379">
        <ele>518</ele>
        <time>2016-12-03T15:56:38.008Z</time>
      </trkpt>
      <trkpt lat="43.02018" lon="0.8338">
        <ele>518</ele>
        <time>2016-12-03T15:56:40.008Z</time>
      </trkpt>
      <trkpt lat="43.02026" lon="0.83382">
        <ele>520</ele>
        <time>2016-12-03T15:56:42.008Z</time>
      </trkpt>
      <trkpt lat="43.02033" lon="0.83386">
        <ele>520</ele>
        <time>2016-12-03T15:56:44.008Z</time>
      </trkpt>
      <trkpt lat="43.02037" lon="0.83388">
        <ele>520</ele>
        <time>2016-12-03T15:56:45.008Z</time>
      </trkpt>
      <trkpt lat="43.02044" lon="0.83393">
        <ele>521</ele>
        <time>2016-12-03T15:56:47.008Z</time>
      </trkpt>
      <trkpt lat="43.02051" lon="0.83398">
        <ele>521</ele>
        <time>2016-12-03T15:56:49.008Z</time>
      </trkpt>
      <trkpt lat="43.02059" lon="0.83402">
        <ele>521.34800194557</ele>
        <time>2016-12-03T15:56:51.008Z</time>
      </trkpt>
      <trkpt lat="43.02067" lon="0.83405">
        <ele>522</ele>
        <time>2016-12-03T15:56:53.008Z</time>
      </trkpt>
      <trkpt lat="43.02075" lon="0.83406">
        <ele>522</ele>
        <time>2016-12-03T15:56:55.008Z</time>
      </trkpt>
      <trkpt lat="43.02083" lon="0.83403">
        <ele>522</ele>
        <time>2016-12-03T15:56:57.008Z</time>
      </trkpt>
      <trkpt lat="43.02093" lon="0.83394">
        <ele>522</ele>
        <time>2016-12-03T15:57:00.008Z</time>
      </trkpt>
      <trkpt lat="43.02098" lon="0.83387">
        <ele>524</ele>
        <time>2016-12-03T15:57:02.008Z</time>
      </trkpt>
      <trkpt lat="43.02106" lon="0.83376">
        <ele>524</ele>
        <time>2016-12-03T15:57:05.008Z</time>
      </trkpt>
      <trkpt lat="43.02113" lon="0.83366">
        <ele>524</ele>
        <time>2016-12-03T15:57:08.008Z</time>
      </trkpt>
      <trkpt lat="43.0212" lon="0.83357">
        <ele>524.69600389115</ele>
        <time>2016-12-03T15:57:11.008Z</time>
      </trkpt>
      <trkpt lat="43.02125" lon="0.83351">
        <ele>526</ele>
        <time>2016-12-03T15:57:13.008Z</time>
      </trkpt>
      <trkpt lat="43.0213" lon="0.83346">
        <ele>526</ele>
        <time>2016-12-03T15:57:15.008Z</time>
      </trkpt>
      <trkpt lat="43.02135" lon="0.83341">
        <ele>526</ele>
        <time>2016-12-03T15:57:17.008Z</time>
      </trkpt>
      <trkpt lat="43.02144" lon="0.83336">
        <ele>526</ele>
        <time>2016-12-03T15:57:20.008Z</time>
      </trkpt>
      <trkpt lat="43.0215" lon="0.83333">
        <ele>529</ele>
        <time>2016-12-03T15:57:22.008Z</time>
      </trkpt>
      <trkpt lat="43.02155" lon="0.83332">
        <ele>529</ele>
        <time>2016-12-03T15:57:24.008Z</time>
      </trkpt>
      <trkpt lat="43.02162" lon="0.83331">
        <ele>529.69599610875</ele>
        <time>2016-12-03T15:57:26.008Z</time>
      </trkpt>
      <trkpt lat="43.02168" lon="0.83331">
        <ele>531</ele>
        <time>2016-12-03T15:57:28.008Z</time>
      </trkpt>
      <trkpt lat="43.02174" lon="0.83332">
        <ele>531</ele>
        <time>2016-12-03T15:57:30.008Z</time>
      </trkpt>
      <trkpt lat="43.02179" lon="0.83334">
        <ele>531</ele>
        <time>2016-12-03T15:57:32.008Z</time>
      </trkpt>
      <trkpt lat="43.02185" lon="0.83337">
        <ele>531</ele>
        <time>2016-12-03T15:57:34.008Z</time>
      </trkpt>
      <trkpt lat="43.0219" lon="0.83342">
        <ele>531</ele>
        <time>2016-12-03T15:57:36.008Z</time>
      </trkpt>
      <trkpt lat="43.02195" lon="0.83348">
        <ele>531</ele>
        <time>2016-12-03T15:57:38.008Z</time>
      </trkpt>
      <trkpt lat="43.02199" lon="0.83355">
        <ele>531</ele>
        <time>2016-12-03T15:57:40.008Z</time>
      </trkpt>
      <trkpt lat="43.02203" lon="0.83362">
        <ele>533</ele>
        <time>2016-12-03T15:57:42.008Z</time>
      </trkpt>
      <trkpt lat="43.02205" lon="0.8337">
        <ele>533</ele>
        <time>2016-12-03T15:57:44.008Z</time>
      </trkpt>
      <trkpt lat="43.0221" lon="0.83384">
        <ele>533</ele>
        <time>2016-12-03T15:57:47.008Z</time>
      </trkpt>
      <trkpt lat="43.02214" lon="0.83397">
        <ele>533</ele>
        <time>2016-12-03T15:57:50.008Z</time>
      </trkpt>
      <trkpt lat="43.02216" lon="0.83414">
        <ele>533</ele>
        <time>2016-12-03T15:57:53.008Z</time>
      </trkpt>
      <trkpt lat="43.02218" lon="0.83433">
        <ele>533</ele>
        <time>2016-12-03T15:57:56.008Z</time>
      </trkpt>
      <trkpt lat="43.02221" lon="0.83451">
        <ele>533</ele>
        <time>2016-12-03T15:57:59.008Z</time>
      </trkpt>
      <trkpt lat="43.0223" lon="0.83467">
        <ele>531</ele>
        <time>2016-12-03T15:58:02.008Z</time>
      </trkpt>
      <trkpt lat="43.02235" lon="0.83479">
        <ele>531</ele>
        <time>2016-12-03T15:58:04.008Z</time>
      </trkpt>
      <trkpt lat="43.02241" lon="0.83496">
        <ele>531</ele>
        <time>2016-12-03T15:58:06.008Z</time>
      </trkpt>
      <trkpt lat="43.02246" lon="0.83512">
        <ele>531</ele>
        <time>2016-12-03T15:58:08.008Z</time>
      </trkpt>
      <trkpt lat="43.02252" lon="0.83529">
        <ele>531</ele>
        <time>2016-12-03T15:58:10.008Z</time>
      </trkpt>
      <trkpt lat="43.02258" lon="0.83545">
        <ele>530</ele>
        <time>2016-12-03T15:58:12.008Z</time>
      </trkpt>
      <trkpt lat="43.02266" lon="0.8356">
        <ele>530</ele>
        <time>2016-12-03T15:58:14.008Z</time>
      </trkpt>
      <trkpt lat="43.02275" lon="0.83573">
        <ele>530</ele>
        <time>2016-12-03T15:58:16.008Z</time>
      </trkpt>
      <trkpt lat="43.02285" lon="0.83583">
        <ele>530</ele>
        <time>2016-12-03T15:58:18.008Z</time>
      </trkpt>
      <trkpt lat="43.02296" lon="0.8359">
        <ele>530</ele>
        <time>2016-12-03T15:58:20.008Z</time>
      </trkpt>
      <trkpt lat="43.02304" lon="0.83597">
        <ele>530</ele>
        <time>2016-12-03T15:58:22.008Z</time>
      </trkpt>
      <trkpt lat="43.02311" lon="0.83603">
        <ele>530</ele>
        <time>2016-12-03T15:58:24.008Z</time>
      </trkpt>
      <trkpt lat="43.02318" lon="0.8361">
        <ele>530</ele>
        <time>2016-12-03T15:58:26.008Z</time>
      </trkpt>
      <trkpt lat="43.02322" lon="0.83617">
        <ele>530</ele>
        <time>2016-12-03T15:58:28.008Z</time>
      </trkpt>
      <trkpt lat="43.02323" lon="0.83626">
        <ele>530</ele>
        <time>2016-12-03T15:58:30.008Z</time>
      </trkpt>
      <trkpt lat="43.02315" lon="0.83634">
        <ele>532</ele>
        <time>2016-12-03T15:58:33.008Z</time>
      </trkpt>
      <trkpt lat="43.02308" lon="0.83636">
        <ele>532</ele>
        <time>2016-12-03T15:58:35.008Z</time>
      </trkpt>
      <trkpt lat="43.023" lon="0.83638">
        <ele>532</ele>
        <time>2016-12-03T15:58:37.008Z</time>
      </trkpt>
      <trkpt lat="43.02292" lon="0.8364">
        <ele>532</ele>
        <time>2016-12-03T15:58:39.008Z</time>
      </trkpt>
      <trkpt lat="43.02286" lon="0.83643">
        <ele>533.04400583672</ele>
        <time>2016-12-03T15:58:41.008Z</time>
      </trkpt>
      <trkpt lat="43.02279" lon="0.83647">
        <ele>535</ele>
        <time>2016-12-03T15:58:43.008Z</time>
      </trkpt>
      <trkpt lat="43.02269" lon="0.83651">
        <ele>535.34799805438</ele>
        <time>2016-12-03T15:58:46.008Z</time>
      </trkpt>
      <trkpt lat="43.02259" lon="0.83655">
        <ele>536</ele>
        <time>2016-12-03T15:58:49.008Z</time>
      </trkpt>
      <trkpt lat="43.0225" lon="0.83658">
        <ele>537</ele>
        <time>2016-12-03T15:58:52.008Z</time>
      </trkpt>
      <trkpt lat="43.0224" lon="0.8366">
        <ele>537</ele>
        <time>2016-12-03T15:58:55.008Z</time>
      </trkpt>
      <trkpt lat="43.0223" lon="0.83659">
        <ele>540</ele>
        <time>2016-12-03T15:58:58.008Z</time>
      </trkpt>
      <trkpt lat="43.02219" lon="0.83656">
        <ele>541</ele>
        <time>2016-12-03T15:59:02.008Z</time>
      </trkpt>
      <trkpt lat="43.02208" lon="0.83653">
        <ele>541.68282843955</ele>
        <time>2016-12-03T15:59:06.008Z</time>
      </trkpt>
      <trkpt lat="43.02196" lon="0.83654">
        <ele>543</ele>
        <time>2016-12-03T15:59:10.008Z</time>
      </trkpt>
      <trkpt lat="43.02185" lon="0.83656">
        <ele>546</ele>
        <time>2016-12-03T15:59:14.008Z</time>
      </trkpt>
      <trkpt lat="43.02175" lon="0.83662">
        <ele>547</ele>
        <time>2016-12-03T15:59:18.008Z</time>
      </trkpt>
      <trkpt lat="43.02165" lon="0.83666">
        <ele>549</ele>
        <time>2016-12-03T15:59:22.008Z</time>
      </trkpt>
      <trkpt lat="43.02154" lon="0.8367">
        <ele>549.34799805438</ele>
        <time>2016-12-03T15:59:26.008Z</time>
      </trkpt>
      <trkpt lat="43.02145" lon="0.83674">
        <ele>550</ele>
        <time>2016-12-03T15:59:29.008Z</time>
      </trkpt>
      <trkpt lat="43.02135" lon="0.83678">
        <ele>551</ele>
        <time>2016-12-03T15:59:32.008Z</time>
      </trkpt>
      <trkpt lat="43.02129" lon="0.83681">
        <ele>551</ele>
        <time>2016-12-03T15:59:34.008Z</time>
      </trkpt>
      <trkpt lat="43.02123" lon="0.83684">
        <ele>551</ele>
        <time>2016-12-03T15:59:36.008Z</time>
      </trkpt>
      <trkpt lat="43.02116" lon="0.83686">
        <ele>551</ele>
        <time>2016-12-03T15:59:38.008Z</time>
      </trkpt>
      <trkpt lat="43.0211" lon="0.83689">
        <ele>551</ele>
        <time>2016-12-03T15:59:40.008Z</time>
      </trkpt>
      <trkpt lat="43.02103" lon="0.83692">
        <ele>552</ele>
        <time>2016-12-03T15:59:42.008Z</time>
      </trkpt>
      <trkpt lat="43.02096" lon="0.83695">
        <ele>552</ele>
        <time>2016-12-03T15:59:44.008Z</time>
      </trkpt>
      <trkpt lat="43.02089" lon="0.83698">
        <ele>552</ele>
        <time>2016-12-03T15:59:46.008Z</time>
      </trkpt>
      <trkpt lat="43.02083" lon="0.83701">
        <ele>552</ele>
        <time>2016-12-03T15:59:48.008Z</time>
      </trkpt>
      <trkpt lat="43.02077" lon="0.83704">
        <ele>552</ele>
        <time>2016-12-03T15:59:50.008Z</time>
      </trkpt>
      <trkpt lat="43.02067" lon="0.83708">
        <ele>554</ele>
        <time>2016-12-03T15:59:53.008Z</time>
      </trkpt>
      <trkpt lat="43.02057" lon="0.83713">
        <ele>554</ele>
        <time>2016-12-03T15:59:56.008Z</time>
      </trkpt>
      <trkpt lat="43.02048" lon="0.83719">
        <ele>554</ele>
        <time>2016-12-03T15:59:59.008Z</time>
      </trkpt>
      <trkpt lat="43.02038" lon="0.83723">
        <ele>556</ele>
        <time>2016-12-03T16:00:02.008Z</time>
      </trkpt>
      <trkpt lat="43.02026" lon="0.83729">
        <ele>556.69599610875</ele>
        <time>2016-12-03T16:00:06.008Z</time>
      </trkpt>
      <trkpt lat="43.02016" lon="0.83734">
        <ele>558</ele>
        <time>2016-12-03T16:00:09.008Z</time>
      </trkpt>
      <trkpt lat="43.02006" lon="0.83739">
        <ele>558</ele>
        <time>2016-12-03T16:00:12.008Z</time>
      </trkpt>
      <trkpt lat="43.02" lon="0.83743">
        <ele>558</ele>
        <time>2016-12-03T16:00:14.008Z</time>
      </trkpt>
      <trkpt lat="43.01994" lon="0.83747">
        <ele>558</ele>
        <time>2016-12-03T16:00:16.008Z</time>
      </trkpt>
      <trkpt lat="43.01989" lon="0.83753">
        <ele>558</ele>
        <time>2016-12-03T16:00:18.008Z</time>
      </trkpt>
      <trkpt lat="43.01983" lon="0.8376">
        <ele>558</ele>
        <time>2016-12-03T16:00:20.008Z</time>
      </trkpt>
      <trkpt lat="43.01978" lon="0.83766">
        <ele>560</ele>
        <time>2016-12-03T16:00:22.008Z</time>
      </trkpt>
      <trkpt lat="43.01973" lon="0.83774">
        <ele>560</ele>
        <time>2016-12-03T16:00:24.008Z</time>
      </trkpt>
      <trkpt lat="43.01969" lon="0.83782">
        <ele>560</ele>
        <time>2016-12-03T16:00:26.008Z</time>
      </trkpt>
      <trkpt lat="43.01965" lon="0.83791">
        <ele>560</ele>
        <time>2016-12-03T16:00:28.008Z</time>
      </trkpt>
      <trkpt lat="43.01963" lon="0.83796">
        <ele>560</ele>
        <time>2016-12-03T16:00:29.008Z</time>
      </trkpt>
      <trkpt lat="43.01962" lon="0.83802">
        <ele>560</ele>
        <time>2016-12-03T16:00:30.008Z</time>
      </trkpt>
      <trkpt lat="43.0196" lon="0.83808">
        <ele>560.34800194557</ele>
        <time>2016-12-03T16:00:31.008Z</time>
      </trkpt>
      <trkpt lat="43.01959" lon="0.83821">
        <ele>561</ele>
        <time>2016-12-03T16:00:33.008Z</time>
      </trkpt>
      <trkpt lat="43.0196" lon="0.83836">
        <ele>561</ele>
        <time>2016-12-03T16:00:35.008Z</time>
      </trkpt>
      <trkpt lat="43.01963" lon="0.8385">
        <ele>561</ele>
        <time>2016-12-03T16:00:37.008Z</time>
      </trkpt>
      <trkpt lat="43.01967" lon="0.83866">
        <ele>561</ele>
        <time>2016-12-03T16:00:39.008Z</time>
      </trkpt>
      <trkpt lat="43.0197" lon="0.83881">
        <ele>560.65199805443</ele>
        <time>2016-12-03T16:00:41.008Z</time>
      </trkpt>
      <trkpt lat="43.01974" lon="0.83896">
        <ele>560</ele>
        <time>2016-12-03T16:00:43.008Z</time>
      </trkpt>
      <trkpt lat="43.01977" lon="0.83911">
        <ele>560</ele>
        <time>2016-12-03T16:00:45.008Z</time>
      </trkpt>
      <trkpt lat="43.0198" lon="0.83928">
        <ele>560</ele>
        <time>2016-12-03T16:00:47.008Z</time>
      </trkpt>
      <trkpt lat="43.01982" lon="0.83944">
        <ele>560</ele>
        <time>2016-12-03T16:00:49.008Z</time>
      </trkpt>
      <trkpt lat="43.01984" lon="0.8396">
        <ele>560</ele>
        <time>2016-12-03T16:00:51.008Z</time>
      </trkpt>
      <trkpt lat="43.01985" lon="0.83976">
        <ele>560</ele>
        <time>2016-12-03T16:00:53.008Z</time>
      </trkpt>
      <trkpt lat="43.01985" lon="0.83992">
        <ele>560</ele>
        <time>2016-12-03T16:00:55.008Z</time>
      </trkpt>
      <trkpt lat="43.01985" lon="0.84007">
        <ele>560</ele>
        <time>2016-12-03T16:00:57.008Z</time>
      </trkpt>
      <trkpt lat="43.01984" lon="0.84022">
        <ele>560</ele>
        <time>2016-12-03T16:00:59.008Z</time>
      </trkpt>
      <trkpt lat="43.01985" lon="0.84037">
        <ele>560</ele>
        <time>2016-12-03T16:01:01.008Z</time>
      </trkpt>
      <trkpt lat="43.01987" lon="0.84051">
        <ele>560</ele>
        <time>2016-12-03T16:01:03.008Z</time>
      </trkpt>
      <trkpt lat="43.01988" lon="0.84071">
        <ele>560</ele>
        <time>2016-12-03T16:01:06.008Z</time>
      </trkpt>
      <trkpt lat="43.01989" lon="0.84084">
        <ele>560</ele>
        <time>2016-12-03T16:01:08.008Z</time>
      </trkpt>
      <trkpt lat="43.01991" lon="0.84098">
        <ele>560</ele>
        <time>2016-12-03T16:01:10.008Z</time>
      </trkpt>
      <trkpt lat="43.01994" lon="0.84112">
        <ele>561</ele>
        <time>2016-12-03T16:01:12.008Z</time>
      </trkpt>
      <trkpt lat="43.01997" lon="0.84125">
        <ele>561</ele>
        <time>2016-12-03T16:01:14.008Z</time>
      </trkpt>
      <trkpt lat="43.02001" lon="0.84138">
        <ele>561</ele>
        <time>2016-12-03T16:01:16.008Z</time>
      </trkpt>
      <trkpt lat="43.02006" lon="0.8415">
        <ele>561</ele>
        <time>2016-12-03T16:01:18.008Z</time>
      </trkpt>
      <trkpt lat="43.02011" lon="0.84162">
        <ele>561</ele>
        <time>2016-12-03T16:01:20.008Z</time>
      </trkpt>
      <trkpt lat="43.02014" lon="0.84174">
        <ele>563</ele>
        <time>2016-12-03T16:01:22.008Z</time>
      </trkpt>
      <trkpt lat="43.02016" lon="0.84181">
        <ele>563</ele>
        <time>2016-12-03T16:01:23.008Z</time>
      </trkpt>
      <trkpt lat="43.02016" lon="0.84194">
        <ele>563</ele>
        <time>2016-12-03T16:01:25.008Z</time>
      </trkpt>
      <trkpt lat="43.02016" lon="0.84207">
        <ele>563</ele>
        <time>2016-12-03T16:01:27.008Z</time>
      </trkpt>
      <trkpt lat="43.02017" lon="0.84221">
        <ele>563</ele>
        <time>2016-12-03T16:01:29.008Z</time>
      </trkpt>
      <trkpt lat="43.02019" lon="0.84236">
        <ele>563</ele>
        <time>2016-12-03T16:01:31.008Z</time>
      </trkpt>
      <trkpt lat="43.02022" lon="0.84251">
        <ele>563</ele>
        <time>2016-12-03T16:01:33.008Z</time>
      </trkpt>
      <trkpt lat="43.02026" lon="0.84267">
        <ele>563</ele>
        <time>2016-12-03T16:01:35.008Z</time>
      </trkpt>
      <trkpt lat="43.0203" lon="0.84285">
        <ele>563</ele>
        <time>2016-12-03T16:01:37.008Z</time>
      </trkpt>
      <trkpt lat="43.02033" lon="0.84303">
        <ele>563</ele>
        <time>2016-12-03T16:01:39.008Z</time>
      </trkpt>
      <trkpt lat="43.02034" lon="0.84322">
        <ele>562.30399610885</ele>
        <time>2016-12-03T16:01:41.008Z</time>
      </trkpt>
      <trkpt lat="43.02035" lon="0.8434">
        <ele>561</ele>
        <time>2016-12-03T16:01:43.008Z</time>
      </trkpt>
      <trkpt lat="43.02036" lon="0.8436">
        <ele>561</ele>
        <time>2016-12-03T16:01:45.008Z</time>
      </trkpt>
      <trkpt lat="43.02036" lon="0.84379">
        <ele>561</ele>
        <time>2016-12-03T16:01:47.008Z</time>
      </trkpt>
      <trkpt lat="43.02034" lon="0.84397">
        <ele>561</ele>
        <time>2016-12-03T16:01:49.008Z</time>
      </trkpt>
      <trkpt lat="43.02032" lon="0.84415">
        <ele>560.65199805443</ele>
        <time>2016-12-03T16:01:51.008Z</time>
      </trkpt>
      <trkpt lat="43.0203" lon="0.84431">
        <ele>560</ele>
        <time>2016-12-03T16:01:53.008Z</time>
      </trkpt>
      <trkpt lat="43.02027" lon="0.84445">
        <ele>560</ele>
        <time>2016-12-03T16:01:55.008Z</time>
      </trkpt>
      <trkpt lat="43.02026" lon="0.8446">
        <ele>560</ele>
        <time>2016-12-03T16:01:57.008Z</time>
      </trkpt>
      <trkpt lat="43.02025" lon="0.84475">
        <ele>560</ele>
        <time>2016-12-03T16:01:59.008Z</time>
      </trkpt>
      <trkpt lat="43.02025" lon="0.84489">
        <ele>560</ele>
        <time>2016-12-03T16:02:01.008Z</time>
      </trkpt>
      <trkpt lat="43.02027" lon="0.84504">
        <ele>560</ele>
        <time>2016-12-03T16:02:03.008Z</time>
      </trkpt>
      <trkpt lat="43.02029" lon="0.8452">
        <ele>560</ele>
        <time>2016-12-03T16:02:05.008Z</time>
      </trkpt>
      <trkpt lat="43.0203" lon="0.84534">
        <ele>560</ele>
        <time>2016-12-03T16:02:07.008Z</time>
      </trkpt>
      <trkpt lat="43.02033" lon="0.84548">
        <ele>560</ele>
        <time>2016-12-03T16:02:09.008Z</time>
      </trkpt>
      <trkpt lat="43.02043" lon="0.84562">
        <ele>559</ele>
        <time>2016-12-03T16:02:12.008Z</time>
      </trkpt>
      <trkpt lat="43.02052" lon="0.84569">
        <ele>559</ele>
        <time>2016-12-03T16:02:14.008Z</time>
      </trkpt>
      <trkpt lat="43.02062" lon="0.84574">
        <ele>559</ele>
        <time>2016-12-03T16:02:16.008Z</time>
      </trkpt>
      <trkpt lat="43.02068" lon="0.84575">
        <ele>559</ele>
        <time>2016-12-03T16:02:17.008Z</time>
      </trkpt>
      <trkpt lat="43.02078" lon="0.84578">
        <ele>559</ele>
        <time>2016-12-03T16:02:19.008Z</time>
      </trkpt>
      <trkpt lat="43.02089" lon="0.84581">
        <ele>558.30399610885</ele>
        <time>2016-12-03T16:02:21.008Z</time>
      </trkpt>
      <trkpt lat="43.02094" lon="0.84582">
        <ele>557</ele>
        <time>2016-12-03T16:02:22.008Z</time>
      </trkpt>
      <trkpt lat="43.02098" lon="0.84583">
        <ele>557</ele>
        <time>2016-12-03T16:02:23.008Z</time>
      </trkpt>
      <trkpt lat="43.02102" lon="0.84585">
        <ele>557</ele>
        <time>2016-12-03T16:02:24.008Z</time>
      </trkpt>
      <trkpt lat="43.02104" lon="0.84598">
        <ele>557</ele>
        <time>2016-12-03T16:02:27.008Z</time>
      </trkpt>
      <trkpt lat="43.02098" lon="0.84603">
        <ele>557</ele>
        <time>2016-12-03T16:02:29.008Z</time>
      </trkpt>
      <trkpt lat="43.02093" lon="0.84607">
        <ele>557</ele>
        <time>2016-12-03T16:02:31.008Z</time>
      </trkpt>
      <trkpt lat="43.02088" lon="0.84613">
        <ele>557</ele>
        <time>2016-12-03T16:02:33.008Z</time>
      </trkpt>
      <trkpt lat="43.02081" lon="0.8462">
        <ele>557</ele>
        <time>2016-12-03T16:02:36.008Z</time>
      </trkpt>
      <trkpt lat="43.02076" lon="0.84627">
        <ele>557</ele>
        <time>2016-12-03T16:02:39.008Z</time>
      </trkpt>
      <trkpt lat="43.0207" lon="0.84634">
        <ele>559</ele>
        <time>2016-12-03T16:02:42.008Z</time>
      </trkpt>
      <trkpt lat="43.02063" lon="0.84644">
        <ele>559</ele>
        <time>2016-12-03T16:02:46.008Z</time>
      </trkpt>
      <trkpt lat="43.02055" lon="0.84652">
        <ele>559</ele>
        <time>2016-12-03T16:02:49.008Z</time>
      </trkpt>
      <trkpt lat="43.02047" lon="0.84661">
        <ele>563</ele>
        <time>2016-12-03T16:02:52.008Z</time>
      </trkpt>
      <trkpt lat="43.02042" lon="0.84666">
        <ele>563</ele>
        <time>2016-12-03T16:02:54.008Z</time>
      </trkpt>
      <trkpt lat="43.02036" lon="0.84674">
        <ele>565</ele>
        <time>2016-12-03T16:02:57.008Z</time>
      </trkpt>
      <trkpt lat="43.02031" lon="0.84683">
        <ele>565</ele>
        <time>2016-12-03T16:03:00.008Z</time>
      </trkpt>
      <trkpt lat="43.02027" lon="0.84689">
        <ele>568</ele>
        <time>2016-12-03T16:03:02.008Z</time>
      </trkpt>
      <trkpt lat="43.02024" lon="0.84695">
        <ele>568</ele>
        <time>2016-12-03T16:03:04.008Z</time>
      </trkpt>
      <trkpt lat="43.0202" lon="0.84701">
        <ele>569</ele>
        <time>2016-12-03T16:03:06.008Z</time>
      </trkpt>
      <trkpt lat="43.02017" lon="0.84707">
        <ele>570</ele>
        <time>2016-12-03T16:03:08.008Z</time>
      </trkpt>
      <trkpt lat="43.02013" lon="0.84714">
        <ele>571</ele>
        <time>2016-12-03T16:03:10.008Z</time>
      </trkpt>
      <trkpt lat="43.0201" lon="0.8472">
        <ele>571</ele>
        <time>2016-12-03T16:03:12.008Z</time>
      </trkpt>
      <trkpt lat="43.02004" lon="0.84729">
        <ele>571</ele>
        <time>2016-12-03T16:03:15.008Z</time>
      </trkpt>
      <trkpt lat="43.01998" lon="0.84737">
        <ele>573</ele>
        <time>2016-12-03T16:03:19.008Z</time>
      </trkpt>
      <trkpt lat="43.01993" lon="0.84744">
        <ele>574</ele>
        <time>2016-12-03T16:03:22.008Z</time>
      </trkpt>
      <trkpt lat="43.01988" lon="0.8475">
        <ele>574</ele>
        <time>2016-12-03T16:03:25.008Z</time>
      </trkpt>
      <trkpt lat="43.01982" lon="0.84758">
        <ele>575</ele>
        <time>2016-12-03T16:03:29.008Z</time>
      </trkpt>
      <trkpt lat="43.01975" lon="0.84766">
        <ele>577</ele>
        <time>2016-12-03T16:03:33.008Z</time>
      </trkpt>
      <trkpt lat="43.01969" lon="0.8477">
        <ele>577.34799805438</ele>
        <time>2016-12-03T16:03:36.008Z</time>
      </trkpt>
      <trkpt lat="43.01962" lon="0.84776">
        <ele>578</ele>
        <time>2016-12-03T16:03:39.008Z</time>
      </trkpt>
      <trkpt lat="43.01956" lon="0.8478">
        <ele>578</ele>
        <time>2016-12-03T16:03:41.008Z</time>
      </trkpt>
      <trkpt lat="43.0195" lon="0.84785">
        <ele>578</ele>
        <time>2016-12-03T16:03:43.008Z</time>
      </trkpt>
      <trkpt lat="43.01943" lon="0.84791">
        <ele>578</ele>
        <time>2016-12-03T16:03:45.008Z</time>
      </trkpt>
      <trkpt lat="43.01937" lon="0.84797">
        <ele>578</ele>
        <time>2016-12-03T16:03:47.008Z</time>
      </trkpt>
      <trkpt lat="43.01931" lon="0.84804">
        <ele>578</ele>
        <time>2016-12-03T16:03:49.008Z</time>
      </trkpt>
      <trkpt lat="43.01925" lon="0.84811">
        <ele>578.34800194557</ele>
        <time>2016-12-03T16:03:51.008Z</time>
      </trkpt>
      <trkpt lat="43.01919" lon="0.84817">
        <ele>579</ele>
        <time>2016-12-03T16:03:53.008Z</time>
      </trkpt>
      <trkpt lat="43.01912" lon="0.84824">
        <ele>579</ele>
        <time>2016-12-03T16:03:55.008Z</time>
      </trkpt>
      <trkpt lat="43.01906" lon="0.84829">
        <ele>579</ele>
        <time>2016-12-03T16:03:57.008Z</time>
      </trkpt>
      <trkpt lat="43.01897" lon="0.84838">
        <ele>579</ele>
        <time>2016-12-03T16:04:00.008Z</time>
      </trkpt>
      <trkpt lat="43.01888" lon="0.84845">
        <ele>580</ele>
        <time>2016-12-03T16:04:03.008Z</time>
      </trkpt>
      <trkpt lat="43.0188" lon="0.84854">
        <ele>580</ele>
        <time>2016-12-03T16:04:07.008Z</time>
      </trkpt>
      <trkpt lat="43.01871" lon="0.84865">
        <ele>580</ele>
        <time>2016-12-03T16:04:10.008Z</time>
      </trkpt>
      <trkpt lat="43.01863" lon="0.84875">
        <ele>580</ele>
        <time>2016-12-03T16:04:13.008Z</time>
      </trkpt>
      <trkpt lat="43.01855" lon="0.84882">
        <ele>580</ele>
        <time>2016-12-03T16:04:15.008Z</time>
      </trkpt>
      <trkpt lat="43.01847" lon="0.84889">
        <ele>580</ele>
        <time>2016-12-03T16:04:17.008Z</time>
      </trkpt>
      <trkpt lat="43.01841" lon="0.84894">
        <ele>580</ele>
        <time>2016-12-03T16:04:19.008Z</time>
      </trkpt>
      <trkpt lat="43.01834" lon="0.84899">
        <ele>579.65199805443</ele>
        <time>2016-12-03T16:04:21.008Z</time>
      </trkpt>
      <trkpt lat="43.0182" lon="0.84907">
        <ele>579</ele>
        <time>2016-12-03T16:04:23.008Z</time>
      </trkpt>
      <trkpt lat="43.01809" lon="0.84917">
        <ele>579</ele>
        <time>2016-12-03T16:04:25.008Z</time>
      </trkpt>
      <trkpt lat="43.01802" lon="0.84924">
        <ele>579</ele>
        <time>2016-12-03T16:04:27.008Z</time>
      </trkpt>
      <trkpt lat="43.01793" lon="0.84931">
        <ele>579</ele>
        <time>2016-12-03T16:04:29.008Z</time>
      </trkpt>
      <trkpt lat="43.01785" lon="0.84937">
        <ele>578.65199805443</ele>
        <time>2016-12-03T16:04:31.008Z</time>
      </trkpt>
      <trkpt lat="43.01771" lon="0.84942">
        <ele>578</ele>
        <time>2016-12-03T16:04:34.008Z</time>
      </trkpt>
      <trkpt lat="43.01758" lon="0.84947">
        <ele>578</ele>
        <time>2016-12-03T16:04:37.008Z</time>
      </trkpt>
      <trkpt lat="43.01749" lon="0.84955">
        <ele>578</ele>
        <time>2016-12-03T16:04:39.008Z</time>
      </trkpt>
      <trkpt lat="43.01736" lon="0.84964">
        <ele>578</ele>
        <time>2016-12-03T16:04:42.008Z</time>
      </trkpt>
      <trkpt lat="43.01725" lon="0.84969">
        <ele>578</ele>
        <time>2016-12-03T16:04:44.008Z</time>
      </trkpt>
      <trkpt lat="43.01713" lon="0.84974">
        <ele>578</ele>
        <time>2016-12-03T16:04:47.008Z</time>
      </trkpt>
      <trkpt lat="43.01702" lon="0.84978">
        <ele>578</ele>
        <time>2016-12-03T16:04:49.008Z</time>
      </trkpt>
      <trkpt lat="43.0169" lon="0.84982">
        <ele>577.30399610885</ele>
        <time>2016-12-03T16:04:51.008Z</time>
      </trkpt>
      <trkpt lat="43.01678" lon="0.84987">
        <ele>576</ele>
        <time>2016-12-03T16:04:54.008Z</time>
      </trkpt>
      <trkpt lat="43.01665" lon="0.84986">
        <ele>576</ele>
        <time>2016-12-03T16:04:57.008Z</time>
      </trkpt>
      <trkpt lat="43.01655" lon="0.84984">
        <ele>576</ele>
        <time>2016-12-03T16:04:59.008Z</time>
      </trkpt>
      <trkpt lat="43.0164" lon="0.8499">
        <ele>572</ele>
        <time>2016-12-03T16:05:02.008Z</time>
      </trkpt>
      <trkpt lat="43.01632" lon="0.85001">
        <ele>572</ele>
        <time>2016-12-03T16:05:05.008Z</time>
      </trkpt>
      <trkpt lat="43.01633" lon="0.85016">
        <ele>574</ele>
        <time>2016-12-03T16:05:09.008Z</time>
      </trkpt>
      <trkpt lat="43.01635" lon="0.85031">
        <ele>576</ele>
        <time>2016-12-03T16:05:13.008Z</time>
      </trkpt>
      <trkpt lat="43.01637" lon="0.85041">
        <ele>577.04399416313</ele>
        <time>2016-12-03T16:05:16.008Z</time>
      </trkpt>
      <trkpt lat="43.01636" lon="0.85048">
        <ele>579</ele>
        <time>2016-12-03T16:05:19.008Z</time>
      </trkpt>
      <trkpt lat="43.01637" lon="0.85055">
        <ele>581</ele>
        <time>2016-12-03T16:05:22.008Z</time>
      </trkpt>
      <trkpt lat="43.0164" lon="0.85069">
        <ele>581</ele>
        <time>2016-12-03T16:05:27.008Z</time>
      </trkpt>
      <trkpt lat="43.01641" lon="0.85079">
        <ele>581</ele>
        <time>2016-12-03T16:05:30.008Z</time>
      </trkpt>
      <trkpt lat="43.01643" lon="0.85093">
        <ele>581</ele>
        <time>2016-12-03T16:05:35.008Z</time>
      </trkpt>
      <trkpt lat="43.01644" lon="0.85102">
        <ele>581</ele>
        <time>2016-12-03T16:05:38.008Z</time>
      </trkpt>
      <trkpt lat="43.01645" lon="0.85114">
        <ele>582</ele>
        <time>2016-12-03T16:05:42.008Z</time>
      </trkpt>
      <trkpt lat="43.01651" lon="0.85121">
        <ele>582</ele>
        <time>2016-12-03T16:05:46.008Z</time>
      </trkpt>
      <trkpt lat="43.01658" lon="0.85125">
        <ele>582</ele>
        <time>2016-12-03T16:05:50.008Z</time>
      </trkpt>
      <trkpt lat="43.01666" lon="0.85127">
        <ele>584</ele>
        <time>2016-12-03T16:05:56.008Z</time>
      </trkpt>
      <trkpt lat="43.01675" lon="0.85129">
        <ele>587</ele>
        <time>2016-12-03T16:06:04.008Z</time>
      </trkpt>
      <trkpt lat="43.01683" lon="0.85129">
        <ele>588</ele>
        <time>2016-12-03T16:06:09.008Z</time>
      </trkpt>
      <trkpt lat="43.0169" lon="0.85125">
        <ele>590</ele>
        <time>2016-12-03T16:06:14.008Z</time>
      </trkpt>
      <trkpt lat="43.01697" lon="0.85119">
        <ele>591</ele>
        <time>2016-12-03T16:06:19.008Z</time>
      </trkpt>
      <trkpt lat="43.01702" lon="0.85116">
        <ele>593</ele>
        <time>2016-12-03T16:06:22.008Z</time>
      </trkpt>
      <trkpt lat="43.01711" lon="0.85114">
        <ele>593</ele>
        <time>2016-12-03T16:06:26.008Z</time>
      </trkpt>
      <trkpt lat="43.01719" lon="0.85112">
        <ele>593</ele>
        <time>2016-12-03T16:06:30.008Z</time>
      </trkpt>
      <trkpt lat="43.01726" lon="0.85111">
        <ele>595</ele>
        <time>2016-12-03T16:06:34.008Z</time>
      </trkpt>
      <trkpt lat="43.01735" lon="0.85111">
        <ele>595</ele>
        <time>2016-12-03T16:06:39.008Z</time>
      </trkpt>
      <trkpt lat="43.01741" lon="0.85111">
        <ele>597</ele>
        <time>2016-12-03T16:06:43.008Z</time>
      </trkpt>
      <trkpt lat="43.01748" lon="0.85111">
        <ele>597</ele>
        <time>2016-12-03T16:06:47.008Z</time>
      </trkpt>
      <trkpt lat="43.01756" lon="0.85113">
        <ele>597</ele>
        <time>2016-12-03T16:06:50.008Z</time>
      </trkpt>
      <trkpt lat="43.01762" lon="0.85114">
        <ele>599</ele>
        <time>2016-12-03T16:06:53.008Z</time>
      </trkpt>
      <trkpt lat="43.01771" lon="0.85115">
        <ele>599</ele>
        <time>2016-12-03T16:06:58.008Z</time>
      </trkpt>
      <trkpt lat="43.01778" lon="0.85115">
        <ele>602</ele>
        <time>2016-12-03T16:07:02.008Z</time>
      </trkpt>
      <trkpt lat="43.01786" lon="0.85119">
        <ele>602.69599610875</ele>
        <time>2016-12-03T16:07:06.008Z</time>
      </trkpt>
      <trkpt lat="43.01794" lon="0.8512">
        <ele>604</ele>
        <time>2016-12-03T16:07:10.008Z</time>
      </trkpt>
      <trkpt lat="43.01802" lon="0.85124">
        <ele>604</ele>
        <time>2016-12-03T16:07:14.008Z</time>
      </trkpt>
      <trkpt lat="43.01811" lon="0.85127">
        <ele>604</ele>
        <time>2016-12-03T16:07:18.008Z</time>
      </trkpt>
      <trkpt lat="43.01819" lon="0.85129">
        <ele>606</ele>
        <time>2016-12-03T16:07:22.008Z</time>
      </trkpt>
      <trkpt lat="43.01827" lon="0.85132">
        <ele>606</ele>
        <time>2016-12-03T16:07:26.008Z</time>
      </trkpt>
      <trkpt lat="43.01835" lon="0.85136">
        <ele>606.69600389115</ele>
        <time>2016-12-03T16:07:31.008Z</time>
      </trkpt>
      <trkpt lat="43.01843" lon="0.85139">
        <ele>608</ele>
        <time>2016-12-03T16:07:36.008Z</time>
      </trkpt>
      <trkpt lat="43.01854" lon="0.85146">
        <ele>608.69600389115</ele>
        <time>2016-12-03T16:07:41.008Z</time>
      </trkpt>
      <trkpt lat="43.01863" lon="0.85151">
        <ele>611.04399416313</ele>
        <time>2016-12-03T16:07:46.008Z</time>
      </trkpt>
      <trkpt lat="43.01871" lon="0.85154">
        <ele>613.34800194557</ele>
        <time>2016-12-03T16:07:51.008Z</time>
      </trkpt>
      <trkpt lat="43.01879" lon="0.85158">
        <ele>614</ele>
        <time>2016-12-03T16:07:55.008Z</time>
      </trkpt>
      <trkpt lat="43.01886" lon="0.85164">
        <ele>615</ele>
        <time>2016-12-03T16:07:59.008Z</time>
      </trkpt>
      <trkpt lat="43.01892" lon="0.8517">
        <ele>617</ele>
        <time>2016-12-03T16:08:03.008Z</time>
      </trkpt>
      <trkpt lat="43.01898" lon="0.85175">
        <ele>617.69599610875</ele>
        <time>2016-12-03T16:08:06.008Z</time>
      </trkpt>
      <trkpt lat="43.01903" lon="0.85181">
        <ele>619</ele>
        <time>2016-12-03T16:08:10.008Z</time>
      </trkpt>
      <trkpt lat="43.01909" lon="0.85187">
        <ele>621</ele>
        <time>2016-12-03T16:08:14.008Z</time>
      </trkpt>
      <trkpt lat="43.01914" lon="0.85192">
        <ele>623</ele>
        <time>2016-12-03T16:08:18.008Z</time>
      </trkpt>
      <trkpt lat="43.01918" lon="0.852">
        <ele>625</ele>
        <time>2016-12-03T16:08:22.008Z</time>
      </trkpt>
      <trkpt lat="43.01922" lon="0.85208">
        <ele>625</ele>
        <time>2016-12-03T16:08:31.008Z</time>
      </trkpt>
      <trkpt lat="43.01925" lon="0.85218">
        <ele>625</ele>
        <time>2016-12-03T16:08:40.008Z</time>
      </trkpt>
      <trkpt lat="43.01928" lon="0.85227">
        <ele>627</ele>
        <time>2016-12-03T16:08:44.008Z</time>
      </trkpt>
      <trkpt lat="43.01932" lon="0.85237">
        <ele>627</ele>
        <time>2016-12-03T16:08:49.008Z</time>
      </trkpt>
      <trkpt lat="43.01937" lon="0.85245">
        <ele>629</ele>
        <time>2016-12-03T16:08:58.008Z</time>
      </trkpt>
      <trkpt lat="43.01947" lon="0.85246">
        <ele>633</ele>
        <time>2016-12-03T16:09:05.008Z</time>
      </trkpt>
      <trkpt lat="43.01955" lon="0.8525">
        <ele>634</ele>
        <time>2016-12-03T16:09:09.008Z</time>
      </trkpt>
      <trkpt lat="43.01961" lon="0.85252">
        <ele>634</ele>
        <time>2016-12-03T16:09:12.008Z</time>
      </trkpt>
      <trkpt lat="43.01966" lon="0.85255">
        <ele>634</ele>
        <time>2016-12-03T16:09:15.008Z</time>
      </trkpt>
      <trkpt lat="43.0197" lon="0.85258">
        <ele>634</ele>
        <time>2016-12-03T16:09:18.008Z</time>
      </trkpt>
      <trkpt lat="43.01975" lon="0.8526">
        <ele>635.3920077823</ele>
        <time>2016-12-03T16:09:21.008Z</time>
      </trkpt>
      <trkpt lat="43.01979" lon="0.85264">
        <ele>638</ele>
        <time>2016-12-03T16:09:24.008Z</time>
      </trkpt>
      <trkpt lat="43.01983" lon="0.85266">
        <ele>640</ele>
        <time>2016-12-03T16:09:27.008Z</time>
      </trkpt>
      <trkpt lat="43.01989" lon="0.85268">
        <ele>640.34800194557</ele>
        <time>2016-12-03T16:09:31.008Z</time>
      </trkpt>
      <trkpt lat="43.01995" lon="0.85268">
        <ele>641</ele>
        <time>2016-12-03T16:09:35.008Z</time>
      </trkpt>
      <trkpt lat="43.02001" lon="0.8527">
        <ele>643</ele>
        <time>2016-12-03T16:09:51.008Z</time>
      </trkpt>
      <trkpt lat="43.02007" lon="0.85275">
        <ele>643</ele>
        <time>2016-12-03T16:09:59.008Z</time>
      </trkpt>
      <trkpt lat="43.02009" lon="0.85284">
        <ele>647</ele>
        <time>2016-12-03T16:10:07.008Z</time>
      </trkpt>
      <trkpt lat="43.02008" lon="0.85293">
        <ele>648</ele>
        <time>2016-12-03T16:10:12.008Z</time>
      </trkpt>
      <trkpt lat="43.02007" lon="0.85301">
        <ele>649</ele>
        <time>2016-12-03T16:10:19.008Z</time>
      </trkpt>
      <trkpt lat="43.02005" lon="0.85308">
        <ele>650</ele>
        <time>2016-12-03T16:10:22.008Z</time>
      </trkpt>
      <trkpt lat="43.02004" lon="0.85316">
        <ele>650</ele>
        <time>2016-12-03T16:10:25.008Z</time>
      </trkpt>
      <trkpt lat="43.02003" lon="0.85324">
        <ele>650</ele>
        <time>2016-12-03T16:10:28.008Z</time>
      </trkpt>
      <trkpt lat="43.02001" lon="0.85331">
        <ele>650.69600389115</ele>
        <time>2016-12-03T16:10:31.008Z</time>
      </trkpt>
      <trkpt lat="43.01998" lon="0.85338">
        <ele>652</ele>
        <time>2016-12-03T16:10:34.008Z</time>
      </trkpt>
      <trkpt lat="43.01995" lon="0.85347">
        <ele>652</ele>
        <time>2016-12-03T16:10:38.008Z</time>
      </trkpt>
      <trkpt lat="43.0199" lon="0.85352">
        <ele>653.3920077823</ele>
        <time>2016-12-03T16:10:41.008Z</time>
      </trkpt>
      <trkpt lat="43.01987" lon="0.85358">
        <ele>655</ele>
        <time>2016-12-03T16:10:44.008Z</time>
      </trkpt>
      <trkpt lat="43.01984" lon="0.85363">
        <ele>657</ele>
        <time>2016-12-03T16:10:47.008Z</time>
      </trkpt>
      <trkpt lat="43.0198" lon="0.85367">
        <ele>657</ele>
        <time>2016-12-03T16:10:50.008Z</time>
      </trkpt>
      <trkpt lat="43.01977" lon="0.85372">
        <ele>659</ele>
        <time>2016-12-03T16:10:53.008Z</time>
      </trkpt>
      <trkpt lat="43.01973" lon="0.85375">
        <ele>659.69599610875</ele>
        <time>2016-12-03T16:10:56.008Z</time>
      </trkpt>
      <trkpt lat="43.0197" lon="0.8538">
        <ele>661</ele>
        <time>2016-12-03T16:11:00.008Z</time>
      </trkpt>
      <trkpt lat="43.01968" lon="0.85387">
        <ele>663</ele>
        <time>2016-12-03T16:11:09.008Z</time>
      </trkpt>
      <trkpt lat="43.01963" lon="0.85394">
        <ele>663</ele>
        <time>2016-12-03T16:11:20.008Z</time>
      </trkpt>
      <trkpt lat="43.01958" lon="0.85401">
        <ele>665</ele>
        <time>2016-12-03T16:11:30.008Z</time>
      </trkpt>
      <trkpt lat="43.01955" lon="0.85408">
        <ele>667</ele>
        <time>2016-12-03T16:11:37.008Z</time>
      </trkpt>
      <trkpt lat="43.01953" lon="0.85415">
        <ele>669</ele>
        <time>2016-12-03T16:11:44.008Z</time>
      </trkpt>
      <trkpt lat="43.01948" lon="0.85423">
        <ele>671</ele>
        <time>2016-12-03T16:11:55.008Z</time>
      </trkpt>
      <trkpt lat="43.01946" lon="0.85432">
        <ele>672</ele>
        <time>2016-12-03T16:12:03.008Z</time>
      </trkpt>
      <trkpt lat="43.01944" lon="0.85441">
        <ele>674</ele>
        <time>2016-12-03T16:12:12.008Z</time>
      </trkpt>
      <trkpt lat="43.01942" lon="0.85451">
        <ele>677.69599610875</ele>
        <time>2016-12-03T16:12:26.008Z</time>
      </trkpt>
      <trkpt lat="43.01938" lon="0.85459">
        <ele>679</ele>
        <time>2016-12-03T16:12:37.008Z</time>
      </trkpt>
      <trkpt lat="43.01933" lon="0.85466">
        <ele>680</ele>
        <time>2016-12-03T16:12:44.008Z</time>
      </trkpt>
      <trkpt lat="43.01928" lon="0.85476">
        <ele>682</ele>
        <time>2016-12-03T16:12:52.008Z</time>
      </trkpt>
      <trkpt lat="43.01925" lon="0.85486">
        <ele>685</ele>
        <time>2016-12-03T16:13:02.008Z</time>
      </trkpt>
      <trkpt lat="43.01925" lon="0.85498">
        <ele>686</ele>
        <time>2016-12-03T16:13:15.008Z</time>
      </trkpt>
      <trkpt lat="43.01924" lon="0.8551">
        <ele>688</ele>
        <time>2016-12-03T16:13:26.008Z</time>
      </trkpt>
      <trkpt lat="43.01922" lon="0.85523">
        <ele>689</ele>
        <time>2016-12-03T16:13:38.008Z</time>
      </trkpt>
      <trkpt lat="43.0192" lon="0.85534">
        <ele>691</ele>
        <time>2016-12-03T16:13:50.008Z</time>
      </trkpt>
      <trkpt lat="43.01916" lon="0.85547">
        <ele>696</ele>
        <time>2016-12-03T16:14:02.008Z</time>
      </trkpt>
      <trkpt lat="43.01909" lon="0.85554">
        <ele>697</ele>
        <time>2016-12-03T16:14:10.008Z</time>
      </trkpt>
      <trkpt lat="43.01903" lon="0.85565">
        <ele>700</ele>
        <time>2016-12-03T16:14:23.008Z</time>
      </trkpt>
      <trkpt lat="43.01895" lon="0.8557">
        <ele>702</ele>
        <time>2016-12-03T16:14:34.008Z</time>
      </trkpt>
      <trkpt lat="43.01887" lon="0.85576">
        <ele>704</ele>
        <time>2016-12-03T16:14:46.008Z</time>
      </trkpt>
      <trkpt lat="43.01878" lon="0.85581">
        <ele>706</ele>
        <time>2016-12-03T16:14:56.008Z</time>
      </trkpt>
      <trkpt lat="43.0187" lon="0.85585">
        <ele>709</ele>
        <time>2016-12-03T16:15:05.008Z</time>
      </trkpt>
      <trkpt lat="43.01863" lon="0.85588">
        <ele>710</ele>
        <time>2016-12-03T16:15:16.008Z</time>
      </trkpt>
      <trkpt lat="43.01855" lon="0.8559">
        <ele>712</ele>
        <time>2016-12-03T16:15:24.008Z</time>
      </trkpt>
      <trkpt lat="43.01846" lon="0.85592">
        <ele>715</ele>
        <time>2016-12-03T16:15:32.008Z</time>
      </trkpt>
      <trkpt lat="43.01837" lon="0.85595">
        <ele>717</ele>
        <time>2016-12-03T16:15:43.008Z</time>
      </trkpt>
      <trkpt lat="43.01826" lon="0.856">
        <ele>718</ele>
        <time>2016-12-03T16:15:53.008Z</time>
      </trkpt>
      <trkpt lat="43.01817" lon="0.85601">
        <ele>718</ele>
        <time>2016-12-03T16:15:59.008Z</time>
      </trkpt>
      <trkpt lat="43.01809" lon="0.85603">
        <ele>720</ele>
        <time>2016-12-03T16:16:08.008Z</time>
      </trkpt>
      <trkpt lat="43.01801" lon="0.85602">
        <ele>721</ele>
        <time>2016-12-03T16:16:18.008Z</time>
      </trkpt>
      <trkpt lat="43.01795" lon="0.85608">
        <ele>723</ele>
        <time>2016-12-03T16:16:23.008Z</time>
      </trkpt>
      <trkpt lat="43.01791" lon="0.85619">
        <ele>723</ele>
        <time>2016-12-03T16:16:28.008Z</time>
      </trkpt>
      <trkpt lat="43.01792" lon="0.85628">
        <ele>726</ele>
        <time>2016-12-03T16:16:32.008Z</time>
      </trkpt>
      <trkpt lat="43.01792" lon="0.85637">
        <ele>726</ele>
        <time>2016-12-03T16:16:35.008Z</time>
      </trkpt>
      <trkpt lat="43.01793" lon="0.85646">
        <ele>727</ele>
        <time>2016-12-03T16:16:38.008Z</time>
      </trkpt>
      <trkpt lat="43.01795" lon="0.85654">
        <ele>727</ele>
        <time>2016-12-03T16:16:41.008Z</time>
      </trkpt>
      <trkpt lat="43.01796" lon="0.85664">
        <ele>727</ele>
        <time>2016-12-03T16:16:45.008Z</time>
      </trkpt>
      <trkpt lat="43.01795" lon="0.85673">
        <ele>727</ele>
        <time>2016-12-03T16:16:49.008Z</time>
      </trkpt>
      <trkpt lat="43.01798" lon="0.85682">
        <ele>729</ele>
        <time>2016-12-03T16:16:54.008Z</time>
      </trkpt>
      <trkpt lat="43.01802" lon="0.85693">
        <ele>729</ele>
        <time>2016-12-03T16:16:59.008Z</time>
      </trkpt>
      <trkpt lat="43.01804" lon="0.85702">
        <ele>732</ele>
        <time>2016-12-03T16:17:03.008Z</time>
      </trkpt>
      <trkpt lat="43.01802" lon="0.8571">
        <ele>733</ele>
        <time>2016-12-03T16:17:07.008Z</time>
      </trkpt>
      <trkpt lat="43.01799" lon="0.85717">
        <ele>733</ele>
        <time>2016-12-03T16:17:14.008Z</time>
      </trkpt>
      <trkpt lat="43.01797" lon="0.85724">
        <ele>733</ele>
        <time>2016-12-03T16:17:17.008Z</time>
      </trkpt>
      <trkpt lat="43.01796" lon="0.85729">
        <ele>733</ele>
        <time>2016-12-03T16:17:19.008Z</time>
      </trkpt>
      <trkpt lat="43.01794" lon="0.85736">
        <ele>735</ele>
        <time>2016-12-03T16:17:22.008Z</time>
      </trkpt>
      <trkpt lat="43.0179" lon="0.85741">
        <ele>735</ele>
        <time>2016-12-03T16:17:25.008Z</time>
      </trkpt>
      <trkpt lat="43.01787" lon="0.85746">
        <ele>735</ele>
        <time>2016-12-03T16:17:27.008Z</time>
      </trkpt>
      <trkpt lat="43.01784" lon="0.85751">
        <ele>735</ele>
        <time>2016-12-03T16:17:29.008Z</time>
      </trkpt>
      <trkpt lat="43.01782" lon="0.85756">
        <ele>735</ele>
        <time>2016-12-03T16:17:31.008Z</time>
      </trkpt>
      <trkpt lat="43.0178" lon="0.85762">
        <ele>735</ele>
        <time>2016-12-03T16:17:33.008Z</time>
      </trkpt>
      <trkpt lat="43.01778" lon="0.85769">
        <ele>735</ele>
        <time>2016-12-03T16:17:35.008Z</time>
      </trkpt>
      <trkpt lat="43.01777" lon="0.85775">
        <ele>735</ele>
        <time>2016-12-03T16:17:37.008Z</time>
      </trkpt>
      <trkpt lat="43.01775" lon="0.85782">
        <ele>735</ele>
        <time>2016-12-03T16:17:39.008Z</time>
      </trkpt>
      <trkpt lat="43.01772" lon="0.85788">
        <ele>735</ele>
        <time>2016-12-03T16:17:41.008Z</time>
      </trkpt>
      <trkpt lat="43.01769" lon="0.85793">
        <ele>735</ele>
        <time>2016-12-03T16:17:43.008Z</time>
      </trkpt>
      <trkpt lat="43.01763" lon="0.85797">
        <ele>735</ele>
        <time>2016-12-03T16:17:45.008Z</time>
      </trkpt>
      <trkpt lat="43.01759" lon="0.858">
        <ele>735</ele>
        <time>2016-12-03T16:17:46.008Z</time>
      </trkpt>
      <trkpt lat="43.01755" lon="0.85803">
        <ele>735</ele>
        <time>2016-12-03T16:17:47.008Z</time>
      </trkpt>
      <trkpt lat="43.01751" lon="0.85806">
        <ele>735</ele>
        <time>2016-12-03T16:17:48.008Z</time>
      </trkpt>
      <trkpt lat="43.01746" lon="0.8581">
        <ele>735</ele>
        <time>2016-12-03T16:17:49.008Z</time>
      </trkpt>
      <trkpt lat="43.01738" lon="0.85822">
        <ele>733.25999027212</ele>
        <time>2016-12-03T16:17:51.008Z</time>
      </trkpt>
      <trkpt lat="43.01733" lon="0.85839">
        <ele>730</ele>
        <time>2016-12-03T16:17:53.008Z</time>
      </trkpt>
      <trkpt lat="43.0173" lon="0.85854">
        <ele>730</ele>
        <time>2016-12-03T16:17:55.008Z</time>
      </trkpt>
      <trkpt lat="43.01729" lon="0.85863">
        <ele>728.6080077825</ele>
        <time>2016-12-03T16:17:56.008Z</time>
      </trkpt>
      <trkpt lat="43.01727" lon="0.85871">
        <ele>726</ele>
        <time>2016-12-03T16:17:57.008Z</time>
      </trkpt>
      <trkpt lat="43.01725" lon="0.85879">
        <ele>726</ele>
        <time>2016-12-03T16:17:58.008Z</time>
      </trkpt>
      <trkpt lat="43.01723" lon="0.85887">
        <ele>726</ele>
        <time>2016-12-03T16:17:59.008Z</time>
      </trkpt>
      <trkpt lat="43.01717" lon="0.85903">
        <ele>723.91198832655</ele>
        <time>2016-12-03T16:18:01.008Z</time>
      </trkpt>
      <trkpt lat="43.01713" lon="0.8591">
        <ele>719.65200194562</ele>
        <time>2016-12-03T16:18:02.008Z</time>
      </trkpt>
      <trkpt lat="43.01709" lon="0.85917">
        <ele>718.65199805443</ele>
        <time>2016-12-03T16:18:03.008Z</time>
      </trkpt>
      <trkpt lat="43.01698" lon="0.85929">
        <ele>717</ele>
        <time>2016-12-03T16:18:05.008Z</time>
      </trkpt>
      <trkpt lat="43.01688" lon="0.85941">
        <ele>715.65199805443</ele>
        <time>2016-12-03T16:18:07.008Z</time>
      </trkpt>
      <trkpt lat="43.0168" lon="0.85953">
        <ele>712</ele>
        <time>2016-12-03T16:18:10.008Z</time>
      </trkpt>
      <trkpt lat="43.01678" lon="0.85949">
        <ele>712</ele>
        <time>2016-12-03T16:18:39.008Z</time>
      </trkpt>
      <trkpt lat="43.01679" lon="0.85955">
        <ele>713</ele>
        <time>2016-12-03T16:19:09.008Z</time>
      </trkpt>
      <trkpt lat="43.01686" lon="0.85959">
        <ele>712</ele>
        <time>2016-12-03T16:19:25.008Z</time>
      </trkpt>
      <trkpt lat="43.01692" lon="0.85962">
        <ele>712</ele>
        <time>2016-12-03T16:19:28.008Z</time>
      </trkpt>
      <trkpt lat="43.01698" lon="0.85966">
        <ele>711.69600389115</ele>
        <time>2016-12-03T16:19:31.008Z</time>
      </trkpt>
      <trkpt lat="43.01702" lon="0.85969">
        <ele>713</ele>
        <time>2016-12-03T16:19:33.008Z</time>
      </trkpt>
      <trkpt lat="43.01706" lon="0.85972">
        <ele>713</ele>
        <time>2016-12-03T16:19:35.008Z</time>
      </trkpt>
      <trkpt lat="43.0171" lon="0.85976">
        <ele>713</ele>
        <time>2016-12-03T16:19:37.008Z</time>
      </trkpt>
      <trkpt lat="43.01714" lon="0.8598">
        <ele>713</ele>
        <time>2016-12-03T16:19:39.008Z</time>
      </trkpt>
      <trkpt lat="43.01718" lon="0.85984">
        <ele>714.04400583672</ele>
        <time>2016-12-03T16:19:41.008Z</time>
      </trkpt>
      <trkpt lat="43.01724" lon="0.85988">
        <ele>716</ele>
        <time>2016-12-03T16:19:44.008Z</time>
      </trkpt>
      <trkpt lat="43.0173" lon="0.85994">
        <ele>718</ele>
        <time>2016-12-03T16:19:47.008Z</time>
      </trkpt>
      <trkpt lat="43.01735" lon="0.85997">
        <ele>718</ele>
        <time>2016-12-03T16:19:49.008Z</time>
      </trkpt>
      <trkpt lat="43.01743" lon="0.86004">
        <ele>718</ele>
        <time>2016-12-03T16:19:53.008Z</time>
      </trkpt>
      <trkpt lat="43.01752" lon="0.86011">
        <ele>720</ele>
        <time>2016-12-03T16:19:57.008Z</time>
      </trkpt>
      <trkpt lat="43.01762" lon="0.8602">
        <ele>720.69600389115</ele>
        <time>2016-12-03T16:20:01.008Z</time>
      </trkpt>
      <trkpt lat="43.0177" lon="0.8603">
        <ele>722</ele>
        <time>2016-12-03T16:20:05.008Z</time>
      </trkpt>
      <trkpt lat="43.01778" lon="0.86043">
        <ele>722</ele>
        <time>2016-12-03T16:20:09.008Z</time>
      </trkpt>
      <trkpt lat="43.01785" lon="0.86055">
        <ele>723</ele>
        <time>2016-12-03T16:20:12.008Z</time>
      </trkpt>
      <trkpt lat="43.01792" lon="0.86071">
        <ele>723</ele>
        <time>2016-12-03T16:20:15.008Z</time>
      </trkpt>
      <trkpt lat="43.018" lon="0.86083">
        <ele>723</ele>
        <time>2016-12-03T16:20:18.008Z</time>
      </trkpt>
      <trkpt lat="43.01809" lon="0.86094">
        <ele>723</ele>
        <time>2016-12-03T16:20:21.008Z</time>
      </trkpt>
      <trkpt lat="43.01817" lon="0.86107">
        <ele>723</ele>
        <time>2016-12-03T16:20:24.008Z</time>
      </trkpt>
      <trkpt lat="43.01824" lon="0.86121">
        <ele>723</ele>
        <time>2016-12-03T16:20:27.008Z</time>
      </trkpt>
      <trkpt lat="43.0183" lon="0.86137">
        <ele>723</ele>
        <time>2016-12-03T16:20:30.008Z</time>
      </trkpt>
      <trkpt lat="43.01836" lon="0.8615">
        <ele>724</ele>
        <time>2016-12-03T16:20:33.008Z</time>
      </trkpt>
      <trkpt lat="43.01842" lon="0.86165">
        <ele>724</ele>
        <time>2016-12-03T16:20:36.008Z</time>
      </trkpt>
      <trkpt lat="43.01849" lon="0.86183">
        <ele>724</ele>
        <time>2016-12-03T16:20:39.008Z</time>
      </trkpt>
      <trkpt lat="43.01855" lon="0.86197">
        <ele>724</ele>
        <time>2016-12-03T16:20:41.008Z</time>
      </trkpt>
      <trkpt lat="43.01863" lon="0.86212">
        <ele>724</ele>
        <time>2016-12-03T16:20:43.008Z</time>
      </trkpt>
      <trkpt lat="43.01874" lon="0.86228">
        <ele>724</ele>
        <time>2016-12-03T16:20:45.008Z</time>
      </trkpt>
      <trkpt lat="43.01886" lon="0.86247">
        <ele>724</ele>
        <time>2016-12-03T16:20:47.008Z</time>
      </trkpt>
      <trkpt lat="43.01892" lon="0.86268">
        <ele>724</ele>
        <time>2016-12-03T16:20:49.008Z</time>
      </trkpt>
      <trkpt lat="43.0189" lon="0.86286">
        <ele>721.61013136119</ele>
        <time>2016-12-03T16:20:51.008Z</time>
      </trkpt>
      <trkpt lat="43.01886" lon="0.86301">
        <ele>713</ele>
        <time>2016-12-03T16:20:53.008Z</time>
      </trkpt>
      <trkpt lat="43.01881" lon="0.86316">
        <ele>713</ele>
        <time>2016-12-03T16:20:55.008Z</time>
      </trkpt>
      <trkpt lat="43.0188" lon="0.86332">
        <ele>711.65199805443</ele>
        <time>2016-12-03T16:20:57.008Z</time>
      </trkpt>
      <trkpt lat="43.0188" lon="0.8635">
        <ele>712</ele>
        <time>2016-12-03T16:20:59.008Z</time>
      </trkpt>
      <trkpt lat="43.01883" lon="0.86368">
        <ele>710.65199805443</ele>
        <time>2016-12-03T16:21:01.008Z</time>
      </trkpt>
      <trkpt lat="43.01891" lon="0.86386">
        <ele>710</ele>
        <time>2016-12-03T16:21:03.008Z</time>
      </trkpt>
      <trkpt lat="43.01896" lon="0.86395">
        <ele>709.65200194562</ele>
        <time>2016-12-03T16:21:04.008Z</time>
      </trkpt>
      <trkpt lat="43.01901" lon="0.86404">
        <ele>709</ele>
        <time>2016-12-03T16:21:05.008Z</time>
      </trkpt>
      <trkpt lat="43.01911" lon="0.86421">
        <ele>708</ele>
        <time>2016-12-03T16:21:07.008Z</time>
      </trkpt>
      <trkpt lat="43.01915" lon="0.8643">
        <ele>708</ele>
        <time>2016-12-03T16:21:08.008Z</time>
      </trkpt>
      <trkpt lat="43.01925" lon="0.86446">
        <ele>708</ele>
        <time>2016-12-03T16:21:10.008Z</time>
      </trkpt>
      <trkpt lat="43.01936" lon="0.86462">
        <ele>707</ele>
        <time>2016-12-03T16:21:12.008Z</time>
      </trkpt>
      <trkpt lat="43.01943" lon="0.86469">
        <ele>707</ele>
        <time>2016-12-03T16:21:13.008Z</time>
      </trkpt>
      <trkpt lat="43.01958" lon="0.8648">
        <ele>707</ele>
        <time>2016-12-03T16:21:15.008Z</time>
      </trkpt>
      <trkpt lat="43.01965" lon="0.86486">
        <ele>706.30400389125</ele>
        <time>2016-12-03T16:21:16.008Z</time>
      </trkpt>
      <trkpt lat="43.01982" lon="0.86495">
        <ele>705</ele>
        <time>2016-12-03T16:21:18.008Z</time>
      </trkpt>
      <trkpt lat="43.02" lon="0.86501">
        <ele>705</ele>
        <time>2016-12-03T16:21:20.008Z</time>
      </trkpt>
      <trkpt lat="43.0201" lon="0.86502">
        <ele>703.6079922177</ele>
        <time>2016-12-03T16:21:21.008Z</time>
      </trkpt>
      <trkpt lat="43.02019" lon="0.86505">
        <ele>700.30400389125</ele>
        <time>2016-12-03T16:21:22.008Z</time>
      </trkpt>
      <trkpt lat="43.02029" lon="0.86507">
        <ele>699</ele>
        <time>2016-12-03T16:21:23.008Z</time>
      </trkpt>
      <trkpt lat="43.02039" lon="0.8651">
        <ele>699</ele>
        <time>2016-12-03T16:21:24.008Z</time>
      </trkpt>
      <trkpt lat="43.02057" lon="0.86518">
        <ele>698</ele>
        <time>2016-12-03T16:21:26.008Z</time>
      </trkpt>
      <trkpt lat="43.02074" lon="0.86522">
        <ele>698</ele>
        <time>2016-12-03T16:21:28.008Z</time>
      </trkpt>
      <trkpt lat="43.02082" lon="0.86523">
        <ele>698</ele>
        <time>2016-12-03T16:21:29.008Z</time>
      </trkpt>
      <trkpt lat="43.02088" lon="0.86522">
        <ele>698</ele>
        <time>2016-12-03T16:21:30.008Z</time>
      </trkpt>
      <trkpt lat="43.02095" lon="0.86521">
        <ele>698</ele>
        <time>2016-12-03T16:21:31.008Z</time>
      </trkpt>
      <trkpt lat="43.021" lon="0.8652">
        <ele>698</ele>
        <time>2016-12-03T16:21:32.008Z</time>
      </trkpt>
      <trkpt lat="43.02106" lon="0.8652">
        <ele>698</ele>
        <time>2016-12-03T16:21:33.008Z</time>
      </trkpt>
      <trkpt lat="43.02116" lon="0.86521">
        <ele>698</ele>
        <time>2016-12-03T16:21:35.008Z</time>
      </trkpt>
      <trkpt lat="43.02124" lon="0.86522">
        <ele>700</ele>
        <time>2016-12-03T16:21:37.008Z</time>
      </trkpt>
      <trkpt lat="43.02135" lon="0.86524">
        <ele>700</ele>
        <time>2016-12-03T16:21:40.008Z</time>
      </trkpt>
      <trkpt lat="43.02146" lon="0.86527">
        <ele>703</ele>
        <time>2016-12-03T16:21:43.008Z</time>
      </trkpt>
      <trkpt lat="43.02157" lon="0.86529">
        <ele>703.69599610875</ele>
        <time>2016-12-03T16:21:46.008Z</time>
      </trkpt>
      <trkpt lat="43.02166" lon="0.86529">
        <ele>705</ele>
        <time>2016-12-03T16:21:48.008Z</time>
      </trkpt>
      <trkpt lat="43.02178" lon="0.86527">
        <ele>705.34800194557</ele>
        <time>2016-12-03T16:21:51.008Z</time>
      </trkpt>
      <trkpt lat="43.02187" lon="0.86524">
        <ele>706</ele>
        <time>2016-12-03T16:21:53.008Z</time>
      </trkpt>
      <trkpt lat="43.02197" lon="0.8652">
        <ele>706</ele>
        <time>2016-12-03T16:21:55.008Z</time>
      </trkpt>
      <trkpt lat="43.02205" lon="0.86516">
        <ele>706</ele>
        <time>2016-12-03T16:21:57.008Z</time>
      </trkpt>
      <trkpt lat="43.02213" lon="0.8651">
        <ele>706</ele>
        <time>2016-12-03T16:21:59.008Z</time>
      </trkpt>
      <trkpt lat="43.02223" lon="0.86504">
        <ele>705.65199805443</ele>
        <time>2016-12-03T16:22:01.008Z</time>
      </trkpt>
      <trkpt lat="43.02233" lon="0.86499">
        <ele>705</ele>
        <time>2016-12-03T16:22:03.008Z</time>
      </trkpt>
      <trkpt lat="43.02244" lon="0.86497">
        <ele>705</ele>
        <time>2016-12-03T16:22:05.008Z</time>
      </trkpt>
      <trkpt lat="43.02257" lon="0.86497">
        <ele>705</ele>
        <time>2016-12-03T16:22:07.008Z</time>
      </trkpt>
      <trkpt lat="43.02269" lon="0.86499">
        <ele>705</ele>
        <time>2016-12-03T16:22:09.008Z</time>
      </trkpt>
      <trkpt lat="43.02283" lon="0.86501">
        <ele>703.95599416328</ele>
        <time>2016-12-03T16:22:11.008Z</time>
      </trkpt>
      <trkpt lat="43.02299" lon="0.86504">
        <ele>702</ele>
        <time>2016-12-03T16:22:13.008Z</time>
      </trkpt>
      <trkpt lat="43.02315" lon="0.86506">
        <ele>702</ele>
        <time>2016-12-03T16:22:15.008Z</time>
      </trkpt>
      <trkpt lat="43.02331" lon="0.86509">
        <ele>699</ele>
        <time>2016-12-03T16:22:17.008Z</time>
      </trkpt>
      <trkpt lat="43.02347" lon="0.86511">
        <ele>699</ele>
        <time>2016-12-03T16:22:19.008Z</time>
      </trkpt>
      <trkpt lat="43.02365" lon="0.86514">
        <ele>698.30399610885</ele>
        <time>2016-12-03T16:22:21.008Z</time>
      </trkpt>
      <trkpt lat="43.02384" lon="0.86517">
        <ele>695.65199805443</ele>
        <time>2016-12-03T16:22:23.008Z</time>
      </trkpt>
      <trkpt lat="43.02403" lon="0.86519">
        <ele>694.65199805443</ele>
        <time>2016-12-03T16:22:25.008Z</time>
      </trkpt>
      <trkpt lat="43.02413" lon="0.86519">
        <ele>693.30400389125</ele>
        <time>2016-12-03T16:22:26.008Z</time>
      </trkpt>
      <trkpt lat="43.02424" lon="0.86519">
        <ele>691.65199805443</ele>
        <time>2016-12-03T16:22:27.008Z</time>
      </trkpt>
      <trkpt lat="43.02434" lon="0.86519">
        <ele>691</ele>
        <time>2016-12-03T16:22:28.008Z</time>
      </trkpt>
      <trkpt lat="43.02454" lon="0.8652">
        <ele>690.65200194562</ele>
        <time>2016-12-03T16:22:30.008Z</time>
      </trkpt>
      <trkpt lat="43.02473" lon="0.8652">
        <ele>689</ele>
        <time>2016-12-03T16:22:32.008Z</time>
      </trkpt>
      <trkpt lat="43.02481" lon="0.8652">
        <ele>688.65199805443</ele>
        <time>2016-12-03T16:22:33.008Z</time>
      </trkpt>
      <trkpt lat="43.0249" lon="0.86521">
        <ele>687.65200194562</ele>
        <time>2016-12-03T16:22:34.008Z</time>
      </trkpt>
      <trkpt lat="43.02499" lon="0.86524">
        <ele>687</ele>
        <time>2016-12-03T16:22:35.008Z</time>
      </trkpt>
      <trkpt lat="43.02515" lon="0.86535">
        <ele>685.65199805443</ele>
        <time>2016-12-03T16:22:37.008Z</time>
      </trkpt>
      <trkpt lat="43.02522" lon="0.86541">
        <ele>684.65200194562</ele>
        <time>2016-12-03T16:22:38.008Z</time>
      </trkpt>
      <trkpt lat="43.02536" lon="0.86554">
        <ele>682.65200194562</ele>
        <time>2016-12-03T16:22:40.008Z</time>
      </trkpt>
      <trkpt lat="43.02543" lon="0.86559">
        <ele>682</ele>
        <time>2016-12-03T16:22:41.008Z</time>
      </trkpt>
      <trkpt lat="43.0255" lon="0.86564">
        <ele>682</ele>
        <time>2016-12-03T16:22:42.008Z</time>
      </trkpt>
      <trkpt lat="43.02558" lon="0.86568">
        <ele>681.65199805443</ele>
        <time>2016-12-03T16:22:43.008Z</time>
      </trkpt>
      <trkpt lat="43.02573" lon="0.86573">
        <ele>680</ele>
        <time>2016-12-03T16:22:45.008Z</time>
      </trkpt>
      <trkpt lat="43.0259" lon="0.86578">
        <ele>680</ele>
        <time>2016-12-03T16:22:47.008Z</time>
      </trkpt>
      <trkpt lat="43.02607" lon="0.86581">
        <ele>678.65199805443</ele>
        <time>2016-12-03T16:22:49.008Z</time>
      </trkpt>
      <trkpt lat="43.02624" lon="0.86584">
        <ele>679</ele>
        <time>2016-12-03T16:22:51.008Z</time>
      </trkpt>
      <trkpt lat="43.02641" lon="0.86585">
        <ele>679</ele>
        <time>2016-12-03T16:22:53.008Z</time>
      </trkpt>
      <trkpt lat="43.0266" lon="0.86583">
        <ele>679</ele>
        <time>2016-12-03T16:22:55.008Z</time>
      </trkpt>
      <trkpt lat="43.02679" lon="0.8658">
        <ele>676</ele>
        <time>2016-12-03T16:22:57.008Z</time>
      </trkpt>
      <trkpt lat="43.02688" lon="0.86578">
        <ele>676</ele>
        <time>2016-12-03T16:22:58.008Z</time>
      </trkpt>
      <trkpt lat="43.02706" lon="0.86571">
        <ele>676</ele>
        <time>2016-12-03T16:23:00.008Z</time>
      </trkpt>
      <trkpt lat="43.02723" lon="0.86562">
        <ele>671</ele>
        <time>2016-12-03T16:23:02.008Z</time>
      </trkpt>
      <trkpt lat="43.02742" lon="0.86556">
        <ele>670.65200194562</ele>
        <time>2016-12-03T16:23:04.008Z</time>
      </trkpt>
      <trkpt lat="43.02752" lon="0.86555">
        <ele>669.65199805443</ele>
        <time>2016-12-03T16:23:05.008Z</time>
      </trkpt>
      <trkpt lat="43.02762" lon="0.86554">
        <ele>668.65200194562</ele>
        <time>2016-12-03T16:23:06.008Z</time>
      </trkpt>
      <trkpt lat="43.02772" lon="0.86552">
        <ele>667.30399610885</ele>
        <time>2016-12-03T16:23:07.008Z</time>
      </trkpt>
      <trkpt lat="43.02782" lon="0.86549">
        <ele>666</ele>
        <time>2016-12-03T16:23:08.008Z</time>
      </trkpt>
      <trkpt lat="43.028" lon="0.86544">
        <ele>664.65200194562</ele>
        <time>2016-12-03T16:23:10.008Z</time>
      </trkpt>
      <trkpt lat="43.02813" lon="0.86545">
        <ele>663</ele>
        <time>2016-12-03T16:23:12.008Z</time>
      </trkpt>
      <trkpt lat="43.02823" lon="0.86558">
        <ele>662</ele>
        <time>2016-12-03T16:23:14.008Z</time>
      </trkpt>
      <trkpt lat="43.02826" lon="0.8658">
        <ele>660.65200194562</ele>
        <time>2016-12-03T16:23:16.008Z</time>
      </trkpt>
      <trkpt lat="43.02827" lon="0.86592">
        <ele>660.34800194557</ele>
        <time>2016-12-03T16:23:17.008Z</time>
      </trkpt>
      <trkpt lat="43.02827" lon="0.86603">
        <ele>660.65200194562</ele>
        <time>2016-12-03T16:23:18.008Z</time>
      </trkpt>
      <trkpt lat="43.02828" lon="0.86626">
        <ele>659</ele>
        <time>2016-12-03T16:23:20.008Z</time>
      </trkpt>
      <trkpt lat="43.02836" lon="0.86649">
        <ele>657.65200194562</ele>
        <time>2016-12-03T16:23:22.008Z</time>
      </trkpt>
      <trkpt lat="43.02847" lon="0.86669">
        <ele>655.65200194562</ele>
        <time>2016-12-03T16:23:24.008Z</time>
      </trkpt>
      <trkpt lat="43.02858" lon="0.86693">
        <ele>654</ele>
        <time>2016-12-03T16:23:26.008Z</time>
      </trkpt>
      <trkpt lat="43.02862" lon="0.86705">
        <ele>654</ele>
        <time>2016-12-03T16:23:27.008Z</time>
      </trkpt>
      <trkpt lat="43.02866" lon="0.86718">
        <ele>653.65200194562</ele>
        <time>2016-12-03T16:23:28.008Z</time>
      </trkpt>
      <trkpt lat="43.0287" lon="0.8673">
        <ele>652.30399610885</ele>
        <time>2016-12-03T16:23:29.008Z</time>
      </trkpt>
      <trkpt lat="43.02875" lon="0.86742">
        <ele>650.65200194562</ele>
        <time>2016-12-03T16:23:30.008Z</time>
      </trkpt>
      <trkpt lat="43.02881" lon="0.86752">
        <ele>649.65199805443</ele>
        <time>2016-12-03T16:23:31.008Z</time>
      </trkpt>
      <trkpt lat="43.02888" lon="0.86761">
        <ele>648.65200194562</ele>
        <time>2016-12-03T16:23:32.008Z</time>
      </trkpt>
      <trkpt lat="43.02902" lon="0.86775">
        <ele>647</ele>
        <time>2016-12-03T16:23:34.008Z</time>
      </trkpt>
      <trkpt lat="43.02919" lon="0.86784">
        <ele>645.30400389125</ele>
        <time>2016-12-03T16:23:36.008Z</time>
      </trkpt>
      <trkpt lat="43.02935" lon="0.86787">
        <ele>643.30400389125</ele>
        <time>2016-12-03T16:23:38.008Z</time>
      </trkpt>
      <trkpt lat="43.02953" lon="0.86785">
        <ele>641</ele>
        <time>2016-12-03T16:23:40.008Z</time>
      </trkpt>
      <trkpt lat="43.02962" lon="0.86782">
        <ele>640.65199805443</ele>
        <time>2016-12-03T16:23:41.008Z</time>
      </trkpt>
      <trkpt lat="43.02971" lon="0.86779">
        <ele>639.65200194562</ele>
        <time>2016-12-03T16:23:42.008Z</time>
      </trkpt>
      <trkpt lat="43.0298" lon="0.86777">
        <ele>638.65199805443</ele>
        <time>2016-12-03T16:23:43.008Z</time>
      </trkpt>
      <trkpt lat="43.02989" lon="0.86777">
        <ele>637.65200194562</ele>
        <time>2016-12-03T16:23:44.008Z</time>
      </trkpt>
      <trkpt lat="43.02998" lon="0.86777">
        <ele>636.30399610885</ele>
        <time>2016-12-03T16:23:45.008Z</time>
      </trkpt>
      <trkpt lat="43.03008" lon="0.8678">
        <ele>635</ele>
        <time>2016-12-03T16:23:46.008Z</time>
      </trkpt>
      <trkpt lat="43.03016" lon="0.86784">
        <ele>635</ele>
        <time>2016-12-03T16:23:47.008Z</time>
      </trkpt>
      <trkpt lat="43.03025" lon="0.8679">
        <ele>634.30400389125</ele>
        <time>2016-12-03T16:23:48.008Z</time>
      </trkpt>
      <trkpt lat="43.03033" lon="0.86798">
        <ele>632.65199805443</ele>
        <time>2016-12-03T16:23:49.008Z</time>
      </trkpt>
      <trkpt lat="43.0304" lon="0.86806">
        <ele>632</ele>
        <time>2016-12-03T16:23:50.008Z</time>
      </trkpt>
      <trkpt lat="43.03047" lon="0.86816">
        <ele>632</ele>
        <time>2016-12-03T16:23:51.008Z</time>
      </trkpt>
      <trkpt lat="43.03054" lon="0.86826">
        <ele>631.65200194562</ele>
        <time>2016-12-03T16:23:52.008Z</time>
      </trkpt>
      <trkpt lat="43.03059" lon="0.86837">
        <ele>630.65199805443</ele>
        <time>2016-12-03T16:23:53.008Z</time>
      </trkpt>
      <trkpt lat="43.03066" lon="0.8686">
        <ele>628.65199805443</ele>
        <time>2016-12-03T16:23:55.008Z</time>
      </trkpt>
      <trkpt lat="43.03069" lon="0.86873">
        <ele>628</ele>
        <time>2016-12-03T16:23:56.008Z</time>
      </trkpt>
      <trkpt lat="43.03071" lon="0.86885">
        <ele>627.65199805443</ele>
        <time>2016-12-03T16:23:57.008Z</time>
      </trkpt>
      <trkpt lat="43.03074" lon="0.86898">
        <ele>627</ele>
        <time>2016-12-03T16:23:58.008Z</time>
      </trkpt>
      <trkpt lat="43.03076" lon="0.8691">
        <ele>626.65199805443</ele>
        <time>2016-12-03T16:23:59.008Z</time>
      </trkpt>
      <trkpt lat="43.0308" lon="0.86923">
        <ele>625.65200194562</ele>
        <time>2016-12-03T16:24:00.008Z</time>
      </trkpt>
      <trkpt lat="43.03084" lon="0.86935">
        <ele>624.30399610885</ele>
        <time>2016-12-03T16:24:01.008Z</time>
      </trkpt>
      <trkpt lat="43.03088" lon="0.86946">
        <ele>623</ele>
        <time>2016-12-03T16:24:02.008Z</time>
      </trkpt>
      <trkpt lat="43.03093" lon="0.86957">
        <ele>622.65199805443</ele>
        <time>2016-12-03T16:24:03.008Z</time>
      </trkpt>
      <trkpt lat="43.03106" lon="0.86975">
        <ele>621</ele>
        <time>2016-12-03T16:24:05.008Z</time>
      </trkpt>
      <trkpt lat="43.03121" lon="0.8699">
        <ele>619.65199805443</ele>
        <time>2016-12-03T16:24:07.008Z</time>
      </trkpt>
      <trkpt lat="43.0313" lon="0.87009">
        <ele>617.65199805443</ele>
        <time>2016-12-03T16:24:09.008Z</time>
      </trkpt>
      <trkpt lat="43.03133" lon="0.87031">
        <ele>617</ele>
        <time>2016-12-03T16:24:11.008Z</time>
      </trkpt>
      <trkpt lat="43.0313" lon="0.8705">
        <ele>615.65199805443</ele>
        <time>2016-12-03T16:24:13.008Z</time>
      </trkpt>
      <trkpt lat="43.0312" lon="0.87062">
        <ele>615</ele>
        <time>2016-12-03T16:24:15.008Z</time>
      </trkpt>
      <trkpt lat="43.03107" lon="0.87068">
        <ele>613.65199805443</ele>
        <time>2016-12-03T16:24:17.008Z</time>
      </trkpt>
      <trkpt lat="43.03093" lon="0.87072">
        <ele>612</ele>
        <time>2016-12-03T16:24:19.008Z</time>
      </trkpt>
      <trkpt lat="43.03078" lon="0.87079">
        <ele>611</ele>
        <time>2016-12-03T16:24:21.008Z</time>
      </trkpt>
      <trkpt lat="43.03063" lon="0.87084">
        <ele>610.65199805443</ele>
        <time>2016-12-03T16:24:23.008Z</time>
      </trkpt>
      <trkpt lat="43.03049" lon="0.87095">
        <ele>608</ele>
        <time>2016-12-03T16:24:25.008Z</time>
      </trkpt>
      <trkpt lat="43.03041" lon="0.87102">
        <ele>608</ele>
        <time>2016-12-03T16:24:26.008Z</time>
      </trkpt>
      <trkpt lat="43.03028" lon="0.87119">
        <ele>607.65200194562</ele>
        <time>2016-12-03T16:24:28.008Z</time>
      </trkpt>
      <trkpt lat="43.03022" lon="0.87126">
        <ele>606.65199805443</ele>
        <time>2016-12-03T16:24:29.008Z</time>
      </trkpt>
      <trkpt lat="43.03017" lon="0.87135">
        <ele>606</ele>
        <time>2016-12-03T16:24:30.008Z</time>
      </trkpt>
      <trkpt lat="43.03006" lon="0.87151">
        <ele>605</ele>
        <time>2016-12-03T16:24:32.008Z</time>
      </trkpt>
      <trkpt lat="43.03001" lon="0.87159">
        <ele>605</ele>
        <time>2016-12-03T16:24:33.008Z</time>
      </trkpt>
      <trkpt lat="43.02996" lon="0.87167">
        <ele>604.65200194562</ele>
        <time>2016-12-03T16:24:34.008Z</time>
      </trkpt>
      <trkpt lat="43.02991" lon="0.87175">
        <ele>603.65199805443</ele>
        <time>2016-12-03T16:24:35.008Z</time>
      </trkpt>
      <trkpt lat="43.02986" lon="0.87183">
        <ele>603</ele>
        <time>2016-12-03T16:24:36.008Z</time>
      </trkpt>
      <trkpt lat="43.02982" lon="0.87191">
        <ele>603</ele>
        <time>2016-12-03T16:24:37.008Z</time>
      </trkpt>
      <trkpt lat="43.02974" lon="0.87207">
        <ele>602.65199805443</ele>
        <time>2016-12-03T16:24:39.008Z</time>
      </trkpt>
      <trkpt lat="43.02968" lon="0.87223">
        <ele>601</ele>
        <time>2016-12-03T16:24:41.008Z</time>
      </trkpt>
      <trkpt lat="43.02966" lon="0.87242">
        <ele>601</ele>
        <time>2016-12-03T16:24:43.008Z</time>
      </trkpt>
      <trkpt lat="43.02964" lon="0.87262">
        <ele>601</ele>
        <time>2016-12-03T16:24:45.008Z</time>
      </trkpt>
      <trkpt lat="43.02963" lon="0.87282">
        <ele>599</ele>
        <time>2016-12-03T16:24:47.008Z</time>
      </trkpt>
      <trkpt lat="43.02961" lon="0.87301">
        <ele>599</ele>
        <time>2016-12-03T16:24:49.008Z</time>
      </trkpt>
      <trkpt lat="43.0296" lon="0.8732">
        <ele>599</ele>
        <time>2016-12-03T16:24:51.008Z</time>
      </trkpt>
      <trkpt lat="43.02958" lon="0.87338">
        <ele>599</ele>
        <time>2016-12-03T16:24:53.008Z</time>
      </trkpt>
      <trkpt lat="43.02959" lon="0.87358">
        <ele>599</ele>
        <time>2016-12-03T16:24:55.008Z</time>
      </trkpt>
      <trkpt lat="43.0296" lon="0.87376">
        <ele>596</ele>
        <time>2016-12-03T16:24:57.008Z</time>
      </trkpt>
      <trkpt lat="43.02963" lon="0.8739">
        <ele>596</ele>
        <time>2016-12-03T16:24:59.008Z</time>
      </trkpt>
      <trkpt lat="43.02965" lon="0.87404">
        <ele>594</ele>
        <time>2016-12-03T16:25:02.008Z</time>
      </trkpt>
      <trkpt lat="43.0297" lon="0.87416">
        <ele>594</ele>
        <time>2016-12-03T16:25:16.008Z</time>
      </trkpt>
      <trkpt lat="43.02973" lon="0.87429">
        <ele>595</ele>
        <time>2016-12-03T16:25:22.008Z</time>
      </trkpt>
      <trkpt lat="43.02976" lon="0.87439">
        <ele>595</ele>
        <time>2016-12-03T16:25:25.008Z</time>
      </trkpt>
      <trkpt lat="43.02979" lon="0.87454">
        <ele>595</ele>
        <time>2016-12-03T16:25:29.008Z</time>
      </trkpt>
      <trkpt lat="43.02983" lon="0.87469">
        <ele>597</ele>
        <time>2016-12-03T16:25:33.008Z</time>
      </trkpt>
      <trkpt lat="43.02985" lon="0.87485">
        <ele>597</ele>
        <time>2016-12-03T16:25:37.008Z</time>
      </trkpt>
      <trkpt lat="43.02989" lon="0.87503">
        <ele>597</ele>
        <time>2016-12-03T16:25:41.008Z</time>
      </trkpt>
      <trkpt lat="43.02992" lon="0.87518">
        <ele>597</ele>
        <time>2016-12-03T16:25:44.008Z</time>
      </trkpt>
      <trkpt lat="43.02993" lon="0.87536">
        <ele>597</ele>
        <time>2016-12-03T16:25:48.008Z</time>
      </trkpt>
      <trkpt lat="43.02988" lon="0.87551">
        <ele>596.30399610885</ele>
        <time>2016-12-03T16:25:51.008Z</time>
      </trkpt>
      <trkpt lat="43.02983" lon="0.87565">
        <ele>595</ele>
        <time>2016-12-03T16:25:54.008Z</time>
      </trkpt>
      <trkpt lat="43.02979" lon="0.8758">
        <ele>595</ele>
        <time>2016-12-03T16:25:57.008Z</time>
      </trkpt>
      <trkpt lat="43.02975" lon="0.87594">
        <ele>595</ele>
        <time>2016-12-03T16:26:00.008Z</time>
      </trkpt>
      <trkpt lat="43.02973" lon="0.87604">
        <ele>590</ele>
        <time>2016-12-03T16:26:14.008Z</time>
      </trkpt>
      <trkpt lat="43.02976" lon="0.87617">
        <ele>590</ele>
        <time>2016-12-03T16:26:19.008Z</time>
      </trkpt>
      <trkpt lat="43.02973" lon="0.8763">
        <ele>589</ele>
        <time>2016-12-03T16:26:23.008Z</time>
      </trkpt>
      <trkpt lat="43.02969" lon="0.87646">
        <ele>589</ele>
        <time>2016-12-03T16:26:26.008Z</time>
      </trkpt>
      <trkpt lat="43.02965" lon="0.8766">
        <ele>589</ele>
        <time>2016-12-03T16:26:29.008Z</time>
      </trkpt>
      <trkpt lat="43.02966" lon="0.87674">
        <ele>582.30400389125</ele>
        <time>2016-12-03T16:26:32.008Z</time>
      </trkpt>
      <trkpt lat="43.02966" lon="0.87689">
        <ele>579.65200194562</ele>
        <time>2016-12-03T16:26:34.008Z</time>
      </trkpt>
      <trkpt lat="43.02964" lon="0.87703">
        <ele>578</ele>
        <time>2016-12-03T16:26:36.008Z</time>
      </trkpt>
      <trkpt lat="43.02961" lon="0.87716">
        <ele>576.65200194562</ele>
        <time>2016-12-03T16:26:38.008Z</time>
      </trkpt>
      <trkpt lat="43.02959" lon="0.87732">
        <ele>574.65200194562</ele>
        <time>2016-12-03T16:26:40.008Z</time>
      </trkpt>
      <trkpt lat="43.02958" lon="0.87747">
        <ele>573</ele>
        <time>2016-12-03T16:26:42.008Z</time>
      </trkpt>
      <trkpt lat="43.02959" lon="0.87763">
        <ele>572</ele>
        <time>2016-12-03T16:26:44.008Z</time>
      </trkpt>
      <trkpt lat="43.02961" lon="0.87777">
        <ele>572</ele>
        <time>2016-12-03T16:26:46.008Z</time>
      </trkpt>
      <trkpt lat="43.02963" lon="0.87791">
        <ele>572</ele>
        <time>2016-12-03T16:26:48.008Z</time>
      </trkpt>
      <trkpt lat="43.02965" lon="0.87805">
        <ele>571</ele>
        <time>2016-12-03T16:26:50.008Z</time>
      </trkpt>
      <trkpt lat="43.02968" lon="0.87822">
        <ele>571</ele>
        <time>2016-12-03T16:26:53.008Z</time>
      </trkpt>
      <trkpt lat="43.02972" lon="0.87837">
        <ele>570.30400389125</ele>
        <time>2016-12-03T16:26:56.008Z</time>
      </trkpt>
      <trkpt lat="43.02976" lon="0.87851">
        <ele>569</ele>
        <time>2016-12-03T16:26:59.008Z</time>
      </trkpt>
      <trkpt lat="43.02966" lon="0.8785">
        <ele>564.65199805443</ele>
        <time>2016-12-03T16:27:03.008Z</time>
      </trkpt>
      <trkpt lat="43.02957" lon="0.87843">
        <ele>562.65199805443</ele>
        <time>2016-12-03T16:27:05.008Z</time>
      </trkpt>
      <trkpt lat="43.02948" lon="0.87832">
        <ele>561</ele>
        <time>2016-12-03T16:27:07.008Z</time>
      </trkpt>
      <trkpt lat="43.02938" lon="0.87817">
        <ele>559.30399610885</ele>
        <time>2016-12-03T16:27:09.008Z</time>
      </trkpt>
      <trkpt lat="43.02933" lon="0.87803">
        <ele>556.65199805443</ele>
        <time>2016-12-03T16:27:11.008Z</time>
      </trkpt>
      <trkpt lat="43.02927" lon="0.8779">
        <ele>554.65199805443</ele>
        <time>2016-12-03T16:27:13.008Z</time>
      </trkpt>
      <trkpt lat="43.0292" lon="0.87774">
        <ele>553.65199805443</ele>
        <time>2016-12-03T16:27:15.008Z</time>
      </trkpt>
      <trkpt lat="43.02914" lon="0.87759">
        <ele>552.30399610885</ele>
        <time>2016-12-03T16:27:17.008Z</time>
      </trkpt>
      <trkpt lat="43.02902" lon="0.87749">
        <ele>549.65200194562</ele>
        <time>2016-12-03T16:27:20.008Z</time>
      </trkpt>
      <trkpt lat="43.02887" lon="0.87744">
        <ele>546.65199805443</ele>
        <time>2016-12-03T16:27:23.008Z</time>
      </trkpt>
      <trkpt lat="43.02882" lon="0.87756">
        <ele>545</ele>
        <time>2016-12-03T16:27:26.008Z</time>
      </trkpt>
      <trkpt lat="43.02873" lon="0.87773">
        <ele>544</ele>
        <time>2016-12-03T16:27:29.008Z</time>
      </trkpt>
      <trkpt lat="43.02862" lon="0.87785">
        <ele>541.65200194562</ele>
        <time>2016-12-03T16:27:32.008Z</time>
      </trkpt>
      <trkpt lat="43.0285" lon="0.87796">
        <ele>536.65199805443</ele>
        <time>2016-12-03T16:27:35.008Z</time>
      </trkpt>
      <trkpt lat="43.02839" lon="0.87804">
        <ele>535.65199805443</ele>
        <time>2016-12-03T16:27:37.008Z</time>
      </trkpt>
      <trkpt lat="43.0283" lon="0.8781">
        <ele>534.65199805443</ele>
        <time>2016-12-03T16:27:39.008Z</time>
      </trkpt>
      <trkpt lat="43.02819" lon="0.87814">
        <ele>531.30400389125</ele>
        <time>2016-12-03T16:27:42.008Z</time>
      </trkpt>
      <trkpt lat="43.02809" lon="0.87819">
        <ele>527.65199805443</ele>
        <time>2016-12-03T16:27:45.008Z</time>
      </trkpt>
      <trkpt lat="43.02796" lon="0.87823">
        <ele>525.65200194562</ele>
        <time>2016-12-03T16:27:48.008Z</time>
      </trkpt>
      <trkpt lat="43.02785" lon="0.87824">
        <ele>522.65199805443</ele>
        <time>2016-12-03T16:27:51.008Z</time>
      </trkpt>
      <trkpt lat="43.02774" lon="0.87824">
        <ele>519.65199805443</ele>
        <time>2016-12-03T16:27:55.008Z</time>
      </trkpt>
      <trkpt lat="43.02761" lon="0.87827">
        <ele>518</ele>
        <time>2016-12-03T16:27:59.008Z</time>
      </trkpt>
      <trkpt lat="43.02752" lon="0.87834">
        <ele>516</ele>
        <time>2016-12-03T16:28:02.008Z</time>
      </trkpt>
      <trkpt lat="43.02741" lon="0.87843">
        <ele>514.65200194562</ele>
        <time>2016-12-03T16:28:06.008Z</time>
      </trkpt>
      <trkpt lat="43.02731" lon="0.87847">
        <ele>514</ele>
        <time>2016-12-03T16:28:08.008Z</time>
      </trkpt>
      <trkpt lat="43.02719" lon="0.87851">
        <ele>512</ele>
        <time>2016-12-03T16:28:11.008Z</time>
      </trkpt>
      <trkpt lat="43.02709" lon="0.87857">
        <ele>511.65200194562</ele>
        <time>2016-12-03T16:28:16.008Z</time>
      </trkpt>
      <trkpt lat="43.02695" lon="0.87864">
        <ele>511</ele>
        <time>2016-12-03T16:28:19.008Z</time>
      </trkpt>
      <trkpt lat="43.02685" lon="0.87871">
        <ele>510.30399610885</ele>
        <time>2016-12-03T16:28:21.008Z</time>
      </trkpt>
      <trkpt lat="43.02675" lon="0.87877">
        <ele>509</ele>
        <time>2016-12-03T16:28:23.008Z</time>
      </trkpt>
      <trkpt lat="43.02664" lon="0.87883">
        <ele>508.65200194562</ele>
        <time>2016-12-03T16:28:26.008Z</time>
      </trkpt>
      <trkpt lat="43.02655" lon="0.8789">
        <ele>508</ele>
        <time>2016-12-03T16:28:29.008Z</time>
      </trkpt>
      <trkpt lat="43.02642" lon="0.87897">
        <ele>505</ele>
        <time>2016-12-03T16:28:32.008Z</time>
      </trkpt>
      <trkpt lat="43.02632" lon="0.87902">
        <ele>505</ele>
        <time>2016-12-03T16:28:35.008Z</time>
      </trkpt>
      <trkpt lat="43.02621" lon="0.8791">
        <ele>504</ele>
        <time>2016-12-03T16:28:39.008Z</time>
      </trkpt>
      <trkpt lat="43.02613" lon="0.87918">
        <ele>501</ele>
        <time>2016-12-03T16:28:42.008Z</time>
      </trkpt>
      <trkpt lat="43.026" lon="0.87926">
        <ele>501</ele>
        <time>2016-12-03T16:28:45.008Z</time>
      </trkpt>
      <trkpt lat="43.02587" lon="0.87934">
        <ele>500</ele>
        <time>2016-12-03T16:28:48.008Z</time>
      </trkpt>
      <trkpt lat="43.02575" lon="0.87944">
        <ele>500</ele>
        <time>2016-12-03T16:28:51.008Z</time>
      </trkpt>
      <trkpt lat="43.02566" lon="0.87951">
        <ele>500</ele>
        <time>2016-12-03T16:28:53.008Z</time>
      </trkpt>
      <trkpt lat="43.02557" lon="0.87957">
        <ele>500</ele>
        <time>2016-12-03T16:28:55.008Z</time>
      </trkpt>
      <trkpt lat="43.02548" lon="0.87964">
        <ele>500</ele>
        <time>2016-12-03T16:28:57.008Z</time>
      </trkpt>
      <trkpt lat="43.02539" lon="0.8797">
        <ele>500</ele>
        <time>2016-12-03T16:28:59.008Z</time>
      </trkpt>
      <trkpt lat="43.02525" lon="0.87978">
        <ele>497</ele>
        <time>2016-12-03T16:29:02.008Z</time>
      </trkpt>
      <trkpt lat="43.02514" lon="0.87989">
        <ele>497</ele>
        <time>2016-12-03T16:29:05.008Z</time>
      </trkpt>
      <trkpt lat="43.02503" lon="0.88002">
        <ele>495</ele>
        <time>2016-12-03T16:29:08.008Z</time>
      </trkpt>
      <trkpt lat="43.02492" lon="0.88014">
        <ele>493.6079922177</ele>
        <time>2016-12-03T16:29:11.008Z</time>
      </trkpt>
      <trkpt lat="43.02483" lon="0.88022">
        <ele>490.65200194562</ele>
        <time>2016-12-03T16:29:14.008Z</time>
      </trkpt>
      <trkpt lat="43.02472" lon="0.88032">
        <ele>487.65200194562</ele>
        <time>2016-12-03T16:29:18.008Z</time>
      </trkpt>
      <trkpt lat="43.02463" lon="0.88044">
        <ele>486</ele>
        <time>2016-12-03T16:29:22.008Z</time>
      </trkpt>
      <trkpt lat="43.02454" lon="0.88052">
        <ele>485.65199805443</ele>
        <time>2016-12-03T16:29:27.008Z</time>
      </trkpt>
      <trkpt lat="43.02442" lon="0.88065">
        <ele>483.65882766323</ele>
        <time>2016-12-03T16:29:30.008Z</time>
      </trkpt>
      <trkpt lat="43.02432" lon="0.88074">
        <ele>483</ele>
        <time>2016-12-03T16:29:32.008Z</time>
      </trkpt>
      <trkpt lat="43.02422" lon="0.88077">
        <ele>483</ele>
        <time>2016-12-03T16:29:34.008Z</time>
      </trkpt>
      <trkpt lat="43.02411" lon="0.88079">
        <ele>481.95600583688</ele>
        <time>2016-12-03T16:29:36.008Z</time>
      </trkpt>
      <trkpt lat="43.024" lon="0.8808">
        <ele>480</ele>
        <time>2016-12-03T16:29:38.008Z</time>
      </trkpt>
      <trkpt lat="43.02391" lon="0.88076">
        <ele>480</ele>
        <time>2016-12-03T16:29:40.008Z</time>
      </trkpt>
      <trkpt lat="43.02381" lon="0.88071">
        <ele>480</ele>
        <time>2016-12-03T16:29:42.008Z</time>
      </trkpt>
      <trkpt lat="43.02373" lon="0.88062">
        <ele>480</ele>
        <time>2016-12-03T16:29:44.008Z</time>
      </trkpt>
      <trkpt lat="43.02365" lon="0.88053">
        <ele>478.95600583688</ele>
        <time>2016-12-03T16:29:46.008Z</time>
      </trkpt>
      <trkpt lat="43.02357" lon="0.88043">
        <ele>477</ele>
        <time>2016-12-03T16:29:48.008Z</time>
      </trkpt>
      <trkpt lat="43.02347" lon="0.88032">
        <ele>477</ele>
        <time>2016-12-03T16:29:50.008Z</time>
      </trkpt>
      <trkpt lat="43.02337" lon="0.8802">
        <ele>475</ele>
        <time>2016-12-03T16:29:53.008Z</time>
      </trkpt>
      <trkpt lat="43.02327" lon="0.8801">
        <ele>474.30400389125</ele>
        <time>2016-12-03T16:29:56.008Z</time>
      </trkpt>
      <trkpt lat="43.02318" lon="0.88003">
        <ele>473</ele>
        <time>2016-12-03T16:29:59.008Z</time>
      </trkpt>
      <trkpt lat="43.02307" lon="0.87996">
        <ele>467</ele>
        <time>2016-12-03T16:30:02.008Z</time>
      </trkpt>
      <trkpt lat="43.02294" lon="0.8799">
        <ele>467</ele>
        <time>2016-12-03T16:30:05.008Z</time>
      </trkpt>
      <trkpt lat="43.02284" lon="0.87981">
        <ele>465</ele>
        <time>2016-12-03T16:30:08.008Z</time>
      </trkpt>
      <trkpt lat="43.02274" lon="0.87974">
        <ele>463.65199805443</ele>
        <time>2016-12-03T16:30:11.008Z</time>
      </trkpt>
      <trkpt lat="43.02262" lon="0.8797">
        <ele>463</ele>
        <time>2016-12-03T16:30:14.008Z</time>
      </trkpt>
      <trkpt lat="43.02252" lon="0.87968">
        <ele>462.30400389125</ele>
        <time>2016-12-03T16:30:16.008Z</time>
      </trkpt>
      <trkpt lat="43.02241" lon="0.87965">
        <ele>461</ele>
        <time>2016-12-03T16:30:18.008Z</time>
      </trkpt>
      <trkpt lat="43.02231" lon="0.87967">
        <ele>461</ele>
        <time>2016-12-03T16:30:20.008Z</time>
      </trkpt>
      <trkpt lat="43.02219" lon="0.87967">
        <ele>456.30400389125</ele>
        <time>2016-12-03T16:30:22.008Z</time>
      </trkpt>
      <trkpt lat="43.02206" lon="0.87967">
        <ele>452.65200194562</ele>
        <time>2016-12-03T16:30:24.008Z</time>
      </trkpt>
      <trkpt lat="43.02194" lon="0.87967">
        <ele>450.65200194562</ele>
        <time>2016-12-03T16:30:26.008Z</time>
      </trkpt>
      <trkpt lat="43.02178" lon="0.87962">
        <ele>448.65199805443</ele>
        <time>2016-12-03T16:30:29.008Z</time>
      </trkpt>
      <trkpt lat="43.02163" lon="0.87963">
        <ele>446.65200194562</ele>
        <time>2016-12-03T16:30:32.008Z</time>
      </trkpt>
      <trkpt lat="43.02152" lon="0.87968">
        <ele>444.30400389125</ele>
        <time>2016-12-03T16:30:34.008Z</time>
      </trkpt>
      <trkpt lat="43.02142" lon="0.87978">
        <ele>442.65200194562</ele>
        <time>2016-12-03T16:30:36.008Z</time>
      </trkpt>
      <trkpt lat="43.02132" lon="0.87991">
        <ele>441.65200194562</ele>
        <time>2016-12-03T16:30:38.008Z</time>
      </trkpt>
      <trkpt lat="43.02126" lon="0.88002">
        <ele>439.65200194562</ele>
        <time>2016-12-03T16:30:40.008Z</time>
      </trkpt>
      <trkpt lat="43.02127" lon="0.88022">
        <ele>438.65199805443</ele>
        <time>2016-12-03T16:30:43.008Z</time>
      </trkpt>
      <trkpt lat="43.02126" lon="0.88036">
        <ele>437.34800194557</ele>
        <time>2016-12-03T16:30:45.008Z</time>
      </trkpt>
      <trkpt lat="43.02124" lon="0.88055">
        <ele>437.65200194562</ele>
        <time>2016-12-03T16:30:48.008Z</time>
      </trkpt>
      <trkpt lat="43.0212" lon="0.88068">
        <ele>437</ele>
        <time>2016-12-03T16:30:50.008Z</time>
      </trkpt>
      <trkpt lat="43.02116" lon="0.88082">
        <ele>437</ele>
        <time>2016-12-03T16:30:52.008Z</time>
      </trkpt>
      <trkpt lat="43.02111" lon="0.88096">
        <ele>437</ele>
        <time>2016-12-03T16:30:54.008Z</time>
      </trkpt>
      <trkpt lat="43.02106" lon="0.8811">
        <ele>435.95600583688</ele>
        <time>2016-12-03T16:30:56.008Z</time>
      </trkpt>
      <trkpt lat="43.02101" lon="0.88123">
        <ele>434</ele>
        <time>2016-12-03T16:30:58.008Z</time>
      </trkpt>
      <trkpt lat="43.02096" lon="0.88135">
        <ele>434</ele>
        <time>2016-12-03T16:31:00.008Z</time>
      </trkpt>
      <trkpt lat="43.02091" lon="0.8815">
        <ele>429</ele>
        <time>2016-12-03T16:31:03.008Z</time>
      </trkpt>
      <trkpt lat="43.02094" lon="0.88164">
        <ele>427</ele>
        <time>2016-12-03T16:31:13.008Z</time>
      </trkpt>
      <trkpt lat="43.02098" lon="0.8818">
        <ele>427</ele>
        <time>2016-12-03T16:31:17.008Z</time>
      </trkpt>
      <trkpt lat="43.02098" lon="0.88192">
        <ele>427</ele>
        <time>2016-12-03T16:31:19.008Z</time>
      </trkpt>
      <trkpt lat="43.02095" lon="0.88206">
        <ele>425.95599416328</ele>
        <time>2016-12-03T16:31:21.008Z</time>
      </trkpt>
      <trkpt lat="43.02093" lon="0.88221">
        <ele>424</ele>
        <time>2016-12-03T16:31:23.008Z</time>
      </trkpt>
      <trkpt lat="43.02091" lon="0.8823">
        <ele>424</ele>
        <time>2016-12-03T16:31:24.008Z</time>
      </trkpt>
      <trkpt lat="43.02088" lon="0.88247">
        <ele>422.95600583688</ele>
        <time>2016-12-03T16:31:26.008Z</time>
      </trkpt>
      <trkpt lat="43.02085" lon="0.88263">
        <ele>421</ele>
        <time>2016-12-03T16:31:28.008Z</time>
      </trkpt>
      <trkpt lat="43.02082" lon="0.88276">
        <ele>421</ele>
        <time>2016-12-03T16:31:30.008Z</time>
      </trkpt>
      <trkpt lat="43.02076" lon="0.88287">
        <ele>418</ele>
        <time>2016-12-03T16:31:32.008Z</time>
      </trkpt>
      <trkpt lat="43.02068" lon="0.88297">
        <ele>418</ele>
        <time>2016-12-03T16:31:34.008Z</time>
      </trkpt>
      <trkpt lat="43.02061" lon="0.88308">
        <ele>417.65200194562</ele>
        <time>2016-12-03T16:31:36.008Z</time>
      </trkpt>
      <trkpt lat="43.02053" lon="0.88321">
        <ele>417</ele>
        <time>2016-12-03T16:31:38.008Z</time>
      </trkpt>
      <trkpt lat="43.02043" lon="0.88332">
        <ele>417</ele>
        <time>2016-12-03T16:31:40.008Z</time>
      </trkpt>
      <trkpt lat="43.02031" lon="0.88339">
        <ele>416</ele>
        <time>2016-12-03T16:31:42.008Z</time>
      </trkpt>
      <trkpt lat="43.02019" lon="0.88345">
        <ele>416</ele>
        <time>2016-12-03T16:31:44.008Z</time>
      </trkpt>
      <trkpt lat="43.02007" lon="0.8835">
        <ele>416</ele>
        <time>2016-12-03T16:31:46.008Z</time>
      </trkpt>
      <trkpt lat="43.01995" lon="0.88356">
        <ele>416</ele>
        <time>2016-12-03T16:31:48.008Z</time>
      </trkpt>
      <trkpt lat="43.01984" lon="0.88362">
        <ele>416</ele>
        <time>2016-12-03T16:31:50.008Z</time>
      </trkpt>
      <trkpt lat="43.01973" lon="0.88366">
        <ele>416</ele>
        <time>2016-12-03T16:31:52.008Z</time>
      </trkpt>
      <trkpt lat="43.01963" lon="0.88369">
        <ele>416</ele>
        <time>2016-12-03T16:31:54.008Z</time>
      </trkpt>
      <trkpt lat="43.01958" lon="0.8837">
        <ele>416</ele>
        <time>2016-12-03T16:31:55.008Z</time>
      </trkpt>
      <trkpt lat="43.01948" lon="0.88369">
        <ele>416</ele>
        <time>2016-12-03T16:31:57.008Z</time>
      </trkpt>
      <trkpt lat="43.0194" lon="0.88363">
        <ele>416</ele>
        <time>2016-12-03T16:31:59.008Z</time>
      </trkpt>
      <trkpt lat="43.01933" lon="0.88356">
        <ele>416</ele>
        <time>2016-12-03T16:32:01.008Z</time>
      </trkpt>
      <trkpt lat="43.01926" lon="0.88353">
        <ele>416</ele>
        <time>2016-12-03T16:32:03.008Z</time>
      </trkpt>
      <trkpt lat="43.0192" lon="0.8835">
        <ele>416</ele>
        <time>2016-12-03T16:32:05.008Z</time>
      </trkpt>
      <trkpt lat="43.01914" lon="0.88348">
        <ele>416</ele>
        <time>2016-12-03T16:32:07.008Z</time>
      </trkpt>
      <trkpt lat="43.01909" lon="0.88346">
        <ele>416</ele>
        <time>2016-12-03T16:32:09.008Z</time>
      </trkpt>
      <trkpt lat="43.019" lon="0.88343">
        <ele>418</ele>
        <time>2016-12-03T16:32:13.008Z</time>
      </trkpt>
      <trkpt lat="43.01898" lon="0.88343">
        <ele>417.99450323405</ele>
        <time>2016-12-03T16:32:14.008Z</time>
      </trkpt>
    </trkseg>
  </trk>
</gpx>